<?xml version='1.0' encoding='UTF-8'?><gpx version="1.1" creator="JPX - https://github.com/jenetics/jpx" xmlns="http://www.topografix.com/GPX/1/1"><trk><trkseg><trkpt lat="45.89533604320331" lon="11.041107920859192"><ele>195.0</ele><time>2026-04-24T13:04:43.999Z</time></trkpt><trkpt lat="45.89542898848806" lon="11.041149761290955"><ele>195.0</ele><time>2026-04-24T13:04:45.999Z</time></trkpt><trkpt lat="45.89548977545865" lon="11.041113324858587"><ele>195.0</ele><time>2026-04-24T13:04:48.999Z</time></trkpt><trkpt lat="45.895539204640656" lon="11.040985294289706"><ele>195.0</ele><time>2026-04-24T13:04:50.999Z</time></trkpt><trkpt lat="45.895568096218966" lon="11.04084285861192"><ele>195.0</ele><time>2026-04-24T13:04:52.999Z</time></trkpt><trkpt lat="45.895573739234" lon="11.040752318672881"><ele>195.0</ele><time>2026-04-24T13:04:54.999Z</time></trkpt><trkpt lat="45.89557783411763" lon="11.040659865671"><ele>194.2</ele><time>2026-04-24T13:04:57.999Z</time></trkpt><trkpt lat="45.89559664158634" lon="11.040503808033673"><ele>193.4</ele><time>2026-04-24T13:05:10.999Z</time></trkpt><trkpt lat="45.89560720503358" lon="11.040297147508339"><ele>192.60000000000002</ele><time>2026-04-24T13:05:13Z</time></trkpt><trkpt lat="45.89561972656686" lon="11.040170878008642"><ele>191.8</ele><time>2026-04-24T13:05:14Z</time></trkpt><trkpt lat="45.89564063956098" lon="11.040048760749759"><ele>191.0</ele><time>2026-04-24T13:05:15Z</time></trkpt><trkpt lat="45.895610132487164" lon="11.03989332924193"><ele>190.75</ele><time>2026-04-24T13:05:16Z</time></trkpt><trkpt lat="45.89562097005395" lon="11.03975001502761"><ele>190.5</ele><time>2026-04-24T13:05:17Z</time></trkpt><trkpt lat="45.89563623776909" lon="11.039555748309613"><ele>190.25</ele><time>2026-04-24T13:05:18Z</time></trkpt><trkpt lat="45.89564918487731" lon="11.039398833110427"><ele>190.0</ele><time>2026-04-24T13:05:19Z</time></trkpt><trkpt lat="45.89566362527534" lon="11.039243717091455"><ele>189.83333333333334</ele><time>2026-04-24T13:05:20Z</time></trkpt><trkpt lat="45.89568523704875" lon="11.039109082194733"><ele>189.66666666666669</ele><time>2026-04-24T13:05:21Z</time></trkpt><trkpt lat="45.895689505610655" lon="11.039004384398657"><ele>189.5</ele><time>2026-04-24T13:05:22Z</time></trkpt><trkpt lat="45.89570624805385" lon="11.03886434235364"><ele>189.33333333333334</ele><time>2026-04-24T13:05:24Z</time></trkpt><trkpt lat="45.895720958818224" lon="11.038768793593183"><ele>189.16666666666666</ele><time>2026-04-24T13:05:25Z</time></trkpt><trkpt lat="45.89573757628315" lon="11.038656470136791"><ele>189.0</ele><time>2026-04-24T13:05:26Z</time></trkpt><trkpt lat="45.895756793226205" lon="11.038536442755916"><ele>189.0</ele><time>2026-04-24T13:05:27Z</time></trkpt><trkpt lat="45.89578966088164" lon="11.03840653979879"><ele>189.0</ele><time>2026-04-24T13:05:28Z</time></trkpt><trkpt lat="45.89581081635055" lon="11.038271851901154"><ele>189.0</ele><time>2026-04-24T13:05:29Z</time></trkpt><trkpt lat="45.895831442279416" lon="11.03811950652373"><ele>189.0</ele><time>2026-04-24T13:05:30Z</time></trkpt><trkpt lat="45.895854756651545" lon="11.037964874242746"><ele>189.0</ele><time>2026-04-24T13:05:31Z</time></trkpt><trkpt lat="45.8958855975921" lon="11.037815496472161"><ele>188.83333333333334</ele><time>2026-04-24T13:05:31.999Z</time></trkpt><trkpt lat="45.89590548110008" lon="11.037673290210941"><ele>188.66666666666666</ele><time>2026-04-24T13:05:32.999Z</time></trkpt><trkpt lat="45.895928901910814" lon="11.037537293409507"><ele>188.5</ele><time>2026-04-24T13:05:33.999Z</time></trkpt><trkpt lat="45.895953343915075" lon="11.037424945856136"><ele>188.33333333333331</ele><time>2026-04-24T13:05:34.999Z</time></trkpt><trkpt lat="45.895949443727616" lon="11.037319247243763"><ele>188.16666666666666</ele><time>2026-04-24T13:05:35.999Z</time></trkpt><trkpt lat="45.89595854639134" lon="11.037229327406727"><ele>188.0</ele><time>2026-04-24T13:05:36.999Z</time></trkpt><trkpt lat="45.89612091054064" lon="11.037116804991747"><ele>187.60000000000002</ele><time>2026-04-24T13:05:38.999Z</time></trkpt><trkpt lat="45.896212121225936" lon="11.037066694967505"><ele>187.20000000000002</ele><time>2026-04-24T13:05:39.999Z</time></trkpt><trkpt lat="45.896301151710006" lon="11.03700508257073"><ele>186.8</ele><time>2026-04-24T13:05:40.999Z</time></trkpt><trkpt lat="45.89640036839369" lon="11.03696394742137"><ele>186.4</ele><time>2026-04-24T13:05:41.999Z</time></trkpt><trkpt lat="45.89650074103937" lon="11.036925265087657"><ele>186.0</ele><time>2026-04-24T13:05:42.999Z</time></trkpt><trkpt lat="45.89660176388643" lon="11.036878455600954"><ele>186.0</ele><time>2026-04-24T13:05:43.999Z</time></trkpt><trkpt lat="45.896699609816906" lon="11.03682922741875"><ele>186.0</ele><time>2026-04-24T13:05:44.999Z</time></trkpt><trkpt lat="45.896804681555544" lon="11.036777888431589"><ele>186.0</ele><time>2026-04-24T13:05:45.999Z</time></trkpt><trkpt lat="45.896903256877884" lon="11.036742283066683"><ele>186.0</ele><time>2026-04-24T13:05:46.999Z</time></trkpt><trkpt lat="45.89701841997917" lon="11.036706694754107"><ele>186.0</ele><time>2026-04-24T13:05:47.999Z</time></trkpt><trkpt lat="45.89713189945906" lon="11.036721573056862"><ele>186.0</ele><time>2026-04-24T13:05:48.999Z</time></trkpt><trkpt lat="45.897242342172945" lon="11.03675258140194"><ele>186.0</ele><time>2026-04-24T13:05:49.999Z</time></trkpt><trkpt lat="45.89736113743575" lon="11.036768253060178"><ele>186.0</ele><time>2026-04-24T13:05:50.999Z</time></trkpt><trkpt lat="45.897481705918885" lon="11.036808845964321"><ele>186.0</ele><time>2026-04-24T13:05:51.999Z</time></trkpt><trkpt lat="45.89759414692657" lon="11.036862475464263"><ele>186.25</ele><time>2026-04-24T13:05:52.999Z</time></trkpt><trkpt lat="45.89770858217342" lon="11.036899797048257"><ele>186.5</ele><time>2026-04-24T13:05:53.999Z</time></trkpt><trkpt lat="45.89782218583445" lon="11.036925146934882"><ele>186.75</ele><time>2026-04-24T13:05:54.999Z</time></trkpt><trkpt lat="45.89793050174205" lon="11.03696299435684"><ele>187.0</ele><time>2026-04-24T13:05:55.999Z</time></trkpt><trkpt lat="45.89805821289631" lon="11.036994862572842"><ele>187.0</ele><time>2026-04-24T13:05:56.999Z</time></trkpt><trkpt lat="45.89816897166496" lon="11.03703709754077"><ele>187.0</ele><time>2026-04-24T13:05:57.999Z</time></trkpt><trkpt lat="45.89829555945056" lon="11.037072201132796"><ele>187.0</ele><time>2026-04-24T13:05:58.999Z</time></trkpt><trkpt lat="45.89841283055524" lon="11.037098352360529"><ele>187.0</ele><time>2026-04-24T13:05:59.999Z</time></trkpt><trkpt lat="45.89852216443197" lon="11.037131329407538"><ele>186.39999999999998</ele><time>2026-04-24T13:06:00.999Z</time></trkpt><trkpt lat="45.8986411741522" lon="11.037169272694573"><ele>185.79999999999998</ele><time>2026-04-24T13:06:01.999Z</time></trkpt><trkpt lat="45.89873916050406" lon="11.037201626518625"><ele>185.2</ele><time>2026-04-24T13:06:02.999Z</time></trkpt><trkpt lat="45.89883694888766" lon="11.037238174524063"><ele>184.6</ele><time>2026-04-24T13:06:03.999Z</time></trkpt><trkpt lat="45.898945021094335" lon="11.037267553561929"><ele>184.0</ele><time>2026-04-24T13:06:04.999Z</time></trkpt><trkpt lat="45.89905532402969" lon="11.037301561946068"><ele>184.0</ele><time>2026-04-24T13:06:05.999Z</time></trkpt><trkpt lat="45.89915559020247" lon="11.037333431493554"><ele>184.0</ele><time>2026-04-24T13:06:06.999Z</time></trkpt><trkpt lat="45.89925534331974" lon="11.037366880897798"><ele>184.0</ele><time>2026-04-24T13:06:07.999Z</time></trkpt><trkpt lat="45.89933991127683" lon="11.037414471133033"><ele>184.0</ele><time>2026-04-24T13:06:08.999Z</time></trkpt><trkpt lat="45.89943801531507" lon="11.037448681466946"><ele>184.0</ele><time>2026-04-24T13:06:09.999Z</time></trkpt><trkpt lat="45.899521012132695" lon="11.037478128690582"><ele>183.0</ele><time>2026-04-24T13:06:10.999Z</time></trkpt><trkpt lat="45.899606654010206" lon="11.037502056410517"><ele>182.0</ele><time>2026-04-24T13:06:11.999Z</time></trkpt><trkpt lat="45.8996820896484" lon="11.0375246614503"><ele>181.0</ele><time>2026-04-24T13:06:12.999Z</time></trkpt><trkpt lat="45.8997552950001" lon="11.037550591880173"><ele>180.0</ele><time>2026-04-24T13:06:13.999Z</time></trkpt><trkpt lat="45.89983156868713" lon="11.03758770042254"><ele>179.0</ele><time>2026-04-24T13:06:14.999Z</time></trkpt><trkpt lat="45.899900053183515" lon="11.037638775218877"><ele>178.0</ele><time>2026-04-24T13:06:15.999Z</time></trkpt><trkpt lat="45.899972610993444" lon="11.037649143133443"><ele>178.0</ele><time>2026-04-24T13:06:16.999Z</time></trkpt><trkpt lat="45.90003301517548" lon="11.037585949049785"><ele>178.0</ele><time>2026-04-24T13:06:17.999Z</time></trkpt><trkpt lat="45.90005902128842" lon="11.037477531665635"><ele>178.0</ele><time>2026-04-24T13:06:18.999Z</time></trkpt><trkpt lat="45.900067996115865" lon="11.03735848665124"><ele>178.0</ele><time>2026-04-24T13:06:19.999Z</time></trkpt><trkpt lat="45.90005937216999" lon="11.037209275044653"><ele>178.0</ele><time>2026-04-24T13:06:20.999Z</time></trkpt><trkpt lat="45.90007336726632" lon="11.03705457856822"><ele>177.8</ele><time>2026-04-24T13:06:21.999Z</time></trkpt><trkpt lat="45.900092455064176" lon="11.036886387212473"><ele>177.60000000000002</ele><time>2026-04-24T13:06:22.999Z</time></trkpt><trkpt lat="45.9001082601601" lon="11.036733803303232"><ele>177.39999999999998</ele><time>2026-04-24T13:06:23.999Z</time></trkpt><trkpt lat="45.90013788345261" lon="11.036595217262352"><ele>177.2</ele><time>2026-04-24T13:06:24.999Z</time></trkpt><trkpt lat="45.900186682902266" lon="11.036456332816295"><ele>177.0</ele><time>2026-04-24T13:06:25.999Z</time></trkpt><trkpt lat="45.90025826789773" lon="11.036340445903214"><ele>177.0</ele><time>2026-04-24T13:06:26.999Z</time></trkpt><trkpt lat="45.900343607937614" lon="11.036251796193552"><ele>177.0</ele><time>2026-04-24T13:06:27.999Z</time></trkpt><trkpt lat="45.90042169278934" lon="11.036218254025275"><ele>177.0</ele><time>2026-04-24T13:06:28.999Z</time></trkpt><trkpt lat="45.90052262291435" lon="11.036185020403725"><ele>177.0</ele><time>2026-04-24T13:06:29.999Z</time></trkpt><trkpt lat="45.90064392672871" lon="11.036181343855707"><ele>177.0</ele><time>2026-04-24T13:06:30.999Z</time></trkpt><trkpt lat="45.900744994130854" lon="11.036202735938822"><ele>177.0</ele><time>2026-04-24T13:06:31.999Z</time></trkpt><trkpt lat="45.900840570619444" lon="11.036240163601313"><ele>177.0</ele><time>2026-04-24T13:06:32.999Z</time></trkpt><trkpt lat="45.900932905416234" lon="11.036271377696007"><ele>177.0</ele><time>2026-04-24T13:06:33.999Z</time></trkpt><trkpt lat="45.901014893072045" lon="11.036291478500605"><ele>177.0</ele><time>2026-04-24T13:06:34.999Z</time></trkpt><trkpt lat="45.90108730732948" lon="11.03631145856776"><ele>177.0</ele><time>2026-04-24T13:06:35.999Z</time></trkpt><trkpt lat="45.9011570321562" lon="11.036332455567583"><ele>177.0</ele><time>2026-04-24T13:06:36.999Z</time></trkpt><trkpt lat="45.90122322736634" lon="11.036349928082416"><ele>177.0</ele><time>2026-04-24T13:06:37.999Z</time></trkpt><trkpt lat="45.90129585478914" lon="11.036365104279435"><ele>177.0</ele><time>2026-04-24T13:06:38.999Z</time></trkpt><trkpt lat="45.90136801401209" lon="11.0363805910669"><ele>177.0</ele><time>2026-04-24T13:06:39.999Z</time></trkpt><trkpt lat="45.901485427601486" lon="11.036389447956694"><ele>177.0</ele><time>2026-04-24T13:06:41.999Z</time></trkpt><trkpt lat="45.90156203461715" lon="11.036398783630128"><ele>177.0</ele><time>2026-04-24T13:06:42.999Z</time></trkpt><trkpt lat="45.901648067243556" lon="11.036427093414925"><ele>177.0</ele><time>2026-04-24T13:06:43.999Z</time></trkpt><trkpt lat="45.90174990008855" lon="11.036438755256098"><ele>177.0</ele><time>2026-04-24T13:06:44.999Z</time></trkpt><trkpt lat="45.9018589815309" lon="11.03639518944763"><ele>177.0</ele><time>2026-04-24T13:06:45.999Z</time></trkpt><trkpt lat="45.90195927492452" lon="11.036300248718547"><ele>177.0</ele><time>2026-04-24T13:06:46.999Z</time></trkpt><trkpt lat="45.90200552719529" lon="11.036157609459819"><ele>177.0</ele><time>2026-04-24T13:06:47.999Z</time></trkpt><trkpt lat="45.902070179658104" lon="11.036001527481904"><ele>177.0</ele><time>2026-04-24T13:06:48.999Z</time></trkpt><trkpt lat="45.90204745630048" lon="11.03583218447866"><ele>177.0</ele><time>2026-04-24T13:06:49.999Z</time></trkpt><trkpt lat="45.902067716187915" lon="11.035632581291702"><ele>177.0</ele><time>2026-04-24T13:06:50.999Z</time></trkpt><trkpt lat="45.90208723248175" lon="11.035433383939708"><ele>177.0</ele><time>2026-04-24T13:06:51.999Z</time></trkpt><trkpt lat="45.90210055565981" lon="11.035288196562481"><ele>176.25</ele><time>2026-04-24T13:06:52.999Z</time></trkpt><trkpt lat="45.902105007276035" lon="11.035177025658196"><ele>175.5</ele><time>2026-04-24T13:06:53.999Z</time></trkpt><trkpt lat="45.90232351110629" lon="11.03516241942119"><ele>174.75</ele><time>2026-04-24T13:06:54.999Z</time></trkpt><trkpt lat="45.9024244366271" lon="11.035164898523744"><ele>174.0</ele><time>2026-04-24T13:06:55.999Z</time></trkpt><trkpt lat="45.90250871834659" lon="11.03525268689674"><ele>174.25</ele><time>2026-04-24T13:06:56.999Z</time></trkpt><trkpt lat="45.90263077310163" lon="11.035283844078153"><ele>174.5</ele><time>2026-04-24T13:06:57.999Z</time></trkpt><trkpt lat="45.9027671800212" lon="11.035346478767934"><ele>174.75</ele><time>2026-04-24T13:06:58.999Z</time></trkpt><trkpt lat="45.90292138901517" lon="11.035406770447747"><ele>175.0</ele><time>2026-04-24T13:07:00Z</time></trkpt><trkpt lat="45.903079212566055" lon="11.035459044852374"><ele>175.0</ele><time>2026-04-24T13:07:01Z</time></trkpt><trkpt lat="45.90326992505069" lon="11.035515072232451"><ele>175.0</ele><time>2026-04-24T13:07:02Z</time></trkpt><trkpt lat="45.90346162458244" lon="11.035558198093744"><ele>175.0</ele><time>2026-04-24T13:07:03Z</time></trkpt><trkpt lat="45.903659369239314" lon="11.035617799528334"><ele>175.33333333333334</ele><time>2026-04-24T13:07:04Z</time></trkpt><trkpt lat="45.90385674268867" lon="11.035648163705627"><ele>175.66666666666666</ele><time>2026-04-24T13:07:05Z</time></trkpt><trkpt lat="45.90405769962805" lon="11.035729266528561"><ele>176.0</ele><time>2026-04-24T13:07:06Z</time></trkpt><trkpt lat="45.90426093498648" lon="11.035775291426631"><ele>176.66666666666666</ele><time>2026-04-24T13:07:07Z</time></trkpt><trkpt lat="45.90448041685641" lon="11.035815039960427"><ele>177.33333333333334</ele><time>2026-04-24T13:07:08Z</time></trkpt><trkpt lat="45.904695446838346" lon="11.035845925031044"><ele>178.0</ele><time>2026-04-24T13:07:09Z</time></trkpt><trkpt lat="45.90491285328668" lon="11.035870859758509"><ele>176.33333333333334</ele><time>2026-04-24T13:07:10Z</time></trkpt><trkpt lat="45.905120256157076" lon="11.035908291416321"><ele>174.66666666666666</ele><time>2026-04-24T13:07:11Z</time></trkpt><trkpt lat="45.90532296152709" lon="11.035924806022251"><ele>173.0</ele><time>2026-04-24T13:07:12Z</time></trkpt><trkpt lat="45.905529169532244" lon="11.035941687740204"><ele>173.0</ele><time>2026-04-24T13:07:13Z</time></trkpt><trkpt lat="45.90574203315874" lon="11.035959994899926"><ele>173.0</ele><time>2026-04-24T13:07:14Z</time></trkpt><trkpt lat="45.9059648028922" lon="11.035986053864066"><ele>173.0</ele><time>2026-04-24T13:07:15Z</time></trkpt><trkpt lat="45.90618177362043" lon="11.036012789674343"><ele>173.0</ele><time>2026-04-24T13:07:16Z</time></trkpt><trkpt lat="45.90638673743395" lon="11.036054797006422"><ele>173.0</ele><time>2026-04-24T13:07:17Z</time></trkpt><trkpt lat="45.90660703150855" lon="11.036095699357094"><ele>173.0</ele><time>2026-04-24T13:07:18Z</time></trkpt><trkpt lat="45.90682654912132" lon="11.036133943643541"><ele>173.0</ele><time>2026-04-24T13:07:19Z</time></trkpt><trkpt lat="45.90703543330689" lon="11.036171883467299"><ele>173.0</ele><time>2026-04-24T13:07:20Z</time></trkpt><trkpt lat="45.90722657265128" lon="11.03620768605698"><ele>173.0</ele><time>2026-04-24T13:07:21Z</time></trkpt><trkpt lat="45.90741746758134" lon="11.036242552616882"><ele>173.33333333333331</ele><time>2026-04-24T13:07:22Z</time></trkpt><trkpt lat="45.90761458745507" lon="11.036280209003188"><ele>173.66666666666666</ele><time>2026-04-24T13:07:23Z</time></trkpt><trkpt lat="45.90779885414997" lon="11.036312592612644"><ele>174.0</ele><time>2026-04-24T13:07:24Z</time></trkpt><trkpt lat="45.907975564160544" lon="11.036337239330503"><ele>174.0</ele><time>2026-04-24T13:07:25Z</time></trkpt><trkpt lat="45.908161009627854" lon="11.036335676498679"><ele>174.0</ele><time>2026-04-24T13:07:26Z</time></trkpt><trkpt lat="45.90832878081393" lon="11.036321243865874"><ele>174.0</ele><time>2026-04-24T13:07:27Z</time></trkpt><trkpt lat="45.90849221118796" lon="11.036298636229198"><ele>174.25</ele><time>2026-04-24T13:07:28Z</time></trkpt><trkpt lat="45.90864447050718" lon="11.036269012450573"><ele>174.5</ele><time>2026-04-24T13:07:29Z</time></trkpt><trkpt lat="45.90877974757202" lon="11.03624667383372"><ele>174.75</ele><time>2026-04-24T13:07:30Z</time></trkpt><trkpt lat="45.90890719425152" lon="11.0362428975966"><ele>175.0</ele><time>2026-04-24T13:07:31Z</time></trkpt><trkpt lat="45.909023850874355" lon="11.03630694272062"><ele>175.0</ele><time>2026-04-24T13:07:32Z</time></trkpt><trkpt lat="45.909136616811786" lon="11.036375061232352"><ele>175.0</ele><time>2026-04-24T13:07:33Z</time></trkpt><trkpt lat="45.90924545798081" lon="11.036474184160731"><ele>175.0</ele><time>2026-04-24T13:07:34Z</time></trkpt><trkpt lat="45.909341465014265" lon="11.03658927345033"><ele>175.0</ele><time>2026-04-24T13:07:35Z</time></trkpt><trkpt lat="45.90943278782259" lon="11.036733236253617"><ele>175.0</ele><time>2026-04-24T13:07:36Z</time></trkpt><trkpt lat="45.909500362908666" lon="11.036880811821085"><ele>175.0</ele><time>2026-04-24T13:07:37Z</time></trkpt><trkpt lat="45.90955013901487" lon="11.03704042812849"><ele>175.0</ele><time>2026-04-24T13:07:38Z</time></trkpt><trkpt lat="45.90959968970438" lon="11.037228112433759"><ele>175.0</ele><time>2026-04-24T13:07:39Z</time></trkpt><trkpt lat="45.90965575039898" lon="11.037454913270503"><ele>175.0</ele><time>2026-04-24T13:07:40Z</time></trkpt><trkpt lat="45.90972534554962" lon="11.037665844879857"><ele>175.0</ele><time>2026-04-24T13:07:41Z</time></trkpt><trkpt lat="45.909810815679435" lon="11.03784483990579"><ele>175.0</ele><time>2026-04-24T13:07:42Z</time></trkpt><trkpt lat="45.90992115481647" lon="11.037988476052139"><ele>175.0</ele><time>2026-04-24T13:07:43Z</time></trkpt><trkpt lat="45.910031130196806" lon="11.038137161974072"><ele>175.0</ele><time>2026-04-24T13:07:44Z</time></trkpt><trkpt lat="45.91013680461871" lon="11.038251913380764"><ele>175.0</ele><time>2026-04-24T13:07:45Z</time></trkpt><trkpt lat="45.910266231538145" lon="11.038340161022528"><ele>175.0</ele><time>2026-04-24T13:07:46Z</time></trkpt><trkpt lat="45.910409488473626" lon="11.038399860236314"><ele>175.0</ele><time>2026-04-24T13:07:47Z</time></trkpt><trkpt lat="45.910564935892566" lon="11.038452259394688"><ele>175.0</ele><time>2026-04-24T13:07:48Z</time></trkpt><trkpt lat="45.91072502675713" lon="11.038508058068777"><ele>175.0</ele><time>2026-04-24T13:07:49Z</time></trkpt><trkpt lat="45.91086178051162" lon="11.0385953459033"><ele>175.25</ele><time>2026-04-24T13:07:50Z</time></trkpt><trkpt lat="45.910975998697985" lon="11.038721542041875"><ele>175.5</ele><time>2026-04-24T13:07:51Z</time></trkpt><trkpt lat="45.91106775457019" lon="11.03886652722215"><ele>175.75</ele><time>2026-04-24T13:07:52Z</time></trkpt><trkpt lat="45.91114990747642" lon="11.039011885987252"><ele>176.0</ele><time>2026-04-24T13:07:53Z</time></trkpt><trkpt lat="45.91123663391844" lon="11.039168325197274"><ele>177.4</ele><time>2026-04-24T13:07:54Z</time></trkpt><trkpt lat="45.911332381512054" lon="11.0392784707395"><ele>178.8</ele><time>2026-04-24T13:07:55Z</time></trkpt><trkpt lat="45.91139592354434" lon="11.039381316139593"><ele>180.20000000000002</ele><time>2026-04-24T13:07:56Z</time></trkpt><trkpt lat="45.91146341583561" lon="11.039457450598343"><ele>181.60000000000002</ele><time>2026-04-24T13:07:57Z</time></trkpt><trkpt lat="45.91154831245402" lon="11.03948211808642"><ele>183.0</ele><time>2026-04-24T13:07:58Z</time></trkpt><trkpt lat="45.911625145008685" lon="11.039470745610158"><ele>183.0</ele><time>2026-04-24T13:07:59Z</time></trkpt><trkpt lat="45.91170474901859" lon="11.039411944907819"><ele>183.0</ele><time>2026-04-24T13:08:00Z</time></trkpt><trkpt lat="45.91178709170751" lon="11.03938606777648"><ele>183.0</ele><time>2026-04-24T13:08:01Z</time></trkpt><trkpt lat="45.91187832494542" lon="11.039336671643856"><ele>183.0</ele><time>2026-04-24T13:08:02Z</time></trkpt><trkpt lat="45.911981476291615" lon="11.039281857608875"><ele>183.0</ele><time>2026-04-24T13:08:03Z</time></trkpt><trkpt lat="45.91208209174428" lon="11.039234846808313"><ele>182.4</ele><time>2026-04-24T13:08:04Z</time></trkpt><trkpt lat="45.91217338564542" lon="11.039176591839098"><ele>181.8</ele><time>2026-04-24T13:08:05Z</time></trkpt><trkpt lat="45.91225703567619" lon="11.039094158196743"><ele>181.2</ele><time>2026-04-24T13:08:06Z</time></trkpt><trkpt lat="45.91232409049503" lon="11.039012892033673"><ele>180.6</ele><time>2026-04-24T13:08:07Z</time></trkpt><trkpt lat="45.91238470408029" lon="11.038915753882302"><ele>180.0</ele><time>2026-04-24T13:08:08Z</time></trkpt><trkpt lat="45.91243801140705" lon="11.038818845002584"><ele>178.6</ele><time>2026-04-24T13:08:09Z</time></trkpt><trkpt lat="45.91250161120322" lon="11.038710414172629"><ele>177.2</ele><time>2026-04-24T13:08:10Z</time></trkpt><trkpt lat="45.91256177817596" lon="11.038595746933808"><ele>175.8</ele><time>2026-04-24T13:08:11Z</time></trkpt><trkpt lat="45.91263021099305" lon="11.03846971078595"><ele>174.4</ele><time>2026-04-24T13:08:12Z</time></trkpt><trkpt lat="45.912707764012175" lon="11.038334915643471"><ele>173.0</ele><time>2026-04-24T13:08:13Z</time></trkpt><trkpt lat="45.91278651950386" lon="11.03818753638209"><ele>173.0</ele><time>2026-04-24T13:08:14Z</time></trkpt><trkpt lat="45.912868726564604" lon="11.038040969079544"><ele>173.0</ele><time>2026-04-24T13:08:15Z</time></trkpt><trkpt lat="45.91294406825133" lon="11.037905761965149"><ele>173.0</ele><time>2026-04-24T13:08:16Z</time></trkpt><trkpt lat="45.91301683120802" lon="11.037782828678024"><ele>173.0</ele><time>2026-04-24T13:08:17Z</time></trkpt><trkpt lat="45.91308516862751" lon="11.037659120235384"><ele>173.0</ele><time>2026-04-24T13:08:18Z</time></trkpt><trkpt lat="45.91315530371215" lon="11.037541921833794"><ele>173.0</ele><time>2026-04-24T13:08:19Z</time></trkpt><trkpt lat="45.91322717943877" lon="11.0374099367347"><ele>173.0</ele><time>2026-04-24T13:08:20Z</time></trkpt><trkpt lat="45.91328926021669" lon="11.037278864429917"><ele>173.0</ele><time>2026-04-24T13:08:21Z</time></trkpt><trkpt lat="45.91334369659703" lon="11.037152629470492"><ele>173.0</ele><time>2026-04-24T13:08:22Z</time></trkpt><trkpt lat="45.91339297405619" lon="11.037028200291719"><ele>174.0</ele><time>2026-04-24T13:08:23Z</time></trkpt><trkpt lat="45.91344372942839" lon="11.036910796715167"><ele>175.0</ele><time>2026-04-24T13:08:24Z</time></trkpt><trkpt lat="45.913496124797945" lon="11.036784603705016"><ele>176.0</ele><time>2026-04-24T13:08:24.999Z</time></trkpt><trkpt lat="45.91355000724244" lon="11.036658939564518"><ele>177.0</ele><time>2026-04-24T13:08:25.999Z</time></trkpt><trkpt lat="45.91360003717395" lon="11.036539581223657"><ele>178.0</ele><time>2026-04-24T13:08:26.999Z</time></trkpt><trkpt lat="45.913650566601596" lon="11.036431499587579"><ele>178.0</ele><time>2026-04-24T13:08:27.999Z</time></trkpt><trkpt lat="45.9136976422666" lon="11.036314930253862"><ele>178.0</ele><time>2026-04-24T13:08:28.999Z</time></trkpt><trkpt lat="45.913740695548675" lon="11.036203064973968"><ele>178.0</ele><time>2026-04-24T13:08:29.999Z</time></trkpt><trkpt lat="45.91378686396174" lon="11.036111477589753"><ele>178.0</ele><time>2026-04-24T13:08:30.999Z</time></trkpt><trkpt lat="45.91383118452807" lon="11.036027415925684"><ele>178.0</ele><time>2026-04-24T13:08:31.999Z</time></trkpt><trkpt lat="45.91388011906506" lon="11.035934874961915"><ele>178.0</ele><time>2026-04-24T13:08:32.999Z</time></trkpt><trkpt lat="45.9139201251819" lon="11.035839571212426"><ele>177.66666666666669</ele><time>2026-04-24T13:08:33.999Z</time></trkpt><trkpt lat="45.913969279086025" lon="11.035747975520728"><ele>177.33333333333334</ele><time>2026-04-24T13:08:34.999Z</time></trkpt><trkpt lat="45.914015548912346" lon="11.035670080810375"><ele>177.0</ele><time>2026-04-24T13:08:38.999Z</time></trkpt><trkpt lat="45.914074692937035" lon="11.03559042380995"><ele>176.66666666666666</ele><time>2026-04-24T13:08:41.999Z</time></trkpt><trkpt lat="45.91414019021006" lon="11.035551105355953"><ele>176.33333333333331</ele><time>2026-04-24T13:08:42.999Z</time></trkpt><trkpt lat="45.91421897994291" lon="11.035501013987195"><ele>176.0</ele><time>2026-04-24T13:08:43.999Z</time></trkpt><trkpt lat="45.91429034312594" lon="11.035435691633241"><ele>175.75</ele><time>2026-04-24T13:08:44.999Z</time></trkpt><trkpt lat="45.91433314455998" lon="11.035313806709338"><ele>175.5</ele><time>2026-04-24T13:08:45.999Z</time></trkpt><trkpt lat="45.91438606610589" lon="11.035199044606165"><ele>175.25</ele><time>2026-04-24T13:08:46.999Z</time></trkpt><trkpt lat="45.91442760953775" lon="11.03506311105472"><ele>175.0</ele><time>2026-04-24T13:08:48.999Z</time></trkpt><trkpt lat="45.91461528988586" lon="11.03519457604312"><ele>175.0</ele><time>2026-04-24T13:08:49.999Z</time></trkpt><trkpt lat="45.914677343085266" lon="11.035262022563291"><ele>175.0</ele><time>2026-04-24T13:08:50.999Z</time></trkpt><trkpt lat="45.9147523914333" lon="11.035358863875956"><ele>175.0</ele><time>2026-04-24T13:08:51.999Z</time></trkpt><trkpt lat="45.91485059443168" lon="11.035456278352266"><ele>175.0</ele><time>2026-04-24T13:08:52.999Z</time></trkpt><trkpt lat="45.91496351970372" lon="11.035583026194212"><ele>175.0</ele><time>2026-04-24T13:08:53.999Z</time></trkpt><trkpt lat="45.91511013913576" lon="11.035658273166234"><ele>175.0</ele><time>2026-04-24T13:08:54.999Z</time></trkpt><trkpt lat="45.91524976475149" lon="11.035723284828368"><ele>175.0</ele><time>2026-04-24T13:08:55.999Z</time></trkpt><trkpt lat="45.915390363852815" lon="11.035787158276966"><ele>175.0</ele><time>2026-04-24T13:08:56.999Z</time></trkpt><trkpt lat="45.915534924616374" lon="11.035853756468676"><ele>175.0</ele><time>2026-04-24T13:08:57.999Z</time></trkpt><trkpt lat="45.915695186614215" lon="11.03590407642171"><ele>175.66666666666669</ele><time>2026-04-24T13:08:58.999Z</time></trkpt><trkpt lat="45.91583900254592" lon="11.03599470291091"><ele>176.33333333333334</ele><time>2026-04-24T13:08:59.999Z</time></trkpt><trkpt lat="45.91597652545946" lon="11.036058515095114"><ele>177.0</ele><time>2026-04-24T13:09:00.999Z</time></trkpt><trkpt lat="45.91612404061105" lon="11.036103469727816"><ele>177.25</ele><time>2026-04-24T13:09:01.999Z</time></trkpt><trkpt lat="45.91626741547657" lon="11.036172333160911"><ele>177.5</ele><time>2026-04-24T13:09:02.999Z</time></trkpt><trkpt lat="45.91641020148829" lon="11.036236785761904"><ele>177.75</ele><time>2026-04-24T13:09:03.999Z</time></trkpt><trkpt lat="45.91655018065966" lon="11.036299564326688"><ele>178.0</ele><time>2026-04-24T13:09:04.999Z</time></trkpt><trkpt lat="45.9166905918347" lon="11.036363294694812"><ele>177.75</ele><time>2026-04-24T13:09:05.999Z</time></trkpt><trkpt lat="45.916820970567485" lon="11.036427485496795"><ele>177.5</ele><time>2026-04-24T13:09:06.999Z</time></trkpt><trkpt lat="45.916955725075205" lon="11.036496623528569"><ele>177.25</ele><time>2026-04-24T13:09:07.999Z</time></trkpt><trkpt lat="45.91709312069821" lon="11.036564673733276"><ele>177.0</ele><time>2026-04-24T13:09:08.999Z</time></trkpt><trkpt lat="45.917226016876896" lon="11.036623178712638"><ele>177.0</ele><time>2026-04-24T13:09:09.999Z</time></trkpt><trkpt lat="45.91736040886554" lon="11.036722536314553"><ele>177.0</ele><time>2026-04-24T13:09:10.999Z</time></trkpt><trkpt lat="45.91750127061214" lon="11.036785193966882"><ele>177.0</ele><time>2026-04-24T13:09:11.999Z</time></trkpt><trkpt lat="45.917646051126674" lon="11.036881154333468"><ele>177.0</ele><time>2026-04-24T13:09:12.999Z</time></trkpt><trkpt lat="45.9177953461908" lon="11.036974113779243"><ele>177.0</ele><time>2026-04-24T13:09:13.999Z</time></trkpt><trkpt lat="45.91794068768785" lon="11.03707122205479"><ele>177.0</ele><time>2026-04-24T13:09:14.999Z</time></trkpt><trkpt lat="45.918072342092906" lon="11.037189516740344"><ele>177.0</ele><time>2026-04-24T13:09:15.999Z</time></trkpt><trkpt lat="45.91820582354866" lon="11.037262778198517"><ele>177.0</ele><time>2026-04-24T13:09:16.999Z</time></trkpt><trkpt lat="45.91832097894223" lon="11.037373273476547"><ele>177.0</ele><time>2026-04-24T13:09:17.999Z</time></trkpt><trkpt lat="45.91844263870757" lon="11.037462016620998"><ele>177.0</ele><time>2026-04-24T13:09:18.999Z</time></trkpt><trkpt lat="45.918570042691144" lon="11.037553299163072"><ele>178.0</ele><time>2026-04-24T13:09:19.999Z</time></trkpt><trkpt lat="45.918707368992024" lon="11.037651608582143"><ele>179.0</ele><time>2026-04-24T13:09:20.999Z</time></trkpt><trkpt lat="45.91885594925255" lon="11.03775191742415"><ele>180.0</ele><time>2026-04-24T13:09:21.999Z</time></trkpt><trkpt lat="45.91901103144064" lon="11.037820729128427"><ele>180.0</ele><time>2026-04-24T13:09:22.999Z</time></trkpt><trkpt lat="45.919165670425784" lon="11.037908610949886"><ele>180.0</ele><time>2026-04-24T13:09:23.999Z</time></trkpt><trkpt lat="45.919314540872136" lon="11.037974150063256"><ele>180.0</ele><time>2026-04-24T13:09:24.999Z</time></trkpt><trkpt lat="45.91945813706087" lon="11.038016652381112"><ele>180.0</ele><time>2026-04-24T13:09:25.999Z</time></trkpt><trkpt lat="45.919590780051045" lon="11.038045908680346"><ele>180.0</ele><time>2026-04-24T13:09:26.999Z</time></trkpt><trkpt lat="45.91971101597751" lon="11.038059841119898"><ele>180.0</ele><time>2026-04-24T13:09:27.999Z</time></trkpt><trkpt lat="45.91982626222378" lon="11.038066519950908"><ele>180.0</ele><time>2026-04-24T13:09:28.999Z</time></trkpt><trkpt lat="45.91994648904929" lon="11.038075956590008"><ele>180.4</ele><time>2026-04-24T13:09:29.999Z</time></trkpt><trkpt lat="45.92007342513368" lon="11.038088265057302"><ele>180.8</ele><time>2026-04-24T13:09:30.999Z</time></trkpt><trkpt lat="45.92019383470873" lon="11.03809827243115"><ele>181.2</ele><time>2026-04-24T13:09:31.999Z</time></trkpt><trkpt lat="45.9202814881064" lon="11.038113781355174"><ele>181.6</ele><time>2026-04-24T13:09:32.999Z</time></trkpt><trkpt lat="45.92035074344713" lon="11.038130401687889"><ele>182.0</ele><time>2026-04-24T13:09:33.999Z</time></trkpt><trkpt lat="45.92041429655179" lon="11.038159022430177"><ele>182.0</ele><time>2026-04-24T13:09:34.999Z</time></trkpt><trkpt lat="45.920476814218276" lon="11.038217249891952"><ele>182.0</ele><time>2026-04-24T13:09:35.999Z</time></trkpt><trkpt lat="45.920532306202354" lon="11.038303381199"><ele>182.0</ele><time>2026-04-24T13:09:36.999Z</time></trkpt><trkpt lat="45.92057660129142" lon="11.038381188467357"><ele>182.0</ele><time>2026-04-24T13:09:37.999Z</time></trkpt><trkpt lat="45.92070677877769" lon="11.038412823032544"><ele>182.0</ele><time>2026-04-24T13:09:39.999Z</time></trkpt><trkpt lat="45.92078790312498" lon="11.038401297737163"><ele>182.0</ele><time>2026-04-24T13:09:40.999Z</time></trkpt><trkpt lat="45.92086893958219" lon="11.038408149452748"><ele>182.5</ele><time>2026-04-24T13:09:41.999Z</time></trkpt><trkpt lat="45.92096903875618" lon="11.03841661293592"><ele>183.0</ele><time>2026-04-24T13:09:42.999Z</time></trkpt><trkpt lat="45.92109453703281" lon="11.03822491000996"><ele>183.5</ele><time>2026-04-24T13:09:43.999Z</time></trkpt><trkpt lat="45.921226860178926" lon="11.038250142634308"><ele>184.0</ele><time>2026-04-24T13:09:44.999Z</time></trkpt><trkpt lat="45.92137825475062" lon="11.038284100269555"><ele>184.0</ele><time>2026-04-24T13:09:45.999Z</time></trkpt><trkpt lat="45.92154904763846" lon="11.038313828498895"><ele>184.0</ele><time>2026-04-24T13:09:46.999Z</time></trkpt><trkpt lat="45.921719713057364" lon="11.03833310925716"><ele>184.0</ele><time>2026-04-24T13:09:47.999Z</time></trkpt><trkpt lat="45.92189274590779" lon="11.038368058465117"><ele>185.0</ele><time>2026-04-24T13:09:48.999Z</time></trkpt><trkpt lat="45.922066152731674" lon="11.03847798241412"><ele>186.0</ele><time>2026-04-24T13:09:49.999Z</time></trkpt><trkpt lat="45.922235703270005" lon="11.038609501802835"><ele>187.0</ele><time>2026-04-24T13:09:50.999Z</time></trkpt><trkpt lat="45.92237226283985" lon="11.038758215060662"><ele>187.0</ele><time>2026-04-24T13:09:51.999Z</time></trkpt><trkpt lat="45.92248616650831" lon="11.038911567171539"><ele>187.0</ele><time>2026-04-24T13:09:52.999Z</time></trkpt><trkpt lat="45.92258150386949" lon="11.039079334186056"><ele>187.0</ele><time>2026-04-24T13:09:53.999Z</time></trkpt><trkpt lat="45.922670442491764" lon="11.039264607930946"><ele>187.0</ele><time>2026-04-24T13:09:54.999Z</time></trkpt><trkpt lat="45.922746275915856" lon="11.039469538340088"><ele>187.0</ele><time>2026-04-24T13:09:55.999Z</time></trkpt><trkpt lat="45.922792741181745" lon="11.039702234872546"><ele>187.0</ele><time>2026-04-24T13:09:56.999Z</time></trkpt><trkpt lat="45.92284043311446" lon="11.039966262576932"><ele>186.33333333333334</ele><time>2026-04-24T13:09:57.998Z</time></trkpt><trkpt lat="45.92288893899071" lon="11.040229604527207"><ele>185.66666666666666</ele><time>2026-04-24T13:09:58.998Z</time></trkpt><trkpt lat="45.922931002763555" lon="11.04046097936992"><ele>185.0</ele><time>2026-04-24T13:09:59.998Z</time></trkpt><trkpt lat="45.92296947249235" lon="11.040673952693952"><ele>185.0</ele><time>2026-04-24T13:10:00.998Z</time></trkpt><trkpt lat="45.923006082773604" lon="11.04087663203479"><ele>185.0</ele><time>2026-04-24T13:10:01.998Z</time></trkpt><trkpt lat="45.92303945365358" lon="11.041061329833205"><ele>185.0</ele><time>2026-04-24T13:10:02.998Z</time></trkpt><trkpt lat="45.92307059867887" lon="11.04123345487534"><ele>185.0</ele><time>2026-04-24T13:10:03.998Z</time></trkpt><trkpt lat="45.92309798730362" lon="11.041384811398778"><ele>185.0</ele><time>2026-04-24T13:10:04.998Z</time></trkpt><trkpt lat="45.92312120651416" lon="11.041513124762398"><ele>185.0</ele><time>2026-04-24T13:10:05.998Z</time></trkpt><trkpt lat="45.92313905938336" lon="11.041611782800096"><ele>185.0</ele><time>2026-04-24T13:10:06.998Z</time></trkpt><trkpt lat="45.92322457227593" lon="11.04173465834553"><ele>185.0</ele><time>2026-04-24T13:10:08.998Z</time></trkpt><trkpt lat="45.92332837608999" lon="11.041748808990514"><ele>185.0</ele><time>2026-04-24T13:10:10.998Z</time></trkpt><trkpt lat="45.923397389694564" lon="11.041673873528568"><ele>186.25</ele><time>2026-04-24T13:10:11.998Z</time></trkpt><trkpt lat="45.92348845991585" lon="11.041647814992793"><ele>187.5</ele><time>2026-04-24T13:10:12.998Z</time></trkpt><trkpt lat="45.92360144959335" lon="11.041615484693574"><ele>188.75</ele><time>2026-04-24T13:10:13.998Z</time></trkpt><trkpt lat="45.92372772762141" lon="11.041587375824854"><ele>190.0</ele><time>2026-04-24T13:10:14.998Z</time></trkpt><trkpt lat="45.923842491319284" lon="11.041552653768314"><ele>190.0</ele><time>2026-04-24T13:10:15.998Z</time></trkpt><trkpt lat="45.92396194752717" lon="11.041513359152784"><ele>190.0</ele><time>2026-04-24T13:10:16.998Z</time></trkpt><trkpt lat="45.92408373676351" lon="11.041475799342088"><ele>190.0</ele><time>2026-04-24T13:10:17.998Z</time></trkpt><trkpt lat="45.92420367134311" lon="11.04143598328415"><ele>190.0</ele><time>2026-04-24T13:10:18.998Z</time></trkpt><trkpt lat="45.92432790106656" lon="11.041396138581483"><ele>192.5</ele><time>2026-04-24T13:10:19.998Z</time></trkpt><trkpt lat="45.92445554339742" lon="11.0413520412923"><ele>195.0</ele><time>2026-04-24T13:10:20.998Z</time></trkpt><trkpt lat="45.92457912908649" lon="11.041311223149247"><ele>197.5</ele><time>2026-04-24T13:10:21.998Z</time></trkpt><trkpt lat="45.92470681155622" lon="11.041270754173311"><ele>200.0</ele><time>2026-04-24T13:10:22.998Z</time></trkpt><trkpt lat="45.92483711482737" lon="11.041227623707465"><ele>200.0</ele><time>2026-04-24T13:10:23.998Z</time></trkpt><trkpt lat="45.92496377133862" lon="11.041184612239936"><ele>200.0</ele><time>2026-04-24T13:10:24.998Z</time></trkpt><trkpt lat="45.9250923664662" lon="11.041137972661042"><ele>200.0</ele><time>2026-04-24T13:10:25.998Z</time></trkpt><trkpt lat="45.92522395169089" lon="11.041096038938143"><ele>200.0</ele><time>2026-04-24T13:10:26.998Z</time></trkpt><trkpt lat="45.925343637173796" lon="11.041053507934606"><ele>201.2</ele><time>2026-04-24T13:10:27.998Z</time></trkpt><trkpt lat="45.9254626777806" lon="11.041003183666081"><ele>202.4</ele><time>2026-04-24T13:10:28.998Z</time></trkpt><trkpt lat="45.92556145411325" lon="11.040956842885906"><ele>203.60000000000002</ele><time>2026-04-24T13:10:29.998Z</time></trkpt><trkpt lat="45.92564222327001" lon="11.040913141124436"><ele>204.8</ele><time>2026-04-24T13:10:30.998Z</time></trkpt><trkpt lat="45.925717860598574" lon="11.04088738858909"><ele>206.0</ele><time>2026-04-24T13:10:31.998Z</time></trkpt><trkpt lat="45.92579300071571" lon="11.040842644222819"><ele>206.00000000000003</ele><time>2026-04-24T13:10:32.998Z</time></trkpt><trkpt lat="45.9258642516235" lon="11.04080407165272"><ele>206.0</ele><time>2026-04-24T13:10:33.998Z</time></trkpt><trkpt lat="45.925947528195486" lon="11.04072661179963"><ele>206.0</ele><time>2026-04-24T13:10:35.998Z</time></trkpt><trkpt lat="45.92601630900843" lon="11.040674447734016"><ele>206.0</ele><time>2026-04-24T13:10:38.998Z</time></trkpt><trkpt lat="45.926063607662265" lon="11.040611978916695"><ele>206.00000000000003</ele><time>2026-04-24T13:10:39.998Z</time></trkpt><trkpt lat="45.92611163111648" lon="11.040547070653352"><ele>206.0</ele><time>2026-04-24T13:10:40.998Z</time></trkpt><trkpt lat="45.92617095464659" lon="11.040454237760555"><ele>207.33333333333334</ele><time>2026-04-24T13:10:41.998Z</time></trkpt><trkpt lat="45.926227063683385" lon="11.040362569492427"><ele>208.66666666666669</ele><time>2026-04-24T13:10:42.998Z</time></trkpt><trkpt lat="45.92627534394045" lon="11.040241458808797"><ele>210.0</ele><time>2026-04-24T13:10:43.998Z</time></trkpt><trkpt lat="45.92631828296895" lon="11.040112654027721"><ele>211.33333333333331</ele><time>2026-04-24T13:10:44.998Z</time></trkpt><trkpt lat="45.926346626169575" lon="11.039996106937108"><ele>212.66666666666666</ele><time>2026-04-24T13:10:45.998Z</time></trkpt><trkpt lat="45.926357741642384" lon="11.03988366159951"><ele>214.0</ele><time>2026-04-24T13:10:46.998Z</time></trkpt><trkpt lat="45.92637621759398" lon="11.039761810967873"><ele>214.0</ele><time>2026-04-24T13:10:47.998Z</time></trkpt><trkpt lat="45.92641242843297" lon="11.03963865668822"><ele>213.99999999999997</ele><time>2026-04-24T13:10:48.998Z</time></trkpt><trkpt lat="45.9264619913476" lon="11.0395208006313"><ele>213.99999999999997</ele><time>2026-04-24T13:10:49.998Z</time></trkpt><trkpt lat="45.92652004096572" lon="11.039400994438772"><ele>214.0</ele><time>2026-04-24T13:10:50.998Z</time></trkpt><trkpt lat="45.92658165250716" lon="11.039299006407186"><ele>214.0</ele><time>2026-04-24T13:10:51.998Z</time></trkpt><trkpt lat="45.92663381830124" lon="11.039221190782259"><ele>214.0</ele><time>2026-04-24T13:10:52.998Z</time></trkpt><trkpt lat="45.92669442746474" lon="11.03918355955586"><ele>213.99999999999997</ele><time>2026-04-24T13:10:53.998Z</time></trkpt><trkpt lat="45.92679744277879" lon="11.039259388002439"><ele>213.99999999999997</ele><time>2026-04-24T13:10:55.998Z</time></trkpt><trkpt lat="45.92689771826984" lon="11.03935153918386"><ele>214.0</ele><time>2026-04-24T13:10:57.998Z</time></trkpt><trkpt lat="45.926978110152525" lon="11.03938370321387"><ele>214.0</ele><time>2026-04-24T13:10:58.998Z</time></trkpt><trkpt lat="45.92706701401891" lon="11.039453011449377"><ele>215.99999999999997</ele><time>2026-04-24T13:10:59.998Z</time></trkpt><trkpt lat="45.92717317835515" lon="11.039532416843342"><ele>218.0</ele><time>2026-04-24T13:11:00.998Z</time></trkpt><trkpt lat="45.927271654292646" lon="11.039599834694451"><ele>220.0</ele><time>2026-04-24T13:11:01.998Z</time></trkpt><trkpt lat="45.927330181860135" lon="11.039675386004143"><ele>222.0</ele><time>2026-04-24T13:11:02.998Z</time></trkpt><trkpt lat="45.92737551333311" lon="11.039747422714667"><ele>223.99999999999997</ele><time>2026-04-24T13:11:03.998Z</time></trkpt><trkpt lat="45.92738550092858" lon="11.039842092636317"><ele>226.0</ele><time>2026-04-24T13:11:04.998Z</time></trkpt><trkpt lat="45.92738099533717" lon="11.039938354054867"><ele>225.8</ele><time>2026-04-24T13:11:05.998Z</time></trkpt><trkpt lat="45.92739267608697" lon="11.040068839505537"><ele>225.60000000000002</ele><time>2026-04-24T13:11:06.998Z</time></trkpt><trkpt lat="45.927407430168536" lon="11.040200186529042"><ele>225.4</ele><time>2026-04-24T13:11:07.998Z</time></trkpt><trkpt lat="45.927421391017205" lon="11.040320816983487"><ele>225.2</ele><time>2026-04-24T13:11:08.998Z</time></trkpt><trkpt lat="45.927433941065566" lon="11.040421986412298"><ele>225.0</ele><time>2026-04-24T13:11:09.998Z</time></trkpt><trkpt lat="45.92746204603456" lon="11.040585513567573"><ele>225.0</ele><time>2026-04-24T13:11:11.998Z</time></trkpt><trkpt lat="45.927482906378394" lon="11.040697654975396"><ele>225.0</ele><time>2026-04-24T13:11:13.998Z</time></trkpt><trkpt lat="45.92752766565257" lon="11.040805227582736"><ele>225.0</ele><time>2026-04-24T13:11:15.998Z</time></trkpt><trkpt lat="45.92755523475002" lon="11.04089025450285"><ele>225.0</ele><time>2026-04-24T13:11:16.998Z</time></trkpt><trkpt lat="45.927615544062206" lon="11.040970451828962"><ele>225.0</ele><time>2026-04-24T13:11:17.998Z</time></trkpt><trkpt lat="45.927646813228705" lon="11.041076914125652"><ele>225.0</ele><time>2026-04-24T13:11:18.998Z</time></trkpt><trkpt lat="45.92768333938894" lon="11.041167114162597"><ele>225.16666666666666</ele><time>2026-04-24T13:11:19.998Z</time></trkpt><trkpt lat="45.92772465781503" lon="11.041274881080618"><ele>225.33333333333331</ele><time>2026-04-24T13:11:20.998Z</time></trkpt><trkpt lat="45.92776561882107" lon="11.041381704559095"><ele>225.5</ele><time>2026-04-24T13:11:21.998Z</time></trkpt><trkpt lat="45.92780241869154" lon="11.041477676088517"><ele>225.66666666666666</ele><time>2026-04-24T13:11:22.998Z</time></trkpt><trkpt lat="45.927839709480665" lon="11.041574927894066"><ele>225.83333333333331</ele><time>2026-04-24T13:11:23.998Z</time></trkpt><trkpt lat="45.92787116918473" lon="11.041656972638883"><ele>226.0</ele><time>2026-04-24T13:11:24.998Z</time></trkpt><trkpt lat="45.92791803803324" lon="11.041727074877919"><ele>226.0</ele><time>2026-04-24T13:11:25.998Z</time></trkpt><trkpt lat="45.927967203764425" lon="11.041877430041646"><ele>226.00000000000003</ele><time>2026-04-24T13:11:27.998Z</time></trkpt><trkpt lat="45.92796037095944" lon="11.042008122627992"><ele>226.00000000000003</ele><time>2026-04-24T13:11:29.997Z</time></trkpt><trkpt lat="45.92798222846662" lon="11.042113114174535"><ele>226.0</ele><time>2026-04-24T13:11:33.997Z</time></trkpt><trkpt lat="45.92813262924832" lon="11.042188843307855"><ele>226.0</ele><time>2026-04-24T13:11:37.997Z</time></trkpt><trkpt lat="45.928251516108304" lon="11.042184947119047"><ele>226.0</ele><time>2026-04-24T13:11:39.997Z</time></trkpt><trkpt lat="45.92839060932251" lon="11.042184947109668"><ele>226.00000000000003</ele><time>2026-04-24T13:11:41.997Z</time></trkpt><trkpt lat="45.92845695163699" lon="11.042168753574018"><ele>226.00000000000003</ele><time>2026-04-24T13:11:42.997Z</time></trkpt><trkpt lat="45.92852986775038" lon="11.042187324927605"><ele>226.0</ele><time>2026-04-24T13:11:43.997Z</time></trkpt><trkpt lat="45.92863221148353" lon="11.042243652442677"><ele>226.0</ele><time>2026-04-24T13:11:45.997Z</time></trkpt><trkpt lat="45.92872057594115" lon="11.04222600028704"><ele>226.8</ele><time>2026-04-24T13:11:46.997Z</time></trkpt><trkpt lat="45.928794287805026" lon="11.04221120250974"><ele>227.60000000000002</ele><time>2026-04-24T13:11:47.997Z</time></trkpt><trkpt lat="45.928893044243154" lon="11.042166245240601"><ele>228.4</ele><time>2026-04-24T13:11:49.997Z</time></trkpt><trkpt lat="45.928960347271435" lon="11.042088730960257"><ele>229.2</ele><time>2026-04-24T13:11:51.997Z</time></trkpt><trkpt lat="45.92890729674465" lon="11.04190661737754"><ele>230.0</ele><time>2026-04-24T13:11:55.997Z</time></trkpt><trkpt lat="45.92884802370471" lon="11.041860969828798"><ele>230.0</ele><time>2026-04-24T13:11:56.997Z</time></trkpt><trkpt lat="45.92878803829186" lon="11.04181495390077"><ele>230.0</ele><time>2026-04-24T13:11:57.997Z</time></trkpt><trkpt lat="45.92870406459515" lon="11.041730657979926"><ele>230.0</ele><time>2026-04-24T13:11:59.997Z</time></trkpt><trkpt lat="45.92865203449207" lon="11.041657845506844"><ele>230.0</ele><time>2026-04-24T13:12:00.997Z</time></trkpt><trkpt lat="45.928605753480376" lon="11.041585278226133"><ele>230.0</ele><time>2026-04-24T13:12:02.997Z</time></trkpt><trkpt lat="45.92870252096913" lon="11.04139673713348"><ele>233.00000000000003</ele><time>2026-04-24T13:12:05.997Z</time></trkpt><trkpt lat="45.928746866346984" lon="11.041314187661856"><ele>236.0</ele><time>2026-04-24T13:12:07.997Z</time></trkpt><trkpt lat="45.92879376904034" lon="11.041252567544818"><ele>239.0</ele><time>2026-04-24T13:12:51.997Z</time></trkpt><trkpt lat="45.92889386439105" lon="11.041329290322128"><ele>242.0</ele><time>2026-04-24T13:13:22.996Z</time></trkpt><trkpt lat="45.92882571321307" lon="11.041290709619346"><ele>245.00000000000003</ele><time>2026-04-24T13:14:38.995Z</time></trkpt><trkpt lat="45.92876149802745" lon="11.041265167876928"><ele>248.0</ele><time>2026-04-24T13:15:16.995Z</time></trkpt><trkpt lat="45.92881649478004" lon="11.041326749640117"><ele>248.0</ele><time>2026-04-24T13:16:03.995Z</time></trkpt><trkpt lat="45.9288627183238" lon="11.041397773240094"><ele>248.00000000000003</ele><time>2026-04-24T13:16:09.994Z</time></trkpt><trkpt lat="45.928824967787435" lon="11.04147852362043"><ele>248.0</ele><time>2026-04-24T13:17:02.994Z</time></trkpt><trkpt lat="45.928897931176124" lon="11.041513773413717"><ele>248.0</ele><time>2026-04-24T13:17:14.994Z</time></trkpt><trkpt lat="45.92895741547178" lon="11.041464743428342"><ele>248.00000000000003</ele><time>2026-04-24T13:18:48.993Z</time></trkpt><trkpt lat="45.92892925609579" lon="11.041382784137586"><ele>248.0</ele><time>2026-04-24T13:19:49.992Z</time></trkpt><trkpt lat="45.928859798972624" lon="11.041335938520028"><ele>248.0</ele><time>2026-04-24T13:19:58.992Z</time></trkpt><trkpt lat="45.92879241931723" lon="11.041305437230333"><ele>248.00000000000003</ele><time>2026-04-24T13:21:37.991Z</time></trkpt><trkpt lat="45.9287249655724" lon="11.04129766130912"><ele>248.0</ele><time>2026-04-24T13:23:44.99Z</time></trkpt><trkpt lat="45.92865858238211" lon="11.041378491994077"><ele>248.0</ele><time>2026-04-24T13:23:47.99Z</time></trkpt><trkpt lat="45.928609277737" lon="11.041454662101577"><ele>248.0</ele><time>2026-04-24T13:23:49.99Z</time></trkpt><trkpt lat="45.92856614803482" lon="11.041532154347241"><ele>248.00000000000003</ele><time>2026-04-24T13:23:51.989Z</time></trkpt><trkpt lat="45.928559225490815" lon="11.041632439295187"><ele>248.0</ele><time>2026-04-24T13:23:54.989Z</time></trkpt><trkpt lat="45.92865352878929" lon="11.041711027845949"><ele>244.4</ele><time>2026-04-24T13:23:56.989Z</time></trkpt><trkpt lat="45.9287356865066" lon="11.041819457046834"><ele>240.8</ele><time>2026-04-24T13:23:58.989Z</time></trkpt><trkpt lat="45.92883810806893" lon="11.041880122782121"><ele>237.2</ele><time>2026-04-24T13:24:00.989Z</time></trkpt><trkpt lat="45.928881694605494" lon="11.041946384516791"><ele>233.6</ele><time>2026-04-24T13:24:01.989Z</time></trkpt><trkpt lat="45.9289623924511" lon="11.041976226522369"><ele>230.0</ele><time>2026-04-24T13:24:03.989Z</time></trkpt><trkpt lat="45.92906239199365" lon="11.042017399806387"><ele>230.0</ele><time>2026-04-24T13:24:05.989Z</time></trkpt><trkpt lat="45.92911412614094" lon="11.042115558763339"><ele>230.0</ele><time>2026-04-24T13:24:06.989Z</time></trkpt><trkpt lat="45.92918585875499" lon="11.042249912453313"><ele>230.0</ele><time>2026-04-24T13:24:07.989Z</time></trkpt><trkpt lat="45.92926102661604" lon="11.042323571817509"><ele>230.0</ele><time>2026-04-24T13:24:08.989Z</time></trkpt><trkpt lat="45.92933722968127" lon="11.042415364099963"><ele>230.0</ele><time>2026-04-24T13:24:09.989Z</time></trkpt><trkpt lat="45.92940984080037" lon="11.042476382865432"><ele>230.83333333333334</ele><time>2026-04-24T13:24:10.989Z</time></trkpt><trkpt lat="45.929486435777044" lon="11.042529229586574"><ele>231.66666666666669</ele><time>2026-04-24T13:24:11.989Z</time></trkpt><trkpt lat="45.929560096069665" lon="11.04257604915056"><ele>232.5</ele><time>2026-04-24T13:24:12.989Z</time></trkpt><trkpt lat="45.92963487209902" lon="11.042608345108482"><ele>233.33333333333331</ele><time>2026-04-24T13:24:13.989Z</time></trkpt><trkpt lat="45.929698751923674" lon="11.042638468278458"><ele>234.16666666666666</ele><time>2026-04-24T13:24:14.989Z</time></trkpt><trkpt lat="45.929743214923484" lon="11.042729949744048"><ele>235.0</ele><time>2026-04-24T13:24:15.989Z</time></trkpt><trkpt lat="45.92979148998266" lon="11.042825599154224"><ele>234.99999999999997</ele><time>2026-04-24T13:24:16.989Z</time></trkpt><trkpt lat="45.92984424999827" lon="11.042927594968841"><ele>235.0</ele><time>2026-04-24T13:24:17.989Z</time></trkpt><trkpt lat="45.92990250355403" lon="11.04304147523279"><ele>235.0</ele><time>2026-04-24T13:24:18.989Z</time></trkpt><trkpt lat="45.92995525823501" lon="11.043140657609525"><ele>235.0</ele><time>2026-04-24T13:24:19.989Z</time></trkpt><trkpt lat="45.930001354657634" lon="11.04323257749839"><ele>234.99999999999997</ele><time>2026-04-24T13:24:20.989Z</time></trkpt><trkpt lat="45.9300506729471" lon="11.043327409392928"><ele>235.0</ele><time>2026-04-24T13:24:21.989Z</time></trkpt><trkpt lat="45.93010644674092" lon="11.043421014241463"><ele>238.49999999999997</ele><time>2026-04-24T13:24:22.989Z</time></trkpt><trkpt lat="45.93014520092118" lon="11.043541900604069"><ele>242.0</ele><time>2026-04-24T13:24:23.989Z</time></trkpt><trkpt lat="45.9301787872338" lon="11.04364224873816"><ele>245.5</ele><time>2026-04-24T13:24:24.989Z</time></trkpt><trkpt lat="45.930206170075806" lon="11.0437322441707"><ele>249.0</ele><time>2026-04-24T13:24:25.989Z</time></trkpt><trkpt lat="45.93022803646042" lon="11.043836833190174"><ele>252.49999999999997</ele><time>2026-04-24T13:24:26.989Z</time></trkpt><trkpt lat="45.93025638990817" lon="11.04393839568995"><ele>256.0</ele><time>2026-04-24T13:24:27.989Z</time></trkpt><trkpt lat="45.9302434157994" lon="11.044027280489026"><ele>256.0</ele><time>2026-04-24T13:24:30.989Z</time></trkpt><trkpt lat="45.930277108345805" lon="11.044127991088153"><ele>256.0</ele><time>2026-04-24T13:24:32.989Z</time></trkpt><trkpt lat="45.93031632604601" lon="11.044236268139207"><ele>256.0</ele><time>2026-04-24T13:24:33.989Z</time></trkpt><trkpt lat="45.93036965439454" lon="11.044348861165089"><ele>256.0</ele><time>2026-04-24T13:24:34.989Z</time></trkpt><trkpt lat="45.930419102763224" lon="11.04450162407655"><ele>256.0</ele><time>2026-04-24T13:24:35.989Z</time></trkpt><trkpt lat="45.93050145464542" lon="11.044628313758876"><ele>253.60000000000002</ele><time>2026-04-24T13:24:36.989Z</time></trkpt><trkpt lat="45.93057120602743" lon="11.04475319481707"><ele>251.20000000000002</ele><time>2026-04-24T13:24:37.989Z</time></trkpt><trkpt lat="45.9306421769185" lon="11.044869906007857"><ele>248.79999999999998</ele><time>2026-04-24T13:24:38.989Z</time></trkpt><trkpt lat="45.93069989323731" lon="11.044983531507368"><ele>246.39999999999998</ele><time>2026-04-24T13:24:39.989Z</time></trkpt><trkpt lat="45.93074137442019" lon="11.04511442037167"><ele>244.0</ele><time>2026-04-24T13:24:40.989Z</time></trkpt><trkpt lat="45.93075393706728" lon="11.045279001879592"><ele>243.75</ele><time>2026-04-24T13:24:41.989Z</time></trkpt><trkpt lat="45.930740192409125" lon="11.045443999845167"><ele>243.5</ele><time>2026-04-24T13:24:42.989Z</time></trkpt><trkpt lat="45.93074818869291" lon="11.045607148204036"><ele>243.25</ele><time>2026-04-24T13:24:43.989Z</time></trkpt><trkpt lat="45.930774925129946" lon="11.045775201484714"><ele>243.0</ele><time>2026-04-24T13:24:44.989Z</time></trkpt><trkpt lat="45.930787667985534" lon="11.04595127757577"><ele>243.0</ele><time>2026-04-24T13:24:45.989Z</time></trkpt><trkpt lat="45.93079899286912" lon="11.046128919128806"><ele>243.0</ele><time>2026-04-24T13:24:46.989Z</time></trkpt><trkpt lat="45.930824557447814" lon="11.046309091542009"><ele>243.0</ele><time>2026-04-24T13:24:47.989Z</time></trkpt><trkpt lat="45.93084256516178" lon="11.046489130173851"><ele>243.0</ele><time>2026-04-24T13:24:48.989Z</time></trkpt><trkpt lat="45.930874861698925" lon="11.04668925545403"><ele>248.5</ele><time>2026-04-24T13:24:49.989Z</time></trkpt><trkpt lat="45.93090304660433" lon="11.046898439405432"><ele>254.0</ele><time>2026-04-24T13:24:50.989Z</time></trkpt><trkpt lat="45.93092867926372" lon="11.047066654488416"><ele>259.5</ele><time>2026-04-24T13:24:51.989Z</time></trkpt><trkpt lat="45.93095243929045" lon="11.04723028879648"><ele>265.0</ele><time>2026-04-24T13:24:52.989Z</time></trkpt><trkpt lat="45.93095184102384" lon="11.047379329510406"><ele>266.2</ele><time>2026-04-24T13:24:53.989Z</time></trkpt><trkpt lat="45.93097493363909" lon="11.047496963426294"><ele>267.4</ele><time>2026-04-24T13:24:54.989Z</time></trkpt><trkpt lat="45.93094094998692" lon="11.047579392882808"><ele>268.6</ele><time>2026-04-24T13:24:55.989Z</time></trkpt><trkpt lat="45.93092702196553" lon="11.047748970835924"><ele>269.8</ele><time>2026-04-24T13:24:57.989Z</time></trkpt><trkpt lat="45.93089925303961" lon="11.047900039567354"><ele>271.0</ele><time>2026-04-24T13:24:58.989Z</time></trkpt><trkpt lat="45.93087772580317" lon="11.048061903258475"><ele>271.0</ele><time>2026-04-24T13:24:59.989Z</time></trkpt><trkpt lat="45.93086625143071" lon="11.048215300118889"><ele>271.0</ele><time>2026-04-24T13:25:00.989Z</time></trkpt><trkpt lat="45.9308854730441" lon="11.0483710236231"><ele>271.0</ele><time>2026-04-24T13:25:01.989Z</time></trkpt><trkpt lat="45.930928475517064" lon="11.048510171567969"><ele>271.0</ele><time>2026-04-24T13:25:02.989Z</time></trkpt><trkpt lat="45.931003212288765" lon="11.048645216096583"><ele>271.0</ele><time>2026-04-24T13:25:03.989Z</time></trkpt><trkpt lat="45.931038426560306" lon="11.048795981672212"><ele>271.0</ele><time>2026-04-24T13:25:04.989Z</time></trkpt><trkpt lat="45.931076703352076" lon="11.0489163734076"><ele>271.0</ele><time>2026-04-24T13:25:05.989Z</time></trkpt><trkpt lat="45.931100287361744" lon="11.049026198868255"><ele>271.0</ele><time>2026-04-24T13:25:06.989Z</time></trkpt><trkpt lat="45.93101781757052" lon="11.049119298143186"><ele>271.0</ele><time>2026-04-24T13:25:08.989Z</time></trkpt><trkpt lat="45.93093953919356" lon="11.049130956236818"><ele>271.0</ele><time>2026-04-24T13:25:11.989Z</time></trkpt><trkpt lat="45.930921256192434" lon="11.049221555319374"><ele>271.0</ele><time>2026-04-24T13:25:13.989Z</time></trkpt><trkpt lat="45.93099043394428" lon="11.049372969236279"><ele>270.8</ele><time>2026-04-24T13:25:14.989Z</time></trkpt><trkpt lat="45.93113355294789" lon="11.049373306721355"><ele>270.6</ele><time>2026-04-24T13:25:15.989Z</time></trkpt><trkpt lat="45.93121796558192" lon="11.049439259461337"><ele>270.4</ele><time>2026-04-24T13:25:18.989Z</time></trkpt><trkpt lat="45.93117869423141" lon="11.049527676643232"><ele>270.2</ele><time>2026-04-24T13:25:19.989Z</time></trkpt><trkpt lat="45.931222190596664" lon="11.04964940130227"><ele>270.0</ele><time>2026-04-24T13:25:21.989Z</time></trkpt><trkpt lat="45.93126098047696" lon="11.04973722448143"><ele>270.0</ele><time>2026-04-24T13:25:22.989Z</time></trkpt><trkpt lat="45.931334993990184" lon="11.049890151720293"><ele>270.0</ele><time>2026-04-24T13:25:24.988Z</time></trkpt><trkpt lat="45.93137940756866" lon="11.049976680466322"><ele>270.0</ele><time>2026-04-24T13:25:25.988Z</time></trkpt><trkpt lat="45.931457121904266" lon="11.050113802379956"><ele>270.0</ele><time>2026-04-24T13:25:27.988Z</time></trkpt><trkpt lat="45.93151955801455" lon="11.050177177996712"><ele>270.0</ele><time>2026-04-24T13:25:28.988Z</time></trkpt><trkpt lat="45.9315766236217" lon="11.050237776354104"><ele>270.2</ele><time>2026-04-24T13:25:29.988Z</time></trkpt><trkpt lat="45.931661029014855" lon="11.050223017222505"><ele>270.4</ele><time>2026-04-24T13:25:31.988Z</time></trkpt><trkpt lat="45.931784310130034" lon="11.05028627062124"><ele>270.6</ele><time>2026-04-24T13:25:33.988Z</time></trkpt><trkpt lat="45.9318467545648" lon="11.050357962574072"><ele>270.8</ele><time>2026-04-24T13:25:34.988Z</time></trkpt><trkpt lat="45.931906604821975" lon="11.050445083516697"><ele>271.0</ele><time>2026-04-24T13:25:35.988Z</time></trkpt><trkpt lat="45.93195918887221" lon="11.050526677407275"><ele>274.40000000000003</ele><time>2026-04-24T13:25:36.988Z</time></trkpt><trkpt lat="45.93201566108437" lon="11.050629920313083"><ele>277.8</ele><time>2026-04-24T13:25:37.988Z</time></trkpt><trkpt lat="45.932101429090714" lon="11.050751741021118"><ele>281.20000000000005</ele><time>2026-04-24T13:25:39.988Z</time></trkpt><trkpt lat="45.93217337830344" lon="11.050748160707206"><ele>284.6</ele><time>2026-04-24T13:25:47.988Z</time></trkpt><trkpt lat="45.932096280311654" lon="11.050679340056487"><ele>288.0</ele><time>2026-04-24T13:25:51.988Z</time></trkpt><trkpt lat="45.93199371767447" lon="11.05063903695975"><ele>288.0</ele><time>2026-04-24T13:25:53.988Z</time></trkpt><trkpt lat="45.931916377097735" lon="11.050630193200144"><ele>288.0</ele><time>2026-04-24T13:25:54.988Z</time></trkpt><trkpt lat="45.93182630631588" lon="11.050612596871545"><ele>288.0</ele><time>2026-04-24T13:25:55.988Z</time></trkpt><trkpt lat="45.93173018981412" lon="11.05057699553186"><ele>288.0</ele><time>2026-04-24T13:25:56.988Z</time></trkpt><trkpt lat="45.931643969752265" lon="11.050546674379088"><ele>288.0</ele><time>2026-04-24T13:25:57.988Z</time></trkpt><trkpt lat="45.931537938645675" lon="11.050543484397329"><ele>288.1666666666667</ele><time>2026-04-24T13:25:58.988Z</time></trkpt><trkpt lat="45.93144110737232" lon="11.050562530614917"><ele>288.3333333333333</ele><time>2026-04-24T13:25:59.988Z</time></trkpt><trkpt lat="45.931352593960376" lon="11.050568070102466"><ele>288.5</ele><time>2026-04-24T13:26:01.988Z</time></trkpt><trkpt lat="45.93136384716032" lon="11.050684476701983"><ele>288.66666666666663</ele><time>2026-04-24T13:26:04.988Z</time></trkpt><trkpt lat="45.93130151576998" lon="11.050777679783728"><ele>288.8333333333333</ele><time>2026-04-24T13:26:06.988Z</time></trkpt><trkpt lat="45.93123324045144" lon="11.050786180025241"><ele>289.0</ele><time>2026-04-24T13:26:07.988Z</time></trkpt><trkpt lat="45.931115123669684" lon="11.05083610600116"><ele>289.0</ele><time>2026-04-24T13:26:08.988Z</time></trkpt><trkpt lat="45.93099791807139" lon="11.05088452419257"><ele>289.0</ele><time>2026-04-24T13:26:09.988Z</time></trkpt><trkpt lat="45.930870443485446" lon="11.050955083852195"><ele>289.0</ele><time>2026-04-24T13:26:10.988Z</time></trkpt><trkpt lat="45.93073007437095" lon="11.051033969400324"><ele>289.0</ele><time>2026-04-24T13:26:11.988Z</time></trkpt><trkpt lat="45.930571399539176" lon="11.051128072123591"><ele>289.2</ele><time>2026-04-24T13:26:12.988Z</time></trkpt><trkpt lat="45.93044173198247" lon="11.05118720129783"><ele>289.4</ele><time>2026-04-24T13:26:13.988Z</time></trkpt><trkpt lat="45.930336089752736" lon="11.051240766766393"><ele>289.6</ele><time>2026-04-24T13:26:14.988Z</time></trkpt><trkpt lat="45.93025785191163" lon="11.051302128259094"><ele>289.8</ele><time>2026-04-24T13:26:15.988Z</time></trkpt><trkpt lat="45.930205660417236" lon="11.051379951226524"><ele>290.0</ele><time>2026-04-24T13:26:16.988Z</time></trkpt><trkpt lat="45.930220237211834" lon="11.051497056299745"><ele>290.0</ele><time>2026-04-24T13:26:17.988Z</time></trkpt><trkpt lat="45.930233522178916" lon="11.051609031616431"><ele>290.0</ele><time>2026-04-24T13:26:18.988Z</time></trkpt><trkpt lat="45.93029306753531" lon="11.051720719466378"><ele>290.0</ele><time>2026-04-24T13:26:19.988Z</time></trkpt><trkpt lat="45.93041861217798" lon="11.051774129768262"><ele>290.0</ele><time>2026-04-24T13:26:20.988Z</time></trkpt><trkpt lat="45.93051859029791" lon="11.051882334919025"><ele>290.0</ele><time>2026-04-24T13:26:21.988Z</time></trkpt><trkpt lat="45.930652951727666" lon="11.051915155153088"><ele>293.6</ele><time>2026-04-24T13:26:22.988Z</time></trkpt><trkpt lat="45.930772424509755" lon="11.05201890313946"><ele>297.2</ele><time>2026-04-24T13:26:23.988Z</time></trkpt><trkpt lat="45.93087510455467" lon="11.052102412854843"><ele>300.8</ele><time>2026-04-24T13:26:24.988Z</time></trkpt><trkpt lat="45.930962125770115" lon="11.052148775096692"><ele>304.4</ele><time>2026-04-24T13:26:25.988Z</time></trkpt><trkpt lat="45.931032669806925" lon="11.052152695689696"><ele>308.0</ele><time>2026-04-24T13:26:26.988Z</time></trkpt><trkpt lat="45.93110021491202" lon="11.052051680305851"><ele>309.2</ele><time>2026-04-24T13:26:27.988Z</time></trkpt><trkpt lat="45.931229036327636" lon="11.052131771164925"><ele>310.4</ele><time>2026-04-24T13:26:29.988Z</time></trkpt><trkpt lat="45.931302227271104" lon="11.05222064028873"><ele>311.59999999999997</ele><time>2026-04-24T13:26:30.988Z</time></trkpt><trkpt lat="45.93140430685535" lon="11.05223649048141"><ele>312.8</ele><time>2026-04-24T13:26:31.988Z</time></trkpt><trkpt lat="45.93148211073868" lon="11.052243044055528"><ele>314.0</ele><time>2026-04-24T13:26:32.988Z</time></trkpt><trkpt lat="45.93156012093774" lon="11.052239135771124"><ele>314.0</ele><time>2026-04-24T13:26:33.988Z</time></trkpt><trkpt lat="45.931650858670665" lon="11.05226287268379"><ele>314.0</ele><time>2026-04-24T13:26:34.988Z</time></trkpt><trkpt lat="45.9317259661244" lon="11.052318250533007"><ele>314.0</ele><time>2026-04-24T13:26:35.988Z</time></trkpt><trkpt lat="45.931806671993066" lon="11.05236291919488"><ele>314.0</ele><time>2026-04-24T13:26:36.988Z</time></trkpt><trkpt lat="45.931883548378984" lon="11.05239607642067"><ele>314.0</ele><time>2026-04-24T13:26:37.988Z</time></trkpt><trkpt lat="45.93192634506052" lon="11.052596786128518"><ele>318.2</ele><time>2026-04-24T13:26:38.988Z</time></trkpt><trkpt lat="45.931999730285995" lon="11.052702962870429"><ele>322.4</ele><time>2026-04-24T13:26:39.988Z</time></trkpt><trkpt lat="45.93207762250659" lon="11.052817008049956"><ele>326.6</ele><time>2026-04-24T13:26:40.988Z</time></trkpt><trkpt lat="45.932125535782966" lon="11.052947743643251"><ele>330.8</ele><time>2026-04-24T13:26:41.988Z</time></trkpt><trkpt lat="45.93223996723387" lon="11.052958468554849"><ele>335.0</ele><time>2026-04-24T13:26:42.988Z</time></trkpt><trkpt lat="45.93233059317716" lon="11.053034578448417"><ele>335.0</ele><time>2026-04-24T13:26:43.988Z</time></trkpt><trkpt lat="45.932404480264246" lon="11.053136310162554"><ele>335.0</ele><time>2026-04-24T13:26:44.988Z</time></trkpt><trkpt lat="45.9324705022058" lon="11.053223526661322"><ele>335.0</ele><time>2026-04-24T13:26:45.988Z</time></trkpt><trkpt lat="45.93255605164702" lon="11.053249803917037"><ele>335.0</ele><time>2026-04-24T13:26:46.988Z</time></trkpt><trkpt lat="45.93262629610753" lon="11.053191395765419"><ele>335.0</ele><time>2026-04-24T13:26:47.988Z</time></trkpt><trkpt lat="45.93269711621336" lon="11.053191395761214"><ele>335.0</ele><time>2026-04-24T13:26:48.988Z</time></trkpt><trkpt lat="45.93274051422214" lon="11.053331408648328"><ele>338.4</ele><time>2026-04-24T13:26:49.988Z</time></trkpt><trkpt lat="45.932809040205285" lon="11.053409832178534"><ele>341.8</ele><time>2026-04-24T13:26:50.988Z</time></trkpt><trkpt lat="45.93288087650558" lon="11.053507339256889"><ele>345.20000000000005</ele><time>2026-04-24T13:26:51.988Z</time></trkpt><trkpt lat="45.9329388126881" lon="11.053619608824913"><ele>348.6</ele><time>2026-04-24T13:26:52.988Z</time></trkpt><trkpt lat="45.9330310004207" lon="11.053720806638493"><ele>352.0</ele><time>2026-04-24T13:26:53.988Z</time></trkpt><trkpt lat="45.933121286007214" lon="11.053832038304167"><ele>352.0</ele><time>2026-04-24T13:26:54.988Z</time></trkpt><trkpt lat="45.933202164009785" lon="11.053912402149741"><ele>352.0</ele><time>2026-04-24T13:26:55.987Z</time></trkpt><trkpt lat="45.933277837142455" lon="11.053963144760456"><ele>352.0</ele><time>2026-04-24T13:26:56.987Z</time></trkpt><trkpt lat="45.93335808735225" lon="11.05401056918131"><ele>352.0</ele><time>2026-04-24T13:26:57.987Z</time></trkpt><trkpt lat="45.93339872697624" lon="11.05410018842727"><ele>352.0</ele><time>2026-04-24T13:26:58.987Z</time></trkpt><trkpt lat="45.93345669441563" lon="11.05419284904077"><ele>352.0</ele><time>2026-04-24T13:26:59.987Z</time></trkpt><trkpt lat="45.933515233633095" lon="11.054313150211655"><ele>356.0</ele><time>2026-04-24T13:27:00.987Z</time></trkpt><trkpt lat="45.93358394427198" lon="11.054445982404541"><ele>360.0</ele><time>2026-04-24T13:27:01.987Z</time></trkpt><trkpt lat="45.93365723792451" lon="11.05452496315919"><ele>364.0</ele><time>2026-04-24T13:27:02.987Z</time></trkpt><trkpt lat="45.933744342895366" lon="11.05456350946524"><ele>368.0</ele><time>2026-04-24T13:27:03.987Z</time></trkpt><trkpt lat="45.93378858152125" lon="11.054688534081738"><ele>372.0</ele><time>2026-04-24T13:27:04.987Z</time></trkpt><trkpt lat="45.933860792293395" lon="11.054824083208452"><ele>372.0</ele><time>2026-04-24T13:27:05.987Z</time></trkpt><trkpt lat="45.93391258801515" lon="11.054952438882125"><ele>372.0</ele><time>2026-04-24T13:27:06.987Z</time></trkpt><trkpt lat="45.93400192187775" lon="11.055071624356286"><ele>372.0</ele><time>2026-04-24T13:27:07.987Z</time></trkpt><trkpt lat="45.9341237747841" lon="11.055166964186782"><ele>372.0</ele><time>2026-04-24T13:27:08.987Z</time></trkpt><trkpt lat="45.93423644046928" lon="11.055290396519805"><ele>376.0</ele><time>2026-04-24T13:27:09.987Z</time></trkpt><trkpt lat="45.93432303114775" lon="11.055429082308976"><ele>380.0</ele><time>2026-04-24T13:27:10.987Z</time></trkpt><trkpt lat="45.9344035283612" lon="11.055524893487132"><ele>384.0</ele><time>2026-04-24T13:27:11.987Z</time></trkpt><trkpt lat="45.93448309467471" lon="11.055576183463911"><ele>388.0</ele><time>2026-04-24T13:27:12.987Z</time></trkpt><trkpt lat="45.9345634903412" lon="11.05565018942942"><ele>392.0</ele><time>2026-04-24T13:27:13.987Z</time></trkpt><trkpt lat="45.934635161030464" lon="11.055665347305633"><ele>392.0</ele><time>2026-04-24T13:27:14.987Z</time></trkpt><trkpt lat="45.93469913160157" lon="11.055546790351855"><ele>392.0</ele><time>2026-04-24T13:27:15.987Z</time></trkpt><trkpt lat="45.93483074330373" lon="11.055520161771284"><ele>392.0</ele><time>2026-04-24T13:27:17.997Z</time></trkpt><trkpt lat="45.934955820185216" lon="11.05551951380837"><ele>392.0</ele><time>2026-04-24T13:27:18.997Z</time></trkpt><trkpt lat="45.935085493857876" lon="11.055528044945099"><ele>395.25</ele><time>2026-04-24T13:27:19.997Z</time></trkpt><trkpt lat="45.93521364516782" lon="11.05552470641894"><ele>398.5</ele><time>2026-04-24T13:27:20.997Z</time></trkpt><trkpt lat="45.93533366019541" lon="11.05561419046328"><ele>401.75</ele><time>2026-04-24T13:27:21.997Z</time></trkpt><trkpt lat="45.93545942339978" lon="11.055677648864926"><ele>405.0</ele><time>2026-04-24T13:27:22.997Z</time></trkpt><trkpt lat="45.93558459085679" lon="11.055748563466366"><ele>405.25</ele><time>2026-04-24T13:27:23.997Z</time></trkpt><trkpt lat="45.935726036880105" lon="11.055818933085392"><ele>405.5</ele><time>2026-04-24T13:27:24.997Z</time></trkpt><trkpt lat="45.935861313873346" lon="11.055888818883478"><ele>405.75</ele><time>2026-04-24T13:27:25.997Z</time></trkpt><trkpt lat="45.93596345804998" lon="11.055940428529418"><ele>406.0</ele><time>2026-04-24T13:27:26.997Z</time></trkpt><trkpt lat="45.93603998012196" lon="11.055990376130225"><ele>409.50000000000006</ele><time>2026-04-24T13:27:27.997Z</time></trkpt><trkpt lat="45.93601585961243" lon="11.056140628655145"><ele>413.0</ele><time>2026-04-24T13:27:29.997Z</time></trkpt><trkpt lat="45.93596199638774" lon="11.05623380834542"><ele>416.5</ele><time>2026-04-24T13:27:30.997Z</time></trkpt><trkpt lat="45.935911936615135" lon="11.05635278915574"><ele>420.0</ele><time>2026-04-24T13:27:31.997Z</time></trkpt><trkpt lat="45.93590830900963" lon="11.056458395283656"><ele>423.50000000000006</ele><time>2026-04-24T13:27:32.997Z</time></trkpt><trkpt lat="45.93595397709719" lon="11.056526673235757"><ele>427.0</ele><time>2026-04-24T13:27:33.997Z</time></trkpt><trkpt lat="45.93603467680263" lon="11.056579355108918"><ele>427.0</ele><time>2026-04-24T13:27:34.997Z</time></trkpt><trkpt lat="45.93614172284946" lon="11.056618973428927"><ele>427.00000000000006</ele><time>2026-04-24T13:27:35.997Z</time></trkpt><trkpt lat="45.93625351495904" lon="11.056669490860203"><ele>427.00000000000006</ele><time>2026-04-24T13:27:36.997Z</time></trkpt><trkpt lat="45.93632995017987" lon="11.056703912644394"><ele>427.0</ele><time>2026-04-24T13:27:37.997Z</time></trkpt><trkpt lat="45.936380301194816" lon="11.056765547718506"><ele>427.0</ele><time>2026-04-24T13:27:38.997Z</time></trkpt><trkpt lat="45.93632823967719" lon="11.056908381342202"><ele>427.1666666666667</ele><time>2026-04-24T13:27:40.997Z</time></trkpt><trkpt lat="45.936240973352895" lon="11.056976787491102"><ele>427.33333333333337</ele><time>2026-04-24T13:27:41.997Z</time></trkpt><trkpt lat="45.93613041315985" lon="11.057018374302883"><ele>427.5</ele><time>2026-04-24T13:27:42.997Z</time></trkpt><trkpt lat="45.936055008905115" lon="11.057064223431858"><ele>427.66666666666663</ele><time>2026-04-24T13:27:43.997Z</time></trkpt><trkpt lat="45.93600702340045" lon="11.057134162184406"><ele>427.8333333333333</ele><time>2026-04-24T13:27:44.997Z</time></trkpt><trkpt lat="45.935989527461906" lon="11.057233569104515"><ele>428.0</ele><time>2026-04-24T13:27:45.997Z</time></trkpt><trkpt lat="45.936008350688375" lon="11.057354129304516"><ele>430.4</ele><time>2026-04-24T13:27:46.997Z</time></trkpt><trkpt lat="45.93606398066889" lon="11.057480952072215"><ele>432.79999999999995</ele><time>2026-04-24T13:27:47.997Z</time></trkpt><trkpt lat="45.93610416195501" lon="11.057635065672466"><ele>435.2</ele><time>2026-04-24T13:27:48.997Z</time></trkpt><trkpt lat="45.93611317127026" lon="11.057780985575201"><ele>437.6</ele><time>2026-04-24T13:27:49.997Z</time></trkpt><trkpt lat="45.93609333373108" lon="11.057920112503385"><ele>440.0</ele><time>2026-04-24T13:27:50.997Z</time></trkpt><trkpt lat="45.93605424037531" lon="11.058029212600694"><ele>439.99999999999994</ele><time>2026-04-24T13:27:51.997Z</time></trkpt><trkpt lat="45.93598916776904" lon="11.058080947748875"><ele>440.0</ele><time>2026-04-24T13:27:52.997Z</time></trkpt><trkpt lat="45.93589818036456" lon="11.058052935791393"><ele>440.0</ele><time>2026-04-24T13:27:53.997Z</time></trkpt><trkpt lat="45.93580038188531" lon="11.058019813628055"><ele>440.0</ele><time>2026-04-24T13:27:54.997Z</time></trkpt><trkpt lat="45.93571630492363" lon="11.05803679426174"><ele>439.99999999999994</ele><time>2026-04-24T13:27:55.997Z</time></trkpt><trkpt lat="45.935681421780366" lon="11.058120376297298"><ele>440.0</ele><time>2026-04-24T13:27:56.997Z</time></trkpt><trkpt lat="45.93575299043806" lon="11.058236763765578"><ele>441.6</ele><time>2026-04-24T13:27:58.997Z</time></trkpt><trkpt lat="45.93584659760983" lon="11.05824946785656"><ele>443.2</ele><time>2026-04-24T13:27:59.997Z</time></trkpt><trkpt lat="45.935953200992294" lon="11.058304630861368"><ele>444.79999999999995</ele><time>2026-04-24T13:28:00.997Z</time></trkpt><trkpt lat="45.936046048444204" lon="11.058364974743366"><ele>446.4</ele><time>2026-04-24T13:28:01.998Z</time></trkpt><trkpt lat="45.93615338207553" lon="11.058428461850367"><ele>448.0</ele><time>2026-04-24T13:28:02.998Z</time></trkpt><trkpt lat="45.93625383211275" lon="11.05850531927346"><ele>448.0</ele><time>2026-04-24T13:28:03.997Z</time></trkpt><trkpt lat="45.936354210201316" lon="11.058584049223061"><ele>447.99999999999994</ele><time>2026-04-24T13:28:04.997Z</time></trkpt><trkpt lat="45.936466616458524" lon="11.05864267611512"><ele>447.99999999999994</ele><time>2026-04-24T13:28:05.998Z</time></trkpt><trkpt lat="45.936562801708284" lon="11.058684104848693"><ele>448.0</ele><time>2026-04-24T13:28:06.998Z</time></trkpt><trkpt lat="45.93663076187017" lon="11.058719567033547"><ele>448.0</ele><time>2026-04-24T13:28:07.997Z</time></trkpt><trkpt lat="45.936702975971144" lon="11.058746956815082"><ele>448.0</ele><time>2026-04-24T13:28:09.997Z</time></trkpt><trkpt lat="45.93659628785064" lon="11.058758274889184"><ele>447.99999999999994</ele><time>2026-04-24T13:28:12.997Z</time></trkpt><trkpt lat="45.936517334614315" lon="11.058747015459808"><ele>447.99999999999994</ele><time>2026-04-24T13:28:13.997Z</time></trkpt><trkpt lat="45.93642425994216" lon="11.058747778672997"><ele>448.0</ele><time>2026-04-24T13:28:14.997Z</time></trkpt><trkpt lat="45.93632439825199" lon="11.058742759700248"><ele>448.0</ele><time>2026-04-24T13:28:15.997Z</time></trkpt><trkpt lat="45.936214032237224" lon="11.05873083881546"><ele>448.0</ele><time>2026-04-24T13:28:16.997Z</time></trkpt><trkpt lat="45.93609358076783" lon="11.058712922982844"><ele>448.0</ele><time>2026-04-24T13:28:17.998Z</time></trkpt><trkpt lat="45.935955360060525" lon="11.058710213476846"><ele>448.0</ele><time>2026-04-24T13:28:18.998Z</time></trkpt><trkpt lat="45.93582335363609" lon="11.058684095011213"><ele>448.0</ele><time>2026-04-24T13:28:19.998Z</time></trkpt><trkpt lat="45.93572900892907" lon="11.058680319308843"><ele>448.0</ele><time>2026-04-24T13:28:20.997Z</time></trkpt><trkpt lat="45.93563341165639" lon="11.058810026153383"><ele>448.0</ele><time>2026-04-24T13:28:22.997Z</time></trkpt><trkpt lat="45.93551175157741" lon="11.058821377626241"><ele>448.0</ele><time>2026-04-24T13:28:24.997Z</time></trkpt><trkpt lat="45.93540900457597" lon="11.05878376977321"><ele>448.0</ele><time>2026-04-24T13:28:25.997Z</time></trkpt><trkpt lat="45.935302444747286" lon="11.05874822880881"><ele>448.0</ele><time>2026-04-24T13:28:26.997Z</time></trkpt><trkpt lat="45.93518391565577" lon="11.058779181132945"><ele>447.99999999999994</ele><time>2026-04-24T13:28:27.997Z</time></trkpt><trkpt lat="45.93506236662544" lon="11.058830876411845"><ele>447.99999999999994</ele><time>2026-04-24T13:28:28.997Z</time></trkpt><trkpt lat="45.934974850464656" lon="11.058840092776938"><ele>448.0</ele><time>2026-04-24T13:28:29.997Z</time></trkpt><trkpt lat="45.93488100050027" lon="11.058797924870248"><ele>448.0</ele><time>2026-04-24T13:28:30.997Z</time></trkpt><trkpt lat="45.9348018905021" lon="11.058794459152606"><ele>450.33333333333337</ele><time>2026-04-24T13:28:31.997Z</time></trkpt><trkpt lat="45.93472698042809" lon="11.058835668388848"><ele>452.6666666666667</ele><time>2026-04-24T13:28:32.997Z</time></trkpt><trkpt lat="45.93466025588998" lon="11.0588999169547"><ele>455.0</ele><time>2026-04-24T13:28:33.997Z</time></trkpt><trkpt lat="45.93461711873544" lon="11.058994910594025"><ele>457.33333333333337</ele><time>2026-04-24T13:28:34.997Z</time></trkpt><trkpt lat="45.93455773292612" lon="11.059103786916499"><ele>459.6666666666667</ele><time>2026-04-24T13:28:35.997Z</time></trkpt><trkpt lat="45.934493425553505" lon="11.05915116469875"><ele>462.0</ele><time>2026-04-24T13:28:36.997Z</time></trkpt><trkpt lat="45.93439158612619" lon="11.059155388118748"><ele>467.6</ele><time>2026-04-24T13:28:37.997Z</time></trkpt><trkpt lat="45.93430366770748" lon="11.059204778190393"><ele>473.20000000000005</ele><time>2026-04-24T13:28:38.997Z</time></trkpt><trkpt lat="45.93419674999716" lon="11.059259192109902"><ele>478.8</ele><time>2026-04-24T13:28:40.997Z</time></trkpt><trkpt lat="45.93411804491611" lon="11.059142879884195"><ele>484.4</ele><time>2026-04-24T13:28:42.997Z</time></trkpt><trkpt lat="45.93403161277262" lon="11.059135411481735"><ele>490.0</ele><time>2026-04-24T13:28:44.997Z</time></trkpt><trkpt lat="45.93395756221134" lon="11.059266690940815"><ele>490.00000000000006</ele><time>2026-04-24T13:28:46.997Z</time></trkpt><trkpt lat="45.93393103829309" lon="11.059381001234282"><ele>490.0</ele><time>2026-04-24T13:28:48.997Z</time></trkpt><trkpt lat="45.93392034211596" lon="11.059477867386638"><ele>490.0</ele><time>2026-04-24T13:28:50.997Z</time></trkpt><trkpt lat="45.93388079808674" lon="11.059556853870102"><ele>490.0</ele><time>2026-04-24T13:28:52.997Z</time></trkpt><trkpt lat="45.93377269965846" lon="11.059563558681557"><ele>490.00000000000006</ele><time>2026-04-24T13:28:54.997Z</time></trkpt><trkpt lat="45.93366470787959" lon="11.059542010629068"><ele>490.0</ele><time>2026-04-24T13:28:56.997Z</time></trkpt><trkpt lat="45.933561591566466" lon="11.05946611032495"><ele>490.0</ele><time>2026-04-24T13:28:58.997Z</time></trkpt><trkpt lat="45.933501981620196" lon="11.059330832276821"><ele>490.0</ele><time>2026-04-24T13:29:00.997Z</time></trkpt><trkpt lat="45.93343275418393" lon="11.059183512625726"><ele>490.0</ele><time>2026-04-24T13:29:02.997Z</time></trkpt><trkpt lat="45.93337061447669" lon="11.05912790144535"><ele>490.0</ele><time>2026-04-24T13:29:03.997Z</time></trkpt><trkpt lat="45.93330105928223" lon="11.059076886680652"><ele>490.0</ele><time>2026-04-24T13:29:04.997Z</time></trkpt><trkpt lat="45.933240361544904" lon="11.059011356115272"><ele>487.1666666666667</ele><time>2026-04-24T13:29:05.997Z</time></trkpt><trkpt lat="45.93320358098659" lon="11.058910377853186"><ele>484.33333333333337</ele><time>2026-04-24T13:29:06.997Z</time></trkpt><trkpt lat="45.933160634250875" lon="11.058808406910718"><ele>481.5</ele><time>2026-04-24T13:29:07.997Z</time></trkpt><trkpt lat="45.9331021132164" lon="11.058719162619035"><ele>478.66666666666663</ele><time>2026-04-24T13:29:08.997Z</time></trkpt><trkpt lat="45.93306659507756" lon="11.058596755893335"><ele>475.8333333333333</ele><time>2026-04-24T13:29:09.997Z</time></trkpt><trkpt lat="45.93304799708614" lon="11.05849296758612"><ele>473.0</ele><time>2026-04-24T13:29:10.997Z</time></trkpt><trkpt lat="45.932946804077574" lon="11.058395540812306"><ele>473.0</ele><time>2026-04-24T13:29:12.997Z</time></trkpt><trkpt lat="45.9328643596796" lon="11.05834918189805"><ele>472.99999999999994</ele><time>2026-04-24T13:29:13.997Z</time></trkpt><trkpt lat="45.932789218520874" lon="11.058262669604622"><ele>472.99999999999994</ele><time>2026-04-24T13:29:15.997Z</time></trkpt><trkpt lat="45.93272774919675" lon="11.058199985936284"><ele>473.0</ele><time>2026-04-24T13:29:17.997Z</time></trkpt><trkpt lat="45.93260720208137" lon="11.058131269184862"><ele>473.0</ele><time>2026-04-24T13:29:19.997Z</time></trkpt><trkpt lat="45.93250565351228" lon="11.05811506292861"><ele>467.4</ele><time>2026-04-24T13:29:20.997Z</time></trkpt><trkpt lat="45.932414488560816" lon="11.058122702535995"><ele>461.79999999999995</ele><time>2026-04-24T13:29:22.997Z</time></trkpt><trkpt lat="45.93234607920684" lon="11.05810346257303"><ele>456.2</ele><time>2026-04-24T13:29:24.997Z</time></trkpt><trkpt lat="45.93232978347615" lon="11.057960928085544"><ele>450.6</ele><time>2026-04-24T13:29:26.997Z</time></trkpt><trkpt lat="45.93236450467743" lon="11.05784264636124"><ele>445.0</ele><time>2026-04-24T13:29:29.997Z</time></trkpt><trkpt lat="45.93231000179694" lon="11.057723816694288"><ele>445.00000000000006</ele><time>2026-04-24T13:29:31.997Z</time></trkpt><trkpt lat="45.9322470666644" lon="11.057702428282491"><ele>445.0</ele><time>2026-04-24T13:29:32.997Z</time></trkpt><trkpt lat="45.93216817743567" lon="11.057695475761301"><ele>445.0</ele><time>2026-04-24T13:29:33.997Z</time></trkpt><trkpt lat="45.932105437066184" lon="11.057768409970878"><ele>445.0</ele><time>2026-04-24T13:29:35.997Z</time></trkpt><trkpt lat="45.93210036928835" lon="11.057889792790087"><ele>445.00000000000006</ele><time>2026-04-24T13:29:39.997Z</time></trkpt><trkpt lat="45.93205875271073" lon="11.057979653655186"><ele>445.0</ele><time>2026-04-24T13:29:42.997Z</time></trkpt><trkpt lat="45.93198290040735" lon="11.0579625432418"><ele>445.00000000000006</ele><time>2026-04-24T13:29:44.997Z</time></trkpt><trkpt lat="45.931907912884796" lon="11.05797478008728"><ele>445.0</ele><time>2026-04-24T13:29:45.997Z</time></trkpt><trkpt lat="45.931836089064646" lon="11.057986963060644"><ele>445.0</ele><time>2026-04-24T13:29:46.997Z</time></trkpt><trkpt lat="45.931768571466016" lon="11.058021345237366"><ele>445.0</ele><time>2026-04-24T13:29:48.997Z</time></trkpt><trkpt lat="45.93176116972738" lon="11.058134375420957"><ele>445.00000000000006</ele><time>2026-04-24T13:29:51.997Z</time></trkpt><trkpt lat="45.93174864512864" lon="11.058295440514904"><ele>445.0</ele><time>2026-04-24T13:29:53.996Z</time></trkpt><trkpt lat="45.931691618031444" lon="11.058389817075849"><ele>444.2</ele><time>2026-04-24T13:29:56.996Z</time></trkpt><trkpt lat="45.93172248656388" lon="11.05856073910594"><ele>443.4</ele><time>2026-04-24T13:29:58.996Z</time></trkpt><trkpt lat="45.93172677455459" lon="11.058663572385424"><ele>442.6</ele><time>2026-04-24T13:29:59.996Z</time></trkpt><trkpt lat="45.93171220744277" lon="11.058825913529802"><ele>441.8</ele><time>2026-04-24T13:30:01.996Z</time></trkpt><trkpt lat="45.93170266671383" lon="11.058915560361585"><ele>441.0</ele><time>2026-04-24T13:30:02.996Z</time></trkpt><trkpt lat="45.93170235639463" lon="11.059059241468626"><ele>439.0</ele><time>2026-04-24T13:30:04.996Z</time></trkpt><trkpt lat="45.931722768124565" lon="11.059190459371944"><ele>437.0</ele><time>2026-04-24T13:30:05.997Z</time></trkpt><trkpt lat="45.93175289870854" lon="11.059351161864816"><ele>435.0</ele><time>2026-04-24T13:30:06.997Z</time></trkpt><trkpt lat="45.9317928238592" lon="11.05945668108751"><ele>433.0</ele><time>2026-04-24T13:30:07.997Z</time></trkpt><trkpt lat="45.93181778076599" lon="11.059564397837269"><ele>431.0</ele><time>2026-04-24T13:30:09.997Z</time></trkpt><trkpt lat="45.931818078630066" lon="11.05975856634112"><ele>436.3333333333333</ele><time>2026-04-24T13:30:11.997Z</time></trkpt><trkpt lat="45.93181922048431" lon="11.059864368824837"><ele>441.66666666666663</ele><time>2026-04-24T13:30:12.997Z</time></trkpt><trkpt lat="45.93183854303543" lon="11.059959729533018"><ele>447.0</ele><time>2026-04-24T13:30:13.997Z</time></trkpt><trkpt lat="45.93190062389668" lon="11.060082906284633"><ele>452.33333333333337</ele><time>2026-04-24T13:30:15.997Z</time></trkpt><trkpt lat="45.93190727393793" lon="11.060187834635832"><ele>457.6666666666667</ele><time>2026-04-24T13:30:17.996Z</time></trkpt><trkpt lat="45.93187538348604" lon="11.060283924855016"><ele>463.0</ele><time>2026-04-24T13:30:19.997Z</time></trkpt><trkpt lat="45.93186303917857" lon="11.060466074112075"><ele>463.00000000000006</ele><time>2026-04-24T13:30:21.997Z</time></trkpt><trkpt lat="45.9318426204418" lon="11.060614578470798"><ele>463.0</ele><time>2026-04-24T13:30:23.996Z</time></trkpt><trkpt lat="45.93185396379038" lon="11.060722872281357"><ele>463.0</ele><time>2026-04-24T13:30:24.996Z</time></trkpt><trkpt lat="45.93186237986495" lon="11.060834082548789"><ele>463.0</ele><time>2026-04-24T13:30:25.996Z</time></trkpt><trkpt lat="45.93187078211557" lon="11.060946299000252"><ele>463.00000000000006</ele><time>2026-04-24T13:30:27.996Z</time></trkpt><trkpt lat="45.93188420548409" lon="11.061047554083512"><ele>463.0</ele><time>2026-04-24T13:30:29.996Z</time></trkpt><trkpt lat="45.93188230253516" lon="11.061142070235446"><ele>460.2</ele><time>2026-04-24T13:30:30.996Z</time></trkpt><trkpt lat="45.93187349653812" lon="11.061287703581161"><ele>457.4</ele><time>2026-04-24T13:30:32.996Z</time></trkpt><trkpt lat="45.93190114560807" lon="11.061394634854217"><ele>454.59999999999997</ele><time>2026-04-24T13:30:34.996Z</time></trkpt><trkpt lat="45.931899766836835" lon="11.06149311259687"><ele>451.79999999999995</ele><time>2026-04-24T13:30:36.996Z</time></trkpt><trkpt lat="45.93189979852026" lon="11.061618134126169"><ele>449.0</ele><time>2026-04-24T13:30:38.996Z</time></trkpt><trkpt lat="45.93183351156363" lon="11.061765548274975"><ele>447.2857142857143</ele><time>2026-04-24T13:30:40.996Z</time></trkpt><trkpt lat="45.93180443210459" lon="11.06185962678451"><ele>445.57142857142856</ele><time>2026-04-24T13:30:41.996Z</time></trkpt><trkpt lat="45.93173837956672" lon="11.06184967212766"><ele>443.85714285714283</ele><time>2026-04-24T13:30:43.996Z</time></trkpt><trkpt lat="45.931721519790365" lon="11.061761207834158"><ele>442.1428571428571</ele><time>2026-04-24T13:30:45.996Z</time></trkpt><trkpt lat="45.93164507795983" lon="11.061687891415316"><ele>440.42857142857144</ele><time>2026-04-24T13:30:47.996Z</time></trkpt><trkpt lat="45.93156895870449" lon="11.061648476321984"><ele>438.71428571428567</ele><time>2026-04-24T13:30:48.996Z</time></trkpt><trkpt lat="45.93150959967413" lon="11.06158928922029"><ele>437.0</ele><time>2026-04-24T13:30:49.996Z</time></trkpt><trkpt lat="45.931450927541825" lon="11.061526149276663"><ele>430.49999999999994</ele><time>2026-04-24T13:30:50.996Z</time></trkpt><trkpt lat="45.93135671458256" lon="11.061409585200758"><ele>424.0</ele><time>2026-04-24T13:30:52.996Z</time></trkpt><trkpt lat="45.93129111907117" lon="11.061350563836085"><ele>417.5</ele><time>2026-04-24T13:30:55.996Z</time></trkpt><trkpt lat="45.9312277513391" lon="11.061324709090849"><ele>411.0</ele><time>2026-04-24T13:30:57.996Z</time></trkpt><trkpt lat="45.9311853304722" lon="11.061405827389946"><ele>404.49999999999994</ele><time>2026-04-24T13:31:00.996Z</time></trkpt><trkpt lat="45.93119549248523" lon="11.061545426452257"><ele>398.0</ele><time>2026-04-24T13:31:02.996Z</time></trkpt><trkpt lat="45.93122512632224" lon="11.061760974731145"><ele>393.0</ele><time>2026-04-24T13:31:04.996Z</time></trkpt><trkpt lat="45.93124775444681" lon="11.061902508991178"><ele>388.0</ele><time>2026-04-24T13:31:05.996Z</time></trkpt><trkpt lat="45.93126931101071" lon="11.06205653067833"><ele>383.0</ele><time>2026-04-24T13:31:06.996Z</time></trkpt><trkpt lat="45.931293203599424" lon="11.06219106956637"><ele>378.0</ele><time>2026-04-24T13:31:07.996Z</time></trkpt><trkpt lat="45.9312957698634" lon="11.062331326113878"><ele>373.0</ele><time>2026-04-24T13:31:08.996Z</time></trkpt><trkpt lat="45.93129075618336" lon="11.062461667770098"><ele>371.16666666666663</ele><time>2026-04-24T13:31:09.996Z</time></trkpt><trkpt lat="45.93128696339691" lon="11.062591386597232"><ele>369.3333333333333</ele><time>2026-04-24T13:31:10.996Z</time></trkpt><trkpt lat="45.93127638902162" lon="11.06271755414729"><ele>367.5</ele><time>2026-04-24T13:31:11.996Z</time></trkpt><trkpt lat="45.93126720009566" lon="11.062829995881998"><ele>365.6666666666667</ele><time>2026-04-24T13:31:12.996Z</time></trkpt><trkpt lat="45.931258829649366" lon="11.062932762591215"><ele>363.83333333333337</ele><time>2026-04-24T13:31:13.996Z</time></trkpt><trkpt lat="45.93125723254344" lon="11.06304461923898"><ele>362.0</ele><time>2026-04-24T13:31:14.996Z</time></trkpt><trkpt lat="45.93124757789784" lon="11.063180524834408"><ele>360.6</ele><time>2026-04-24T13:31:15.996Z</time></trkpt><trkpt lat="45.931240608499024" lon="11.063330766649981"><ele>359.20000000000005</ele><time>2026-04-24T13:31:16.996Z</time></trkpt><trkpt lat="45.93124692784215" lon="11.063449490488114"><ele>357.8</ele><time>2026-04-24T13:31:17.996Z</time></trkpt><trkpt lat="45.931292783465985" lon="11.063562354853211"><ele>356.4</ele><time>2026-04-24T13:31:19.996Z</time></trkpt><trkpt lat="45.931313453008514" lon="11.063707913898968"><ele>355.0</ele><time>2026-04-24T13:31:20.996Z</time></trkpt><trkpt lat="45.9313250739761" lon="11.063907862657409"><ele>355.0</ele><time>2026-04-24T13:31:21.996Z</time></trkpt><trkpt lat="45.93131421278556" lon="11.064069466961248"><ele>355.0</ele><time>2026-04-24T13:31:22.996Z</time></trkpt><trkpt lat="45.93131684442166" lon="11.064212185322264"><ele>355.0</ele><time>2026-04-24T13:31:23.996Z</time></trkpt><trkpt lat="45.93132789699437" lon="11.06432309411665"><ele>355.0</ele><time>2026-04-24T13:31:24.996Z</time></trkpt><trkpt lat="45.93132950128775" lon="11.064427532161988"><ele>355.0</ele><time>2026-04-24T13:31:25.996Z</time></trkpt><trkpt lat="45.93134193263398" lon="11.064559680252223"><ele>350.0</ele><time>2026-04-24T13:31:26.996Z</time></trkpt><trkpt lat="45.931355786006925" lon="11.064703230024039"><ele>345.0</ele><time>2026-04-24T13:31:27.996Z</time></trkpt><trkpt lat="45.931341883850216" lon="11.064907773085457"><ele>340.0</ele><time>2026-04-24T13:31:28.995Z</time></trkpt><trkpt lat="45.93133802041126" lon="11.065096024777272"><ele>335.0</ele><time>2026-04-24T13:31:29.995Z</time></trkpt><trkpt lat="45.93133750030782" lon="11.065241461258726"><ele>330.25</ele><time>2026-04-24T13:31:30.995Z</time></trkpt><trkpt lat="45.93132434527998" lon="11.06538609310854"><ele>325.5</ele><time>2026-04-24T13:31:31.995Z</time></trkpt><trkpt lat="45.93131334787653" lon="11.065593536769256"><ele>320.75</ele><time>2026-04-24T13:31:32.995Z</time></trkpt><trkpt lat="45.931313035759004" lon="11.065751660173712"><ele>316.0</ele><time>2026-04-24T13:31:33.995Z</time></trkpt><trkpt lat="45.93131041833878" lon="11.065949835630327"><ele>311.6</ele><time>2026-04-24T13:31:34.995Z</time></trkpt><trkpt lat="45.93130107554624" lon="11.066146395882647"><ele>307.20000000000005</ele><time>2026-04-24T13:31:35.995Z</time></trkpt><trkpt lat="45.93129453673217" lon="11.066302551435943"><ele>302.79999999999995</ele><time>2026-04-24T13:31:36.995Z</time></trkpt><trkpt lat="45.93129165708132" lon="11.066425984519913"><ele>298.4</ele><time>2026-04-24T13:31:37.995Z</time></trkpt><trkpt lat="45.93128479263799" lon="11.066564758661537"><ele>294.0</ele><time>2026-04-24T13:31:38.995Z</time></trkpt><trkpt lat="45.93128537851895" lon="11.066693097218058"><ele>291.0</ele><time>2026-04-24T13:31:39.995Z</time></trkpt><trkpt lat="45.93127318568795" lon="11.066838643430065"><ele>288.0</ele><time>2026-04-24T13:31:40.995Z</time></trkpt><trkpt lat="45.93124506326391" lon="11.066962800697135"><ele>285.0</ele><time>2026-04-24T13:31:41.995Z</time></trkpt><trkpt lat="45.93123806883942" lon="11.067127203653813"><ele>282.0</ele><time>2026-04-24T13:31:42.995Z</time></trkpt><trkpt lat="45.931235431791215" lon="11.067252627708532"><ele>279.0</ele><time>2026-04-24T13:31:43.995Z</time></trkpt><trkpt lat="45.93121665741014" lon="11.067381739780325"><ele>276.0</ele><time>2026-04-24T13:31:44.995Z</time></trkpt><trkpt lat="45.93118568651462" lon="11.067531204283911"><ele>273.0</ele><time>2026-04-24T13:31:45.995Z</time></trkpt><trkpt lat="45.931152219509805" lon="11.067669747053499"><ele>270.0</ele><time>2026-04-24T13:31:46.995Z</time></trkpt><trkpt lat="45.93111830122932" lon="11.067808091659773"><ele>267.0</ele><time>2026-04-24T13:31:47.995Z</time></trkpt><trkpt lat="45.93112726922895" lon="11.067954902562056"><ele>264.0</ele><time>2026-04-24T13:31:48.995Z</time></trkpt><trkpt lat="45.931137536774585" lon="11.06812300404094"><ele>261.4</ele><time>2026-04-24T13:31:49.995Z</time></trkpt><trkpt lat="45.93114052228808" lon="11.068287186855997"><ele>258.79999999999995</ele><time>2026-04-24T13:31:50.995Z</time></trkpt><trkpt lat="45.93114369884673" lon="11.068386523888194"><ele>256.20000000000005</ele><time>2026-04-24T13:31:51.995Z</time></trkpt><trkpt lat="45.931076500416104" lon="11.068525786321288"><ele>253.60000000000002</ele><time>2026-04-24T13:31:53.995Z</time></trkpt><trkpt lat="45.93099801785755" lon="11.068582170074343"><ele>251.0</ele><time>2026-04-24T13:31:54.995Z</time></trkpt><trkpt lat="45.93091952036113" lon="11.068587690825883"><ele>244.83333333333334</ele><time>2026-04-24T13:31:55.995Z</time></trkpt><trkpt lat="45.930846765062334" lon="11.068652636973285"><ele>238.66666666666669</ele><time>2026-04-24T13:31:56.995Z</time></trkpt><trkpt lat="45.93081752351028" lon="11.068779571539306"><ele>232.5</ele><time>2026-04-24T13:31:57.995Z</time></trkpt><trkpt lat="45.930788432029246" lon="11.068875628015451"><ele>226.33333333333331</ele><time>2026-04-24T13:31:58.995Z</time></trkpt><trkpt lat="45.93074029949444" lon="11.068943161402704"><ele>220.16666666666666</ele><time>2026-04-24T13:31:59.995Z</time></trkpt><trkpt lat="45.93069285214473" lon="11.069036044819303"><ele>214.0</ele><time>2026-04-24T13:32:00.995Z</time></trkpt><trkpt lat="45.930644815477535" lon="11.069152946444161"><ele>214.0</ele><time>2026-04-24T13:32:01.995Z</time></trkpt><trkpt lat="45.930601796317525" lon="11.069299001702932"><ele>213.99999999999997</ele><time>2026-04-24T13:32:02.995Z</time></trkpt><trkpt lat="45.9305633273427" lon="11.069438125619984"><ele>213.99999999999997</ele><time>2026-04-24T13:32:03.995Z</time></trkpt><trkpt lat="45.93051314906337" lon="11.069592731389818"><ele>214.0</ele><time>2026-04-24T13:32:04.995Z</time></trkpt><trkpt lat="45.93048070161933" lon="11.069714656365205"><ele>214.0</ele><time>2026-04-24T13:32:05.995Z</time></trkpt><trkpt lat="45.93043902249516" lon="11.069875411338074"><ele>214.6</ele><time>2026-04-24T13:32:06.995Z</time></trkpt><trkpt lat="45.93040852884571" lon="11.069997606884112"><ele>215.2</ele><time>2026-04-24T13:32:07.995Z</time></trkpt><trkpt lat="45.930386640032516" lon="11.07013131908524"><ele>215.79999999999998</ele><time>2026-04-24T13:32:08.995Z</time></trkpt><trkpt lat="45.930379660517346" lon="11.070248558310187"><ele>216.39999999999998</ele><time>2026-04-24T13:32:09.995Z</time></trkpt><trkpt lat="45.930377924209274" lon="11.070351950990124"><ele>217.0</ele><time>2026-04-24T13:32:10.995Z</time></trkpt><trkpt lat="45.93041324723753" lon="11.070526052220034"><ele>217.0</ele><time>2026-04-24T13:32:12.996Z</time></trkpt><trkpt lat="45.93042778413998" lon="11.070627517320933"><ele>217.0</ele><time>2026-04-24T13:32:13.997Z</time></trkpt><trkpt lat="45.93042356450577" lon="11.070732178611108"><ele>217.0</ele><time>2026-04-24T13:32:14.997Z</time></trkpt><trkpt lat="45.93040353615506" lon="11.070828319990387"><ele>217.0</ele><time>2026-04-24T13:32:15.997Z</time></trkpt><trkpt lat="45.930387957457" lon="11.070922829199093"><ele>217.0</ele><time>2026-04-24T13:32:16.997Z</time></trkpt><trkpt lat="45.930345375326745" lon="11.071007465997802"><ele>217.0</ele><time>2026-04-24T13:32:17.996Z</time></trkpt><trkpt lat="45.930297639086774" lon="11.071098546742448"><ele>217.0</ele><time>2026-04-24T13:32:18.996Z</time></trkpt><trkpt lat="45.930273925790914" lon="11.071222125266031"><ele>217.8</ele><time>2026-04-24T13:32:19.996Z</time></trkpt><trkpt lat="45.93024637745183" lon="11.071359217988139"><ele>218.6</ele><time>2026-04-24T13:32:20.996Z</time></trkpt><trkpt lat="45.9302283223526" lon="11.071504109394624"><ele>219.40000000000003</ele><time>2026-04-24T13:32:21.996Z</time></trkpt><trkpt lat="45.9302191451171" lon="11.071644351644052"><ele>220.20000000000002</ele><time>2026-04-24T13:32:22.996Z</time></trkpt><trkpt lat="45.93020780564909" lon="11.071783371549664"><ele>221.0</ele><time>2026-04-24T13:32:23.996Z</time></trkpt><trkpt lat="45.93019552882558" lon="11.0719071806289"><ele>221.66666666666669</ele><time>2026-04-24T13:32:24.996Z</time></trkpt><trkpt lat="45.93017658701643" lon="11.072024499995592"><ele>222.33333333333334</ele><time>2026-04-24T13:32:25.997Z</time></trkpt><trkpt lat="45.93012831162228" lon="11.072100025096402"><ele>223.0</ele><time>2026-04-24T13:32:26.997Z</time></trkpt><trkpt lat="45.9300780891581" lon="11.072157136954083"><ele>223.66666666666669</ele><time>2026-04-24T13:32:27.997Z</time></trkpt><trkpt lat="45.92999778585908" lon="11.07206748072625"><ele>224.33333333333334</ele><time>2026-04-24T13:32:28.997Z</time></trkpt><trkpt lat="45.92992812305135" lon="11.072086904435436"><ele>225.0</ele><time>2026-04-24T13:32:29.997Z</time></trkpt><trkpt lat="45.929923412190696" lon="11.07234685363776"><ele>218.8</ele><time>2026-04-24T13:32:32.997Z</time></trkpt><trkpt lat="45.92991920324984" lon="11.072456642407055"><ele>212.6</ele><time>2026-04-24T13:32:33.997Z</time></trkpt><trkpt lat="45.929927043683946" lon="11.072609313085238"><ele>206.39999999999998</ele><time>2026-04-24T13:32:34.997Z</time></trkpt><trkpt lat="45.929931817894065" lon="11.072776204553172"><ele>200.2</ele><time>2026-04-24T13:32:35.997Z</time></trkpt><trkpt lat="45.929930009833505" lon="11.072916470527534"><ele>194.0</ele><time>2026-04-24T13:32:36.997Z</time></trkpt><trkpt lat="45.92993945533751" lon="11.073052766330335"><ele>194.0</ele><time>2026-04-24T13:32:37.997Z</time></trkpt><trkpt lat="45.929952367856714" lon="11.073190453039002"><ele>194.0</ele><time>2026-04-24T13:32:38.996Z</time></trkpt><trkpt lat="45.92994607462209" lon="11.073331713805793"><ele>194.0</ele><time>2026-04-24T13:32:39.996Z</time></trkpt><trkpt lat="45.92994224685413" lon="11.073463422158992"><ele>194.0</ele><time>2026-04-24T13:32:40.996Z</time></trkpt><trkpt lat="45.929949182506476" lon="11.073582145125636"><ele>194.0</ele><time>2026-04-24T13:32:41.996Z</time></trkpt><trkpt lat="45.9299510906469" lon="11.073706868391959"><ele>194.6</ele><time>2026-04-24T13:32:42.996Z</time></trkpt><trkpt lat="45.92993792292024" lon="11.073811599606632"><ele>195.2</ele><time>2026-04-24T13:32:43.996Z</time></trkpt><trkpt lat="45.9299295173575" lon="11.07396049549573"><ele>195.79999999999998</ele><time>2026-04-24T13:32:45.996Z</time></trkpt><trkpt lat="45.929815241808" lon="11.073887629168235"><ele>196.39999999999998</ele><time>2026-04-24T13:32:47.996Z</time></trkpt><trkpt lat="45.92975039942052" lon="11.073952546593807"><ele>197.0</ele><time>2026-04-24T13:32:48.996Z</time></trkpt><trkpt lat="45.9297077756741" lon="11.07408001336794"><ele>197.83333333333334</ele><time>2026-04-24T13:32:50.996Z</time></trkpt><trkpt lat="45.92968531265096" lon="11.074170565750771"><ele>198.66666666666669</ele><time>2026-04-24T13:32:51.996Z</time></trkpt><trkpt lat="45.929661185397876" lon="11.074259962457482"><ele>199.5</ele><time>2026-04-24T13:32:52.996Z</time></trkpt><trkpt lat="45.929649856328865" lon="11.07436156068909"><ele>200.33333333333331</ele><time>2026-04-24T13:32:53.996Z</time></trkpt><trkpt lat="45.92963581474993" lon="11.074474265899713"><ele>201.16666666666666</ele><time>2026-04-24T13:32:54.996Z</time></trkpt><trkpt lat="45.929612310951704" lon="11.074594468163934"><ele>202.0</ele><time>2026-04-24T13:32:55.996Z</time></trkpt><trkpt lat="45.92957979758645" lon="11.074726424361055"><ele>201.99999999999997</ele><time>2026-04-24T13:32:56.996Z</time></trkpt><trkpt lat="45.9295477712953" lon="11.074861406299988"><ele>202.0</ele><time>2026-04-24T13:32:57.996Z</time></trkpt><trkpt lat="45.92952177978213" lon="11.074974827175158"><ele>202.0</ele><time>2026-04-24T13:32:58.996Z</time></trkpt><trkpt lat="45.92949869708922" lon="11.075084076842742"><ele>202.0</ele><time>2026-04-24T13:32:59.996Z</time></trkpt><trkpt lat="45.929457476359126" lon="11.07515845852297"><ele>201.99999999999997</ele><time>2026-04-24T13:33:00.996Z</time></trkpt><trkpt lat="45.929361991592884" lon="11.075202537317068"><ele>202.0</ele><time>2026-04-24T13:33:02.996Z</time></trkpt><trkpt lat="45.92928112964719" lon="11.075147904815335"><ele>196.25</ele><time>2026-04-24T13:33:03.996Z</time></trkpt><trkpt lat="45.929174638606675" lon="11.0751185125681"><ele>190.5</ele><time>2026-04-24T13:33:04.996Z</time></trkpt><trkpt lat="45.929056749206275" lon="11.075083617231"><ele>184.75</ele><time>2026-04-24T13:33:05.996Z</time></trkpt><trkpt lat="45.92892529696839" lon="11.075046605996427"><ele>179.0</ele><time>2026-04-24T13:33:06.996Z</time></trkpt><trkpt lat="45.92879365514067" lon="11.075016009035577"><ele>179.0</ele><time>2026-04-24T13:33:07.996Z</time></trkpt><trkpt lat="45.92868053653314" lon="11.074979737064849"><ele>179.0</ele><time>2026-04-24T13:33:08.996Z</time></trkpt><trkpt lat="45.928573620588054" lon="11.074951054059097"><ele>179.0</ele><time>2026-04-24T13:33:09.996Z</time></trkpt><trkpt lat="45.92847378994218" lon="11.074922281888725"><ele>179.0</ele><time>2026-04-24T13:33:10.996Z</time></trkpt><trkpt lat="45.92838399917729" lon="11.074898945916381"><ele>179.0</ele><time>2026-04-24T13:33:11.996Z</time></trkpt><trkpt lat="45.92829257427031" lon="11.074851538077377"><ele>178.79999999999998</ele><time>2026-04-24T13:33:13.996Z</time></trkpt><trkpt lat="45.92819829337747" lon="11.075000766215073"><ele>178.6</ele><time>2026-04-24T13:33:19.996Z</time></trkpt><trkpt lat="45.92817062596877" lon="11.075113428223764"><ele>178.4</ele><time>2026-04-24T13:33:20.996Z</time></trkpt><trkpt lat="45.928148790466615" lon="11.075244281613072"><ele>178.2</ele><time>2026-04-24T13:33:21.996Z</time></trkpt><trkpt lat="45.928123773367226" lon="11.075329496767646"><ele>178.0</ele><time>2026-04-24T13:33:22.996Z</time></trkpt><trkpt lat="45.928061567271804" lon="11.075373270663986"><ele>178.0</ele><time>2026-04-24T13:33:23.996Z</time></trkpt><trkpt lat="45.92797093163019" lon="11.075395481118251"><ele>178.0</ele><time>2026-04-24T13:33:24.996Z</time></trkpt><trkpt lat="45.92785379792159" lon="11.075419667956062"><ele>178.0</ele><time>2026-04-24T13:33:25.996Z</time></trkpt><trkpt lat="45.927746819579795" lon="11.075485199277656"><ele>178.0</ele><time>2026-04-24T13:33:26.996Z</time></trkpt><trkpt lat="45.9276443432521" lon="11.075598553575182"><ele>177.66666666666669</ele><time>2026-04-24T13:33:27.996Z</time></trkpt><trkpt lat="45.92755682530488" lon="11.075757065097575"><ele>177.33333333333334</ele><time>2026-04-24T13:33:28.996Z</time></trkpt><trkpt lat="45.927488727072465" lon="11.075942622848093"><ele>177.0</ele><time>2026-04-24T13:33:29.996Z</time></trkpt><trkpt lat="45.92743018882464" lon="11.076165860109276"><ele>177.66666666666666</ele><time>2026-04-24T13:33:30.996Z</time></trkpt><trkpt lat="45.927376520973155" lon="11.07637743581446"><ele>178.33333333333331</ele><time>2026-04-24T13:33:31.996Z</time></trkpt><trkpt lat="45.927315563742056" lon="11.076594105448526"><ele>179.0</ele><time>2026-04-24T13:33:32.996Z</time></trkpt><trkpt lat="45.927252147269485" lon="11.076818911511776"><ele>179.0</ele><time>2026-04-24T13:33:33.996Z</time></trkpt><trkpt lat="45.9271718671817" lon="11.077031949036357"><ele>179.0</ele><time>2026-04-24T13:33:34.996Z</time></trkpt><trkpt lat="45.92710180629584" lon="11.077271989384261"><ele>179.0</ele><time>2026-04-24T13:33:35.996Z</time></trkpt><trkpt lat="45.927038140414155" lon="11.077490829780487"><ele>180.0</ele><time>2026-04-24T13:33:36.996Z</time></trkpt><trkpt lat="45.92697721748545" lon="11.07771121860683"><ele>181.0</ele><time>2026-04-24T13:33:37.996Z</time></trkpt><trkpt lat="45.92693433031539" lon="11.07794816055004"><ele>182.0</ele><time>2026-04-24T13:33:38.996Z</time></trkpt><trkpt lat="45.92688202383413" lon="11.078173252534757"><ele>181.33333333333331</ele><time>2026-04-24T13:33:39.996Z</time></trkpt><trkpt lat="45.92682318336585" lon="11.078411539135884"><ele>180.66666666666666</ele><time>2026-04-24T13:33:40.996Z</time></trkpt><trkpt lat="45.92676507834243" lon="11.078654339543123"><ele>180.0</ele><time>2026-04-24T13:33:41.996Z</time></trkpt><trkpt lat="45.92669377551823" lon="11.078900174186796"><ele>178.33333333333334</ele><time>2026-04-24T13:33:42.996Z</time></trkpt><trkpt lat="45.92663346441853" lon="11.079155894669197"><ele>176.66666666666669</ele><time>2026-04-24T13:33:43.996Z</time></trkpt><trkpt lat="45.92657554600441" lon="11.079400936228184"><ele>175.0</ele><time>2026-04-24T13:33:44.996Z</time></trkpt><trkpt lat="45.926523848136064" lon="11.079628279634067"><ele>175.0</ele><time>2026-04-24T13:33:45.996Z</time></trkpt><trkpt lat="45.92647799411877" lon="11.079859569181057"><ele>175.0</ele><time>2026-04-24T13:33:46.996Z</time></trkpt><trkpt lat="45.926464504041974" lon="11.080067180020729"><ele>175.0</ele><time>2026-04-24T13:33:47.996Z</time></trkpt><trkpt lat="45.926450307102556" lon="11.080277216240715"><ele>175.66666666666669</ele><time>2026-04-24T13:33:48.996Z</time></trkpt><trkpt lat="45.92647731034068" lon="11.080487798308363"><ele>176.33333333333334</ele><time>2026-04-24T13:33:49.996Z</time></trkpt><trkpt lat="45.926531170747914" lon="11.080706617784633"><ele>177.0</ele><time>2026-04-24T13:33:50.996Z</time></trkpt><trkpt lat="45.92660652109728" lon="11.080916747357424"><ele>177.0</ele><time>2026-04-24T13:33:51.996Z</time></trkpt><trkpt lat="45.926701289055615" lon="11.081082196025633"><ele>177.0</ele><time>2026-04-24T13:33:52.996Z</time></trkpt><trkpt lat="45.92679546432424" lon="11.08121123985361"><ele>177.0</ele><time>2026-04-24T13:33:53.996Z</time></trkpt><trkpt lat="45.926884509196974" lon="11.081308568644674"><ele>177.0</ele><time>2026-04-24T13:33:54.996Z</time></trkpt><trkpt lat="45.92695757048889" lon="11.081392232626351"><ele>177.0</ele><time>2026-04-24T13:33:55.996Z</time></trkpt><trkpt lat="45.9270036700916" lon="11.081468667890691"><ele>177.0</ele><time>2026-04-24T13:33:56.996Z</time></trkpt><trkpt lat="45.92696126663363" lon="11.081648875498257"><ele>177.0</ele><time>2026-04-24T13:33:58.996Z</time></trkpt><trkpt lat="45.92697520212547" lon="11.08177118100847"><ele>177.0</ele><time>2026-04-24T13:33:59.996Z</time></trkpt><trkpt lat="45.92700092708837" lon="11.081917884907206"><ele>177.0</ele><time>2026-04-24T13:34:00.996Z</time></trkpt><trkpt lat="45.927079492769025" lon="11.082094875530046"><ele>177.25</ele><time>2026-04-24T13:34:01.996Z</time></trkpt><trkpt lat="45.92717544842988" lon="11.082252011362703"><ele>177.5</ele><time>2026-04-24T13:34:02.996Z</time></trkpt><trkpt lat="45.927263484440346" lon="11.082383036207615"><ele>177.75</ele><time>2026-04-24T13:34:03.996Z</time></trkpt><trkpt lat="45.92733034279781" lon="11.082505017115043"><ele>178.0</ele><time>2026-04-24T13:34:04.996Z</time></trkpt><trkpt lat="45.92737775551327" lon="11.082627367149772"><ele>178.0</ele><time>2026-04-24T13:34:05.996Z</time></trkpt><trkpt lat="45.92737657426978" lon="11.082742045316106"><ele>178.0</ele><time>2026-04-24T13:34:06.996Z</time></trkpt><trkpt lat="45.927324128503116" lon="11.082794469607661"><ele>178.0</ele><time>2026-04-24T13:34:07.996Z</time></trkpt><trkpt lat="45.92724703980117" lon="11.082753282515451"><ele>178.0</ele><time>2026-04-24T13:34:09.996Z</time></trkpt><trkpt lat="45.9271409758144" lon="11.08273965571169"><ele>178.0</ele><time>2026-04-24T13:34:11.995Z</time></trkpt><trkpt lat="45.92708581922994" lon="11.082602009147905"><ele>178.0</ele><time>2026-04-24T13:34:12.995Z</time></trkpt><trkpt lat="45.927015189403235" lon="11.082417765253727"><ele>178.0</ele><time>2026-04-24T13:34:13.995Z</time></trkpt><trkpt lat="45.92695024244645" lon="11.082250823879887"><ele>178.0</ele><time>2026-04-24T13:34:14.995Z</time></trkpt><trkpt lat="45.926872237484616" lon="11.082094365584814"><ele>178.0</ele><time>2026-04-24T13:34:15.995Z</time></trkpt><trkpt lat="45.926782271075915" lon="11.081948859400512"><ele>178.0</ele><time>2026-04-24T13:34:16.995Z</time></trkpt><trkpt lat="45.92670765015351" lon="11.081763090296226"><ele>177.75</ele><time>2026-04-24T13:34:17.996Z</time></trkpt><trkpt lat="45.92664963709208" lon="11.081556747095107"><ele>177.5</ele><time>2026-04-24T13:34:18.996Z</time></trkpt><trkpt lat="45.92656863020192" lon="11.08137701357365"><ele>177.25</ele><time>2026-04-24T13:34:19.996Z</time></trkpt><trkpt lat="45.92650522929199" lon="11.081204797833923"><ele>177.0</ele><time>2026-04-24T13:34:20.996Z</time></trkpt><trkpt lat="45.926449042189155" lon="11.081009582252687"><ele>177.0</ele><time>2026-04-24T13:34:21.996Z</time></trkpt><trkpt lat="45.92637970497533" lon="11.080832294235929"><ele>177.0</ele><time>2026-04-24T13:34:22.996Z</time></trkpt><trkpt lat="45.92631768761406" lon="11.080664908112617"><ele>177.0</ele><time>2026-04-24T13:34:23.995Z</time></trkpt><trkpt lat="45.926265599134354" lon="11.080519754570915"><ele>177.0</ele><time>2026-04-24T13:34:24.995Z</time></trkpt><trkpt lat="45.926223426812875" lon="11.080404574415859"><ele>177.0</ele><time>2026-04-24T13:34:25.995Z</time></trkpt><trkpt lat="45.926181543664924" lon="11.08031633123022"><ele>177.0</ele><time>2026-04-24T13:34:26.995Z</time></trkpt><trkpt lat="45.926121105843244" lon="11.080246428686046"><ele>177.0</ele><time>2026-04-24T13:34:27.996Z</time></trkpt><trkpt lat="45.926032978622" lon="11.080268388401706"><ele>177.0</ele><time>2026-04-24T13:34:28.996Z</time></trkpt><trkpt lat="45.92592565203004" lon="11.080224326608317"><ele>177.0</ele><time>2026-04-24T13:34:29.995Z</time></trkpt><trkpt lat="45.925805689659924" lon="11.080174053072133"><ele>176.8</ele><time>2026-04-24T13:34:30.995Z</time></trkpt><trkpt lat="45.925701069210135" lon="11.080124179795975"><ele>176.6</ele><time>2026-04-24T13:34:31.996Z</time></trkpt><trkpt lat="45.9255968347549" lon="11.080080672135471"><ele>176.4</ele><time>2026-04-24T13:34:32.996Z</time></trkpt><trkpt lat="45.925495375878135" lon="11.08003608848704"><ele>176.20000000000002</ele><time>2026-04-24T13:34:33.996Z</time></trkpt><trkpt lat="45.92539827761311" lon="11.079995443300247"><ele>176.0</ele><time>2026-04-24T13:34:34.996Z</time></trkpt><trkpt lat="45.925300077565254" lon="11.079955659505103"><ele>175.60000000000002</ele><time>2026-04-24T13:34:35.995Z</time></trkpt><trkpt lat="45.925219052808636" lon="11.07991670847412"><ele>175.2</ele><time>2026-04-24T13:34:36.995Z</time></trkpt><trkpt lat="45.925152265172166" lon="11.079896713731834"><ele>174.8</ele><time>2026-04-24T13:34:37.995Z</time></trkpt><trkpt lat="45.92506828836708" lon="11.079921483051907"><ele>174.39999999999998</ele><time>2026-04-24T13:34:39.995Z</time></trkpt><trkpt lat="45.92499973721786" lon="11.080112775882728"><ele>174.0</ele><time>2026-04-24T13:34:41.995Z</time></trkpt><trkpt lat="45.92497181438756" lon="11.080231802325821"><ele>173.79999999999998</ele><time>2026-04-24T13:34:42.995Z</time></trkpt><trkpt lat="45.92493781820561" lon="11.080338328283155"><ele>173.6</ele><time>2026-04-24T13:34:43.995Z</time></trkpt><trkpt lat="45.924862922955946" lon="11.080436656455747"><ele>173.4</ele><time>2026-04-24T13:34:44.995Z</time></trkpt><trkpt lat="45.924756702261625" lon="11.08052434609881"><ele>173.2</ele><time>2026-04-24T13:34:45.995Z</time></trkpt><trkpt lat="45.92465860461698" lon="11.0806050334729"><ele>173.0</ele><time>2026-04-24T13:34:46.995Z</time></trkpt><trkpt lat="45.924578523101125" lon="11.080748826618134"><ele>173.75</ele><time>2026-04-24T13:34:47.995Z</time></trkpt><trkpt lat="45.92451482346808" lon="11.080891446517096"><ele>174.5</ele><time>2026-04-24T13:34:48.995Z</time></trkpt><trkpt lat="45.92445896731434" lon="11.081036594858313"><ele>175.25</ele><time>2026-04-24T13:34:49.995Z</time></trkpt><trkpt lat="45.924415223560985" lon="11.081176079652671"><ele>176.0</ele><time>2026-04-24T13:34:50.995Z</time></trkpt><trkpt lat="45.92437585034442" lon="11.081347738707867"><ele>176.0</ele><time>2026-04-24T13:34:51.995Z</time></trkpt><trkpt lat="45.92431296659283" lon="11.081495367751115"><ele>176.0</ele><time>2026-04-24T13:34:52.995Z</time></trkpt><trkpt lat="45.92427666590551" lon="11.081649147665324"><ele>176.0</ele><time>2026-04-24T13:34:53.995Z</time></trkpt><trkpt lat="45.924254857991684" lon="11.081780037481508"><ele>176.0</ele><time>2026-04-24T13:34:54.995Z</time></trkpt><trkpt lat="45.92422510541302" lon="11.081927005652377"><ele>176.0</ele><time>2026-04-24T13:34:55.995Z</time></trkpt><trkpt lat="45.92418529702924" lon="11.082052479036637"><ele>175.5</ele><time>2026-04-24T13:34:56.995Z</time></trkpt><trkpt lat="45.92412162016238" lon="11.082165612721269"><ele>175.0</ele><time>2026-04-24T13:34:57.995Z</time></trkpt><trkpt lat="45.92403272350755" lon="11.082279083717799"><ele>174.5</ele><time>2026-04-24T13:34:58.995Z</time></trkpt><trkpt lat="45.92392064548356" lon="11.082384504908573"><ele>174.0</ele><time>2026-04-24T13:34:59.995Z</time></trkpt><trkpt lat="45.923812567124166" lon="11.0824894205057"><ele>174.0</ele><time>2026-04-24T13:35:00.995Z</time></trkpt><trkpt lat="45.9237219711161" lon="11.08257833986347"><ele>174.0</ele><time>2026-04-24T13:35:01.995Z</time></trkpt><trkpt lat="45.923636303946076" lon="11.082663777403651"><ele>174.0</ele><time>2026-04-24T13:35:02.995Z</time></trkpt><trkpt lat="45.923569610276864" lon="11.08275005150257"><ele>174.0</ele><time>2026-04-24T13:35:03.995Z</time></trkpt><trkpt lat="45.92349377563827" lon="11.082806205930863"><ele>174.0</ele><time>2026-04-24T13:35:04.995Z</time></trkpt><trkpt lat="45.92339794543913" lon="11.08281259399212"><ele>174.0</ele><time>2026-04-24T13:35:05.995Z</time></trkpt><trkpt lat="45.9233213252604" lon="11.082776869538337"><ele>174.0</ele><time>2026-04-24T13:35:06.995Z</time></trkpt><trkpt lat="45.92324600202595" lon="11.082756324389532"><ele>174.0</ele><time>2026-04-24T13:35:07.995Z</time></trkpt><trkpt lat="45.92316550537627" lon="11.082779206771935"><ele>174.0</ele><time>2026-04-24T13:35:08.995Z</time></trkpt><trkpt lat="45.923112690734335" lon="11.082917026590179"><ele>174.0</ele><time>2026-04-24T13:35:09.995Z</time></trkpt><trkpt lat="45.923065901091974" lon="11.083070601564815"><ele>174.0</ele><time>2026-04-24T13:35:10.995Z</time></trkpt><trkpt lat="45.92297452211095" lon="11.083191797401408"><ele>174.0</ele><time>2026-04-24T13:35:11.995Z</time></trkpt><trkpt lat="45.922877695401" lon="11.083286945933832"><ele>174.0</ele><time>2026-04-24T13:35:12.995Z</time></trkpt><trkpt lat="45.92277529172803" lon="11.083385888277663"><ele>174.0</ele><time>2026-04-24T13:35:13.995Z</time></trkpt><trkpt lat="45.92267939479118" lon="11.083477821390892"><ele>174.0</ele><time>2026-04-24T13:35:14.995Z</time></trkpt><trkpt lat="45.92258754389169" lon="11.083563398805191"><ele>174.0</ele><time>2026-04-24T13:35:15.995Z</time></trkpt><trkpt lat="45.922493762069436" lon="11.083649871224653"><ele>174.0</ele><time>2026-04-24T13:35:16.995Z</time></trkpt><trkpt lat="45.9224011673434" lon="11.083734314434516"><ele>174.0</ele><time>2026-04-24T13:35:17.995Z</time></trkpt><trkpt lat="45.92229574381772" lon="11.08380324828223"><ele>174.0</ele><time>2026-04-24T13:35:18.995Z</time></trkpt><trkpt lat="45.92219570316297" lon="11.083890783634077"><ele>174.0</ele><time>2026-04-24T13:35:19.995Z</time></trkpt><trkpt lat="45.92211104693577" lon="11.083972944395295"><ele>174.0</ele><time>2026-04-24T13:35:20.995Z</time></trkpt><trkpt lat="45.92203705037782" lon="11.084047369746152"><ele>174.0</ele><time>2026-04-24T13:35:21.995Z</time></trkpt><trkpt lat="45.921970001015495" lon="11.084123550480276"><ele>174.0</ele><time>2026-04-24T13:35:22.995Z</time></trkpt><trkpt lat="45.921890804132055" lon="11.084212080657883"><ele>174.0</ele><time>2026-04-24T13:35:23.995Z</time></trkpt><trkpt lat="45.92181844823671" lon="11.084299792995798"><ele>174.0</ele><time>2026-04-24T13:35:24.995Z</time></trkpt><trkpt lat="45.921743483596465" lon="11.084387699105555"><ele>174.0</ele><time>2026-04-24T13:35:25.995Z</time></trkpt><trkpt lat="45.92165484696202" lon="11.084488826945458"><ele>174.0</ele><time>2026-04-24T13:35:26.995Z</time></trkpt><trkpt lat="45.921565230320354" lon="11.084588291872477"><ele>174.0</ele><time>2026-04-24T13:35:27.995Z</time></trkpt><trkpt lat="45.92147721147049" lon="11.084668625799843"><ele>174.0</ele><time>2026-04-24T13:35:28.995Z</time></trkpt><trkpt lat="45.92141514919669" lon="11.084772681621759"><ele>174.0</ele><time>2026-04-24T13:35:29.995Z</time></trkpt><trkpt lat="45.92134572617602" lon="11.08485617264161"><ele>174.0</ele><time>2026-04-24T13:35:30.995Z</time></trkpt><trkpt lat="45.92127811871307" lon="11.08495714666151"><ele>174.0</ele><time>2026-04-24T13:35:31.995Z</time></trkpt><trkpt lat="45.92121203582995" lon="11.085036354185636"><ele>174.0</ele><time>2026-04-24T13:35:32.995Z</time></trkpt><trkpt lat="45.921125325929815" lon="11.085131034687846"><ele>174.0</ele><time>2026-04-24T13:35:34.995Z</time></trkpt><trkpt lat="45.9210460985537" lon="11.085061079918919"><ele>174.0</ele><time>2026-04-24T13:35:36.995Z</time></trkpt><trkpt lat="45.92099715179882" lon="11.08495786004734"><ele>174.0</ele><time>2026-04-24T13:35:41.994Z</time></trkpt><trkpt lat="45.92101551481632" lon="11.084811756807664"><ele>174.0</ele><time>2026-04-24T13:35:44.994Z</time></trkpt><trkpt lat="45.921072030136564" lon="11.084711258275703"><ele>174.0</ele><time>2026-04-24T13:35:45.994Z</time></trkpt><trkpt lat="45.92112904014358" lon="11.0846123947576"><ele>174.0</ele><time>2026-04-24T13:35:46.994Z</time></trkpt><trkpt lat="45.92118925806173" lon="11.084513671091308"><ele>174.0</ele><time>2026-04-24T13:35:47.994Z</time></trkpt><trkpt lat="45.921261319244806" lon="11.084395406499356"><ele>174.0</ele><time>2026-04-24T13:35:48.994Z</time></trkpt><trkpt lat="45.921338512146455" lon="11.084273953716496"><ele>174.0</ele><time>2026-04-24T13:35:49.994Z</time></trkpt><trkpt lat="45.921413440709244" lon="11.084148043638812"><ele>174.0</ele><time>2026-04-24T13:35:50.994Z</time></trkpt><trkpt lat="45.92148104429078" lon="11.084046336462084"><ele>174.0</ele><time>2026-04-24T13:35:51.994Z</time></trkpt><trkpt lat="45.92153827345016" lon="11.083962997730666"><ele>174.0</ele><time>2026-04-24T13:35:52.994Z</time></trkpt><trkpt lat="45.92157698127624" lon="11.083879092949232"><ele>174.0</ele><time>2026-04-24T13:35:53.994Z</time></trkpt><trkpt lat="45.921584025712896" lon="11.083782096983251"><ele>174.0</ele><time>2026-04-24T13:35:54.994Z</time></trkpt><trkpt lat="45.921540430645344" lon="11.083689806513101"><ele>174.0</ele><time>2026-04-24T13:35:55.994Z</time></trkpt><trkpt lat="45.92147527040852" lon="11.083586503088373"><ele>174.0</ele><time>2026-04-24T13:35:56.994Z</time></trkpt><trkpt lat="45.92141761460856" lon="11.08346329072663"><ele>174.0</ele><time>2026-04-24T13:35:57.994Z</time></trkpt><trkpt lat="45.921355493402714" lon="11.083341088706371"><ele>174.16666666666666</ele><time>2026-04-24T13:35:58.994Z</time></trkpt><trkpt lat="45.921281773887735" lon="11.083250469736633"><ele>174.33333333333334</ele><time>2026-04-24T13:35:59.994Z</time></trkpt><trkpt lat="45.92119012756703" lon="11.083236169262099"><ele>174.5</ele><time>2026-04-24T13:36:00.994Z</time></trkpt><trkpt lat="45.92112517406316" lon="11.08319041525034"><ele>174.66666666666669</ele><time>2026-04-24T13:36:01.994Z</time></trkpt><trkpt lat="45.92107287456474" lon="11.083123739262069"><ele>174.83333333333334</ele><time>2026-04-24T13:36:02.994Z</time></trkpt><trkpt lat="45.92106905742822" lon="11.082975378123713"><ele>175.0</ele><time>2026-04-24T13:36:03.994Z</time></trkpt><trkpt lat="45.921058521858086" lon="11.082845274346601"><ele>175.0</ele><time>2026-04-24T13:36:04.994Z</time></trkpt><trkpt lat="45.921041630824675" lon="11.082740348416024"><ele>175.0</ele><time>2026-04-24T13:36:05.994Z</time></trkpt><trkpt lat="45.92102752132955" lon="11.082648768665706"><ele>175.0</ele><time>2026-04-24T13:36:06.994Z</time></trkpt><trkpt lat="45.920999504404584" lon="11.082508621075359"><ele>175.0</ele><time>2026-04-24T13:36:08.994Z</time></trkpt><trkpt lat="45.920954837377295" lon="11.082342967598613"><ele>175.0</ele><time>2026-04-24T13:36:10.994Z</time></trkpt><trkpt lat="45.92090572628279" lon="11.082128364573755"><ele>175.0</ele><time>2026-04-24T13:36:12.994Z</time></trkpt><trkpt lat="45.92087722383273" lon="11.081977378487117"><ele>175.0</ele><time>2026-04-24T13:36:13.994Z</time></trkpt><trkpt lat="45.92084958523188" lon="11.081818619833152"><ele>175.0</ele><time>2026-04-24T13:36:14.994Z</time></trkpt><trkpt lat="45.9208255175189" lon="11.081661810170038"><ele>175.0</ele><time>2026-04-24T13:36:15.994Z</time></trkpt><trkpt lat="45.92080378917353" lon="11.08148179015924"><ele>175.0</ele><time>2026-04-24T13:36:16.994Z</time></trkpt><trkpt lat="45.92077857596604" lon="11.081300064081235"><ele>175.0</ele><time>2026-04-24T13:36:17.994Z</time></trkpt><trkpt lat="45.92075360576945" lon="11.081127937485832"><ele>175.0</ele><time>2026-04-24T13:36:18.994Z</time></trkpt><trkpt lat="45.92071049028587" lon="11.080964599767333"><ele>175.0</ele><time>2026-04-24T13:36:19.994Z</time></trkpt><trkpt lat="45.920653315397516" lon="11.080800992985806"><ele>175.5</ele><time>2026-04-24T13:36:20.994Z</time></trkpt><trkpt lat="45.92059923718832" lon="11.080635393073551"><ele>176.0</ele><time>2026-04-24T13:36:21.994Z</time></trkpt><trkpt lat="45.920538814584376" lon="11.080473253466133"><ele>176.5</ele><time>2026-04-24T13:36:22.994Z</time></trkpt><trkpt lat="45.92048743573952" lon="11.080319278389114"><ele>177.0</ele><time>2026-04-24T13:36:23.995Z</time></trkpt><trkpt lat="45.92043663914311" lon="11.080167048221142"><ele>177.0</ele><time>2026-04-24T13:36:24.995Z</time></trkpt><trkpt lat="45.92047727427368" lon="11.079942874600471"><ele>177.0</ele><time>2026-04-24T13:36:25.995Z</time></trkpt><trkpt lat="45.92046862749848" lon="11.079749941310828"><ele>177.0</ele><time>2026-04-24T13:36:26.995Z</time></trkpt><trkpt lat="45.92046038480671" lon="11.079563866959756"><ele>177.0</ele><time>2026-04-24T13:36:27.995Z</time></trkpt><trkpt lat="45.92044514474545" lon="11.079369180760171"><ele>177.0</ele><time>2026-04-24T13:36:28.995Z</time></trkpt><trkpt lat="45.92042282861656" lon="11.079178505393513"><ele>177.0</ele><time>2026-04-24T13:36:29.995Z</time></trkpt><trkpt lat="45.92037969264188" lon="11.078993408959061"><ele>177.0</ele><time>2026-04-24T13:36:30.995Z</time></trkpt><trkpt lat="45.92033966519345" lon="11.078800296868197"><ele>177.0</ele><time>2026-04-24T13:36:31.995Z</time></trkpt><trkpt lat="45.92030044258541" lon="11.078614648973526"><ele>176.75</ele><time>2026-04-24T13:36:32.995Z</time></trkpt><trkpt lat="45.92026540041168" lon="11.078436160725515"><ele>176.5</ele><time>2026-04-24T13:36:33.995Z</time></trkpt><trkpt lat="45.92023132826194" lon="11.07827721796857"><ele>176.25</ele><time>2026-04-24T13:36:34.995Z</time></trkpt><trkpt lat="45.920200167698276" lon="11.078122794547452"><ele>176.0</ele><time>2026-04-24T13:36:35.996Z</time></trkpt><trkpt lat="45.92017545142757" lon="11.077981980919356"><ele>176.0</ele><time>2026-04-24T13:36:36.996Z</time></trkpt><trkpt lat="45.920152583055796" lon="11.077838438882528"><ele>176.0</ele><time>2026-04-24T13:36:37.995Z</time></trkpt><trkpt lat="45.920125066697416" lon="11.077676902876547"><ele>176.0</ele><time>2026-04-24T13:36:38.995Z</time></trkpt><trkpt lat="45.92009587445206" lon="11.077518282279634"><ele>176.0</ele><time>2026-04-24T13:36:39.995Z</time></trkpt><trkpt lat="45.92006247237052" lon="11.077353356965707"><ele>175.8</ele><time>2026-04-24T13:36:40.995Z</time></trkpt><trkpt lat="45.92002967451167" lon="11.077204990778423"><ele>175.60000000000002</ele><time>2026-04-24T13:36:41.996Z</time></trkpt><trkpt lat="45.919999467148266" lon="11.077061344245168"><ele>175.4</ele><time>2026-04-24T13:36:42.996Z</time></trkpt><trkpt lat="45.91997940585635" lon="11.076940213093486"><ele>175.2</ele><time>2026-04-24T13:36:43.996Z</time></trkpt><trkpt lat="45.919961166308084" lon="11.076818207487248"><ele>175.0</ele><time>2026-04-24T13:36:44.996Z</time></trkpt><trkpt lat="45.91994576897267" lon="11.076674155980715"><ele>175.25</ele><time>2026-04-24T13:36:45.996Z</time></trkpt><trkpt lat="45.91993612671938" lon="11.076525465375013"><ele>175.5</ele><time>2026-04-24T13:36:46.996Z</time></trkpt><trkpt lat="45.919918797667464" lon="11.076362428484131"><ele>175.75</ele><time>2026-04-24T13:36:47.996Z</time></trkpt><trkpt lat="45.919900617647826" lon="11.076192557308175"><ele>176.0</ele><time>2026-04-24T13:36:48.996Z</time></trkpt><trkpt lat="45.91988179634942" lon="11.07601869690265"><ele>176.0</ele><time>2026-04-24T13:36:49.996Z</time></trkpt><trkpt lat="45.91986211646712" lon="11.075838565185038"><ele>176.0</ele><time>2026-04-24T13:36:50.996Z</time></trkpt><trkpt lat="45.919842046364344" lon="11.075659356835232"><ele>176.0</ele><time>2026-04-24T13:36:51.996Z</time></trkpt><trkpt lat="45.9198207447949" lon="11.0754738603799"><ele>176.0</ele><time>2026-04-24T13:36:52.996Z</time></trkpt><trkpt lat="45.91980094492532" lon="11.075310285296313"><ele>176.0</ele><time>2026-04-24T13:36:53.996Z</time></trkpt><trkpt lat="45.919777332620825" lon="11.07513881537711"><ele>176.0</ele><time>2026-04-24T13:36:54.996Z</time></trkpt><trkpt lat="45.91975081759994" lon="11.074946492382526"><ele>176.0</ele><time>2026-04-24T13:36:55.996Z</time></trkpt><trkpt lat="45.91972643445231" lon="11.074749951069775"><ele>176.0</ele><time>2026-04-24T13:36:56.996Z</time></trkpt><trkpt lat="45.91970754209304" lon="11.074551293473263"><ele>176.0</ele><time>2026-04-24T13:36:57.996Z</time></trkpt><trkpt lat="45.919689924455" lon="11.074349778075561"><ele>176.0</ele><time>2026-04-24T13:36:58.996Z</time></trkpt><trkpt lat="45.91967867808443" lon="11.074162931562535"><ele>176.0</ele><time>2026-04-24T13:36:59.996Z</time></trkpt><trkpt lat="45.91967210218695" lon="11.073983802349511"><ele>176.0</ele><time>2026-04-24T13:37:00.996Z</time></trkpt><trkpt lat="45.91966594841173" lon="11.073794010277087"><ele>175.75</ele><time>2026-04-24T13:37:01.996Z</time></trkpt><trkpt lat="45.91966016679461" lon="11.073621159476104"><ele>175.5</ele><time>2026-04-24T13:37:02.996Z</time></trkpt><trkpt lat="45.91965601981138" lon="11.073454388824821"><ele>175.25</ele><time>2026-04-24T13:37:03.996Z</time></trkpt><trkpt lat="45.91965256370571" lon="11.073279012852872"><ele>175.0</ele><time>2026-04-24T13:37:04.996Z</time></trkpt><trkpt lat="45.919645587679504" lon="11.073098516488317"><ele>175.0</ele><time>2026-04-24T13:37:05.996Z</time></trkpt><trkpt lat="45.91961715940475" lon="11.072908667627575"><ele>175.0</ele><time>2026-04-24T13:37:06.996Z</time></trkpt><trkpt lat="45.91958065563379" lon="11.072718250721922"><ele>175.0</ele><time>2026-04-24T13:37:07.996Z</time></trkpt><trkpt lat="45.91953702660893" lon="11.072535696684408"><ele>175.0</ele><time>2026-04-24T13:37:08.996Z</time></trkpt><trkpt lat="45.91949742654568" lon="11.07234465992551"><ele>174.75</ele><time>2026-04-24T13:37:09.996Z</time></trkpt><trkpt lat="45.919454066876895" lon="11.072143024339825"><ele>174.5</ele><time>2026-04-24T13:37:10.996Z</time></trkpt><trkpt lat="45.91941763114568" lon="11.071946505785291"><ele>174.25</ele><time>2026-04-24T13:37:11.996Z</time></trkpt><trkpt lat="45.9193850412786" lon="11.071750551552224"><ele>174.0</ele><time>2026-04-24T13:37:12.996Z</time></trkpt><trkpt lat="45.91936049985705" lon="11.071559720344437"><ele>174.0</ele><time>2026-04-24T13:37:13.996Z</time></trkpt><trkpt lat="45.91934072473787" lon="11.071365295285997"><ele>174.0</ele><time>2026-04-24T13:37:14.996Z</time></trkpt><trkpt lat="45.91932266191964" lon="11.071184048140097"><ele>174.0</ele><time>2026-04-24T13:37:15.996Z</time></trkpt><trkpt lat="45.91930274031497" lon="11.071022000915933"><ele>174.0</ele><time>2026-04-24T13:37:16.996Z</time></trkpt><trkpt lat="45.91928775230438" lon="11.07086962849965"><ele>174.0</ele><time>2026-04-24T13:37:17.996Z</time></trkpt><trkpt lat="45.91925142620478" lon="11.070735952566476"><ele>174.0</ele><time>2026-04-24T13:37:18.996Z</time></trkpt><trkpt lat="45.91918891514661" lon="11.070639755428882"><ele>174.0</ele><time>2026-04-24T13:37:19.996Z</time></trkpt><trkpt lat="45.91911717221794" lon="11.070570283001393"><ele>174.0</ele><time>2026-04-24T13:37:20.996Z</time></trkpt><trkpt lat="45.91904742243136" lon="11.070499273802074"><ele>174.0</ele><time>2026-04-24T13:37:21.996Z</time></trkpt><trkpt lat="45.91900254046867" lon="11.070423944495348"><ele>174.0</ele><time>2026-04-24T13:37:22.995Z</time></trkpt><trkpt lat="45.91896319059679" lon="11.070311487534012"><ele>174.0</ele><time>2026-04-24T13:37:23.995Z</time></trkpt><trkpt lat="45.918941415111526" lon="11.070173420914497"><ele>174.0</ele><time>2026-04-24T13:37:24.995Z</time></trkpt><trkpt lat="45.91892503732567" lon="11.070021728014462"><ele>174.0</ele><time>2026-04-24T13:37:25.995Z</time></trkpt><trkpt lat="45.918909364727185" lon="11.069854309931653"><ele>174.0</ele><time>2026-04-24T13:37:26.995Z</time></trkpt><trkpt lat="45.91889429409725" lon="11.069692352568005"><ele>174.0</ele><time>2026-04-24T13:37:27.995Z</time></trkpt><trkpt lat="45.91888362524444" lon="11.069533558869743"><ele>174.0</ele><time>2026-04-24T13:37:28.995Z</time></trkpt><trkpt lat="45.918868271483056" lon="11.06937394499546"><ele>174.0</ele><time>2026-04-24T13:37:29.995Z</time></trkpt><trkpt lat="45.91885479150947" lon="11.069215712684782"><ele>174.0</ele><time>2026-04-24T13:37:30.995Z</time></trkpt><trkpt lat="45.91883844085227" lon="11.06906568974379"><ele>174.0</ele><time>2026-04-24T13:37:31.995Z</time></trkpt><trkpt lat="45.91882384857919" lon="11.06890733164713"><ele>174.0</ele><time>2026-04-24T13:37:32.995Z</time></trkpt><trkpt lat="45.91880895095398" lon="11.068746136712031"><ele>174.2</ele><time>2026-04-24T13:37:33.995Z</time></trkpt><trkpt lat="45.918793253573085" lon="11.068586226014093"><ele>174.39999999999998</ele><time>2026-04-24T13:37:34.995Z</time></trkpt><trkpt lat="45.91877540784627" lon="11.068435423224713"><ele>174.6</ele><time>2026-04-24T13:37:35.995Z</time></trkpt><trkpt lat="45.918765483989674" lon="11.06828996544062"><ele>174.8</ele><time>2026-04-24T13:37:36.995Z</time></trkpt><trkpt lat="45.918753284293345" lon="11.068149376947103"><ele>175.0</ele><time>2026-04-24T13:37:37.995Z</time></trkpt><trkpt lat="45.91874559918592" lon="11.068019841486034"><ele>175.4</ele><time>2026-04-24T13:37:38.995Z</time></trkpt><trkpt lat="45.91873463028554" lon="11.067885060196659"><ele>175.8</ele><time>2026-04-24T13:37:39.995Z</time></trkpt><trkpt lat="45.9187141298151" lon="11.067732133284109"><ele>176.2</ele><time>2026-04-24T13:37:40.995Z</time></trkpt><trkpt lat="45.918684206697854" lon="11.067568413441208"><ele>176.6</ele><time>2026-04-24T13:37:41.995Z</time></trkpt><trkpt lat="45.91863967545718" lon="11.067407915716338"><ele>177.0</ele><time>2026-04-24T13:37:42.995Z</time></trkpt><trkpt lat="45.91860316158401" lon="11.067264076895656"><ele>177.39999999999998</ele><time>2026-04-24T13:37:43.995Z</time></trkpt><trkpt lat="45.91857110058737" lon="11.067150371658629"><ele>177.79999999999998</ele><time>2026-04-24T13:37:44.995Z</time></trkpt><trkpt lat="45.91854125800986" lon="11.067036206561061"><ele>178.2</ele><time>2026-04-24T13:37:46.995Z</time></trkpt><trkpt lat="45.91849286296257" lon="11.066958244031168"><ele>178.6</ele><time>2026-04-24T13:37:49.995Z</time></trkpt><trkpt lat="45.91836583088094" lon="11.066954929955463"><ele>179.0</ele><time>2026-04-24T13:37:51.995Z</time></trkpt><trkpt lat="45.91827632614213" lon="11.066986363273768"><ele>179.0</ele><time>2026-04-24T13:37:53.995Z</time></trkpt><trkpt lat="45.918202792307255" lon="11.06705446789548"><ele>179.0</ele><time>2026-04-24T13:37:54.995Z</time></trkpt><trkpt lat="45.918114896050135" lon="11.067141304334834"><ele>179.0</ele><time>2026-04-24T13:37:55.995Z</time></trkpt><trkpt lat="45.91801814895533" lon="11.067177903208215"><ele>179.0</ele><time>2026-04-24T13:37:56.995Z</time></trkpt><trkpt lat="45.91793362150943" lon="11.067155709057129"><ele>179.0</ele><time>2026-04-24T13:37:57.995Z</time></trkpt><trkpt lat="45.91786002406419" lon="11.067060893668769"><ele>179.0</ele><time>2026-04-24T13:37:58.995Z</time></trkpt><trkpt lat="45.91779848694159" lon="11.067023649136612"><ele>179.0</ele><time>2026-04-24T13:37:59.995Z</time></trkpt><trkpt lat="45.91772172331584" lon="11.06703673112747"><ele>179.0</ele><time>2026-04-24T13:38:00.995Z</time></trkpt><trkpt lat="45.917664234737515" lon="11.0671968986227"><ele>179.0</ele><time>2026-04-24T13:38:01.995Z</time></trkpt><trkpt lat="45.91771695377548" lon="11.067349629605738"><ele>179.0</ele><time>2026-04-24T13:38:02.995Z</time></trkpt><trkpt lat="45.9177340303658" lon="11.067509637291366"><ele>178.75</ele><time>2026-04-24T13:38:03.995Z</time></trkpt><trkpt lat="45.91775507207878" lon="11.067675115606676"><ele>178.5</ele><time>2026-04-24T13:38:04.995Z</time></trkpt><trkpt lat="45.9177281322692" lon="11.06783854272502"><ele>178.25</ele><time>2026-04-24T13:38:05.995Z</time></trkpt><trkpt lat="45.917694325713306" lon="11.067995502347753"><ele>178.0</ele><time>2026-04-24T13:38:06.995Z</time></trkpt><trkpt lat="45.91765897125306" lon="11.068150836839717"><ele>177.60000000000002</ele><time>2026-04-24T13:38:07.995Z</time></trkpt><trkpt lat="45.917629350000226" lon="11.068291772423935"><ele>177.20000000000002</ele><time>2026-04-24T13:38:08.995Z</time></trkpt><trkpt lat="45.917607553341306" lon="11.068431381627992"><ele>176.8</ele><time>2026-04-24T13:38:09.995Z</time></trkpt><trkpt lat="45.91760973636915" lon="11.06858994352251"><ele>176.4</ele><time>2026-04-24T13:38:10.995Z</time></trkpt><trkpt lat="45.91759426734986" lon="11.06874153238328"><ele>176.0</ele><time>2026-04-24T13:38:11.995Z</time></trkpt><trkpt lat="45.91757096975401" lon="11.068906084740659"><ele>176.0</ele><time>2026-04-24T13:38:12.995Z</time></trkpt><trkpt lat="45.91753217398787" lon="11.069033109632139"><ele>176.0</ele><time>2026-04-24T13:38:13.995Z</time></trkpt><trkpt lat="45.91739747803925" lon="11.069113279492274"><ele>176.0</ele><time>2026-04-24T13:38:15.995Z</time></trkpt><trkpt lat="45.91731405387149" lon="11.069114250440654"><ele>176.0</ele><time>2026-04-24T13:38:16.995Z</time></trkpt><trkpt lat="45.917221132791" lon="11.069119672921152"><ele>176.0</ele><time>2026-04-24T13:38:17.995Z</time></trkpt><trkpt lat="45.91718460003335" lon="11.068905772268947"><ele>176.20000000000002</ele><time>2026-04-24T13:38:18.995Z</time></trkpt><trkpt lat="45.91713477479186" lon="11.06879431158041"><ele>176.4</ele><time>2026-04-24T13:38:19.995Z</time></trkpt><trkpt lat="45.91708359669444" lon="11.068680984011777"><ele>176.6</ele><time>2026-04-24T13:38:20.995Z</time></trkpt><trkpt lat="45.91703910305345" lon="11.068584050509118"><ele>176.8</ele><time>2026-04-24T13:38:21.995Z</time></trkpt><trkpt lat="45.916989985686186" lon="11.068509739217248"><ele>177.0</ele><time>2026-04-24T13:38:23.995Z</time></trkpt><trkpt lat="45.916816476454116" lon="11.068668900169978"><ele>177.0</ele><time>2026-04-24T13:38:24.995Z</time></trkpt><trkpt lat="45.91676280866151" lon="11.068781144973405"><ele>177.0</ele><time>2026-04-24T13:38:25.995Z</time></trkpt><trkpt lat="45.91670094501347" lon="11.068901222211931"><ele>177.0</ele><time>2026-04-24T13:38:26.995Z</time></trkpt><trkpt lat="45.916632120805936" lon="11.069023710532184"><ele>177.0</ele><time>2026-04-24T13:38:27.995Z</time></trkpt><trkpt lat="45.91654754175039" lon="11.069180497880549"><ele>177.0</ele><time>2026-04-24T13:38:28.995Z</time></trkpt><trkpt lat="45.91647287011266" lon="11.069312274191505"><ele>178.0</ele><time>2026-04-24T13:38:29.995Z</time></trkpt><trkpt lat="45.91639989825587" lon="11.069453722076847"><ele>179.0</ele><time>2026-04-24T13:38:30.995Z</time></trkpt><trkpt lat="45.916325249706276" lon="11.069575942533437"><ele>180.0</ele><time>2026-04-24T13:38:31.995Z</time></trkpt><trkpt lat="45.91627344713112" lon="11.069725408973222"><ele>181.0</ele><time>2026-04-24T13:38:32.995Z</time></trkpt><trkpt lat="45.91624944615677" lon="11.069897447223827"><ele>181.0</ele><time>2026-04-24T13:38:33.995Z</time></trkpt><trkpt lat="45.916237671831695" lon="11.070084932573375"><ele>181.0</ele><time>2026-04-24T13:38:34.995Z</time></trkpt><trkpt lat="45.91622325603853" lon="11.07026151663334"><ele>181.0</ele><time>2026-04-24T13:38:35.995Z</time></trkpt><trkpt lat="45.91620478226163" lon="11.070465053540534"><ele>181.0</ele><time>2026-04-24T13:38:36.995Z</time></trkpt><trkpt lat="45.91617360325863" lon="11.070681559757121"><ele>180.75</ele><time>2026-04-24T13:38:37.995Z</time></trkpt><trkpt lat="45.91612544697644" lon="11.070865674287734"><ele>180.5</ele><time>2026-04-24T13:38:38.995Z</time></trkpt><trkpt lat="45.91607547329346" lon="11.071043886269214"><ele>180.25</ele><time>2026-04-24T13:38:39.995Z</time></trkpt><trkpt lat="45.91603490250255" lon="11.071233191446723"><ele>180.0</ele><time>2026-04-24T13:38:40.995Z</time></trkpt><trkpt lat="45.915963409724185" lon="11.071402940855945"><ele>180.0</ele><time>2026-04-24T13:38:41.995Z</time></trkpt><trkpt lat="45.915906766561285" lon="11.071579837996072"><ele>180.0</ele><time>2026-04-24T13:38:42.995Z</time></trkpt><trkpt lat="45.91585447986285" lon="11.071741984079043"><ele>180.0</ele><time>2026-04-24T13:38:43.995Z</time></trkpt><trkpt lat="45.91580839829313" lon="11.07188488784555"><ele>180.0</ele><time>2026-04-24T13:38:44.995Z</time></trkpt><trkpt lat="45.91576489934758" lon="11.072019782281568"><ele>181.2</ele><time>2026-04-24T13:38:45.994Z</time></trkpt><trkpt lat="45.91572508224902" lon="11.072143258929142"><ele>182.4</ele><time>2026-04-24T13:38:46.994Z</time></trkpt><trkpt lat="45.9156895501103" lon="11.072253448205227"><ele>183.60000000000002</ele><time>2026-04-24T13:38:47.994Z</time></trkpt><trkpt lat="45.91565803404652" lon="11.072353507271048"><ele>184.8</ele><time>2026-04-24T13:38:48.994Z</time></trkpt><trkpt lat="45.91561048693985" lon="11.072420571873415"><ele>186.0</ele><time>2026-04-24T13:38:49.994Z</time></trkpt><trkpt lat="45.915459331650844" lon="11.072384875433647"><ele>186.0</ele><time>2026-04-24T13:38:51.994Z</time></trkpt><trkpt lat="45.91537188845296" lon="11.072385794665687"><ele>186.0</ele><time>2026-04-24T13:38:52.994Z</time></trkpt><trkpt lat="45.91529612584804" lon="11.072391239865029"><ele>186.0</ele><time>2026-04-24T13:38:53.994Z</time></trkpt><trkpt lat="45.9152291592027" lon="11.072408256724863"><ele>186.0</ele><time>2026-04-24T13:38:54.994Z</time></trkpt><trkpt lat="45.915169318338165" lon="11.072461842875718"><ele>186.0</ele><time>2026-04-24T13:38:55.994Z</time></trkpt><trkpt lat="45.91516723804951" lon="11.072655796013608"><ele>186.0</ele><time>2026-04-24T13:38:57.994Z</time></trkpt><trkpt lat="45.91516608836772" lon="11.072767548894587"><ele>185.66666666666666</ele><time>2026-04-24T13:38:58.994Z</time></trkpt><trkpt lat="45.91516546619572" lon="11.072909917545209"><ele>185.33333333333334</ele><time>2026-04-24T13:38:59.994Z</time></trkpt><trkpt lat="45.91512489464338" lon="11.073024722309308"><ele>185.0</ele><time>2026-04-24T13:39:00.994Z</time></trkpt><trkpt lat="45.9150828964385" lon="11.073095311786576"><ele>184.66666666666669</ele><time>2026-04-24T13:39:01.994Z</time></trkpt><trkpt lat="45.915024187883965" lon="11.073192408830066"><ele>184.33333333333334</ele><time>2026-04-24T13:39:02.994Z</time></trkpt><trkpt lat="45.914965202214844" lon="11.07331312844604"><ele>184.0</ele><time>2026-04-24T13:39:03.994Z</time></trkpt><trkpt lat="45.91489760238561" lon="11.073456226966735"><ele>186.75</ele><time>2026-04-24T13:39:04.994Z</time></trkpt><trkpt lat="45.91484786327241" lon="11.073601061077179"><ele>189.5</ele><time>2026-04-24T13:39:05.994Z</time></trkpt><trkpt lat="45.91481984210029" lon="11.073780036689252"><ele>192.25</ele><time>2026-04-24T13:39:06.994Z</time></trkpt><trkpt lat="45.914775529941515" lon="11.073953240716778"><ele>195.0</ele><time>2026-04-24T13:39:07.994Z</time></trkpt><trkpt lat="45.914726129673795" lon="11.07413906299279"><ele>195.2</ele><time>2026-04-24T13:39:08.994Z</time></trkpt><trkpt lat="45.91467903635596" lon="11.074316200031157"><ele>195.4</ele><time>2026-04-24T13:39:09.994Z</time></trkpt><trkpt lat="45.91463883537871" lon="11.074467408051097"><ele>195.60000000000002</ele><time>2026-04-24T13:39:10.994Z</time></trkpt><trkpt lat="45.91460731744997" lon="11.074585996059893"><ele>195.8</ele><time>2026-04-24T13:39:11.994Z</time></trkpt><trkpt lat="45.914580607555074" lon="11.074686470622773"><ele>196.0</ele><time>2026-04-24T13:39:12.994Z</time></trkpt><trkpt lat="45.914557443667334" lon="11.074773606178345"><ele>196.0</ele><time>2026-04-24T13:39:13.994Z</time></trkpt><trkpt lat="45.91454371365629" lon="11.074873940479243"><ele>196.0</ele><time>2026-04-24T13:39:14.994Z</time></trkpt><trkpt lat="45.91447063784461" lon="11.07493484154376"><ele>196.0</ele><time>2026-04-24T13:39:15.994Z</time></trkpt><trkpt lat="45.91437863547685" lon="11.074897531760332"><ele>196.0</ele><time>2026-04-24T13:39:17.994Z</time></trkpt><trkpt lat="45.914330980112446" lon="11.074743704493267"><ele>196.0</ele><time>2026-04-24T13:39:20.994Z</time></trkpt><trkpt lat="45.914301328144205" lon="11.074613520620373"><ele>196.0</ele><time>2026-04-24T13:39:21.994Z</time></trkpt><trkpt lat="45.91430011042279" lon="11.074467989666022"><ele>196.0</ele><time>2026-04-24T13:39:22.994Z</time></trkpt><trkpt lat="45.914286863729444" lon="11.074310752634567"><ele>196.0</ele><time>2026-04-24T13:39:23.994Z</time></trkpt><trkpt lat="45.91425359795129" lon="11.074162788231279"><ele>196.0</ele><time>2026-04-24T13:39:24.994Z</time></trkpt><trkpt lat="45.91421917518993" lon="11.074021962609072"><ele>196.0</ele><time>2026-04-24T13:39:25.994Z</time></trkpt><trkpt lat="45.91418635165705" lon="11.073887679523068"><ele>200.60000000000002</ele><time>2026-04-24T13:39:26.994Z</time></trkpt><trkpt lat="45.91408993803736" lon="11.07377334966084"><ele>205.2</ele><time>2026-04-24T13:39:27.994Z</time></trkpt><trkpt lat="45.91402824135302" lon="11.07363551929534"><ele>209.79999999999998</ele><time>2026-04-24T13:39:28.994Z</time></trkpt><trkpt lat="45.91399298500606" lon="11.073522284103138"><ele>214.39999999999998</ele><time>2026-04-24T13:39:29.994Z</time></trkpt><trkpt lat="45.913959383241966" lon="11.073433456847614"><ele>219.0</ele><time>2026-04-24T13:39:30.994Z</time></trkpt><trkpt lat="45.91390547801544" lon="11.07335792097871"><ele>219.0</ele><time>2026-04-24T13:39:31.994Z</time></trkpt><trkpt lat="45.91383628824593" lon="11.073267810988689"><ele>218.99999999999997</ele><time>2026-04-24T13:39:32.994Z</time></trkpt><trkpt lat="45.91377558723279" lon="11.073165529196757"><ele>218.99999999999997</ele><time>2026-04-24T13:39:33.994Z</time></trkpt><trkpt lat="45.913716115734914" lon="11.073061202477248"><ele>219.0</ele><time>2026-04-24T13:39:34.994Z</time></trkpt><trkpt lat="45.91363983156385" lon="11.072955870397003"><ele>219.0</ele><time>2026-04-24T13:39:35.994Z</time></trkpt><trkpt lat="45.91360139122874" lon="11.07283961745933"><ele>219.0</ele><time>2026-04-24T13:39:36.994Z</time></trkpt><trkpt lat="45.91357157088239" lon="11.072742789240763"><ele>219.0</ele><time>2026-04-24T13:39:37.994Z</time></trkpt><trkpt lat="45.91352969818684" lon="11.07266413981665"><ele>219.0</ele><time>2026-04-24T13:39:38.994Z</time></trkpt><trkpt lat="45.91346623994223" lon="11.072615430153231"><ele>219.0</ele><time>2026-04-24T13:39:40.994Z</time></trkpt><trkpt lat="45.91338136916988" lon="11.072733004916602"><ele>219.0</ele><time>2026-04-24T13:39:41.994Z</time></trkpt><trkpt lat="45.91330662262153" lon="11.07280581407296"><ele>219.0</ele><time>2026-04-24T13:39:42.994Z</time></trkpt><trkpt lat="45.913213408385865" lon="11.072882845598603"><ele>222.6</ele><time>2026-04-24T13:39:43.994Z</time></trkpt><trkpt lat="45.913107480006495" lon="11.072952582568048"><ele>226.2</ele><time>2026-04-24T13:39:44.994Z</time></trkpt><trkpt lat="45.91301559244624" lon="11.072982980779576"><ele>229.79999999999998</ele><time>2026-04-24T13:39:45.994Z</time></trkpt><trkpt lat="45.9129424066409" lon="11.073027186238786"><ele>233.39999999999998</ele><time>2026-04-24T13:39:46.994Z</time></trkpt><trkpt lat="45.91286459096377" lon="11.073131319434722"><ele>237.0</ele><time>2026-04-24T13:39:47.994Z</time></trkpt><trkpt lat="45.91277327561881" lon="11.073213950447064"><ele>238.0</ele><time>2026-04-24T13:39:48.994Z</time></trkpt><trkpt lat="45.912699543842976" lon="11.073280599718748"><ele>239.0</ele><time>2026-04-24T13:39:49.994Z</time></trkpt><trkpt lat="45.91260995606588" lon="11.07330010231742"><ele>240.0</ele><time>2026-04-24T13:39:50.994Z</time></trkpt><trkpt lat="45.91252283249015" lon="11.073303364595294"><ele>241.0</ele><time>2026-04-24T13:39:51.994Z</time></trkpt><trkpt lat="45.91242933891279" lon="11.073255608319794"><ele>242.0</ele><time>2026-04-24T13:39:52.994Z</time></trkpt><trkpt lat="45.91232834501791" lon="11.073208426651574"><ele>243.6</ele><time>2026-04-24T13:39:53.994Z</time></trkpt><trkpt lat="45.91224351355668" lon="11.073154511237652"><ele>245.2</ele><time>2026-04-24T13:39:54.994Z</time></trkpt><trkpt lat="45.912170909727514" lon="11.073058321396164"><ele>246.8</ele><time>2026-04-24T13:39:55.994Z</time></trkpt><trkpt lat="45.912105468126434" lon="11.072963403497072"><ele>248.4</ele><time>2026-04-24T13:39:56.994Z</time></trkpt><trkpt lat="45.91205974160449" lon="11.072872449719316"><ele>250.0</ele><time>2026-04-24T13:39:57.993Z</time></trkpt><trkpt lat="45.912044196403855" lon="11.072709681876754"><ele>250.0</ele><time>2026-04-24T13:39:58.993Z</time></trkpt><trkpt lat="45.91201850984429" lon="11.072553576625683"><ele>250.0</ele><time>2026-04-24T13:39:59.993Z</time></trkpt><trkpt lat="45.912023946591" lon="11.072396618932746"><ele>250.0</ele><time>2026-04-24T13:40:00.993Z</time></trkpt><trkpt lat="45.91204230765391" lon="11.072265865882128"><ele>250.0</ele><time>2026-04-24T13:40:01.993Z</time></trkpt><trkpt lat="45.91207393144009" lon="11.072132508599507"><ele>250.0</ele><time>2026-04-24T13:40:02.993Z</time></trkpt><trkpt lat="45.912136073748925" lon="11.072008653656743"><ele>249.75</ele><time>2026-04-24T13:40:03.993Z</time></trkpt><trkpt lat="45.912187669665094" lon="11.071888318484893"><ele>249.5</ele><time>2026-04-24T13:40:04.993Z</time></trkpt><trkpt lat="45.91224959666694" lon="11.071741632872389"><ele>249.25</ele><time>2026-04-24T13:40:05.993Z</time></trkpt><trkpt lat="45.91225184726744" lon="11.071565241215806"><ele>249.0</ele><time>2026-04-24T13:40:06.993Z</time></trkpt><trkpt lat="45.91225910104402" lon="11.07137408288636"><ele>249.0</ele><time>2026-04-24T13:40:07.993Z</time></trkpt><trkpt lat="45.91226872291156" lon="11.071206634426005"><ele>249.0</ele><time>2026-04-24T13:40:08.993Z</time></trkpt><trkpt lat="45.91230258897303" lon="11.071050393667884"><ele>249.0</ele><time>2026-04-24T13:40:09.993Z</time></trkpt><trkpt lat="45.91231149419413" lon="11.070885309184957"><ele>249.0</ele><time>2026-04-24T13:40:10.993Z</time></trkpt><trkpt lat="45.91233596637914" lon="11.070715661287647"><ele>249.79999999999998</ele><time>2026-04-24T13:40:11.993Z</time></trkpt><trkpt lat="45.91235228257175" lon="11.070579044924317"><ele>250.59999999999997</ele><time>2026-04-24T13:40:12.993Z</time></trkpt><trkpt lat="45.91236279519641" lon="11.070480541077337"><ele>251.4</ele><time>2026-04-24T13:40:13.993Z</time></trkpt><trkpt lat="45.91237962327458" lon="11.070353544302929"><ele>252.2</ele><time>2026-04-24T13:40:15.993Z</time></trkpt><trkpt lat="45.91228382555626" lon="11.07012954588154"><ele>253.0</ele><time>2026-04-24T13:40:17.993Z</time></trkpt><trkpt lat="45.912251445429405" lon="11.069998035184822"><ele>253.2</ele><time>2026-04-24T13:40:18.993Z</time></trkpt><trkpt lat="45.912227627617234" lon="11.069878940392076"><ele>253.4</ele><time>2026-04-24T13:40:19.993Z</time></trkpt><trkpt lat="45.91218488866999" lon="11.069777799083893"><ele>253.59999999999997</ele><time>2026-04-24T13:40:20.993Z</time></trkpt><trkpt lat="45.91211476481795" lon="11.069679516034066"><ele>253.79999999999998</ele><time>2026-04-24T13:40:21.993Z</time></trkpt><trkpt lat="45.912045639802386" lon="11.069564650373787"><ele>254.0</ele><time>2026-04-24T13:40:22.993Z</time></trkpt><trkpt lat="45.91195737339748" lon="11.069469720744076"><ele>254.0</ele><time>2026-04-24T13:40:23.993Z</time></trkpt><trkpt lat="45.91187537619446" lon="11.069384569479015"><ele>253.99999999999997</ele><time>2026-04-24T13:40:24.993Z</time></trkpt><trkpt lat="45.91181410229506" lon="11.06929794666618"><ele>253.99999999999997</ele><time>2026-04-24T13:40:25.993Z</time></trkpt><trkpt lat="45.91175380482199" lon="11.069217190861298"><ele>254.0</ele><time>2026-04-24T13:40:26.993Z</time></trkpt><trkpt lat="45.9116822228749" lon="11.06917557147754"><ele>254.0</ele><time>2026-04-24T13:40:27.993Z</time></trkpt><trkpt lat="45.911577008602094" lon="11.069161923590885"><ele>254.6</ele><time>2026-04-24T13:40:28.993Z</time></trkpt><trkpt lat="45.911483705532525" lon="11.06912573544769"><ele>255.2</ele><time>2026-04-24T13:40:29.993Z</time></trkpt><trkpt lat="45.91144917431159" lon="11.069000389051997"><ele>255.79999999999998</ele><time>2026-04-24T13:40:30.993Z</time></trkpt><trkpt lat="45.911379745234136" lon="11.068870280107138"><ele>256.4</ele><time>2026-04-24T13:40:31.993Z</time></trkpt><trkpt lat="45.91130654584336" lon="11.068748566381004"><ele>257.0</ele><time>2026-04-24T13:40:32.993Z</time></trkpt><trkpt lat="45.91120656626671" lon="11.068654113042061"><ele>257.0</ele><time>2026-04-24T13:40:33.993Z</time></trkpt><trkpt lat="45.911090567526436" lon="11.068565077654414"><ele>257.0</ele><time>2026-04-24T13:40:34.993Z</time></trkpt><trkpt lat="45.91100324007986" lon="11.068438189684299"><ele>257.0</ele><time>2026-04-24T13:40:35.995Z</time></trkpt><trkpt lat="45.91092414396284" lon="11.068322760963813"><ele>257.0</ele><time>2026-04-24T13:40:36.995Z</time></trkpt><trkpt lat="45.91084125048467" lon="11.068210377681165"><ele>258.25</ele><time>2026-04-24T13:40:37.995Z</time></trkpt><trkpt lat="45.910759596600705" lon="11.06809148991268"><ele>259.5</ele><time>2026-04-24T13:40:38.995Z</time></trkpt><trkpt lat="45.910683043860836" lon="11.067972974478929"><ele>260.75</ele><time>2026-04-24T13:40:39.995Z</time></trkpt><trkpt lat="45.91061051027817" lon="11.067845017747745"><ele>262.0</ele><time>2026-04-24T13:40:40.995Z</time></trkpt><trkpt lat="45.910533436252344" lon="11.067708017193166"><ele>262.0</ele><time>2026-04-24T13:40:41.994Z</time></trkpt><trkpt lat="45.91043452386385" lon="11.067568650473358"><ele>262.0</ele><time>2026-04-24T13:40:42.994Z</time></trkpt><trkpt lat="45.91032207771237" lon="11.067434171715758"><ele>262.0</ele><time>2026-04-24T13:40:43.994Z</time></trkpt><trkpt lat="45.91021588424893" lon="11.067302138938667"><ele>262.0</ele><time>2026-04-24T13:40:44.994Z</time></trkpt><trkpt lat="45.910101663214576" lon="11.067173158567403"><ele>262.75</ele><time>2026-04-24T13:40:45.995Z</time></trkpt><trkpt lat="45.909984072740414" lon="11.06705205897401"><ele>263.5</ele><time>2026-04-24T13:40:46.995Z</time></trkpt><trkpt lat="45.909861033419006" lon="11.066935977647262"><ele>264.25</ele><time>2026-04-24T13:40:47.994Z</time></trkpt><trkpt lat="45.90974692378693" lon="11.06682151148935"><ele>265.0</ele><time>2026-04-24T13:40:48.994Z</time></trkpt><trkpt lat="45.909637728493735" lon="11.066724300631654"><ele>265.0</ele><time>2026-04-24T13:40:49.994Z</time></trkpt><trkpt lat="45.90952963033737" lon="11.06665131875633"><ele>265.0</ele><time>2026-04-24T13:40:50.994Z</time></trkpt><trkpt lat="45.90942158273876" lon="11.066587063118824"><ele>265.0</ele><time>2026-04-24T13:40:51.994Z</time></trkpt><trkpt lat="45.9092999429064" lon="11.066514555064376"><ele>265.0</ele><time>2026-04-24T13:40:52.994Z</time></trkpt><trkpt lat="45.909183456320555" lon="11.066419054730684"><ele>265.4</ele><time>2026-04-24T13:40:53.994Z</time></trkpt><trkpt lat="45.90906526775096" lon="11.066350001246388"><ele>265.8</ele><time>2026-04-24T13:40:54.994Z</time></trkpt><trkpt lat="45.90896080510318" lon="11.066290843053602"><ele>266.2</ele><time>2026-04-24T13:40:55.994Z</time></trkpt><trkpt lat="45.90886266863708" lon="11.066233499476414"><ele>266.6</ele><time>2026-04-24T13:40:56.994Z</time></trkpt><trkpt lat="45.90876982260538" lon="11.06618103243408"><ele>267.0</ele><time>2026-04-24T13:40:57.994Z</time></trkpt><trkpt lat="45.90865749903136" lon="11.066125344356582"><ele>267.0</ele><time>2026-04-24T13:40:58.994Z</time></trkpt><trkpt lat="45.90854436187644" lon="11.066061456922295"><ele>267.0</ele><time>2026-04-24T13:40:59.994Z</time></trkpt><trkpt lat="45.908439562457644" lon="11.065999053523859"><ele>267.0</ele><time>2026-04-24T13:41:00.994Z</time></trkpt><trkpt lat="45.90837481952309" lon="11.065920437348016"><ele>267.0</ele><time>2026-04-24T13:41:01.994Z</time></trkpt><trkpt lat="45.908260170827916" lon="11.06587825029924"><ele>267.0</ele><time>2026-04-24T13:41:03.994Z</time></trkpt><trkpt lat="45.90819211043943" lon="11.065904793218001"><ele>269.3333333333333</ele><time>2026-04-24T13:41:04.994Z</time></trkpt><trkpt lat="45.90812857231021" lon="11.065932962688953"><ele>271.6666666666667</ele><time>2026-04-24T13:41:05.994Z</time></trkpt><trkpt lat="45.90804660230218" lon="11.06596528027855"><ele>274.0</ele><time>2026-04-24T13:41:06.994Z</time></trkpt><trkpt lat="45.907961635904186" lon="11.065988638695044"><ele>276.33333333333337</ele><time>2026-04-24T13:41:07.994Z</time></trkpt><trkpt lat="45.90785974960586" lon="11.066007055981638"><ele>278.6666666666667</ele><time>2026-04-24T13:41:08.994Z</time></trkpt><trkpt lat="45.907773852305716" lon="11.06604497482986"><ele>281.0</ele><time>2026-04-24T13:41:09.994Z</time></trkpt><trkpt lat="45.90770027693619" lon="11.066095120038081"><ele>281.0</ele><time>2026-04-24T13:41:10.994Z</time></trkpt><trkpt lat="45.90760205924761" lon="11.066171936325771"><ele>281.0</ele><time>2026-04-24T13:41:11.994Z</time></trkpt><trkpt lat="45.907510888036654" lon="11.066303194179149"><ele>281.0</ele><time>2026-04-24T13:41:12.994Z</time></trkpt><trkpt lat="45.90743200001807" lon="11.066426383158431"><ele>281.0</ele><time>2026-04-24T13:41:13.994Z</time></trkpt><trkpt lat="45.90734955592586" lon="11.066522320290323"><ele>282.5</ele><time>2026-04-24T13:41:14.994Z</time></trkpt><trkpt lat="45.90725645765521" lon="11.066592581726844"><ele>284.0</ele><time>2026-04-24T13:41:15.994Z</time></trkpt><trkpt lat="45.90714792064175" lon="11.066608416264195"><ele>285.5</ele><time>2026-04-24T13:41:16.994Z</time></trkpt><trkpt lat="45.90702991310878" lon="11.066594156022997"><ele>287.0</ele><time>2026-04-24T13:41:17.994Z</time></trkpt><trkpt lat="45.90691521338769" lon="11.066538224776936"><ele>287.0</ele><time>2026-04-24T13:41:18.994Z</time></trkpt><trkpt lat="45.90680665661412" lon="11.06648961626834"><ele>287.0</ele><time>2026-04-24T13:41:19.994Z</time></trkpt><trkpt lat="45.906691719933164" lon="11.066461118013018"><ele>287.0</ele><time>2026-04-24T13:41:20.994Z</time></trkpt><trkpt lat="45.90655871380582" lon="11.06644524286108"><ele>287.0</ele><time>2026-04-24T13:41:21.994Z</time></trkpt><trkpt lat="45.90641682482276" lon="11.06640786415426"><ele>288.0</ele><time>2026-04-24T13:41:22.994Z</time></trkpt><trkpt lat="45.906269418358015" lon="11.066360024451795"><ele>289.0</ele><time>2026-04-24T13:41:23.994Z</time></trkpt><trkpt lat="45.906135445289394" lon="11.066319015729356"><ele>290.0</ele><time>2026-04-24T13:41:24.994Z</time></trkpt><trkpt lat="45.90601173228682" lon="11.066292971221833"><ele>291.0</ele><time>2026-04-24T13:41:25.994Z</time></trkpt><trkpt lat="45.905902476200644" lon="11.066234219510653"><ele>291.5</ele><time>2026-04-24T13:41:26.994Z</time></trkpt><trkpt lat="45.90579778259351" lon="11.066196733727137"><ele>292.0</ele><time>2026-04-24T13:41:27.994Z</time></trkpt><trkpt lat="45.90569948956423" lon="11.066171486544023"><ele>292.5</ele><time>2026-04-24T13:41:28.994Z</time></trkpt><trkpt lat="45.90561378508545" lon="11.066150538337094"><ele>293.0</ele><time>2026-04-24T13:41:29.994Z</time></trkpt><trkpt lat="45.90554851927978" lon="11.066127260903137"><ele>293.5</ele><time>2026-04-24T13:41:30.994Z</time></trkpt><trkpt lat="45.90549747243542" lon="11.0660347220631"><ele>294.0</ele><time>2026-04-24T13:41:31.994Z</time></trkpt><trkpt lat="45.90541075392501" lon="11.065944530785142"><ele>294.0</ele><time>2026-04-24T13:41:33.994Z</time></trkpt><trkpt lat="45.90532943729674" lon="11.06592868523093"><ele>294.0</ele><time>2026-04-24T13:41:35.994Z</time></trkpt><trkpt lat="45.905151272777935" lon="11.066106578936864"><ele>294.0</ele><time>2026-04-24T13:41:37.994Z</time></trkpt><trkpt lat="45.90506708711818" lon="11.066159132243587"><ele>294.0</ele><time>2026-04-24T13:41:38.994Z</time></trkpt><trkpt lat="45.904970649919086" lon="11.066209291008143"><ele>294.2</ele><time>2026-04-24T13:41:39.994Z</time></trkpt><trkpt lat="45.904872487802876" lon="11.066260207811862"><ele>294.4</ele><time>2026-04-24T13:41:40.994Z</time></trkpt><trkpt lat="45.904772938415576" lon="11.066319353855826"><ele>294.6</ele><time>2026-04-24T13:41:41.994Z</time></trkpt><trkpt lat="45.90466588177447" lon="11.06637637411403"><ele>294.8</ele><time>2026-04-24T13:41:42.994Z</time></trkpt><trkpt lat="45.904562454992416" lon="11.066445779332168"><ele>295.0</ele><time>2026-04-24T13:41:43.994Z</time></trkpt><trkpt lat="45.90444626538567" lon="11.066495478011637"><ele>295.0</ele><time>2026-04-24T13:41:44.994Z</time></trkpt><trkpt lat="45.9043242799616" lon="11.066551468339584"><ele>295.0</ele><time>2026-04-24T13:41:45.994Z</time></trkpt><trkpt lat="45.904197245154485" lon="11.06660645055444"><ele>295.0</ele><time>2026-04-24T13:41:46.994Z</time></trkpt><trkpt lat="45.904063565757525" lon="11.066654704840571"><ele>295.0</ele><time>2026-04-24T13:41:47.994Z</time></trkpt><trkpt lat="45.9039195582894" lon="11.066696108754837"><ele>299.75</ele><time>2026-04-24T13:41:48.994Z</time></trkpt><trkpt lat="45.903778259153015" lon="11.066722965099745"><ele>304.5</ele><time>2026-04-24T13:41:49.993Z</time></trkpt><trkpt lat="45.90362728597684" lon="11.066732195673683"><ele>309.25</ele><time>2026-04-24T13:41:50.993Z</time></trkpt><trkpt lat="45.90351326985907" lon="11.066744804206165"><ele>314.0</ele><time>2026-04-24T13:41:51.993Z</time></trkpt><trkpt lat="45.903414059474244" lon="11.066769440570221"><ele>316.25</ele><time>2026-04-24T13:41:52.993Z</time></trkpt><trkpt lat="45.90330848513672" lon="11.066782456591568"><ele>318.5</ele><time>2026-04-24T13:41:53.993Z</time></trkpt><trkpt lat="45.90320870337579" lon="11.066753454822033"><ele>320.75</ele><time>2026-04-24T13:41:54.993Z</time></trkpt><trkpt lat="45.90309392173829" lon="11.066751739276912"><ele>323.0</ele><time>2026-04-24T13:41:55.993Z</time></trkpt><trkpt lat="45.90296814883318" lon="11.066787433187638"><ele>323.0</ele><time>2026-04-24T13:41:56.993Z</time></trkpt><trkpt lat="45.90288201462501" lon="11.066797452866943"><ele>323.0</ele><time>2026-04-24T13:41:57.993Z</time></trkpt><trkpt lat="45.9028146700851" lon="11.066764189033997"><ele>323.0</ele><time>2026-04-24T13:41:58.993Z</time></trkpt><trkpt lat="45.90274110391877" lon="11.066737832613807"><ele>323.0</ele><time>2026-04-24T13:41:59.993Z</time></trkpt><trkpt lat="45.90265619946114" lon="11.0667421576067"><ele>323.0</ele><time>2026-04-24T13:42:00.993Z</time></trkpt><trkpt lat="45.902570561529885" lon="11.066736500465566"><ele>323.0</ele><time>2026-04-24T13:42:01.993Z</time></trkpt><trkpt lat="45.90249208507381" lon="11.066711990175353"><ele>324.1666666666667</ele><time>2026-04-24T13:42:02.993Z</time></trkpt><trkpt lat="45.902422404503334" lon="11.066693801760929"><ele>325.33333333333337</ele><time>2026-04-24T13:42:03.993Z</time></trkpt><trkpt lat="45.90234787902159" lon="11.066689590216132"><ele>326.5</ele><time>2026-04-24T13:42:04.993Z</time></trkpt><trkpt lat="45.902267367465214" lon="11.06666602231582"><ele>327.6666666666667</ele><time>2026-04-24T13:42:05.993Z</time></trkpt><trkpt lat="45.90219801395887" lon="11.06664609550327"><ele>328.8333333333333</ele><time>2026-04-24T13:42:06.993Z</time></trkpt><trkpt lat="45.902117327506716" lon="11.066625076102868"><ele>330.0</ele><time>2026-04-24T13:42:08.993Z</time></trkpt><trkpt lat="45.902013419304126" lon="11.066597249653482"><ele>330.0</ele><time>2026-04-24T13:42:11.993Z</time></trkpt><trkpt lat="45.90194038175372" lon="11.066574612665555"><ele>330.0</ele><time>2026-04-24T13:42:12.993Z</time></trkpt><trkpt lat="45.901857198946914" lon="11.066536565728699"><ele>330.0</ele><time>2026-04-24T13:42:13.993Z</time></trkpt><trkpt lat="45.901784661926" lon="11.066490443635201"><ele>330.0</ele><time>2026-04-24T13:42:14.993Z</time></trkpt><trkpt lat="45.90171368837295" lon="11.066455075285976"><ele>330.0</ele><time>2026-04-24T13:42:15.993Z</time></trkpt><trkpt lat="45.901654511476714" lon="11.066415868696083"><ele>330.0</ele><time>2026-04-24T13:42:16.993Z</time></trkpt><trkpt lat="45.90152406822898" lon="11.066351041889714"><ele>333.0</ele><time>2026-04-24T13:42:18.993Z</time></trkpt><trkpt lat="45.90146001985918" lon="11.066300342139836"><ele>336.0</ele><time>2026-04-24T13:42:19.993Z</time></trkpt><trkpt lat="45.901395565902774" lon="11.066233447396286"><ele>339.0</ele><time>2026-04-24T13:42:21.993Z</time></trkpt><trkpt lat="45.90132805840208" lon="11.066217021556817"><ele>342.0</ele><time>2026-04-24T13:42:22.993Z</time></trkpt><trkpt lat="45.901224966809444" lon="11.066172410042684"><ele>345.0</ele><time>2026-04-24T13:42:23.993Z</time></trkpt><trkpt lat="45.901110717355444" lon="11.066133324534512"><ele>348.0</ele><time>2026-04-24T13:42:24.993Z</time></trkpt><trkpt lat="45.9009954023644" lon="11.066093169855717"><ele>350.59999999999997</ele><time>2026-04-24T13:42:25.993Z</time></trkpt><trkpt lat="45.90091192484448" lon="11.06606127233793"><ele>353.2</ele><time>2026-04-24T13:42:26.993Z</time></trkpt><trkpt lat="45.900838828853274" lon="11.066016781662942"><ele>355.8</ele><time>2026-04-24T13:42:28.993Z</time></trkpt><trkpt lat="45.90072959711239" lon="11.06600410403651"><ele>358.4</ele><time>2026-04-24T13:42:30.993Z</time></trkpt><trkpt lat="45.900633905879054" lon="11.065975121717393"><ele>361.0</ele><time>2026-04-24T13:42:31.993Z</time></trkpt><trkpt lat="45.90050465235318" lon="11.065942893357928"><ele>361.0</ele><time>2026-04-24T13:42:32.993Z</time></trkpt><trkpt lat="45.900382531989685" lon="11.065903861190318"><ele>361.0</ele><time>2026-04-24T13:42:33.993Z</time></trkpt><trkpt lat="45.90030036719036" lon="11.065881706237416"><ele>361.0</ele><time>2026-04-24T13:42:34.993Z</time></trkpt><trkpt lat="45.90022679382593" lon="11.065893760672868"><ele>361.0</ele><time>2026-04-24T13:42:35.993Z</time></trkpt><trkpt lat="45.90015279428973" lon="11.065899780162605"><ele>361.0</ele><time>2026-04-24T13:42:36.993Z</time></trkpt><trkpt lat="45.90007640526222" lon="11.065861294236857"><ele>361.0</ele><time>2026-04-24T13:42:37.993Z</time></trkpt><trkpt lat="45.89999825869869" lon="11.065838932316485"><ele>363.0</ele><time>2026-04-24T13:42:38.993Z</time></trkpt><trkpt lat="45.89991461578415" lon="11.06583934168039"><ele>365.0</ele><time>2026-04-24T13:42:39.993Z</time></trkpt><trkpt lat="45.89981376725725" lon="11.065841515696436"><ele>367.0</ele><time>2026-04-24T13:42:40.993Z</time></trkpt><trkpt lat="45.89972519393357" lon="11.065835111189019"><ele>369.0</ele><time>2026-04-24T13:42:41.995Z</time></trkpt><trkpt lat="45.89966320969583" lon="11.06581400357569"><ele>371.0</ele><time>2026-04-24T13:42:42.995Z</time></trkpt><trkpt lat="45.89958989767271" lon="11.065774775747016"><ele>373.0</ele><time>2026-04-24T13:42:43.994Z</time></trkpt><trkpt lat="45.89952824894576" lon="11.065748470630886"><ele>373.0</ele><time>2026-04-24T13:42:44.994Z</time></trkpt><trkpt lat="45.89945348554701" lon="11.065778308183214"><ele>373.0</ele><time>2026-04-24T13:42:45.994Z</time></trkpt><trkpt lat="45.899375923942266" lon="11.065823214029258"><ele>373.0</ele><time>2026-04-24T13:42:46.994Z</time></trkpt><trkpt lat="45.899300323690255" lon="11.06587453401979"><ele>373.0</ele><time>2026-04-24T13:42:47.994Z</time></trkpt><trkpt lat="45.89919446768086" lon="11.065877367702253"><ele>373.0</ele><time>2026-04-24T13:42:48.994Z</time></trkpt><trkpt lat="45.899118736243835" lon="11.065875468464109"><ele>373.0</ele><time>2026-04-24T13:42:49.994Z</time></trkpt><trkpt lat="45.89904351560562" lon="11.065864561596008"><ele>375.3333333333333</ele><time>2026-04-24T13:42:51.994Z</time></trkpt><trkpt lat="45.89898166475206" lon="11.065982328319775"><ele>377.66666666666663</ele><time>2026-04-24T13:42:54.994Z</time></trkpt><trkpt lat="45.89899172017713" lon="11.066076784967228"><ele>380.0</ele><time>2026-04-24T13:42:55.994Z</time></trkpt><trkpt lat="45.89899400859407" lon="11.066191250815693"><ele>382.3333333333333</ele><time>2026-04-24T13:42:56.994Z</time></trkpt><trkpt lat="45.8990662006412" lon="11.066261903959678"><ele>384.6666666666667</ele><time>2026-04-24T13:42:57.994Z</time></trkpt><trkpt lat="45.89911178701655" lon="11.066360829493984"><ele>387.0</ele><time>2026-04-24T13:42:58.994Z</time></trkpt><trkpt lat="45.89917344760851" lon="11.06645526409064"><ele>387.0</ele><time>2026-04-24T13:42:59.994Z</time></trkpt><trkpt lat="45.899236389484706" lon="11.066549186457799"><ele>387.0</ele><time>2026-04-24T13:43:00.994Z</time></trkpt><trkpt lat="45.899308354920734" lon="11.066625762377562"><ele>387.0</ele><time>2026-04-24T13:43:01.994Z</time></trkpt><trkpt lat="45.89937428864606" lon="11.066718781026639"><ele>387.0</ele><time>2026-04-24T13:43:02.994Z</time></trkpt><trkpt lat="45.89941677856302" lon="11.066794860260542"><ele>387.0</ele><time>2026-04-24T13:43:03.994Z</time></trkpt><trkpt lat="45.89939276123552" lon="11.066931529011104"><ele>387.0</ele><time>2026-04-24T13:43:05.994Z</time></trkpt><trkpt lat="45.89925883850274" lon="11.066857115848247"><ele>389.0</ele><time>2026-04-24T13:43:07.994Z</time></trkpt><trkpt lat="45.89915799408393" lon="11.066839062171285"><ele>391.0</ele><time>2026-04-24T13:43:08.994Z</time></trkpt><trkpt lat="45.899052600876296" lon="11.066806628193804"><ele>393.0</ele><time>2026-04-24T13:43:09.994Z</time></trkpt><trkpt lat="45.89895140081567" lon="11.066779253479885"><ele>395.0</ele><time>2026-04-24T13:43:10.994Z</time></trkpt><trkpt lat="45.898855211970215" lon="11.06675336345281"><ele>397.0</ele><time>2026-04-24T13:43:11.994Z</time></trkpt><trkpt lat="45.89874724902157" lon="11.06672408669247"><ele>397.0</ele><time>2026-04-24T13:43:12.994Z</time></trkpt><trkpt lat="45.8986366960817" lon="11.066695674001606"><ele>397.0</ele><time>2026-04-24T13:43:13.994Z</time></trkpt><trkpt lat="45.89851547061348" lon="11.06668291031759"><ele>397.0</ele><time>2026-04-24T13:43:14.994Z</time></trkpt><trkpt lat="45.89840415062387" lon="11.066683869940853"><ele>397.0</ele><time>2026-04-24T13:43:15.994Z</time></trkpt><trkpt lat="45.898305238219876" lon="11.06669922685221"><ele>397.0</ele><time>2026-04-24T13:43:16.994Z</time></trkpt><trkpt lat="45.89820602299403" lon="11.066741839964141"><ele>398.8</ele><time>2026-04-24T13:43:17.994Z</time></trkpt><trkpt lat="45.898119595994686" lon="11.066813025870786"><ele>400.6</ele><time>2026-04-24T13:43:18.994Z</time></trkpt><trkpt lat="45.89802188675831" lon="11.066877288573453"><ele>402.40000000000003</ele><time>2026-04-24T13:43:19.994Z</time></trkpt><trkpt lat="45.89794062977357" lon="11.066833880070979"><ele>404.20000000000005</ele><time>2026-04-24T13:43:20.994Z</time></trkpt><trkpt lat="45.89786239894686" lon="11.066813426468473"><ele>406.0</ele><time>2026-04-24T13:43:21.994Z</time></trkpt><trkpt lat="45.8977862453412" lon="11.066776863029569"><ele>406.0</ele><time>2026-04-24T13:43:22.994Z</time></trkpt><trkpt lat="45.8976845025623" lon="11.06679625262246"><ele>406.0</ele><time>2026-04-24T13:43:23.994Z</time></trkpt><trkpt lat="45.89758862527049" lon="11.066827124174978"><ele>406.0</ele><time>2026-04-24T13:43:24.994Z</time></trkpt><trkpt lat="45.89748668841524" lon="11.066836498778772"><ele>406.0</ele><time>2026-04-24T13:43:25.994Z</time></trkpt><trkpt lat="45.897383731981" lon="11.066841981349048"><ele>406.0</ele><time>2026-04-24T13:43:26.994Z</time></trkpt><trkpt lat="45.89727629353821" lon="11.06686160422508"><ele>410.0</ele><time>2026-04-24T13:43:27.994Z</time></trkpt><trkpt lat="45.89716608644335" lon="11.066892993256175"><ele>414.0</ele><time>2026-04-24T13:43:28.994Z</time></trkpt><trkpt lat="45.89704786992714" lon="11.066924019727974"><ele>418.0</ele><time>2026-04-24T13:43:29.994Z</time></trkpt><trkpt lat="45.89692284142338" lon="11.066950064974558"><ele>422.0</ele><time>2026-04-24T13:43:30.994Z</time></trkpt><trkpt lat="45.89680584361269" lon="11.066982117899196"><ele>425.5</ele><time>2026-04-24T13:43:31.994Z</time></trkpt><trkpt lat="45.89668567772732" lon="11.066992167147154"><ele>429.0</ele><time>2026-04-24T13:43:32.994Z</time></trkpt><trkpt lat="45.896565706659906" lon="11.0669978907997"><ele>432.5</ele><time>2026-04-24T13:43:33.994Z</time></trkpt><trkpt lat="45.896445405591166" lon="11.067001039131574"><ele>436.0</ele><time>2026-04-24T13:43:34.994Z</time></trkpt><trkpt lat="45.896332053770486" lon="11.066998204252817"><ele>436.00000000000006</ele><time>2026-04-24T13:43:35.994Z</time></trkpt><trkpt lat="45.89622762009825" lon="11.06700576282365"><ele>436.0</ele><time>2026-04-24T13:43:36.994Z</time></trkpt><trkpt lat="45.89614782089093" lon="11.067033587468538"><ele>436.0</ele><time>2026-04-24T13:43:37.994Z</time></trkpt><trkpt lat="45.896068317157734" lon="11.06706879264979"><ele>436.0</ele><time>2026-04-24T13:43:38.994Z</time></trkpt><trkpt lat="45.89599119968186" lon="11.06710570702725"><ele>436.00000000000006</ele><time>2026-04-24T13:43:39.994Z</time></trkpt><trkpt lat="45.89590620618045" lon="11.067144433494143"><ele>436.0</ele><time>2026-04-24T13:43:40.994Z</time></trkpt><trkpt lat="45.895813743479394" lon="11.067182166728891"><ele>437.20000000000005</ele><time>2026-04-24T13:43:41.994Z</time></trkpt><trkpt lat="45.895731679973764" lon="11.067215035293017"><ele>438.40000000000003</ele><time>2026-04-24T13:43:42.994Z</time></trkpt><trkpt lat="45.89566156380947" lon="11.06725096202012"><ele>439.6</ele><time>2026-04-24T13:43:43.994Z</time></trkpt><trkpt lat="45.895561928758305" lon="11.067282198381172"><ele>440.8</ele><time>2026-04-24T13:43:45.994Z</time></trkpt><trkpt lat="45.89549190206014" lon="11.06729756185111"><ele>442.0</ele><time>2026-04-24T13:43:48.994Z</time></trkpt><trkpt lat="45.89534852504659" lon="11.067309864122471"><ele>442.0</ele><time>2026-04-24T13:43:50.994Z</time></trkpt><trkpt lat="45.89526973027245" lon="11.067315598431696"><ele>442.00000000000006</ele><time>2026-04-24T13:43:51.994Z</time></trkpt><trkpt lat="45.89517823508789" lon="11.067319948381796"><ele>442.00000000000006</ele><time>2026-04-24T13:43:52.994Z</time></trkpt><trkpt lat="45.8950911315823" lon="11.067308283125627"><ele>442.0</ele><time>2026-04-24T13:43:53.994Z</time></trkpt><trkpt lat="45.89498392858368" lon="11.067276908583514"><ele>442.0</ele><time>2026-04-24T13:43:54.994Z</time></trkpt><trkpt lat="45.894872788217484" lon="11.067243401919335"><ele>442.75</ele><time>2026-04-24T13:43:55.994Z</time></trkpt><trkpt lat="45.89475542081547" lon="11.067217586699346"><ele>443.5</ele><time>2026-04-24T13:43:56.994Z</time></trkpt><trkpt lat="45.8946379338838" lon="11.067181744751744"><ele>444.25</ele><time>2026-04-24T13:43:57.994Z</time></trkpt><trkpt lat="45.894513624466526" lon="11.067108355894883"><ele>445.0</ele><time>2026-04-24T13:43:58.994Z</time></trkpt><trkpt lat="45.89437852283572" lon="11.067052516884685"><ele>445.0</ele><time>2026-04-24T13:43:59.994Z</time></trkpt><trkpt lat="45.894248138101126" lon="11.066991088510353"><ele>445.0</ele><time>2026-04-24T13:44:00.994Z</time></trkpt><trkpt lat="45.89410364367523" lon="11.066972584765551"><ele>445.0</ele><time>2026-04-24T13:44:01.994Z</time></trkpt><trkpt lat="45.89396954984861" lon="11.066933592216419"><ele>445.0</ele><time>2026-04-24T13:44:02.994Z</time></trkpt><trkpt lat="45.89383333343733" lon="11.066900795097665"><ele>445.0</ele><time>2026-04-24T13:44:03.994Z</time></trkpt><trkpt lat="45.89368683243028" lon="11.066842484009074"><ele>445.0</ele><time>2026-04-24T13:44:04.994Z</time></trkpt><trkpt lat="45.89356135635313" lon="11.066788759047297"><ele>445.0</ele><time>2026-04-24T13:44:05.994Z</time></trkpt><trkpt lat="45.89343204867145" lon="11.06673077154817"><ele>445.0</ele><time>2026-04-24T13:44:06.994Z</time></trkpt><trkpt lat="45.89328881862476" lon="11.066680665144304"><ele>446.25</ele><time>2026-04-24T13:44:07.994Z</time></trkpt><trkpt lat="45.89315389524974" lon="11.066630058024442"><ele>447.5</ele><time>2026-04-24T13:44:08.994Z</time></trkpt><trkpt lat="45.893027080383725" lon="11.066588644023764"><ele>448.75</ele><time>2026-04-24T13:44:09.994Z</time></trkpt><trkpt lat="45.892914876462655" lon="11.066563384668537"><ele>450.0</ele><time>2026-04-24T13:44:10.994Z</time></trkpt><trkpt lat="45.89281007857343" lon="11.066530490287727"><ele>450.1666666666667</ele><time>2026-04-24T13:44:11.993Z</time></trkpt><trkpt lat="45.89272369998894" lon="11.06651378720397"><ele>450.33333333333337</ele><time>2026-04-24T13:44:12.993Z</time></trkpt><trkpt lat="45.892635381503226" lon="11.066509821380114"><ele>450.5</ele><time>2026-04-24T13:44:13.993Z</time></trkpt><trkpt lat="45.892569071965404" lon="11.066496118855497"><ele>450.6666666666667</ele><time>2026-04-24T13:44:14.993Z</time></trkpt><trkpt lat="45.892499233137606" lon="11.066383060928358"><ele>450.83333333333337</ele><time>2026-04-24T13:44:16.993Z</time></trkpt><trkpt lat="45.89250800046499" lon="11.066280256215288"><ele>451.0</ele><time>2026-04-24T13:44:17.993Z</time></trkpt><trkpt lat="45.89247117160931" lon="11.066147652136745"><ele>452.33333333333337</ele><time>2026-04-24T13:44:18.993Z</time></trkpt><trkpt lat="45.89242239293984" lon="11.066085922802461"><ele>453.6666666666667</ele><time>2026-04-24T13:44:19.993Z</time></trkpt><trkpt lat="45.89235825579737" lon="11.066069261365339"><ele>455.0</ele><time>2026-04-24T13:44:20.993Z</time></trkpt><trkpt lat="45.892288207463785" lon="11.066153833271681"><ele>456.33333333333337</ele><time>2026-04-24T13:44:21.993Z</time></trkpt><trkpt lat="45.8922557263736" lon="11.066299166581548"><ele>457.6666666666667</ele><time>2026-04-24T13:44:22.993Z</time></trkpt><trkpt lat="45.89221333624923" lon="11.066427633781935"><ele>459.0</ele><time>2026-04-24T13:44:23.993Z</time></trkpt><trkpt lat="45.89215691021573" lon="11.066517679678714"><ele>459.0</ele><time>2026-04-24T13:44:24.993Z</time></trkpt><trkpt lat="45.892109856856095" lon="11.066591213915423"><ele>459.0</ele><time>2026-04-24T13:44:25.993Z</time></trkpt><trkpt lat="45.892038971808944" lon="11.0666196358421"><ele>459.0</ele><time>2026-04-24T13:44:27.993Z</time></trkpt><trkpt lat="45.89197191376403" lon="11.066650000083273"><ele>459.0</ele><time>2026-04-24T13:44:29.993Z</time></trkpt><trkpt lat="45.89189347110999" lon="11.066594677414386"><ele>459.0</ele><time>2026-04-24T13:44:30.993Z</time></trkpt><trkpt lat="45.891809893399525" lon="11.066512255673336"><ele>459.0</ele><time>2026-04-24T13:44:31.993Z</time></trkpt><trkpt lat="45.891723170402244" lon="11.066439178009299"><ele>460.4</ele><time>2026-04-24T13:44:32.993Z</time></trkpt><trkpt lat="45.89163979352518" lon="11.066357941811223"><ele>461.79999999999995</ele><time>2026-04-24T13:44:33.993Z</time></trkpt><trkpt lat="45.89156312733818" lon="11.066287009943258"><ele>463.20000000000005</ele><time>2026-04-24T13:44:34.993Z</time></trkpt><trkpt lat="45.89149979472115" lon="11.066169611420051"><ele>464.6</ele><time>2026-04-24T13:44:35.993Z</time></trkpt><trkpt lat="45.89144220708571" lon="11.06602569140752"><ele>466.0</ele><time>2026-04-24T13:44:36.993Z</time></trkpt><trkpt lat="45.891381040455435" lon="11.065869603525329"><ele>466.83333333333337</ele><time>2026-04-24T13:44:37.993Z</time></trkpt><trkpt lat="45.891346052463945" lon="11.065730651871966"><ele>467.6666666666667</ele><time>2026-04-24T13:44:38.993Z</time></trkpt><trkpt lat="45.89133169413206" lon="11.065614138133812"><ele>468.5</ele><time>2026-04-24T13:44:39.993Z</time></trkpt><trkpt lat="45.89131907080942" lon="11.065499301254913"><ele>469.33333333333337</ele><time>2026-04-24T13:44:40.993Z</time></trkpt><trkpt lat="45.89130765379015" lon="11.065409437102515"><ele>470.1666666666667</ele><time>2026-04-24T13:44:41.993Z</time></trkpt><trkpt lat="45.89129710842712" lon="11.06525723273771"><ele>471.0</ele><time>2026-04-24T13:44:43.993Z</time></trkpt><trkpt lat="45.891367284751816" lon="11.065199174435136"><ele>471.00000000000006</ele><time>2026-04-24T13:44:44.993Z</time></trkpt><trkpt lat="45.89138147678491" lon="11.065106754566425"><ele>471.0</ele><time>2026-04-24T13:44:45.993Z</time></trkpt><trkpt lat="45.89137025810218" lon="11.064997264894547"><ele>471.00000000000006</ele><time>2026-04-24T13:44:46.993Z</time></trkpt><trkpt lat="45.89135471663055" lon="11.06490369879787"><ele>471.00000000000006</ele><time>2026-04-24T13:44:47.993Z</time></trkpt><trkpt lat="45.89130791801743" lon="11.064761036055565"><ele>471.0</ele><time>2026-04-24T13:44:49.994Z</time></trkpt><trkpt lat="45.891266817617144" lon="11.064686837505487"><ele>471.00000000000006</ele><time>2026-04-24T13:44:53.994Z</time></trkpt><trkpt lat="45.891276281071704" lon="11.064777606709134"><ele>471.00000000000006</ele><time>2026-04-24T13:45:08.994Z</time></trkpt><trkpt lat="45.89134381790665" lon="11.064823976130008"><ele>471.0</ele><time>2026-04-24T13:51:51.989Z</time></trkpt><trkpt lat="45.891379037407845" lon="11.064910471294915"><ele>471.0</ele><time>2026-04-24T13:51:54.989Z</time></trkpt><trkpt lat="45.89140266589065" lon="11.065091177981405"><ele>471.0</ele><time>2026-04-24T13:51:56.989Z</time></trkpt><trkpt lat="45.891381360410286" lon="11.065199166698628"><ele>471.0</ele><time>2026-04-24T13:51:57.989Z</time></trkpt><trkpt lat="45.891297564833636" lon="11.065296802533918"><ele>471.0</ele><time>2026-04-24T13:51:59.989Z</time></trkpt><trkpt lat="45.89127604956427" lon="11.06538730225715"><ele>471.0</ele><time>2026-04-24T13:52:00.989Z</time></trkpt><trkpt lat="45.89128905149992" lon="11.065532824222233"><ele>471.0</ele><time>2026-04-24T13:52:01.989Z</time></trkpt><trkpt lat="45.89131054834058" lon="11.065619137456318"><ele>471.0</ele><time>2026-04-24T13:52:02.989Z</time></trkpt><trkpt lat="45.891324813624735" lon="11.065718849801167"><ele>471.0</ele><time>2026-04-24T13:52:03.989Z</time></trkpt><trkpt lat="45.891355892124324" lon="11.065898792821605"><ele>471.0</ele><time>2026-04-24T13:52:05.989Z</time></trkpt><trkpt lat="45.89139880268096" lon="11.066012291720229"><ele>470.28571428571433</ele><time>2026-04-24T13:52:06.989Z</time></trkpt><trkpt lat="45.89145220162539" lon="11.066101400826044"><ele>469.57142857142856</ele><time>2026-04-24T13:52:07.989Z</time></trkpt><trkpt lat="45.89148734909808" lon="11.066207940646711"><ele>468.8571428571429</ele><time>2026-04-24T13:52:08.989Z</time></trkpt><trkpt lat="45.89153058189224" lon="11.066288843111643"><ele>468.14285714285717</ele><time>2026-04-24T13:52:09.989Z</time></trkpt><trkpt lat="45.8915744626634" lon="11.066361853706262"><ele>467.42857142857144</ele><time>2026-04-24T13:52:10.989Z</time></trkpt><trkpt lat="45.89163330144815" lon="11.066410231365044"><ele>466.7142857142857</ele><time>2026-04-24T13:52:11.989Z</time></trkpt><trkpt lat="45.89169451512377" lon="11.066469495088073"><ele>466.0</ele><time>2026-04-24T13:52:12.989Z</time></trkpt><trkpt lat="45.89177090164737" lon="11.066518272480696"><ele>465.33333333333337</ele><time>2026-04-24T13:52:13.989Z</time></trkpt><trkpt lat="45.89183299277566" lon="11.066587079604991"><ele>464.6666666666667</ele><time>2026-04-24T13:52:14.989Z</time></trkpt><trkpt lat="45.89190168492064" lon="11.066645133562782"><ele>464.0</ele><time>2026-04-24T13:52:15.989Z</time></trkpt><trkpt lat="45.89197233665791" lon="11.066660379355696"><ele>463.33333333333337</ele><time>2026-04-24T13:52:16.989Z</time></trkpt><trkpt lat="45.89192057181736" lon="11.066716461874035"><ele>462.6666666666667</ele><time>2026-04-24T13:52:19.988Z</time></trkpt><trkpt lat="45.8919876411325" lon="11.066774843101909"><ele>462.0</ele><time>2026-04-24T13:52:21.988Z</time></trkpt><trkpt lat="45.891920599718944" lon="11.067000696125445"><ele>462.0</ele><time>2026-04-24T13:52:25.988Z</time></trkpt><trkpt lat="45.89185204883123" lon="11.067092558930966"><ele>462.0</ele><time>2026-04-24T13:52:29.988Z</time></trkpt><trkpt lat="45.891818689683056" lon="11.06717588513573"><ele>462.0</ele><time>2026-04-24T13:52:31.988Z</time></trkpt><trkpt lat="45.89177396591254" lon="11.06727517573332"><ele>462.0</ele><time>2026-04-24T13:52:32.988Z</time></trkpt><trkpt lat="45.8917223377968" lon="11.067379850677113"><ele>462.0</ele><time>2026-04-24T13:52:33.988Z</time></trkpt><trkpt lat="45.89168266288836" lon="11.06746092527045"><ele>462.0</ele><time>2026-04-24T13:52:34.988Z</time></trkpt><trkpt lat="45.89161012644896" lon="11.067498595208887"><ele>464.1666666666667</ele><time>2026-04-24T13:52:35.988Z</time></trkpt><trkpt lat="45.89153647124911" lon="11.067508314954365"><ele>466.33333333333337</ele><time>2026-04-24T13:52:36.988Z</time></trkpt><trkpt lat="45.89145969829153" lon="11.06749179173399"><ele>468.5</ele><time>2026-04-24T13:52:37.988Z</time></trkpt><trkpt lat="45.89138185143673" lon="11.067502349785789"><ele>470.6666666666667</ele><time>2026-04-24T13:52:38.988Z</time></trkpt><trkpt lat="45.891312548349916" lon="11.067501887985562"><ele>472.83333333333337</ele><time>2026-04-24T13:52:39.988Z</time></trkpt><trkpt lat="45.89123771025318" lon="11.067482485184946"><ele>475.0</ele><time>2026-04-24T13:52:40.988Z</time></trkpt><trkpt lat="45.89115094107694" lon="11.067478347120765"><ele>475.0</ele><time>2026-04-24T13:52:42.988Z</time></trkpt><trkpt lat="45.89115008384792" lon="11.067613801967367"><ele>475.0</ele><time>2026-04-24T13:52:45.988Z</time></trkpt><trkpt lat="45.89114712574555" lon="11.067793791087377"><ele>475.0</ele><time>2026-04-24T13:52:47.988Z</time></trkpt><trkpt lat="45.891140412796894" lon="11.067928460241305"><ele>475.0</ele><time>2026-04-24T13:52:48.988Z</time></trkpt><trkpt lat="45.89114090883319" lon="11.068058233500267"><ele>475.0</ele><time>2026-04-24T13:52:49.988Z</time></trkpt><trkpt lat="45.89115679529172" lon="11.068177244531709"><ele>477.50000000000006</ele><time>2026-04-24T13:52:50.988Z</time></trkpt><trkpt lat="45.89116556189235" lon="11.068287180541088"><ele>480.0</ele><time>2026-04-24T13:52:51.988Z</time></trkpt><trkpt lat="45.891175948112014" lon="11.06839563161757"><ele>482.5</ele><time>2026-04-24T13:52:52.988Z</time></trkpt><trkpt lat="45.89117581072747" lon="11.068504064768426"><ele>485.0</ele><time>2026-04-24T13:52:53.988Z</time></trkpt><trkpt lat="45.89117889345966" lon="11.068623066079056"><ele>487.50000000000006</ele><time>2026-04-24T13:52:54.988Z</time></trkpt><trkpt lat="45.89118542025065" lon="11.068716311302303"><ele>490.0</ele><time>2026-04-24T13:52:55.988Z</time></trkpt><trkpt lat="45.891109196614885" lon="11.068737361612937"><ele>490.0</ele><time>2026-04-24T13:52:57.988Z</time></trkpt><trkpt lat="45.89102421732382" lon="11.068741927034266"><ele>490.0</ele><time>2026-04-24T13:52:59.988Z</time></trkpt><trkpt lat="45.890913446604536" lon="11.068732881247259"><ele>490.0</ele><time>2026-04-24T13:53:01.988Z</time></trkpt><trkpt lat="45.890822874923046" lon="11.068744065272249"><ele>490.0</ele><time>2026-04-24T13:53:03.988Z</time></trkpt><trkpt lat="45.89074881441326" lon="11.068723628273064"><ele>490.0</ele><time>2026-04-24T13:53:05.988Z</time></trkpt><trkpt lat="45.89065289151832" lon="11.068676311729062"><ele>493.0</ele><time>2026-04-24T13:53:07.988Z</time></trkpt><trkpt lat="45.89055139178282" lon="11.068691148623504"><ele>496.0</ele><time>2026-04-24T13:53:09.988Z</time></trkpt><trkpt lat="45.89047690130551" lon="11.068683533954017"><ele>499.0</ele><time>2026-04-24T13:53:10.988Z</time></trkpt><trkpt lat="45.89038552286292" lon="11.068731224886188"><ele>502.0</ele><time>2026-04-24T13:53:12.989Z</time></trkpt><trkpt lat="45.89028012556354" lon="11.068743830204316"><ele>505.0</ele><time>2026-04-24T13:53:14.989Z</time></trkpt><trkpt lat="45.89018768954336" lon="11.06878156164396"><ele>505.0</ele><time>2026-04-24T13:53:16.989Z</time></trkpt><trkpt lat="45.89012158188166" lon="11.068847088753401"><ele>505.0</ele><time>2026-04-24T13:53:17.989Z</time></trkpt><trkpt lat="45.89006796303105" lon="11.068895091500112"><ele>505.0</ele><time>2026-04-24T13:53:18.989Z</time></trkpt><trkpt lat="45.889987054409865" lon="11.068919065044083"><ele>505.0</ele><time>2026-04-24T13:53:19.989Z</time></trkpt><trkpt lat="45.88986302314493" lon="11.068915464841908"><ele>505.0</ele><time>2026-04-24T13:53:20.989Z</time></trkpt><trkpt lat="45.8897296182926" lon="11.068883935906069"><ele>508.8</ele><time>2026-04-24T13:53:21.988Z</time></trkpt><trkpt lat="45.889623638572516" lon="11.068857628978579"><ele>512.6</ele><time>2026-04-24T13:53:22.988Z</time></trkpt><trkpt lat="45.88950913084529" lon="11.068840560353495"><ele>516.4</ele><time>2026-04-24T13:53:23.989Z</time></trkpt><trkpt lat="45.889423768806324" lon="11.068784368502563"><ele>520.2</ele><time>2026-04-24T13:53:24.989Z</time></trkpt><trkpt lat="45.88934235327303" lon="11.068751346298063"><ele>524.0</ele><time>2026-04-24T13:53:25.989Z</time></trkpt><trkpt lat="45.889277094117375" lon="11.068751596345153"><ele>527.1666666666666</ele><time>2026-04-24T13:53:26.989Z</time></trkpt><trkpt lat="45.88919317837235" lon="11.06878902743517"><ele>530.3333333333333</ele><time>2026-04-24T13:53:27.988Z</time></trkpt><trkpt lat="45.88911172053959" lon="11.068801431354403"><ele>533.5</ele><time>2026-04-24T13:53:28.988Z</time></trkpt><trkpt lat="45.88905387547138" lon="11.068759260452534"><ele>536.6666666666666</ele><time>2026-04-24T13:53:29.989Z</time></trkpt><trkpt lat="45.88898345799991" lon="11.068704692737885"><ele>539.8333333333334</ele><time>2026-04-24T13:53:30.989Z</time></trkpt><trkpt lat="45.88888564224943" lon="11.068685598215193"><ele>543.0</ele><time>2026-04-24T13:53:31.989Z</time></trkpt><trkpt lat="45.88877338598452" lon="11.068672108384396"><ele>543.0</ele><time>2026-04-24T13:53:32.989Z</time></trkpt><trkpt lat="45.888647161749226" lon="11.068618661680615"><ele>543.0</ele><time>2026-04-24T13:53:33.989Z</time></trkpt><trkpt lat="45.888548373942484" lon="11.068567691111275"><ele>543.0</ele><time>2026-04-24T13:53:34.989Z</time></trkpt><trkpt lat="45.88847615338408" lon="11.068564013893903"><ele>543.0</ele><time>2026-04-24T13:53:35.989Z</time></trkpt><trkpt lat="45.88839441738824" lon="11.068578137405662"><ele>543.0</ele><time>2026-04-24T13:53:36.989Z</time></trkpt><trkpt lat="45.88826374331056" lon="11.068705299201026"><ele>544.8</ele><time>2026-04-24T13:53:38.989Z</time></trkpt><trkpt lat="45.88818658504191" lon="11.068813146769141"><ele>546.5999999999999</ele><time>2026-04-24T13:53:39.989Z</time></trkpt><trkpt lat="45.888117772851565" lon="11.068928753403966"><ele>548.4000000000001</ele><time>2026-04-24T13:53:40.989Z</time></trkpt><trkpt lat="45.8880553135269" lon="11.0690254547053"><ele>550.2</ele><time>2026-04-24T13:53:41.989Z</time></trkpt><trkpt lat="45.88796708519625" lon="11.069128433764352"><ele>552.0</ele><time>2026-04-24T13:53:42.989Z</time></trkpt><trkpt lat="45.88791086816703" lon="11.069185257758862"><ele>552.6</ele><time>2026-04-24T13:53:43.989Z</time></trkpt><trkpt lat="45.88783290093612" lon="11.06921241842809"><ele>553.2</ele><time>2026-04-24T13:53:44.989Z</time></trkpt><trkpt lat="45.88773792299694" lon="11.069250268695013"><ele>553.8</ele><time>2026-04-24T13:53:45.989Z</time></trkpt><trkpt lat="45.88768793949717" lon="11.069318503929823"><ele>554.4</ele><time>2026-04-24T13:53:46.989Z</time></trkpt><trkpt lat="45.887615214977615" lon="11.069475275605257"><ele>555.0</ele><time>2026-04-24T13:53:48.989Z</time></trkpt><trkpt lat="45.88762297751793" lon="11.069664132994488"><ele>555.0</ele><time>2026-04-24T13:53:50.989Z</time></trkpt><trkpt lat="45.887643323586495" lon="11.069795170501019"><ele>555.0</ele><time>2026-04-24T13:53:51.989Z</time></trkpt><trkpt lat="45.88765384036484" lon="11.069889764105014"><ele>555.0</ele><time>2026-04-24T13:53:52.989Z</time></trkpt><trkpt lat="45.88763378139487" lon="11.069981160216972"><ele>555.0</ele><time>2026-04-24T13:53:54.989Z</time></trkpt><trkpt lat="45.887617333185304" lon="11.070098396560502"><ele>555.0</ele><time>2026-04-24T13:53:56.989Z</time></trkpt><trkpt lat="45.88761934788265" lon="11.07022104934166"><ele>555.0</ele><time>2026-04-24T13:53:58.989Z</time></trkpt><trkpt lat="45.88762642232803" lon="11.070342629090456"><ele>553.0</ele><time>2026-04-24T13:54:00.988Z</time></trkpt><trkpt lat="45.88761552357489" lon="11.070508370927909"><ele>551.0</ele><time>2026-04-24T13:54:02.988Z</time></trkpt><trkpt lat="45.887614017271716" lon="11.070621747572343"><ele>549.0</ele><time>2026-04-24T13:54:03.988Z</time></trkpt><trkpt lat="45.88759579647783" lon="11.070737338047667"><ele>547.0</ele><time>2026-04-24T13:54:05.988Z</time></trkpt><trkpt lat="45.88754620558572" lon="11.070797222077838"><ele>545.0</ele><time>2026-04-24T13:54:07.988Z</time></trkpt><trkpt lat="45.88755276822332" lon="11.070693243130703"><ele>543.0</ele><time>2026-04-24T13:54:11.988Z</time></trkpt><trkpt lat="45.88755378941948" lon="11.070583008312612"><ele>541.1666666666666</ele><time>2026-04-24T13:54:14.988Z</time></trkpt><trkpt lat="45.8875085103147" lon="11.070519016424951"><ele>539.3333333333334</ele><time>2026-04-24T13:54:15.988Z</time></trkpt><trkpt lat="45.887486892052436" lon="11.070397070131722"><ele>537.5</ele><time>2026-04-24T13:54:17.988Z</time></trkpt><trkpt lat="45.887471588326974" lon="11.070283372352767"><ele>535.6666666666667</ele><time>2026-04-24T13:54:19.988Z</time></trkpt><trkpt lat="45.88742889857817" lon="11.070206661716199"><ele>533.8333333333334</ele><time>2026-04-24T13:54:21.988Z</time></trkpt><trkpt lat="45.88735017417406" lon="11.070268506901765"><ele>532.0</ele><time>2026-04-24T13:54:23.988Z</time></trkpt><trkpt lat="45.88729051585499" lon="11.070362373153666"><ele>532.0</ele><time>2026-04-24T13:54:25.988Z</time></trkpt><trkpt lat="45.88716762006427" lon="11.07045860520034"><ele>532.0</ele><time>2026-04-24T13:54:27.988Z</time></trkpt><trkpt lat="45.88703811032021" lon="11.070453354761728"><ele>532.0</ele><time>2026-04-24T13:54:29.988Z</time></trkpt><trkpt lat="45.886960344574504" lon="11.070423889481251"><ele>532.0</ele><time>2026-04-24T13:54:30.988Z</time></trkpt><trkpt lat="45.886901487533855" lon="11.07038494095198"><ele>532.0</ele><time>2026-04-24T13:54:31.988Z</time></trkpt><trkpt lat="45.886847800668505" lon="11.0703128511244"><ele>532.0</ele><time>2026-04-24T13:54:33.988Z</time></trkpt><trkpt lat="45.886854369488034" lon="11.070178744204018"><ele>532.0</ele><time>2026-04-24T13:54:36.988Z</time></trkpt><trkpt lat="45.88689101976491" lon="11.07001464195082"><ele>532.0</ele><time>2026-04-24T13:54:38.988Z</time></trkpt><trkpt lat="45.88690053685192" lon="11.069811322547617"><ele>532.0</ele><time>2026-04-24T13:54:40.988Z</time></trkpt><trkpt lat="45.88684425946227" lon="11.069647739410094"><ele>531.0</ele><time>2026-04-24T13:54:42.988Z</time></trkpt><trkpt lat="45.88679828129912" lon="11.069577953194377"><ele>530.0</ele><time>2026-04-24T13:54:43.988Z</time></trkpt><trkpt lat="45.88673772539851" lon="11.069518268470532"><ele>529.0</ele><time>2026-04-24T13:54:44.988Z</time></trkpt><trkpt lat="45.88665001092157" lon="11.069454164342968"><ele>528.0</ele><time>2026-04-24T13:54:46.988Z</time></trkpt><trkpt lat="45.88658901104601" lon="11.069497705005105"><ele>527.0</ele><time>2026-04-24T13:54:49.988Z</time></trkpt><trkpt lat="45.886506697902" lon="11.069532294270429"><ele>526.0</ele><time>2026-04-24T13:54:51.988Z</time></trkpt><trkpt lat="45.886421811700814" lon="11.069597936680461"><ele>519.5</ele><time>2026-04-24T13:54:54.988Z</time></trkpt><trkpt lat="45.88635189580272" lon="11.069690408749098"><ele>513.0</ele><time>2026-04-24T13:54:56.988Z</time></trkpt><trkpt lat="45.88628839060948" lon="11.069789567558095"><ele>506.5</ele><time>2026-04-24T13:54:58.988Z</time></trkpt><trkpt lat="45.88623756435565" lon="11.069850633446592"><ele>500.0</ele><time>2026-04-24T13:55:00.988Z</time></trkpt><trkpt lat="45.88616620847686" lon="11.069930268168937"><ele>493.50000000000006</ele><time>2026-04-24T13:55:02.988Z</time></trkpt><trkpt lat="45.88610206400047" lon="11.069974347377187"><ele>487.0</ele><time>2026-04-24T13:55:04.988Z</time></trkpt><trkpt lat="45.88603521390785" lon="11.07006184420376"><ele>487.0</ele><time>2026-04-24T13:55:06.988Z</time></trkpt><trkpt lat="45.88595831868831" lon="11.070093239890031"><ele>487.00000000000006</ele><time>2026-04-24T13:55:08.988Z</time></trkpt><trkpt lat="45.88588508672616" lon="11.07016866521598"><ele>487.00000000000006</ele><time>2026-04-24T13:55:10.988Z</time></trkpt><trkpt lat="45.8857937193751" lon="11.070241448921786"><ele>487.0</ele><time>2026-04-24T13:55:12.988Z</time></trkpt><trkpt lat="45.885684858610766" lon="11.070326829479322"><ele>487.0</ele><time>2026-04-24T13:55:14.988Z</time></trkpt><trkpt lat="45.88558166773638" lon="11.070431333503112"><ele>482.83333333333337</ele><time>2026-04-24T13:55:16.988Z</time></trkpt><trkpt lat="45.88549692056354" lon="11.070503229672703"><ele>478.6666666666667</ele><time>2026-04-24T13:55:18.988Z</time></trkpt><trkpt lat="45.8854268995908" lon="11.070576924050163"><ele>474.5</ele><time>2026-04-24T13:55:20.988Z</time></trkpt><trkpt lat="45.885325120303094" lon="11.07066600577541"><ele>470.33333333333337</ele><time>2026-04-24T13:55:22.989Z</time></trkpt><trkpt lat="45.885266339890435" lon="11.070698965883993"><ele>466.1666666666667</ele><time>2026-04-24T13:55:23.988Z</time></trkpt><trkpt lat="45.88520266272425" lon="11.070705056997934"><ele>462.0</ele><time>2026-04-24T13:55:24.988Z</time></trkpt><trkpt lat="45.88512576065525" lon="11.070731333755514"><ele>458.3333333333333</ele><time>2026-04-24T13:55:25.988Z</time></trkpt><trkpt lat="45.88504364586909" lon="11.070736737961726"><ele>454.66666666666663</ele><time>2026-04-24T13:55:26.988Z</time></trkpt><trkpt lat="45.88494267691673" lon="11.070754284641382"><ele>451.0</ele><time>2026-04-24T13:55:27.988Z</time></trkpt><trkpt lat="45.88487086674645" lon="11.070756921472654"><ele>447.3333333333333</ele><time>2026-04-24T13:55:28.988Z</time></trkpt><trkpt lat="45.8847922881287" lon="11.07074162772775"><ele>443.66666666666663</ele><time>2026-04-24T13:55:29.988Z</time></trkpt><trkpt lat="45.8847161013351" lon="11.07072389116087"><ele>440.0</ele><time>2026-04-24T13:55:30.988Z</time></trkpt><trkpt lat="45.88459259492649" lon="11.070671343376176"><ele>440.0</ele><time>2026-04-24T13:55:32.988Z</time></trkpt><trkpt lat="45.88450550572074" lon="11.070646855523139"><ele>440.0</ele><time>2026-04-24T13:55:33.988Z</time></trkpt><trkpt lat="45.8844034702927" lon="11.070601649769108"><ele>440.0</ele><time>2026-04-24T13:55:35.988Z</time></trkpt><trkpt lat="45.884343966249155" lon="11.070532062906143"><ele>440.0</ele><time>2026-04-24T13:55:38.988Z</time></trkpt><trkpt lat="45.88427407515276" lon="11.070473453429702"><ele>440.0</ele><time>2026-04-24T13:55:41.988Z</time></trkpt><trkpt lat="45.88429774518819" lon="11.070335996043173"><ele>435.66666666666663</ele><time>2026-04-24T13:55:43.988Z</time></trkpt><trkpt lat="45.884221051213906" lon="11.07026423037164"><ele>431.3333333333333</ele><time>2026-04-24T13:55:45.988Z</time></trkpt><trkpt lat="45.88414809464098" lon="11.070276274234223"><ele>427.0</ele><time>2026-04-24T13:55:46.988Z</time></trkpt><trkpt lat="45.884069967514144" lon="11.07027708541421"><ele>422.66666666666663</ele><time>2026-04-24T13:55:47.988Z</time></trkpt><trkpt lat="45.8839936995686" lon="11.070287117927714"><ele>418.3333333333333</ele><time>2026-04-24T13:55:48.988Z</time></trkpt><trkpt lat="45.8839028311247" lon="11.070303040715283"><ele>414.0</ele><time>2026-04-24T13:55:49.988Z</time></trkpt><trkpt lat="45.883803542276844" lon="11.070328079481751"><ele>414.0</ele><time>2026-04-24T13:55:50.988Z</time></trkpt><trkpt lat="45.883731462220986" lon="11.07030322043004"><ele>414.0</ele><time>2026-04-24T13:55:51.988Z</time></trkpt><trkpt lat="45.88363530997089" lon="11.0703574413968"><ele>414.0</ele><time>2026-04-24T13:55:52.988Z</time></trkpt><trkpt lat="45.883507628930545" lon="11.07031082491469"><ele>414.0</ele><time>2026-04-24T13:55:53.988Z</time></trkpt><trkpt lat="45.88338770392203" lon="11.070262559282089"><ele>414.0</ele><time>2026-04-24T13:55:54.988Z</time></trkpt><trkpt lat="45.88326091861645" lon="11.070223324753867"><ele>415.2</ele><time>2026-04-24T13:55:55.988Z</time></trkpt><trkpt lat="45.88317089795501" lon="11.070204339584908"><ele>416.4</ele><time>2026-04-24T13:55:56.988Z</time></trkpt><trkpt lat="45.8830907932922" lon="11.070177641541093"><ele>417.6</ele><time>2026-04-24T13:55:57.988Z</time></trkpt><trkpt lat="45.882998338001464" lon="11.070149251325946"><ele>418.8</ele><time>2026-04-24T13:55:58.988Z</time></trkpt><trkpt lat="45.88290285220916" lon="11.070116363624356"><ele>420.0</ele><time>2026-04-24T13:55:59.988Z</time></trkpt><trkpt lat="45.882802604175836" lon="11.070089117476194"><ele>420.0</ele><time>2026-04-24T13:56:00.988Z</time></trkpt><trkpt lat="45.88271248951538" lon="11.070069357015102"><ele>420.0</ele><time>2026-04-24T13:56:01.988Z</time></trkpt><trkpt lat="45.8826309765003" lon="11.070046354478569"><ele>420.0</ele><time>2026-04-24T13:56:02.988Z</time></trkpt><trkpt lat="45.88253801017485" lon="11.070014584878601"><ele>420.0</ele><time>2026-04-24T13:56:03.988Z</time></trkpt><trkpt lat="45.88243848070667" lon="11.069985605378028"><ele>420.0</ele><time>2026-04-24T13:56:04.988Z</time></trkpt><trkpt lat="45.882333214026566" lon="11.06995026526268"><ele>418.2</ele><time>2026-04-24T13:56:05.988Z</time></trkpt><trkpt lat="45.88223067807712" lon="11.069895553838073"><ele>416.4</ele><time>2026-04-24T13:56:06.988Z</time></trkpt><trkpt lat="45.882140154227386" lon="11.06984674820982"><ele>414.6</ele><time>2026-04-24T13:56:07.988Z</time></trkpt><trkpt lat="45.88206224530607" lon="11.069791085203237"><ele>412.8</ele><time>2026-04-24T13:56:08.988Z</time></trkpt><trkpt lat="45.88199389543982" lon="11.069760487440067"><ele>411.0</ele><time>2026-04-24T13:56:09.988Z</time></trkpt><trkpt lat="45.88185347227576" lon="11.069790219409262"><ele>411.0</ele><time>2026-04-24T13:56:11.988Z</time></trkpt><trkpt lat="45.88177473702166" lon="11.069847648047801"><ele>411.0</ele><time>2026-04-24T13:56:12.988Z</time></trkpt><trkpt lat="45.88170412293486" lon="11.069862284500715"><ele>411.0</ele><time>2026-04-24T13:56:13.988Z</time></trkpt><trkpt lat="45.88164404288333" lon="11.069794240162711"><ele>411.0</ele><time>2026-04-24T13:56:14.988Z</time></trkpt><trkpt lat="45.881571749748154" lon="11.06975287863151"><ele>411.0</ele><time>2026-04-24T13:56:15.988Z</time></trkpt><trkpt lat="45.88147755745623" lon="11.069743200513328"><ele>411.0</ele><time>2026-04-24T13:56:16.988Z</time></trkpt><trkpt lat="45.88139336461747" lon="11.06974857642901"><ele>412.0</ele><time>2026-04-24T13:56:17.988Z</time></trkpt><trkpt lat="45.88129747960631" lon="11.06981055364932"><ele>413.0</ele><time>2026-04-24T13:56:18.988Z</time></trkpt><trkpt lat="45.88119424799597" lon="11.069870692872861"><ele>414.0</ele><time>2026-04-24T13:56:19.988Z</time></trkpt><trkpt lat="45.881114065801086" lon="11.069951766849755"><ele>415.0</ele><time>2026-04-24T13:56:20.988Z</time></trkpt><trkpt lat="45.88104451437734" lon="11.07000795295895"><ele>416.0</ele><time>2026-04-24T13:56:21.987Z</time></trkpt><trkpt lat="45.880987845105984" lon="11.070052718475045"><ele>416.66666666666663</ele><time>2026-04-24T13:56:22.987Z</time></trkpt><trkpt lat="45.88090042535685" lon="11.070094201431697"><ele>417.3333333333333</ele><time>2026-04-24T13:56:24.987Z</time></trkpt><trkpt lat="45.88081991580589" lon="11.070102621217625"><ele>418.0</ele><time>2026-04-24T13:56:26.987Z</time></trkpt><trkpt lat="45.88072780553653" lon="11.070095581248935"><ele>418.66666666666663</ele><time>2026-04-24T13:56:28.987Z</time></trkpt><trkpt lat="45.880657683275004" lon="11.070088973583578"><ele>419.3333333333333</ele><time>2026-04-24T13:56:30.987Z</time></trkpt><trkpt lat="45.88056461145126" lon="11.070082260870073"><ele>420.0</ele><time>2026-04-24T13:56:32.987Z</time></trkpt><trkpt lat="45.88048503385059" lon="11.070075765521963"><ele>420.0</ele><time>2026-04-24T13:56:34.987Z</time></trkpt><trkpt lat="45.88045376984419" lon="11.070221581058137"><ele>420.0</ele><time>2026-04-24T13:56:35.987Z</time></trkpt><trkpt lat="45.880431407559286" lon="11.0703547355083"><ele>420.0</ele><time>2026-04-24T13:56:37.987Z</time></trkpt><trkpt lat="45.88038183086143" lon="11.070494425571734"><ele>420.0</ele><time>2026-04-24T13:56:39.987Z</time></trkpt><trkpt lat="45.880327421012595" lon="11.070633924042495"><ele>420.0</ele><time>2026-04-24T13:56:41.987Z</time></trkpt><trkpt lat="45.88027698175081" lon="11.070791507281013"><ele>422.0</ele><time>2026-04-24T13:56:43.987Z</time></trkpt><trkpt lat="45.88028367020042" lon="11.070885552728708"><ele>424.0</ele><time>2026-04-24T13:56:44.987Z</time></trkpt><trkpt lat="45.88029252858166" lon="11.071011221680738"><ele>426.0</ele><time>2026-04-24T13:56:45.987Z</time></trkpt><trkpt lat="45.8802759988114" lon="11.07115200803899"><ele>428.0</ele><time>2026-04-24T13:56:46.987Z</time></trkpt><trkpt lat="45.880252291631315" lon="11.071275252098593"><ele>430.0</ele><time>2026-04-24T13:56:47.987Z</time></trkpt><trkpt lat="45.880234062078806" lon="11.071405780056415"><ele>432.0</ele><time>2026-04-24T13:56:48.987Z</time></trkpt><trkpt lat="45.880207469732795" lon="11.071551847770229"><ele>432.8</ele><time>2026-04-24T13:56:49.987Z</time></trkpt><trkpt lat="45.8801592492478" lon="11.071685928307868"><ele>433.6</ele><time>2026-04-24T13:56:50.987Z</time></trkpt><trkpt lat="45.880097357153275" lon="11.071805837725089"><ele>434.40000000000003</ele><time>2026-04-24T13:56:51.987Z</time></trkpt><trkpt lat="45.880035382554794" lon="11.071924631799243"><ele>435.20000000000005</ele><time>2026-04-24T13:56:52.987Z</time></trkpt><trkpt lat="45.87995934490535" lon="11.072028097372753"><ele>436.0</ele><time>2026-04-24T13:56:53.987Z</time></trkpt><trkpt lat="45.879881610345535" lon="11.072123106252542"><ele>429.4</ele><time>2026-04-24T13:56:54.987Z</time></trkpt><trkpt lat="45.879799003270136" lon="11.072203079110148"><ele>422.8</ele><time>2026-04-24T13:56:55.987Z</time></trkpt><trkpt lat="45.87971153448221" lon="11.072275081625829"><ele>416.2</ele><time>2026-04-24T13:56:56.987Z</time></trkpt><trkpt lat="45.879625894122576" lon="11.072331660904872"><ele>409.59999999999997</ele><time>2026-04-24T13:56:57.987Z</time></trkpt><trkpt lat="45.87954839543458" lon="11.072376398920756"><ele>403.0</ele><time>2026-04-24T13:56:58.987Z</time></trkpt><trkpt lat="45.879464550076214" lon="11.072410776948669"><ele>401.33333333333337</ele><time>2026-04-24T13:56:59.987Z</time></trkpt><trkpt lat="45.87938456046414" lon="11.07249178079179"><ele>399.6666666666667</ele><time>2026-04-24T13:57:00.987Z</time></trkpt><trkpt lat="45.87932761313285" lon="11.072562381370327"><ele>398.0</ele><time>2026-04-24T13:57:01.987Z</time></trkpt><trkpt lat="45.879243616092054" lon="11.072580782508275"><ele>396.33333333333337</ele><time>2026-04-24T13:57:03.987Z</time></trkpt><trkpt lat="45.879194626447" lon="11.072511417533311"><ele>394.6666666666667</ele><time>2026-04-24T13:57:05.987Z</time></trkpt><trkpt lat="45.87925077524794" lon="11.072443474198396"><ele>393.0</ele><time>2026-04-24T13:57:08.987Z</time></trkpt><trkpt lat="45.87918902775141" lon="11.072385638573001"><ele>393.0</ele><time>2026-04-24T13:57:10.987Z</time></trkpt><trkpt lat="45.879061198034506" lon="11.072364641349703"><ele>393.0</ele><time>2026-04-24T13:57:12.987Z</time></trkpt><trkpt lat="45.87896628659645" lon="11.072389692027112"><ele>393.0</ele><time>2026-04-24T13:57:14.987Z</time></trkpt><trkpt lat="45.87891603084" lon="11.072448315509577"><ele>393.0</ele><time>2026-04-24T13:57:15.987Z</time></trkpt><trkpt lat="45.87885873316812" lon="11.07258995101168"><ele>393.0</ele><time>2026-04-24T13:57:17.987Z</time></trkpt><trkpt lat="45.87885836643322" lon="11.07273006253176"><ele>393.00000000000006</ele><time>2026-04-24T13:57:18.987Z</time></trkpt><trkpt lat="45.8788308150311" lon="11.072815193168228"><ele>393.0</ele><time>2026-04-24T13:57:19.987Z</time></trkpt><trkpt lat="45.87880189040659" lon="11.072910665653279"><ele>393.0</ele><time>2026-04-24T13:57:20.987Z</time></trkpt><trkpt lat="45.87877405360117" lon="11.073025987492118"><ele>393.0</ele><time>2026-04-24T13:57:21.987Z</time></trkpt><trkpt lat="45.87872909646239" lon="11.073107866063754"><ele>393.0</ele><time>2026-04-24T13:57:22.987Z</time></trkpt><trkpt lat="45.87869908212983" lon="11.073191619895839"><ele>393.00000000000006</ele><time>2026-04-24T13:57:23.988Z</time></trkpt><trkpt lat="45.87867039686658" lon="11.07327964728607"><ele>393.0</ele><time>2026-04-24T13:57:24.988Z</time></trkpt><trkpt lat="45.87862453594815" lon="11.073391141464082"><ele>397.0</ele><time>2026-04-24T13:57:25.988Z</time></trkpt><trkpt lat="45.87856257628939" lon="11.073485019502806"><ele>401.0</ele><time>2026-04-24T13:57:26.988Z</time></trkpt><trkpt lat="45.87850009777234" lon="11.07360352870734"><ele>405.0</ele><time>2026-04-24T13:57:27.988Z</time></trkpt><trkpt lat="45.878489039165956" lon="11.073698660013182"><ele>409.0</ele><time>2026-04-24T13:57:28.988Z</time></trkpt><trkpt lat="45.87846034159608" lon="11.073783805163906"><ele>413.0</ele><time>2026-04-24T13:57:29.987Z</time></trkpt><trkpt lat="45.878452503584576" lon="11.073940031786103"><ele>417.0</ele><time>2026-04-24T13:57:30.987Z</time></trkpt><trkpt lat="45.87841759377963" lon="11.07408333835575"><ele>410.40000000000003</ele><time>2026-04-24T13:57:31.988Z</time></trkpt><trkpt lat="45.87836980703996" lon="11.074223650777338"><ele>403.8</ele><time>2026-04-24T13:57:32.988Z</time></trkpt><trkpt lat="45.87829341365752" lon="11.074324764913541"><ele>397.2</ele><time>2026-04-24T13:57:33.988Z</time></trkpt><trkpt lat="45.87820304758479" lon="11.074368479431932"><ele>390.6</ele><time>2026-04-24T13:57:34.988Z</time></trkpt><trkpt lat="45.87810990239666" lon="11.074398851716722"><ele>384.0</ele><time>2026-04-24T13:57:35.988Z</time></trkpt><trkpt lat="45.878010442153766" lon="11.074423915988618"><ele>384.0</ele><time>2026-04-24T13:57:36.988Z</time></trkpt><trkpt lat="45.87792506971206" lon="11.074476732220301"><ele>384.0</ele><time>2026-04-24T13:57:37.987Z</time></trkpt><trkpt lat="45.87786667915989" lon="11.074515708675328"><ele>384.0</ele><time>2026-04-24T13:57:38.987Z</time></trkpt><trkpt lat="45.87778702567875" lon="11.074608025310203"><ele>384.0</ele><time>2026-04-24T13:57:40.987Z</time></trkpt><trkpt lat="45.877761476198366" lon="11.074719436014076"><ele>384.0</ele><time>2026-04-24T13:57:41.987Z</time></trkpt><trkpt lat="45.877704268950616" lon="11.074799682235268"><ele>384.0</ele><time>2026-04-24T13:57:42.987Z</time></trkpt><trkpt lat="45.87765313601937" lon="11.074881335019835"><ele>383.5</ele><time>2026-04-24T13:57:43.987Z</time></trkpt><trkpt lat="45.87753725845988" lon="11.074955549575007"><ele>383.0</ele><time>2026-04-24T13:57:45.987Z</time></trkpt><trkpt lat="45.87748202465473" lon="11.075023447476294"><ele>382.5</ele><time>2026-04-24T13:57:46.987Z</time></trkpt><trkpt lat="45.87743440910453" lon="11.075119466522969"><ele>382.0</ele><time>2026-04-24T13:57:48.987Z</time></trkpt><trkpt lat="45.877489712656796" lon="11.075177700342138"><ele>381.5</ele><time>2026-04-24T13:57:51.987Z</time></trkpt><trkpt lat="45.877553715380714" lon="11.075182048982954"><ele>381.0</ele><time>2026-04-24T13:57:54.987Z</time></trkpt><trkpt lat="45.87765534998785" lon="11.075152471393373"><ele>381.0</ele><time>2026-04-24T13:57:58.987Z</time></trkpt><trkpt lat="45.87774109258642" lon="11.075151750436145"><ele>381.0</ele><time>2026-04-24T13:58:01.987Z</time></trkpt><trkpt lat="45.877788864211894" lon="11.075227856908704"><ele>381.0</ele><time>2026-04-24T13:58:03.987Z</time></trkpt><trkpt lat="45.877855587030986" lon="11.07528511136791"><ele>381.0</ele><time>2026-04-24T13:58:06.987Z</time></trkpt><trkpt lat="45.87790574033741" lon="11.075349183147523"><ele>381.0</ele><time>2026-04-24T13:58:14.987Z</time></trkpt><trkpt lat="45.87795031889258" lon="11.075482351438188"><ele>381.0</ele><time>2026-04-24T13:58:16.987Z</time></trkpt><trkpt lat="45.87800667986137" lon="11.075560552833203"><ele>381.0</ele><time>2026-04-24T13:58:17.987Z</time></trkpt><trkpt lat="45.87804799255825" lon="11.075642922761308"><ele>381.0</ele><time>2026-04-24T13:58:18.987Z</time></trkpt><trkpt lat="45.87812581773884" lon="11.075682782751315"><ele>381.0</ele><time>2026-04-24T13:58:19.987Z</time></trkpt><trkpt lat="45.87816979325496" lon="11.075812864691347"><ele>381.0</ele><time>2026-04-24T13:58:21.987Z</time></trkpt><trkpt lat="45.878197374494235" lon="11.075899623703695"><ele>381.0</ele><time>2026-04-24T13:58:22.987Z</time></trkpt><trkpt lat="45.87822400347739" lon="11.076003073810826"><ele>381.0</ele><time>2026-04-24T13:58:23.987Z</time></trkpt><trkpt lat="45.878246159118184" lon="11.076124288958024"><ele>377.20000000000005</ele><time>2026-04-24T13:58:24.987Z</time></trkpt><trkpt lat="45.878229259425375" lon="11.07625082949025"><ele>373.40000000000003</ele><time>2026-04-24T13:58:25.987Z</time></trkpt><trkpt lat="45.8781937059329" lon="11.076384810950731"><ele>369.6</ele><time>2026-04-24T13:58:26.987Z</time></trkpt><trkpt lat="45.87815829867231" lon="11.076511879995254"><ele>365.8</ele><time>2026-04-24T13:58:27.987Z</time></trkpt><trkpt lat="45.87810927418758" lon="11.076630269554121"><ele>362.0</ele><time>2026-04-24T13:58:28.987Z</time></trkpt><trkpt lat="45.878107851999225" lon="11.076735699063084"><ele>361.8</ele><time>2026-04-24T13:58:29.987Z</time></trkpt><trkpt lat="45.87815282449124" lon="11.076913040565149"><ele>361.6</ele><time>2026-04-24T13:58:31.987Z</time></trkpt><trkpt lat="45.87816650461102" lon="11.077046460147283"><ele>361.40000000000003</ele><time>2026-04-24T13:58:32.987Z</time></trkpt><trkpt lat="45.878151850406574" lon="11.077184762030258"><ele>361.20000000000005</ele><time>2026-04-24T13:58:33.987Z</time></trkpt><trkpt lat="45.87812728406543" lon="11.077347125292869"><ele>361.0</ele><time>2026-04-24T13:58:34.987Z</time></trkpt><trkpt lat="45.87809715067183" lon="11.077507946613379"><ele>366.25</ele><time>2026-04-24T13:58:35.987Z</time></trkpt><trkpt lat="45.87805032959477" lon="11.077669671218187"><ele>371.5</ele><time>2026-04-24T13:58:36.987Z</time></trkpt><trkpt lat="45.87800045691074" lon="11.077830978168885"><ele>376.75</ele><time>2026-04-24T13:58:37.987Z</time></trkpt><trkpt lat="45.87795709243434" lon="11.078007579210377"><ele>382.0</ele><time>2026-04-24T13:58:38.987Z</time></trkpt><trkpt lat="45.8778986804688" lon="11.078136355859785"><ele>387.40000000000003</ele><time>2026-04-24T13:58:39.987Z</time></trkpt><trkpt lat="45.87784046422192" lon="11.078286517116073"><ele>392.8</ele><time>2026-04-24T13:58:40.987Z</time></trkpt><trkpt lat="45.8777863592621" lon="11.0784103885175"><ele>398.2</ele><time>2026-04-24T13:58:41.987Z</time></trkpt><trkpt lat="45.87776216310539" lon="11.078523951480223"><ele>403.6</ele><time>2026-04-24T13:58:42.987Z</time></trkpt><trkpt lat="45.877755949608975" lon="11.078650509671295"><ele>409.0</ele><time>2026-04-24T13:58:43.987Z</time></trkpt><trkpt lat="45.87774187726222" lon="11.078803676371683"><ele>409.0</ele><time>2026-04-24T13:58:44.987Z</time></trkpt><trkpt lat="45.87773741405325" lon="11.07896224595386"><ele>409.0</ele><time>2026-04-24T13:58:45.987Z</time></trkpt><trkpt lat="45.877711999551984" lon="11.079090032306727"><ele>409.0</ele><time>2026-04-24T13:58:46.987Z</time></trkpt><trkpt lat="45.87767419271934" lon="11.079191716673263"><ele>409.0</ele><time>2026-04-24T13:58:47.987Z</time></trkpt><trkpt lat="45.87760680959529" lon="11.0792754842215"><ele>409.0</ele><time>2026-04-24T13:58:48.987Z</time></trkpt><trkpt lat="45.877533003531354" lon="11.07937752121873"><ele>402.0</ele><time>2026-04-24T13:58:49.986Z</time></trkpt><trkpt lat="45.87747013090375" lon="11.079523741939676"><ele>395.0</ele><time>2026-04-24T13:58:50.986Z</time></trkpt><trkpt lat="45.877421637927284" lon="11.07964900059228"><ele>388.0</ele><time>2026-04-24T13:58:51.986Z</time></trkpt><trkpt lat="45.87737001865336" lon="11.079759808448545"><ele>381.0</ele><time>2026-04-24T13:58:52.986Z</time></trkpt><trkpt lat="45.87734237317066" lon="11.079870155948402"><ele>374.0</ele><time>2026-04-24T13:58:53.986Z</time></trkpt><trkpt lat="45.877285619787855" lon="11.079989146478386"><ele>374.0</ele><time>2026-04-24T13:58:54.986Z</time></trkpt><trkpt lat="45.87720610103469" lon="11.080107063068299"><ele>374.0</ele><time>2026-04-24T13:58:55.986Z</time></trkpt><trkpt lat="45.87707781255531" lon="11.08014004728972"><ele>374.0</ele><time>2026-04-24T13:58:56.986Z</time></trkpt><trkpt lat="45.87700153295337" lon="11.080222037826749"><ele>374.0</ele><time>2026-04-24T13:58:57.986Z</time></trkpt><trkpt lat="45.876937742563975" lon="11.080306590281639"><ele>374.0</ele><time>2026-04-24T13:58:58.986Z</time></trkpt><trkpt lat="45.87694259439142" lon="11.080437913473157"><ele>374.0</ele><time>2026-04-24T13:58:59.986Z</time></trkpt><trkpt lat="45.87693287255752" lon="11.080540218437049"><ele>374.0</ele><time>2026-04-24T13:59:00.986Z</time></trkpt><trkpt lat="45.87692325124885" lon="11.08066281582411"><ele>374.0</ele><time>2026-04-24T13:59:01.986Z</time></trkpt><trkpt lat="45.87689708332415" lon="11.080796388080921"><ele>374.0</ele><time>2026-04-24T13:59:02.986Z</time></trkpt><trkpt lat="45.876877061091484" lon="11.080955740184704"><ele>374.0</ele><time>2026-04-24T13:59:03.986Z</time></trkpt><trkpt lat="45.87683380870761" lon="11.081091282402454"><ele>371.0</ele><time>2026-04-24T13:59:04.986Z</time></trkpt><trkpt lat="45.876804155293634" lon="11.081226249206997"><ele>368.0</ele><time>2026-04-24T13:59:05.986Z</time></trkpt><trkpt lat="45.87676603754461" lon="11.081370162239507"><ele>365.0</ele><time>2026-04-24T13:59:06.986Z</time></trkpt><trkpt lat="45.87674586908083" lon="11.081514654242822"><ele>362.0</ele><time>2026-04-24T13:59:07.986Z</time></trkpt><trkpt lat="45.876724904678504" lon="11.081659394608842"><ele>359.0</ele><time>2026-04-24T13:59:08.986Z</time></trkpt><trkpt lat="45.87673215082086" lon="11.08184410300427"><ele>359.0</ele><time>2026-04-24T13:59:09.986Z</time></trkpt><trkpt lat="45.87674152035049" lon="11.082016679961805"><ele>359.0</ele><time>2026-04-24T13:59:10.986Z</time></trkpt><trkpt lat="45.87674352300965" lon="11.082157806017696"><ele>359.0</ele><time>2026-04-24T13:59:11.986Z</time></trkpt><trkpt lat="45.876734279617956" lon="11.082290300069797"><ele>359.0</ele><time>2026-04-24T13:59:12.986Z</time></trkpt><trkpt lat="45.87667548410344" lon="11.082393736032222"><ele>359.0</ele><time>2026-04-24T13:59:13.986Z</time></trkpt><trkpt lat="45.8766020603271" lon="11.08247690950624"><ele>361.4</ele><time>2026-04-24T13:59:14.986Z</time></trkpt><trkpt lat="45.87649886357189" lon="11.082545215634283"><ele>363.79999999999995</ele><time>2026-04-24T13:59:15.986Z</time></trkpt><trkpt lat="45.87640801470974" lon="11.082629713892738"><ele>366.20000000000005</ele><time>2026-04-24T13:59:16.986Z</time></trkpt><trkpt lat="45.876337063446" lon="11.082701342804127"><ele>368.6</ele><time>2026-04-24T13:59:17.986Z</time></trkpt><trkpt lat="45.87628395794801" lon="11.082790080606586"><ele>371.0</ele><time>2026-04-24T13:59:18.986Z</time></trkpt><trkpt lat="45.87622480017718" lon="11.082874144773006"><ele>371.0</ele><time>2026-04-24T13:59:19.986Z</time></trkpt><trkpt lat="45.87621502697037" lon="11.083033441527007"><ele>371.0</ele><time>2026-04-24T13:59:20.986Z</time></trkpt><trkpt lat="45.876206139052414" lon="11.083191837663673"><ele>371.0</ele><time>2026-04-24T13:59:21.986Z</time></trkpt><trkpt lat="45.876154040576765" lon="11.08331967754485"><ele>371.0</ele><time>2026-04-24T13:59:22.986Z</time></trkpt><trkpt lat="45.87605288982131" lon="11.083341137864778"><ele>371.0</ele><time>2026-04-24T13:59:23.986Z</time></trkpt><trkpt lat="45.875972734732336" lon="11.083360508808763"><ele>366.6</ele><time>2026-04-24T13:59:24.986Z</time></trkpt><trkpt lat="45.87591892014275" lon="11.083425111259668"><ele>362.20000000000005</ele><time>2026-04-24T13:59:25.986Z</time></trkpt><trkpt lat="45.875849768642134" lon="11.083497121578947"><ele>357.79999999999995</ele><time>2026-04-24T13:59:26.986Z</time></trkpt><trkpt lat="45.87583807951815" lon="11.083685360621615"><ele>353.4</ele><time>2026-04-24T13:59:27.986Z</time></trkpt><trkpt lat="45.87584906098204" lon="11.083871524808444"><ele>349.0</ele><time>2026-04-24T13:59:28.986Z</time></trkpt><trkpt lat="45.875857029114165" lon="11.084037139204606"><ele>353.4</ele><time>2026-04-24T13:59:29.988Z</time></trkpt><trkpt lat="45.87584340733984" lon="11.084214624404703"><ele>357.79999999999995</ele><time>2026-04-24T13:59:30.988Z</time></trkpt><trkpt lat="45.875830960769676" lon="11.08435914945243"><ele>362.20000000000005</ele><time>2026-04-24T13:59:31.987Z</time></trkpt><trkpt lat="45.87578109507041" lon="11.084469779751924"><ele>366.6</ele><time>2026-04-24T13:59:32.987Z</time></trkpt><trkpt lat="45.87567279742122" lon="11.084489294783216"><ele>371.0</ele><time>2026-04-24T13:59:33.988Z</time></trkpt><trkpt lat="45.875597341167065" lon="11.084492785864548"><ele>371.0</ele><time>2026-04-24T13:59:34.988Z</time></trkpt><trkpt lat="45.875497552745244" lon="11.084546379475134"><ele>371.0</ele><time>2026-04-24T13:59:35.987Z</time></trkpt><trkpt lat="45.875411666084" lon="11.084621489960952"><ele>371.0</ele><time>2026-04-24T13:59:36.987Z</time></trkpt><trkpt lat="45.875308214672884" lon="11.084709849249977"><ele>371.0</ele><time>2026-04-24T13:59:37.987Z</time></trkpt><trkpt lat="45.87521240028989" lon="11.084804444293486"><ele>371.0</ele><time>2026-04-24T13:59:38.987Z</time></trkpt><trkpt lat="45.87512527099811" lon="11.084916245959649"><ele>370.8</ele><time>2026-04-24T13:59:39.987Z</time></trkpt><trkpt lat="45.875024901380016" lon="11.085025129933017"><ele>370.6</ele><time>2026-04-24T13:59:40.987Z</time></trkpt><trkpt lat="45.87492905982838" lon="11.08510650552195"><ele>370.4</ele><time>2026-04-24T13:59:41.987Z</time></trkpt><trkpt lat="45.87483515357638" lon="11.085161370532754"><ele>370.2</ele><time>2026-04-24T13:59:42.987Z</time></trkpt><trkpt lat="45.87474628221645" lon="11.085200329531292"><ele>370.0</ele><time>2026-04-24T13:59:43.987Z</time></trkpt><trkpt lat="45.874669479100135" lon="11.085067256821361"><ele>370.0</ele><time>2026-04-24T13:59:44.987Z</time></trkpt><trkpt lat="45.874572204939106" lon="11.085029580657617"><ele>370.0</ele><time>2026-04-24T13:59:45.987Z</time></trkpt><trkpt lat="45.87446309382726" lon="11.084987319814072"><ele>370.0</ele><time>2026-04-24T13:59:46.987Z</time></trkpt><trkpt lat="45.8743538765483" lon="11.084945017846621"><ele>370.0</ele><time>2026-04-24T13:59:47.986Z</time></trkpt><trkpt lat="45.87421006745136" lon="11.085175899857754"><ele>364.5</ele><time>2026-04-24T13:59:48.986Z</time></trkpt><trkpt lat="45.87409978236334" lon="11.08526684911208"><ele>359.0</ele><time>2026-04-24T13:59:49.986Z</time></trkpt><trkpt lat="45.87398779328319" lon="11.08536021325193"><ele>353.5</ele><time>2026-04-24T13:59:50.986Z</time></trkpt><trkpt lat="45.87391884198009" lon="11.085526091114309"><ele>348.0</ele><time>2026-04-24T13:59:51.986Z</time></trkpt><trkpt lat="45.87383330325635" lon="11.085615540279926"><ele>348.0</ele><time>2026-04-24T13:59:52.986Z</time></trkpt><trkpt lat="45.87374694699089" lon="11.08570076473197"><ele>348.0</ele><time>2026-04-24T13:59:53.986Z</time></trkpt><trkpt lat="45.87366452190604" lon="11.085752534277464"><ele>348.0</ele><time>2026-04-24T13:59:54.986Z</time></trkpt><trkpt lat="45.87360045872695" lon="11.085795945462177"><ele>348.0</ele><time>2026-04-24T13:59:55.986Z</time></trkpt><trkpt lat="45.87353080694854" lon="11.085859834198004"><ele>348.0</ele><time>2026-04-24T13:59:56.986Z</time></trkpt><trkpt lat="45.87348436465404" lon="11.085959086294922"><ele>348.0</ele><time>2026-04-24T13:59:57.986Z</time></trkpt><trkpt lat="45.87345839135573" lon="11.08605420609945"><ele>349.1666666666667</ele><time>2026-04-24T13:59:58.986Z</time></trkpt><trkpt lat="45.873473234285875" lon="11.08615073805533"><ele>350.3333333333333</ele><time>2026-04-24T13:59:59.986Z</time></trkpt><trkpt lat="45.87347329952907" lon="11.086246467165449"><ele>351.5</ele><time>2026-04-24T14:00:00.986Z</time></trkpt><trkpt lat="45.87344485244189" lon="11.086332756316427"><ele>352.66666666666663</ele><time>2026-04-24T14:00:01.986Z</time></trkpt><trkpt lat="45.87334309408488" lon="11.086386769965069"><ele>353.8333333333333</ele><time>2026-04-24T14:00:02.986Z</time></trkpt><trkpt lat="45.873242680166705" lon="11.086455926512311"><ele>355.0</ele><time>2026-04-24T14:00:03.986Z</time></trkpt><trkpt lat="45.87317357337768" lon="11.086513854030445"><ele>355.0</ele><time>2026-04-24T14:00:04.986Z</time></trkpt><trkpt lat="45.873102777403176" lon="11.086587158468731"><ele>355.0</ele><time>2026-04-24T14:00:05.986Z</time></trkpt><trkpt lat="45.87306551067302" lon="11.086706393995811"><ele>355.0</ele><time>2026-04-24T14:00:06.986Z</time></trkpt><trkpt lat="45.87304757231508" lon="11.086816799356482"><ele>355.0</ele><time>2026-04-24T14:00:07.986Z</time></trkpt><trkpt lat="45.87299914427725" lon="11.08690070096213"><ele>355.0</ele><time>2026-04-24T14:00:09.986Z</time></trkpt><trkpt lat="45.87297908528951" lon="11.086991540681527"><ele>355.0</ele><time>2026-04-24T14:00:16.986Z</time></trkpt><trkpt lat="45.87292011701125" lon="11.087053812395027"><ele>353.66666666666663</ele><time>2026-04-24T14:00:35.986Z</time></trkpt><trkpt lat="45.872844375643886" lon="11.087044702932898"><ele>352.3333333333333</ele><time>2026-04-24T14:00:37.986Z</time></trkpt><trkpt lat="45.87277893071165" lon="11.087059059715346"><ele>351.0</ele><time>2026-04-24T14:00:38.986Z</time></trkpt><trkpt lat="45.87271572093764" lon="11.087084029500906"><ele>349.6666666666667</ele><time>2026-04-24T14:00:39.986Z</time></trkpt><trkpt lat="45.872615235065425" lon="11.087153305449194"><ele>348.33333333333337</ele><time>2026-04-24T14:00:41.986Z</time></trkpt><trkpt lat="45.87257294773842" lon="11.087253531414891"><ele>347.0</ele><time>2026-04-24T14:00:42.986Z</time></trkpt><trkpt lat="45.87253253462484" lon="11.08739318155866"><ele>350.6</ele><time>2026-04-24T14:00:43.986Z</time></trkpt><trkpt lat="45.87248895415519" lon="11.087526509572816"><ele>354.20000000000005</ele><time>2026-04-24T14:00:44.986Z</time></trkpt><trkpt lat="45.87243839703856" lon="11.087655128986334"><ele>357.8</ele><time>2026-04-24T14:00:45.986Z</time></trkpt><trkpt lat="45.87239294293681" lon="11.087813828271681"><ele>361.4</ele><time>2026-04-24T14:00:46.986Z</time></trkpt><trkpt lat="45.872360605818564" lon="11.087972321947568"><ele>365.0</ele><time>2026-04-24T14:00:47.986Z</time></trkpt><trkpt lat="45.87226014940949" lon="11.088076986065158"><ele>365.0</ele><time>2026-04-24T14:00:48.986Z</time></trkpt><trkpt lat="45.87221066768991" lon="11.088215716531474"><ele>365.0</ele><time>2026-04-24T14:00:49.986Z</time></trkpt><trkpt lat="45.87215227635587" lon="11.088337041762273"><ele>365.0</ele><time>2026-04-24T14:00:50.986Z</time></trkpt><trkpt lat="45.8720774654933" lon="11.088448599010116"><ele>365.0</ele><time>2026-04-24T14:00:51.986Z</time></trkpt><trkpt lat="45.87200183875527" lon="11.088540469567654"><ele>365.0</ele><time>2026-04-24T14:00:52.986Z</time></trkpt><trkpt lat="45.87193127211051" lon="11.088630257439153"><ele>364.25</ele><time>2026-04-24T14:00:53.986Z</time></trkpt><trkpt lat="45.871846238067974" lon="11.088737697842465"><ele>363.5</ele><time>2026-04-24T14:00:54.986Z</time></trkpt><trkpt lat="45.871766907991734" lon="11.088861643469995"><ele>362.75</ele><time>2026-04-24T14:00:55.986Z</time></trkpt><trkpt lat="45.87170022402942" lon="11.088994345471402"><ele>362.0</ele><time>2026-04-24T14:00:56.986Z</time></trkpt><trkpt lat="45.87162917953641" lon="11.089115427278786"><ele>362.0</ele><time>2026-04-24T14:00:57.986Z</time></trkpt><trkpt lat="45.871526620469986" lon="11.08918035814621"><ele>362.0</ele><time>2026-04-24T14:00:58.986Z</time></trkpt><trkpt lat="45.8714551326924" lon="11.089282822692796"><ele>362.0</ele><time>2026-04-24T14:00:59.986Z</time></trkpt><trkpt lat="45.87140489090245" lon="11.089400302059735"><ele>362.0</ele><time>2026-04-24T14:01:00.986Z</time></trkpt><trkpt lat="45.87136467679683" lon="11.08954855531481"><ele>362.0</ele><time>2026-04-24T14:01:01.986Z</time></trkpt><trkpt lat="45.871321961628574" lon="11.089702725417535"><ele>362.0</ele><time>2026-04-24T14:01:02.986Z</time></trkpt><trkpt lat="45.87126223848423" lon="11.089843277901913"><ele>362.0</ele><time>2026-04-24T14:01:03.986Z</time></trkpt><trkpt lat="45.87116882043564" lon="11.08995649991837"><ele>362.0</ele><time>2026-04-24T14:01:04.986Z</time></trkpt><trkpt lat="45.87107685860652" lon="11.090050009453384"><ele>362.0</ele><time>2026-04-24T14:01:05.985Z</time></trkpt><trkpt lat="45.87099115668869" lon="11.090126295635065"><ele>360.20000000000005</ele><time>2026-04-24T14:01:06.985Z</time></trkpt><trkpt lat="45.87090560688965" lon="11.090214597557349"><ele>358.4</ele><time>2026-04-24T14:01:07.985Z</time></trkpt><trkpt lat="45.870817611340236" lon="11.090325186235042"><ele>356.6</ele><time>2026-04-24T14:01:08.985Z</time></trkpt><trkpt lat="45.8707537449686" lon="11.090455883151842"><ele>354.79999999999995</ele><time>2026-04-24T14:01:09.985Z</time></trkpt><trkpt lat="45.87072518720097" lon="11.090583341748088"><ele>353.0</ele><time>2026-04-24T14:01:10.985Z</time></trkpt><trkpt lat="45.87066950378437" lon="11.090748260168946"><ele>356.5</ele><time>2026-04-24T14:01:11.985Z</time></trkpt><trkpt lat="45.87063319218643" lon="11.090909985778286"><ele>360.0</ele><time>2026-04-24T14:01:12.985Z</time></trkpt><trkpt lat="45.87059114118562" lon="11.091073002366777"><ele>363.5</ele><time>2026-04-24T14:01:13.985Z</time></trkpt><trkpt lat="45.87053761640026" lon="11.09122597228648"><ele>367.0</ele><time>2026-04-24T14:01:14.985Z</time></trkpt><trkpt lat="45.870486946911626" lon="11.091374071316059"><ele>367.0</ele><time>2026-04-24T14:01:15.985Z</time></trkpt><trkpt lat="45.87040270964178" lon="11.091461873758728"><ele>367.0</ele><time>2026-04-24T14:01:16.985Z</time></trkpt><trkpt lat="45.87031410211064" lon="11.09146055702435"><ele>367.0</ele><time>2026-04-24T14:01:17.985Z</time></trkpt><trkpt lat="45.87024569994688" lon="11.091472672371689"><ele>367.0</ele><time>2026-04-24T14:01:18.985Z</time></trkpt><trkpt lat="45.870188661636725" lon="11.0913866262474"><ele>367.0</ele><time>2026-04-24T14:01:19.985Z</time></trkpt><trkpt lat="45.870100694216035" lon="11.091314978557055"><ele>367.0</ele><time>2026-04-24T14:01:20.985Z</time></trkpt><trkpt lat="45.870004639010915" lon="11.091236148030315"><ele>364.0</ele><time>2026-04-24T14:01:21.985Z</time></trkpt><trkpt lat="45.869915678686105" lon="11.091173512638868"><ele>361.0</ele><time>2026-04-24T14:01:22.985Z</time></trkpt><trkpt lat="45.86984732706513" lon="11.091115080362307"><ele>358.0</ele><time>2026-04-24T14:01:23.985Z</time></trkpt><trkpt lat="45.869763748302496" lon="11.09100865577307"><ele>355.0</ele><time>2026-04-24T14:01:25.985Z</time></trkpt><trkpt lat="45.869760294875235" lon="11.090877703014653"><ele>352.0</ele><time>2026-04-24T14:01:27.985Z</time></trkpt><trkpt lat="45.86977895867229" lon="11.090701373581412"><ele>352.0</ele><time>2026-04-24T14:01:29.985Z</time></trkpt><trkpt lat="45.86979375119905" lon="11.09060696617876"><ele>352.0</ele><time>2026-04-24T14:01:30.985Z</time></trkpt><trkpt lat="45.86981290735147" lon="11.09047084243906"><ele>352.0</ele><time>2026-04-24T14:01:31.985Z</time></trkpt><trkpt lat="45.86983045843382" lon="11.09036081167632"><ele>352.0</ele><time>2026-04-24T14:01:32.985Z</time></trkpt><trkpt lat="45.86984709310844" lon="11.09024358040201"><ele>352.0</ele><time>2026-04-24T14:01:33.985Z</time></trkpt><trkpt lat="45.86986492613641" lon="11.090150181741096"><ele>352.0</ele><time>2026-04-24T14:01:34.985Z</time></trkpt><trkpt lat="45.86987821010783" lon="11.090036718875742"><ele>352.0</ele><time>2026-04-24T14:01:35.987Z</time></trkpt><trkpt lat="45.86989252219281" lon="11.089933356384126"><ele>352.0</ele><time>2026-04-24T14:01:36.987Z</time></trkpt><trkpt lat="45.86990736888983" lon="11.089824294384039"><ele>352.0</ele><time>2026-04-24T14:01:37.987Z</time></trkpt><trkpt lat="45.86992153602666" lon="11.089729809726276"><ele>352.0</ele><time>2026-04-24T14:01:38.987Z</time></trkpt><trkpt lat="45.869939655799236" lon="11.089556732021263"><ele>352.0</ele><time>2026-04-24T14:01:40.986Z</time></trkpt><trkpt lat="45.869953014964544" lon="11.089446805030617"><ele>352.0</ele><time>2026-04-24T14:01:41.986Z</time></trkpt><trkpt lat="45.86997452774559" lon="11.08931695355992"><ele>352.20000000000005</ele><time>2026-04-24T14:01:42.986Z</time></trkpt><trkpt lat="45.869993278375254" lon="11.089200074605698"><ele>352.4</ele><time>2026-04-24T14:01:43.986Z</time></trkpt><trkpt lat="45.870009995139945" lon="11.089082547337043"><ele>352.6</ele><time>2026-04-24T14:01:44.986Z</time></trkpt><trkpt lat="45.87005441457781" lon="11.088952215720475"><ele>352.79999999999995</ele><time>2026-04-24T14:01:45.986Z</time></trkpt><trkpt lat="45.8700963441902" lon="11.088807537116553"><ele>353.0</ele><time>2026-04-24T14:01:46.986Z</time></trkpt><trkpt lat="45.87017701332661" lon="11.088696535895831"><ele>353.0</ele><time>2026-04-24T14:01:47.986Z</time></trkpt><trkpt lat="45.87027228087963" lon="11.088553975116033"><ele>353.0</ele><time>2026-04-24T14:01:48.986Z</time></trkpt><trkpt lat="45.87037489578242" lon="11.08840734586358"><ele>353.0</ele><time>2026-04-24T14:01:49.986Z</time></trkpt><trkpt lat="45.87046806135499" lon="11.088265352033757"><ele>353.0</ele><time>2026-04-24T14:01:50.986Z</time></trkpt><trkpt lat="45.87055269605869" lon="11.088112273640402"><ele>359.0</ele><time>2026-04-24T14:01:51.986Z</time></trkpt><trkpt lat="45.8706284055357" lon="11.087920557947688"><ele>365.0</ele><time>2026-04-24T14:01:52.986Z</time></trkpt><trkpt lat="45.87070997597435" lon="11.087757837745142"><ele>371.0</ele><time>2026-04-24T14:01:53.986Z</time></trkpt><trkpt lat="45.87077822482162" lon="11.087593746341364"><ele>377.0</ele><time>2026-04-24T14:01:54.986Z</time></trkpt><trkpt lat="45.870868038368734" lon="11.087430618420688"><ele>371.5</ele><time>2026-04-24T14:01:55.986Z</time></trkpt><trkpt lat="45.87095314424653" lon="11.087258952300974"><ele>366.0</ele><time>2026-04-24T14:01:56.986Z</time></trkpt><trkpt lat="45.871031723508786" lon="11.087125506661277"><ele>360.5</ele><time>2026-04-24T14:01:57.986Z</time></trkpt><trkpt lat="45.871112521052524" lon="11.087016280443196"><ele>355.0</ele><time>2026-04-24T14:01:58.986Z</time></trkpt><trkpt lat="45.871166511248866" lon="11.08688946172887"><ele>355.0</ele><time>2026-04-24T14:01:59.986Z</time></trkpt><trkpt lat="45.871202825263275" lon="11.086719225676053"><ele>355.0</ele><time>2026-04-24T14:02:00.986Z</time></trkpt><trkpt lat="45.871242868769805" lon="11.086546949537004"><ele>355.0</ele><time>2026-04-24T14:02:01.986Z</time></trkpt><trkpt lat="45.87129189257763" lon="11.08637893272149"><ele>355.0</ele><time>2026-04-24T14:02:02.986Z</time></trkpt><trkpt lat="45.87133009564771" lon="11.086196650032653"><ele>360.25</ele><time>2026-04-24T14:02:03.986Z</time></trkpt><trkpt lat="45.87141332756617" lon="11.086051988137546"><ele>365.5</ele><time>2026-04-24T14:02:04.986Z</time></trkpt><trkpt lat="45.87150343167148" lon="11.0859431455029"><ele>370.75</ele><time>2026-04-24T14:02:05.986Z</time></trkpt><trkpt lat="45.87159107098616" lon="11.08582001997099"><ele>376.0</ele><time>2026-04-24T14:02:06.986Z</time></trkpt><trkpt lat="45.871660388662704" lon="11.085710636989072"><ele>383.25</ele><time>2026-04-24T14:02:07.986Z</time></trkpt><trkpt lat="45.87168241503476" lon="11.085541091081293"><ele>390.5</ele><time>2026-04-24T14:02:08.986Z</time></trkpt><trkpt lat="45.87169043465481" lon="11.085340106594083"><ele>397.75</ele><time>2026-04-24T14:02:09.986Z</time></trkpt><trkpt lat="45.87169905897829" lon="11.085153141247535"><ele>405.0</ele><time>2026-04-24T14:02:10.986Z</time></trkpt><trkpt lat="45.8717190035447" lon="11.08497621565634"><ele>402.4</ele><time>2026-04-24T14:02:11.986Z</time></trkpt><trkpt lat="45.871742247134854" lon="11.084803084566538"><ele>399.8</ele><time>2026-04-24T14:02:12.986Z</time></trkpt><trkpt lat="45.87176509047436" lon="11.084651467714549"><ele>397.20000000000005</ele><time>2026-04-24T14:02:13.986Z</time></trkpt><trkpt lat="45.87181888748235" lon="11.084562242056963"><ele>394.6</ele><time>2026-04-24T14:02:14.986Z</time></trkpt><trkpt lat="45.87193345302703" lon="11.08455250582751"><ele>392.0</ele><time>2026-04-24T14:02:15.986Z</time></trkpt><trkpt lat="45.872072317796786" lon="11.084633440238916"><ele>392.0</ele><time>2026-04-24T14:02:16.986Z</time></trkpt><trkpt lat="45.87216859519048" lon="11.084542965044024"><ele>392.0</ele><time>2026-04-24T14:02:17.986Z</time></trkpt><trkpt lat="45.872238396240654" lon="11.08439448381892"><ele>392.0</ele><time>2026-04-24T14:02:18.986Z</time></trkpt><trkpt lat="45.87228181613618" lon="11.08428533833939"><ele>392.0</ele><time>2026-04-24T14:02:19.986Z</time></trkpt><trkpt lat="45.87232622109301" lon="11.084161593068433"><ele>392.0</ele><time>2026-04-24T14:02:20.986Z</time></trkpt><trkpt lat="45.87236950075969" lon="11.084047441026707"><ele>392.66666666666663</ele><time>2026-04-24T14:02:21.986Z</time></trkpt><trkpt lat="45.87241252889933" lon="11.083953295299839"><ele>393.3333333333333</ele><time>2026-04-24T14:02:22.986Z</time></trkpt><trkpt lat="45.87245808901962" lon="11.083861242399355"><ele>394.0</ele><time>2026-04-24T14:02:23.986Z</time></trkpt><trkpt lat="45.872496493728406" lon="11.083786115941363"><ele>394.66666666666663</ele><time>2026-04-24T14:02:24.986Z</time></trkpt><trkpt lat="45.872531125110854" lon="11.083692479959865"><ele>395.3333333333333</ele><time>2026-04-24T14:02:25.986Z</time></trkpt><trkpt lat="45.87259530774705" lon="11.083620504231142"><ele>396.0</ele><time>2026-04-24T14:02:26.986Z</time></trkpt><trkpt lat="45.872650470414044" lon="11.083542126827378"><ele>396.0</ele><time>2026-04-24T14:02:27.985Z</time></trkpt><trkpt lat="45.87272195891025" lon="11.083467940823544"><ele>396.0</ele><time>2026-04-24T14:02:28.985Z</time></trkpt><trkpt lat="45.872798220139025" lon="11.083377890195852"><ele>396.0</ele><time>2026-04-24T14:02:29.985Z</time></trkpt><trkpt lat="45.87288226473737" lon="11.083296104804623"><ele>396.0</ele><time>2026-04-24T14:02:30.985Z</time></trkpt><trkpt lat="45.87297449528261" lon="11.083228047657656"><ele>396.0</ele><time>2026-04-24T14:02:31.985Z</time></trkpt><trkpt lat="45.87306111162078" lon="11.083154690903479"><ele>396.6</ele><time>2026-04-24T14:02:32.985Z</time></trkpt><trkpt lat="45.87314614306689" lon="11.08307542939152"><ele>397.20000000000005</ele><time>2026-04-24T14:02:33.985Z</time></trkpt><trkpt lat="45.87322778597096" lon="11.083005713549635"><ele>397.79999999999995</ele><time>2026-04-24T14:02:34.985Z</time></trkpt><trkpt lat="45.87330996356738" lon="11.082932926667208"><ele>398.4</ele><time>2026-04-24T14:02:35.985Z</time></trkpt><trkpt lat="45.87340248254487" lon="11.082871956682672"><ele>399.0</ele><time>2026-04-24T14:02:36.985Z</time></trkpt><trkpt lat="45.873483811195754" lon="11.082780114640222"><ele>399.0</ele><time>2026-04-24T14:02:37.985Z</time></trkpt><trkpt lat="45.87357930030291" lon="11.08274192562947"><ele>399.0</ele><time>2026-04-24T14:02:38.985Z</time></trkpt><trkpt lat="45.87366206729174" lon="11.082684655923217"><ele>399.0</ele><time>2026-04-24T14:02:39.985Z</time></trkpt><trkpt lat="45.873762300245716" lon="11.082680852719479"><ele>399.0</ele><time>2026-04-24T14:02:40.985Z</time></trkpt><trkpt lat="45.873865010712365" lon="11.082697948971179"><ele>399.0</ele><time>2026-04-24T14:02:41.985Z</time></trkpt><trkpt lat="45.87394680248177" lon="11.082709104521639"><ele>399.0</ele><time>2026-04-24T14:02:42.985Z</time></trkpt><trkpt lat="45.8740147495764" lon="11.08269762591277"><ele>399.0</ele><time>2026-04-24T14:02:43.985Z</time></trkpt><trkpt lat="45.87405508431687" lon="11.082628102661658"><ele>399.0</ele><time>2026-04-24T14:02:44.985Z</time></trkpt><trkpt lat="45.87403757812151" lon="11.082485021521007"><ele>399.0</ele><time>2026-04-24T14:02:46.985Z</time></trkpt><trkpt lat="45.87389851806109" lon="11.08248788942649"><ele>399.0</ele><time>2026-04-24T14:02:48.985Z</time></trkpt><trkpt lat="45.873803168102725" lon="11.082486006623231"><ele>399.0</ele><time>2026-04-24T14:02:49.985Z</time></trkpt><trkpt lat="45.87371569186254" lon="11.082503506273362"><ele>399.0</ele><time>2026-04-24T14:02:50.985Z</time></trkpt><trkpt lat="45.873631559734086" lon="11.082470003082973"><ele>399.0</ele><time>2026-04-24T14:02:51.985Z</time></trkpt><trkpt lat="45.873536935881" lon="11.08252011389608"><ele>399.0</ele><time>2026-04-24T14:02:52.985Z</time></trkpt><trkpt lat="45.873440300816895" lon="11.082565893876628"><ele>399.0</ele><time>2026-04-24T14:02:53.985Z</time></trkpt><trkpt lat="45.87334065856839" lon="11.082582669355643"><ele>403.5</ele><time>2026-04-24T14:02:54.985Z</time></trkpt><trkpt lat="45.87324630223364" lon="11.082607822326713"><ele>408.0</ele><time>2026-04-24T14:02:55.985Z</time></trkpt><trkpt lat="45.87315766418248" lon="11.082616842741023"><ele>412.5</ele><time>2026-04-24T14:02:56.985Z</time></trkpt><trkpt lat="45.87306677666665" lon="11.082619703435661"><ele>417.0</ele><time>2026-04-24T14:02:57.985Z</time></trkpt><trkpt lat="45.87299496264087" lon="11.082617757099191"><ele>421.5</ele><time>2026-04-24T14:02:58.985Z</time></trkpt><trkpt lat="45.87291323229625" lon="11.082643049125682"><ele>426.0</ele><time>2026-04-24T14:02:59.985Z</time></trkpt><trkpt lat="45.8728296064408" lon="11.082751026820091"><ele>426.0</ele><time>2026-04-24T14:03:00.985Z</time></trkpt><trkpt lat="45.87275303902107" lon="11.082840087381822"><ele>426.0</ele><time>2026-04-24T14:03:01.985Z</time></trkpt><trkpt lat="45.872684857371034" lon="11.082899907417158"><ele>426.0</ele><time>2026-04-24T14:03:02.985Z</time></trkpt><trkpt lat="45.87262078709309" lon="11.08292198238288"><ele>426.0</ele><time>2026-04-24T14:03:03.985Z</time></trkpt><trkpt lat="45.8725524276505" lon="11.082892387633901"><ele>426.0</ele><time>2026-04-24T14:03:04.985Z</time></trkpt><trkpt lat="45.87247579695888" lon="11.082914632592843"><ele>426.0</ele><time>2026-04-24T14:03:05.985Z</time></trkpt><trkpt lat="45.872396562526895" lon="11.08293992500416"><ele>423.20000000000005</ele><time>2026-04-24T14:03:06.985Z</time></trkpt><trkpt lat="45.87232450734361" lon="11.083072477544363"><ele>420.40000000000003</ele><time>2026-04-24T14:03:07.985Z</time></trkpt><trkpt lat="45.872243224729814" lon="11.083145256704983"><ele>417.6</ele><time>2026-04-24T14:03:08.985Z</time></trkpt><trkpt lat="45.87216346462686" lon="11.083202951453767"><ele>414.8</ele><time>2026-04-24T14:03:09.985Z</time></trkpt><trkpt lat="45.872085414739395" lon="11.083230301589678"><ele>412.0</ele><time>2026-04-24T14:03:10.985Z</time></trkpt><trkpt lat="45.871980230741784" lon="11.083278498905111"><ele>412.0</ele><time>2026-04-24T14:03:11.985Z</time></trkpt><trkpt lat="45.871862309099846" lon="11.083333867809797"><ele>412.0</ele><time>2026-04-24T14:03:12.985Z</time></trkpt><trkpt lat="45.871750792851984" lon="11.08339099748074"><ele>412.0</ele><time>2026-04-24T14:03:13.985Z</time></trkpt><trkpt lat="45.871649407809564" lon="11.083467925604465"><ele>412.0</ele><time>2026-04-24T14:03:14.985Z</time></trkpt><trkpt lat="45.871562552541526" lon="11.083523607810921"><ele>419.6</ele><time>2026-04-24T14:03:15.985Z</time></trkpt><trkpt lat="45.87148947394118" lon="11.083596261632605"><ele>427.20000000000005</ele><time>2026-04-24T14:03:16.985Z</time></trkpt><trkpt lat="45.87138508392462" lon="11.08368967060724"><ele>434.8</ele><time>2026-04-24T14:03:17.985Z</time></trkpt><trkpt lat="45.871284412870146" lon="11.083803030373318"><ele>442.4</ele><time>2026-04-24T14:03:18.985Z</time></trkpt><trkpt lat="45.87121117776072" lon="11.083916933956072"><ele>450.0</ele><time>2026-04-24T14:03:19.985Z</time></trkpt><trkpt lat="45.87117546950532" lon="11.084021091799945"><ele>444.8</ele><time>2026-04-24T14:03:20.985Z</time></trkpt><trkpt lat="45.8712103037932" lon="11.08414261712988"><ele>439.6</ele><time>2026-04-24T14:03:21.985Z</time></trkpt><trkpt lat="45.871226970789486" lon="11.084278992690992"><ele>434.4</ele><time>2026-04-24T14:03:22.985Z</time></trkpt><trkpt lat="45.87120722566473" lon="11.084434807893452"><ele>429.2</ele><time>2026-04-24T14:03:23.985Z</time></trkpt><trkpt lat="45.87119522274326" lon="11.084581354480223"><ele>424.0</ele><time>2026-04-24T14:03:24.985Z</time></trkpt><trkpt lat="45.871247464727674" lon="11.084694048268146"><ele>424.0</ele><time>2026-04-24T14:03:25.985Z</time></trkpt><trkpt lat="45.87129178301288" lon="11.084812332214929"><ele>424.0</ele><time>2026-04-24T14:03:26.985Z</time></trkpt><trkpt lat="45.871223985917986" lon="11.084962181214568"><ele>424.0</ele><time>2026-04-24T14:03:28.985Z</time></trkpt><trkpt lat="45.87116937795935" lon="11.08506346135984"><ele>424.0</ele><time>2026-04-24T14:03:29.985Z</time></trkpt><trkpt lat="45.87109180274928" lon="11.085116445072401"><ele>424.0</ele><time>2026-04-24T14:03:30.985Z</time></trkpt><trkpt lat="45.871003607372586" lon="11.085135345948167"><ele>431.0</ele><time>2026-04-24T14:03:31.985Z</time></trkpt><trkpt lat="45.870894874607764" lon="11.085171411530446"><ele>438.0</ele><time>2026-04-24T14:03:32.985Z</time></trkpt><trkpt lat="45.87077983366095" lon="11.085205016369127"><ele>445.0</ele><time>2026-04-24T14:03:33.985Z</time></trkpt><trkpt lat="45.87067302350856" lon="11.085246303188162"><ele>452.0</ele><time>2026-04-24T14:03:34.985Z</time></trkpt><trkpt lat="45.87056628035518" lon="11.085243081507206"><ele>459.0</ele><time>2026-04-24T14:03:35.985Z</time></trkpt><trkpt lat="45.87048323894446" lon="11.08518830782598"><ele>459.0</ele><time>2026-04-24T14:03:36.985Z</time></trkpt><trkpt lat="45.87040286961831" lon="11.085108955024626"><ele>459.0</ele><time>2026-04-24T14:03:37.985Z</time></trkpt><trkpt lat="45.87033042249934" lon="11.085065123994355"><ele>459.0</ele><time>2026-04-24T14:03:38.985Z</time></trkpt><trkpt lat="45.87023217708472" lon="11.084975666138098"><ele>459.0</ele><time>2026-04-24T14:03:39.985Z</time></trkpt><trkpt lat="45.87011616140281" lon="11.084988239364947"><ele>459.0</ele><time>2026-04-24T14:03:40.985Z</time></trkpt><trkpt lat="45.870022323593986" lon="11.085045267379936"><ele>463.79999999999995</ele><time>2026-04-24T14:03:41.986Z</time></trkpt><trkpt lat="45.869964241354" lon="11.085139617997676"><ele>468.59999999999997</ele><time>2026-04-24T14:03:42.986Z</time></trkpt><trkpt lat="45.86993076976361" lon="11.08526719574994"><ele>473.4</ele><time>2026-04-24T14:03:43.986Z</time></trkpt><trkpt lat="45.86987928665342" lon="11.08542053481049"><ele>478.2</ele><time>2026-04-24T14:03:44.986Z</time></trkpt><trkpt lat="45.86983852019252" lon="11.085564673245992"><ele>483.0</ele><time>2026-04-24T14:03:45.985Z</time></trkpt><trkpt lat="45.86978409662764" lon="11.08564260460799"><ele>483.0</ele><time>2026-04-24T14:03:46.985Z</time></trkpt><trkpt lat="45.86972796019819" lon="11.085692849546446"><ele>483.0</ele><time>2026-04-24T14:03:47.986Z</time></trkpt><trkpt lat="45.86976900587146" lon="11.085578650791938"><ele>483.0</ele><time>2026-04-24T14:03:56.986Z</time></trkpt><trkpt lat="45.869847594455734" lon="11.085542506323403"><ele>483.0</ele><time>2026-04-24T14:03:58.986Z</time></trkpt><trkpt lat="45.869895852695485" lon="11.085482942783035"><ele>483.0</ele><time>2026-04-24T14:03:59.985Z</time></trkpt><trkpt lat="45.86996024997716" lon="11.085335627711821"><ele>483.0</ele><time>2026-04-24T14:04:01.985Z</time></trkpt><trkpt lat="45.87000942291842" lon="11.08520532643167"><ele>483.0</ele><time>2026-04-24T14:04:03.985Z</time></trkpt><trkpt lat="45.87004441610495" lon="11.085112599603013"><ele>483.0</ele><time>2026-04-24T14:04:04.985Z</time></trkpt><trkpt lat="45.87009001935184" lon="11.084991757665872"><ele>483.0</ele><time>2026-04-24T14:04:06.985Z</time></trkpt><trkpt lat="45.87012361765304" lon="11.084902727072482"><ele>483.0</ele><time>2026-04-24T14:04:08.985Z</time></trkpt><trkpt lat="45.87019924382803" lon="11.084837063814305"><ele>483.0</ele><time>2026-04-24T14:04:11.985Z</time></trkpt><trkpt lat="45.87029205764319" lon="11.084767415648116"><ele>483.0</ele><time>2026-04-24T14:04:13.985Z</time></trkpt><trkpt lat="45.870405361175145" lon="11.08465228018736"><ele>481.6666666666667</ele><time>2026-04-24T14:04:15.985Z</time></trkpt><trkpt lat="45.870489235187264" lon="11.084584380972066"><ele>480.33333333333337</ele><time>2026-04-24T14:04:16.985Z</time></trkpt><trkpt lat="45.87054917765867" lon="11.084516711978097"><ele>479.0</ele><time>2026-04-24T14:04:17.985Z</time></trkpt><trkpt lat="45.87059641426533" lon="11.08442989793856"><ele>477.6666666666667</ele><time>2026-04-24T14:04:18.985Z</time></trkpt><trkpt lat="45.87063830537326" lon="11.084330118061297"><ele>476.33333333333337</ele><time>2026-04-24T14:04:19.985Z</time></trkpt><trkpt lat="45.8706643058617" lon="11.084189523639138"><ele>475.0</ele><time>2026-04-24T14:04:20.985Z</time></trkpt><trkpt lat="45.87067415651887" lon="11.084076214035012"><ele>477.83333333333337</ele><time>2026-04-24T14:04:21.985Z</time></trkpt><trkpt lat="45.87066856434287" lon="11.083976970275431"><ele>480.6666666666667</ele><time>2026-04-24T14:04:22.985Z</time></trkpt><trkpt lat="45.87066534843111" lon="11.083881806218706"><ele>483.5</ele><time>2026-04-24T14:04:23.985Z</time></trkpt><trkpt lat="45.87067341619129" lon="11.083777468824259"><ele>486.33333333333337</ele><time>2026-04-24T14:04:24.985Z</time></trkpt><trkpt lat="45.87069735129692" lon="11.08368879972775"><ele>489.1666666666667</ele><time>2026-04-24T14:04:25.985Z</time></trkpt><trkpt lat="45.87071359947047" lon="11.083587219954916"><ele>492.0</ele><time>2026-04-24T14:04:26.985Z</time></trkpt><trkpt lat="45.870712221076026" lon="11.083409287865221"><ele>490.8</ele><time>2026-04-24T14:04:28.985Z</time></trkpt><trkpt lat="45.870755840149656" lon="11.083219678183696"><ele>489.6</ele><time>2026-04-24T14:04:30.985Z</time></trkpt><trkpt lat="45.870833195319115" lon="11.083138104645915"><ele>488.40000000000003</ele><time>2026-04-24T14:04:31.985Z</time></trkpt><trkpt lat="45.87090382163052" lon="11.08304557148454"><ele>487.20000000000005</ele><time>2026-04-24T14:04:32.985Z</time></trkpt><trkpt lat="45.87094467568401" lon="11.082932840292505"><ele>486.0</ele><time>2026-04-24T14:04:34.985Z</time></trkpt><trkpt lat="45.871022144685355" lon="11.082900048868769"><ele>486.0</ele><time>2026-04-24T14:04:36.985Z</time></trkpt><trkpt lat="45.87107495674585" lon="11.082848168932887"><ele>486.0</ele><time>2026-04-24T14:04:38.985Z</time></trkpt><trkpt lat="45.871150837162894" lon="11.082754181566157"><ele>486.0</ele><time>2026-04-24T14:04:40.985Z</time></trkpt><trkpt lat="45.871220168251746" lon="11.082734375927949"><ele>486.0</ele><time>2026-04-24T14:04:41.985Z</time></trkpt><trkpt lat="45.87130684115647" lon="11.0827201197265"><ele>486.0</ele><time>2026-04-24T14:04:42.985Z</time></trkpt><trkpt lat="45.87136670082217" lon="11.082672794012806"><ele>486.0</ele><time>2026-04-24T14:04:43.985Z</time></trkpt><trkpt lat="45.87144874694755" lon="11.082588336080585"><ele>486.0</ele><time>2026-04-24T14:04:44.985Z</time></trkpt><trkpt lat="45.87152218841354" lon="11.082532126038235"><ele>486.0</ele><time>2026-04-24T14:04:45.985Z</time></trkpt><trkpt lat="45.871584870424684" lon="11.082440712500196"><ele>486.0</ele><time>2026-04-24T14:04:47.985Z</time></trkpt><trkpt lat="45.87164910138779" lon="11.082381590853304"><ele>486.0</ele><time>2026-04-24T14:04:48.985Z</time></trkpt><trkpt lat="45.87171688116026" lon="11.082300266928595"><ele>486.0</ele><time>2026-04-24T14:04:49.985Z</time></trkpt><trkpt lat="45.87178166591993" lon="11.082253642428968"><ele>486.0</ele><time>2026-04-24T14:04:50.985Z</time></trkpt><trkpt lat="45.87185542207066" lon="11.082212766846988"><ele>487.6</ele><time>2026-04-24T14:04:51.985Z</time></trkpt><trkpt lat="45.87196782957086" lon="11.082178814884202"><ele>489.20000000000005</ele><time>2026-04-24T14:04:52.985Z</time></trkpt><trkpt lat="45.87206848883206" lon="11.082162725903242"><ele>490.79999999999995</ele><time>2026-04-24T14:04:55.985Z</time></trkpt><trkpt lat="45.872115546324295" lon="11.08209953441278"><ele>492.4</ele><time>2026-04-24T14:04:57.984Z</time></trkpt><trkpt lat="45.87219000314278" lon="11.081957181403117"><ele>494.0</ele><time>2026-04-24T14:04:59.984Z</time></trkpt><trkpt lat="45.87224255877765" lon="11.081886700999677"><ele>493.99999999999994</ele><time>2026-04-24T14:05:00.984Z</time></trkpt><trkpt lat="45.87228341960897" lon="11.081793552500066"><ele>494.0</ele><time>2026-04-24T14:05:01.984Z</time></trkpt><trkpt lat="45.872311091122405" lon="11.08167046446938"><ele>494.0</ele><time>2026-04-24T14:05:03.984Z</time></trkpt><trkpt lat="45.87232040756821" lon="11.081573238238974"><ele>494.0</ele><time>2026-04-24T14:05:05.984Z</time></trkpt><trkpt lat="45.8723522107183" lon="11.081440311024416"><ele>493.99999999999994</ele><time>2026-04-24T14:05:07.984Z</time></trkpt><trkpt lat="45.87237978399595" lon="11.081354230039953"><ele>494.0</ele><time>2026-04-24T14:05:08.984Z</time></trkpt><trkpt lat="45.87246473147355" lon="11.08122406400114"><ele>493.3333333333333</ele><time>2026-04-24T14:05:10.984Z</time></trkpt><trkpt lat="45.87252719701223" lon="11.081125614509615"><ele>492.66666666666663</ele><time>2026-04-24T14:05:11.984Z</time></trkpt><trkpt lat="45.87257010364922" lon="11.081028863023953"><ele>492.0</ele><time>2026-04-24T14:05:12.984Z</time></trkpt><trkpt lat="45.872602936209006" lon="11.080949063347482"><ele>491.33333333333337</ele><time>2026-04-24T14:05:13.984Z</time></trkpt><trkpt lat="45.87263119871351" lon="11.080855192976344"><ele>490.6666666666667</ele><time>2026-04-24T14:05:14.984Z</time></trkpt><trkpt lat="45.87267647145508" lon="11.08073446487492"><ele>490.0</ele><time>2026-04-24T14:05:15.984Z</time></trkpt><trkpt lat="45.8727287946076" lon="11.080594641625279"><ele>492.1666666666667</ele><time>2026-04-24T14:05:16.984Z</time></trkpt><trkpt lat="45.87277890888793" lon="11.080507201712361"><ele>494.33333333333337</ele><time>2026-04-24T14:05:17.984Z</time></trkpt><trkpt lat="45.8728262579581" lon="11.0804396991446"><ele>496.5</ele><time>2026-04-24T14:05:18.984Z</time></trkpt><trkpt lat="45.87286239100172" lon="11.080309865687202"><ele>498.66666666666663</ele><time>2026-04-24T14:05:20.984Z</time></trkpt><trkpt lat="45.87290404152161" lon="11.08019889457584"><ele>500.8333333333333</ele><time>2026-04-24T14:05:22.984Z</time></trkpt><trkpt lat="45.872937218569035" lon="11.08006388519552"><ele>503.0</ele><time>2026-04-24T14:05:24.984Z</time></trkpt><trkpt lat="45.872957297380566" lon="11.07992272498329"><ele>504.8333333333333</ele><time>2026-04-24T14:05:26.984Z</time></trkpt><trkpt lat="45.872978485285316" lon="11.079804631658885"><ele>506.66666666666663</ele><time>2026-04-24T14:05:29.984Z</time></trkpt><trkpt lat="45.872910477173136" lon="11.07975248904319"><ele>508.5</ele><time>2026-04-24T14:05:31.984Z</time></trkpt><trkpt lat="45.87289040898606" lon="11.079659636186081"><ele>510.33333333333337</ele><time>2026-04-24T14:05:33.984Z</time></trkpt><trkpt lat="45.872892405272395" lon="11.079508211041546"><ele>512.1666666666667</ele><time>2026-04-24T14:05:36.984Z</time></trkpt><trkpt lat="45.872904878634685" lon="11.079385384499698"><ele>514.0</ele><time>2026-04-24T14:05:38.984Z</time></trkpt><trkpt lat="45.872952755433225" lon="11.079222566958634"><ele>514.0</ele><time>2026-04-24T14:05:40.984Z</time></trkpt><trkpt lat="45.87298196939463" lon="11.079123465456576"><ele>514.0</ele><time>2026-04-24T14:05:41.984Z</time></trkpt><trkpt lat="45.87298154486029" lon="11.079030414897915"><ele>514.0</ele><time>2026-04-24T14:05:42.984Z</time></trkpt><trkpt lat="45.872972809653575" lon="11.078904577877534"><ele>514.0</ele><time>2026-04-24T14:05:44.984Z</time></trkpt><trkpt lat="45.872930119153075" lon="11.078832337303314"><ele>514.0</ele><time>2026-04-24T14:05:45.984Z</time></trkpt><trkpt lat="45.87288517851329" lon="11.078760802880007"><ele>514.0</ele><time>2026-04-24T14:05:47.985Z</time></trkpt><trkpt lat="45.872905054748685" lon="11.078660741143308"><ele>514.0</ele><time>2026-04-24T14:05:49.985Z</time></trkpt><trkpt lat="45.87287710524261" lon="11.078576353602209"><ele>515.0</ele><time>2026-04-24T14:05:52.985Z</time></trkpt><trkpt lat="45.87288909674518" lon="11.078482028216161"><ele>516.0</ele><time>2026-04-24T14:05:58.985Z</time></trkpt><trkpt lat="45.872816284681065" lon="11.078386570605021"><ele>517.0</ele><time>2026-04-24T14:06:01.985Z</time></trkpt><trkpt lat="45.87272251378458" lon="11.078315087456659"><ele>518.0</ele><time>2026-04-24T14:06:03.985Z</time></trkpt><trkpt lat="45.87266805351067" lon="11.078253957797582"><ele>519.0</ele><time>2026-04-24T14:06:07.985Z</time></trkpt><trkpt lat="45.87260772188361" lon="11.078216967636111"><ele>520.0</ele><time>2026-04-24T14:06:17.985Z</time></trkpt><trkpt lat="45.87255763953124" lon="11.078154332268644"><ele>526.4</ele><time>2026-04-24T14:07:47.984Z</time></trkpt><trkpt lat="45.87245088577579" lon="11.078048192165642"><ele>532.8</ele><time>2026-04-24T14:07:49.984Z</time></trkpt><trkpt lat="45.87238447602892" lon="11.077952733852477"><ele>539.2</ele><time>2026-04-24T14:07:52.984Z</time></trkpt><trkpt lat="45.872323672567354" lon="11.077832434197644"><ele>545.6</ele><time>2026-04-24T14:07:54.985Z</time></trkpt><trkpt lat="45.87226007853608" lon="11.077753186303559"><ele>552.0</ele><time>2026-04-24T14:07:55.985Z</time></trkpt><trkpt lat="45.87220197028266" lon="11.077660509604126"><ele>552.0</ele><time>2026-04-24T14:07:56.985Z</time></trkpt><trkpt lat="45.87212031764705" lon="11.077630396825812"><ele>552.0</ele><time>2026-04-24T14:07:58.985Z</time></trkpt><trkpt lat="45.872052920954076" lon="11.07756673186787"><ele>552.0</ele><time>2026-04-24T14:07:59.985Z</time></trkpt><trkpt lat="45.871966890111956" lon="11.077429311863193"><ele>552.0</ele><time>2026-04-24T14:08:01.985Z</time></trkpt><trkpt lat="45.871825816209586" lon="11.077337764036585"><ele>552.0</ele><time>2026-04-24T14:08:03.985Z</time></trkpt><trkpt lat="45.87170916366458" lon="11.077300172300182"><ele>553.4</ele><time>2026-04-24T14:08:04.985Z</time></trkpt><trkpt lat="45.87163257227246" lon="11.077250921551236"><ele>554.8000000000001</ele><time>2026-04-24T14:08:05.985Z</time></trkpt><trkpt lat="45.8715778757159" lon="11.07714588014608"><ele>556.2</ele><time>2026-04-24T14:08:06.985Z</time></trkpt><trkpt lat="45.871546177828506" lon="11.07701710092507"><ele>557.6</ele><time>2026-04-24T14:08:07.985Z</time></trkpt><trkpt lat="45.87154011243584" lon="11.076869127029187"><ele>559.0</ele><time>2026-04-24T14:08:08.985Z</time></trkpt><trkpt lat="45.871530022239575" lon="11.076707194813446"><ele>557.2</ele><time>2026-04-24T14:08:09.984Z</time></trkpt><trkpt lat="45.87151710468906" lon="11.076567350369205"><ele>555.4</ele><time>2026-04-24T14:08:10.984Z</time></trkpt><trkpt lat="45.87153501513335" lon="11.076464074541919"><ele>553.6</ele><time>2026-04-24T14:08:11.985Z</time></trkpt><trkpt lat="45.871545409551" lon="11.076352571013224"><ele>551.8</ele><time>2026-04-24T14:08:12.985Z</time></trkpt><trkpt lat="45.8715288966499" lon="11.076210676554474"><ele>550.0</ele><time>2026-04-24T14:08:13.985Z</time></trkpt><trkpt lat="45.87149906687656" lon="11.07603821610512"><ele>550.0</ele><time>2026-04-24T14:08:14.985Z</time></trkpt><trkpt lat="45.8714752653825" lon="11.075906057795654"><ele>550.0</ele><time>2026-04-24T14:08:15.985Z</time></trkpt><trkpt lat="45.87145620805252" lon="11.07579134436244"><ele>550.0</ele><time>2026-04-24T14:08:17.985Z</time></trkpt><trkpt lat="45.87136004481933" lon="11.075690464485042"><ele>550.0</ele><time>2026-04-24T14:08:19.985Z</time></trkpt><trkpt lat="45.87130567972042" lon="11.075630524858273"><ele>550.0</ele><time>2026-04-24T14:08:20.985Z</time></trkpt><trkpt lat="45.871289956708786" lon="11.075541035499356"><ele>550.0</ele><time>2026-04-24T14:08:21.985Z</time></trkpt><trkpt lat="45.871168382356984" lon="11.075445744374816"><ele>549.2</ele><time>2026-04-24T14:08:23.985Z</time></trkpt><trkpt lat="45.871062611315445" lon="11.075413773477095"><ele>548.4</ele><time>2026-04-24T14:08:24.985Z</time></trkpt><trkpt lat="45.87099371922818" lon="11.075410763117537"><ele>547.6</ele><time>2026-04-24T14:08:25.985Z</time></trkpt><trkpt lat="45.870917775437384" lon="11.075437481901828"><ele>546.8</ele><time>2026-04-24T14:08:26.985Z</time></trkpt><trkpt lat="45.87082927658932" lon="11.07540170961971"><ele>546.0</ele><time>2026-04-24T14:08:27.985Z</time></trkpt><trkpt lat="45.87070137580501" lon="11.075319727353806"><ele>546.0</ele><time>2026-04-24T14:08:28.985Z</time></trkpt><trkpt lat="45.87060388723951" lon="11.075250608509405"><ele>546.0</ele><time>2026-04-24T14:08:29.985Z</time></trkpt><trkpt lat="45.87052996680528" lon="11.075172449326052"><ele>546.0</ele><time>2026-04-24T14:08:30.985Z</time></trkpt><trkpt lat="45.87048167245035" lon="11.075080410764219"><ele>546.0</ele><time>2026-04-24T14:08:32.984Z</time></trkpt><trkpt lat="45.870384577956514" lon="11.075132279632681"><ele>546.0</ele><time>2026-04-24T14:08:35.984Z</time></trkpt><trkpt lat="45.87034427854287" lon="11.075218921054992"><ele>546.0</ele><time>2026-04-24T14:08:36.984Z</time></trkpt><trkpt lat="45.870276322734526" lon="11.07528176286491"><ele>546.0</ele><time>2026-04-24T14:08:37.984Z</time></trkpt><trkpt lat="45.870194722646744" lon="11.075336066825923"><ele>546.0</ele><time>2026-04-24T14:08:38.984Z</time></trkpt><trkpt lat="45.87011516669952" lon="11.075377000912383"><ele>546.0</ele><time>2026-04-24T14:08:39.984Z</time></trkpt><trkpt lat="45.87002350337288" lon="11.075420437455415"><ele>546.0</ele><time>2026-04-24T14:08:40.984Z</time></trkpt><trkpt lat="45.869923620296866" lon="11.07547010984858"><ele>545.0</ele><time>2026-04-24T14:08:41.984Z</time></trkpt><trkpt lat="45.869828196693774" lon="11.07553820210714"><ele>544.0</ele><time>2026-04-24T14:08:42.984Z</time></trkpt><trkpt lat="45.8697423190811" lon="11.07559630476634"><ele>543.0</ele><time>2026-04-24T14:08:43.984Z</time></trkpt><trkpt lat="45.86965989636038" lon="11.07565715066754"><ele>542.0</ele><time>2026-04-24T14:08:44.984Z</time></trkpt><trkpt lat="45.869569667554536" lon="11.075715623180743"><ele>541.0</ele><time>2026-04-24T14:08:45.984Z</time></trkpt><trkpt lat="45.869471546975106" lon="11.075760404426378"><ele>544.0</ele><time>2026-04-24T14:08:46.984Z</time></trkpt><trkpt lat="45.86937842923655" lon="11.075800170674425"><ele>547.0</ele><time>2026-04-24T14:08:47.984Z</time></trkpt><trkpt lat="45.869314685845595" lon="11.075858676314738"><ele>550.0</ele><time>2026-04-24T14:08:48.984Z</time></trkpt><trkpt lat="45.869286823667444" lon="11.075967963350292"><ele>553.0</ele><time>2026-04-24T14:08:49.984Z</time></trkpt><trkpt lat="45.86927481794649" lon="11.076073598492611"><ele>556.0</ele><time>2026-04-24T14:08:50.984Z</time></trkpt><trkpt lat="45.86923881927793" lon="11.076203958045566"><ele>559.0</ele><time>2026-04-24T14:08:51.984Z</time></trkpt><trkpt lat="45.86917483122048" lon="11.076306824075905"><ele>559.0</ele><time>2026-04-24T14:08:52.984Z</time></trkpt><trkpt lat="45.86908086546469" lon="11.076359897215758"><ele>559.0</ele><time>2026-04-24T14:08:53.984Z</time></trkpt><trkpt lat="45.86896986396926" lon="11.076347009612777"><ele>559.0</ele><time>2026-04-24T14:08:54.984Z</time></trkpt><trkpt lat="45.86887602048225" lon="11.07632735118061"><ele>559.0</ele><time>2026-04-24T14:08:55.984Z</time></trkpt><trkpt lat="45.86875984696518" lon="11.0763039334146"><ele>559.0</ele><time>2026-04-24T14:08:56.984Z</time></trkpt><trkpt lat="45.86865878572961" lon="11.076281718207436"><ele>559.0</ele><time>2026-04-24T14:08:57.984Z</time></trkpt><trkpt lat="45.86855703655994" lon="11.076266784295658"><ele>559.0</ele><time>2026-04-24T14:08:58.984Z</time></trkpt><trkpt lat="45.86844074780372" lon="11.076265404836446"><ele>559.0</ele><time>2026-04-24T14:08:59.984Z</time></trkpt><trkpt lat="45.86832341974888" lon="11.076300528054999"><ele>559.0</ele><time>2026-04-24T14:09:00.984Z</time></trkpt><trkpt lat="45.8682153952785" lon="11.076373357826446"><ele>559.6</ele><time>2026-04-24T14:09:01.984Z</time></trkpt><trkpt lat="45.868119612325394" lon="11.076475004330147"><ele>560.2</ele><time>2026-04-24T14:09:02.984Z</time></trkpt><trkpt lat="45.86803500195251" lon="11.076560583354247"><ele>560.8000000000001</ele><time>2026-04-24T14:09:03.984Z</time></trkpt><trkpt lat="45.86794583173575" lon="11.07662578613178"><ele>561.4</ele><time>2026-04-24T14:09:04.984Z</time></trkpt><trkpt lat="45.86788249739683" lon="11.076720470815996"><ele>562.0</ele><time>2026-04-24T14:09:05.984Z</time></trkpt><trkpt lat="45.867807019195645" lon="11.076799785631707"><ele>565.8000000000001</ele><time>2026-04-24T14:09:06.984Z</time></trkpt><trkpt lat="45.867714119102516" lon="11.076876053620564"><ele>569.6</ele><time>2026-04-24T14:09:07.984Z</time></trkpt><trkpt lat="45.867651438766096" lon="11.077003232879083"><ele>573.4000000000001</ele><time>2026-04-24T14:09:08.984Z</time></trkpt><trkpt lat="45.867574674711875" lon="11.077081658759028"><ele>577.2</ele><time>2026-04-24T14:09:09.984Z</time></trkpt><trkpt lat="45.86752013826252" lon="11.077180567833723"><ele>581.0</ele><time>2026-04-24T14:09:10.984Z</time></trkpt><trkpt lat="45.867265889061855" lon="11.07706568391796"><ele>581.0</ele><time>2026-04-24T14:09:12.984Z</time></trkpt><trkpt lat="45.86717579616653" lon="11.0770535025909"><ele>581.0</ele><time>2026-04-24T14:09:13.984Z</time></trkpt><trkpt lat="45.8670987018897" lon="11.077045097205756"><ele>581.0</ele><time>2026-04-24T14:09:14.984Z</time></trkpt><trkpt lat="45.86703636854226" lon="11.077102054098974"><ele>581.0</ele><time>2026-04-24T14:09:15.984Z</time></trkpt><trkpt lat="45.86698289308093" lon="11.077197475295307"><ele>581.0</ele><time>2026-04-24T14:09:16.984Z</time></trkpt><trkpt lat="45.86694692637449" lon="11.07729666697197"><ele>581.0</ele><time>2026-04-24T14:09:17.984Z</time></trkpt><trkpt lat="45.86690372663048" lon="11.077378175823617"><ele>581.0</ele><time>2026-04-24T14:09:18.984Z</time></trkpt><trkpt lat="45.86684405547374" lon="11.077442381708332"><ele>581.0</ele><time>2026-04-24T14:09:19.984Z</time></trkpt><trkpt lat="45.86678345690594" lon="11.077470247612576"><ele>581.0</ele><time>2026-04-24T14:09:20.984Z</time></trkpt><trkpt lat="45.86670560594657" lon="11.077480865595575"><ele>581.0</ele><time>2026-04-24T14:09:21.984Z</time></trkpt><trkpt lat="45.866603860030644" lon="11.077476181086054"><ele>581.0</ele><time>2026-04-24T14:09:22.984Z</time></trkpt><trkpt lat="45.86650630897339" lon="11.07745178988912"><ele>581.0</ele><time>2026-04-24T14:09:23.984Z</time></trkpt><trkpt lat="45.86642518500656" lon="11.07741986352656"><ele>581.0</ele><time>2026-04-24T14:09:24.984Z</time></trkpt><trkpt lat="45.866354026072294" lon="11.077373739898034"><ele>581.0</ele><time>2026-04-24T14:09:25.984Z</time></trkpt><trkpt lat="45.866295499107046" lon="11.077335443584383"><ele>581.0</ele><time>2026-04-24T14:09:26.984Z</time></trkpt><trkpt lat="45.866258252929796" lon="11.077478427666136"><ele>581.0</ele><time>2026-04-24T14:09:30.984Z</time></trkpt><trkpt lat="45.86622505370738" lon="11.077595853031426"><ele>581.0</ele><time>2026-04-24T14:09:34.984Z</time></trkpt><trkpt lat="45.86626091895806" lon="11.077710904091843"><ele>581.0</ele><time>2026-04-24T14:09:36.984Z</time></trkpt><trkpt lat="45.86628886399891" lon="11.077828909585186"><ele>585.8571428571429</ele><time>2026-04-24T14:09:38.984Z</time></trkpt><trkpt lat="45.86628855886872" lon="11.07793355387755"><ele>590.7142857142858</ele><time>2026-04-24T14:09:40.984Z</time></trkpt><trkpt lat="45.86623643558974" lon="11.077986264403147"><ele>595.5714285714286</ele><time>2026-04-24T14:09:41.984Z</time></trkpt><trkpt lat="45.86618531788224" lon="11.078060778345257"><ele>600.4285714285714</ele><time>2026-04-24T14:09:43.984Z</time></trkpt><trkpt lat="45.86612002803898" lon="11.078103387564099"><ele>605.2857142857143</ele><time>2026-04-24T14:09:46.984Z</time></trkpt><trkpt lat="45.86606660885366" lon="11.078157726260713"><ele>610.1428571428571</ele><time>2026-04-24T14:09:47.984Z</time></trkpt><trkpt lat="45.866016593998424" lon="11.078242137655122"><ele>615.0</ele><time>2026-04-24T14:09:48.984Z</time></trkpt><trkpt lat="45.86592091156553" lon="11.078252381630628"><ele>621.0</ele><time>2026-04-24T14:09:50.984Z</time></trkpt><trkpt lat="45.865917230024074" lon="11.078380022810776"><ele>627.0</ele><time>2026-04-24T14:09:52.984Z</time></trkpt><trkpt lat="45.86590534403172" lon="11.078517244892197"><ele>633.0</ele><time>2026-04-24T14:09:53.983Z</time></trkpt><trkpt lat="45.865883465402426" lon="11.078662524500071"><ele>639.0</ele><time>2026-04-24T14:09:54.983Z</time></trkpt><trkpt lat="45.86581627577094" lon="11.078758726712655"><ele>645.0</ele><time>2026-04-24T14:09:55.983Z</time></trkpt><trkpt lat="45.86574097064225" lon="11.07887848601541"><ele>645.0</ele><time>2026-04-24T14:09:56.983Z</time></trkpt><trkpt lat="45.86568265788923" lon="11.07894111452627"><ele>645.0</ele><time>2026-04-24T14:09:57.983Z</time></trkpt><trkpt lat="45.86557138997182" lon="11.079004426808693"><ele>645.0</ele><time>2026-04-24T14:09:59.984Z</time></trkpt><trkpt lat="45.865502072670694" lon="11.079065312010954"><ele>645.0</ele><time>2026-04-24T14:10:01.985Z</time></trkpt><trkpt lat="45.86555272709412" lon="11.079219387621386"><ele>645.0</ele><time>2026-04-24T14:10:03.985Z</time></trkpt><trkpt lat="45.865596707111855" lon="11.079304532106203"><ele>647.5</ele><time>2026-04-24T14:10:04.985Z</time></trkpt><trkpt lat="45.865647013155076" lon="11.079412679403552"><ele>650.0</ele><time>2026-04-24T14:10:05.984Z</time></trkpt><trkpt lat="45.86567468100272" lon="11.079521524458348"><ele>652.5</ele><time>2026-04-24T14:10:06.984Z</time></trkpt><trkpt lat="45.86568322003601" lon="11.079612301641683"><ele>655.0</ele><time>2026-04-24T14:10:07.985Z</time></trkpt><trkpt lat="45.86563959014183" lon="11.079716162605424"><ele>657.5</ele><time>2026-04-24T14:10:08.985Z</time></trkpt><trkpt lat="45.86562493702502" lon="11.079824510524043"><ele>660.0</ele><time>2026-04-24T14:10:09.984Z</time></trkpt><trkpt lat="45.86556991577216" lon="11.080031058358058"><ele>662.6</ele><time>2026-04-24T14:10:11.984Z</time></trkpt><trkpt lat="45.86553399314564" lon="11.080166659780856"><ele>665.2</ele><time>2026-04-24T14:10:12.984Z</time></trkpt><trkpt lat="45.86550149662804" lon="11.080289328300761"><ele>667.8</ele><time>2026-04-24T14:10:13.984Z</time></trkpt><trkpt lat="45.865473208872935" lon="11.080399661064881"><ele>670.4</ele><time>2026-04-24T14:10:14.984Z</time></trkpt><trkpt lat="45.865434973093485" lon="11.080549548685303"><ele>673.0</ele><time>2026-04-24T14:10:16.984Z</time></trkpt><trkpt lat="45.865413547046145" lon="11.08064196564399"><ele>673.0</ele><time>2026-04-24T14:10:21.984Z</time></trkpt><trkpt lat="45.865423269047234" lon="11.080757583750513"><ele>673.0</ele><time>2026-04-24T14:10:24.984Z</time></trkpt><trkpt lat="45.86542598391024" lon="11.080931460118055"><ele>673.0</ele><time>2026-04-24T14:10:26.984Z</time></trkpt><trkpt lat="45.86544527772454" lon="11.081022274421755"><ele>673.0</ele><time>2026-04-24T14:10:27.984Z</time></trkpt><trkpt lat="45.865452319461426" lon="11.081117128510229"><ele>673.0</ele><time>2026-04-24T14:10:28.984Z</time></trkpt><trkpt lat="45.86540257953401" lon="11.081295410285657"><ele>673.6666666666667</ele><time>2026-04-24T14:10:30.984Z</time></trkpt><trkpt lat="45.86535345472614" lon="11.081385625403083"><ele>674.3333333333334</ele><time>2026-04-24T14:10:31.984Z</time></trkpt><trkpt lat="45.86532644625658" lon="11.081512002982903"><ele>675.0</ele><time>2026-04-24T14:10:32.984Z</time></trkpt><trkpt lat="45.865309247726735" lon="11.081640001244907"><ele>675.6666666666666</ele><time>2026-04-24T14:10:33.984Z</time></trkpt><trkpt lat="45.86527842246918" lon="11.081743720239361"><ele>676.3333333333333</ele><time>2026-04-24T14:10:34.984Z</time></trkpt><trkpt lat="45.865234576636894" lon="11.081851329617514"><ele>677.0</ele><time>2026-04-24T14:10:35.984Z</time></trkpt><trkpt lat="45.865170149233904" lon="11.081962301480246"><ele>678.8</ele><time>2026-04-24T14:10:36.984Z</time></trkpt><trkpt lat="45.865098415701006" lon="11.082070990956057"><ele>680.6</ele><time>2026-04-24T14:10:37.984Z</time></trkpt><trkpt lat="45.86502422244966" lon="11.082170910411977"><ele>682.4</ele><time>2026-04-24T14:10:38.984Z</time></trkpt><trkpt lat="45.864949080535865" lon="11.082283219823093"><ele>684.1999999999999</ele><time>2026-04-24T14:10:39.984Z</time></trkpt><trkpt lat="45.864863940260555" lon="11.08239998011371"><ele>686.0</ele><time>2026-04-24T14:10:40.984Z</time></trkpt><trkpt lat="45.86478557226363" lon="11.08251630599355"><ele>687.0</ele><time>2026-04-24T14:10:41.984Z</time></trkpt><trkpt lat="45.864689716152256" lon="11.08263262321688"><ele>688.0</ele><time>2026-04-24T14:10:42.984Z</time></trkpt><trkpt lat="45.86458671131781" lon="11.082741815118963"><ele>689.0</ele><time>2026-04-24T14:10:43.984Z</time></trkpt><trkpt lat="45.8644815454932" lon="11.082850785194529"><ele>690.0</ele><time>2026-04-24T14:10:44.984Z</time></trkpt><trkpt lat="45.864384378756405" lon="11.082950070250263"><ele>690.0</ele><time>2026-04-24T14:10:45.984Z</time></trkpt><trkpt lat="45.86428640923419" lon="11.083027577972597"><ele>690.0</ele><time>2026-04-24T14:10:46.984Z</time></trkpt><trkpt lat="45.864219653560475" lon="11.083125255717208"><ele>690.0</ele><time>2026-04-24T14:10:47.984Z</time></trkpt><trkpt lat="45.86415233733788" lon="11.083206341393755"><ele>690.0</ele><time>2026-04-24T14:10:48.984Z</time></trkpt><trkpt lat="45.864090603876754" lon="11.083294476658043"><ele>690.0</ele><time>2026-04-24T14:10:49.984Z</time></trkpt><trkpt lat="45.864017173766136" lon="11.083395550527735"><ele>690.5</ele><time>2026-04-24T14:10:50.984Z</time></trkpt><trkpt lat="45.86395855840701" lon="11.083524169666639"><ele>691.0</ele><time>2026-04-24T14:10:51.984Z</time></trkpt><trkpt lat="45.86391158203146" lon="11.08363856154479"><ele>691.5</ele><time>2026-04-24T14:10:52.984Z</time></trkpt><trkpt lat="45.863881987327844" lon="11.083749687833889"><ele>692.0</ele><time>2026-04-24T14:10:53.984Z</time></trkpt><trkpt lat="45.86386808163092" lon="11.08385743217991"><ele>692.5</ele><time>2026-04-24T14:10:54.984Z</time></trkpt><trkpt lat="45.86384151791565" lon="11.083956104095025"><ele>693.0</ele><time>2026-04-24T14:10:55.984Z</time></trkpt><trkpt lat="45.86381164464565" lon="11.084063276707168"><ele>693.6666666666666</ele><time>2026-04-24T14:10:56.984Z</time></trkpt><trkpt lat="45.86378355239089" lon="11.08417457174049"><ele>694.3333333333334</ele><time>2026-04-24T14:10:57.984Z</time></trkpt><trkpt lat="45.86374714782034" lon="11.084281666299313"><ele>695.0</ele><time>2026-04-24T14:10:58.984Z</time></trkpt><trkpt lat="45.863719145184575" lon="11.084398600158913"><ele>695.6666666666667</ele><time>2026-04-24T14:10:59.984Z</time></trkpt><trkpt lat="45.86368902654826" lon="11.084507547918497"><ele>696.3333333333334</ele><time>2026-04-24T14:11:00.984Z</time></trkpt><trkpt lat="45.86365725941325" lon="11.084608851877093"><ele>697.0</ele><time>2026-04-24T14:11:01.984Z</time></trkpt><trkpt lat="45.86363515311924" lon="11.084711696066973"><ele>697.0</ele><time>2026-04-24T14:11:02.984Z</time></trkpt><trkpt lat="45.8636119564383" lon="11.084819854558017"><ele>697.0</ele><time>2026-04-24T14:11:03.984Z</time></trkpt><trkpt lat="45.863528237560146" lon="11.084850890338533"><ele>697.0</ele><time>2026-04-24T14:11:04.984Z</time></trkpt><trkpt lat="45.863465295885256" lon="11.084943444998247"><ele>697.0</ele><time>2026-04-24T14:11:05.984Z</time></trkpt><trkpt lat="45.86340311901082" lon="11.085003821699567"><ele>697.0</ele><time>2026-04-24T14:11:06.984Z</time></trkpt><trkpt lat="45.8633572395939" lon="11.085089365245977"><ele>697.0</ele><time>2026-04-24T14:11:07.984Z</time></trkpt><trkpt lat="45.86331729038038" lon="11.085202439970088"><ele>696.5</ele><time>2026-04-24T14:11:08.984Z</time></trkpt><trkpt lat="45.863281810035815" lon="11.085319206033441"><ele>696.0</ele><time>2026-04-24T14:11:09.983Z</time></trkpt><trkpt lat="45.863137229880806" lon="11.085391319099665"><ele>695.5</ele><time>2026-04-24T14:11:10.983Z</time></trkpt><trkpt lat="45.86309207805522" lon="11.08553346700022"><ele>695.0</ele><time>2026-04-24T14:11:11.983Z</time></trkpt><trkpt lat="45.86304883610842" lon="11.085669602179605"><ele>695.25</ele><time>2026-04-24T14:11:12.983Z</time></trkpt><trkpt lat="45.86300427866992" lon="11.08580987882209"><ele>695.5</ele><time>2026-04-24T14:11:13.983Z</time></trkpt><trkpt lat="45.8630830992968" lon="11.086038675484563"><ele>695.75</ele><time>2026-04-24T14:11:14.983Z</time></trkpt><trkpt lat="45.863036593769976" lon="11.086174924971997"><ele>696.0</ele><time>2026-04-24T14:11:15.983Z</time></trkpt><trkpt lat="45.862969156901606" lon="11.086313534841599"><ele>696.0</ele><time>2026-04-24T14:11:16.983Z</time></trkpt><trkpt lat="45.86288946977204" lon="11.086408602752408"><ele>696.0</ele><time>2026-04-24T14:11:17.983Z</time></trkpt><trkpt lat="45.86278826308395" lon="11.086468207454017"><ele>696.0</ele><time>2026-04-24T14:11:18.983Z</time></trkpt><trkpt lat="45.862684197267996" lon="11.0864670446262"><ele>696.0</ele><time>2026-04-24T14:11:19.983Z</time></trkpt><trkpt lat="45.86257354230239" lon="11.086492936421955"><ele>696.0</ele><time>2026-04-24T14:11:20.983Z</time></trkpt><trkpt lat="45.8624553306783" lon="11.086486975799234"><ele>697.25</ele><time>2026-04-24T14:11:21.983Z</time></trkpt><trkpt lat="45.86233871215062" lon="11.086496953167286"><ele>698.5</ele><time>2026-04-24T14:11:22.983Z</time></trkpt><trkpt lat="45.86222697925901" lon="11.086525674364292"><ele>699.75</ele><time>2026-04-24T14:11:23.983Z</time></trkpt><trkpt lat="45.86211769426345" lon="11.08658136869565"><ele>701.0</ele><time>2026-04-24T14:11:24.983Z</time></trkpt><trkpt lat="45.86201021727612" lon="11.086677640110818"><ele>701.0</ele><time>2026-04-24T14:11:25.983Z</time></trkpt><trkpt lat="45.86192828242987" lon="11.086785061314254"><ele>701.0</ele><time>2026-04-24T14:11:26.983Z</time></trkpt><trkpt lat="45.861849384094945" lon="11.08687103577523"><ele>701.0</ele><time>2026-04-24T14:11:27.983Z</time></trkpt><trkpt lat="45.86176412200096" lon="11.086942836664866"><ele>701.0</ele><time>2026-04-24T14:11:28.983Z</time></trkpt><trkpt lat="45.86167687283688" lon="11.08697940832069"><ele>701.0</ele><time>2026-04-24T14:11:29.983Z</time></trkpt><trkpt lat="45.861588961163" lon="11.0869809656689"><ele>699.5</ele><time>2026-04-24T14:11:30.983Z</time></trkpt><trkpt lat="45.861491831752716" lon="11.086959715392474"><ele>698.0</ele><time>2026-04-24T14:11:31.983Z</time></trkpt><trkpt lat="45.861384836504094" lon="11.086910785660102"><ele>696.5</ele><time>2026-04-24T14:11:32.983Z</time></trkpt><trkpt lat="45.86126951775683" lon="11.086834336237397"><ele>695.0</ele><time>2026-04-24T14:11:33.983Z</time></trkpt><trkpt lat="45.86112984787519" lon="11.086757221268618"><ele>695.0</ele><time>2026-04-24T14:11:34.983Z</time></trkpt><trkpt lat="45.860990026426734" lon="11.086752129314402"><ele>695.0</ele><time>2026-04-24T14:11:35.983Z</time></trkpt><trkpt lat="45.86086306526274" lon="11.086776236089703"><ele>695.0</ele><time>2026-04-24T14:11:36.983Z</time></trkpt><trkpt lat="45.86072599898694" lon="11.086809475155134"><ele>695.0</ele><time>2026-04-24T14:11:37.983Z</time></trkpt><trkpt lat="45.86060670464185" lon="11.086836516334913"><ele>693.75</ele><time>2026-04-24T14:11:38.983Z</time></trkpt><trkpt lat="45.860485252207404" lon="11.086854470753018"><ele>692.5</ele><time>2026-04-24T14:11:39.983Z</time></trkpt><trkpt lat="45.8603743994729" lon="11.086882591630674"><ele>691.25</ele><time>2026-04-24T14:11:40.983Z</time></trkpt><trkpt lat="45.86026538659524" lon="11.08691021950016"><ele>690.0</ele><time>2026-04-24T14:11:41.983Z</time></trkpt><trkpt lat="45.86015430658504" lon="11.086929150224737"><ele>688.2</ele><time>2026-04-24T14:11:42.983Z</time></trkpt><trkpt lat="45.86004406681226" lon="11.086941967280916"><ele>686.4</ele><time>2026-04-24T14:11:43.983Z</time></trkpt><trkpt lat="45.859941451679276" lon="11.086951605714424"><ele>684.5999999999999</ele><time>2026-04-24T14:11:44.983Z</time></trkpt><trkpt lat="45.859833626420276" lon="11.086967215878305"><ele>682.8</ele><time>2026-04-24T14:11:45.983Z</time></trkpt><trkpt lat="45.85973103131844" lon="11.086977778079167"><ele>681.0</ele><time>2026-04-24T14:11:46.983Z</time></trkpt><trkpt lat="45.85962593742724" lon="11.087001824966805"><ele>681.0</ele><time>2026-04-24T14:11:47.983Z</time></trkpt><trkpt lat="45.85952164840291" lon="11.08703933159656"><ele>681.0</ele><time>2026-04-24T14:11:48.983Z</time></trkpt><trkpt lat="45.85941267247845" lon="11.08710801577966"><ele>681.0</ele><time>2026-04-24T14:11:49.983Z</time></trkpt><trkpt lat="45.859291223126135" lon="11.087186004891679"><ele>681.0</ele><time>2026-04-24T14:11:50.983Z</time></trkpt><trkpt lat="45.8591691344881" lon="11.087267610296351"><ele>682.5</ele><time>2026-04-24T14:11:51.983Z</time></trkpt><trkpt lat="45.85905583335173" lon="11.087348730487191"><ele>684.0</ele><time>2026-04-24T14:11:52.983Z</time></trkpt><trkpt lat="45.85894725098069" lon="11.087442927799577"><ele>685.5</ele><time>2026-04-24T14:11:53.983Z</time></trkpt><trkpt lat="45.85883936516057" lon="11.08753453709575"><ele>687.0</ele><time>2026-04-24T14:11:54.983Z</time></trkpt><trkpt lat="45.8587250916225" lon="11.087631290267936"><ele>687.0</ele><time>2026-04-24T14:11:55.983Z</time></trkpt><trkpt lat="45.85859803646223" lon="11.0877255871666"><ele>687.0</ele><time>2026-04-24T14:11:56.983Z</time></trkpt><trkpt lat="45.858470318820366" lon="11.087828644932443"><ele>687.0</ele><time>2026-04-24T14:11:57.983Z</time></trkpt><trkpt lat="45.8583497311871" lon="11.08792424327066"><ele>687.0</ele><time>2026-04-24T14:11:58.983Z</time></trkpt><trkpt lat="45.858227784703935" lon="11.08801229308398"><ele>680.75</ele><time>2026-04-24T14:11:59.983Z</time></trkpt><trkpt lat="45.85810954803669" lon="11.088075418537723"><ele>674.5</ele><time>2026-04-24T14:12:00.983Z</time></trkpt><trkpt lat="45.857985438277254" lon="11.088120836937591"><ele>668.25</ele><time>2026-04-24T14:12:01.983Z</time></trkpt><trkpt lat="45.85786232474654" lon="11.08813068708703"><ele>662.0</ele><time>2026-04-24T14:12:02.983Z</time></trkpt><trkpt lat="45.85773928658625" lon="11.088153509938627"><ele>661.25</ele><time>2026-04-24T14:12:03.983Z</time></trkpt><trkpt lat="45.85761837758285" lon="11.088148046231519"><ele>660.5</ele><time>2026-04-24T14:12:04.983Z</time></trkpt><trkpt lat="45.85749733935246" lon="11.088128584045696"><ele>659.75</ele><time>2026-04-24T14:12:05.984Z</time></trkpt><trkpt lat="45.85737082229381" lon="11.088114877201132"><ele>659.0</ele><time>2026-04-24T14:12:06.984Z</time></trkpt><trkpt lat="45.85723889342638" lon="11.088108905744988"><ele>659.0</ele><time>2026-04-24T14:12:07.984Z</time></trkpt><trkpt lat="45.85710273017451" lon="11.088097467024722"><ele>659.0</ele><time>2026-04-24T14:12:08.984Z</time></trkpt><trkpt lat="45.85697892982244" lon="11.088088470362996"><ele>659.0</ele><time>2026-04-24T14:12:09.984Z</time></trkpt><trkpt lat="45.85685614359407" lon="11.088076013344875"><ele>659.0</ele><time>2026-04-24T14:12:10.984Z</time></trkpt><trkpt lat="45.85673480270745" lon="11.088060493489037"><ele>660.5</ele><time>2026-04-24T14:12:11.984Z</time></trkpt><trkpt lat="45.856609633298184" lon="11.088046974690572"><ele>662.0</ele><time>2026-04-24T14:12:12.984Z</time></trkpt><trkpt lat="45.85648660379986" lon="11.088045595889282"><ele>663.5</ele><time>2026-04-24T14:12:13.984Z</time></trkpt><trkpt lat="45.856363400601445" lon="11.08805608209185"><ele>665.0</ele><time>2026-04-24T14:12:14.984Z</time></trkpt><trkpt lat="45.856237826297566" lon="11.08808447756291"><ele>665.0</ele><time>2026-04-24T14:12:15.984Z</time></trkpt><trkpt lat="45.85613748905034" lon="11.088191490430587"><ele>665.0</ele><time>2026-04-24T14:12:16.983Z</time></trkpt><trkpt lat="45.85604506497972" lon="11.088306802803558"><ele>665.0</ele><time>2026-04-24T14:12:17.984Z</time></trkpt><trkpt lat="45.8559594013162" lon="11.088427245692245"><ele>665.0</ele><time>2026-04-24T14:12:18.984Z</time></trkpt><trkpt lat="45.855873354338314" lon="11.088565800429029"><ele>665.0</ele><time>2026-04-24T14:12:19.984Z</time></trkpt><trkpt lat="45.85577292315084" lon="11.088684648651043"><ele>665.0</ele><time>2026-04-24T14:12:20.984Z</time></trkpt><trkpt lat="45.855673396686655" lon="11.088821017132442"><ele>665.0</ele><time>2026-04-24T14:12:21.984Z</time></trkpt><trkpt lat="45.855565596752555" lon="11.088913509173361"><ele>665.0</ele><time>2026-04-24T14:12:22.984Z</time></trkpt><trkpt lat="45.8554400309799" lon="11.088968839462753"><ele>665.0</ele><time>2026-04-24T14:12:23.983Z</time></trkpt><trkpt lat="45.8553028869826" lon="11.08897567751178"><ele>665.0</ele><time>2026-04-24T14:12:24.983Z</time></trkpt><trkpt lat="45.85518281097904" lon="11.088935129612606"><ele>665.0</ele><time>2026-04-24T14:12:25.983Z</time></trkpt><trkpt lat="45.8550620500785" lon="11.0888868259152"><ele>665.0</ele><time>2026-04-24T14:12:26.983Z</time></trkpt><trkpt lat="45.85494998163682" lon="11.088829094851038"><ele>663.0</ele><time>2026-04-24T14:12:27.983Z</time></trkpt><trkpt lat="45.85482678516997" lon="11.088780912856874"><ele>661.0</ele><time>2026-04-24T14:12:28.983Z</time></trkpt><trkpt lat="45.85471292816404" lon="11.088732029649018"><ele>659.0</ele><time>2026-04-24T14:12:29.983Z</time></trkpt><trkpt lat="45.8545941712507" lon="11.088685161723099"><ele>657.0</ele><time>2026-04-24T14:12:30.983Z</time></trkpt><trkpt lat="45.854472058261756" lon="11.088629934084835"><ele>657.0</ele><time>2026-04-24T14:12:31.983Z</time></trkpt><trkpt lat="45.85432418138167" lon="11.08866385998146"><ele>657.0</ele><time>2026-04-24T14:12:32.983Z</time></trkpt><trkpt lat="45.854178922067234" lon="11.088688086833326"><ele>657.0</ele><time>2026-04-24T14:12:33.983Z</time></trkpt><trkpt lat="45.85403327501376" lon="11.088693148537338"><ele>657.0</ele><time>2026-04-24T14:12:34.983Z</time></trkpt><trkpt lat="45.85389287410165" lon="11.088682429278096"><ele>659.8</ele><time>2026-04-24T14:12:35.983Z</time></trkpt><trkpt lat="45.85375917673898" lon="11.0886675898152"><ele>662.6</ele><time>2026-04-24T14:12:36.983Z</time></trkpt><trkpt lat="45.853644481245574" lon="11.088642072049842"><ele>665.4</ele><time>2026-04-24T14:12:37.983Z</time></trkpt><trkpt lat="45.85354775269926" lon="11.088636872598686"><ele>668.1999999999999</ele><time>2026-04-24T14:12:38.983Z</time></trkpt><trkpt lat="45.853477771020636" lon="11.088672175628153"><ele>671.0</ele><time>2026-04-24T14:12:39.983Z</time></trkpt><trkpt lat="45.853404856385296" lon="11.088709998949048"><ele>675.3333333333333</ele><time>2026-04-24T14:12:40.983Z</time></trkpt><trkpt lat="45.85334286715871" lon="11.088762472425737"><ele>679.6666666666666</ele><time>2026-04-24T14:12:41.983Z</time></trkpt><trkpt lat="45.853276228614654" lon="11.08881152292335"><ele>684.0</ele><time>2026-04-24T14:12:42.983Z</time></trkpt><trkpt lat="45.85321658330289" lon="11.08890455734823"><ele>688.3333333333334</ele><time>2026-04-24T14:12:43.983Z</time></trkpt><trkpt lat="45.853150557139436" lon="11.0889890048523"><ele>692.6666666666667</ele><time>2026-04-24T14:12:44.983Z</time></trkpt><trkpt lat="45.8530679194136" lon="11.089069306401262"><ele>697.0</ele><time>2026-04-24T14:12:45.983Z</time></trkpt><trkpt lat="45.85298486089497" lon="11.08915088869345"><ele>698.0</ele><time>2026-04-24T14:12:46.983Z</time></trkpt><trkpt lat="45.852912829397255" lon="11.08924663569633"><ele>699.0</ele><time>2026-04-24T14:12:47.983Z</time></trkpt><trkpt lat="45.8528513412729" lon="11.089381172329125"><ele>700.0</ele><time>2026-04-24T14:12:48.983Z</time></trkpt><trkpt lat="45.852798741129654" lon="11.089543362319166"><ele>701.0</ele><time>2026-04-24T14:12:49.983Z</time></trkpt><trkpt lat="45.85275912935839" lon="11.089685899187973"><ele>702.0</ele><time>2026-04-24T14:12:50.983Z</time></trkpt><trkpt lat="45.85273145382446" lon="11.089795644447928"><ele>702.0</ele><time>2026-04-24T14:12:51.983Z</time></trkpt><trkpt lat="45.852696019011454" lon="11.089894523982217"><ele>702.0</ele><time>2026-04-24T14:12:52.983Z</time></trkpt><trkpt lat="45.852649574767455" lon="11.08999207555408"><ele>702.0</ele><time>2026-04-24T14:12:53.983Z</time></trkpt><trkpt lat="45.85256848838416" lon="11.090063684553014"><ele>702.0</ele><time>2026-04-24T14:12:54.983Z</time></trkpt><trkpt lat="45.8524806276675" lon="11.090051360517121"><ele>702.0</ele><time>2026-04-24T14:12:55.983Z</time></trkpt><trkpt lat="45.85241486870064" lon="11.09017942414973"><ele>704.6666666666666</ele><time>2026-04-24T14:12:56.983Z</time></trkpt><trkpt lat="45.85234307305262" lon="11.090161677519545"><ele>707.3333333333333</ele><time>2026-04-24T14:12:57.983Z</time></trkpt><trkpt lat="45.85227359653748" lon="11.09022637370992"><ele>710.0</ele><time>2026-04-24T14:12:58.983Z</time></trkpt><trkpt lat="45.85231840600702" lon="11.090811983292554"><ele>713.8333333333333</ele><time>2026-04-24T14:13:00.983Z</time></trkpt><trkpt lat="45.85228255252301" lon="11.090895813397754"><ele>717.6666666666666</ele><time>2026-04-24T14:13:01.983Z</time></trkpt><trkpt lat="45.8522150478326" lon="11.09097236514252"><ele>721.5</ele><time>2026-04-24T14:13:04.983Z</time></trkpt><trkpt lat="45.85214109477336" lon="11.091042663959179"><ele>725.3333333333334</ele><time>2026-04-24T14:13:06.983Z</time></trkpt><trkpt lat="45.85207211174186" lon="11.09110045753181"><ele>729.1666666666667</ele><time>2026-04-24T14:13:07.983Z</time></trkpt><trkpt lat="45.85196066323638" lon="11.09114535384009"><ele>733.0</ele><time>2026-04-24T14:13:08.983Z</time></trkpt><trkpt lat="45.85184913503785" lon="11.091137839370957"><ele>734.5999999999999</ele><time>2026-04-24T14:13:09.983Z</time></trkpt><trkpt lat="45.8517578021051" lon="11.091143270694728"><ele>736.1999999999999</ele><time>2026-04-24T14:13:10.983Z</time></trkpt><trkpt lat="45.851651428297096" lon="11.091167834374406"><ele>737.8</ele><time>2026-04-24T14:13:11.983Z</time></trkpt><trkpt lat="45.851545458521905" lon="11.091262565187753"><ele>739.4</ele><time>2026-04-24T14:13:12.983Z</time></trkpt><trkpt lat="45.85148287682756" lon="11.091304451722714"><ele>741.0</ele><time>2026-04-24T14:13:13.983Z</time></trkpt><trkpt lat="45.85141564908803" lon="11.091228279933127"><ele>741.0</ele><time>2026-04-24T14:13:14.983Z</time></trkpt><trkpt lat="45.851354416266496" lon="11.091273644424767"><ele>741.0</ele><time>2026-04-24T14:13:16.983Z</time></trkpt><trkpt lat="45.85131103926486" lon="11.091355568056184"><ele>741.0</ele><time>2026-04-24T14:13:18.983Z</time></trkpt><trkpt lat="45.85123455313128" lon="11.091494332223998"><ele>741.0</ele><time>2026-04-24T14:13:20.983Z</time></trkpt><trkpt lat="45.851166679845946" lon="11.091581291816023"><ele>741.0</ele><time>2026-04-24T14:13:21.983Z</time></trkpt><trkpt lat="45.85110982407421" lon="11.091641392154708"><ele>741.0</ele><time>2026-04-24T14:13:22.983Z</time></trkpt><trkpt lat="45.851062432827504" lon="11.09171348226399"><ele>746.3333333333334</ele><time>2026-04-24T14:13:23.983Z</time></trkpt><trkpt lat="45.85099449103542" lon="11.091791587900829"><ele>751.6666666666667</ele><time>2026-04-24T14:13:25.983Z</time></trkpt><trkpt lat="45.85091762153555" lon="11.091861156182757"><ele>757.0</ele><time>2026-04-24T14:13:27.983Z</time></trkpt><trkpt lat="45.85085942871749" lon="11.091923708447885"><ele>762.3333333333334</ele><time>2026-04-24T14:13:28.983Z</time></trkpt><trkpt lat="45.85082123287782" lon="11.092002325363987"><ele>767.6666666666667</ele><time>2026-04-24T14:13:33.983Z</time></trkpt><trkpt lat="45.85084915435384" lon="11.09190211502708"><ele>773.0</ele><time>2026-04-24T14:13:52.982Z</time></trkpt><trkpt lat="45.85086581163734" lon="11.091812895381425"><ele>773.0</ele><time>2026-04-24T14:13:59.982Z</time></trkpt><trkpt lat="45.850911387537856" lon="11.091722011665276"><ele>773.0</ele><time>2026-04-24T14:14:04.982Z</time></trkpt><trkpt lat="45.8509633622215" lon="11.091638543831731"><ele>773.0</ele><time>2026-04-24T14:14:07.982Z</time></trkpt><trkpt lat="45.85098669445464" lon="11.091544235674592"><ele>773.0</ele><time>2026-04-24T14:14:09.982Z</time></trkpt><trkpt lat="45.85101264113667" lon="11.091436914926486"><ele>773.0</ele><time>2026-04-24T14:14:11.984Z</time></trkpt><trkpt lat="45.851036148332355" lon="11.091341324359892"><ele>773.0</ele><time>2026-04-24T14:14:12.984Z</time></trkpt><trkpt lat="45.85105829747944" lon="11.091250987537217"><ele>773.0</ele><time>2026-04-24T14:14:13.983Z</time></trkpt><trkpt lat="45.85109430264923" lon="11.09117121427269"><ele>769.1666666666667</ele><time>2026-04-24T14:14:15.984Z</time></trkpt><trkpt lat="45.85108959006264" lon="11.09107031700185"><ele>765.3333333333334</ele><time>2026-04-24T14:14:17.983Z</time></trkpt><trkpt lat="45.85111542640962" lon="11.090967618262024"><ele>761.5</ele><time>2026-04-24T14:14:18.983Z</time></trkpt><trkpt lat="45.85117515108622" lon="11.090877622023495"><ele>757.6666666666667</ele><time>2026-04-24T14:14:20.983Z</time></trkpt><trkpt lat="45.851204364905" lon="11.090743858796216"><ele>753.8333333333334</ele><time>2026-04-24T14:14:22.983Z</time></trkpt><trkpt lat="45.851240284628844" lon="11.090608639950181"><ele>750.0</ele><time>2026-04-24T14:14:24.984Z</time></trkpt><trkpt lat="45.85128816087217" lon="11.090545152770686"><ele>750.0</ele><time>2026-04-24T14:14:25.983Z</time></trkpt><trkpt lat="45.85137237512133" lon="11.090459301674679"><ele>750.0</ele><time>2026-04-24T14:14:26.983Z</time></trkpt><trkpt lat="45.85142479407992" lon="11.090321832587627"><ele>750.0</ele><time>2026-04-24T14:14:27.983Z</time></trkpt><trkpt lat="45.85146346098694" lon="11.090174944251304"><ele>750.0</ele><time>2026-04-24T14:14:28.983Z</time></trkpt><trkpt lat="45.851524592457146" lon="11.090036194340724"><ele>750.0</ele><time>2026-04-24T14:14:29.983Z</time></trkpt><trkpt lat="45.85155822276846" lon="11.089907298322645"><ele>751.8333333333334</ele><time>2026-04-24T14:14:30.983Z</time></trkpt><trkpt lat="45.851587724298476" lon="11.089765637866622"><ele>753.6666666666666</ele><time>2026-04-24T14:14:31.983Z</time></trkpt><trkpt lat="45.85160253247605" lon="11.089649077709428"><ele>755.5</ele><time>2026-04-24T14:14:32.983Z</time></trkpt><trkpt lat="45.851616885588555" lon="11.08954202318818"><ele>757.3333333333333</ele><time>2026-04-24T14:14:33.983Z</time></trkpt><trkpt lat="45.851650381168845" lon="11.089448447715029"><ele>759.1666666666666</ele><time>2026-04-24T14:14:34.983Z</time></trkpt><trkpt lat="45.85169171122147" lon="11.089343608045153"><ele>761.0</ele><time>2026-04-24T14:14:35.983Z</time></trkpt><trkpt lat="45.8517292891483" lon="11.089256471285658"><ele>761.0</ele><time>2026-04-24T14:14:36.983Z</time></trkpt><trkpt lat="45.85174501706717" lon="11.089149963519695"><ele>761.0</ele><time>2026-04-24T14:14:37.983Z</time></trkpt><trkpt lat="45.85176251931175" lon="11.089021821065707"><ele>761.0</ele><time>2026-04-24T14:14:38.983Z</time></trkpt><trkpt lat="45.851791091489346" lon="11.088870186663382"><ele>761.0</ele><time>2026-04-24T14:14:39.983Z</time></trkpt><trkpt lat="45.85183872408005" lon="11.08876060142392"><ele>761.0</ele><time>2026-04-24T14:14:40.983Z</time></trkpt><trkpt lat="45.85189528860781" lon="11.088606273320064"><ele>760.8</ele><time>2026-04-24T14:14:41.983Z</time></trkpt><trkpt lat="45.851951856723396" lon="11.08845278244594"><ele>760.5999999999999</ele><time>2026-04-24T14:14:42.983Z</time></trkpt><trkpt lat="45.85200582853419" lon="11.08832959549793"><ele>760.4</ele><time>2026-04-24T14:14:43.983Z</time></trkpt><trkpt lat="45.85204626559918" lon="11.088207436108668"><ele>760.2</ele><time>2026-04-24T14:14:44.983Z</time></trkpt><trkpt lat="45.852100967286695" lon="11.088123822721274"><ele>760.0</ele><time>2026-04-24T14:14:45.983Z</time></trkpt><trkpt lat="45.85217410972556" lon="11.088011355659004"><ele>760.0</ele><time>2026-04-24T14:14:46.983Z</time></trkpt><trkpt lat="45.85229154516794" lon="11.08795721111293"><ele>760.0</ele><time>2026-04-24T14:14:47.983Z</time></trkpt><trkpt lat="45.85238860407674" lon="11.087858755761625"><ele>760.0</ele><time>2026-04-24T14:14:48.983Z</time></trkpt><trkpt lat="45.85247376567634" lon="11.087770741188208"><ele>760.0</ele><time>2026-04-24T14:14:49.983Z</time></trkpt><trkpt lat="45.85253574704412" lon="11.087671220747803"><ele>760.0</ele><time>2026-04-24T14:14:50.983Z</time></trkpt><trkpt lat="45.85260853771939" lon="11.08755765678775"><ele>756.8</ele><time>2026-04-24T14:14:51.983Z</time></trkpt><trkpt lat="45.85268488100859" lon="11.087418247937197"><ele>753.6</ele><time>2026-04-24T14:14:52.983Z</time></trkpt><trkpt lat="45.85278953893989" lon="11.087283618493716"><ele>750.4000000000001</ele><time>2026-04-24T14:14:53.983Z</time></trkpt><trkpt lat="45.85285411813277" lon="11.087216878520332"><ele>747.2</ele><time>2026-04-24T14:14:54.983Z</time></trkpt><trkpt lat="45.85284920201388" lon="11.087126224605116"><ele>744.0</ele><time>2026-04-24T14:14:57.983Z</time></trkpt><trkpt lat="45.85276189445604" lon="11.087157080278814"><ele>744.0</ele><time>2026-04-24T14:15:01.983Z</time></trkpt><trkpt lat="45.852692733297175" lon="11.087201641693877"><ele>744.0</ele><time>2026-04-24T14:15:03.983Z</time></trkpt><trkpt lat="45.85263017121839" lon="11.087255736031153"><ele>744.0</ele><time>2026-04-24T14:15:04.983Z</time></trkpt><trkpt lat="45.852553418076916" lon="11.08733692516635"><ele>744.0</ele><time>2026-04-24T14:15:05.983Z</time></trkpt><trkpt lat="45.85247432916339" lon="11.087386299052083"><ele>744.0</ele><time>2026-04-24T14:15:06.983Z</time></trkpt><trkpt lat="45.852409691011474" lon="11.087434743074908"><ele>744.0</ele><time>2026-04-24T14:15:07.983Z</time></trkpt><trkpt lat="45.852340724867126" lon="11.087521674335866"><ele>746.6666666666666</ele><time>2026-04-24T14:15:08.983Z</time></trkpt><trkpt lat="45.8523002781877" lon="11.087639428637663"><ele>749.3333333333334</ele><time>2026-04-24T14:15:10.983Z</time></trkpt><trkpt lat="45.85224438586849" lon="11.087684260400449"><ele>752.0</ele><time>2026-04-24T14:15:12.983Z</time></trkpt><trkpt lat="45.85218218350882" lon="11.087770348883842"><ele>754.6666666666667</ele><time>2026-04-24T14:15:15.983Z</time></trkpt><trkpt lat="45.852104462640824" lon="11.087808572387862"><ele>757.3333333333334</ele><time>2026-04-24T14:15:17.983Z</time></trkpt><trkpt lat="45.85202740269775" lon="11.087824448176663"><ele>760.0</ele><time>2026-04-24T14:15:20.983Z</time></trkpt><trkpt lat="45.85197079671343" lon="11.087927561798645"><ele>760.0</ele><time>2026-04-24T14:15:23.983Z</time></trkpt><trkpt lat="45.85188677562737" lon="11.088052559551935"><ele>760.0</ele><time>2026-04-24T14:15:25.983Z</time></trkpt><trkpt lat="45.851825358731844" lon="11.08811117682838"><ele>760.0</ele><time>2026-04-24T14:15:26.983Z</time></trkpt><trkpt lat="45.851750049307746" lon="11.088169992817368"><ele>760.0</ele><time>2026-04-24T14:15:28.983Z</time></trkpt><trkpt lat="45.85172649765051" lon="11.088267630650437"><ele>760.0</ele><time>2026-04-24T14:15:30.983Z</time></trkpt><trkpt lat="45.85165558785422" lon="11.088337508548323"><ele>760.0</ele><time>2026-04-24T14:15:33.983Z</time></trkpt><trkpt lat="45.85158989449767" lon="11.08839918028371"><ele>762.8571428571429</ele><time>2026-04-24T14:15:35.983Z</time></trkpt><trkpt lat="45.851532712812435" lon="11.088493229038894"><ele>765.7142857142858</ele><time>2026-04-24T14:15:37.982Z</time></trkpt><trkpt lat="45.851480736266375" lon="11.088549580357217"><ele>768.5714285714286</ele><time>2026-04-24T14:15:39.982Z</time></trkpt><trkpt lat="45.851404276910394" lon="11.088593051675286"><ele>771.4285714285714</ele><time>2026-04-24T14:15:41.982Z</time></trkpt><trkpt lat="45.85135184193608" lon="11.08865025564812"><ele>774.2857142857142</ele><time>2026-04-24T14:15:43.982Z</time></trkpt><trkpt lat="45.85131482393531" lon="11.088728231815443"><ele>777.1428571428571</ele><time>2026-04-24T14:15:45.982Z</time></trkpt><trkpt lat="45.85126998227092" lon="11.088792939279998"><ele>780.0</ele><time>2026-04-24T14:15:51.982Z</time></trkpt><trkpt lat="45.85124591796535" lon="11.088689057006688"><ele>780.0</ele><time>2026-04-24T14:15:57.982Z</time></trkpt><trkpt lat="45.85121647567532" lon="11.088587349943548"><ele>780.0</ele><time>2026-04-24T14:16:11.982Z</time></trkpt><trkpt lat="45.85124233811366" lon="11.08845874646897"><ele>780.0</ele><time>2026-04-24T14:16:15.982Z</time></trkpt><trkpt lat="45.851248281519474" lon="11.088354939552428"><ele>780.0</ele><time>2026-04-24T14:16:17.983Z</time></trkpt><trkpt lat="45.8512674806205" lon="11.088252724697158"><ele>780.0</ele><time>2026-04-24T14:16:19.983Z</time></trkpt><trkpt lat="45.8512772596473" lon="11.088132524921965"><ele>780.0</ele><time>2026-04-24T14:16:21.983Z</time></trkpt><trkpt lat="45.851268759864084" lon="11.088027193316751"><ele>782.8333333333334</ele><time>2026-04-24T14:16:23.983Z</time></trkpt><trkpt lat="45.85127187592049" lon="11.087932805417823"><ele>785.6666666666667</ele><time>2026-04-24T14:16:25.983Z</time></trkpt><trkpt lat="45.85125737484303" lon="11.087828421467373"><ele>788.5</ele><time>2026-04-24T14:16:27.983Z</time></trkpt><trkpt lat="45.85127647144589" lon="11.087740328938567"><ele>791.3333333333334</ele><time>2026-04-24T14:16:29.983Z</time></trkpt><trkpt lat="45.85130097882725" lon="11.087631141823636"><ele>794.1666666666667</ele><time>2026-04-24T14:16:32.983Z</time></trkpt><trkpt lat="45.85125822031873" lon="11.087540374965041"><ele>797.0</ele><time>2026-04-24T14:16:42.982Z</time></trkpt><trkpt lat="45.8511222895234" lon="11.087611875864658"><ele>797.0</ele><time>2026-04-24T14:16:46.982Z</time></trkpt><trkpt lat="45.8510292638243" lon="11.087653883782847"><ele>797.0</ele><time>2026-04-24T14:16:48.982Z</time></trkpt><trkpt lat="45.85096999782159" lon="11.087691699518974"><ele>797.0</ele><time>2026-04-24T14:16:50.982Z</time></trkpt><trkpt lat="45.85096276436348" lon="11.087853044150886"><ele>797.0</ele><time>2026-04-24T14:16:52.982Z</time></trkpt><trkpt lat="45.85088048534343" lon="11.087941260506966"><ele>797.0</ele><time>2026-04-24T14:16:54.982Z</time></trkpt><trkpt lat="45.85079450607077" lon="11.087993182120371"><ele>801.8</ele><time>2026-04-24T14:16:56.982Z</time></trkpt><trkpt lat="45.85077488007354" lon="11.088116331478064"><ele>806.6</ele><time>2026-04-24T14:16:58.982Z</time></trkpt><trkpt lat="45.8507513885395" lon="11.088262633479182"><ele>811.4</ele><time>2026-04-24T14:17:00.982Z</time></trkpt><trkpt lat="45.85068300959979" lon="11.088421699986036"><ele>816.1999999999999</ele><time>2026-04-24T14:17:02.982Z</time></trkpt><trkpt lat="45.85061737901834" lon="11.088543017106508"><ele>821.0</ele><time>2026-04-24T14:17:04.982Z</time></trkpt><trkpt lat="45.850547381984526" lon="11.088614037778475"><ele>821.0000000000001</ele><time>2026-04-24T14:17:06.982Z</time></trkpt><trkpt lat="45.850493305284196" lon="11.088735029772382"><ele>821.0</ele><time>2026-04-24T14:17:08.982Z</time></trkpt><trkpt lat="45.850464722167864" lon="11.088825597429992"><ele>821.0</ele><time>2026-04-24T14:17:13.982Z</time></trkpt><trkpt lat="45.85049925006093" lon="11.088699413104681"><ele>821.0</ele><time>2026-04-24T14:17:18.982Z</time></trkpt><trkpt lat="45.850486628238514" lon="11.088574358580168"><ele>821.0000000000001</ele><time>2026-04-24T14:17:20.982Z</time></trkpt><trkpt lat="45.850453193426176" lon="11.088479996433222"><ele>821.0</ele><time>2026-04-24T14:17:22.981Z</time></trkpt><trkpt lat="45.85046431749855" lon="11.088364258851962"><ele>821.0</ele><time>2026-04-24T14:17:24.981Z</time></trkpt><trkpt lat="45.85049574088405" lon="11.088280501292624"><ele>821.0</ele><time>2026-04-24T14:17:25.981Z</time></trkpt><trkpt lat="45.85052213003179" lon="11.08811057845557"><ele>821.0</ele><time>2026-04-24T14:17:27.981Z</time></trkpt><trkpt lat="45.850537515105444" lon="11.087946910533505"><ele>821.0</ele><time>2026-04-24T14:17:29.981Z</time></trkpt><trkpt lat="45.85054509272658" lon="11.087832178109258"><ele>821.0</ele><time>2026-04-24T14:17:30.981Z</time></trkpt><trkpt lat="45.85058209917131" lon="11.087716352437058"><ele>822.6666666666667</ele><time>2026-04-24T14:17:31.981Z</time></trkpt><trkpt lat="45.8506401809781" lon="11.087653708240852"><ele>824.3333333333334</ele><time>2026-04-24T14:17:32.981Z</time></trkpt><trkpt lat="45.85071103338408" lon="11.08758812636919"><ele>826.0</ele><time>2026-04-24T14:17:33.981Z</time></trkpt><trkpt lat="45.85078094028817" lon="11.087514594039119"><ele>827.6666666666667</ele><time>2026-04-24T14:17:34.981Z</time></trkpt><trkpt lat="45.85084510367539" lon="11.087430000417049"><ele>829.3333333333334</ele><time>2026-04-24T14:17:35.981Z</time></trkpt><trkpt lat="45.85089040255844" lon="11.087345657472655"><ele>831.0</ele><time>2026-04-24T14:17:36.981Z</time></trkpt><trkpt lat="45.850916567668456" lon="11.087261978937255"><ele>831.0</ele><time>2026-04-24T14:17:37.981Z</time></trkpt><trkpt lat="45.85092188040795" lon="11.087159468179838"><ele>831.0</ele><time>2026-04-24T14:17:39.981Z</time></trkpt><trkpt lat="45.85085047310042" lon="11.087161706138103"><ele>831.0</ele><time>2026-04-24T14:17:47.981Z</time></trkpt><trkpt lat="45.85075960439511" lon="11.087196187757735"><ele>831.0</ele><time>2026-04-24T14:21:35.979Z</time></trkpt><trkpt lat="45.85070176776363" lon="11.08723936359908"><ele>831.0</ele><time>2026-04-24T14:21:36.979Z</time></trkpt><trkpt lat="45.85062161943948" lon="11.087289998099479"><ele>831.0</ele><time>2026-04-24T14:21:40.979Z</time></trkpt><trkpt lat="45.850547670246506" lon="11.087309243525137"><ele>831.0</ele><time>2026-04-24T14:21:42.979Z</time></trkpt><trkpt lat="45.850458237323345" lon="11.087277406337376"><ele>831.0</ele><time>2026-04-24T14:21:45.979Z</time></trkpt><trkpt lat="45.85039985992223" lon="11.087352365139001"><ele>831.0</ele><time>2026-04-24T14:21:47.979Z</time></trkpt><trkpt lat="45.850313020223226" lon="11.087345810282127"><ele>831.0</ele><time>2026-04-24T14:21:50.979Z</time></trkpt><trkpt lat="45.850241305109954" lon="11.08731691356691"><ele>831.0</ele><time>2026-04-24T14:21:52.979Z</time></trkpt><trkpt lat="45.85016465811985" lon="11.087288524870248"><ele>831.0</ele><time>2026-04-24T14:21:54.979Z</time></trkpt><trkpt lat="45.850087899843885" lon="11.087314208013593"><ele>834.8333333333334</ele><time>2026-04-24T14:21:56.979Z</time></trkpt><trkpt lat="45.850077947956564" lon="11.087405501677589"><ele>838.6666666666667</ele><time>2026-04-24T14:21:58.979Z</time></trkpt><trkpt lat="45.850013293867086" lon="11.087506582169562"><ele>842.5</ele><time>2026-04-24T14:22:01.979Z</time></trkpt><trkpt lat="45.849987990773826" lon="11.087642815187065"><ele>846.3333333333334</ele><time>2026-04-24T14:22:04.979Z</time></trkpt><trkpt lat="45.84995943160471" lon="11.087774254922786"><ele>850.1666666666667</ele><time>2026-04-24T14:22:06.979Z</time></trkpt><trkpt lat="45.84991641984161" lon="11.087852791654422"><ele>854.0</ele><time>2026-04-24T14:22:07.979Z</time></trkpt><trkpt lat="45.84988754270446" lon="11.08794245695341"><ele>856.5000000000001</ele><time>2026-04-24T14:22:09.979Z</time></trkpt><trkpt lat="45.849817062088235" lon="11.088024834941956"><ele>859.0</ele><time>2026-04-24T14:22:11.979Z</time></trkpt><trkpt lat="45.849719812148514" lon="11.088065117364497"><ele>861.5</ele><time>2026-04-24T14:22:13.979Z</time></trkpt><trkpt lat="45.84964441408259" lon="11.088057379506573"><ele>864.0</ele><time>2026-04-24T14:22:16.978Z</time></trkpt><trkpt lat="45.84955849863985" lon="11.088026560955958"><ele>866.5000000000001</ele><time>2026-04-24T14:22:19.978Z</time></trkpt><trkpt lat="45.84947417827904" lon="11.087980158253552"><ele>869.0</ele><time>2026-04-24T14:22:21.978Z</time></trkpt><trkpt lat="45.84940875216293" lon="11.087976608598444"><ele>869.0000000000001</ele><time>2026-04-24T14:22:22.978Z</time></trkpt><trkpt lat="45.84932543303629" lon="11.087936734643197"><ele>869.0</ele><time>2026-04-24T14:22:23.978Z</time></trkpt><trkpt lat="45.84926893810148" lon="11.08787404726136"><ele>869.0</ele><time>2026-04-24T14:22:24.978Z</time></trkpt><trkpt lat="45.849197734037666" lon="11.087783478171747"><ele>869.0</ele><time>2026-04-24T14:22:26.978Z</time></trkpt><trkpt lat="45.84914464691646" lon="11.08773131330626"><ele>869.0000000000001</ele><time>2026-04-24T14:22:28.978Z</time></trkpt><trkpt lat="45.849059441311546" lon="11.087682229655435"><ele>869.0</ele><time>2026-04-24T14:22:30.978Z</time></trkpt><trkpt lat="45.84896506305119" lon="11.087648087333251"><ele>874.8333333333334</ele><time>2026-04-24T14:22:32.978Z</time></trkpt><trkpt lat="45.84889669434055" lon="11.087656037113186"><ele>880.6666666666667</ele><time>2026-04-24T14:22:34.978Z</time></trkpt><trkpt lat="45.848816422074535" lon="11.087704963705942"><ele>886.5</ele><time>2026-04-24T14:22:36.98Z</time></trkpt><trkpt lat="45.848745239069615" lon="11.087748347548356"><ele>892.3333333333333</ele><time>2026-04-24T14:22:38.979Z</time></trkpt><trkpt lat="45.84869375151496" lon="11.087813973924359"><ele>898.1666666666666</ele><time>2026-04-24T14:22:40.98Z</time></trkpt><trkpt lat="45.84864675752737" lon="11.087880810006148"><ele>904.0</ele><time>2026-04-24T14:22:42.98Z</time></trkpt><trkpt lat="45.84860156314942" lon="11.087979365832695"><ele>904.0</ele><time>2026-04-24T14:22:44.979Z</time></trkpt><trkpt lat="45.848578281890276" lon="11.088082579076188"><ele>904.0000000000001</ele><time>2026-04-24T14:22:46.98Z</time></trkpt><trkpt lat="45.848529701076" lon="11.088170078226513"><ele>904.0000000000001</ele><time>2026-04-24T14:22:48.979Z</time></trkpt><trkpt lat="45.8484795806506" lon="11.088311579166"><ele>904.0</ele><time>2026-04-24T14:22:50.979Z</time></trkpt><trkpt lat="45.848455150813" lon="11.088500648159204"><ele>904.0</ele><time>2026-04-24T14:22:52.98Z</time></trkpt><trkpt lat="45.84843914105474" lon="11.088592848056562"><ele>910.9999999999999</ele><time>2026-04-24T14:22:53.979Z</time></trkpt><trkpt lat="45.848410267261436" lon="11.088732049518415"><ele>918.0</ele><time>2026-04-24T14:22:55.979Z</time></trkpt><trkpt lat="45.84840152078065" lon="11.088839302105518"><ele>925.0</ele><time>2026-04-24T14:23:04.979Z</time></trkpt><trkpt lat="45.84837304839231" lon="11.088936419976928"><ele>932.0</ele><time>2026-04-24T14:23:09.979Z</time></trkpt><trkpt lat="45.848381761905245" lon="11.089027881673696"><ele>938.9999999999999</ele><time>2026-04-24T14:23:25.979Z</time></trkpt><trkpt lat="45.84838626397188" lon="11.089145791718497"><ele>946.0</ele><time>2026-04-24T14:23:29.978Z</time></trkpt><trkpt lat="45.8483546825731" lon="11.08922836381149"><ele>948.3333333333333</ele><time>2026-04-24T14:23:31.978Z</time></trkpt><trkpt lat="45.84836186567423" lon="11.089386346643128"><ele>950.6666666666666</ele><time>2026-04-24T14:23:33.978Z</time></trkpt><trkpt lat="45.84834262037447" lon="11.089504036197944"><ele>953.0</ele><time>2026-04-24T14:23:34.978Z</time></trkpt><trkpt lat="45.84832756103276" lon="11.089598613990228"><ele>955.3333333333333</ele><time>2026-04-24T14:23:35.978Z</time></trkpt><trkpt lat="45.84832020046717" lon="11.089752729007444"><ele>957.6666666666666</ele><time>2026-04-24T14:23:37.978Z</time></trkpt><trkpt lat="45.84831003322114" lon="11.0898583492575"><ele>960.0</ele><time>2026-04-24T14:23:38.978Z</time></trkpt><trkpt lat="45.848239713474456" lon="11.089952546714525"><ele>960.0</ele><time>2026-04-24T14:23:40.978Z</time></trkpt><trkpt lat="45.84819720436367" lon="11.09003236320378"><ele>960.0</ele><time>2026-04-24T14:23:43.978Z</time></trkpt><trkpt lat="45.84809962652868" lon="11.089977888308356"><ele>960.0</ele><time>2026-04-24T14:23:45.978Z</time></trkpt><trkpt lat="45.848039304230106" lon="11.089949092232196"><ele>960.0</ele><time>2026-04-24T14:23:47.978Z</time></trkpt><trkpt lat="45.84798039480589" lon="11.089909715503092"><ele>960.0</ele><time>2026-04-24T14:23:49.978Z</time></trkpt><trkpt lat="45.847896110923045" lon="11.08985267177067"><ele>960.0</ele><time>2026-04-24T14:23:52.978Z</time></trkpt><trkpt lat="45.84778656081395" lon="11.089778944271155"><ele>960.0</ele><time>2026-04-24T14:23:54.978Z</time></trkpt><trkpt lat="45.84772098337204" lon="11.08970350961358"><ele>960.0</ele><time>2026-04-24T14:23:57.978Z</time></trkpt><trkpt lat="45.8476638458138" lon="11.089648858644013"><ele>960.0</ele><time>2026-04-24T14:23:59.978Z</time></trkpt><trkpt lat="45.84762783141195" lon="11.089561507195388"><ele>960.0</ele><time>2026-04-24T14:24:01.978Z</time></trkpt><trkpt lat="45.84756451858406" lon="11.089478478477975"><ele>960.0</ele><time>2026-04-24T14:24:03.978Z</time></trkpt><trkpt lat="45.847439872758805" lon="11.089399046250051"><ele>960.0</ele><time>2026-04-24T14:24:05.978Z</time></trkpt><trkpt lat="45.84735139304443" lon="11.089357076404546"><ele>963.6666666666666</ele><time>2026-04-24T14:24:07.978Z</time></trkpt><trkpt lat="45.847268311593524" lon="11.089270452936711"><ele>967.3333333333333</ele><time>2026-04-24T14:24:09.978Z</time></trkpt><trkpt lat="45.84720622871474" lon="11.089215327937238"><ele>971.0</ele><time>2026-04-24T14:24:10.978Z</time></trkpt><trkpt lat="45.84714782504008" lon="11.089139413298097"><ele>974.6666666666666</ele><time>2026-04-24T14:24:12.978Z</time></trkpt><trkpt lat="45.847081023971626" lon="11.089056081968177"><ele>978.3333333333333</ele><time>2026-04-24T14:24:14.978Z</time></trkpt><trkpt lat="45.84699494083813" lon="11.08898432783372"><ele>982.0</ele><time>2026-04-24T14:24:16.978Z</time></trkpt><trkpt lat="45.8469402557401" lon="11.08891629572507"><ele>981.9999999999999</ele><time>2026-04-24T14:24:17.978Z</time></trkpt><trkpt lat="45.846881530999624" lon="11.08886116774359"><ele>982.0</ele><time>2026-04-24T14:24:18.978Z</time></trkpt><trkpt lat="45.846793586262194" lon="11.088786551204201"><ele>982.0</ele><time>2026-04-24T14:24:20.978Z</time></trkpt><trkpt lat="45.846730447385454" lon="11.088733553202548"><ele>982.0</ele><time>2026-04-24T14:24:21.978Z</time></trkpt><trkpt lat="45.846654951842794" lon="11.088632372485128"><ele>981.9999999999999</ele><time>2026-04-24T14:24:23.978Z</time></trkpt><trkpt lat="45.84656489004044" lon="11.088594037792987"><ele>982.0</ele><time>2026-04-24T14:24:25.978Z</time></trkpt><trkpt lat="45.84643970127001" lon="11.088572821063666"><ele>988.2857142857142</ele><time>2026-04-24T14:24:27.978Z</time></trkpt><trkpt lat="45.84638176991013" lon="11.08851942256578"><ele>994.5714285714284</ele><time>2026-04-24T14:24:30.978Z</time></trkpt><trkpt lat="45.84630779596832" lon="11.088484640062166"><ele>1000.8571428571429</ele><time>2026-04-24T14:24:35.978Z</time></trkpt><trkpt lat="45.84624279821481" lon="11.088534679693732"><ele>1007.1428571428571</ele><time>2026-04-24T14:24:38.978Z</time></trkpt><trkpt lat="45.84617485076949" lon="11.088541690032773"><ele>1013.4285714285714</ele><time>2026-04-24T14:24:40.978Z</time></trkpt><trkpt lat="45.84610950057262" lon="11.08854197870208"><ele>1019.7142857142858</ele><time>2026-04-24T14:24:43.979Z</time></trkpt><trkpt lat="45.846046873058214" lon="11.088532544719724"><ele>1026.0</ele><time>2026-04-24T14:24:45.979Z</time></trkpt><trkpt lat="45.845947110945346" lon="11.08851578769236"><ele>1031.8333333333333</ele><time>2026-04-24T14:24:47.979Z</time></trkpt><trkpt lat="45.84585072768579" lon="11.088518456807524"><ele>1037.6666666666667</ele><time>2026-04-24T14:24:49.979Z</time></trkpt><trkpt lat="45.845778159575616" lon="11.088538559848125"><ele>1043.5</ele><time>2026-04-24T14:24:50.979Z</time></trkpt><trkpt lat="45.845689760747106" lon="11.08852310530328"><ele>1049.3333333333335</ele><time>2026-04-24T14:24:52.979Z</time></trkpt><trkpt lat="45.845604284145686" lon="11.088457779740004"><ele>1055.1666666666667</ele><time>2026-04-24T14:24:54.979Z</time></trkpt><trkpt lat="45.84551818687734" lon="11.08849503367229"><ele>1061.0</ele><time>2026-04-24T14:24:56.979Z</time></trkpt><trkpt lat="45.84541597480785" lon="11.08847932888403"><ele>1061.0</ele><time>2026-04-24T14:24:58.979Z</time></trkpt><trkpt lat="45.84533392464834" lon="11.088402606198862"><ele>1061.0</ele><time>2026-04-24T14:25:00.979Z</time></trkpt><trkpt lat="45.84524912214215" lon="11.088441752771587"><ele>1061.0</ele><time>2026-04-24T14:25:02.979Z</time></trkpt><trkpt lat="45.845191912206154" lon="11.088378898883146"><ele>1061.0</ele><time>2026-04-24T14:25:12.979Z</time></trkpt><trkpt lat="45.845125760348104" lon="11.088382236266268"><ele>1061.0</ele><time>2026-04-24T14:25:20.979Z</time></trkpt><trkpt lat="45.845046899537" lon="11.08834133232674"><ele>1061.0</ele><time>2026-04-24T14:25:25.979Z</time></trkpt><trkpt lat="45.84498286292917" lon="11.088285289300826"><ele>1059.8333333333335</ele><time>2026-04-24T14:25:27.979Z</time></trkpt><trkpt lat="45.84490067380652" lon="11.088251692073564"><ele>1058.6666666666667</ele><time>2026-04-24T14:25:29.979Z</time></trkpt><trkpt lat="45.844836268226494" lon="11.088236278287114"><ele>1057.5</ele><time>2026-04-24T14:25:31.979Z</time></trkpt><trkpt lat="45.8447536047178" lon="11.088199158489122"><ele>1056.3333333333333</ele><time>2026-04-24T14:25:33.978Z</time></trkpt><trkpt lat="45.844687108765164" lon="11.088187965826958"><ele>1055.1666666666665</ele><time>2026-04-24T14:25:35.978Z</time></trkpt><trkpt lat="45.844633453187775" lon="11.08826567157336"><ele>1054.0</ele><time>2026-04-24T14:25:38.978Z</time></trkpt><trkpt lat="45.84465823117314" lon="11.08837766950402"><ele>1059.8333333333333</ele><time>2026-04-24T14:25:41.978Z</time></trkpt><trkpt lat="45.84465626029066" lon="11.088515363950991"><ele>1065.6666666666665</ele><time>2026-04-24T14:25:43.978Z</time></trkpt><trkpt lat="45.84467098178183" lon="11.0886078076984"><ele>1071.5</ele><time>2026-04-24T14:25:44.978Z</time></trkpt><trkpt lat="45.84468744737267" lon="11.088701431418325"><ele>1077.3333333333333</ele><time>2026-04-24T14:25:45.978Z</time></trkpt><trkpt lat="45.844681683079614" lon="11.088814674992358"><ele>1083.1666666666667</ele><time>2026-04-24T14:25:47.978Z</time></trkpt><trkpt lat="45.84468570370717" lon="11.088959895563079"><ele>1089.0</ele><time>2026-04-24T14:25:50.978Z</time></trkpt><trkpt lat="45.84471021156243" lon="11.089096325286542"><ele>1093.5714285714287</ele><time>2026-04-24T14:25:52.978Z</time></trkpt><trkpt lat="45.84468499018295" lon="11.089187051198254"><ele>1098.142857142857</ele><time>2026-04-24T14:25:55.978Z</time></trkpt><trkpt lat="45.84468295491092" lon="11.089295297378447"><ele>1102.7142857142858</ele><time>2026-04-24T14:25:57.978Z</time></trkpt><trkpt lat="45.84468713089309" lon="11.089399369020478"><ele>1107.2857142857142</ele><time>2026-04-24T14:25:59.978Z</time></trkpt><trkpt lat="45.84471791393518" lon="11.08952207678696"><ele>1111.857142857143</ele><time>2026-04-24T14:26:02.978Z</time></trkpt><trkpt lat="45.84476265653865" lon="11.089591867560996"><ele>1116.4285714285716</ele><time>2026-04-24T14:26:04.978Z</time></trkpt><trkpt lat="45.84475883249007" lon="11.089701191068677"><ele>1121.0</ele><time>2026-04-24T14:26:07.978Z</time></trkpt><trkpt lat="45.84474941581373" lon="11.089827664193248"><ele>1121.0</ele><time>2026-04-24T14:26:10.978Z</time></trkpt><trkpt lat="45.84475245338992" lon="11.089919286784776"><ele>1121.0</ele><time>2026-04-24T14:26:14.978Z</time></trkpt><trkpt lat="45.844720453611906" lon="11.09004743243492"><ele>1121.0</ele><time>2026-04-24T14:26:17.978Z</time></trkpt><trkpt lat="45.84468474243164" lon="11.090209808766309"><ele>1121.0</ele><time>2026-04-24T14:26:19.978Z</time></trkpt><trkpt lat="45.84464898149081" lon="11.090308433877237"><ele>1121.0</ele><time>2026-04-24T14:26:21.978Z</time></trkpt><trkpt lat="45.84460336409995" lon="11.090387712420156"><ele>1121.0</ele><time>2026-04-24T14:26:22.978Z</time></trkpt><trkpt lat="45.84456661707612" lon="11.0904697287982"><ele>1125.5</ele><time>2026-04-24T14:26:23.978Z</time></trkpt><trkpt lat="45.8444926302396" lon="11.090539379265927"><ele>1130.0</ele><time>2026-04-24T14:26:25.978Z</time></trkpt><trkpt lat="45.84444981096935" lon="11.090616206338035"><ele>1134.5</ele><time>2026-04-24T14:26:27.978Z</time></trkpt><trkpt lat="45.844403992781615" lon="11.09070815658987"><ele>1139.0</ele><time>2026-04-24T14:26:30.978Z</time></trkpt><trkpt lat="45.84434379585412" lon="11.09078721521044"><ele>1143.5</ele><time>2026-04-24T14:26:32.978Z</time></trkpt><trkpt lat="45.84429528703781" lon="11.090857815722682"><ele>1148.0</ele><time>2026-04-24T14:26:35.978Z</time></trkpt><trkpt lat="45.84423223780966" lon="11.090900870544216"><ele>1151.857142857143</ele><time>2026-04-24T14:26:38.978Z</time></trkpt><trkpt lat="45.8441832110162" lon="11.090963276063155"><ele>1155.7142857142858</ele><time>2026-04-24T14:27:00.978Z</time></trkpt><trkpt lat="45.844232146552706" lon="11.091022064330097"><ele>1159.5714285714284</ele><time>2026-04-24T14:29:02.978Z</time></trkpt><trkpt lat="45.8442194414389" lon="11.090928184341099"><ele>1163.4285714285716</ele><time>2026-04-24T14:29:30.978Z</time></trkpt><trkpt lat="45.84417544319077" lon="11.091017541440307"><ele>1167.2857142857142</ele><time>2026-04-24T14:30:32.977Z</time></trkpt><trkpt lat="45.84409338844948" lon="11.091009464851298"><ele>1171.142857142857</ele><time>2026-04-24T14:30:36.977Z</time></trkpt><trkpt lat="45.84401157563385" lon="11.09100033819766"><ele>1175.0</ele><time>2026-04-24T14:30:38.977Z</time></trkpt><trkpt lat="45.8439172214123" lon="11.091044216491346"><ele>1175.0</ele><time>2026-04-24T14:30:39.977Z</time></trkpt><trkpt lat="45.843845436644216" lon="11.091047469727565"><ele>1175.0</ele><time>2026-04-24T14:30:41.977Z</time></trkpt><trkpt lat="45.84375008301987" lon="11.091058185715216"><ele>1175.0</ele><time>2026-04-24T14:30:43.977Z</time></trkpt><trkpt lat="45.843657256097586" lon="11.091066836633349"><ele>1175.0</ele><time>2026-04-24T14:30:46.977Z</time></trkpt><trkpt lat="45.84358182873993" lon="11.091052183726571"><ele>1175.0</ele><time>2026-04-24T14:30:47.977Z</time></trkpt><trkpt lat="45.84349929733553" lon="11.0910949243535"><ele>1175.0</ele><time>2026-04-24T14:30:48.977Z</time></trkpt><trkpt lat="45.84339783861568" lon="11.091151925864654"><ele>1179.2</ele><time>2026-04-24T14:30:49.977Z</time></trkpt><trkpt lat="45.843276650048075" lon="11.091179369812563"><ele>1183.4</ele><time>2026-04-24T14:30:50.977Z</time></trkpt><trkpt lat="45.843180570171086" lon="11.091195912255566"><ele>1187.6</ele><time>2026-04-24T14:30:51.977Z</time></trkpt><trkpt lat="45.84309772009905" lon="11.091221689873201"><ele>1191.8</ele><time>2026-04-24T14:30:53.977Z</time></trkpt><trkpt lat="45.843023558815645" lon="11.091265967140053"><ele>1196.0</ele><time>2026-04-24T14:30:54.977Z</time></trkpt><trkpt lat="45.842931292269235" lon="11.09131886570076"><ele>1196.0</ele><time>2026-04-24T14:30:55.977Z</time></trkpt><trkpt lat="45.842844699957695" lon="11.091394810959452"><ele>1196.0</ele><time>2026-04-24T14:30:56.977Z</time></trkpt><trkpt lat="45.84277209974164" lon="11.091450383059707"><ele>1196.0</ele><time>2026-04-24T14:30:57.977Z</time></trkpt><trkpt lat="45.84271242296394" lon="11.091485629498461"><ele>1196.0</ele><time>2026-04-24T14:30:58.977Z</time></trkpt><trkpt lat="45.842638933697685" lon="11.091565292427996"><ele>1196.0</ele><time>2026-04-24T14:31:00.977Z</time></trkpt><trkpt lat="45.84254669300612" lon="11.09164706700553"><ele>1196.0</ele><time>2026-04-24T14:31:02.977Z</time></trkpt><trkpt lat="45.84246299016268" lon="11.091676029855345"><ele>1199.6666666666667</ele><time>2026-04-24T14:31:04.978Z</time></trkpt><trkpt lat="45.84239302612797" lon="11.091716678730778"><ele>1203.3333333333335</ele><time>2026-04-24T14:31:05.977Z</time></trkpt><trkpt lat="45.84232751155483" lon="11.091754645789987"><ele>1207.0</ele><time>2026-04-24T14:31:06.977Z</time></trkpt><trkpt lat="45.84225368896972" lon="11.091799482254887"><ele>1210.6666666666667</ele><time>2026-04-24T14:31:07.977Z</time></trkpt><trkpt lat="45.84217952418762" lon="11.091842824603644"><ele>1214.3333333333333</ele><time>2026-04-24T14:31:08.977Z</time></trkpt><trkpt lat="45.84209676279454" lon="11.091914435968981"><ele>1218.0</ele><time>2026-04-24T14:31:09.976Z</time></trkpt><trkpt lat="45.842025468129464" lon="11.091928695367242"><ele>1218.0</ele><time>2026-04-24T14:31:10.976Z</time></trkpt><trkpt lat="45.84193787534478" lon="11.091932342961632"><ele>1218.0</ele><time>2026-04-24T14:31:11.977Z</time></trkpt><trkpt lat="45.84184378838185" lon="11.091927101420314"><ele>1218.0</ele><time>2026-04-24T14:31:12.977Z</time></trkpt><trkpt lat="45.84176199119753" lon="11.091965479325024"><ele>1218.0</ele><time>2026-04-24T14:31:13.977Z</time></trkpt><trkpt lat="45.84170179450984" lon="11.09184527250552"><ele>1218.0</ele><time>2026-04-24T14:31:15.977Z</time></trkpt><trkpt lat="45.841597650399365" lon="11.09185839819319"><ele>1223.25</ele><time>2026-04-24T14:31:17.977Z</time></trkpt><trkpt lat="45.84147739407988" lon="11.091898294823391"><ele>1228.5</ele><time>2026-04-24T14:31:18.977Z</time></trkpt><trkpt lat="45.841367178452195" lon="11.091902442437584"><ele>1233.75</ele><time>2026-04-24T14:31:19.977Z</time></trkpt><trkpt lat="45.84123483663391" lon="11.091944478931962"><ele>1239.0</ele><time>2026-04-24T14:31:20.977Z</time></trkpt><trkpt lat="45.84108796525257" lon="11.092003979926698"><ele>1243.0</ele><time>2026-04-24T14:31:21.977Z</time></trkpt><trkpt lat="45.840965894775884" lon="11.092023463405786"><ele>1247.0</ele><time>2026-04-24T14:31:22.977Z</time></trkpt><trkpt lat="45.840859707567525" lon="11.092031195704436"><ele>1251.0</ele><time>2026-04-24T14:31:23.977Z</time></trkpt><trkpt lat="45.840797477463205" lon="11.092064785019023"><ele>1255.0</ele><time>2026-04-24T14:31:24.977Z</time></trkpt><trkpt lat="45.840715767852146" lon="11.092111641249213"><ele>1259.0</ele><time>2026-04-24T14:31:25.977Z</time></trkpt><trkpt lat="45.84065802441" lon="11.09217525254732"><ele>1259.0</ele><time>2026-04-24T14:31:26.977Z</time></trkpt><trkpt lat="45.840598887778505" lon="11.09223711533267"><ele>1259.0</ele><time>2026-04-24T14:31:28.977Z</time></trkpt><trkpt lat="45.84054311457471" lon="11.092341597956697"><ele>1259.0</ele><time>2026-04-24T14:31:30.977Z</time></trkpt><trkpt lat="45.840529575641455" lon="11.092493981849262"><ele>1259.0</ele><time>2026-04-24T14:31:32.977Z</time></trkpt><trkpt lat="45.84049676365866" lon="11.09260402745515"><ele>1259.0</ele><time>2026-04-24T14:31:33.977Z</time></trkpt><trkpt lat="45.84045695919455" lon="11.092742246720016"><ele>1260.3333333333335</ele><time>2026-04-24T14:31:35.977Z</time></trkpt><trkpt lat="45.840418643358724" lon="11.092904867158857"><ele>1261.6666666666667</ele><time>2026-04-24T14:31:37.976Z</time></trkpt><trkpt lat="45.84040068543435" lon="11.093002912299495"><ele>1263.0</ele><time>2026-04-24T14:31:38.976Z</time></trkpt><trkpt lat="45.840412491578164" lon="11.09313134705878"><ele>1264.3333333333333</ele><time>2026-04-24T14:31:40.976Z</time></trkpt><trkpt lat="45.84048530917473" lon="11.093170631698246"><ele>1265.6666666666665</ele><time>2026-04-24T14:31:42.976Z</time></trkpt><trkpt lat="45.84050803546058" lon="11.093255208931696"><ele>1267.0</ele><time>2026-04-24T14:31:44.976Z</time></trkpt><trkpt lat="45.84054546796073" lon="11.093338954300416"><ele>1270.7142857142858</ele><time>2026-04-24T14:31:46.976Z</time></trkpt><trkpt lat="45.840597867220595" lon="11.093402153740362"><ele>1274.4285714285716</ele><time>2026-04-24T14:31:48.976Z</time></trkpt><trkpt lat="45.8406599135898" lon="11.093463853425552"><ele>1278.142857142857</ele><time>2026-04-24T14:31:50.976Z</time></trkpt><trkpt lat="45.84065651361746" lon="11.093566183198675"><ele>1281.857142857143</ele><time>2026-04-24T14:31:52.976Z</time></trkpt><trkpt lat="45.84064072135558" lon="11.093665302666981"><ele>1285.5714285714287</ele><time>2026-04-24T14:31:54.976Z</time></trkpt><trkpt lat="45.8406161298207" lon="11.093764190907203"><ele>1289.2857142857142</ele><time>2026-04-24T14:31:57.976Z</time></trkpt><trkpt lat="45.84059706056199" lon="11.093850471095589"><ele>1293.0</ele><time>2026-04-24T14:31:59.976Z</time></trkpt><trkpt lat="45.84057012985777" lon="11.093950881919382"><ele>1293.0</ele><time>2026-04-24T14:32:01.976Z</time></trkpt><trkpt lat="45.84053158643082" lon="11.094077837163379"><ele>1293.0</ele><time>2026-04-24T14:32:03.976Z</time></trkpt><trkpt lat="45.84052704148685" lon="11.094203383790271"><ele>1293.0</ele><time>2026-04-24T14:32:05.976Z</time></trkpt><trkpt lat="45.84051362001785" lon="11.094311338559038"><ele>1293.0</ele><time>2026-04-24T14:32:07.976Z</time></trkpt><trkpt lat="45.840504859521594" lon="11.094497205761977"><ele>1293.0</ele><time>2026-04-24T14:32:09.976Z</time></trkpt><trkpt lat="45.840489022213966" lon="11.094627629069583"><ele>1297.142857142857</ele><time>2026-04-24T14:32:10.976Z</time></trkpt><trkpt lat="45.84047012499061" lon="11.094722336654783"><ele>1301.2857142857144</ele><time>2026-04-24T14:32:13.976Z</time></trkpt><trkpt lat="45.840443382412055" lon="11.094804179065317"><ele>1305.4285714285716</ele><time>2026-04-24T14:32:17.976Z</time></trkpt><trkpt lat="45.840420130780245" lon="11.094917784595275"><ele>1309.5714285714284</ele><time>2026-04-24T14:32:20.976Z</time></trkpt><trkpt lat="45.84037913331477" lon="11.095002990783522"><ele>1313.7142857142858</ele><time>2026-04-24T14:32:22.976Z</time></trkpt><trkpt lat="45.84034153157078" lon="11.095086802740463"><ele>1317.857142857143</ele><time>2026-04-24T14:32:24.976Z</time></trkpt><trkpt lat="45.8403339865559" lon="11.095208834700705"><ele>1322.0</ele><time>2026-04-24T14:32:26.976Z</time></trkpt><trkpt lat="45.84026980875272" lon="11.095315083131"><ele>1324.8</ele><time>2026-04-24T14:32:28.976Z</time></trkpt><trkpt lat="45.84024379716807" lon="11.095462789184783"><ele>1327.6</ele><time>2026-04-24T14:32:30.976Z</time></trkpt><trkpt lat="45.84021902371092" lon="11.095583936629735"><ele>1330.3999999999999</ele><time>2026-04-24T14:32:32.976Z</time></trkpt><trkpt lat="45.84021407152254" lon="11.095695142290904"><ele>1333.1999999999998</ele><time>2026-04-24T14:32:35.976Z</time></trkpt><trkpt lat="45.840182517939" lon="11.095822228272754"><ele>1336.0</ele><time>2026-04-24T14:32:37.976Z</time></trkpt><trkpt lat="45.84015857052121" lon="11.096007398833757"><ele>1337.5</ele><time>2026-04-24T14:32:39.976Z</time></trkpt><trkpt lat="45.84014364730488" lon="11.096103867925216"><ele>1339.0</ele><time>2026-04-24T14:32:40.976Z</time></trkpt><trkpt lat="45.840118903766786" lon="11.096209603239755"><ele>1340.5</ele><time>2026-04-24T14:32:41.976Z</time></trkpt><trkpt lat="45.84007853656237" lon="11.096291923537697"><ele>1342.0</ele><time>2026-04-24T14:32:42.976Z</time></trkpt><trkpt lat="45.840032620857606" lon="11.09636805008937"><ele>1343.5</ele><time>2026-04-24T14:32:43.976Z</time></trkpt><trkpt lat="45.84002041231618" lon="11.096512326817583"><ele>1345.0</ele><time>2026-04-24T14:32:45.976Z</time></trkpt><trkpt lat="45.840022561246045" lon="11.096661991120346"><ele>1348.0</ele><time>2026-04-24T14:32:47.976Z</time></trkpt><trkpt lat="45.8400563039579" lon="11.096778480737019"><ele>1351.0</ele><time>2026-04-24T14:32:50.976Z</time></trkpt><trkpt lat="45.840046935823366" lon="11.096871531334415"><ele>1354.0</ele><time>2026-04-24T14:33:02.975Z</time></trkpt><trkpt lat="45.840048686225344" lon="11.097045207907655"><ele>1357.0</ele><time>2026-04-24T14:33:04.975Z</time></trkpt><trkpt lat="45.84006042579603" lon="11.097169275289357"><ele>1360.0</ele><time>2026-04-24T14:33:05.976Z</time></trkpt><trkpt lat="45.840077734736234" lon="11.097276627311155"><ele>1363.0</ele><time>2026-04-24T14:33:06.976Z</time></trkpt><trkpt lat="45.840088775281274" lon="11.097396412935307"><ele>1363.8333333333333</ele><time>2026-04-24T14:33:07.976Z</time></trkpt><trkpt lat="45.84009591191125" lon="11.097510751880053"><ele>1364.6666666666665</ele><time>2026-04-24T14:33:08.976Z</time></trkpt><trkpt lat="45.84010288772175" lon="11.097634683687824"><ele>1365.5</ele><time>2026-04-24T14:33:09.977Z</time></trkpt><trkpt lat="45.840095371038245" lon="11.097762149455102"><ele>1366.3333333333333</ele><time>2026-04-24T14:33:10.977Z</time></trkpt><trkpt lat="45.84009780181882" lon="11.097911646435435"><ele>1367.1666666666667</ele><time>2026-04-24T14:33:11.976Z</time></trkpt><trkpt lat="45.840113803244904" lon="11.098037681271888"><ele>1368.0</ele><time>2026-04-24T14:33:12.976Z</time></trkpt><trkpt lat="45.84012452391738" lon="11.098165351860482"><ele>1367.4</ele><time>2026-04-24T14:33:13.976Z</time></trkpt><trkpt lat="45.84012703208465" lon="11.098310487394809"><ele>1366.8000000000002</ele><time>2026-04-24T14:33:14.976Z</time></trkpt><trkpt lat="45.84014308977349" lon="11.098424221894772"><ele>1366.2</ele><time>2026-04-24T14:33:15.977Z</time></trkpt><trkpt lat="45.84016261450735" lon="11.098543301140356"><ele>1365.6</ele><time>2026-04-24T14:33:16.976Z</time></trkpt><trkpt lat="45.84019004242423" lon="11.098671449428762"><ele>1365.0</ele><time>2026-04-24T14:33:17.976Z</time></trkpt><trkpt lat="45.84019795635644" lon="11.098801981349016"><ele>1365.0</ele><time>2026-04-24T14:33:18.976Z</time></trkpt><trkpt lat="45.84020914546433" lon="11.09892301130881"><ele>1365.0</ele><time>2026-04-24T14:33:19.977Z</time></trkpt><trkpt lat="45.84023245724137" lon="11.099032131010556"><ele>1365.0</ele><time>2026-04-24T14:33:20.977Z</time></trkpt><trkpt lat="45.84024880420039" lon="11.099169255876665"><ele>1365.0</ele><time>2026-04-24T14:33:21.976Z</time></trkpt><trkpt lat="45.84027029185529" lon="11.099298972374969"><ele>1365.0</ele><time>2026-04-24T14:33:22.976Z</time></trkpt><trkpt lat="45.84025086399972" lon="11.09947000282085"><ele>1364.8333333333333</ele><time>2026-04-24T14:33:24.976Z</time></trkpt><trkpt lat="45.84022909746014" lon="11.09958090381656"><ele>1364.6666666666667</ele><time>2026-04-24T14:33:25.976Z</time></trkpt><trkpt lat="45.84021502031483" lon="11.099689719973405"><ele>1364.5</ele><time>2026-04-24T14:33:26.976Z</time></trkpt><trkpt lat="45.84022689487595" lon="11.09980526390303"><ele>1364.3333333333335</ele><time>2026-04-24T14:33:27.976Z</time></trkpt><trkpt lat="45.84023488322083" lon="11.099928587404285"><ele>1364.1666666666667</ele><time>2026-04-24T14:33:28.976Z</time></trkpt><trkpt lat="45.84020506807273" lon="11.100040025699968"><ele>1364.0</ele><time>2026-04-24T14:33:29.976Z</time></trkpt><trkpt lat="45.84014725665055" lon="11.100139374121007"><ele>1367.8000000000002</ele><time>2026-04-24T14:33:30.976Z</time></trkpt><trkpt lat="45.84009649288059" lon="11.100259559529869"><ele>1371.6000000000001</ele><time>2026-04-24T14:33:31.976Z</time></trkpt><trkpt lat="45.84004944091371" lon="11.10039868306787"><ele>1375.4</ele><time>2026-04-24T14:33:32.976Z</time></trkpt><trkpt lat="45.84001237936175" lon="11.100539784277887"><ele>1379.2</ele><time>2026-04-24T14:33:33.976Z</time></trkpt><trkpt lat="45.83998313745628" lon="11.100653622061266"><ele>1383.0</ele><time>2026-04-24T14:33:34.976Z</time></trkpt><trkpt lat="45.839968035392104" lon="11.10076421225374"><ele>1383.0</ele><time>2026-04-24T14:33:35.976Z</time></trkpt><trkpt lat="45.83995756447495" lon="11.100888712913598"><ele>1383.0</ele><time>2026-04-24T14:33:36.976Z</time></trkpt><trkpt lat="45.83994727035634" lon="11.101038835906143"><ele>1383.0</ele><time>2026-04-24T14:33:37.976Z</time></trkpt><trkpt lat="45.839930755870974" lon="11.101177062330194"><ele>1383.0</ele><time>2026-04-24T14:33:38.976Z</time></trkpt><trkpt lat="45.839915095994144" lon="11.101314105806273"><ele>1383.0</ele><time>2026-04-24T14:33:39.976Z</time></trkpt><trkpt lat="45.83987704147942" lon="11.101465387583943"><ele>1381.25</ele><time>2026-04-24T14:33:40.976Z</time></trkpt><trkpt lat="45.839846866000734" lon="11.101633576842534"><ele>1379.5</ele><time>2026-04-24T14:33:41.976Z</time></trkpt><trkpt lat="45.839826798704" lon="11.101800408877468"><ele>1377.75</ele><time>2026-04-24T14:33:42.976Z</time></trkpt><trkpt lat="45.83982190177634" lon="11.10196513113528"><ele>1376.0</ele><time>2026-04-24T14:33:43.976Z</time></trkpt><trkpt lat="45.83980931490686" lon="11.102132483199279"><ele>1376.0</ele><time>2026-04-24T14:33:44.976Z</time></trkpt><trkpt lat="45.83978193039055" lon="11.102267984484945"><ele>1376.0</ele><time>2026-04-24T14:33:45.976Z</time></trkpt><trkpt lat="45.83974199782857" lon="11.102397026584821"><ele>1376.0</ele><time>2026-04-24T14:33:46.976Z</time></trkpt><trkpt lat="45.83971270430682" lon="11.10256960604649"><ele>1376.0</ele><time>2026-04-24T14:33:47.976Z</time></trkpt><trkpt lat="45.83967148118889" lon="11.102755710914966"><ele>1373.75</ele><time>2026-04-24T14:33:48.976Z</time></trkpt><trkpt lat="45.83963870169016" lon="11.10292199647582"><ele>1371.5</ele><time>2026-04-24T14:33:49.976Z</time></trkpt><trkpt lat="45.83961822822508" lon="11.103101259145793"><ele>1369.25</ele><time>2026-04-24T14:33:50.976Z</time></trkpt><trkpt lat="45.83954610080203" lon="11.103244876609986"><ele>1367.0</ele><time>2026-04-24T14:33:51.975Z</time></trkpt><trkpt lat="45.83951466440995" lon="11.103358274227347"><ele>1365.0</ele><time>2026-04-24T14:33:52.975Z</time></trkpt><trkpt lat="45.83946477854427" lon="11.103485915486601"><ele>1363.0</ele><time>2026-04-24T14:33:53.975Z</time></trkpt><trkpt lat="45.83940520753878" lon="11.10364562359248"><ele>1361.0</ele><time>2026-04-24T14:33:54.975Z</time></trkpt><trkpt lat="45.83936420808505" lon="11.103800542022066"><ele>1359.0</ele><time>2026-04-24T14:33:55.975Z</time></trkpt><trkpt lat="45.839340720586875" lon="11.103988675225537"><ele>1357.5</ele><time>2026-04-24T14:33:56.975Z</time></trkpt><trkpt lat="45.83932307373921" lon="11.104180257531747"><ele>1356.0</ele><time>2026-04-24T14:33:57.975Z</time></trkpt><trkpt lat="45.839324066202636" lon="11.10437384494991"><ele>1354.5</ele><time>2026-04-24T14:33:58.975Z</time></trkpt><trkpt lat="45.83929813375826" lon="11.104564964712026"><ele>1353.0</ele><time>2026-04-24T14:33:59.975Z</time></trkpt><trkpt lat="45.83928560143508" lon="11.104732342010278"><ele>1362.0</ele><time>2026-04-24T14:34:00.975Z</time></trkpt><trkpt lat="45.83927207681925" lon="11.104894442865442"><ele>1371.0</ele><time>2026-04-24T14:34:01.975Z</time></trkpt><trkpt lat="45.8392695284347" lon="11.105055498937908"><ele>1380.0</ele><time>2026-04-24T14:34:02.975Z</time></trkpt><trkpt lat="45.83924241240409" lon="11.105182487406575"><ele>1389.0</ele><time>2026-04-24T14:34:03.975Z</time></trkpt><trkpt lat="45.83922991719454" lon="11.105283978171325"><ele>1398.0</ele><time>2026-04-24T14:34:04.975Z</time></trkpt><trkpt lat="45.83921437626571" lon="11.10540245746603"><ele>1398.0</ele><time>2026-04-24T14:34:05.975Z</time></trkpt><trkpt lat="45.83919736942896" lon="11.105521458005372"><ele>1398.0</ele><time>2026-04-24T14:34:06.975Z</time></trkpt><trkpt lat="45.83917476664929" lon="11.105661863717765"><ele>1398.0</ele><time>2026-04-24T14:34:07.975Z</time></trkpt><trkpt lat="45.83914828208438" lon="11.105798202601221"><ele>1398.0</ele><time>2026-04-24T14:34:08.975Z</time></trkpt><trkpt lat="45.8391138063873" lon="11.105922099028694"><ele>1398.0</ele><time>2026-04-24T14:34:09.975Z</time></trkpt><trkpt lat="45.839055550455605" lon="11.106070732346735"><ele>1396.5</ele><time>2026-04-24T14:34:10.975Z</time></trkpt><trkpt lat="45.83898855087951" lon="11.106233524041812"><ele>1395.0</ele><time>2026-04-24T14:34:11.975Z</time></trkpt><trkpt lat="45.8389422505215" lon="11.106396812493395"><ele>1393.5</ele><time>2026-04-24T14:34:12.975Z</time></trkpt><trkpt lat="45.838938664764676" lon="11.106569198247087"><ele>1392.0</ele><time>2026-04-24T14:34:13.975Z</time></trkpt><trkpt lat="45.838927760124704" lon="11.106751546196366"><ele>1388.0</ele><time>2026-04-24T14:34:14.975Z</time></trkpt><trkpt lat="45.83891100426341" lon="11.106935368090605"><ele>1384.0</ele><time>2026-04-24T14:34:15.975Z</time></trkpt><trkpt lat="45.838865091398574" lon="11.107107607040112"><ele>1380.0</ele><time>2026-04-24T14:34:16.975Z</time></trkpt><trkpt lat="45.83881836587624" lon="11.107255696136892"><ele>1376.0</ele><time>2026-04-24T14:34:17.975Z</time></trkpt><trkpt lat="45.838779642610255" lon="11.10738561960117"><ele>1372.0</ele><time>2026-04-24T14:34:18.975Z</time></trkpt><trkpt lat="45.838725868933416" lon="11.107533416362344"><ele>1368.0</ele><time>2026-04-24T14:34:19.975Z</time></trkpt><trkpt lat="45.838677978208324" lon="11.107673634557147"><ele>1364.0</ele><time>2026-04-24T14:34:20.975Z</time></trkpt><trkpt lat="45.838595724463126" lon="11.10777170778345"><ele>1360.0</ele><time>2026-04-24T14:34:21.975Z</time></trkpt><trkpt lat="45.83848685609088" lon="11.107881559017352"><ele>1369.5</ele><time>2026-04-24T14:34:22.975Z</time></trkpt><trkpt lat="45.838330058617125" lon="11.107933559715653"><ele>1379.0</ele><time>2026-04-24T14:34:23.975Z</time></trkpt><trkpt lat="45.83821051771965" lon="11.10806184921687"><ele>1388.5</ele><time>2026-04-24T14:34:24.975Z</time></trkpt><trkpt lat="45.8381324494599" lon="11.108172302046722"><ele>1398.0</ele><time>2026-04-24T14:34:25.975Z</time></trkpt><trkpt lat="45.83806604859073" lon="11.108231700993773"><ele>1396.5</ele><time>2026-04-24T14:34:26.975Z</time></trkpt><trkpt lat="45.83800331466826" lon="11.108254476757917"><ele>1395.0</ele><time>2026-04-24T14:34:27.975Z</time></trkpt><trkpt lat="45.837885167818925" lon="11.108286201303"><ele>1393.5</ele><time>2026-04-24T14:34:28.975Z</time></trkpt><trkpt lat="45.83775123035441" lon="11.108324793553992"><ele>1392.0</ele><time>2026-04-24T14:34:29.975Z</time></trkpt><trkpt lat="45.837627086262096" lon="11.10837593923839"><ele>1392.0</ele><time>2026-04-24T14:34:30.975Z</time></trkpt><trkpt lat="45.837498794933595" lon="11.108453437764894"><ele>1392.0</ele><time>2026-04-24T14:34:31.975Z</time></trkpt><trkpt lat="45.83736460409504" lon="11.108478229270455"><ele>1392.0</ele><time>2026-04-24T14:34:32.975Z</time></trkpt><trkpt lat="45.837257516085806" lon="11.108560714360246"><ele>1392.0</ele><time>2026-04-24T14:34:33.975Z</time></trkpt><trkpt lat="45.837143327139316" lon="11.10864308531283"><ele>1392.0</ele><time>2026-04-24T14:34:34.975Z</time></trkpt><trkpt lat="45.83704857763997" lon="11.108746246508389"><ele>1392.0</ele><time>2026-04-24T14:34:35.975Z</time></trkpt><trkpt lat="45.8369713355337" lon="11.108871634676287"><ele>1392.0</ele><time>2026-04-24T14:34:36.975Z</time></trkpt><trkpt lat="45.83693479086907" lon="11.108949522297193"><ele>1392.0</ele><time>2026-04-24T14:34:37.975Z</time></trkpt><trkpt lat="45.83688544468826" lon="11.109110171597175"><ele>1392.0</ele><time>2026-04-24T14:34:39.975Z</time></trkpt><trkpt lat="45.836847862468815" lon="11.109205456085306"><ele>1390.0</ele><time>2026-04-24T14:34:40.975Z</time></trkpt><trkpt lat="45.836765379245385" lon="11.109331745874858"><ele>1388.0</ele><time>2026-04-24T14:34:41.975Z</time></trkpt><trkpt lat="45.83663826873228" lon="11.109428760301865"><ele>1386.0</ele><time>2026-04-24T14:34:42.975Z</time></trkpt><trkpt lat="45.83651023464278" lon="11.109502209145719"><ele>1384.0</ele><time>2026-04-24T14:34:43.975Z</time></trkpt><trkpt lat="45.83642957061419" lon="11.109589149824899"><ele>1384.0</ele><time>2026-04-24T14:34:44.975Z</time></trkpt><trkpt lat="45.836337613429194" lon="11.10964838222127"><ele>1384.0</ele><time>2026-04-24T14:34:45.975Z</time></trkpt><trkpt lat="45.83622481701467" lon="11.109726392661312"><ele>1384.0</ele><time>2026-04-24T14:34:46.975Z</time></trkpt><trkpt lat="45.836141332099636" lon="11.109797805645885"><ele>1384.0</ele><time>2026-04-24T14:34:47.975Z</time></trkpt><trkpt lat="45.836084645604714" lon="11.109851865879987"><ele>1384.0</ele><time>2026-04-24T14:34:48.975Z</time></trkpt><trkpt lat="45.83604698089667" lon="11.10994927349727"><ele>1384.6</ele><time>2026-04-24T14:34:49.975Z</time></trkpt><trkpt lat="45.83598538086859" lon="11.110018930241278"><ele>1385.2</ele><time>2026-04-24T14:34:50.975Z</time></trkpt><trkpt lat="45.835883565181305" lon="11.110099435446399"><ele>1385.8</ele><time>2026-04-24T14:34:51.975Z</time></trkpt><trkpt lat="45.83580555712965" lon="11.110173746298843"><ele>1386.3999999999999</ele><time>2026-04-24T14:34:52.975Z</time></trkpt><trkpt lat="45.83575648663162" lon="11.110355145562892"><ele>1387.0</ele><time>2026-04-24T14:34:54.975Z</time></trkpt><trkpt lat="45.835709819791" lon="11.110530606603955"><ele>1387.0</ele><time>2026-04-24T14:34:55.975Z</time></trkpt><trkpt lat="45.835676273820184" lon="11.110663796262553"><ele>1387.0</ele><time>2026-04-24T14:34:56.975Z</time></trkpt><trkpt lat="45.83566602941082" lon="11.110776428027073"><ele>1387.0</ele><time>2026-04-24T14:34:57.975Z</time></trkpt><trkpt lat="45.83565515160666" lon="11.110903864007966"><ele>1387.0</ele><time>2026-04-24T14:34:58.975Z</time></trkpt><trkpt lat="45.8356374943425" lon="11.111034607245768"><ele>1387.0</ele><time>2026-04-24T14:34:59.975Z</time></trkpt><trkpt lat="45.835653482819204" lon="11.111155234059144"><ele>1387.0</ele><time>2026-04-24T14:35:00.975Z</time></trkpt><trkpt lat="45.8356201120083" lon="11.111306770720875"><ele>1383.1999999999998</ele><time>2026-04-24T14:35:02.975Z</time></trkpt><trkpt lat="45.83552959482713" lon="11.11142454672075"><ele>1379.4</ele><time>2026-04-24T14:35:04.975Z</time></trkpt><trkpt lat="45.83548610495209" lon="11.111514560594356"><ele>1375.6</ele><time>2026-04-24T14:35:05.975Z</time></trkpt><trkpt lat="45.83540178301992" lon="11.111596515398144"><ele>1371.8000000000002</ele><time>2026-04-24T14:35:06.975Z</time></trkpt><trkpt lat="45.835330929925725" lon="11.111680939271585"><ele>1368.0</ele><time>2026-04-24T14:35:07.975Z</time></trkpt><trkpt lat="45.835238551121456" lon="11.111790583235694"><ele>1370.25</ele><time>2026-04-24T14:35:08.975Z</time></trkpt><trkpt lat="45.835125772486855" lon="11.111936695056144"><ele>1372.5</ele><time>2026-04-24T14:35:09.975Z</time></trkpt><trkpt lat="45.835016306336804" lon="11.112081328054861"><ele>1374.75</ele><time>2026-04-24T14:35:10.974Z</time></trkpt><trkpt lat="45.834953496191616" lon="11.112206181550427"><ele>1377.0</ele><time>2026-04-24T14:35:11.975Z</time></trkpt><trkpt lat="45.83491840296131" lon="11.11234827150223"><ele>1375.3999999999999</ele><time>2026-04-24T14:35:12.975Z</time></trkpt><trkpt lat="45.83489571231371" lon="11.112511350131921"><ele>1373.8</ele><time>2026-04-24T14:35:13.976Z</time></trkpt><trkpt lat="45.83488948435571" lon="11.112672887231929"><ele>1372.2</ele><time>2026-04-24T14:35:14.976Z</time></trkpt><trkpt lat="45.83489599212459" lon="11.112831722572107"><ele>1370.6</ele><time>2026-04-24T14:35:15.976Z</time></trkpt><trkpt lat="45.83489950758423" lon="11.112981447913109"><ele>1369.0</ele><time>2026-04-24T14:35:16.976Z</time></trkpt><trkpt lat="45.83492010584156" lon="11.113092297817087"><ele>1369.0</ele><time>2026-04-24T14:35:17.975Z</time></trkpt><trkpt lat="45.83493869961526" lon="11.113180355228279"><ele>1369.0</ele><time>2026-04-24T14:35:19.975Z</time></trkpt><trkpt lat="45.83524807936655" lon="11.113384636467849"><ele>1369.0</ele><time>2026-04-24T14:35:21.976Z</time></trkpt><trkpt lat="45.83532134697891" lon="11.113314409403609"><ele>1367.2</ele><time>2026-04-24T14:35:22.976Z</time></trkpt><trkpt lat="45.83541958224436" lon="11.11321936461427"><ele>1365.4</ele><time>2026-04-24T14:35:24.975Z</time></trkpt><trkpt lat="45.83549589023909" lon="11.11316070060737"><ele>1363.6</ele><time>2026-04-24T14:35:26.976Z</time></trkpt><trkpt lat="45.835582465697556" lon="11.11312280089347"><ele>1361.8</ele><time>2026-04-24T14:35:28.976Z</time></trkpt><trkpt lat="45.83567419104636" lon="11.11308653623168"><ele>1360.0</ele><time>2026-04-24T14:35:31.976Z</time></trkpt><trkpt lat="45.83556870019822" lon="11.11315509988258"><ele>1360.0</ele><time>2026-04-24T14:35:36.975Z</time></trkpt><trkpt lat="45.835487185060124" lon="11.113183610455149"><ele>1360.0</ele><time>2026-04-24T14:35:37.975Z</time></trkpt><trkpt lat="45.835405889254844" lon="11.11321643266638"><ele>1360.0</ele><time>2026-04-24T14:35:38.975Z</time></trkpt><trkpt lat="45.8353411118793" lon="11.113256343202492"><ele>1360.0</ele><time>2026-04-24T14:35:39.975Z</time></trkpt><trkpt lat="45.83528210559661" lon="11.113313840596737"><ele>1360.0</ele><time>2026-04-24T14:35:40.975Z</time></trkpt><trkpt lat="45.83521159298455" lon="11.113377889755832"><ele>1360.0</ele><time>2026-04-24T14:35:41.975Z</time></trkpt><trkpt lat="45.83513060884026" lon="11.113452923660054"><ele>1361.8</ele><time>2026-04-24T14:35:42.975Z</time></trkpt><trkpt lat="45.83504245259356" lon="11.113511632153259"><ele>1363.6</ele><time>2026-04-24T14:35:43.975Z</time></trkpt><trkpt lat="45.834971255924955" lon="11.113610281366553"><ele>1365.4</ele><time>2026-04-24T14:35:44.975Z</time></trkpt><trkpt lat="45.83491018610648" lon="11.113719935233986"><ele>1367.2</ele><time>2026-04-24T14:35:45.975Z</time></trkpt><trkpt lat="45.83484246911485" lon="11.113825987949859"><ele>1369.0</ele><time>2026-04-24T14:35:46.975Z</time></trkpt><trkpt lat="45.834780119485046" lon="11.113928030885774"><ele>1369.0</ele><time>2026-04-24T14:35:47.975Z</time></trkpt><trkpt lat="45.834690531736065" lon="11.113990446698777"><ele>1369.0</ele><time>2026-04-24T14:35:48.975Z</time></trkpt><trkpt lat="45.834606740056024" lon="11.11404612040088"><ele>1369.0</ele><time>2026-04-24T14:35:49.975Z</time></trkpt><trkpt lat="45.83452947606123" lon="11.114085533424259"><ele>1369.0</ele><time>2026-04-24T14:35:50.975Z</time></trkpt><trkpt lat="45.83444606819351" lon="11.114116781225219"><ele>1369.0</ele><time>2026-04-24T14:35:51.975Z</time></trkpt><trkpt lat="45.83434944012711" lon="11.114111172287204"><ele>1370.8333333333333</ele><time>2026-04-24T14:35:52.975Z</time></trkpt><trkpt lat="45.83427506494035" lon="11.114126871764572"><ele>1372.6666666666665</ele><time>2026-04-24T14:35:53.975Z</time></trkpt><trkpt lat="45.83421534465438" lon="11.114211811177096"><ele>1374.5</ele><time>2026-04-24T14:35:54.975Z</time></trkpt><trkpt lat="45.834145447754054" lon="11.114298094601082"><ele>1376.3333333333333</ele><time>2026-04-24T14:35:55.975Z</time></trkpt><trkpt lat="45.83407979701" lon="11.11438020768897"><ele>1378.1666666666667</ele><time>2026-04-24T14:35:56.975Z</time></trkpt><trkpt lat="45.834007555633605" lon="11.114454523925849"><ele>1380.0</ele><time>2026-04-24T14:35:57.975Z</time></trkpt><trkpt lat="45.8339066254679" lon="11.114453634586324"><ele>1380.0</ele><time>2026-04-24T14:35:58.975Z</time></trkpt><trkpt lat="45.83380950352766" lon="11.114494832769095"><ele>1380.0</ele><time>2026-04-24T14:35:59.975Z</time></trkpt><trkpt lat="45.83369902005216" lon="11.114502946176309"><ele>1380.0</ele><time>2026-04-24T14:36:00.975Z</time></trkpt><trkpt lat="45.83360228675216" lon="11.114516210387384"><ele>1380.0</ele><time>2026-04-24T14:36:01.975Z</time></trkpt><trkpt lat="45.83350972646161" lon="11.114564774710376"><ele>1380.0</ele><time>2026-04-24T14:36:02.975Z</time></trkpt><trkpt lat="45.83343019352667" lon="11.1146514676979"><ele>1381.2</ele><time>2026-04-24T14:36:03.975Z</time></trkpt><trkpt lat="45.83336933068728" lon="11.114766862163558"><ele>1382.4</ele><time>2026-04-24T14:36:04.975Z</time></trkpt><trkpt lat="45.83332344218821" lon="11.114896589809057"><ele>1383.6</ele><time>2026-04-24T14:36:05.975Z</time></trkpt><trkpt lat="45.833275936415006" lon="11.115020696037012"><ele>1384.8</ele><time>2026-04-24T14:36:06.975Z</time></trkpt><trkpt lat="45.83323094308409" lon="11.115160989284279"><ele>1386.0</ele><time>2026-04-24T14:36:07.975Z</time></trkpt><trkpt lat="45.833170390972946" lon="11.115287263544515"><ele>1386.0</ele><time>2026-04-24T14:36:08.975Z</time></trkpt><trkpt lat="45.833116461246895" lon="11.115403564023126"><ele>1386.0</ele><time>2026-04-24T14:36:09.975Z</time></trkpt><trkpt lat="45.8330556864522" lon="11.115524324450261"><ele>1386.0</ele><time>2026-04-24T14:36:10.975Z</time></trkpt><trkpt lat="45.83299755834253" lon="11.115634923355442"><ele>1386.0</ele><time>2026-04-24T14:36:11.975Z</time></trkpt><trkpt lat="45.83293192584637" lon="11.115757509396238"><ele>1386.0</ele><time>2026-04-24T14:36:12.975Z</time></trkpt><trkpt lat="45.832865545179914" lon="11.11588442014173"><ele>1388.0</ele><time>2026-04-24T14:36:13.975Z</time></trkpt><trkpt lat="45.832801511871146" lon="11.115996082025932"><ele>1390.0</ele><time>2026-04-24T14:36:14.975Z</time></trkpt><trkpt lat="45.83271434146271" lon="11.1160815277164"><ele>1392.0</ele><time>2026-04-24T14:36:15.975Z</time></trkpt><trkpt lat="45.832639381028415" lon="11.116175665569179"><ele>1394.0</ele><time>2026-04-24T14:36:16.975Z</time></trkpt><trkpt lat="45.83256544116543" lon="11.11624425948768"><ele>1396.0</ele><time>2026-04-24T14:36:17.975Z</time></trkpt><trkpt lat="45.83249927060624" lon="11.116278045131061"><ele>1396.6</ele><time>2026-04-24T14:36:18.975Z</time></trkpt><trkpt lat="45.832359349939374" lon="11.11626468698515"><ele>1397.1999999999998</ele><time>2026-04-24T14:36:20.975Z</time></trkpt><trkpt lat="45.83229834775105" lon="11.116200084970826"><ele>1397.8000000000002</ele><time>2026-04-24T14:36:21.975Z</time></trkpt><trkpt lat="45.83220318414513" lon="11.116187171094227"><ele>1398.4</ele><time>2026-04-24T14:36:22.975Z</time></trkpt><trkpt lat="45.83210608400252" lon="11.11622400261343"><ele>1399.0</ele><time>2026-04-24T14:36:23.975Z</time></trkpt><trkpt lat="45.832022385463134" lon="11.116275881111001"><ele>1399.0</ele><time>2026-04-24T14:36:24.975Z</time></trkpt><trkpt lat="45.83193606531287" lon="11.116345041750785"><ele>1399.0</ele><time>2026-04-24T14:36:25.975Z</time></trkpt><trkpt lat="45.83187928071057" lon="11.116436626517302"><ele>1399.0</ele><time>2026-04-24T14:36:26.975Z</time></trkpt><trkpt lat="45.83181569668606" lon="11.116552596319082"><ele>1399.0</ele><time>2026-04-24T14:36:27.975Z</time></trkpt><trkpt lat="45.831747722280866" lon="11.116652432577963"><ele>1399.0</ele><time>2026-04-24T14:36:28.975Z</time></trkpt><trkpt lat="45.83168862698935" lon="11.116759299797204"><ele>1401.2</ele><time>2026-04-24T14:36:29.975Z</time></trkpt><trkpt lat="45.8316364255716" lon="11.116883300406602"><ele>1403.4</ele><time>2026-04-24T14:36:30.975Z</time></trkpt><trkpt lat="45.831604994954745" lon="11.117019231159988"><ele>1405.6</ele><time>2026-04-24T14:36:31.975Z</time></trkpt><trkpt lat="45.831569303614586" lon="11.117153300110216"><ele>1407.8</ele><time>2026-04-24T14:36:32.975Z</time></trkpt><trkpt lat="45.831535170337595" lon="11.117288653234697"><ele>1410.0</ele><time>2026-04-24T14:36:33.975Z</time></trkpt><trkpt lat="45.83148647352805" lon="11.117406419636744"><ele>1410.8</ele><time>2026-04-24T14:36:34.975Z</time></trkpt><trkpt lat="45.83139262343262" lon="11.117477186627287"><ele>1411.6</ele><time>2026-04-24T14:36:35.975Z</time></trkpt><trkpt lat="45.8313163086664" lon="11.117564497966468"><ele>1412.4</ele><time>2026-04-24T14:36:36.975Z</time></trkpt><trkpt lat="45.83124740912756" lon="11.117687994936489"><ele>1413.2</ele><time>2026-04-24T14:36:37.975Z</time></trkpt><trkpt lat="45.831164992283526" lon="11.117780156759544"><ele>1414.0</ele><time>2026-04-24T14:36:38.975Z</time></trkpt><trkpt lat="45.831082449343455" lon="11.11785459048191"><ele>1414.0</ele><time>2026-04-24T14:36:39.975Z</time></trkpt><trkpt lat="45.831010271450346" lon="11.117926983409125"><ele>1414.0</ele><time>2026-04-24T14:36:40.975Z</time></trkpt><trkpt lat="45.83094407971884" lon="11.118010144299054"><ele>1414.0</ele><time>2026-04-24T14:36:41.975Z</time></trkpt><trkpt lat="45.83089726851897" lon="11.118116374617573"><ele>1414.0</ele><time>2026-04-24T14:36:42.975Z</time></trkpt><trkpt lat="45.830838239851616" lon="11.118189694784498"><ele>1414.0</ele><time>2026-04-24T14:36:43.975Z</time></trkpt><trkpt lat="45.83076291276993" lon="11.11823527322979"><ele>1414.0</ele><time>2026-04-24T14:36:44.975Z</time></trkpt><trkpt lat="45.830683569441895" lon="11.118261952467074"><ele>1416.4</ele><time>2026-04-24T14:36:45.975Z</time></trkpt><trkpt lat="45.83061908087192" lon="11.1184173044035"><ele>1418.8000000000002</ele><time>2026-04-24T14:36:47.975Z</time></trkpt><trkpt lat="45.830576603234206" lon="11.118535412245038"><ele>1421.1999999999998</ele><time>2026-04-24T14:36:48.975Z</time></trkpt><trkpt lat="45.830510807846565" lon="11.118634161542072"><ele>1423.6</ele><time>2026-04-24T14:36:49.975Z</time></trkpt><trkpt lat="45.830444206157416" lon="11.118733326888384"><ele>1426.0</ele><time>2026-04-24T14:36:50.975Z</time></trkpt><trkpt lat="45.83038454271199" lon="11.118816884803191"><ele>1426.0</ele><time>2026-04-24T14:36:51.975Z</time></trkpt><trkpt lat="45.83031572678773" lon="11.118899341783386"><ele>1426.0</ele><time>2026-04-24T14:36:52.975Z</time></trkpt><trkpt lat="45.830241166659796" lon="11.118969848396722"><ele>1426.0</ele><time>2026-04-24T14:36:53.974Z</time></trkpt><trkpt lat="45.83017001540765" lon="11.119061855032712"><ele>1426.0</ele><time>2026-04-24T14:36:54.974Z</time></trkpt><trkpt lat="45.830108505811175" lon="11.119132707373648"><ele>1426.0</ele><time>2026-04-24T14:36:55.974Z</time></trkpt><trkpt lat="45.83005906408539" lon="11.119221823979986"><ele>1426.0</ele><time>2026-04-24T14:36:56.974Z</time></trkpt><trkpt lat="45.82999112065819" lon="11.119308658632526"><ele>1428.6</ele><time>2026-04-24T14:36:57.974Z</time></trkpt><trkpt lat="45.82993222675465" lon="11.119408854498786"><ele>1431.1999999999998</ele><time>2026-04-24T14:36:58.974Z</time></trkpt><trkpt lat="45.829871296570396" lon="11.119492443930298"><ele>1433.8000000000002</ele><time>2026-04-24T14:36:59.974Z</time></trkpt><trkpt lat="45.82976186387619" lon="11.119540535308767"><ele>1436.4</ele><time>2026-04-24T14:37:01.974Z</time></trkpt><trkpt lat="45.829689311867895" lon="11.119600553030125"><ele>1439.0</ele><time>2026-04-24T14:37:03.974Z</time></trkpt><trkpt lat="45.82964146199208" lon="11.11968654082491"><ele>1439.0</ele><time>2026-04-24T14:37:05.974Z</time></trkpt><trkpt lat="45.8295628845476" lon="11.119741493166813"><ele>1439.0</ele><time>2026-04-24T14:37:08.974Z</time></trkpt><trkpt lat="45.8295020026205" lon="11.119817602257557"><ele>1439.0</ele><time>2026-04-24T14:37:10.974Z</time></trkpt><trkpt lat="45.829467696568514" lon="11.11994252252987"><ele>1439.0</ele><time>2026-04-24T14:37:12.974Z</time></trkpt><trkpt lat="45.829432318101254" lon="11.120022948097548"><ele>1439.0</ele><time>2026-04-24T14:37:13.974Z</time></trkpt><trkpt lat="45.8293897879933" lon="11.120096571494528"><ele>1439.0</ele><time>2026-04-24T14:37:14.974Z</time></trkpt><trkpt lat="45.82931839046815" lon="11.120230041507023"><ele>1442.8333333333335</ele><time>2026-04-24T14:37:16.974Z</time></trkpt><trkpt lat="45.8292828825112" lon="11.120306759723974"><ele>1446.6666666666667</ele><time>2026-04-24T14:37:17.975Z</time></trkpt><trkpt lat="45.829237605619646" lon="11.12037534100997"><ele>1450.5</ele><time>2026-04-24T14:37:18.975Z</time></trkpt><trkpt lat="45.82920554519302" lon="11.120479093972817"><ele>1454.3333333333333</ele><time>2026-04-24T14:37:20.975Z</time></trkpt><trkpt lat="45.82917770438857" lon="11.120625037720018"><ele>1458.1666666666665</ele><time>2026-04-24T14:37:22.975Z</time></trkpt><trkpt lat="45.82915260755027" lon="11.120761684180037"><ele>1462.0</ele><time>2026-04-24T14:37:24.975Z</time></trkpt><trkpt lat="45.829121301341104" lon="11.120840375973504"><ele>1462.0</ele><time>2026-04-24T14:37:26.975Z</time></trkpt><trkpt lat="45.829100000405965" lon="11.12101346229511"><ele>1462.0</ele><time>2026-04-24T14:37:28.975Z</time></trkpt><trkpt lat="45.8290948837855" lon="11.121139094059778"><ele>1462.0</ele><time>2026-04-24T14:37:29.975Z</time></trkpt><trkpt lat="45.829089331060814" lon="11.121286362075145"><ele>1462.0</ele><time>2026-04-24T14:37:30.974Z</time></trkpt><trkpt lat="45.82907875086182" lon="11.121441475066527"><ele>1462.0</ele><time>2026-04-24T14:37:31.975Z</time></trkpt><trkpt lat="45.829082416628125" lon="11.121616679500427"><ele>1463.3999999999999</ele><time>2026-04-24T14:37:32.975Z</time></trkpt><trkpt lat="45.82908625235932" lon="11.121757253453417"><ele>1464.8</ele><time>2026-04-24T14:37:33.975Z</time></trkpt><trkpt lat="45.82909919160002" lon="11.121879924210369"><ele>1466.2</ele><time>2026-04-24T14:37:34.975Z</time></trkpt><trkpt lat="45.829102878690215" lon="11.12198043700354"><ele>1467.6</ele><time>2026-04-24T14:37:35.975Z</time></trkpt><trkpt lat="45.829095478681964" lon="11.122132985235199"><ele>1469.0</ele><time>2026-04-24T14:37:37.975Z</time></trkpt><trkpt lat="45.82913347672863" lon="11.12228946645356"><ele>1471.0</ele><time>2026-04-24T14:37:39.975Z</time></trkpt><trkpt lat="45.82917604738825" lon="11.122427527191139"><ele>1473.0</ele><time>2026-04-24T14:37:41.975Z</time></trkpt><trkpt lat="45.829170793918486" lon="11.12259208713279"><ele>1475.0</ele><time>2026-04-24T14:37:43.975Z</time></trkpt><trkpt lat="45.82916751036221" lon="11.122706734091063"><ele>1477.0</ele><time>2026-04-24T14:37:44.975Z</time></trkpt><trkpt lat="45.82916640969525" lon="11.122851182027713"><ele>1479.0</ele><time>2026-04-24T14:37:45.975Z</time></trkpt><trkpt lat="45.82916581937002" lon="11.122996590973127"><ele>1479.0</ele><time>2026-04-24T14:37:46.975Z</time></trkpt><trkpt lat="45.82916269856187" lon="11.12314657668257"><ele>1479.0</ele><time>2026-04-24T14:37:47.975Z</time></trkpt><trkpt lat="45.82915241449542" lon="11.123272721070608"><ele>1479.0</ele><time>2026-04-24T14:37:48.975Z</time></trkpt><trkpt lat="45.82912516441068" lon="11.123419045447937"><ele>1479.0</ele><time>2026-04-24T14:37:50.975Z</time></trkpt><trkpt lat="45.82909082512714" lon="11.123505057815334"><ele>1479.0</ele><time>2026-04-24T14:37:52.975Z</time></trkpt><trkpt lat="45.82908345652586" lon="11.123597963029074"><ele>1479.0</ele><time>2026-04-24T14:37:59.975Z</time></trkpt><trkpt lat="45.829148242869906" lon="11.123620099246663"><ele>1481.3333333333333</ele><time>2026-04-24T14:40:13.974Z</time></trkpt><trkpt lat="45.8292061856382" lon="11.123695854822651"><ele>1483.6666666666667</ele><time>2026-04-24T14:40:16.974Z</time></trkpt><trkpt lat="45.82913543103696" lon="11.123761131275"><ele>1486.0</ele><time>2026-04-24T14:40:23.974Z</time></trkpt><trkpt lat="45.82905704293252" lon="11.123745243228377"><ele>1488.3333333333335</ele><time>2026-04-24T14:40:34.974Z</time></trkpt><trkpt lat="45.82895702857063" lon="11.123755216550103"><ele>1490.6666666666667</ele><time>2026-04-24T14:40:36.974Z</time></trkpt><trkpt lat="45.828868062904334" lon="11.123734155667481"><ele>1493.0</ele><time>2026-04-24T14:40:38.974Z</time></trkpt><trkpt lat="45.82877010698961" lon="11.123694450708152"><ele>1493.0</ele><time>2026-04-24T14:40:40.974Z</time></trkpt><trkpt lat="45.82869232260075" lon="11.123671199086717"><ele>1493.0</ele><time>2026-04-24T14:40:42.974Z</time></trkpt><trkpt lat="45.82862596732219" lon="11.123652132633106"><ele>1493.0</ele><time>2026-04-24T14:40:44.974Z</time></trkpt><trkpt lat="45.82865338004438" lon="11.123779791325934"><ele>1493.0</ele><time>2026-04-24T14:40:47.974Z</time></trkpt><trkpt lat="45.82874003207664" lon="11.12382875166993"><ele>1493.0</ele><time>2026-04-24T14:40:49.974Z</time></trkpt><trkpt lat="45.82870545546018" lon="11.123939885619007"><ele>1493.0</ele><time>2026-04-24T14:40:52.974Z</time></trkpt><trkpt lat="45.82864369556946" lon="11.123958958570638"><ele>1493.0</ele><time>2026-04-24T14:40:53.974Z</time></trkpt><trkpt lat="45.828535897150836" lon="11.123976712085117"><ele>1493.0</ele><time>2026-04-24T14:40:55.974Z</time></trkpt><trkpt lat="45.828463964719624" lon="11.123954519362806"><ele>1493.0</ele><time>2026-04-24T14:40:56.974Z</time></trkpt><trkpt lat="45.82835139760677" lon="11.123956260810106"><ele>1493.0</ele><time>2026-04-24T14:40:58.974Z</time></trkpt><trkpt lat="45.82828306221651" lon="11.123986149684644"><ele>1493.0</ele><time>2026-04-24T14:41:00.974Z</time></trkpt><trkpt lat="45.82831751118432" lon="11.124100189171566"><ele>1495.3333333333335</ele><time>2026-04-24T14:41:02.974Z</time></trkpt><trkpt lat="45.828390083668495" lon="11.124122997236508"><ele>1497.6666666666667</ele><time>2026-04-24T14:41:03.973Z</time></trkpt><trkpt lat="45.82845648426311" lon="11.124170452570967"><ele>1500.0</ele><time>2026-04-24T14:41:04.973Z</time></trkpt><trkpt lat="45.82850707192137" lon="11.12425840891633"><ele>1502.3333333333333</ele><time>2026-04-24T14:41:05.973Z</time></trkpt><trkpt lat="45.82851084910889" lon="11.124372775714303"><ele>1504.6666666666665</ele><time>2026-04-24T14:41:06.973Z</time></trkpt><trkpt lat="45.82851739710356" lon="11.124520649814036"><ele>1507.0</ele><time>2026-04-24T14:41:07.973Z</time></trkpt><trkpt lat="45.828532427671014" lon="11.124651497625207"><ele>1507.0</ele><time>2026-04-24T14:41:08.973Z</time></trkpt><trkpt lat="45.828564336226265" lon="11.124763439288104"><ele>1507.0</ele><time>2026-04-24T14:41:09.973Z</time></trkpt><trkpt lat="45.828620284273455" lon="11.124857835403132"><ele>1507.0</ele><time>2026-04-24T14:41:10.973Z</time></trkpt><trkpt lat="45.82867395949366" lon="11.124909502513734"><ele>1507.0</ele><time>2026-04-24T14:41:11.973Z</time></trkpt><trkpt lat="45.828736628172095" lon="11.12495193145708"><ele>1507.0</ele><time>2026-04-24T14:41:13.973Z</time></trkpt><trkpt lat="45.82883478292185" lon="11.125018768555247"><ele>1507.0</ele><time>2026-04-24T14:41:15.973Z</time></trkpt><trkpt lat="45.82886555038357" lon="11.125200724717795"><ele>1509.0</ele><time>2026-04-24T14:41:17.973Z</time></trkpt><trkpt lat="45.82886236676875" lon="11.125301510555547"><ele>1511.0</ele><time>2026-04-24T14:41:18.973Z</time></trkpt><trkpt lat="45.82884270254204" lon="11.12542648898374"><ele>1513.0</ele><time>2026-04-24T14:41:19.973Z</time></trkpt><trkpt lat="45.82881261124575" lon="11.125559055469656"><ele>1515.0</ele><time>2026-04-24T14:41:20.973Z</time></trkpt><trkpt lat="45.8287795558565" lon="11.12569939735732"><ele>1517.0</ele><time>2026-04-24T14:41:21.973Z</time></trkpt><trkpt lat="45.828751122466045" lon="11.125812233430127"><ele>1519.0</ele><time>2026-04-24T14:41:22.973Z</time></trkpt><trkpt lat="45.82868560320874" lon="11.125966071543296"><ele>1519.8000000000002</ele><time>2026-04-24T14:41:24.973Z</time></trkpt><trkpt lat="45.82860069993219" lon="11.126078824441601"><ele>1520.6000000000001</ele><time>2026-04-24T14:41:26.973Z</time></trkpt><trkpt lat="45.82852721611899" lon="11.126142123594203"><ele>1521.4</ele><time>2026-04-24T14:41:28.973Z</time></trkpt><trkpt lat="45.828424828221486" lon="11.126205176065021"><ele>1522.2</ele><time>2026-04-24T14:41:30.974Z</time></trkpt><trkpt lat="45.82835757393455" lon="11.12622393844511"><ele>1523.0</ele><time>2026-04-24T14:41:31.974Z</time></trkpt><trkpt lat="45.828277763666364" lon="11.126333365745252"><ele>1523.6000000000001</ele><time>2026-04-24T14:41:33.974Z</time></trkpt><trkpt lat="45.82821080739045" lon="11.126406943901147"><ele>1524.2</ele><time>2026-04-24T14:41:34.974Z</time></trkpt><trkpt lat="45.82815434430907" lon="11.12649626474246"><ele>1524.8</ele><time>2026-04-24T14:41:35.974Z</time></trkpt><trkpt lat="45.82808036141328" lon="11.126565341410672"><ele>1525.4</ele><time>2026-04-24T14:41:36.974Z</time></trkpt><trkpt lat="45.82800658763671" lon="11.12663358809756"><ele>1526.0</ele><time>2026-04-24T14:41:37.974Z</time></trkpt><trkpt lat="45.82790793263576" lon="11.126689769270074"><ele>1526.4</ele><time>2026-04-24T14:41:38.974Z</time></trkpt><trkpt lat="45.82780185389005" lon="11.126723093927895"><ele>1526.8</ele><time>2026-04-24T14:41:39.974Z</time></trkpt><trkpt lat="45.8277377117765" lon="11.126709140048149"><ele>1527.2</ele><time>2026-04-24T14:41:40.974Z</time></trkpt><trkpt lat="45.827648681971915" lon="11.126711760126758"><ele>1527.6000000000001</ele><time>2026-04-24T14:41:41.974Z</time></trkpt><trkpt lat="45.82755043842185" lon="11.12672432662126"><ele>1528.0</ele><time>2026-04-24T14:41:42.974Z</time></trkpt><trkpt lat="45.82744609549971" lon="11.126744841443486"><ele>1529.6666666666665</ele><time>2026-04-24T14:41:43.974Z</time></trkpt><trkpt lat="45.827369569133616" lon="11.126776622679976"><ele>1531.3333333333333</ele><time>2026-04-24T14:41:44.974Z</time></trkpt><trkpt lat="45.827328912508946" lon="11.126865367756805"><ele>1533.0</ele><time>2026-04-24T14:41:49.973Z</time></trkpt><trkpt lat="45.8273519228158" lon="11.126953776550879"><ele>1534.6666666666665</ele><time>2026-04-24T14:41:55.973Z</time></trkpt><trkpt lat="45.82735352578385" lon="11.12707492402414"><ele>1536.3333333333333</ele><time>2026-04-24T14:41:57.973Z</time></trkpt><trkpt lat="45.82726469384884" lon="11.127068371958856"><ele>1538.0</ele><time>2026-04-24T14:42:00.973Z</time></trkpt><trkpt lat="45.82720947470439" lon="11.127019565372693"><ele>1538.0</ele><time>2026-04-24T14:42:02.973Z</time></trkpt><trkpt lat="45.82711592740423" lon="11.126920298069003"><ele>1538.0</ele><time>2026-04-24T14:42:04.973Z</time></trkpt><trkpt lat="45.82705638686187" lon="11.1268264791616"><ele>1538.0</ele><time>2026-04-24T14:42:05.973Z</time></trkpt><trkpt lat="45.82698413633788" lon="11.1267222608418"><ele>1538.0</ele><time>2026-04-24T14:42:06.973Z</time></trkpt><trkpt lat="45.826919596727706" lon="11.126653887757062"><ele>1538.0</ele><time>2026-04-24T14:42:07.973Z</time></trkpt><trkpt lat="45.826866615010495" lon="11.126597038885123"><ele>1537.9999999999998</ele><time>2026-04-24T14:42:08.973Z</time></trkpt><trkpt lat="45.826829684818016" lon="11.126516923898237"><ele>1538.0</ele><time>2026-04-24T14:42:09.973Z</time></trkpt><trkpt lat="45.82680935168699" lon="11.126427888132914"><ele>1538.0</ele><time>2026-04-24T14:42:10.973Z</time></trkpt><trkpt lat="45.82675000851891" lon="11.126358409958973"><ele>1538.0</ele><time>2026-04-24T14:42:13.973Z</time></trkpt><trkpt lat="45.826761871536895" lon="11.126479698620178"><ele>1537.9999999999998</ele><time>2026-04-24T14:42:17.973Z</time></trkpt><trkpt lat="45.82678891381991" lon="11.126630829292008"><ele>1538.0</ele><time>2026-04-24T14:42:19.973Z</time></trkpt><trkpt lat="45.82682392493488" lon="11.126731278230885"><ele>1538.0</ele><time>2026-04-24T14:42:20.973Z</time></trkpt><trkpt lat="45.82686248976582" lon="11.126837549592802"><ele>1538.0</ele><time>2026-04-24T14:42:21.973Z</time></trkpt><trkpt lat="45.82689437018854" lon="11.126984982639451"><ele>1538.0</ele><time>2026-04-24T14:42:22.973Z</time></trkpt><trkpt lat="45.82691167606127" lon="11.127139906917229"><ele>1538.0</ele><time>2026-04-24T14:42:23.973Z</time></trkpt><trkpt lat="45.826932426631764" lon="11.127291714781009"><ele>1538.0</ele><time>2026-04-24T14:42:24.973Z</time></trkpt><trkpt lat="45.8269461641145" lon="11.127450232016578"><ele>1540.2</ele><time>2026-04-24T14:42:25.973Z</time></trkpt><trkpt lat="45.82696438628737" lon="11.127578153314218"><ele>1542.4</ele><time>2026-04-24T14:42:26.973Z</time></trkpt><trkpt lat="45.82702086905993" lon="11.127687345740208"><ele>1544.6000000000001</ele><time>2026-04-24T14:42:27.973Z</time></trkpt><trkpt lat="45.827086477366755" lon="11.127801643302082"><ele>1546.8000000000002</ele><time>2026-04-24T14:42:28.973Z</time></trkpt><trkpt lat="45.82715176409159" lon="11.127932979915352"><ele>1549.0</ele><time>2026-04-24T14:42:29.973Z</time></trkpt><trkpt lat="45.82719461371205" lon="11.128100463769488"><ele>1552.75</ele><time>2026-04-24T14:42:30.973Z</time></trkpt><trkpt lat="45.82724179867892" lon="11.128281798901368"><ele>1556.5</ele><time>2026-04-24T14:42:31.973Z</time></trkpt><trkpt lat="45.827282517140155" lon="11.12845674516209"><ele>1560.25</ele><time>2026-04-24T14:42:32.973Z</time></trkpt><trkpt lat="45.827297399767914" lon="11.128615455089346"><ele>1564.0</ele><time>2026-04-24T14:42:33.973Z</time></trkpt><trkpt lat="45.82730885158084" lon="11.128754737971352"><ele>1564.0</ele><time>2026-04-24T14:42:34.973Z</time></trkpt><trkpt lat="45.827340676866825" lon="11.128864867732812"><ele>1564.0</ele><time>2026-04-24T14:42:35.973Z</time></trkpt><trkpt lat="45.827407203560504" lon="11.12898268956684"><ele>1564.0</ele><time>2026-04-24T14:42:36.973Z</time></trkpt><trkpt lat="45.82748101794166" lon="11.129089840703829"><ele>1564.0</ele><time>2026-04-24T14:42:37.973Z</time></trkpt><trkpt lat="45.82759285126371" lon="11.129219535037475"><ele>1564.0</ele><time>2026-04-24T14:42:38.973Z</time></trkpt><trkpt lat="45.82769829818421" lon="11.129346102235244"><ele>1563.0</ele><time>2026-04-24T14:42:39.973Z</time></trkpt><trkpt lat="45.82778605933056" lon="11.12948856415596"><ele>1562.0</ele><time>2026-04-24T14:42:40.973Z</time></trkpt><trkpt lat="45.82786778621788" lon="11.129638709949853"><ele>1561.0</ele><time>2026-04-24T14:42:41.973Z</time></trkpt><trkpt lat="45.82797492201174" lon="11.129786690462478"><ele>1560.0</ele><time>2026-04-24T14:42:42.973Z</time></trkpt><trkpt lat="45.828093655800345" lon="11.129918194559789"><ele>1567.75</ele><time>2026-04-24T14:42:43.973Z</time></trkpt><trkpt lat="45.82824282612444" lon="11.130042539217573"><ele>1575.5</ele><time>2026-04-24T14:42:44.973Z</time></trkpt><trkpt lat="45.82835390677781" lon="11.130119294433674"><ele>1583.25</ele><time>2026-04-24T14:42:45.973Z</time></trkpt><trkpt lat="45.8284205755939" lon="11.130195538667373"><ele>1591.0</ele><time>2026-04-24T14:42:46.973Z</time></trkpt><trkpt lat="45.82846279571186" lon="11.130379557927833"><ele>1591.0</ele><time>2026-04-24T14:42:48.973Z</time></trkpt><trkpt lat="45.82845412380785" lon="11.130509932155894"><ele>1591.0</ele><time>2026-04-24T14:42:49.973Z</time></trkpt><trkpt lat="45.828461400144995" lon="11.13068259133604"><ele>1591.0</ele><time>2026-04-24T14:42:50.973Z</time></trkpt><trkpt lat="45.82845017925735" lon="11.13085741609785"><ele>1591.0</ele><time>2026-04-24T14:42:51.973Z</time></trkpt><trkpt lat="45.82844377831523" lon="11.131014200043783"><ele>1591.0</ele><time>2026-04-24T14:42:52.973Z</time></trkpt><trkpt lat="45.82843530226534" lon="11.131131824468437"><ele>1594.8333333333335</ele><time>2026-04-24T14:42:53.973Z</time></trkpt><trkpt lat="45.82842797922035" lon="11.131241016824394"><ele>1598.6666666666667</ele><time>2026-04-24T14:42:54.973Z</time></trkpt><trkpt lat="45.82842771835885" lon="11.131339450302805"><ele>1602.5</ele><time>2026-04-24T14:42:55.972Z</time></trkpt><trkpt lat="45.82845440443398" lon="11.131421910606631"><ele>1606.3333333333335</ele><time>2026-04-24T14:42:56.972Z</time></trkpt><trkpt lat="45.82855199820131" lon="11.131445119273197"><ele>1610.1666666666667</ele><time>2026-04-24T14:42:58.972Z</time></trkpt><trkpt lat="45.82865607744804" lon="11.131442349173046"><ele>1614.0</ele><time>2026-04-24T14:42:59.972Z</time></trkpt><trkpt lat="45.82876149409983" lon="11.131457148837182"><ele>1614.0</ele><time>2026-04-24T14:43:00.972Z</time></trkpt><trkpt lat="45.82886752020655" lon="11.131467628939145"><ele>1614.0</ele><time>2026-04-24T14:43:01.972Z</time></trkpt><trkpt lat="45.82895887395737" lon="11.131450842611555"><ele>1614.0</ele><time>2026-04-24T14:43:02.972Z</time></trkpt><trkpt lat="45.829012089429575" lon="11.13152192899567"><ele>1614.0</ele><time>2026-04-24T14:43:04.972Z</time></trkpt><trkpt lat="45.828924956627006" lon="11.131566470932814"><ele>1614.0</ele><time>2026-04-24T14:43:06.972Z</time></trkpt><trkpt lat="45.82885212714188" lon="11.131563830544128"><ele>1614.0</ele><time>2026-04-24T14:43:07.972Z</time></trkpt><trkpt lat="45.82878125800957" lon="11.13156015015827"><ele>1617.8000000000002</ele><time>2026-04-24T14:43:08.972Z</time></trkpt><trkpt lat="45.82865088072455" lon="11.131641333660987"><ele>1621.6000000000001</ele><time>2026-04-24T14:43:10.972Z</time></trkpt><trkpt lat="45.828577597909785" lon="11.131707528472917"><ele>1625.4</ele><time>2026-04-24T14:43:11.972Z</time></trkpt><trkpt lat="45.82849215168546" lon="11.131775698239059"><ele>1629.2</ele><time>2026-04-24T14:43:12.972Z</time></trkpt><trkpt lat="45.82839024855698" lon="11.1318498885544"><ele>1633.0</ele><time>2026-04-24T14:43:13.972Z</time></trkpt><trkpt lat="45.828275226993135" lon="11.131942060211578"><ele>1633.0</ele><time>2026-04-24T14:43:14.972Z</time></trkpt><trkpt lat="45.82817396087802" lon="11.132055887283126"><ele>1633.0</ele><time>2026-04-24T14:43:15.972Z</time></trkpt><trkpt lat="45.82809576732611" lon="11.132156967710142"><ele>1633.0</ele><time>2026-04-24T14:43:16.972Z</time></trkpt><trkpt lat="45.82804924632222" lon="11.132250643396224"><ele>1633.0</ele><time>2026-04-24T14:43:17.972Z</time></trkpt><trkpt lat="45.82802354087352" lon="11.132335290263452"><ele>1633.0</ele><time>2026-04-24T14:43:18.972Z</time></trkpt><trkpt lat="45.82799980555237" lon="11.132433476161939"><ele>1636.6000000000001</ele><time>2026-04-24T14:43:19.972Z</time></trkpt><trkpt lat="45.82797560292803" lon="11.132549631009324"><ele>1640.2</ele><time>2026-04-24T14:43:20.972Z</time></trkpt><trkpt lat="45.82794547986469" lon="11.13267567111949"><ele>1643.8</ele><time>2026-04-24T14:43:21.972Z</time></trkpt><trkpt lat="45.82791467698795" lon="11.132796172604838"><ele>1647.4</ele><time>2026-04-24T14:43:22.972Z</time></trkpt><trkpt lat="45.827864899872516" lon="11.132892038859673"><ele>1651.0</ele><time>2026-04-24T14:43:23.972Z</time></trkpt><trkpt lat="45.827764084415314" lon="11.13296011177684"><ele>1651.0</ele><time>2026-04-24T14:43:24.972Z</time></trkpt><trkpt lat="45.82770987629785" lon="11.133079158617813"><ele>1651.0</ele><time>2026-04-24T14:43:25.972Z</time></trkpt><trkpt lat="45.82767468631275" lon="11.133231313914068"><ele>1651.0</ele><time>2026-04-24T14:43:26.972Z</time></trkpt><trkpt lat="45.82765647223668" lon="11.133389654120721"><ele>1651.0</ele><time>2026-04-24T14:43:27.972Z</time></trkpt><trkpt lat="45.82765436575741" lon="11.13354478769443"><ele>1651.0</ele><time>2026-04-24T14:43:28.972Z</time></trkpt><trkpt lat="45.82766342410533" lon="11.133708513023905"><ele>1651.6</ele><time>2026-04-24T14:43:29.972Z</time></trkpt><trkpt lat="45.827654782645936" lon="11.133877560323791"><ele>1652.1999999999998</ele><time>2026-04-24T14:43:30.972Z</time></trkpt><trkpt lat="45.82763745120594" lon="11.133992647237129"><ele>1652.8000000000002</ele><time>2026-04-24T14:43:31.972Z</time></trkpt><trkpt lat="45.827601805928765" lon="11.134124838703615"><ele>1653.4</ele><time>2026-04-24T14:43:32.972Z</time></trkpt><trkpt lat="45.82752427261477" lon="11.134238076349414"><ele>1654.0</ele><time>2026-04-24T14:43:33.972Z</time></trkpt><trkpt lat="45.8274298554248" lon="11.1343493154483"><ele>1654.0</ele><time>2026-04-24T14:43:34.972Z</time></trkpt><trkpt lat="45.82734594060029" lon="11.134416228185454"><ele>1654.0</ele><time>2026-04-24T14:43:35.974Z</time></trkpt><trkpt lat="45.827325574677076" lon="11.134508791021723"><ele>1654.0</ele><time>2026-04-24T14:43:38.974Z</time></trkpt><trkpt lat="45.82741583871044" lon="11.13451559230197"><ele>1654.0</ele><time>2026-04-24T14:43:40.974Z</time></trkpt><trkpt lat="45.82753983995409" lon="11.134388548302345"><ele>1654.0</ele><time>2026-04-24T14:43:42.973Z</time></trkpt><trkpt lat="45.82764255245959" lon="11.134351676695765"><ele>1656.8000000000002</ele><time>2026-04-24T14:43:43.974Z</time></trkpt><trkpt lat="45.82773857147825" lon="11.134331139277926"><ele>1659.6000000000001</ele><time>2026-04-24T14:43:44.973Z</time></trkpt><trkpt lat="45.82782049642038" lon="11.134346139267741"><ele>1662.4</ele><time>2026-04-24T14:43:45.974Z</time></trkpt><trkpt lat="45.82790723672197" lon="11.134415185343968"><ele>1665.2</ele><time>2026-04-24T14:43:46.974Z</time></trkpt><trkpt lat="45.82800316296872" lon="11.134473540837506"><ele>1668.0</ele><time>2026-04-24T14:43:47.973Z</time></trkpt><trkpt lat="45.82809484340041" lon="11.13443673686656"><ele>1668.0</ele><time>2026-04-24T14:43:48.973Z</time></trkpt><trkpt lat="45.82822077666283" lon="11.134380886996578"><ele>1668.0</ele><time>2026-04-24T14:43:49.973Z</time></trkpt><trkpt lat="45.82831780825847" lon="11.134341484692417"><ele>1668.0</ele><time>2026-04-24T14:43:50.973Z</time></trkpt><trkpt lat="45.82838971630885" lon="11.134314399727339"><ele>1668.0</ele><time>2026-04-24T14:43:51.974Z</time></trkpt><trkpt lat="45.82849668111636" lon="11.134397816564325"><ele>1668.0</ele><time>2026-04-24T14:43:53.973Z</time></trkpt><trkpt lat="45.828569716282786" lon="11.13447961182006"><ele>1670.2857142857144</ele><time>2026-04-24T14:43:54.973Z</time></trkpt><trkpt lat="45.82862821673184" lon="11.134546480328552"><ele>1672.5714285714284</ele><time>2026-04-24T14:43:55.973Z</time></trkpt><trkpt lat="45.828674442059565" lon="11.13461955589839"><ele>1674.857142857143</ele><time>2026-04-24T14:43:56.973Z</time></trkpt><trkpt lat="45.82874416949358" lon="11.13461263727476"><ele>1677.1428571428573</ele><time>2026-04-24T14:43:58.973Z</time></trkpt><trkpt lat="45.828812414204606" lon="11.134535442405028"><ele>1679.4285714285716</ele><time>2026-04-24T14:44:00.973Z</time></trkpt><trkpt lat="45.828858023919786" lon="11.134469300662461"><ele>1681.7142857142858</ele><time>2026-04-24T14:44:01.973Z</time></trkpt><trkpt lat="45.828912271477975" lon="11.1344041338674"><ele>1684.0</ele><time>2026-04-24T14:44:02.973Z</time></trkpt><trkpt lat="45.82898390692535" lon="11.134292151736936"><ele>1684.0</ele><time>2026-04-24T14:44:04.973Z</time></trkpt><trkpt lat="45.82907162456266" lon="11.13422158464885"><ele>1684.0</ele><time>2026-04-24T14:44:06.973Z</time></trkpt><trkpt lat="45.82915823964443" lon="11.134177819019275"><ele>1684.0</ele><time>2026-04-24T14:44:08.973Z</time></trkpt><trkpt lat="45.82925275200006" lon="11.134162016198273"><ele>1684.0</ele><time>2026-04-24T14:44:10.973Z</time></trkpt><trkpt lat="45.82937780527631" lon="11.134231141671014"><ele>1684.0</ele><time>2026-04-24T14:44:12.973Z</time></trkpt><trkpt lat="45.82944820730318" lon="11.134294953884975"><ele>1689.2</ele><time>2026-04-24T14:44:13.973Z</time></trkpt><trkpt lat="45.82953524098842" lon="11.134367973719595"><ele>1694.4</ele><time>2026-04-24T14:44:14.973Z</time></trkpt><trkpt lat="45.82959484395319" lon="11.134454246991528"><ele>1699.6</ele><time>2026-04-24T14:44:15.973Z</time></trkpt><trkpt lat="45.82968690116321" lon="11.134476223688534"><ele>1704.8</ele><time>2026-04-24T14:44:16.973Z</time></trkpt><trkpt lat="45.82978158934391" lon="11.134504777869425"><ele>1710.0</ele><time>2026-04-24T14:44:17.973Z</time></trkpt><trkpt lat="45.829877947377646" lon="11.134557291501144"><ele>1710.0</ele><time>2026-04-24T14:44:19.973Z</time></trkpt><trkpt lat="45.82994353804753" lon="11.134590025212033"><ele>1710.0</ele><time>2026-04-24T14:44:20.973Z</time></trkpt><trkpt lat="45.83004976825533" lon="11.134623446852954"><ele>1710.0</ele><time>2026-04-24T14:44:22.972Z</time></trkpt><trkpt lat="45.83008272477867" lon="11.134705702294955"><ele>1710.0</ele><time>2026-04-24T14:44:24.972Z</time></trkpt><trkpt lat="45.8301030764664" lon="11.134825289733762"><ele>1710.0</ele><time>2026-04-24T14:44:26.972Z</time></trkpt><trkpt lat="45.830188070764976" lon="11.134840494743846"><ele>1710.0</ele><time>2026-04-24T14:44:28.972Z</time></trkpt><trkpt lat="45.83028110499694" lon="11.134792404709998"><ele>1717.5</ele><time>2026-04-24T14:44:30.972Z</time></trkpt><trkpt lat="45.83036041148984" lon="11.134732343451345"><ele>1725.0</ele><time>2026-04-24T14:44:32.972Z</time></trkpt><trkpt lat="45.83045054561003" lon="11.134673155258202"><ele>1732.5</ele><time>2026-04-24T14:44:34.972Z</time></trkpt><trkpt lat="45.83052582303979" lon="11.134601262170039"><ele>1740.0</ele><time>2026-04-24T14:44:36.972Z</time></trkpt><trkpt lat="45.83060017683183" lon="11.134528015071295"><ele>1747.5</ele><time>2026-04-24T14:44:38.972Z</time></trkpt><trkpt lat="45.830652450688575" lon="11.134451165138362"><ele>1755.0</ele><time>2026-04-24T14:44:40.972Z</time></trkpt><trkpt lat="45.83069707398725" lon="11.13433684327347"><ele>1755.0</ele><time>2026-04-24T14:44:42.972Z</time></trkpt><trkpt lat="45.830737658520334" lon="11.134237335977799"><ele>1755.0</ele><time>2026-04-24T14:44:44.972Z</time></trkpt><trkpt lat="45.83078949781964" lon="11.134298604123698"><ele>1755.0</ele><time>2026-04-24T14:44:47.972Z</time></trkpt><trkpt lat="45.830810818854076" lon="11.13439362129941"><ele>1755.0</ele><time>2026-04-24T14:44:50.972Z</time></trkpt><trkpt lat="45.83086218886176" lon="11.134470555022602"><ele>1755.0</ele><time>2026-04-24T14:44:53.972Z</time></trkpt><trkpt lat="45.83090169048934" lon="11.134559845190086"><ele>1755.0</ele><time>2026-04-24T14:44:56.972Z</time></trkpt><trkpt lat="45.8309889261833" lon="11.134645221853697"><ele>1760.0</ele><time>2026-04-24T14:44:59.972Z</time></trkpt><trkpt lat="45.83099697364558" lon="11.134481828131769"><ele>1765.0</ele><time>2026-04-24T14:45:04.972Z</time></trkpt><trkpt lat="45.83104361759173" lon="11.134545264280405"><ele>1770.0</ele><time>2026-04-24T14:45:08.972Z</time></trkpt><trkpt lat="45.8310887162057" lon="11.134644789933812"><ele>1775.0</ele><time>2026-04-24T14:45:10.972Z</time></trkpt><trkpt lat="45.83109239381119" lon="11.134757392026534"><ele>1780.0</ele><time>2026-04-24T14:45:12.972Z</time></trkpt><trkpt lat="45.83102382642554" lon="11.134861187640851"><ele>1785.0</ele><time>2026-04-24T14:45:14.972Z</time></trkpt><trkpt lat="45.83098084082017" lon="11.134969996754567"><ele>1785.0</ele><time>2026-04-24T14:45:15.972Z</time></trkpt><trkpt lat="45.830930805034235" lon="11.135042856934847"><ele>1785.0</ele><time>2026-04-24T14:45:16.972Z</time></trkpt><trkpt lat="45.831014815096154" lon="11.13508368681252"><ele>1785.0</ele><time>2026-04-24T14:45:20.972Z</time></trkpt><trkpt lat="45.83111040480062" lon="11.13495057177085"><ele>1785.0</ele><time>2026-04-24T14:45:22.972Z</time></trkpt><trkpt lat="45.8312085354857" lon="11.134858757438554"><ele>1785.0</ele><time>2026-04-24T14:45:24.972Z</time></trkpt><trkpt lat="45.83129493156708" lon="11.134791630743285"><ele>1786.2</ele><time>2026-04-24T14:45:25.972Z</time></trkpt><trkpt lat="45.83138645115778" lon="11.13472388614602"><ele>1787.4</ele><time>2026-04-24T14:45:26.972Z</time></trkpt><trkpt lat="45.831449681796215" lon="11.134669606428663"><ele>1788.6</ele><time>2026-04-24T14:45:27.972Z</time></trkpt><trkpt lat="45.83150307266834" lon="11.13459626658367"><ele>1789.8</ele><time>2026-04-24T14:45:28.972Z</time></trkpt><trkpt lat="45.831592865068146" lon="11.134505423736199"><ele>1791.0</ele><time>2026-04-24T14:45:30.972Z</time></trkpt><trkpt lat="45.83168804900612" lon="11.134610080572816"><ele>1791.0</ele><time>2026-04-24T14:45:32.972Z</time></trkpt><trkpt lat="45.83172862711175" lon="11.134682511376257"><ele>1791.0</ele><time>2026-04-24T14:45:33.972Z</time></trkpt><trkpt lat="45.83181682854459" lon="11.134685716990557"><ele>1791.0</ele><time>2026-04-24T14:45:35.971Z</time></trkpt><trkpt lat="45.83188602518284" lon="11.134652934502698"><ele>1791.0</ele><time>2026-04-24T14:45:36.971Z</time></trkpt><trkpt lat="45.83196185583233" lon="11.134643315186496"><ele>1791.0</ele><time>2026-04-24T14:45:37.971Z</time></trkpt><trkpt lat="45.83202841734008" lon="11.134633065723026"><ele>1791.0</ele><time>2026-04-24T14:45:38.971Z</time></trkpt><trkpt lat="45.832098830703124" lon="11.13461879541318"><ele>1791.0</ele><time>2026-04-24T14:45:39.971Z</time></trkpt><trkpt lat="45.832177720410556" lon="11.13463031471953"><ele>1793.0</ele><time>2026-04-24T14:45:40.971Z</time></trkpt><trkpt lat="45.83225930143798" lon="11.134637609748749"><ele>1795.0</ele><time>2026-04-24T14:45:41.973Z</time></trkpt><trkpt lat="45.83232905969511" lon="11.134624670419614"><ele>1797.0</ele><time>2026-04-24T14:45:42.973Z</time></trkpt><trkpt lat="45.83239584809872" lon="11.134635916542669"><ele>1799.0</ele><time>2026-04-24T14:45:43.973Z</time></trkpt><trkpt lat="45.83246205538552" lon="11.134673190702566"><ele>1801.0</ele><time>2026-04-24T14:45:44.973Z</time></trkpt><trkpt lat="45.832533282213454" lon="11.134713067439966"><ele>1802.9999999999998</ele><time>2026-04-24T14:45:45.973Z</time></trkpt><trkpt lat="45.83260456885487" lon="11.13474078898256"><ele>1804.9999999999998</ele><time>2026-04-24T14:45:46.973Z</time></trkpt><trkpt lat="45.83266586896183" lon="11.134786406015667"><ele>1805.1428571428569</ele><time>2026-04-24T14:45:47.973Z</time></trkpt><trkpt lat="45.83274246161285" lon="11.134849303687812"><ele>1805.2857142857142</ele><time>2026-04-24T14:45:48.973Z</time></trkpt><trkpt lat="45.83281114839562" lon="11.134897852818645"><ele>1805.4285714285713</ele><time>2026-04-24T14:45:49.973Z</time></trkpt><trkpt lat="45.83287118426161" lon="11.134938762429186"><ele>1805.5714285714284</ele><time>2026-04-24T14:45:50.973Z</time></trkpt><trkpt lat="45.83293066798783" lon="11.134975946663483"><ele>1805.7142857142858</ele><time>2026-04-24T14:45:51.973Z</time></trkpt><trkpt lat="45.83299696374761" lon="11.1350045469106"><ele>1805.857142857143</ele><time>2026-04-24T14:45:52.973Z</time></trkpt><trkpt lat="45.833072382616635" lon="11.135030060662324"><ele>1806.0</ele><time>2026-04-24T14:45:53.973Z</time></trkpt><trkpt lat="45.833154619221155" lon="11.135032664465955"><ele>1806.0</ele><time>2026-04-24T14:45:54.973Z</time></trkpt><trkpt lat="45.83323526772165" lon="11.135047576936703"><ele>1806.0</ele><time>2026-04-24T14:45:55.973Z</time></trkpt><trkpt lat="45.833307884303544" lon="11.135060803307455"><ele>1806.0</ele><time>2026-04-24T14:45:56.973Z</time></trkpt><trkpt lat="45.83338178750104" lon="11.135081311658526"><ele>1806.0</ele><time>2026-04-24T14:45:57.973Z</time></trkpt><trkpt lat="45.833446633161124" lon="11.135102521570053"><ele>1806.0</ele><time>2026-04-24T14:45:58.973Z</time></trkpt><trkpt lat="45.83352423697319" lon="11.135126013737947"><ele>1806.0</ele><time>2026-04-24T14:45:59.972Z</time></trkpt><trkpt lat="45.83359070357636" lon="11.135149725714026"><ele>1806.0</ele><time>2026-04-24T14:46:00.972Z</time></trkpt><trkpt lat="45.8336578380223" lon="11.13516846681292"><ele>1807.8333333333333</ele><time>2026-04-24T14:46:01.972Z</time></trkpt><trkpt lat="45.83372470135854" lon="11.135178909768182"><ele>1809.6666666666665</ele><time>2026-04-24T14:46:02.972Z</time></trkpt><trkpt lat="45.83383843246816" lon="11.135153587559056"><ele>1811.5</ele><time>2026-04-24T14:46:04.972Z</time></trkpt><trkpt lat="45.833897148746885" lon="11.135109744936706"><ele>1813.3333333333333</ele><time>2026-04-24T14:46:05.972Z</time></trkpt><trkpt lat="45.833956709676144" lon="11.135062726348748"><ele>1815.1666666666665</ele><time>2026-04-24T14:46:06.972Z</time></trkpt><trkpt lat="45.83401524864745" lon="11.13498126657567"><ele>1817.0</ele><time>2026-04-24T14:46:07.972Z</time></trkpt><trkpt lat="45.834059303214666" lon="11.134897035222862"><ele>1817.9999999999998</ele><time>2026-04-24T14:46:08.972Z</time></trkpt><trkpt lat="45.834088932531174" lon="11.134799034226903"><ele>1819.0</ele><time>2026-04-24T14:46:09.972Z</time></trkpt><trkpt lat="45.83411616628835" lon="11.134707094839095"><ele>1820.0</ele><time>2026-04-24T14:46:10.972Z</time></trkpt><trkpt lat="45.83414696069068" lon="11.134616991862123"><ele>1821.0</ele><time>2026-04-24T14:46:11.972Z</time></trkpt><trkpt lat="45.83416893493627" lon="11.134515926623656"><ele>1821.9999999999998</ele><time>2026-04-24T14:46:12.972Z</time></trkpt><trkpt lat="45.83420468057833" lon="11.134354321978435"><ele>1823.0</ele><time>2026-04-24T14:46:14.972Z</time></trkpt><trkpt lat="45.83422137764705" lon="11.134262224994346"><ele>1822.9999999999998</ele><time>2026-04-24T14:46:15.972Z</time></trkpt><trkpt lat="45.83423679425011" lon="11.134164512448455"><ele>1823.0</ele><time>2026-04-24T14:46:16.972Z</time></trkpt><trkpt lat="45.83423974255265" lon="11.134045256686713"><ele>1823.0</ele><time>2026-04-24T14:46:17.972Z</time></trkpt><trkpt lat="45.8342251524905" lon="11.13393248957349"><ele>1823.0</ele><time>2026-04-24T14:46:18.972Z</time></trkpt><trkpt lat="45.83420150517931" lon="11.133814701795124"><ele>1822.9999999999998</ele><time>2026-04-24T14:46:19.972Z</time></trkpt><trkpt lat="45.834181076954856" lon="11.133682757898988"><ele>1823.0</ele><time>2026-04-24T14:46:20.972Z</time></trkpt><trkpt lat="45.8341785991598" lon="11.133543072093808"><ele>1823.4</ele><time>2026-04-24T14:46:21.972Z</time></trkpt><trkpt lat="45.83419347567132" lon="11.133392963274888"><ele>1823.8000000000002</ele><time>2026-04-24T14:46:22.972Z</time></trkpt><trkpt lat="45.83420916110042" lon="11.133241915924511"><ele>1824.2</ele><time>2026-04-24T14:46:23.972Z</time></trkpt><trkpt lat="45.83420976162145" lon="11.133083638407843"><ele>1824.6</ele><time>2026-04-24T14:46:24.972Z</time></trkpt><trkpt lat="45.83419516153365" lon="11.132917002040822"><ele>1825.0</ele><time>2026-04-24T14:46:25.972Z</time></trkpt><trkpt lat="45.83420016533796" lon="11.132738622671697"><ele>1825.0</ele><time>2026-04-24T14:46:26.972Z</time></trkpt><trkpt lat="45.8342159989503" lon="11.132551919409021"><ele>1825.0</ele><time>2026-04-24T14:46:27.972Z</time></trkpt><trkpt lat="45.834217412292006" lon="11.13239599148747"><ele>1825.0</ele><time>2026-04-24T14:46:28.972Z</time></trkpt><trkpt lat="45.834204957789474" lon="11.132294472199384"><ele>1825.0</ele><time>2026-04-24T14:46:30.972Z</time></trkpt><trkpt lat="45.83419450574945" lon="11.132189342892707"><ele>1825.0</ele><time>2026-04-24T14:46:35.972Z</time></trkpt><trkpt lat="45.8341825466644" lon="11.132092830091583"><ele>1825.1666666666667</ele><time>2026-04-24T14:47:39.971Z</time></trkpt><trkpt lat="45.83418896998132" lon="11.131991844685116"><ele>1825.3333333333335</ele><time>2026-04-24T14:47:40.971Z</time></trkpt><trkpt lat="45.83418121624973" lon="11.131889871088733"><ele>1825.5</ele><time>2026-04-24T14:47:41.971Z</time></trkpt><trkpt lat="45.83418538176771" lon="11.131777877886583"><ele>1825.6666666666665</ele><time>2026-04-24T14:47:42.971Z</time></trkpt><trkpt lat="45.83419044847596" lon="11.131660879504576"><ele>1825.8333333333333</ele><time>2026-04-24T14:47:43.971Z</time></trkpt><trkpt lat="45.83420019503984" lon="11.131547629081819"><ele>1826.0</ele><time>2026-04-24T14:47:44.971Z</time></trkpt><trkpt lat="45.834202761950706" lon="11.13142380880834"><ele>1826.6</ele><time>2026-04-24T14:47:45.971Z</time></trkpt><trkpt lat="45.83421180944583" lon="11.131291606623213"><ele>1827.1999999999998</ele><time>2026-04-24T14:47:46.971Z</time></trkpt><trkpt lat="45.834209529477675" lon="11.13115982154835"><ele>1827.8000000000002</ele><time>2026-04-24T14:47:47.973Z</time></trkpt><trkpt lat="45.83421904554125" lon="11.131028545076338"><ele>1828.4</ele><time>2026-04-24T14:47:48.973Z</time></trkpt><trkpt lat="45.83424054090205" lon="11.13088384406897"><ele>1829.0</ele><time>2026-04-24T14:47:49.973Z</time></trkpt><trkpt lat="45.834275229043776" lon="11.130760199566216"><ele>1829.2</ele><time>2026-04-24T14:47:50.973Z</time></trkpt><trkpt lat="45.83429717113629" lon="11.130627894443235"><ele>1829.4</ele><time>2026-04-24T14:47:51.973Z</time></trkpt><trkpt lat="45.83432502836049" lon="11.130493871413494"><ele>1829.6</ele><time>2026-04-24T14:47:52.973Z</time></trkpt><trkpt lat="45.83434518034149" lon="11.130335312540794"><ele>1829.8</ele><time>2026-04-24T14:47:53.972Z</time></trkpt><trkpt lat="45.834364778262305" lon="11.130191983531496"><ele>1830.0</ele><time>2026-04-24T14:47:54.972Z</time></trkpt><trkpt lat="45.8343865600663" lon="11.130038773608035"><ele>1831.6</ele><time>2026-04-24T14:47:55.972Z</time></trkpt><trkpt lat="45.83440915499085" lon="11.12989173295366"><ele>1833.2</ele><time>2026-04-24T14:47:56.972Z</time></trkpt><trkpt lat="45.83442929937624" lon="11.129753184795904"><ele>1834.8000000000002</ele><time>2026-04-24T14:47:57.973Z</time></trkpt><trkpt lat="45.83444550378287" lon="11.129610055913924"><ele>1836.4</ele><time>2026-04-24T14:47:58.973Z</time></trkpt><trkpt lat="45.83448061539813" lon="11.129476959881169"><ele>1838.0</ele><time>2026-04-24T14:47:59.972Z</time></trkpt><trkpt lat="45.8345344440036" lon="11.129359243474788"><ele>1838.0</ele><time>2026-04-24T14:48:00.972Z</time></trkpt><trkpt lat="45.834576442526235" lon="11.129248909766497"><ele>1838.0000000000002</ele><time>2026-04-24T14:48:01.972Z</time></trkpt><trkpt lat="45.83461734014598" lon="11.12913405405013"><ele>1838.0000000000002</ele><time>2026-04-24T14:48:02.972Z</time></trkpt><trkpt lat="45.834666823277814" lon="11.129011240073345"><ele>1838.0</ele><time>2026-04-24T14:48:03.972Z</time></trkpt><trkpt lat="45.83472403156926" lon="11.128887355201721"><ele>1838.0</ele><time>2026-04-24T14:48:04.972Z</time></trkpt><trkpt lat="45.83478408218166" lon="11.1287780282826"><ele>1837.0</ele><time>2026-04-24T14:48:05.972Z</time></trkpt><trkpt lat="45.83485422449518" lon="11.128687334742194"><ele>1836.0000000000002</ele><time>2026-04-24T14:48:06.972Z</time></trkpt><trkpt lat="45.834919989575795" lon="11.128597769111208"><ele>1835.0000000000002</ele><time>2026-04-24T14:48:07.972Z</time></trkpt><trkpt lat="45.83500931348791" lon="11.128592990711091"><ele>1834.0</ele><time>2026-04-24T14:48:08.972Z</time></trkpt><trkpt lat="45.83510612339533" lon="11.128585820444476"><ele>1833.0</ele><time>2026-04-24T14:48:09.972Z</time></trkpt><trkpt lat="45.83521031317825" lon="11.12854640937871"><ele>1833.0</ele><time>2026-04-24T14:48:10.972Z</time></trkpt><trkpt lat="45.83529861936351" lon="11.128482468275632"><ele>1833.0000000000002</ele><time>2026-04-24T14:48:11.972Z</time></trkpt><trkpt lat="45.83540634023259" lon="11.128446952458411"><ele>1833.0000000000002</ele><time>2026-04-24T14:48:12.972Z</time></trkpt><trkpt lat="45.835514751035106" lon="11.128409048353696"><ele>1833.0</ele><time>2026-04-24T14:48:13.972Z</time></trkpt><trkpt lat="45.835628099891224" lon="11.128367927838648"><ele>1833.0</ele><time>2026-04-24T14:48:14.972Z</time></trkpt><trkpt lat="45.83574184872691" lon="11.128330774351339"><ele>1833.0</ele><time>2026-04-24T14:48:15.972Z</time></trkpt><trkpt lat="45.83585794137161" lon="11.128289580184214"><ele>1833.0</ele><time>2026-04-24T14:48:16.972Z</time></trkpt><trkpt lat="45.83597215591038" lon="11.128256212584416"><ele>1833.0</ele><time>2026-04-24T14:48:17.972Z</time></trkpt><trkpt lat="45.836087898828715" lon="11.12821761745486"><ele>1833.0</ele><time>2026-04-24T14:48:18.972Z</time></trkpt><trkpt lat="45.836208504602666" lon="11.128168451596775"><ele>1830.5</ele><time>2026-04-24T14:48:19.972Z</time></trkpt><trkpt lat="45.836331856618855" lon="11.128128916316525"><ele>1828.0</ele><time>2026-04-24T14:48:20.972Z</time></trkpt><trkpt lat="45.83644594754168" lon="11.128085154314647"><ele>1825.5</ele><time>2026-04-24T14:48:21.972Z</time></trkpt><trkpt lat="45.83654440453292" lon="11.128045951057747"><ele>1823.0</ele><time>2026-04-24T14:48:22.972Z</time></trkpt><trkpt lat="45.83666379651809" lon="11.128009009269888"><ele>1823.0</ele><time>2026-04-24T14:48:23.972Z</time></trkpt><trkpt lat="45.83675092793445" lon="11.12797253400363"><ele>1823.0</ele><time>2026-04-24T14:48:24.972Z</time></trkpt><trkpt lat="45.83680747363911" lon="11.127715725723595"><ele>1823.0</ele><time>2026-04-24T14:48:25.972Z</time></trkpt><trkpt lat="45.83691211039226" lon="11.127619484397771"><ele>1823.0</ele><time>2026-04-24T14:48:26.972Z</time></trkpt><trkpt lat="45.837009114947605" lon="11.127524311738707"><ele>1823.2</ele><time>2026-04-24T14:48:27.972Z</time></trkpt><trkpt lat="45.8371068247096" lon="11.127462571522804"><ele>1823.4</ele><time>2026-04-24T14:48:28.972Z</time></trkpt><trkpt lat="45.83720319187657" lon="11.127427960837641"><ele>1823.6000000000001</ele><time>2026-04-24T14:48:29.972Z</time></trkpt><trkpt lat="45.83730280307293" lon="11.127400778412083"><ele>1823.8000000000002</ele><time>2026-04-24T14:48:30.972Z</time></trkpt><trkpt lat="45.83741794579041" lon="11.127377313050728"><ele>1824.0</ele><time>2026-04-24T14:48:31.972Z</time></trkpt><trkpt lat="45.83753890081622" lon="11.127348675027653"><ele>1822.75</ele><time>2026-04-24T14:48:32.972Z</time></trkpt><trkpt lat="45.83766197826685" lon="11.127398180345788"><ele>1821.5</ele><time>2026-04-24T14:48:33.972Z</time></trkpt><trkpt lat="45.83780023229414" lon="11.127436200704096"><ele>1820.25</ele><time>2026-04-24T14:48:34.972Z</time></trkpt><trkpt lat="45.83794434474865" lon="11.127471333613764"><ele>1819.0</ele><time>2026-04-24T14:48:35.972Z</time></trkpt><trkpt lat="45.838097156212235" lon="11.127490172095836"><ele>1819.0</ele><time>2026-04-24T14:48:36.972Z</time></trkpt><trkpt lat="45.83823668624498" lon="11.12748002876134"><ele>1819.0</ele><time>2026-04-24T14:48:37.972Z</time></trkpt><trkpt lat="45.83836665687211" lon="11.127482129738441"><ele>1819.0</ele><time>2026-04-24T14:48:38.972Z</time></trkpt><trkpt lat="45.838514382935266" lon="11.127457914489726"><ele>1819.0</ele><time>2026-04-24T14:48:39.972Z</time></trkpt><trkpt lat="45.838641180523126" lon="11.127439987277473"><ele>1818.5</ele><time>2026-04-24T14:48:40.972Z</time></trkpt><trkpt lat="45.83875638194842" lon="11.127424424918903"><ele>1818.0</ele><time>2026-04-24T14:48:41.972Z</time></trkpt><trkpt lat="45.83886503362997" lon="11.127392981642304"><ele>1817.5</ele><time>2026-04-24T14:48:42.972Z</time></trkpt><trkpt lat="45.83899746080823" lon="11.12733686896893"><ele>1817.0</ele><time>2026-04-24T14:48:43.972Z</time></trkpt><trkpt lat="45.83910434207718" lon="11.127282163650168"><ele>1815.3999999999999</ele><time>2026-04-24T14:48:44.972Z</time></trkpt><trkpt lat="45.83920352292441" lon="11.12723514910819"><ele>1813.7999999999997</ele><time>2026-04-24T14:48:45.972Z</time></trkpt><trkpt lat="45.839301591443316" lon="11.12724519653939"><ele>1812.2</ele><time>2026-04-24T14:48:46.972Z</time></trkpt><trkpt lat="45.839405108892024" lon="11.127221458057614"><ele>1810.6</ele><time>2026-04-24T14:48:47.972Z</time></trkpt><trkpt lat="45.839497485943085" lon="11.12719031789848"><ele>1809.0</ele><time>2026-04-24T14:48:48.972Z</time></trkpt><trkpt lat="45.8395750654526" lon="11.127161168792938"><ele>1808.6666666666667</ele><time>2026-04-24T14:48:49.972Z</time></trkpt><trkpt lat="45.8396473400645" lon="11.127120470716466"><ele>1808.3333333333335</ele><time>2026-04-24T14:48:50.972Z</time></trkpt><trkpt lat="45.83972393689235" lon="11.127087068794735"><ele>1808.0</ele><time>2026-04-24T14:48:51.972Z</time></trkpt><trkpt lat="45.839801229968636" lon="11.127068488542184"><ele>1807.6666666666667</ele><time>2026-04-24T14:48:52.971Z</time></trkpt><trkpt lat="45.83988455711429" lon="11.12702912548295"><ele>1807.3333333333335</ele><time>2026-04-24T14:48:53.971Z</time></trkpt><trkpt lat="45.83997187316892" lon="11.126980064086183"><ele>1807.0</ele><time>2026-04-24T14:48:54.971Z</time></trkpt><trkpt lat="45.84005057256632" lon="11.126948379236012"><ele>1807.0000000000002</ele><time>2026-04-24T14:48:55.971Z</time></trkpt><trkpt lat="45.840123139338466" lon="11.12692132803455"><ele>1807.0</ele><time>2026-04-24T14:48:56.971Z</time></trkpt><trkpt lat="45.84020204699572" lon="11.126884387917658"><ele>1807.0</ele><time>2026-04-24T14:48:57.971Z</time></trkpt><trkpt lat="45.84027769547869" lon="11.126822080885542"><ele>1807.0</ele><time>2026-04-24T14:48:58.971Z</time></trkpt><trkpt lat="45.84034972862976" lon="11.126764819785222"><ele>1807.0000000000002</ele><time>2026-04-24T14:48:59.971Z</time></trkpt><trkpt lat="45.84041102615792" lon="11.126732429588087"><ele>1807.0</ele><time>2026-04-24T14:49:00.971Z</time></trkpt><trkpt lat="45.84048976762112" lon="11.126739904228094"><ele>1804.3999999999999</ele><time>2026-04-24T14:49:11.971Z</time></trkpt><trkpt lat="45.8406143594051" lon="11.126675805071786"><ele>1801.7999999999997</ele><time>2026-04-24T14:49:13.971Z</time></trkpt><trkpt lat="45.84068156163063" lon="11.126655923282621"><ele>1799.2</ele><time>2026-04-24T14:49:14.971Z</time></trkpt><trkpt lat="45.840810331743" lon="11.126616879335835"><ele>1796.6</ele><time>2026-04-24T14:49:16.971Z</time></trkpt><trkpt lat="45.84090602753529" lon="11.126602062594953"><ele>1794.0</ele><time>2026-04-24T14:49:18.971Z</time></trkpt><trkpt lat="45.84100557469687" lon="11.126557957310334"><ele>1790.6</ele><time>2026-04-24T14:49:20.971Z</time></trkpt><trkpt lat="45.84110881045396" lon="11.12647463969421"><ele>1787.2</ele><time>2026-04-24T14:49:22.971Z</time></trkpt><trkpt lat="45.84117826553697" lon="11.126439452314152"><ele>1783.7999999999997</ele><time>2026-04-24T14:49:23.971Z</time></trkpt><trkpt lat="45.841290364824346" lon="11.12636818093146"><ele>1780.3999999999999</ele><time>2026-04-24T14:49:25.971Z</time></trkpt><trkpt lat="45.84138660761851" lon="11.126268146768599"><ele>1777.0</ele><time>2026-04-24T14:49:27.971Z</time></trkpt><trkpt lat="45.84144543949159" lon="11.1261849126075"><ele>1777.0</ele><time>2026-04-24T14:49:29.971Z</time></trkpt><trkpt lat="45.84147483508777" lon="11.12608894858768"><ele>1777.0</ele><time>2026-04-24T14:49:31.971Z</time></trkpt><trkpt lat="45.84151282935428" lon="11.126014700761417"><ele>1777.0</ele><time>2026-04-24T14:49:34.971Z</time></trkpt><trkpt lat="45.841584657045686" lon="11.126008230283569"><ele>1777.0</ele><time>2026-04-24T14:49:37.971Z</time></trkpt><trkpt lat="45.841651047134235" lon="11.12601060218016"><ele>1777.0</ele><time>2026-04-24T14:49:39.971Z</time></trkpt><trkpt lat="45.84172838887233" lon="11.12606380210304"><ele>1777.0</ele><time>2026-04-24T14:49:41.971Z</time></trkpt><trkpt lat="45.841782223585895" lon="11.126137460289383"><ele>1777.0</ele><time>2026-04-24T14:49:43.971Z</time></trkpt><trkpt lat="45.84182007006989" lon="11.126216366919513"><ele>1773.6666666666667</ele><time>2026-04-24T14:49:45.971Z</time></trkpt><trkpt lat="45.8418844109579" lon="11.126296067503349"><ele>1770.3333333333335</ele><time>2026-04-24T14:49:47.971Z</time></trkpt><trkpt lat="45.84198925597399" lon="11.126320982155475"><ele>1767.0</ele><time>2026-04-24T14:49:49.971Z</time></trkpt><trkpt lat="45.842061870925576" lon="11.126279414855317"><ele>1763.6666666666665</ele><time>2026-04-24T14:49:50.971Z</time></trkpt><trkpt lat="45.84212776168671" lon="11.126242736076431"><ele>1760.3333333333333</ele><time>2026-04-24T14:49:51.971Z</time></trkpt><trkpt lat="45.84218718742681" lon="11.12620158418867"><ele>1757.0</ele><time>2026-04-24T14:49:52.971Z</time></trkpt><trkpt lat="45.84226345181869" lon="11.126179392852626"><ele>1757.0</ele><time>2026-04-24T14:49:53.972Z</time></trkpt><trkpt lat="45.84234943439113" lon="11.126190118091838"><ele>1756.9999999999998</ele><time>2026-04-24T14:49:54.972Z</time></trkpt><trkpt lat="45.842437146816565" lon="11.126178723628266"><ele>1756.9999999999998</ele><time>2026-04-24T14:49:55.972Z</time></trkpt><trkpt lat="45.84254006410838" lon="11.126162388472649"><ele>1757.0</ele><time>2026-04-24T14:49:56.972Z</time></trkpt><trkpt lat="45.84262920478661" lon="11.126135294769915"><ele>1757.0</ele><time>2026-04-24T14:49:57.972Z</time></trkpt><trkpt lat="45.84273620608768" lon="11.12611030693756"><ele>1753.1999999999998</ele><time>2026-04-24T14:49:58.972Z</time></trkpt><trkpt lat="45.84282132295272" lon="11.126081087234972"><ele>1749.3999999999999</ele><time>2026-04-24T14:49:59.972Z</time></trkpt><trkpt lat="45.842915437858714" lon="11.1260429446718"><ele>1745.6000000000001</ele><time>2026-04-24T14:50:00.972Z</time></trkpt><trkpt lat="45.84301133107119" lon="11.12600346728013"><ele>1741.8000000000002</ele><time>2026-04-24T14:50:01.972Z</time></trkpt><trkpt lat="45.8431021017024" lon="11.12597397012848"><ele>1738.0</ele><time>2026-04-24T14:50:02.972Z</time></trkpt><trkpt lat="45.84318083032346" lon="11.125951082237723"><ele>1738.0000000000002</ele><time>2026-04-24T14:50:03.972Z</time></trkpt><trkpt lat="45.84326147288265" lon="11.125943820167267"><ele>1738.0</ele><time>2026-04-24T14:50:04.972Z</time></trkpt><trkpt lat="45.84332783736189" lon="11.125938687193052"><ele>1738.0</ele><time>2026-04-24T14:50:05.971Z</time></trkpt><trkpt lat="45.843384433888126" lon="11.125878728417645"><ele>1738.0</ele><time>2026-04-24T14:50:06.971Z</time></trkpt><trkpt lat="45.84345301725746" lon="11.125802995747565"><ele>1738.0000000000002</ele><time>2026-04-24T14:50:07.972Z</time></trkpt><trkpt lat="45.843528384053926" lon="11.125715011957611"><ele>1738.0</ele><time>2026-04-24T14:50:08.972Z</time></trkpt><trkpt lat="45.84360223265372" lon="11.125623770198207"><ele>1733.6000000000001</ele><time>2026-04-24T14:50:09.972Z</time></trkpt><trkpt lat="45.84368776210618" lon="11.12552567685782"><ele>1729.2000000000003</ele><time>2026-04-24T14:50:10.972Z</time></trkpt><trkpt lat="45.843772128712416" lon="11.125419080233854"><ele>1724.8</ele><time>2026-04-24T14:50:11.972Z</time></trkpt><trkpt lat="45.84385680859115" lon="11.1253139129871"><ele>1720.4</ele><time>2026-04-24T14:50:12.972Z</time></trkpt><trkpt lat="45.843953910382936" lon="11.12523151059682"><ele>1716.0</ele><time>2026-04-24T14:50:13.972Z</time></trkpt><trkpt lat="45.84404099653141" lon="11.125132558676873"><ele>1716.0</ele><time>2026-04-24T14:50:14.972Z</time></trkpt><trkpt lat="45.84413343819529" lon="11.125019067925534"><ele>1716.0</ele><time>2026-04-24T14:50:15.972Z</time></trkpt><trkpt lat="45.844222238342496" lon="11.124891719652066"><ele>1716.0</ele><time>2026-04-24T14:50:16.972Z</time></trkpt><trkpt lat="45.84428733540416" lon="11.124763320071786"><ele>1716.0</ele><time>2026-04-24T14:50:17.972Z</time></trkpt><trkpt lat="45.84437429603196" lon="11.124652513819917"><ele>1713.8</ele><time>2026-04-24T14:50:18.972Z</time></trkpt><trkpt lat="45.84448074011994" lon="11.124578631027873"><ele>1711.6</ele><time>2026-04-24T14:50:19.972Z</time></trkpt><trkpt lat="45.844577817948576" lon="11.124496979260245"><ele>1709.4</ele><time>2026-04-24T14:50:20.972Z</time></trkpt><trkpt lat="45.84466986933577" lon="11.124469471855907"><ele>1707.2</ele><time>2026-04-24T14:50:21.972Z</time></trkpt><trkpt lat="45.844767197272176" lon="11.124413081037329"><ele>1705.0</ele><time>2026-04-24T14:50:22.972Z</time></trkpt><trkpt lat="45.84486054173792" lon="11.124343177629918"><ele>1705.0</ele><time>2026-04-24T14:50:23.972Z</time></trkpt><trkpt lat="45.84495322664526" lon="11.124264292955557"><ele>1705.0</ele><time>2026-04-24T14:50:24.972Z</time></trkpt><trkpt lat="45.84502567335091" lon="11.124157903934796"><ele>1705.0</ele><time>2026-04-24T14:50:25.972Z</time></trkpt><trkpt lat="45.84512003087041" lon="11.124087210205573"><ele>1705.0</ele><time>2026-04-24T14:50:26.972Z</time></trkpt><trkpt lat="45.84521341887552" lon="11.12402532699087"><ele>1705.0</ele><time>2026-04-24T14:50:27.972Z</time></trkpt><trkpt lat="45.845325287181794" lon="11.123964086445069"><ele>1700.4</ele><time>2026-04-24T14:50:28.972Z</time></trkpt><trkpt lat="45.84542337775955" lon="11.123895318837441"><ele>1695.8</ele><time>2026-04-24T14:50:29.972Z</time></trkpt><trkpt lat="45.84552435993841" lon="11.123833100551364"><ele>1691.1999999999998</ele><time>2026-04-24T14:50:30.972Z</time></trkpt><trkpt lat="45.84563680154556" lon="11.123782181493487"><ele>1686.6</ele><time>2026-04-24T14:50:31.972Z</time></trkpt><trkpt lat="45.84574169114733" lon="11.123743120368026"><ele>1682.0</ele><time>2026-04-24T14:50:32.972Z</time></trkpt><trkpt lat="45.84584329049226" lon="11.123686913302969"><ele>1682.0</ele><time>2026-04-24T14:50:33.972Z</time></trkpt><trkpt lat="45.8459322395872" lon="11.123608346419918"><ele>1682.0</ele><time>2026-04-24T14:50:34.972Z</time></trkpt><trkpt lat="45.845998332268934" lon="11.123466591327372"><ele>1682.0</ele><time>2026-04-24T14:50:35.972Z</time></trkpt><trkpt lat="45.84609784402995" lon="11.123394905665764"><ele>1682.0</ele><time>2026-04-24T14:50:36.972Z</time></trkpt><trkpt lat="45.84621044419149" lon="11.123325744769229"><ele>1679.0</ele><time>2026-04-24T14:50:37.972Z</time></trkpt><trkpt lat="45.846352591392275" lon="11.123263174179325"><ele>1676.0</ele><time>2026-04-24T14:50:38.972Z</time></trkpt><trkpt lat="45.84651528733311" lon="11.123177748301876"><ele>1673.0</ele><time>2026-04-24T14:50:39.972Z</time></trkpt><trkpt lat="45.8466807257037" lon="11.123087510832908"><ele>1671.3333333333333</ele><time>2026-04-24T14:50:40.972Z</time></trkpt><trkpt lat="45.84686018797374" lon="11.122971644538431"><ele>1669.6666666666665</ele><time>2026-04-24T14:50:41.972Z</time></trkpt><trkpt lat="45.847022373369455" lon="11.122869844470666"><ele>1668.0</ele><time>2026-04-24T14:50:42.972Z</time></trkpt><trkpt lat="45.84716875226387" lon="11.12275297501618"><ele>1668.0</ele><time>2026-04-24T14:50:43.972Z</time></trkpt><trkpt lat="45.847328949133434" lon="11.122627693501517"><ele>1668.0</ele><time>2026-04-24T14:50:44.972Z</time></trkpt><trkpt lat="45.84748132991789" lon="11.122488338002121"><ele>1668.0</ele><time>2026-04-24T14:50:45.972Z</time></trkpt><trkpt lat="45.84759911936198" lon="11.12230320072702"><ele>1666.0</ele><time>2026-04-24T14:50:46.972Z</time></trkpt><trkpt lat="45.847698420643425" lon="11.12214535297619"><ele>1664.0</ele><time>2026-04-24T14:50:47.972Z</time></trkpt><trkpt lat="45.847793924934514" lon="11.121993540732154"><ele>1662.0</ele><time>2026-04-24T14:50:48.972Z</time></trkpt><trkpt lat="45.847873424680635" lon="11.121865673036181"><ele>1660.0</ele><time>2026-04-24T14:50:49.972Z</time></trkpt><trkpt lat="45.84796762406321" lon="11.121744873920369"><ele>1660.0</ele><time>2026-04-24T14:50:50.972Z</time></trkpt><trkpt lat="45.8480431305955" lon="11.121591233253149"><ele>1660.0</ele><time>2026-04-24T14:50:51.972Z</time></trkpt><trkpt lat="45.84811815728497" lon="11.121456925157776"><ele>1660.0</ele><time>2026-04-24T14:50:52.972Z</time></trkpt><trkpt lat="45.84818832618868" lon="11.121336361038617"><ele>1660.0</ele><time>2026-04-24T14:50:53.972Z</time></trkpt><trkpt lat="45.848254711427785" lon="11.121207041280993"><ele>1658.25</ele><time>2026-04-24T14:50:54.972Z</time></trkpt><trkpt lat="45.848321547690105" lon="11.121096670503508"><ele>1656.5</ele><time>2026-04-24T14:50:55.972Z</time></trkpt><trkpt lat="45.84841112845362" lon="11.120965025707122"><ele>1654.75</ele><time>2026-04-24T14:50:56.971Z</time></trkpt><trkpt lat="45.84849910374268" lon="11.120844042004217"><ele>1653.0</ele><time>2026-04-24T14:50:57.971Z</time></trkpt><trkpt lat="45.848572816267456" lon="11.120723157952922"><ele>1650.2</ele><time>2026-04-24T14:50:58.971Z</time></trkpt><trkpt lat="45.84863794551075" lon="11.120608834676096"><ele>1647.4</ele><time>2026-04-24T14:50:59.971Z</time></trkpt><trkpt lat="45.84869983514429" lon="11.120487384416293"><ele>1644.6000000000001</ele><time>2026-04-24T14:51:00.971Z</time></trkpt><trkpt lat="45.84875624075476" lon="11.12036300838967"><ele>1641.8000000000002</ele><time>2026-04-24T14:51:01.971Z</time></trkpt><trkpt lat="45.84880870524409" lon="11.120240874828932"><ele>1639.0</ele><time>2026-04-24T14:51:02.971Z</time></trkpt><trkpt lat="45.84886847532857" lon="11.120124954141588"><ele>1639.0</ele><time>2026-04-24T14:51:03.971Z</time></trkpt><trkpt lat="45.84896029024239" lon="11.120002747512101"><ele>1639.0</ele><time>2026-04-24T14:51:04.971Z</time></trkpt><trkpt lat="45.84903666888009" lon="11.119903269486459"><ele>1639.0</ele><time>2026-04-24T14:51:05.971Z</time></trkpt><trkpt lat="45.84909905215365" lon="11.119817370669702"><ele>1639.0</ele><time>2026-04-24T14:51:06.971Z</time></trkpt><trkpt lat="45.84911038657745" lon="11.119706736594472"><ele>1639.0</ele><time>2026-04-24T14:51:07.971Z</time></trkpt><trkpt lat="45.84913681502511" lon="11.119579437455965"><ele>1636.4</ele><time>2026-04-24T14:51:08.971Z</time></trkpt><trkpt lat="45.84914623024239" lon="11.119422404637007"><ele>1633.8000000000002</ele><time>2026-04-24T14:51:09.971Z</time></trkpt><trkpt lat="45.84917575872329" lon="11.119289201058457"><ele>1631.1999999999998</ele><time>2026-04-24T14:51:10.971Z</time></trkpt><trkpt lat="45.84919429079264" lon="11.119174394308354"><ele>1628.6</ele><time>2026-04-24T14:51:11.971Z</time></trkpt><trkpt lat="45.849197954915816" lon="11.119056893990885"><ele>1626.0</ele><time>2026-04-24T14:51:12.971Z</time></trkpt><trkpt lat="45.849195494368445" lon="11.118926179197425"><ele>1623.6666666666667</ele><time>2026-04-24T14:51:13.971Z</time></trkpt><trkpt lat="45.84923378770359" lon="11.118818955927681"><ele>1621.3333333333335</ele><time>2026-04-24T14:51:14.971Z</time></trkpt><trkpt lat="45.849277556652815" lon="11.118740669405824"><ele>1619.0</ele><time>2026-04-24T14:51:15.971Z</time></trkpt><trkpt lat="45.849332795274535" lon="11.118647933246493"><ele>1616.6666666666667</ele><time>2026-04-24T14:51:16.971Z</time></trkpt><trkpt lat="45.849403601173364" lon="11.118546292503895"><ele>1614.3333333333335</ele><time>2026-04-24T14:51:17.971Z</time></trkpt><trkpt lat="45.849459749980625" lon="11.11844511460679"><ele>1612.0</ele><time>2026-04-24T14:51:18.971Z</time></trkpt><trkpt lat="45.84951105245359" lon="11.11831144320808"><ele>1609.3999999999999</ele><time>2026-04-24T14:51:19.971Z</time></trkpt><trkpt lat="45.84954273005594" lon="11.118164113607934"><ele>1606.8</ele><time>2026-04-24T14:51:20.971Z</time></trkpt><trkpt lat="45.84958943765596" lon="11.11803086414203"><ele>1604.2</ele><time>2026-04-24T14:51:21.971Z</time></trkpt><trkpt lat="45.84961081754794" lon="11.1179152969278"><ele>1601.6</ele><time>2026-04-24T14:51:22.971Z</time></trkpt><trkpt lat="45.84963202543137" lon="11.117823329310598"><ele>1599.0</ele><time>2026-04-24T14:51:23.971Z</time></trkpt><trkpt lat="45.84966452429954" lon="11.117700499081865"><ele>1599.0</ele><time>2026-04-24T14:51:25.971Z</time></trkpt><trkpt lat="45.849741321550695" lon="11.117721147857141"><ele>1599.0</ele><time>2026-04-24T14:51:27.971Z</time></trkpt><trkpt lat="45.849783312204956" lon="11.117851796568868"><ele>1599.0</ele><time>2026-04-24T14:51:30.971Z</time></trkpt><trkpt lat="45.849835438556305" lon="11.117936596477936"><ele>1599.0</ele><time>2026-04-24T14:51:32.971Z</time></trkpt><trkpt lat="45.849879382746195" lon="11.118010629728767"><ele>1599.0</ele><time>2026-04-24T14:51:33.971Z</time></trkpt><trkpt lat="45.84992357116769" lon="11.118084214338687"><ele>1599.0</ele><time>2026-04-24T14:51:34.971Z</time></trkpt><trkpt lat="45.849973095254796" lon="11.118161239353565"><ele>1599.0</ele><time>2026-04-24T14:51:35.971Z</time></trkpt><trkpt lat="45.85003061582859" lon="11.118223636036321"><ele>1599.0</ele><time>2026-04-24T14:51:36.971Z</time></trkpt><trkpt lat="45.85010344317552" lon="11.118380788161577"><ele>1599.0</ele><time>2026-04-24T14:51:38.971Z</time></trkpt><trkpt lat="45.85014050137676" lon="11.11845514560919"><ele>1599.0</ele><time>2026-04-24T14:51:39.971Z</time></trkpt><trkpt lat="45.850151086803216" lon="11.1185937679298"><ele>1599.0</ele><time>2026-04-24T14:51:40.971Z</time></trkpt><trkpt lat="45.8501722906094" lon="11.118708352061981"><ele>1599.0</ele><time>2026-04-24T14:51:41.971Z</time></trkpt><trkpt lat="45.850188848458075" lon="11.1188437093518"><ele>1600.0</ele><time>2026-04-24T14:51:42.971Z</time></trkpt><trkpt lat="45.850110247542986" lon="11.11900823819865"><ele>1601.0</ele><time>2026-04-24T14:51:43.971Z</time></trkpt><trkpt lat="45.85011550302744" lon="11.119124711806933"><ele>1602.0</ele><time>2026-04-24T14:51:44.971Z</time></trkpt><trkpt lat="45.85012181334043" lon="11.119255857243388"><ele>1603.0</ele><time>2026-04-24T14:51:45.971Z</time></trkpt><trkpt lat="45.85012793867513" lon="11.119388202650835"><ele>1604.0</ele><time>2026-04-24T14:51:46.971Z</time></trkpt><trkpt lat="45.8501399802998" lon="11.119549971112136"><ele>1592.75</ele><time>2026-04-24T14:51:47.971Z</time></trkpt><trkpt lat="45.85016234495083" lon="11.119735588736717"><ele>1581.5</ele><time>2026-04-24T14:51:48.971Z</time></trkpt><trkpt lat="45.850188518445684" lon="11.119894632093857"><ele>1570.25</ele><time>2026-04-24T14:51:49.971Z</time></trkpt><trkpt lat="45.850210226811974" lon="11.120037037814189"><ele>1559.0</ele><time>2026-04-24T14:51:50.971Z</time></trkpt><trkpt lat="45.85022601201063" lon="11.120184139513825"><ele>1558.5</ele><time>2026-04-24T14:51:51.971Z</time></trkpt><trkpt lat="45.85023596428157" lon="11.120342730793595"><ele>1558.0</ele><time>2026-04-24T14:51:52.971Z</time></trkpt><trkpt lat="45.85024278910339" lon="11.120516561664337"><ele>1557.5</ele><time>2026-04-24T14:51:53.971Z</time></trkpt><trkpt lat="45.85024739788967" lon="11.120692958678005"><ele>1557.0</ele><time>2026-04-24T14:51:54.971Z</time></trkpt><trkpt lat="45.85025359737253" lon="11.120848885802811"><ele>1557.0</ele><time>2026-04-24T14:51:55.971Z</time></trkpt><trkpt lat="45.850259986280975" lon="11.121021362903832"><ele>1557.0</ele><time>2026-04-24T14:51:56.971Z</time></trkpt><trkpt lat="45.85025905707606" lon="11.12119659531851"><ele>1557.0</ele><time>2026-04-24T14:51:57.971Z</time></trkpt><trkpt lat="45.85026232421637" lon="11.121387268054853"><ele>1557.0</ele><time>2026-04-24T14:51:58.971Z</time></trkpt><trkpt lat="45.850248655919884" lon="11.121547712263277"><ele>1558.75</ele><time>2026-04-24T14:51:59.972Z</time></trkpt><trkpt lat="45.85023026432273" lon="11.121702265296342"><ele>1560.5</ele><time>2026-04-24T14:52:00.972Z</time></trkpt><trkpt lat="45.85020480025317" lon="11.121879489317285"><ele>1562.25</ele><time>2026-04-24T14:52:01.971Z</time></trkpt><trkpt lat="45.850175124391" lon="11.122071921307223"><ele>1564.0</ele><time>2026-04-24T14:52:02.971Z</time></trkpt><trkpt lat="45.85014779490128" lon="11.122251615066714"><ele>1571.75</ele><time>2026-04-24T14:52:03.972Z</time></trkpt><trkpt lat="45.85011099356062" lon="11.122439934234068"><ele>1579.5</ele><time>2026-04-24T14:52:04.972Z</time></trkpt><trkpt lat="45.85008015383917" lon="11.122606531853895"><ele>1587.25</ele><time>2026-04-24T14:52:05.971Z</time></trkpt><trkpt lat="45.850045303822775" lon="11.122768069520353"><ele>1595.0</ele><time>2026-04-24T14:52:06.971Z</time></trkpt><trkpt lat="45.850005959733515" lon="11.12293611628177"><ele>1595.0</ele><time>2026-04-24T14:52:07.971Z</time></trkpt><trkpt lat="45.849965907112804" lon="11.12312661658637"><ele>1595.0</ele><time>2026-04-24T14:52:08.971Z</time></trkpt><trkpt lat="45.84992669402561" lon="11.123302453638889"><ele>1595.0</ele><time>2026-04-24T14:52:09.972Z</time></trkpt><trkpt lat="45.849880799660355" lon="11.123464173308736"><ele>1595.0</ele><time>2026-04-24T14:52:10.972Z</time></trkpt><trkpt lat="45.849831882135355" lon="11.12363713023988"><ele>1593.5</ele><time>2026-04-24T14:52:11.972Z</time></trkpt><trkpt lat="45.8497882391889" lon="11.12383037344199"><ele>1592.0</ele><time>2026-04-24T14:52:12.972Z</time></trkpt><trkpt lat="45.84971785188957" lon="11.124012786657257"><ele>1590.5</ele><time>2026-04-24T14:52:13.971Z</time></trkpt><trkpt lat="45.84966065983641" lon="11.124164650116503"><ele>1589.0</ele><time>2026-04-24T14:52:14.971Z</time></trkpt><trkpt lat="45.84959697780895" lon="11.12431534078159"><ele>1586.0</ele><time>2026-04-24T14:52:15.971Z</time></trkpt><trkpt lat="45.849529161493074" lon="11.124467064980616"><ele>1583.0</ele><time>2026-04-24T14:52:16.971Z</time></trkpt><trkpt lat="45.8494483570451" lon="11.124645048866716"><ele>1580.0</ele><time>2026-04-24T14:52:17.971Z</time></trkpt><trkpt lat="45.84936483662039" lon="11.124829014843197"><ele>1577.0</ele><time>2026-04-24T14:52:18.971Z</time></trkpt><trkpt lat="45.84929270697524" lon="11.125011749752927"><ele>1579.5</ele><time>2026-04-24T14:52:19.971Z</time></trkpt><trkpt lat="45.84921733266375" lon="11.125175314891392"><ele>1582.0</ele><time>2026-04-24T14:52:20.971Z</time></trkpt><trkpt lat="45.84914635948603" lon="11.125263143266627"><ele>1584.5</ele><time>2026-04-24T14:52:21.971Z</time></trkpt><trkpt lat="45.84909490824179" lon="11.125335430160778"><ele>1587.0</ele><time>2026-04-24T14:52:22.971Z</time></trkpt><trkpt lat="45.84896924253345" lon="11.125451905211976"><ele>1587.0</ele><time>2026-04-24T14:52:24.971Z</time></trkpt><trkpt lat="45.848864070171956" lon="11.125525618831146"><ele>1587.0</ele><time>2026-04-24T14:52:25.971Z</time></trkpt><trkpt lat="45.84874987630884" lon="11.125604756848299"><ele>1587.0</ele><time>2026-04-24T14:52:26.971Z</time></trkpt><trkpt lat="45.84863893906501" lon="11.125709304111457"><ele>1587.0</ele><time>2026-04-24T14:52:27.971Z</time></trkpt><trkpt lat="45.848545327985974" lon="11.125833106612639"><ele>1582.3999999999999</ele><time>2026-04-24T14:52:28.971Z</time></trkpt><trkpt lat="45.848503470387236" lon="11.125961580152545"><ele>1577.8</ele><time>2026-04-24T14:52:29.971Z</time></trkpt><trkpt lat="45.848483749131255" lon="11.126066704380367"><ele>1573.2</ele><time>2026-04-24T14:52:30.971Z</time></trkpt><trkpt lat="45.848490513215026" lon="11.126221100732717"><ele>1568.6</ele><time>2026-04-24T14:52:31.971Z</time></trkpt><trkpt lat="45.84850219323426" lon="11.12638902782256"><ele>1564.0</ele><time>2026-04-24T14:52:32.971Z</time></trkpt><trkpt lat="45.84853825493129" lon="11.126520580591663"><ele>1563.75</ele><time>2026-04-24T14:52:33.971Z</time></trkpt><trkpt lat="45.84861322102385" lon="11.126564374792835"><ele>1563.5</ele><time>2026-04-24T14:52:34.971Z</time></trkpt><trkpt lat="45.848720581300896" lon="11.126609741126105"><ele>1563.25</ele><time>2026-04-24T14:52:35.971Z</time></trkpt><trkpt lat="45.84886707445093" lon="11.126652876535555"><ele>1563.0</ele><time>2026-04-24T14:52:36.971Z</time></trkpt><trkpt lat="45.849026777016235" lon="11.126710511309504"><ele>1563.0</ele><time>2026-04-24T14:52:37.971Z</time></trkpt><trkpt lat="45.84918440267087" lon="11.12673269567518"><ele>1563.0</ele><time>2026-04-24T14:52:38.971Z</time></trkpt><trkpt lat="45.849320052472315" lon="11.126779550324118"><ele>1563.0</ele><time>2026-04-24T14:52:39.971Z</time></trkpt><trkpt lat="45.84945690341967" lon="11.126801937214172"><ele>1563.0</ele><time>2026-04-24T14:52:40.971Z</time></trkpt><trkpt lat="45.84959955843112" lon="11.126803626389025"><ele>1561.25</ele><time>2026-04-24T14:52:41.97Z</time></trkpt><trkpt lat="45.849741946059936" lon="11.1267790298091"><ele>1559.5</ele><time>2026-04-24T14:52:42.97Z</time></trkpt><trkpt lat="45.849870003287215" lon="11.126737007631705"><ele>1557.75</ele><time>2026-04-24T14:52:43.97Z</time></trkpt><trkpt lat="45.849987161445185" lon="11.126695423053693"><ele>1556.0</ele><time>2026-04-24T14:52:44.97Z</time></trkpt><trkpt lat="45.85010089998921" lon="11.12665187874014"><ele>1555.0</ele><time>2026-04-24T14:52:45.97Z</time></trkpt><trkpt lat="45.85022796829629" lon="11.126621347249763"><ele>1554.0</ele><time>2026-04-24T14:52:46.97Z</time></trkpt><trkpt lat="45.85035775400509" lon="11.126566115490643"><ele>1553.0</ele><time>2026-04-24T14:52:47.97Z</time></trkpt><trkpt lat="45.85048634494674" lon="11.126510003329615"><ele>1552.0</ele><time>2026-04-24T14:52:48.97Z</time></trkpt><trkpt lat="45.85061413962762" lon="11.126454505284302"><ele>1546.8</ele><time>2026-04-24T14:52:49.97Z</time></trkpt><trkpt lat="45.85073311636705" lon="11.126416801576795"><ele>1541.6</ele><time>2026-04-24T14:52:50.97Z</time></trkpt><trkpt lat="45.85084685401252" lon="11.126380169229948"><ele>1536.3999999999999</ele><time>2026-04-24T14:52:51.97Z</time></trkpt><trkpt lat="45.85094548339672" lon="11.126369241382504"><ele>1531.1999999999998</ele><time>2026-04-24T14:52:52.97Z</time></trkpt><trkpt lat="45.851027672683315" lon="11.126428265688018"><ele>1526.0</ele><time>2026-04-24T14:52:53.97Z</time></trkpt><trkpt lat="45.85108098439038" lon="11.126524397388941"><ele>1524.0</ele><time>2026-04-24T14:52:54.97Z</time></trkpt><trkpt lat="45.85111070787062" lon="11.126606414718966"><ele>1522.0</ele><time>2026-04-24T14:52:55.97Z</time></trkpt><trkpt lat="45.851181821834174" lon="11.126711981154857"><ele>1520.0</ele><time>2026-04-24T14:52:56.97Z</time></trkpt><trkpt lat="45.85126928471237" lon="11.126808774194846"><ele>1518.0</ele><time>2026-04-24T14:52:57.97Z</time></trkpt><trkpt lat="45.851343295306016" lon="11.126940338480477"><ele>1516.0</ele><time>2026-04-24T14:52:58.97Z</time></trkpt><trkpt lat="45.851413671858815" lon="11.127081005931133"><ele>1516.0</ele><time>2026-04-24T14:52:59.97Z</time></trkpt><trkpt lat="45.85148699979844" lon="11.127225975220822"><ele>1516.0</ele><time>2026-04-24T14:53:00.97Z</time></trkpt><trkpt lat="45.851545909031536" lon="11.127353266761396"><ele>1516.0</ele><time>2026-04-24T14:53:01.97Z</time></trkpt><trkpt lat="45.85158479898282" lon="11.127463597804388"><ele>1516.0</ele><time>2026-04-24T14:53:02.969Z</time></trkpt><trkpt lat="45.85161952358551" lon="11.127605512772547"><ele>1516.0</ele><time>2026-04-24T14:53:04.969Z</time></trkpt><trkpt lat="45.851642392911074" lon="11.127722308144792"><ele>1517.4</ele><time>2026-04-24T14:53:06.969Z</time></trkpt><trkpt lat="45.851668307447916" lon="11.127889287818856"><ele>1518.8</ele><time>2026-04-24T14:53:08.969Z</time></trkpt><trkpt lat="45.85167919374264" lon="11.128016167424557"><ele>1520.2</ele><time>2026-04-24T14:53:09.969Z</time></trkpt><trkpt lat="45.851672143476236" lon="11.128148505848795"><ele>1521.6000000000001</ele><time>2026-04-24T14:53:10.969Z</time></trkpt><trkpt lat="45.85164487003131" lon="11.128309565915965"><ele>1523.0</ele><time>2026-04-24T14:53:11.969Z</time></trkpt><trkpt lat="45.851636412611015" lon="11.128477826030187"><ele>1523.0</ele><time>2026-04-24T14:53:12.969Z</time></trkpt><trkpt lat="45.85162389698259" lon="11.128644857381236"><ele>1523.0</ele><time>2026-04-24T14:53:13.969Z</time></trkpt><trkpt lat="45.85161066254307" lon="11.12882861346988"><ele>1523.0</ele><time>2026-04-24T14:53:14.969Z</time></trkpt><trkpt lat="45.85159727986951" lon="11.129015277036547"><ele>1523.0</ele><time>2026-04-24T14:53:15.969Z</time></trkpt><trkpt lat="45.85157945279503" lon="11.129186205320464"><ele>1521.5</ele><time>2026-04-24T14:53:16.969Z</time></trkpt><trkpt lat="45.85157204596524" lon="11.1293347744258"><ele>1520.0</ele><time>2026-04-24T14:53:17.969Z</time></trkpt><trkpt lat="45.85155529275655" lon="11.129459840829865"><ele>1518.5</ele><time>2026-04-24T14:53:18.969Z</time></trkpt><trkpt lat="45.85153717007894" lon="11.129566277633929"><ele>1517.0</ele><time>2026-04-24T14:53:20.969Z</time></trkpt><trkpt lat="45.85131707928178" lon="11.129614449841526"><ele>1517.0</ele><time>2026-04-24T14:53:22.969Z</time></trkpt><trkpt lat="45.85126382304672" lon="11.129672633551529"><ele>1517.0</ele><time>2026-04-24T14:53:23.969Z</time></trkpt><trkpt lat="45.85119774528656" lon="11.129730728045184"><ele>1517.0</ele><time>2026-04-24T14:53:24.969Z</time></trkpt><trkpt lat="45.85113585787163" lon="11.129798802628251"><ele>1517.0</ele><time>2026-04-24T14:53:25.969Z</time></trkpt><trkpt lat="45.85107119707213" lon="11.129871741813846"><ele>1517.0</ele><time>2026-04-24T14:53:26.969Z</time></trkpt><trkpt lat="45.8510103828743" lon="11.129950209119235"><ele>1517.0</ele><time>2026-04-24T14:53:27.969Z</time></trkpt><trkpt lat="45.85096402224394" lon="11.130036819739033"><ele>1518.1666666666667</ele><time>2026-04-24T14:53:28.969Z</time></trkpt><trkpt lat="45.85091908296725" lon="11.130110054939284"><ele>1519.3333333333335</ele><time>2026-04-24T14:53:29.969Z</time></trkpt><trkpt lat="45.850906299996204" lon="11.130229668313758"><ele>1520.5</ele><time>2026-04-24T14:53:30.969Z</time></trkpt><trkpt lat="45.850931615785676" lon="11.130342925566685"><ele>1521.6666666666667</ele><time>2026-04-24T14:53:31.969Z</time></trkpt><trkpt lat="45.85102382907524" lon="11.130409199219066"><ele>1522.8333333333333</ele><time>2026-04-24T14:53:32.969Z</time></trkpt><trkpt lat="45.85111616171695" lon="11.130434769377594"><ele>1524.0</ele><time>2026-04-24T14:53:33.969Z</time></trkpt><trkpt lat="45.851213619251666" lon="11.130427172656406"><ele>1524.0</ele><time>2026-04-24T14:53:34.969Z</time></trkpt><trkpt lat="45.85130175919269" lon="11.13041605605233"><ele>1524.0</ele><time>2026-04-24T14:53:35.969Z</time></trkpt><trkpt lat="45.85138765313095" lon="11.130417424142093"><ele>1524.0</ele><time>2026-04-24T14:53:36.969Z</time></trkpt><trkpt lat="45.851471631053506" lon="11.13042378117342"><ele>1524.0</ele><time>2026-04-24T14:53:37.969Z</time></trkpt><trkpt lat="45.85155001597604" lon="11.13043086288997"><ele>1524.0</ele><time>2026-04-24T14:53:38.969Z</time></trkpt><trkpt lat="45.85161911491848" lon="11.130479758786144"><ele>1524.0</ele><time>2026-04-24T14:53:39.969Z</time></trkpt><trkpt lat="45.851652830099106" lon="11.130564282264997"><ele>1524.0</ele><time>2026-04-24T14:53:40.969Z</time></trkpt><trkpt lat="45.851680439772196" lon="11.130659321881906"><ele>1524.0</ele><time>2026-04-24T14:53:41.969Z</time></trkpt><trkpt lat="45.85173986762207" lon="11.130794151400307"><ele>1524.0</ele><time>2026-04-24T14:53:42.969Z</time></trkpt><trkpt lat="45.851804218075436" lon="11.130925731276122"><ele>1524.0</ele><time>2026-04-24T14:53:43.969Z</time></trkpt><trkpt lat="45.851877148732065" lon="11.131074854893752"><ele>1524.0</ele><time>2026-04-24T14:53:44.969Z</time></trkpt><trkpt lat="45.85194717367974" lon="11.131218037114554"><ele>1523.8000000000002</ele><time>2026-04-24T14:53:45.969Z</time></trkpt><trkpt lat="45.85207903352343" lon="11.131327813262399"><ele>1523.6000000000001</ele><time>2026-04-24T14:53:46.969Z</time></trkpt><trkpt lat="45.85213737894017" lon="11.131446806444425"><ele>1523.4</ele><time>2026-04-24T14:53:47.969Z</time></trkpt><trkpt lat="45.85216408948042" lon="11.131556115504718"><ele>1523.2</ele><time>2026-04-24T14:53:48.969Z</time></trkpt><trkpt lat="45.852109760285984" lon="11.131645929828764"><ele>1523.0</ele><time>2026-04-24T14:53:49.969Z</time></trkpt><trkpt lat="45.85206854105163" lon="11.131724007871538"><ele>1526.5</ele><time>2026-04-24T14:53:50.969Z</time></trkpt><trkpt lat="45.85203072716537" lon="11.131863662531721"><ele>1530.0</ele><time>2026-04-24T14:53:51.969Z</time></trkpt><trkpt lat="45.851982645604245" lon="11.132034273388077"><ele>1533.5</ele><time>2026-04-24T14:53:52.969Z</time></trkpt><trkpt lat="45.851921545158405" lon="11.132222383613641"><ele>1537.0</ele><time>2026-04-24T14:53:53.969Z</time></trkpt><trkpt lat="45.8518551337273" lon="11.132426490419228"><ele>1544.6666666666667</ele><time>2026-04-24T14:53:54.969Z</time></trkpt><trkpt lat="45.85178747900741" lon="11.132654554035827"><ele>1552.3333333333335</ele><time>2026-04-24T14:53:55.969Z</time></trkpt><trkpt lat="45.85172572955996" lon="11.132868880769598"><ele>1560.0</ele><time>2026-04-24T14:53:56.969Z</time></trkpt><trkpt lat="45.85169135671315" lon="11.133043523022856"><ele>1560.0</ele><time>2026-04-24T14:53:57.969Z</time></trkpt><trkpt lat="45.851639715350956" lon="11.133188367825124"><ele>1560.0</ele><time>2026-04-24T14:53:58.969Z</time></trkpt><trkpt lat="45.85158825409487" lon="11.133346033236164"><ele>1560.0</ele><time>2026-04-24T14:53:59.968Z</time></trkpt><trkpt lat="45.85147033074065" lon="11.133475788561626"><ele>1560.0</ele><time>2026-04-24T14:54:00.968Z</time></trkpt><trkpt lat="45.85139570096083" lon="11.133596493832403"><ele>1560.8</ele><time>2026-04-24T14:54:01.968Z</time></trkpt><trkpt lat="45.85135044152354" lon="11.133719656442036"><ele>1561.6</ele><time>2026-04-24T14:54:02.968Z</time></trkpt><trkpt lat="45.85130710707568" lon="11.133850056866704"><ele>1562.4</ele><time>2026-04-24T14:54:03.968Z</time></trkpt><trkpt lat="45.85134948429953" lon="11.133979041682457"><ele>1563.2</ele><time>2026-04-24T14:54:04.968Z</time></trkpt><trkpt lat="45.85140070712699" lon="11.134107046991604"><ele>1564.0</ele><time>2026-04-24T14:54:05.97Z</time></trkpt><trkpt lat="45.851471109117156" lon="11.134223223797862"><ele>1566.8000000000002</ele><time>2026-04-24T14:54:06.97Z</time></trkpt><trkpt lat="45.85155008972701" lon="11.134309450151251"><ele>1569.6000000000001</ele><time>2026-04-24T14:54:07.971Z</time></trkpt><trkpt lat="45.85163897834036" lon="11.134385167986691"><ele>1572.4</ele><time>2026-04-24T14:54:08.971Z</time></trkpt><trkpt lat="45.851755825382554" lon="11.134336929129988"><ele>1575.2</ele><time>2026-04-24T14:54:09.97Z</time></trkpt><trkpt lat="45.8518707639503" lon="11.1342801558472"><ele>1578.0</ele><time>2026-04-24T14:54:10.97Z</time></trkpt><trkpt lat="45.85201584973637" lon="11.13421979073662"><ele>1576.3333333333335</ele><time>2026-04-24T14:54:11.97Z</time></trkpt><trkpt lat="45.85216890021351" lon="11.134176043677803"><ele>1574.6666666666667</ele><time>2026-04-24T14:54:12.97Z</time></trkpt><trkpt lat="45.85233586747288" lon="11.134117737034755"><ele>1573.0</ele><time>2026-04-24T14:54:13.97Z</time></trkpt><trkpt lat="45.852482142145725" lon="11.133872706686422"><ele>1580.6666666666667</ele><time>2026-04-24T14:54:14.97Z</time></trkpt><trkpt lat="45.852664513963006" lon="11.133766961031942"><ele>1588.3333333333335</ele><time>2026-04-24T14:54:15.97Z</time></trkpt><trkpt lat="45.852832454755195" lon="11.1336312285782"><ele>1596.0</ele><time>2026-04-24T14:54:16.97Z</time></trkpt><trkpt lat="45.852985493597146" lon="11.133462751639536"><ele>1596.0</ele><time>2026-04-24T14:54:17.97Z</time></trkpt><trkpt lat="45.85314990555362" lon="11.133346807757533"><ele>1596.0</ele><time>2026-04-24T14:54:18.97Z</time></trkpt><trkpt lat="45.85329140511647" lon="11.133253058473766"><ele>1596.0</ele><time>2026-04-24T14:54:19.97Z</time></trkpt><trkpt lat="45.85343403024289" lon="11.133147981901129"><ele>1593.6666666666665</ele><time>2026-04-24T14:54:20.97Z</time></trkpt><trkpt lat="45.85360064798442" lon="11.13308769008173"><ele>1591.3333333333333</ele><time>2026-04-24T14:54:21.97Z</time></trkpt><trkpt lat="45.853762089756984" lon="11.133018648930813"><ele>1589.0</ele><time>2026-04-24T14:54:22.97Z</time></trkpt><trkpt lat="45.853930959814946" lon="11.132955789890048"><ele>1589.0</ele><time>2026-04-24T14:54:23.97Z</time></trkpt><trkpt lat="45.85411817393" lon="11.132893787921994"><ele>1589.0</ele><time>2026-04-24T14:54:24.97Z</time></trkpt><trkpt lat="45.85429395523858" lon="11.132842006187964"><ele>1589.0</ele><time>2026-04-24T14:54:25.97Z</time></trkpt><trkpt lat="45.854470797925636" lon="11.132780928796725"><ele>1590.75</ele><time>2026-04-24T14:54:26.97Z</time></trkpt><trkpt lat="45.854633147344266" lon="11.132744860571"><ele>1592.5</ele><time>2026-04-24T14:54:27.97Z</time></trkpt><trkpt lat="45.85476785418692" lon="11.132753826186041"><ele>1594.25</ele><time>2026-04-24T14:54:28.97Z</time></trkpt><trkpt lat="45.85489455328024" lon="11.132773139859605"><ele>1596.0</ele><time>2026-04-24T14:54:29.97Z</time></trkpt><trkpt lat="45.8550252944128" lon="11.132826562267077"><ele>1596.75</ele><time>2026-04-24T14:54:30.97Z</time></trkpt><trkpt lat="45.85513948679498" lon="11.132901274979158"><ele>1597.5</ele><time>2026-04-24T14:54:31.97Z</time></trkpt><trkpt lat="45.85525573561331" lon="11.13301627901587"><ele>1598.25</ele><time>2026-04-24T14:54:32.97Z</time></trkpt><trkpt lat="45.85536901229553" lon="11.133154976267502"><ele>1599.0</ele><time>2026-04-24T14:54:33.97Z</time></trkpt><trkpt lat="45.855449612110604" lon="11.13328617341133"><ele>1599.0</ele><time>2026-04-24T14:54:34.97Z</time></trkpt><trkpt lat="45.85551310121631" lon="11.133429561434001"><ele>1599.0</ele><time>2026-04-24T14:54:35.97Z</time></trkpt><trkpt lat="45.855560765842924" lon="11.133588174692227"><ele>1599.0</ele><time>2026-04-24T14:54:36.97Z</time></trkpt><trkpt lat="45.85559205087061" lon="11.1337613589024"><ele>1599.0</ele><time>2026-04-24T14:54:37.97Z</time></trkpt><trkpt lat="45.8556069525743" lon="11.13396864909089"><ele>1602.6666666666665</ele><time>2026-04-24T14:54:38.97Z</time></trkpt><trkpt lat="45.855597815672866" lon="11.134169636230352"><ele>1606.3333333333333</ele><time>2026-04-24T14:54:39.97Z</time></trkpt><trkpt lat="45.8555609852752" lon="11.134369285173806"><ele>1610.0</ele><time>2026-04-24T14:54:40.97Z</time></trkpt><trkpt lat="45.8555024072315" lon="11.134596822202022"><ele>1610.0</ele><time>2026-04-24T14:54:41.97Z</time></trkpt><trkpt lat="45.85543305670902" lon="11.134852835375392"><ele>1610.0</ele><time>2026-04-24T14:54:42.97Z</time></trkpt><trkpt lat="45.85537894266509" lon="11.135113482487549"><ele>1610.0</ele><time>2026-04-24T14:54:43.97Z</time></trkpt><trkpt lat="45.85533780081275" lon="11.135324686289048"><ele>1609.6666666666665</ele><time>2026-04-24T14:54:44.97Z</time></trkpt><trkpt lat="45.85525488488882" lon="11.135504467974567"><ele>1609.3333333333335</ele><time>2026-04-24T14:54:45.97Z</time></trkpt><trkpt lat="45.855170764113616" lon="11.135760119271577"><ele>1609.0</ele><time>2026-04-24T14:54:46.97Z</time></trkpt><trkpt lat="45.85513652286024" lon="11.13601765474316"><ele>1614.3333333333335</ele><time>2026-04-24T14:54:47.97Z</time></trkpt><trkpt lat="45.855106770767485" lon="11.136258430610626"><ele>1619.6666666666665</ele><time>2026-04-24T14:54:48.97Z</time></trkpt><trkpt lat="45.85507363435529" lon="11.13645825256387"><ele>1625.0</ele><time>2026-04-24T14:54:49.97Z</time></trkpt><trkpt lat="45.855013072156964" lon="11.13664617358122"><ele>1625.0</ele><time>2026-04-24T14:54:50.97Z</time></trkpt><trkpt lat="45.8549243653449" lon="11.136832305160226"><ele>1625.0</ele><time>2026-04-24T14:54:51.97Z</time></trkpt><trkpt lat="45.854832337413306" lon="11.137014120738"><ele>1625.0</ele><time>2026-04-24T14:54:52.97Z</time></trkpt><trkpt lat="45.854742291723284" lon="11.137171583742463"><ele>1625.0</ele><time>2026-04-24T14:54:53.97Z</time></trkpt><trkpt lat="45.85465844860152" lon="11.137313053895644"><ele>1625.0</ele><time>2026-04-24T14:54:54.97Z</time></trkpt><trkpt lat="45.85458356503571" lon="11.137430854766055"><ele>1625.0</ele><time>2026-04-24T14:54:55.97Z</time></trkpt><trkpt lat="45.854515197854155" lon="11.137537910446278"><ele>1625.0</ele><time>2026-04-24T14:54:56.97Z</time></trkpt><trkpt lat="45.854456164949106" lon="11.137673998023413"><ele>1624.2</ele><time>2026-04-24T14:54:57.97Z</time></trkpt><trkpt lat="45.85442294160176" lon="11.137779061659288"><ele>1623.4</ele><time>2026-04-24T14:54:58.97Z</time></trkpt><trkpt lat="45.85449565539753" lon="11.137890105442498"><ele>1622.6</ele><time>2026-04-24T14:54:59.97Z</time></trkpt><trkpt lat="45.85455883706047" lon="11.137911591275792"><ele>1621.8</ele><time>2026-04-24T14:55:00.97Z</time></trkpt><trkpt lat="45.85469008310444" lon="11.137871647821813"><ele>1621.0</ele><time>2026-04-24T14:55:02.97Z</time></trkpt><trkpt lat="45.854770132359405" lon="11.137828935977577"><ele>1621.0000000000002</ele><time>2026-04-24T14:55:03.97Z</time></trkpt><trkpt lat="45.854859599229485" lon="11.137816395737755"><ele>1621.0</ele><time>2026-04-24T14:55:04.97Z</time></trkpt><trkpt lat="45.854940937852426" lon="11.137770831069325"><ele>1621.0</ele><time>2026-04-24T14:55:05.97Z</time></trkpt><trkpt lat="45.855032546824475" lon="11.13776956127514"><ele>1621.0</ele><time>2026-04-24T14:55:06.97Z</time></trkpt><trkpt lat="45.85510213534402" lon="11.137772344463166"><ele>1621.0000000000002</ele><time>2026-04-24T14:55:07.97Z</time></trkpt><trkpt lat="45.855145329203374" lon="11.137843700127481"><ele>1621.0</ele><time>2026-04-24T14:55:08.97Z</time></trkpt><trkpt lat="45.85512488177735" lon="11.137950241844191"><ele>1621.0</ele><time>2026-04-24T14:55:09.97Z</time></trkpt><trkpt lat="45.85509320804797" lon="11.138102847118876"><ele>1621.0</ele><time>2026-04-24T14:55:11.97Z</time></trkpt><trkpt lat="45.85508190125516" lon="11.138255138096193"><ele>1621.0</ele><time>2026-04-24T14:55:13.97Z</time></trkpt><trkpt lat="45.85507248979835" lon="11.138372009347997"><ele>1621.0</ele><time>2026-04-24T14:55:15.969Z</time></trkpt><trkpt lat="45.855063583802306" lon="11.13846984258519"><ele>1621.0</ele><time>2026-04-24T14:55:17.969Z</time></trkpt><trkpt lat="45.85504315636158" lon="11.13859978835366"><ele>1622.1666666666667</ele><time>2026-04-24T14:55:19.969Z</time></trkpt><trkpt lat="45.855074659574456" lon="11.138696795872777"><ele>1623.3333333333335</ele><time>2026-04-24T14:55:20.969Z</time></trkpt><trkpt lat="45.855005651911505" lon="11.138745040381927"><ele>1624.5</ele><time>2026-04-24T14:55:21.969Z</time></trkpt><trkpt lat="45.85494749927452" lon="11.138863806752074"><ele>1625.6666666666665</ele><time>2026-04-24T14:55:23.969Z</time></trkpt><trkpt lat="45.854900773953716" lon="11.13894110280053"><ele>1626.8333333333333</ele><time>2026-04-24T14:55:24.969Z</time></trkpt><trkpt lat="45.85484561225583" lon="11.139060601697908"><ele>1628.0</ele><time>2026-04-24T14:55:25.969Z</time></trkpt><trkpt lat="45.854807443152126" lon="11.13918388652915"><ele>1628.0</ele><time>2026-04-24T14:55:26.969Z</time></trkpt><trkpt lat="45.85477652110509" lon="11.139324664961002"><ele>1628.0</ele><time>2026-04-24T14:55:27.969Z</time></trkpt><trkpt lat="45.85475154369964" lon="11.139476062819897"><ele>1628.0</ele><time>2026-04-24T14:55:28.969Z</time></trkpt><trkpt lat="45.85472810783206" lon="11.139639306401316"><ele>1628.0</ele><time>2026-04-24T14:55:29.969Z</time></trkpt><trkpt lat="45.854712465583646" lon="11.139817671961639"><ele>1627.8000000000002</ele><time>2026-04-24T14:55:30.969Z</time></trkpt><trkpt lat="45.85471155818448" lon="11.14002791689037"><ele>1627.6</ele><time>2026-04-24T14:55:31.969Z</time></trkpt><trkpt lat="45.85471960602481" lon="11.140177111557993"><ele>1627.4</ele><time>2026-04-24T14:55:32.969Z</time></trkpt><trkpt lat="45.85472506309667" lon="11.140273747141986"><ele>1627.1999999999998</ele><time>2026-04-24T14:55:33.969Z</time></trkpt><trkpt lat="45.85473325331938" lon="11.140418782094802"><ele>1627.0</ele><time>2026-04-24T14:55:35.969Z</time></trkpt><trkpt lat="45.85473956036314" lon="11.140530469117476"><ele>1627.0</ele><time>2026-04-24T14:55:36.969Z</time></trkpt><trkpt lat="45.85476804124514" lon="11.140650083927016"><ele>1627.0</ele><time>2026-04-24T14:55:37.969Z</time></trkpt><trkpt lat="45.854784112453174" lon="11.140783853156819"><ele>1627.0</ele><time>2026-04-24T14:55:38.969Z</time></trkpt><trkpt lat="45.85479863028314" lon="11.140943386506779"><ele>1627.0</ele><time>2026-04-24T14:55:39.969Z</time></trkpt><trkpt lat="45.85480972786419" lon="11.141067265159812"><ele>1627.0</ele><time>2026-04-24T14:55:40.969Z</time></trkpt><trkpt lat="45.85482016376691" lon="11.141183916838164"><ele>1627.8</ele><time>2026-04-24T14:55:42.969Z</time></trkpt><trkpt lat="45.8548152596429" lon="11.141387031695709"><ele>1628.6</ele><time>2026-04-24T14:55:44.969Z</time></trkpt><trkpt lat="45.85480147284827" lon="11.141479644307276"><ele>1629.3999999999999</ele><time>2026-04-24T14:55:45.969Z</time></trkpt><trkpt lat="45.85477959895613" lon="11.141579518404846"><ele>1630.1999999999998</ele><time>2026-04-24T14:55:46.969Z</time></trkpt><trkpt lat="45.854720649017715" lon="11.141732236769023"><ele>1631.0</ele><time>2026-04-24T14:55:48.969Z</time></trkpt><trkpt lat="45.85468749111302" lon="11.141822203456934"><ele>1631.4999999999998</ele><time>2026-04-24T14:55:49.969Z</time></trkpt><trkpt lat="45.854646186606374" lon="11.141933292343307"><ele>1632.0</ele><time>2026-04-24T14:55:50.969Z</time></trkpt><trkpt lat="45.85460914863238" lon="11.14203125305069"><ele>1632.5</ele><time>2026-04-24T14:55:51.969Z</time></trkpt><trkpt lat="45.85457030925711" lon="11.142133124004316"><ele>1633.0</ele><time>2026-04-24T14:55:52.969Z</time></trkpt><trkpt lat="45.85453950891929" lon="11.142213908965157"><ele>1633.4999999999998</ele><time>2026-04-24T14:55:53.969Z</time></trkpt><trkpt lat="45.854501801190146" lon="11.142311902478829"><ele>1634.0</ele><time>2026-04-24T14:55:55.969Z</time></trkpt><trkpt lat="45.85446442774232" lon="11.142408345617083"><ele>1632.6</ele><time>2026-04-24T14:55:58.969Z</time></trkpt><trkpt lat="45.85442050905103" lon="11.14251858257852"><ele>1631.2</ele><time>2026-04-24T14:56:03.969Z</time></trkpt><trkpt lat="45.85437526650297" lon="11.142628449318373"><ele>1629.8</ele><time>2026-04-24T14:56:06.969Z</time></trkpt><trkpt lat="45.85433782678797" lon="11.14271719642812"><ele>1628.3999999999999</ele><time>2026-04-24T14:56:08.969Z</time></trkpt><trkpt lat="45.85429374798896" lon="11.142855050872047"><ele>1627.0</ele><time>2026-04-24T14:56:10.969Z</time></trkpt><trkpt lat="45.85425194807649" lon="11.143036222405652"><ele>1615.0</ele><time>2026-04-24T14:56:12.97Z</time></trkpt><trkpt lat="45.8547230919978" lon="11.143685799686134"><ele>1615.0000000000002</ele><time>2026-04-24T14:56:14.97Z</time></trkpt><trkpt lat="45.85471157667756" lon="11.143834372141447"><ele>1615.0</ele><time>2026-04-24T14:56:15.97Z</time></trkpt><trkpt lat="45.85470587644553" lon="11.143962139901618"><ele>1615.0</ele><time>2026-04-24T14:56:16.97Z</time></trkpt><trkpt lat="45.8546840025907" lon="11.144065397206957"><ele>1615.0</ele><time>2026-04-24T14:56:17.97Z</time></trkpt><trkpt lat="45.854665695860525" lon="11.14418317989926"><ele>1615.0000000000002</ele><time>2026-04-24T14:56:18.97Z</time></trkpt><trkpt lat="45.85464356309891" lon="11.144300951276664"><ele>1615.0</ele><time>2026-04-24T14:56:19.97Z</time></trkpt><trkpt lat="45.85462341310621" lon="11.144417021666714"><ele>1612.8</ele><time>2026-04-24T14:56:20.97Z</time></trkpt><trkpt lat="45.854591881918076" lon="11.144536998805116"><ele>1610.6</ele><time>2026-04-24T14:56:21.97Z</time></trkpt><trkpt lat="45.854548098687204" lon="11.144677143722317"><ele>1608.4</ele><time>2026-04-24T14:56:22.97Z</time></trkpt><trkpt lat="45.85449628686974" lon="11.1448175419356"><ele>1606.2</ele><time>2026-04-24T14:56:23.97Z</time></trkpt><trkpt lat="45.85443635537602" lon="11.14499011475235"><ele>1604.0</ele><time>2026-04-24T14:56:24.97Z</time></trkpt><trkpt lat="45.85439660206349" lon="11.14513736365174"><ele>1603.2</ele><time>2026-04-24T14:56:25.97Z</time></trkpt><trkpt lat="45.8543753515478" lon="11.145293044350385"><ele>1602.4</ele><time>2026-04-24T14:56:26.97Z</time></trkpt><trkpt lat="45.85435588659559" lon="11.145419586107502"><ele>1601.6</ele><time>2026-04-24T14:56:27.97Z</time></trkpt><trkpt lat="45.85430748770703" lon="11.145542996134362"><ele>1600.8</ele><time>2026-04-24T14:56:28.97Z</time></trkpt><trkpt lat="45.85423941158748" lon="11.145707959876109"><ele>1600.0</ele><time>2026-04-24T14:56:29.97Z</time></trkpt><trkpt lat="45.85414124292484" lon="11.145847937121044"><ele>1603.75</ele><time>2026-04-24T14:56:30.97Z</time></trkpt><trkpt lat="45.854058509062924" lon="11.145973042746746"><ele>1607.5</ele><time>2026-04-24T14:56:31.97Z</time></trkpt><trkpt lat="45.85395155476354" lon="11.146073504830433"><ele>1611.25</ele><time>2026-04-24T14:56:32.97Z</time></trkpt><trkpt lat="45.853848289297815" lon="11.146196354035732"><ele>1615.0</ele><time>2026-04-24T14:56:33.97Z</time></trkpt><trkpt lat="45.85376085208269" lon="11.146312352314093"><ele>1615.0000000000002</ele><time>2026-04-24T14:56:34.97Z</time></trkpt><trkpt lat="45.853715937243344" lon="11.146377570506903"><ele>1615.0</ele><time>2026-04-24T14:56:35.97Z</time></trkpt><trkpt lat="45.853728207533095" lon="11.14646791606571"><ele>1615.0</ele><time>2026-04-24T14:56:44.97Z</time></trkpt><trkpt lat="45.85374504563631" lon="11.146589615032084"><ele>1615.0</ele><time>2026-04-24T14:56:48.97Z</time></trkpt><trkpt lat="45.85376724303424" lon="11.146703492514467"><ele>1615.0000000000002</ele><time>2026-04-24T14:56:50.97Z</time></trkpt><trkpt lat="45.85373677632707" lon="11.146802782309797"><ele>1615.0</ele><time>2026-04-24T14:56:53.97Z</time></trkpt><trkpt lat="45.85364176631485" lon="11.146853210490091"><ele>1615.1666666666667</ele><time>2026-04-24T14:56:56.97Z</time></trkpt><trkpt lat="45.853582838506206" lon="11.146912370335434"><ele>1615.3333333333335</ele><time>2026-04-24T14:56:58.97Z</time></trkpt><trkpt lat="45.85355619815678" lon="11.146998801843624"><ele>1615.5</ele><time>2026-04-24T14:56:59.97Z</time></trkpt><trkpt lat="45.85350433780208" lon="11.147169546021518"><ele>1615.6666666666665</ele><time>2026-04-24T14:57:01.97Z</time></trkpt><trkpt lat="45.85347061212748" lon="11.147257408003835"><ele>1615.8333333333333</ele><time>2026-04-24T14:57:02.97Z</time></trkpt><trkpt lat="45.85340780908803" lon="11.147365589937305"><ele>1616.0</ele><time>2026-04-24T14:57:03.97Z</time></trkpt><trkpt lat="45.85334331133991" lon="11.147420651028813"><ele>1616.0</ele><time>2026-04-24T14:57:04.97Z</time></trkpt><trkpt lat="45.85325463340558" lon="11.147437405487834"><ele>1616.0</ele><time>2026-04-24T14:57:05.97Z</time></trkpt><trkpt lat="45.85316303454814" lon="11.147387998335295"><ele>1616.0</ele><time>2026-04-24T14:57:06.97Z</time></trkpt><trkpt lat="45.85307120371312" lon="11.147329856490021"><ele>1616.0</ele><time>2026-04-24T14:57:07.97Z</time></trkpt><trkpt lat="45.85297054309965" lon="11.147239961082368"><ele>1616.0</ele><time>2026-04-24T14:57:08.97Z</time></trkpt><trkpt lat="45.852887104913215" lon="11.147148987725295"><ele>1616.0</ele><time>2026-04-24T14:57:09.97Z</time></trkpt><trkpt lat="45.85279278197383" lon="11.147062206095939"><ele>1616.0</ele><time>2026-04-24T14:57:10.97Z</time></trkpt><trkpt lat="45.852697384091236" lon="11.146986395053599"><ele>1616.0</ele><time>2026-04-24T14:57:11.97Z</time></trkpt><trkpt lat="45.85258703700815" lon="11.14693526030668"><ele>1616.0</ele><time>2026-04-24T14:57:12.97Z</time></trkpt><trkpt lat="45.85246548688249" lon="11.146892644846922"><ele>1618.0</ele><time>2026-04-24T14:57:13.97Z</time></trkpt><trkpt lat="45.85235014263503" lon="11.146879022606871"><ele>1620.0</ele><time>2026-04-24T14:57:14.97Z</time></trkpt><trkpt lat="45.85221384843495" lon="11.146894111296191"><ele>1622.0</ele><time>2026-04-24T14:57:15.97Z</time></trkpt><trkpt lat="45.85207863888353" lon="11.146946821191056"><ele>1624.0</ele><time>2026-04-24T14:57:16.97Z</time></trkpt><trkpt lat="45.851945572353564" lon="11.147019186559461"><ele>1624.0</ele><time>2026-04-24T14:57:17.97Z</time></trkpt><trkpt lat="45.85181713241271" lon="11.147096214258385"><ele>1624.0</ele><time>2026-04-24T14:57:18.97Z</time></trkpt><trkpt lat="45.85170726204825" lon="11.14715230359705"><ele>1624.0</ele><time>2026-04-24T14:57:19.97Z</time></trkpt><trkpt lat="45.85161541639518" lon="11.147228106129802"><ele>1624.0</ele><time>2026-04-24T14:57:20.97Z</time></trkpt><trkpt lat="45.85154630897459" lon="11.147348158840874"><ele>1619.4</ele><time>2026-04-24T14:57:21.97Z</time></trkpt><trkpt lat="45.8515125158206" lon="11.147499353591467"><ele>1614.8000000000002</ele><time>2026-04-24T14:57:22.97Z</time></trkpt><trkpt lat="45.85150514447187" lon="11.14762496105976"><ele>1610.1999999999998</ele><time>2026-04-24T14:57:23.97Z</time></trkpt><trkpt lat="45.85148835433433" lon="11.147721425457917"><ele>1605.6</ele><time>2026-04-24T14:57:25.97Z</time></trkpt><trkpt lat="45.85140189234115" lon="11.14781659303855"><ele>1601.0</ele><time>2026-04-24T14:57:29.97Z</time></trkpt><trkpt lat="45.85132044992052" lon="11.147916584794386"><ele>1600.9999999999998</ele><time>2026-04-24T14:57:31.97Z</time></trkpt><trkpt lat="45.85129232016455" lon="11.148003016835737"><ele>1601.0</ele><time>2026-04-24T14:57:32.97Z</time></trkpt><trkpt lat="45.851246798608024" lon="11.148101209332463"><ele>1601.0</ele><time>2026-04-24T14:57:33.97Z</time></trkpt><trkpt lat="45.851198170310774" lon="11.14820343927518"><ele>1601.0</ele><time>2026-04-24T14:57:35.97Z</time></trkpt><trkpt lat="45.851179759294716" lon="11.148370195904914"><ele>1600.9999999999998</ele><time>2026-04-24T14:57:38.97Z</time></trkpt><trkpt lat="45.85119747111643" lon="11.148476074525624"><ele>1601.0</ele><time>2026-04-24T14:57:39.97Z</time></trkpt><trkpt lat="45.85122377036355" lon="11.148619147049278"><ele>1597.0</ele><time>2026-04-24T14:57:40.97Z</time></trkpt><trkpt lat="45.851259080362794" lon="11.148777835365513"><ele>1593.0</ele><time>2026-04-24T14:57:41.97Z</time></trkpt><trkpt lat="45.851270244670296" lon="11.148926879297916"><ele>1589.0</ele><time>2026-04-24T14:57:42.97Z</time></trkpt><trkpt lat="45.851306535698626" lon="11.149097856749803"><ele>1585.0</ele><time>2026-04-24T14:57:43.97Z</time></trkpt><trkpt lat="45.851350134023576" lon="11.149268837988734"><ele>1585.0000000000002</ele><time>2026-04-24T14:57:44.969Z</time></trkpt><trkpt lat="45.851389145059" lon="11.149412112400515"><ele>1585.0</ele><time>2026-04-24T14:57:45.969Z</time></trkpt><trkpt lat="45.85138493088306" lon="11.14951091837441"><ele>1585.0</ele><time>2026-04-24T14:57:46.969Z</time></trkpt><trkpt lat="45.85133085146204" lon="11.149570046486497"><ele>1585.0</ele><time>2026-04-24T14:57:48.969Z</time></trkpt><trkpt lat="45.85132678478016" lon="11.149675363026843"><ele>1585.0000000000002</ele><time>2026-04-24T14:57:50.969Z</time></trkpt><trkpt lat="45.85133174310332" lon="11.14983568091198"><ele>1585.0</ele><time>2026-04-24T14:57:52.969Z</time></trkpt><trkpt lat="45.85132414420689" lon="11.149941944437955"><ele>1585.0000000000002</ele><time>2026-04-24T14:57:53.969Z</time></trkpt><trkpt lat="45.85131515836788" lon="11.150072374732432"><ele>1585.0</ele><time>2026-04-24T14:57:54.969Z</time></trkpt><trkpt lat="45.85127601961439" lon="11.15021049068162"><ele>1585.0</ele><time>2026-04-24T14:57:55.969Z</time></trkpt><trkpt lat="45.85122368646602" lon="11.150309911754952"><ele>1585.0</ele><time>2026-04-24T14:57:56.969Z</time></trkpt><trkpt lat="45.851152950478834" lon="11.150376476715511"><ele>1585.0000000000002</ele><time>2026-04-24T14:57:57.969Z</time></trkpt><trkpt lat="45.85110288501464" lon="11.150444561779578"><ele>1585.0</ele><time>2026-04-24T14:57:58.969Z</time></trkpt><trkpt lat="45.851073883270516" lon="11.150542537260774"><ele>1585.0</ele><time>2026-04-24T14:58:01.969Z</time></trkpt><trkpt lat="45.85110558588156" lon="11.150658029161587"><ele>1585.0</ele><time>2026-04-24T14:58:04.969Z</time></trkpt><trkpt lat="45.85111957735404" lon="11.150762456882077"><ele>1585.0</ele><time>2026-04-24T14:58:05.969Z</time></trkpt><trkpt lat="45.85114148839644" lon="11.15088192112736"><ele>1585.0</ele><time>2026-04-24T14:58:06.969Z</time></trkpt><trkpt lat="45.851172750836106" lon="11.151032334338423"><ele>1585.0</ele><time>2026-04-24T14:58:07.969Z</time></trkpt><trkpt lat="45.85121205785783" lon="11.151235713056979"><ele>1585.25</ele><time>2026-04-24T14:58:08.969Z</time></trkpt><trkpt lat="45.851247456328366" lon="11.151435632352271"><ele>1585.5</ele><time>2026-04-24T14:58:09.969Z</time></trkpt><trkpt lat="45.85127482325354" lon="11.151613805049799"><ele>1585.75</ele><time>2026-04-24T14:58:10.969Z</time></trkpt><trkpt lat="45.85129291206124" lon="11.151805806905042"><ele>1586.0</ele><time>2026-04-24T14:58:11.969Z</time></trkpt><trkpt lat="45.85129596529937" lon="11.151966034962959"><ele>1586.6</ele><time>2026-04-24T14:58:12.969Z</time></trkpt><trkpt lat="45.851293908399605" lon="11.152110354133775"><ele>1587.1999999999998</ele><time>2026-04-24T14:58:13.969Z</time></trkpt><trkpt lat="45.8513027674094" lon="11.15225288829307"><ele>1587.8000000000002</ele><time>2026-04-24T14:58:14.969Z</time></trkpt><trkpt lat="45.85132847400176" lon="11.1524266882"><ele>1588.4</ele><time>2026-04-24T14:58:15.969Z</time></trkpt><trkpt lat="45.85133634083249" lon="11.152569444868416"><ele>1589.0</ele><time>2026-04-24T14:58:16.969Z</time></trkpt><trkpt lat="45.85134807851715" lon="11.152683077448867"><ele>1589.8333333333333</ele><time>2026-04-24T14:58:17.97Z</time></trkpt><trkpt lat="45.85135849233237" lon="11.152784672105701"><ele>1590.6666666666665</ele><time>2026-04-24T14:58:19.97Z</time></trkpt><trkpt lat="45.85134522030169" lon="11.152895054162864"><ele>1591.5</ele><time>2026-04-24T14:58:31.969Z</time></trkpt><trkpt lat="45.851353686466744" lon="11.153050092559932"><ele>1592.3333333333335</ele><time>2026-04-24T14:58:35.97Z</time></trkpt><trkpt lat="45.85133698717614" lon="11.153144840005368"><ele>1593.1666666666667</ele><time>2026-04-24T14:58:46.97Z</time></trkpt><trkpt lat="45.851326717454306" lon="11.153039585634351"><ele>1594.0</ele><time>2026-04-24T14:59:01.97Z</time></trkpt><trkpt lat="45.851348547473094" lon="11.152942483487406"><ele>1594.0000000000002</ele><time>2026-04-24T14:59:09.97Z</time></trkpt><trkpt lat="45.85130850752714" lon="11.15286693136081"><ele>1594.0</ele><time>2026-04-24T14:59:14.97Z</time></trkpt><trkpt lat="45.85130553551026" lon="11.15276650475133"><ele>1594.0</ele><time>2026-04-24T14:59:33.969Z</time></trkpt><trkpt lat="45.85132549196536" lon="11.152853254798316"><ele>1594.0</ele><time>2026-04-24T14:59:50.969Z</time></trkpt><trkpt lat="45.851341412130964" lon="11.152962884064614"><ele>1594.0000000000002</ele><time>2026-04-24T15:00:00.969Z</time></trkpt><trkpt lat="45.85133793650164" lon="11.15306848342599"><ele>1594.0</ele><time>2026-04-24T15:00:05.969Z</time></trkpt><trkpt lat="45.851315646143334" lon="11.153227754874758"><ele>1593.4</ele><time>2026-04-24T15:00:25.97Z</time></trkpt><trkpt lat="45.851280402710536" lon="11.153329626841465"><ele>1592.8000000000002</ele><time>2026-04-24T15:00:27.969Z</time></trkpt><trkpt lat="45.85127201655171" lon="11.153443996817277"><ele>1592.1999999999998</ele><time>2026-04-24T15:00:29.97Z</time></trkpt><trkpt lat="45.8512572100905" lon="11.153561507690895"><ele>1591.6</ele><time>2026-04-24T15:00:31.97Z</time></trkpt><trkpt lat="45.85124461031326" lon="11.153704292176535"><ele>1591.0</ele><time>2026-04-24T15:00:33.97Z</time></trkpt><trkpt lat="45.851224985296675" lon="11.153857763209848"><ele>1591.0000000000002</ele><time>2026-04-24T15:00:35.969Z</time></trkpt><trkpt lat="45.85120063174615" lon="11.153968066091242"><ele>1591.0</ele><time>2026-04-24T15:00:38.97Z</time></trkpt><trkpt lat="45.851169737562145" lon="11.154060794225721"><ele>1591.0</ele><time>2026-04-24T15:00:43.969Z</time></trkpt><trkpt lat="45.85111108802904" lon="11.154115259863287"><ele>1591.0</ele><time>2026-04-24T15:01:26.967Z</time></trkpt><trkpt lat="45.85122615626738" lon="11.154072070960622"><ele>1591.0000000000002</ele><time>2026-04-24T15:02:00.967Z</time></trkpt><trkpt lat="45.851159439194106" lon="11.154057240662512"><ele>1591.0</ele><time>2026-04-24T15:05:06.968Z</time></trkpt><trkpt lat="45.85120289386933" lon="11.153965441011225"><ele>1591.0000000000002</ele><time>2026-04-24T15:05:40.967Z</time></trkpt><trkpt lat="45.85122863191686" lon="11.153815718720795"><ele>1591.0</ele><time>2026-04-24T15:05:42.967Z</time></trkpt><trkpt lat="45.85124056885558" lon="11.153661347185977"><ele>1591.0</ele><time>2026-04-24T15:05:44.967Z</time></trkpt><trkpt lat="45.85128013687525" lon="11.153563414825092"><ele>1591.0</ele><time>2026-04-24T15:05:46.967Z</time></trkpt><trkpt lat="45.85129762953103" lon="11.153466350583905"><ele>1591.0000000000002</ele><time>2026-04-24T15:05:47.967Z</time></trkpt><trkpt lat="45.8513175164739" lon="11.153361165894424"><ele>1591.0</ele><time>2026-04-24T15:05:48.967Z</time></trkpt><trkpt lat="45.851343753376774" lon="11.153266089499377"><ele>1591.5000000000002</ele><time>2026-04-24T15:05:49.967Z</time></trkpt><trkpt lat="45.85134471018512" lon="11.153118595810925"><ele>1592.0</ele><time>2026-04-24T15:05:51.967Z</time></trkpt><trkpt lat="45.851340568062334" lon="11.153012312781376"><ele>1592.5</ele><time>2026-04-24T15:05:53.967Z</time></trkpt><trkpt lat="45.85135526460666" lon="11.152918228742315"><ele>1593.0</ele><time>2026-04-24T15:05:57.967Z</time></trkpt><trkpt lat="45.851330242102925" lon="11.15279153736101"><ele>1593.5000000000002</ele><time>2026-04-24T15:06:01.967Z</time></trkpt><trkpt lat="45.85129590378667" lon="11.152647533321565"><ele>1594.0</ele><time>2026-04-24T15:06:03.967Z</time></trkpt><trkpt lat="45.851277586899975" lon="11.152516052966103"><ele>1594.0000000000002</ele><time>2026-04-24T15:06:04.967Z</time></trkpt><trkpt lat="45.8512687690004" lon="11.15240486749348"><ele>1594.0</ele><time>2026-04-24T15:06:05.967Z</time></trkpt><trkpt lat="45.85125522844647" lon="11.1522439103285"><ele>1594.0</ele><time>2026-04-24T15:06:06.967Z</time></trkpt><trkpt lat="45.85124213774603" lon="11.152131414626611"><ele>1594.0</ele><time>2026-04-24T15:06:07.967Z</time></trkpt><trkpt lat="45.851241765792786" lon="11.152013272234242"><ele>1594.0000000000002</ele><time>2026-04-24T15:06:08.967Z</time></trkpt><trkpt lat="45.85124262458615" lon="11.151891966355812"><ele>1594.0</ele><time>2026-04-24T15:06:09.967Z</time></trkpt><trkpt lat="45.85124338738582" lon="11.151767826711295"><ele>1593.0</ele><time>2026-04-24T15:06:10.967Z</time></trkpt><trkpt lat="45.85123767200728" lon="11.151625631224157"><ele>1592.0</ele><time>2026-04-24T15:06:11.967Z</time></trkpt><trkpt lat="45.851221276443205" lon="11.151498411490904"><ele>1591.0</ele><time>2026-04-24T15:06:12.967Z</time></trkpt><trkpt lat="45.85118785812682" lon="11.151357418207402"><ele>1590.0</ele><time>2026-04-24T15:06:13.967Z</time></trkpt><trkpt lat="45.85116735674756" lon="11.151227158662227"><ele>1589.0</ele><time>2026-04-24T15:06:14.967Z</time></trkpt><trkpt lat="45.85115738482658" lon="11.151099682005185"><ele>1588.4999999999998</ele><time>2026-04-24T15:06:15.967Z</time></trkpt><trkpt lat="45.851140648901946" lon="11.150991219262602"><ele>1588.0</ele><time>2026-04-24T15:06:16.967Z</time></trkpt><trkpt lat="45.851122748704846" lon="11.150842654471285"><ele>1587.5</ele><time>2026-04-24T15:06:18.967Z</time></trkpt><trkpt lat="45.85110462431425" lon="11.150731183866661"><ele>1587.0</ele><time>2026-04-24T15:06:20.967Z</time></trkpt><trkpt lat="45.8511091192527" lon="11.150624470899702"><ele>1586.4999999999998</ele><time>2026-04-24T15:06:22.967Z</time></trkpt><trkpt lat="45.85112506298518" lon="11.15048465335749"><ele>1586.0</ele><time>2026-04-24T15:06:24.967Z</time></trkpt><trkpt lat="45.851201541731484" lon="11.150393416220135"><ele>1585.857142857143</ele><time>2026-04-24T15:06:26.967Z</time></trkpt><trkpt lat="45.85125048692499" lon="11.150323908507092"><ele>1585.7142857142858</ele><time>2026-04-24T15:06:27.967Z</time></trkpt><trkpt lat="45.85127039353995" lon="11.150229021579552"><ele>1585.5714285714284</ele><time>2026-04-24T15:06:28.967Z</time></trkpt><trkpt lat="45.851288470352245" lon="11.150135988953586"><ele>1585.4285714285716</ele><time>2026-04-24T15:06:29.967Z</time></trkpt><trkpt lat="45.85129785626317" lon="11.15003156987258"><ele>1585.2857142857142</ele><time>2026-04-24T15:06:30.967Z</time></trkpt><trkpt lat="45.85130623161475" lon="11.149925594582271"><ele>1585.142857142857</ele><time>2026-04-24T15:06:31.967Z</time></trkpt><trkpt lat="45.851309488615705" lon="11.149828025077124"><ele>1585.0</ele><time>2026-04-24T15:06:32.967Z</time></trkpt><trkpt lat="45.85130327065852" lon="11.14970416924191"><ele>1585.0000000000002</ele><time>2026-04-24T15:06:34.967Z</time></trkpt><trkpt lat="45.85134282654627" lon="11.14955750287649"><ele>1585.0</ele><time>2026-04-24T15:06:38.967Z</time></trkpt><trkpt lat="45.8513524382731" lon="11.149407693898551"><ele>1585.0</ele><time>2026-04-24T15:06:40.967Z</time></trkpt><trkpt lat="45.85131072805046" lon="11.149305665865844"><ele>1585.0</ele><time>2026-04-24T15:06:43.968Z</time></trkpt><trkpt lat="45.851317704401545" lon="11.149214087591849"><ele>1585.0000000000002</ele><time>2026-04-24T15:06:49.967Z</time></trkpt><trkpt lat="45.85132954954085" lon="11.14912005638312"><ele>1585.0</ele><time>2026-04-24T15:06:54.967Z</time></trkpt><trkpt lat="45.85137574156138" lon="11.14894933124471"><ele>1585.0</ele><time>2026-04-24T15:06:56.967Z</time></trkpt><trkpt lat="45.8514220388047" lon="11.148822861754873"><ele>1585.0</ele><time>2026-04-24T15:06:58.967Z</time></trkpt><trkpt lat="45.85148601858468" lon="11.148687040656023"><ele>1585.0</ele><time>2026-04-24T15:07:00.968Z</time></trkpt><trkpt lat="45.85153950932298" lon="11.148600227964671"><ele>1585.0</ele><time>2026-04-24T15:07:01.967Z</time></trkpt><trkpt lat="45.851606242465685" lon="11.14853371687285"><ele>1585.0</ele><time>2026-04-24T15:07:02.967Z</time></trkpt><trkpt lat="45.8516756328065" lon="11.148472250659077"><ele>1585.0000000000002</ele><time>2026-04-24T15:07:03.967Z</time></trkpt><trkpt lat="45.85172931972485" lon="11.14841282627314"><ele>1585.0</ele><time>2026-04-24T15:07:04.967Z</time></trkpt><trkpt lat="45.85176380121123" lon="11.148334572030024"><ele>1585.0</ele><time>2026-04-24T15:07:05.967Z</time></trkpt><trkpt lat="45.85179406872327" lon="11.148248230982873"><ele>1585.0</ele><time>2026-04-24T15:07:06.967Z</time></trkpt><trkpt lat="45.85182529102632" lon="11.14816743374999"><ele>1585.0000000000002</ele><time>2026-04-24T15:07:07.967Z</time></trkpt><trkpt lat="45.851876370018836" lon="11.148095039801982"><ele>1585.0</ele><time>2026-04-24T15:07:08.967Z</time></trkpt><trkpt lat="45.8519436265835" lon="11.14795745214967"><ele>1586.3333333333335</ele><time>2026-04-24T15:07:10.967Z</time></trkpt><trkpt lat="45.8519903927522" lon="11.147869846194865"><ele>1587.6666666666667</ele><time>2026-04-24T15:07:11.967Z</time></trkpt><trkpt lat="45.852048095201894" lon="11.147772789496779"><ele>1589.0</ele><time>2026-04-24T15:07:12.967Z</time></trkpt><trkpt lat="45.85210684809171" lon="11.147700840714778"><ele>1590.3333333333335</ele><time>2026-04-24T15:07:13.967Z</time></trkpt><trkpt lat="45.85217585232216" lon="11.147645065819068"><ele>1591.6666666666667</ele><time>2026-04-24T15:07:14.967Z</time></trkpt><trkpt lat="45.85229739420672" lon="11.147643220316898"><ele>1593.0</ele><time>2026-04-24T15:07:16.967Z</time></trkpt><trkpt lat="45.85236514889708" lon="11.147713060376942"><ele>1593.0</ele><time>2026-04-24T15:07:17.967Z</time></trkpt><trkpt lat="45.85243070581533" lon="11.147786379700257"><ele>1593.0</ele><time>2026-04-24T15:07:18.967Z</time></trkpt><trkpt lat="45.85251251570258" lon="11.147827882351383"><ele>1593.0</ele><time>2026-04-24T15:07:19.967Z</time></trkpt><trkpt lat="45.85259122788991" lon="11.147870773673697"><ele>1593.0</ele><time>2026-04-24T15:07:20.967Z</time></trkpt><trkpt lat="45.85266742273131" lon="11.14788956112716"><ele>1593.0</ele><time>2026-04-24T15:07:22.967Z</time></trkpt><trkpt lat="45.85262958385339" lon="11.147994182821174"><ele>1593.0</ele><time>2026-04-24T15:07:25.967Z</time></trkpt><trkpt lat="45.85257292690057" lon="11.148033977083804"><ele>1593.0</ele><time>2026-04-24T15:07:26.967Z</time></trkpt><trkpt lat="45.852500523749185" lon="11.148069906073344"><ele>1593.0</ele><time>2026-04-24T15:07:27.967Z</time></trkpt><trkpt lat="45.85244733434737" lon="11.14813568463833"><ele>1593.0</ele><time>2026-04-24T15:07:28.967Z</time></trkpt><trkpt lat="45.85242333296445" lon="11.148238539223751"><ele>1593.0</ele><time>2026-04-24T15:07:29.967Z</time></trkpt><trkpt lat="45.85240693134785" lon="11.148370916754782"><ele>1593.0</ele><time>2026-04-24T15:07:30.967Z</time></trkpt><trkpt lat="45.852369916702145" lon="11.148505297371509"><ele>1593.0</ele><time>2026-04-24T15:07:31.967Z</time></trkpt><trkpt lat="45.85232061867806" lon="11.14864450539861"><ele>1588.2</ele><time>2026-04-24T15:07:32.967Z</time></trkpt><trkpt lat="45.85229012967938" lon="11.148783305239958"><ele>1583.4</ele><time>2026-04-24T15:07:33.967Z</time></trkpt><trkpt lat="45.85226751656902" lon="11.148870284108277"><ele>1578.6000000000001</ele><time>2026-04-24T15:07:34.967Z</time></trkpt><trkpt lat="45.85220843695836" lon="11.14902258816623"><ele>1573.8000000000002</ele><time>2026-04-24T15:07:36.967Z</time></trkpt><trkpt lat="45.852165953042906" lon="11.149114621767328"><ele>1569.0</ele><time>2026-04-24T15:07:37.967Z</time></trkpt><trkpt lat="45.85211362837409" lon="11.149232481711003"><ele>1566.3333333333333</ele><time>2026-04-24T15:07:38.967Z</time></trkpt><trkpt lat="45.852082705385335" lon="11.149332176889706"><ele>1563.6666666666665</ele><time>2026-04-24T15:07:39.967Z</time></trkpt><trkpt lat="45.8520392445801" lon="11.149408550131756"><ele>1561.0</ele><time>2026-04-24T15:07:40.967Z</time></trkpt><trkpt lat="45.8520119950023" lon="11.149494781517364"><ele>1558.3333333333333</ele><time>2026-04-24T15:07:42.967Z</time></trkpt><trkpt lat="45.852087130414674" lon="11.149603781721584"><ele>1555.6666666666665</ele><time>2026-04-24T15:07:44.967Z</time></trkpt><trkpt lat="45.852136981830576" lon="11.149682800419683"><ele>1553.0</ele><time>2026-04-24T15:07:45.967Z</time></trkpt><trkpt lat="45.85219245476514" lon="11.149766216202641"><ele>1553.0</ele><time>2026-04-24T15:07:47.967Z</time></trkpt><trkpt lat="45.85224333680673" lon="11.149845607319122"><ele>1553.0</ele><time>2026-04-24T15:07:53.967Z</time></trkpt><trkpt lat="45.85228683296287" lon="11.149933397055795"><ele>1553.0</ele><time>2026-04-24T15:08:04.967Z</time></trkpt><trkpt lat="45.8522911514049" lon="11.150026788054452"><ele>1553.0</ele><time>2026-04-24T15:08:20.966Z</time></trkpt><trkpt lat="45.852231878210894" lon="11.149976288530342"><ele>1553.0</ele><time>2026-04-24T15:11:45.894Z</time></trkpt><trkpt lat="45.8522741934482" lon="11.149898418576225"><ele>1553.0</ele><time>2026-04-24T15:12:01.893Z</time></trkpt><trkpt lat="45.85225084646566" lon="11.149993842818542"><ele>1553.0</ele><time>2026-04-24T15:13:17.892Z</time></trkpt><trkpt lat="45.8523019087226" lon="11.150059472644148"><ele>1552.5714285714284</ele><time>2026-04-24T15:13:34.891Z</time></trkpt><trkpt lat="45.85236481544348" lon="11.15009407918185"><ele>1552.142857142857</ele><time>2026-04-24T15:13:40.891Z</time></trkpt><trkpt lat="45.85239481902142" lon="11.15019725578624"><ele>1551.7142857142858</ele><time>2026-04-24T15:14:05.891Z</time></trkpt><trkpt lat="45.852406419879735" lon="11.150303520147604"><ele>1551.2857142857142</ele><time>2026-04-24T15:14:09.89Z</time></trkpt><trkpt lat="45.85244525617534" lon="11.1503784942441"><ele>1550.857142857143</ele><time>2026-04-24T15:14:19.89Z</time></trkpt><trkpt lat="45.85247730004005" lon="11.15048356677188"><ele>1550.4285714285713</ele><time>2026-04-24T15:14:38.89Z</time></trkpt><trkpt lat="45.85250184252449" lon="11.150568141588366"><ele>1550.0</ele><time>2026-04-24T15:14:41.89Z</time></trkpt><trkpt lat="45.85250439088282" lon="11.15066508047299"><ele>1550.3333333333333</ele><time>2026-04-24T15:14:44.889Z</time></trkpt><trkpt lat="45.852513096937315" lon="11.150762964371399"><ele>1550.6666666666665</ele><time>2026-04-24T15:14:47.889Z</time></trkpt><trkpt lat="45.85250811569436" lon="11.150873077564615"><ele>1551.0</ele><time>2026-04-24T15:14:51.889Z</time></trkpt><trkpt lat="45.85251492503658" lon="11.150996182341522"><ele>1551.3333333333335</ele><time>2026-04-24T15:14:54.889Z</time></trkpt><trkpt lat="45.85254483651125" lon="11.151097439002347"><ele>1551.6666666666667</ele><time>2026-04-24T15:14:56.889Z</time></trkpt><trkpt lat="45.852607227290385" lon="11.151244441008012"><ele>1552.0</ele><time>2026-04-24T15:14:59.889Z</time></trkpt><trkpt lat="45.85267598473271" lon="11.15137305296396"><ele>1547.5000000000002</ele><time>2026-04-24T15:15:01.889Z</time></trkpt><trkpt lat="45.85272762957982" lon="11.15145053782456"><ele>1543.0</ele><time>2026-04-24T15:15:02.889Z</time></trkpt><trkpt lat="45.852790022794466" lon="11.151538139008151"><ele>1538.5</ele><time>2026-04-24T15:15:03.889Z</time></trkpt><trkpt lat="45.85284530343997" lon="11.151648124976067"><ele>1534.0</ele><time>2026-04-24T15:15:04.889Z</time></trkpt><trkpt lat="45.8528745897597" lon="11.151728201067783"><ele>1529.5</ele><time>2026-04-24T15:15:05.89Z</time></trkpt><trkpt lat="45.85285697772003" lon="11.151831613069994"><ele>1525.0</ele><time>2026-04-24T15:15:08.891Z</time></trkpt><trkpt lat="45.852837567848226" lon="11.15193573266023"><ele>1525.0</ele><time>2026-04-24T15:15:11.891Z</time></trkpt><trkpt lat="45.85284005963296" lon="11.152039314099316"><ele>1525.0</ele><time>2026-04-24T15:15:15.891Z</time></trkpt><trkpt lat="45.85286057217492" lon="11.151921528241797"><ele>1525.0</ele><time>2026-04-24T15:15:24.89Z</time></trkpt><trkpt lat="45.85285887458192" lon="11.151778054606261"><ele>1525.0</ele><time>2026-04-24T15:15:27.89Z</time></trkpt><trkpt lat="45.852844734828516" lon="11.151668832004537"><ele>1525.0</ele><time>2026-04-24T15:15:29.89Z</time></trkpt><trkpt lat="45.85279640697844" lon="11.151560685823576"><ele>1525.0</ele><time>2026-04-24T15:15:31.89Z</time></trkpt><trkpt lat="45.852710055344325" lon="11.151400394577397"><ele>1525.0</ele><time>2026-04-24T15:15:33.89Z</time></trkpt><trkpt lat="45.85264828839258" lon="11.15129512650572"><ele>1525.0</ele><time>2026-04-24T15:15:34.89Z</time></trkpt><trkpt lat="45.85259800525884" lon="11.15120604099162"><ele>1525.0</ele><time>2026-04-24T15:15:35.89Z</time></trkpt><trkpt lat="45.85255844417032" lon="11.151122759732853"><ele>1525.0</ele><time>2026-04-24T15:15:36.89Z</time></trkpt><trkpt lat="45.85252776230458" lon="11.151012721491801"><ele>1525.0</ele><time>2026-04-24T15:15:37.889Z</time></trkpt><trkpt lat="45.85252176926242" lon="11.150899778080582"><ele>1525.0</ele><time>2026-04-24T15:15:38.889Z</time></trkpt><trkpt lat="45.85252387213084" lon="11.150788074333096"><ele>1529.1666666666665</ele><time>2026-04-24T15:15:39.889Z</time></trkpt><trkpt lat="45.85252470126044" lon="11.15068644199687"><ele>1533.3333333333333</ele><time>2026-04-24T15:15:40.889Z</time></trkpt><trkpt lat="45.85250325466799" lon="11.150577418155995"><ele>1537.5</ele><time>2026-04-24T15:15:41.889Z</time></trkpt><trkpt lat="45.85246736722594" lon="11.15039357165451"><ele>1541.6666666666665</ele><time>2026-04-24T15:15:43.889Z</time></trkpt><trkpt lat="45.85245608653579" lon="11.150290423273603"><ele>1545.8333333333333</ele><time>2026-04-24T15:15:45.889Z</time></trkpt><trkpt lat="45.85242469706484" lon="11.150178303464696"><ele>1550.0</ele><time>2026-04-24T15:15:47.889Z</time></trkpt><trkpt lat="45.852381379816485" lon="11.150096396451822"><ele>1549.9999999999998</ele><time>2026-04-24T15:15:52.889Z</time></trkpt><trkpt lat="45.85235095560427" lon="11.150010004447365"><ele>1550.0</ele><time>2026-04-24T15:16:09.889Z</time></trkpt><trkpt lat="45.852289187084686" lon="11.150043007204872"><ele>1550.0</ele><time>2026-04-24T15:17:09.887Z</time></trkpt><trkpt lat="45.8522246431037" lon="11.150018390786924"><ele>1550.0</ele><time>2026-04-24T15:17:44.888Z</time></trkpt><trkpt lat="45.852309093300825" lon="11.150033088215407"><ele>1550.0</ele><time>2026-04-24T15:18:22.887Z</time></trkpt><trkpt lat="45.85223488202135" lon="11.150031477464667"><ele>1549.9999999999998</ele><time>2026-04-24T15:18:37.886Z</time></trkpt><trkpt lat="45.85229170652065" lon="11.150092303548414"><ele>1550.0</ele><time>2026-04-24T15:19:49.886Z</time></trkpt><trkpt lat="45.852277506672394" lon="11.149997148953522"><ele>1549.9999999999998</ele><time>2026-04-24T15:20:24.885Z</time></trkpt><trkpt lat="45.852268775777894" lon="11.1499012293331"><ele>1550.0</ele><time>2026-04-24T15:20:43.884Z</time></trkpt><trkpt lat="45.85229751491279" lon="11.150000434669984"><ele>1550.0</ele><time>2026-04-24T15:21:05.883Z</time></trkpt><trkpt lat="45.85229418568606" lon="11.150100272037756"><ele>1550.0</ele><time>2026-04-24T15:21:22.883Z</time></trkpt><trkpt lat="45.85235290711626" lon="11.150018525573039"><ele>1550.0</ele><time>2026-04-24T15:21:41.884Z</time></trkpt><trkpt lat="45.852294399925064" lon="11.149969542869703"><ele>1549.9999999999998</ele><time>2026-04-24T15:22:01.884Z</time></trkpt><trkpt lat="45.852287217553375" lon="11.149874656985638"><ele>1550.0</ele><time>2026-04-24T15:22:18.883Z</time></trkpt><trkpt lat="45.85222949488948" lon="11.149828367259126"><ele>1550.4999999999998</ele><time>2026-04-24T15:22:35.883Z</time></trkpt><trkpt lat="45.85217900691032" lon="11.149773895790176"><ele>1551.0</ele><time>2026-04-24T15:22:37.883Z</time></trkpt><trkpt lat="45.852147046117366" lon="11.149683653366832"><ele>1551.5</ele><time>2026-04-24T15:22:39.883Z</time></trkpt><trkpt lat="45.852105184611936" lon="11.149581985515804"><ele>1552.0</ele><time>2026-04-24T15:22:41.883Z</time></trkpt><trkpt lat="45.852106032724116" lon="11.14946899860462"><ele>1552.4999999999998</ele><time>2026-04-24T15:22:43.883Z</time></trkpt><trkpt lat="45.852125305774386" lon="11.149333196187495"><ele>1553.0</ele><time>2026-04-24T15:22:45.883Z</time></trkpt><trkpt lat="45.85217993095653" lon="11.14914488647306"><ele>1552.9999999999998</ele><time>2026-04-24T15:22:47.883Z</time></trkpt><trkpt lat="45.85222112942288" lon="11.149044899911585"><ele>1553.0</ele><time>2026-04-24T15:22:48.883Z</time></trkpt><trkpt lat="45.85226667683944" lon="11.148972096540998"><ele>1553.0</ele><time>2026-04-24T15:22:49.882Z</time></trkpt><trkpt lat="45.852297179186515" lon="11.148888208646925"><ele>1553.0</ele><time>2026-04-24T15:22:50.882Z</time></trkpt><trkpt lat="45.852317374777684" lon="11.148741129265051"><ele>1552.9999999999998</ele><time>2026-04-24T15:22:51.882Z</time></trkpt><trkpt lat="45.85236389568317" lon="11.148600877503531"><ele>1553.0</ele><time>2026-04-24T15:22:52.882Z</time></trkpt><trkpt lat="45.85241063585937" lon="11.14847110347081"><ele>1555.6666666666665</ele><time>2026-04-24T15:22:53.882Z</time></trkpt><trkpt lat="45.85243194162697" lon="11.148354851926738"><ele>1558.3333333333333</ele><time>2026-04-24T15:22:54.882Z</time></trkpt><trkpt lat="45.852470891081836" lon="11.148241567193232"><ele>1561.0</ele><time>2026-04-24T15:22:55.882Z</time></trkpt><trkpt lat="45.852504247220374" lon="11.148134417948286"><ele>1563.6666666666665</ele><time>2026-04-24T15:22:56.882Z</time></trkpt><trkpt lat="45.85257795088994" lon="11.148067055605006"><ele>1566.3333333333333</ele><time>2026-04-24T15:22:57.882Z</time></trkpt><trkpt lat="45.85265420440083" lon="11.148043077628328"><ele>1569.0</ele><time>2026-04-24T15:22:58.882Z</time></trkpt><trkpt lat="45.85268979187526" lon="11.147937697752972"><ele>1573.0</ele><time>2026-04-24T15:23:01.882Z</time></trkpt><trkpt lat="45.85258914747064" lon="11.147866098443213"><ele>1577.0</ele><time>2026-04-24T15:23:04.882Z</time></trkpt><trkpt lat="45.85251225939849" lon="11.147850713590142"><ele>1581.0</ele><time>2026-04-24T15:23:05.882Z</time></trkpt><trkpt lat="45.85243868479834" lon="11.147799357954863"><ele>1585.0</ele><time>2026-04-24T15:23:06.882Z</time></trkpt><trkpt lat="45.85237734751027" lon="11.147752219017349"><ele>1589.0</ele><time>2026-04-24T15:23:07.882Z</time></trkpt><trkpt lat="45.85229279400823" lon="11.147708283897934"><ele>1593.0</ele><time>2026-04-24T15:23:08.882Z</time></trkpt><trkpt lat="45.852204133240114" lon="11.147752943701933"><ele>1593.0</ele><time>2026-04-24T15:23:10.882Z</time></trkpt><trkpt lat="45.852121996644016" lon="11.147808542307034"><ele>1593.0</ele><time>2026-04-24T15:23:11.882Z</time></trkpt><trkpt lat="45.85202809912322" lon="11.147871127527656"><ele>1593.0</ele><time>2026-04-24T15:23:12.882Z</time></trkpt><trkpt lat="45.85196958973415" lon="11.14797439387242"><ele>1593.0</ele><time>2026-04-24T15:23:13.882Z</time></trkpt><trkpt lat="45.85192847979736" lon="11.148070435163211"><ele>1593.0</ele><time>2026-04-24T15:23:14.882Z</time></trkpt><trkpt lat="45.85187213254229" lon="11.148142088263368"><ele>1593.0</ele><time>2026-04-24T15:23:15.882Z</time></trkpt><trkpt lat="45.85181505804584" lon="11.148237031852931"><ele>1591.6666666666667</ele><time>2026-04-24T15:23:16.882Z</time></trkpt><trkpt lat="45.851755562380795" lon="11.148309133408038"><ele>1590.3333333333335</ele><time>2026-04-24T15:23:17.882Z</time></trkpt><trkpt lat="45.85169654515691" lon="11.148382642322044"><ele>1589.0</ele><time>2026-04-24T15:23:18.882Z</time></trkpt><trkpt lat="45.85164323586361" lon="11.14846570365217"><ele>1587.6666666666667</ele><time>2026-04-24T15:23:19.882Z</time></trkpt><trkpt lat="45.85158133875539" lon="11.148557345960276"><ele>1586.3333333333335</ele><time>2026-04-24T15:23:20.882Z</time></trkpt><trkpt lat="45.851489543239985" lon="11.148676517606301"><ele>1585.0</ele><time>2026-04-24T15:23:21.882Z</time></trkpt><trkpt lat="45.851439830677606" lon="11.14878770236151"><ele>1585.0</ele><time>2026-04-24T15:23:22.882Z</time></trkpt><trkpt lat="45.85141492782775" lon="11.148908056107745"><ele>1585.0</ele><time>2026-04-24T15:23:23.882Z</time></trkpt><trkpt lat="45.85143195163936" lon="11.149028844553499"><ele>1585.0</ele><time>2026-04-24T15:23:24.882Z</time></trkpt><trkpt lat="45.851390866158134" lon="11.149169169693227"><ele>1585.0</ele><time>2026-04-24T15:23:25.881Z</time></trkpt><trkpt lat="45.851375940508156" lon="11.149322481408726"><ele>1585.0</ele><time>2026-04-24T15:23:26.881Z</time></trkpt><trkpt lat="45.85137628654352" lon="11.149433509893582"><ele>1585.0000000000002</ele><time>2026-04-24T15:23:27.881Z</time></trkpt><trkpt lat="45.85133930354754" lon="11.149532143688056"><ele>1585.0</ele><time>2026-04-24T15:23:28.881Z</time></trkpt><trkpt lat="45.851328144594966" lon="11.149653322210225"><ele>1585.0</ele><time>2026-04-24T15:23:30.883Z</time></trkpt><trkpt lat="45.851356072452305" lon="11.149761907973629"><ele>1585.0</ele><time>2026-04-24T15:23:32.882Z</time></trkpt><trkpt lat="45.85134545249023" lon="11.14991481765456"><ele>1585.0000000000002</ele><time>2026-04-24T15:23:34.882Z</time></trkpt><trkpt lat="45.85133563027096" lon="11.150033585530721"><ele>1585.0</ele><time>2026-04-24T15:23:35.882Z</time></trkpt><trkpt lat="45.85130796373858" lon="11.15015786189279"><ele>1585.0000000000002</ele><time>2026-04-24T15:23:36.882Z</time></trkpt><trkpt lat="45.85126668612299" lon="11.150267940167938"><ele>1585.0</ele><time>2026-04-24T15:23:37.882Z</time></trkpt><trkpt lat="45.851224506642716" lon="11.150362633188985"><ele>1585.0</ele><time>2026-04-24T15:23:38.882Z</time></trkpt><trkpt lat="45.851141675967654" lon="11.150420549794367"><ele>1585.0</ele><time>2026-04-24T15:23:40.882Z</time></trkpt><trkpt lat="45.851103278007535" lon="11.150517040404141"><ele>1585.0000000000002</ele><time>2026-04-24T15:23:43.882Z</time></trkpt><trkpt lat="45.85112600662695" lon="11.150628248887832"><ele>1585.0</ele><time>2026-04-24T15:23:47.882Z</time></trkpt><trkpt lat="45.851157931338584" lon="11.150771323389698"><ele>1585.2</ele><time>2026-04-24T15:23:49.882Z</time></trkpt><trkpt lat="45.851179212407416" lon="11.150869453026699"><ele>1585.4</ele><time>2026-04-24T15:23:50.882Z</time></trkpt><trkpt lat="45.851193878854886" lon="11.151003886746395"><ele>1585.6</ele><time>2026-04-24T15:23:51.882Z</time></trkpt><trkpt lat="45.85121827095694" lon="11.15116656276726"><ele>1585.8</ele><time>2026-04-24T15:23:52.882Z</time></trkpt><trkpt lat="45.85125539893396" lon="11.151335157065288"><ele>1586.0</ele><time>2026-04-24T15:23:53.882Z</time></trkpt><trkpt lat="45.851276851414184" lon="11.151517025913076"><ele>1586.75</ele><time>2026-04-24T15:23:54.882Z</time></trkpt><trkpt lat="45.85127672291087" lon="11.1516766761575"><ele>1587.5</ele><time>2026-04-24T15:23:55.882Z</time></trkpt><trkpt lat="45.851279459128875" lon="11.151852686768066"><ele>1588.25</ele><time>2026-04-24T15:23:56.882Z</time></trkpt><trkpt lat="45.85130724843176" lon="11.152038608303323"><ele>1589.0</ele><time>2026-04-24T15:23:57.882Z</time></trkpt><trkpt lat="45.851317880606146" lon="11.152205228141057"><ele>1590.0</ele><time>2026-04-24T15:23:58.882Z</time></trkpt><trkpt lat="45.85132822043612" lon="11.152390844034402"><ele>1591.0</ele><time>2026-04-24T15:23:59.882Z</time></trkpt><trkpt lat="45.85134763797013" lon="11.152557467187131"><ele>1592.0</ele><time>2026-04-24T15:24:00.882Z</time></trkpt><trkpt lat="45.85135997044466" lon="11.152678786039345"><ele>1593.0</ele><time>2026-04-24T15:24:01.882Z</time></trkpt><trkpt lat="45.85136924055919" lon="11.152800887005204"><ele>1594.0</ele><time>2026-04-24T15:24:04.882Z</time></trkpt><trkpt lat="45.85135508577236" lon="11.152890594125337"><ele>1594.0000000000002</ele><time>2026-04-24T15:24:08.882Z</time></trkpt><trkpt lat="45.85136202797362" lon="11.152992440568172"><ele>1594.0</ele><time>2026-04-24T15:24:11.882Z</time></trkpt><trkpt lat="45.85133922326891" lon="11.153176682449638"><ele>1594.0</ele><time>2026-04-24T15:24:13.882Z</time></trkpt><trkpt lat="45.85132553190597" lon="11.15329210129711"><ele>1594.0</ele><time>2026-04-24T15:24:14.881Z</time></trkpt><trkpt lat="45.851306632397" lon="11.153412348814761"><ele>1594.0000000000002</ele><time>2026-04-24T15:24:15.881Z</time></trkpt><trkpt lat="45.851278417561566" lon="11.153518172304578"><ele>1594.0</ele><time>2026-04-24T15:24:16.881Z</time></trkpt><trkpt lat="45.85126124824597" lon="11.153618859238929"><ele>1593.5000000000002</ele><time>2026-04-24T15:24:17.881Z</time></trkpt><trkpt lat="45.851252302986396" lon="11.153783464601768"><ele>1593.0</ele><time>2026-04-24T15:24:19.881Z</time></trkpt><trkpt lat="45.8512373501324" lon="11.153895331523671"><ele>1592.5</ele><time>2026-04-24T15:24:20.881Z</time></trkpt><trkpt lat="45.851226824019626" lon="11.153995935501007"><ele>1592.0</ele><time>2026-04-24T15:24:21.881Z</time></trkpt><trkpt lat="45.85118841595674" lon="11.15409986861856"><ele>1591.5000000000002</ele><time>2026-04-24T15:24:23.881Z</time></trkpt><trkpt lat="45.85118414043831" lon="11.154199374743637"><ele>1591.0</ele><time>2026-04-24T15:24:28.881Z</time></trkpt><trkpt lat="45.851126169575394" lon="11.154247422081884"><ele>1589.7142857142858</ele><time>2026-04-24T15:26:09.877Z</time></trkpt><trkpt lat="45.851202149903884" lon="11.154292630270367"><ele>1588.4285714285713</ele><time>2026-04-24T15:26:36.876Z</time></trkpt><trkpt lat="45.851169140027416" lon="11.154205420292659"><ele>1587.142857142857</ele><time>2026-04-24T15:27:04.875Z</time></trkpt><trkpt lat="45.85111702043617" lon="11.154112819578843"><ele>1585.857142857143</ele><time>2026-04-24T15:32:13.871Z</time></trkpt><trkpt lat="45.85118968405956" lon="11.154136172288071"><ele>1584.5714285714284</ele><time>2026-04-24T15:33:12.87Z</time></trkpt><trkpt lat="45.85125917987754" lon="11.154150969824576"><ele>1583.2857142857142</ele><time>2026-04-24T15:34:47.868Z</time></trkpt><trkpt lat="45.85118993548625" lon="11.154159567315771"><ele>1582.0</ele><time>2026-04-24T15:35:11.868Z</time></trkpt><trkpt lat="45.85116996446396" lon="11.15424711907709"><ele>1582.0000000000002</ele><time>2026-04-24T15:35:20.867Z</time></trkpt><trkpt lat="45.851121550859446" lon="11.154132904601132"><ele>1582.0</ele><time>2026-04-24T15:36:01.866Z</time></trkpt><trkpt lat="45.851174542262264" lon="11.154222944239537"><ele>1582.0</ele><time>2026-04-24T15:37:00.865Z</time></trkpt><trkpt lat="45.8511397812971" lon="11.154306851927695"><ele>1582.0</ele><time>2026-04-24T15:37:25.864Z</time></trkpt><trkpt lat="45.85112391311864" lon="11.15441946615039"><ele>1582.0000000000002</ele><time>2026-04-24T15:37:30.864Z</time></trkpt><trkpt lat="45.85110684277041" lon="11.154506798733346"><ele>1582.0</ele><time>2026-04-24T15:37:34.864Z</time></trkpt><trkpt lat="45.85109569761058" lon="11.154614957941373"><ele>1582.0</ele><time>2026-04-24T15:37:37.864Z</time></trkpt><trkpt lat="45.85109403035242" lon="11.154736374884706"><ele>1582.0</ele><time>2026-04-24T15:37:39.864Z</time></trkpt><trkpt lat="45.85110661130118" lon="11.154833198147886"><ele>1582.0</ele><time>2026-04-24T15:37:42.864Z</time></trkpt><trkpt lat="45.8511087336096" lon="11.154934367182134"><ele>1582.0</ele><time>2026-04-24T15:37:44.864Z</time></trkpt><trkpt lat="45.85112692856362" lon="11.155022309761494"><ele>1582.0</ele><time>2026-04-24T15:37:51.864Z</time></trkpt><trkpt lat="45.85113284182085" lon="11.15512081624047"><ele>1582.0</ele><time>2026-04-24T15:37:54.864Z</time></trkpt><trkpt lat="45.85115784792401" lon="11.155228252743944"><ele>1582.0</ele><time>2026-04-24T15:37:56.864Z</time></trkpt><trkpt lat="45.85118915108321" lon="11.155357799390428"><ele>1581.8333333333335</ele><time>2026-04-24T15:38:00.864Z</time></trkpt><trkpt lat="45.85122657223026" lon="11.155454692720664"><ele>1581.6666666666667</ele><time>2026-04-24T15:38:02.863Z</time></trkpt><trkpt lat="45.85124887917054" lon="11.155554009941232"><ele>1581.5</ele><time>2026-04-24T15:38:04.863Z</time></trkpt><trkpt lat="45.85128527996324" lon="11.155653771424266"><ele>1581.3333333333335</ele><time>2026-04-24T15:38:07.863Z</time></trkpt><trkpt lat="45.85132193026522" lon="11.155797871840873"><ele>1581.1666666666667</ele><time>2026-04-24T15:38:49.864Z</time></trkpt><trkpt lat="45.85133485485327" lon="11.155925965486835"><ele>1581.0</ele><time>2026-04-24T15:38:51.864Z</time></trkpt><trkpt lat="45.8513481580919" lon="11.156033554765031"><ele>1582.8333333333333</ele><time>2026-04-24T15:38:52.864Z</time></trkpt><trkpt lat="45.85133957109965" lon="11.156130376472545"><ele>1584.6666666666665</ele><time>2026-04-24T15:38:53.864Z</time></trkpt><trkpt lat="45.851344708344065" lon="11.156266126939437"><ele>1586.5</ele><time>2026-04-24T15:38:55.864Z</time></trkpt><trkpt lat="45.85135436226961" lon="11.15637174625037"><ele>1588.3333333333333</ele><time>2026-04-24T15:39:00.864Z</time></trkpt><trkpt lat="45.85133780657453" lon="11.15647750153292"><ele>1590.1666666666665</ele><time>2026-04-24T15:39:03.864Z</time></trkpt><trkpt lat="45.85130911114021" lon="11.156595075299364"><ele>1592.0</ele><time>2026-04-24T15:39:07.864Z</time></trkpt><trkpt lat="45.85126622494635" lon="11.156770187961492"><ele>1593.6666666666665</ele><time>2026-04-24T15:39:09.864Z</time></trkpt><trkpt lat="45.85122964950981" lon="11.156887894206205"><ele>1595.3333333333333</ele><time>2026-04-24T15:39:10.864Z</time></trkpt><trkpt lat="45.8511994645402" lon="11.157020018046913"><ele>1597.0</ele><time>2026-04-24T15:39:11.864Z</time></trkpt><trkpt lat="45.85117389011481" lon="11.157137977950022"><ele>1598.6666666666665</ele><time>2026-04-24T15:39:12.864Z</time></trkpt><trkpt lat="45.851153019694785" lon="11.157260561018777"><ele>1600.3333333333333</ele><time>2026-04-24T15:39:13.864Z</time></trkpt><trkpt lat="45.851136711112105" lon="11.15737618156847"><ele>1602.0</ele><time>2026-04-24T15:39:14.864Z</time></trkpt><trkpt lat="45.851115109385255" lon="11.157483214213304"><ele>1602.0</ele><time>2026-04-24T15:39:15.864Z</time></trkpt><trkpt lat="45.85109660396652" lon="11.157601936850526"><ele>1602.0</ele><time>2026-04-24T15:39:16.864Z</time></trkpt><trkpt lat="45.85105590810793" lon="11.15775210841652"><ele>1602.0</ele><time>2026-04-24T15:39:18.864Z</time></trkpt><trkpt lat="45.85099428542439" lon="11.157909289567122"><ele>1602.0</ele><time>2026-04-24T15:39:20.863Z</time></trkpt><trkpt lat="45.8509798123071" lon="11.158077194814595"><ele>1602.0</ele><time>2026-04-24T15:39:22.863Z</time></trkpt><trkpt lat="45.85100655355243" lon="11.158174990959521"><ele>1599.5</ele><time>2026-04-24T15:39:23.863Z</time></trkpt><trkpt lat="45.851034116849874" lon="11.158351071263045"><ele>1597.0</ele><time>2026-04-24T15:39:25.863Z</time></trkpt><trkpt lat="45.85098179994549" lon="11.158483038218959"><ele>1594.5</ele><time>2026-04-24T15:39:27.863Z</time></trkpt><trkpt lat="45.85087566614175" lon="11.158546653303121"><ele>1592.0</ele><time>2026-04-24T15:39:29.863Z</time></trkpt><trkpt lat="45.85078912397944" lon="11.158674924976541"><ele>1597.0</ele><time>2026-04-24T15:39:31.863Z</time></trkpt><trkpt lat="45.85076106772179" lon="11.158775015334555"><ele>1602.0</ele><time>2026-04-24T15:39:32.863Z</time></trkpt><trkpt lat="45.85066090069649" lon="11.158897637349163"><ele>1607.0</ele><time>2026-04-24T15:39:34.863Z</time></trkpt><trkpt lat="45.85057542416109" lon="11.158915619659535"><ele>1612.0</ele><time>2026-04-24T15:39:35.863Z</time></trkpt><trkpt lat="45.85047988640394" lon="11.158918367979876"><ele>1617.0</ele><time>2026-04-24T15:39:36.863Z</time></trkpt><trkpt lat="45.85037976397945" lon="11.15895398288327"><ele>1617.0</ele><time>2026-04-24T15:39:37.863Z</time></trkpt><trkpt lat="45.85027331460497" lon="11.159017954486416"><ele>1617.0</ele><time>2026-04-24T15:39:38.863Z</time></trkpt><trkpt lat="45.850183319519566" lon="11.159108750699403"><ele>1617.0</ele><time>2026-04-24T15:39:39.863Z</time></trkpt><trkpt lat="45.850113781188455" lon="11.159211886446563"><ele>1617.0</ele><time>2026-04-24T15:39:40.863Z</time></trkpt><trkpt lat="45.850060943120276" lon="11.159281727219263"><ele>1617.0</ele><time>2026-04-24T15:39:41.863Z</time></trkpt><trkpt lat="45.849995118968465" lon="11.15931860534514"><ele>1617.3999999999999</ele><time>2026-04-24T15:39:42.863Z</time></trkpt><trkpt lat="45.849895672316045" lon="11.159367161088722"><ele>1617.8</ele><time>2026-04-24T15:39:43.863Z</time></trkpt><trkpt lat="45.849797783913885" lon="11.15943250993573"><ele>1618.2</ele><time>2026-04-24T15:39:44.863Z</time></trkpt><trkpt lat="45.84970570475852" lon="11.159467117710161"><ele>1618.6</ele><time>2026-04-24T15:39:45.863Z</time></trkpt><trkpt lat="45.84959878146385" lon="11.159470636061924"><ele>1619.0</ele><time>2026-04-24T15:39:46.863Z</time></trkpt><trkpt lat="45.84950055057767" lon="11.159474843163554"><ele>1618.9999999999998</ele><time>2026-04-24T15:39:47.863Z</time></trkpt><trkpt lat="45.84940912854462" lon="11.1594450337063"><ele>1619.0</ele><time>2026-04-24T15:39:48.863Z</time></trkpt><trkpt lat="45.84933403840314" lon="11.15939671114141"><ele>1619.0</ele><time>2026-04-24T15:39:49.863Z</time></trkpt><trkpt lat="45.84924731283369" lon="11.159336964333583"><ele>1619.0</ele><time>2026-04-24T15:39:50.863Z</time></trkpt><trkpt lat="45.84917705309911" lon="11.159254203739904"><ele>1618.9999999999998</ele><time>2026-04-24T15:39:51.863Z</time></trkpt><trkpt lat="45.849106087313174" lon="11.159185568017469"><ele>1619.0</ele><time>2026-04-24T15:39:52.863Z</time></trkpt><trkpt lat="45.84899891461296" lon="11.15913068988849"><ele>1619.4</ele><time>2026-04-24T15:39:54.863Z</time></trkpt><trkpt lat="45.84897692185873" lon="11.159261393030162"><ele>1619.8000000000002</ele><time>2026-04-24T15:39:56.862Z</time></trkpt><trkpt lat="45.84905762130695" lon="11.159371754683715"><ele>1620.1999999999998</ele><time>2026-04-24T15:39:58.862Z</time></trkpt><trkpt lat="45.84917317359086" lon="11.159486385403516"><ele>1620.6</ele><time>2026-04-24T15:40:00.862Z</time></trkpt><trkpt lat="45.849229326860815" lon="11.159559105987622"><ele>1621.0</ele><time>2026-04-24T15:40:01.862Z</time></trkpt><trkpt lat="45.849267579449894" lon="11.15963552650872"><ele>1621.0</ele><time>2026-04-24T15:40:02.862Z</time></trkpt><trkpt lat="45.8492849261218" lon="11.159747557750372"><ele>1621.0</ele><time>2026-04-24T15:40:03.862Z</time></trkpt><trkpt lat="45.84927038406338" lon="11.15984728268744"><ele>1621.0</ele><time>2026-04-24T15:40:04.862Z</time></trkpt><trkpt lat="45.849205673591776" lon="11.159923831463223"><ele>1621.0</ele><time>2026-04-24T15:40:06.862Z</time></trkpt><trkpt lat="45.84907298316712" lon="11.159851264184447"><ele>1621.0</ele><time>2026-04-24T15:40:08.862Z</time></trkpt><trkpt lat="45.84897513973957" lon="11.159796921850397"><ele>1621.0000000000002</ele><time>2026-04-24T15:40:09.862Z</time></trkpt><trkpt lat="45.84888966093725" lon="11.159709791433965"><ele>1621.0</ele><time>2026-04-24T15:40:10.862Z</time></trkpt><trkpt lat="45.84881841560954" lon="11.159620061689019"><ele>1621.0</ele><time>2026-04-24T15:40:11.862Z</time></trkpt><trkpt lat="45.84875503765597" lon="11.159550992342655"><ele>1621.0</ele><time>2026-04-24T15:40:12.862Z</time></trkpt><trkpt lat="45.84868472515096" lon="11.15952488547318"><ele>1621.0000000000002</ele><time>2026-04-24T15:40:13.862Z</time></trkpt><trkpt lat="45.8486006132778" lon="11.159566370625976"><ele>1621.0</ele><time>2026-04-24T15:40:14.862Z</time></trkpt><trkpt lat="45.84850209796126" lon="11.159670792562746"><ele>1621.5</ele><time>2026-04-24T15:40:15.862Z</time></trkpt><trkpt lat="45.848389472891" lon="11.159771375821451"><ele>1622.0</ele><time>2026-04-24T15:40:16.862Z</time></trkpt><trkpt lat="45.84828102667239" lon="11.15988524561698"><ele>1622.5</ele><time>2026-04-24T15:40:17.863Z</time></trkpt><trkpt lat="45.848189890814794" lon="11.160046532265554"><ele>1623.0</ele><time>2026-04-24T15:40:18.863Z</time></trkpt><trkpt lat="45.84811093670984" lon="11.160213784470026"><ele>1617.25</ele><time>2026-04-24T15:40:19.863Z</time></trkpt><trkpt lat="45.848032401468316" lon="11.160366048690154"><ele>1611.5</ele><time>2026-04-24T15:40:20.863Z</time></trkpt><trkpt lat="45.84795508652962" lon="11.160490771254873"><ele>1605.75</ele><time>2026-04-24T15:40:21.863Z</time></trkpt><trkpt lat="45.84785901823165" lon="11.160628130310918"><ele>1600.0</ele><time>2026-04-24T15:40:22.863Z</time></trkpt><trkpt lat="45.84775189379574" lon="11.160745799779678"><ele>1599.5</ele><time>2026-04-24T15:40:23.863Z</time></trkpt><trkpt lat="45.8476585437364" lon="11.160877244863453"><ele>1599.0</ele><time>2026-04-24T15:40:24.863Z</time></trkpt><trkpt lat="45.84758725021245" lon="11.161009972795288"><ele>1598.5</ele><time>2026-04-24T15:40:25.863Z</time></trkpt><trkpt lat="45.84753176719475" lon="11.161142871552878"><ele>1598.0</ele><time>2026-04-24T15:40:26.863Z</time></trkpt><trkpt lat="45.84746075320801" lon="11.16129852643788"><ele>1598.0</ele><time>2026-04-24T15:40:27.863Z</time></trkpt><trkpt lat="45.84738622869391" lon="11.161463265912904"><ele>1598.0</ele><time>2026-04-24T15:40:28.863Z</time></trkpt><trkpt lat="45.84731631941685" lon="11.161651207107992"><ele>1598.0</ele><time>2026-04-24T15:40:29.863Z</time></trkpt><trkpt lat="45.847270872738065" lon="11.161813235562441"><ele>1598.0</ele><time>2026-04-24T15:40:30.863Z</time></trkpt><trkpt lat="45.847255106428904" lon="11.161951350904882"><ele>1593.9999999999998</ele><time>2026-04-24T15:40:31.863Z</time></trkpt><trkpt lat="45.84724340727337" lon="11.162074034842163"><ele>1590.0</ele><time>2026-04-24T15:40:32.863Z</time></trkpt><trkpt lat="45.847235214899605" lon="11.162195611528754"><ele>1586.0</ele><time>2026-04-24T15:40:33.863Z</time></trkpt><trkpt lat="45.84723662866736" lon="11.162304816986763"><ele>1582.0</ele><time>2026-04-24T15:40:34.863Z</time></trkpt><trkpt lat="45.847276169756306" lon="11.162434635331074"><ele>1577.9999999999998</ele><time>2026-04-24T15:40:35.862Z</time></trkpt><trkpt lat="45.84731158712154" lon="11.162556600221542"><ele>1574.0</ele><time>2026-04-24T15:40:36.862Z</time></trkpt><trkpt lat="45.84730132336095" lon="11.162679708255652"><ele>1571.6</ele><time>2026-04-24T15:40:37.862Z</time></trkpt><trkpt lat="45.84729150502205" lon="11.16281460420416"><ele>1569.2</ele><time>2026-04-24T15:40:39.862Z</time></trkpt><trkpt lat="45.8472838737621" lon="11.162938524765151"><ele>1566.8</ele><time>2026-04-24T15:40:41.862Z</time></trkpt><trkpt lat="45.84726205804506" lon="11.163112177285397"><ele>1564.3999999999999</ele><time>2026-04-24T15:40:44.862Z</time></trkpt><trkpt lat="45.8472517568829" lon="11.1632522149167"><ele>1562.0</ele><time>2026-04-24T15:40:45.862Z</time></trkpt><trkpt lat="45.84727652846887" lon="11.163395751174937"><ele>1561.5</ele><time>2026-04-24T15:40:46.862Z</time></trkpt><trkpt lat="45.847300863035976" lon="11.163545267447727"><ele>1561.0</ele><time>2026-04-24T15:40:47.862Z</time></trkpt><trkpt lat="45.84734758810273" lon="11.163670269162505"><ele>1560.5</ele><time>2026-04-24T15:40:48.862Z</time></trkpt><trkpt lat="45.84741808687695" lon="11.16382748978923"><ele>1560.0</ele><time>2026-04-24T15:40:49.862Z</time></trkpt><trkpt lat="45.847480267856454" lon="11.163987282818935"><ele>1563.5</ele><time>2026-04-24T15:40:50.862Z</time></trkpt><trkpt lat="45.84753196708145" lon="11.164145753126892"><ele>1567.0</ele><time>2026-04-24T15:40:51.862Z</time></trkpt><trkpt lat="45.84759674384918" lon="11.164305249806887"><ele>1570.5</ele><time>2026-04-24T15:40:52.862Z</time></trkpt><trkpt lat="45.847676265234256" lon="11.16445196318321"><ele>1574.0</ele><time>2026-04-24T15:40:53.862Z</time></trkpt><trkpt lat="45.84775566226266" lon="11.164613508635998"><ele>1565.5</ele><time>2026-04-24T15:40:54.862Z</time></trkpt><trkpt lat="45.84781552338862" lon="11.164787564533087"><ele>1557.0</ele><time>2026-04-24T15:40:55.862Z</time></trkpt><trkpt lat="45.847867312641895" lon="11.164993082869648"><ele>1548.5</ele><time>2026-04-24T15:40:56.865Z</time></trkpt><trkpt lat="45.84790429497648" lon="11.16518791075741"><ele>1540.0</ele><time>2026-04-24T15:40:57.867Z</time></trkpt><trkpt lat="45.84795719071666" lon="11.165348538372337"><ele>1540.0</ele><time>2026-04-24T15:40:58.869Z</time></trkpt><trkpt lat="45.84802261522876" lon="11.165512488128492"><ele>1540.0</ele><time>2026-04-24T15:40:59.87Z</time></trkpt><trkpt lat="45.84811424605376" lon="11.165661886699455"><ele>1540.0</ele><time>2026-04-24T15:41:00.872Z</time></trkpt><trkpt lat="45.84817298086177" lon="11.16576487730559"><ele>1540.0</ele><time>2026-04-24T15:41:01.874Z</time></trkpt><trkpt lat="45.848176016495174" lon="11.165929853111738"><ele>1541.0</ele><time>2026-04-24T15:41:03.876Z</time></trkpt><trkpt lat="45.848121065785215" lon="11.166030573772977"><ele>1542.0</ele><time>2026-04-24T15:41:04.878Z</time></trkpt><trkpt lat="45.84806017590667" lon="11.166175843867544"><ele>1543.0</ele><time>2026-04-24T15:41:05.879Z</time></trkpt><trkpt lat="45.84798569924579" lon="11.166299506023769"><ele>1544.0</ele><time>2026-04-24T15:41:06.88Z</time></trkpt><trkpt lat="45.847907375562926" lon="11.16637483095814"><ele>1545.0</ele><time>2026-04-24T15:41:07.881Z</time></trkpt><trkpt lat="45.8478321435093" lon="11.166446842879335"><ele>1545.0</ele><time>2026-04-24T15:41:09.883Z</time></trkpt><trkpt lat="45.847925377389615" lon="11.166480616793008"><ele>1545.0</ele><time>2026-04-24T15:41:12.885Z</time></trkpt><trkpt lat="45.84800666874421" lon="11.166412387230741"><ele>1545.0</ele><time>2026-04-24T15:41:13.886Z</time></trkpt><trkpt lat="45.8480997718272" lon="11.166327029629075"><ele>1545.0</ele><time>2026-04-24T15:41:14.887Z</time></trkpt><trkpt lat="45.84818761638593" lon="11.166221918394445"><ele>1545.0</ele><time>2026-04-24T15:41:15.887Z</time></trkpt><trkpt lat="45.84827770181544" lon="11.166120667653988"><ele>1545.0</ele><time>2026-04-24T15:41:16.888Z</time></trkpt><trkpt lat="45.84835279046575" lon="11.166010481888806"><ele>1545.0</ele><time>2026-04-24T15:41:17.889Z</time></trkpt><trkpt lat="45.848434919911234" lon="11.165875827241992"><ele>1545.0</ele><time>2026-04-24T15:41:18.889Z</time></trkpt><trkpt lat="45.84851775065112" lon="11.165714734071692"><ele>1545.0</ele><time>2026-04-24T15:41:19.89Z</time></trkpt><trkpt lat="45.84857852626937" lon="11.165590591929632"><ele>1537.6666666666667</ele><time>2026-04-24T15:41:20.89Z</time></trkpt><trkpt lat="45.848624581454764" lon="11.165502503625808"><ele>1530.3333333333333</ele><time>2026-04-24T15:41:21.89Z</time></trkpt><trkpt lat="45.848654711430946" lon="11.16538046250989"><ele>1523.0</ele><time>2026-04-24T15:41:22.891Z</time></trkpt><trkpt lat="45.84865792950265" lon="11.165269129952543"><ele>1515.6666666666665</ele><time>2026-04-24T15:41:23.891Z</time></trkpt><trkpt lat="45.84862645280664" lon="11.16518151675411"><ele>1508.3333333333333</ele><time>2026-04-24T15:41:24.892Z</time></trkpt><trkpt lat="45.848563494061516" lon="11.165067609694216"><ele>1501.0</ele><time>2026-04-24T15:41:25.892Z</time></trkpt><trkpt lat="45.84849049446141" lon="11.164936817434045"><ele>1506.75</ele><time>2026-04-24T15:41:26.892Z</time></trkpt><trkpt lat="45.848396981025715" lon="11.164793616994869"><ele>1512.5</ele><time>2026-04-24T15:41:27.892Z</time></trkpt><trkpt lat="45.84831133409205" lon="11.164672966169917"><ele>1518.25</ele><time>2026-04-24T15:41:28.893Z</time></trkpt><trkpt lat="45.84823725713873" lon="11.164545498110668"><ele>1524.0</ele><time>2026-04-24T15:41:29.893Z</time></trkpt><trkpt lat="45.848180624868455" lon="11.164422376025806"><ele>1524.0</ele><time>2026-04-24T15:41:30.893Z</time></trkpt><trkpt lat="45.84813183882149" lon="11.164278458618956"><ele>1524.0</ele><time>2026-04-24T15:41:31.893Z</time></trkpt><trkpt lat="45.848090426995306" lon="11.16408707016236"><ele>1524.0</ele><time>2026-04-24T15:41:32.894Z</time></trkpt><trkpt lat="45.84805671287721" lon="11.163919330107227"><ele>1524.0</ele><time>2026-04-24T15:41:33.894Z</time></trkpt><trkpt lat="45.848033645471396" lon="11.163770295197308"><ele>1524.0</ele><time>2026-04-24T15:41:34.894Z</time></trkpt><trkpt lat="45.847997037963246" lon="11.163618564064251"><ele>1524.0</ele><time>2026-04-24T15:41:35.894Z</time></trkpt><trkpt lat="45.84795885991533" lon="11.163458093273599"><ele>1524.0</ele><time>2026-04-24T15:41:36.894Z</time></trkpt><trkpt lat="45.84792909719898" lon="11.163317258103175"><ele>1524.0</ele><time>2026-04-24T15:41:37.894Z</time></trkpt><trkpt lat="45.84797201309922" lon="11.16319938773125"><ele>1524.0</ele><time>2026-04-24T15:41:39.895Z</time></trkpt><trkpt lat="45.84802408282663" lon="11.16305962177476"><ele>1524.0</ele><time>2026-04-24T15:41:43.895Z</time></trkpt><trkpt lat="45.848057926834436" lon="11.162972493058572"><ele>1524.0</ele><time>2026-04-24T15:41:44.895Z</time></trkpt><trkpt lat="45.84814032188746" lon="11.162868411251093"><ele>1524.0</ele><time>2026-04-24T15:41:46.895Z</time></trkpt><trkpt lat="45.84820490111272" lon="11.16280932600869"><ele>1524.0</ele><time>2026-04-24T15:41:47.895Z</time></trkpt><trkpt lat="45.84824536119503" lon="11.162721532808106"><ele>1524.0</ele><time>2026-04-24T15:41:52.895Z</time></trkpt><trkpt lat="45.84829414419775" lon="11.162643165460603"><ele>1524.0</ele><time>2026-04-24T15:44:01.896Z</time></trkpt><trkpt lat="45.848295436987364" lon="11.162540460529634"><ele>1524.0</ele><time>2026-04-24T15:44:07.896Z</time></trkpt><trkpt lat="45.84833083655714" lon="11.162388653077665"><ele>1524.0</ele><time>2026-04-24T15:44:10.896Z</time></trkpt><trkpt lat="45.84840923885251" lon="11.162336120908488"><ele>1524.0</ele><time>2026-04-24T15:44:13.896Z</time></trkpt><trkpt lat="45.84843566375233" lon="11.162454647226964"><ele>1524.0</ele><time>2026-04-24T15:44:15.896Z</time></trkpt><trkpt lat="45.84841241877541" lon="11.162539894707308"><ele>1524.0</ele><time>2026-04-24T15:44:16.896Z</time></trkpt><trkpt lat="45.84839427605289" lon="11.162635849905593"><ele>1524.0</ele><time>2026-04-24T15:44:17.896Z</time></trkpt><trkpt lat="45.848351162413884" lon="11.162754921076537"><ele>1524.0</ele><time>2026-04-24T15:44:19.896Z</time></trkpt><trkpt lat="45.8483176860665" lon="11.162832665345714"><ele>1524.0</ele><time>2026-04-24T15:44:21.896Z</time></trkpt><trkpt lat="45.84827768974418" lon="11.162903055773034"><ele>1524.0</ele><time>2026-04-24T15:44:24.896Z</time></trkpt><trkpt lat="45.84821822842328" lon="11.163007284551345"><ele>1524.0</ele><time>2026-04-24T15:44:37.896Z</time></trkpt><trkpt lat="45.84817716898945" lon="11.1630788354601"><ele>1524.0</ele><time>2026-04-24T15:44:43.895Z</time></trkpt><trkpt lat="45.84815784574611" lon="11.163169927107077"><ele>1524.0</ele><time>2026-04-24T15:44:46.896Z</time></trkpt><trkpt lat="45.84815710189327" lon="11.163283364775943"><ele>1524.0</ele><time>2026-04-24T15:44:48.896Z</time></trkpt><trkpt lat="45.8481669544889" lon="11.163391586239456"><ele>1522.0</ele><time>2026-04-24T15:44:50.896Z</time></trkpt><trkpt lat="45.84820642869217" lon="11.163499298938703"><ele>1520.0</ele><time>2026-04-24T15:44:52.896Z</time></trkpt><trkpt lat="45.8482606033175" lon="11.163592046529311"><ele>1518.0</ele><time>2026-04-24T15:44:55.896Z</time></trkpt><trkpt lat="45.848297025227545" lon="11.163679622046958"><ele>1516.0</ele><time>2026-04-24T15:44:57.896Z</time></trkpt><trkpt lat="45.84834923774597" lon="11.163781088308081"><ele>1514.0</ele><time>2026-04-24T15:45:00.896Z</time></trkpt><trkpt lat="45.84841641697667" lon="11.163873794728445"><ele>1512.0</ele><time>2026-04-24T15:45:02.896Z</time></trkpt><trkpt lat="45.848469006100395" lon="11.16392697544075"><ele>1508.6666666666667</ele><time>2026-04-24T15:45:03.896Z</time></trkpt><trkpt lat="45.848533130149654" lon="11.163981892987392"><ele>1505.3333333333333</ele><time>2026-04-24T15:45:04.896Z</time></trkpt><trkpt lat="45.84859067990502" lon="11.164025178755514"><ele>1502.0</ele><time>2026-04-24T15:45:05.895Z</time></trkpt><trkpt lat="45.84864614117196" lon="11.164104194679533"><ele>1498.6666666666665</ele><time>2026-04-24T15:45:06.895Z</time></trkpt><trkpt lat="45.84871779837918" lon="11.164220514291761"><ele>1495.3333333333333</ele><time>2026-04-24T15:45:07.895Z</time></trkpt><trkpt lat="45.848778123508794" lon="11.164323785017455"><ele>1492.0</ele><time>2026-04-24T15:45:08.895Z</time></trkpt><trkpt lat="45.84883625818507" lon="11.164400840422783"><ele>1492.0</ele><time>2026-04-24T15:45:09.895Z</time></trkpt><trkpt lat="45.84889963179523" lon="11.164483729668387"><ele>1492.0</ele><time>2026-04-24T15:45:10.895Z</time></trkpt><trkpt lat="45.84898707623686" lon="11.164570481121872"><ele>1492.0</ele><time>2026-04-24T15:45:12.895Z</time></trkpt><trkpt lat="45.849052381585935" lon="11.164624968396565"><ele>1492.0</ele><time>2026-04-24T15:45:13.895Z</time></trkpt><trkpt lat="45.84912000796067" lon="11.164699894025308"><ele>1492.0</ele><time>2026-04-24T15:45:14.895Z</time></trkpt><trkpt lat="45.849191851788504" lon="11.1647882016292"><ele>1492.0</ele><time>2026-04-24T15:45:15.895Z</time></trkpt><trkpt lat="45.84926338981774" lon="11.164867087808597"><ele>1486.3333333333333</ele><time>2026-04-24T15:45:16.895Z</time></trkpt><trkpt lat="45.84931581794095" lon="11.164930463915432"><ele>1480.6666666666665</ele><time>2026-04-24T15:45:17.895Z</time></trkpt><trkpt lat="45.849333960992574" lon="11.165027354454246"><ele>1475.0</ele><time>2026-04-24T15:45:18.895Z</time></trkpt><trkpt lat="45.849395875247104" lon="11.165127809512983"><ele>1469.3333333333333</ele><time>2026-04-24T15:45:20.895Z</time></trkpt><trkpt lat="45.849483983595206" lon="11.16508997005958"><ele>1463.6666666666667</ele><time>2026-04-24T15:45:22.895Z</time></trkpt><trkpt lat="45.849472412469936" lon="11.164957935025022"><ele>1458.0</ele><time>2026-04-24T15:45:24.895Z</time></trkpt><trkpt lat="45.84947104160801" lon="11.164863290935195"><ele>1459.0</ele><time>2026-04-24T15:45:25.895Z</time></trkpt><trkpt lat="45.84946105939149" lon="11.164699606609283"><ele>1460.0</ele><time>2026-04-24T15:45:26.895Z</time></trkpt><trkpt lat="45.849458224421234" lon="11.1645534753458"><ele>1461.0</ele><time>2026-04-24T15:45:27.895Z</time></trkpt><trkpt lat="45.84945473439307" lon="11.164453913045994"><ele>1462.0</ele><time>2026-04-24T15:45:28.895Z</time></trkpt><trkpt lat="45.84943849450252" lon="11.164349094179826"><ele>1463.0</ele><time>2026-04-24T15:45:29.895Z</time></trkpt><trkpt lat="45.849449551246" lon="11.164229342818444"><ele>1464.0</ele><time>2026-04-24T15:45:30.895Z</time></trkpt><trkpt lat="45.8494930353594" lon="11.164115798996113"><ele>1464.6</ele><time>2026-04-24T15:45:31.895Z</time></trkpt><trkpt lat="45.84954889733932" lon="11.164005209160079"><ele>1465.2</ele><time>2026-04-24T15:45:32.895Z</time></trkpt><trkpt lat="45.84958788153126" lon="11.163871541076587"><ele>1465.8</ele><time>2026-04-24T15:45:33.895Z</time></trkpt><trkpt lat="45.84959919946923" lon="11.163765041070453"><ele>1466.3999999999999</ele><time>2026-04-24T15:45:34.895Z</time></trkpt><trkpt lat="45.84957685607386" lon="11.16362493736967"><ele>1467.0</ele><time>2026-04-24T15:45:35.895Z</time></trkpt><trkpt lat="45.84957848137112" lon="11.163466821150426"><ele>1467.0</ele><time>2026-04-24T15:45:36.895Z</time></trkpt><trkpt lat="45.849622778210325" lon="11.16333158723318"><ele>1467.0</ele><time>2026-04-24T15:45:37.895Z</time></trkpt><trkpt lat="45.84968399919958" lon="11.163200814426247"><ele>1467.0</ele><time>2026-04-24T15:45:38.895Z</time></trkpt><trkpt lat="45.8497577412439" lon="11.16305460184353"><ele>1467.0</ele><time>2026-04-24T15:45:39.895Z</time></trkpt><trkpt lat="45.849825770076755" lon="11.16290600764875"><ele>1468.3999999999999</ele><time>2026-04-24T15:45:40.895Z</time></trkpt><trkpt lat="45.84988545150945" lon="11.16278682790885"><ele>1469.8</ele><time>2026-04-24T15:45:41.895Z</time></trkpt><trkpt lat="45.84993301006629" lon="11.16266246889633"><ele>1471.2</ele><time>2026-04-24T15:45:42.895Z</time></trkpt><trkpt lat="45.84999097674658" lon="11.162518309063874"><ele>1472.6</ele><time>2026-04-24T15:45:43.895Z</time></trkpt><trkpt lat="45.85006904470054" lon="11.162406386542935"><ele>1474.0</ele><time>2026-04-24T15:45:44.895Z</time></trkpt><trkpt lat="45.85017638660573" lon="11.162364317392795"><ele>1474.75</ele><time>2026-04-24T15:45:45.895Z</time></trkpt><trkpt lat="45.85032204819805" lon="11.16232308905067"><ele>1475.5</ele><time>2026-04-24T15:45:46.895Z</time></trkpt><trkpt lat="45.850465869830785" lon="11.162270206070403"><ele>1476.25</ele><time>2026-04-24T15:45:47.895Z</time></trkpt><trkpt lat="45.85058936281961" lon="11.162188126757057"><ele>1477.0</ele><time>2026-04-24T15:45:48.895Z</time></trkpt><trkpt lat="45.85068801849623" lon="11.162085990618591"><ele>1477.0</ele><time>2026-04-24T15:45:49.895Z</time></trkpt><trkpt lat="45.85080226941747" lon="11.161966808683514"><ele>1477.0</ele><time>2026-04-24T15:45:50.895Z</time></trkpt><trkpt lat="45.85092119027247" lon="11.16182272269528"><ele>1477.0</ele><time>2026-04-24T15:45:51.895Z</time></trkpt><trkpt lat="45.85102418112592" lon="11.161691089090233"><ele>1477.0</ele><time>2026-04-24T15:45:52.895Z</time></trkpt><trkpt lat="45.85112396777389" lon="11.161582660291344"><ele>1482.0</ele><time>2026-04-24T15:45:53.894Z</time></trkpt><trkpt lat="45.851212438351" lon="11.161485631306299"><ele>1487.0</ele><time>2026-04-24T15:45:54.894Z</time></trkpt><trkpt lat="45.85132076142347" lon="11.16142523460795"><ele>1492.0</ele><time>2026-04-24T15:45:55.894Z</time></trkpt><trkpt lat="45.85145993004921" lon="11.161348504086476"><ele>1497.0</ele><time>2026-04-24T15:45:56.894Z</time></trkpt><trkpt lat="45.85161773255021" lon="11.161285872499791"><ele>1497.0</ele><time>2026-04-24T15:45:57.894Z</time></trkpt><trkpt lat="45.851742283301235" lon="11.161224221940843"><ele>1497.0</ele><time>2026-04-24T15:45:58.894Z</time></trkpt><trkpt lat="45.851832567281576" lon="11.161161846194803"><ele>1497.0</ele><time>2026-04-24T15:45:59.894Z</time></trkpt><trkpt lat="45.8519259808266" lon="11.161104170562627"><ele>1497.0</ele><time>2026-04-24T15:46:00.894Z</time></trkpt><trkpt lat="45.852028392406986" lon="11.161119710407565"><ele>1497.0</ele><time>2026-04-24T15:46:01.894Z</time></trkpt><trkpt lat="45.85214079919124" lon="11.161205338979793"><ele>1496.6</ele><time>2026-04-24T15:46:02.894Z</time></trkpt><trkpt lat="45.8522425742361" lon="11.161243836485715"><ele>1496.1999999999998</ele><time>2026-04-24T15:46:03.894Z</time></trkpt><trkpt lat="45.85231699007825" lon="11.161276461113424"><ele>1495.8</ele><time>2026-04-24T15:46:04.894Z</time></trkpt><trkpt lat="45.85238210905711" lon="11.161367102881874"><ele>1495.4</ele><time>2026-04-24T15:46:07.894Z</time></trkpt><trkpt lat="45.852536920445445" lon="11.161338996231578"><ele>1495.0</ele><time>2026-04-24T15:46:09.894Z</time></trkpt><trkpt lat="45.852645381730795" lon="11.16135282333402"><ele>1495.0</ele><time>2026-04-24T15:46:10.894Z</time></trkpt><trkpt lat="45.85274784178382" lon="11.16136779828599"><ele>1495.0</ele><time>2026-04-24T15:46:11.894Z</time></trkpt><trkpt lat="45.852861215140386" lon="11.16137174470971"><ele>1495.0</ele><time>2026-04-24T15:46:12.894Z</time></trkpt><trkpt lat="45.85298147790128" lon="11.161395063659723"><ele>1495.0</ele><time>2026-04-24T15:46:13.894Z</time></trkpt><trkpt lat="45.85305788537314" lon="11.161433935596923"><ele>1495.0</ele><time>2026-04-24T15:46:14.894Z</time></trkpt><trkpt lat="45.85315914164192" lon="11.161366844658026"><ele>1495.0</ele><time>2026-04-24T15:46:16.894Z</time></trkpt><trkpt lat="45.85320631862465" lon="11.161306211612278"><ele>1495.0</ele><time>2026-04-24T15:46:17.894Z</time></trkpt><trkpt lat="45.85326265889184" lon="11.161253374230338"><ele>1495.0</ele><time>2026-04-24T15:46:18.894Z</time></trkpt><trkpt lat="45.85336281651818" lon="11.161272447440878"><ele>1495.0</ele><time>2026-04-24T15:46:20.894Z</time></trkpt><trkpt lat="45.85344899874069" lon="11.161297924083526"><ele>1495.0</ele><time>2026-04-24T15:46:21.894Z</time></trkpt><trkpt lat="45.85355056009876" lon="11.161290746816434"><ele>1495.0</ele><time>2026-04-24T15:46:22.894Z</time></trkpt><trkpt lat="45.85362199211161" lon="11.161232918128137"><ele>1489.6</ele><time>2026-04-24T15:46:23.894Z</time></trkpt><trkpt lat="45.85367977917918" lon="11.161137478269639"><ele>1484.2</ele><time>2026-04-24T15:46:24.894Z</time></trkpt><trkpt lat="45.85374700317118" lon="11.161007765355508"><ele>1478.8000000000002</ele><time>2026-04-24T15:46:25.894Z</time></trkpt><trkpt lat="45.853822778299794" lon="11.160875776284744"><ele>1473.4</ele><time>2026-04-24T15:46:26.894Z</time></trkpt><trkpt lat="45.85387184317646" lon="11.160755440751865"><ele>1468.0</ele><time>2026-04-24T15:46:27.894Z</time></trkpt><trkpt lat="45.853905130778884" lon="11.160635162302954"><ele>1468.0</ele><time>2026-04-24T15:46:28.894Z</time></trkpt><trkpt lat="45.85391166113045" lon="11.160515169510965"><ele>1468.0</ele><time>2026-04-24T15:46:29.894Z</time></trkpt><trkpt lat="45.85392867404554" lon="11.160418748498705"><ele>1468.0</ele><time>2026-04-24T15:46:30.894Z</time></trkpt><trkpt lat="45.85394328147466" lon="11.16023803125585"><ele>1468.0</ele><time>2026-04-24T15:46:32.894Z</time></trkpt><trkpt lat="45.85398871927717" lon="11.16005195361351"><ele>1468.0</ele><time>2026-04-24T15:46:33.894Z</time></trkpt><trkpt lat="45.85403424202805" lon="11.159841524138972"><ele>1471.5</ele><time>2026-04-24T15:46:34.894Z</time></trkpt><trkpt lat="45.854098274888614" lon="11.159648648811666"><ele>1475.0</ele><time>2026-04-24T15:46:35.895Z</time></trkpt><trkpt lat="45.85414426529826" lon="11.159481529729343"><ele>1478.5</ele><time>2026-04-24T15:46:36.895Z</time></trkpt><trkpt lat="45.854239503253964" lon="11.159362043666027"><ele>1482.0</ele><time>2026-04-24T15:46:37.895Z</time></trkpt><trkpt lat="45.854335668694574" lon="11.159244930729564"><ele>1475.5</ele><time>2026-04-24T15:46:38.895Z</time></trkpt><trkpt lat="45.85438104465271" lon="11.159111977973021"><ele>1469.0</ele><time>2026-04-24T15:46:39.895Z</time></trkpt><trkpt lat="45.854391577856795" lon="11.15901032270122"><ele>1462.5</ele><time>2026-04-24T15:46:40.895Z</time></trkpt><trkpt lat="45.854401363651014" lon="11.158894296608693"><ele>1456.0</ele><time>2026-04-24T15:46:42.895Z</time></trkpt><trkpt lat="45.85442991937698" lon="11.158765115079992"><ele>1449.5</ele><time>2026-04-24T15:46:50.895Z</time></trkpt><trkpt lat="45.85446471826543" lon="11.158683429441867"><ele>1443.0</ele><time>2026-04-24T15:46:51.894Z</time></trkpt><trkpt lat="45.85450459002033" lon="11.158581547989188"><ele>1443.0</ele><time>2026-04-24T15:46:52.894Z</time></trkpt><trkpt lat="45.85452276424935" lon="11.15848997732495"><ele>1443.0</ele><time>2026-04-24T15:46:53.894Z</time></trkpt><trkpt lat="45.85448478836738" lon="11.158413355845406"><ele>1443.0</ele><time>2026-04-24T15:47:27.894Z</time></trkpt><trkpt lat="45.85449158379214" lon="11.158309137414895"><ele>1443.0</ele><time>2026-04-24T15:47:38.893Z</time></trkpt><trkpt lat="45.854568281069994" lon="11.158183737496906"><ele>1443.0</ele><time>2026-04-24T15:47:40.893Z</time></trkpt><trkpt lat="45.85461426509846" lon="11.15809640728868"><ele>1443.0</ele><time>2026-04-24T15:47:41.893Z</time></trkpt><trkpt lat="45.85467104050381" lon="11.15797922200724"><ele>1447.6000000000001</ele><time>2026-04-24T15:47:42.893Z</time></trkpt><trkpt lat="45.854720990799535" lon="11.157877760394243"><ele>1452.2</ele><time>2026-04-24T15:47:43.893Z</time></trkpt><trkpt lat="45.85478498285606" lon="11.157782711483977"><ele>1456.8</ele><time>2026-04-24T15:47:44.893Z</time></trkpt><trkpt lat="45.85485834296242" lon="11.157682833419422"><ele>1461.4</ele><time>2026-04-24T15:47:45.893Z</time></trkpt><trkpt lat="45.85493965568226" lon="11.157570344698188"><ele>1466.0</ele><time>2026-04-24T15:47:46.893Z</time></trkpt><trkpt lat="45.8550247884059" lon="11.157470989105988"><ele>1466.0</ele><time>2026-04-24T15:47:47.893Z</time></trkpt><trkpt lat="45.85511061112295" lon="11.157421996258046"><ele>1466.0</ele><time>2026-04-24T15:47:48.893Z</time></trkpt><trkpt lat="45.855207297132075" lon="11.157409340694787"><ele>1466.0</ele><time>2026-04-24T15:47:49.893Z</time></trkpt><trkpt lat="45.85529401042342" lon="11.157409992726869"><ele>1466.0</ele><time>2026-04-24T15:47:50.893Z</time></trkpt><trkpt lat="45.85537475990345" lon="11.157370026123726"><ele>1466.0</ele><time>2026-04-24T15:47:51.893Z</time></trkpt><trkpt lat="45.855447583466166" lon="11.157322250360412"><ele>1466.0</ele><time>2026-04-24T15:47:52.893Z</time></trkpt><trkpt lat="45.85551707494413" lon="11.157201102066372"><ele>1459.1999999999998</ele><time>2026-04-24T15:47:53.893Z</time></trkpt><trkpt lat="45.85556375256883" lon="11.157071042669847"><ele>1452.3999999999999</ele><time>2026-04-24T15:47:54.893Z</time></trkpt><trkpt lat="45.85560582930904" lon="11.156991579743574"><ele>1445.6</ele><time>2026-04-24T15:47:55.893Z</time></trkpt><trkpt lat="45.85556657614642" lon="11.15680013247759"><ele>1438.8</ele><time>2026-04-24T15:47:57.893Z</time></trkpt><trkpt lat="45.8554978085453" lon="11.156662079571454"><ele>1432.0</ele><time>2026-04-24T15:47:58.893Z</time></trkpt><trkpt lat="45.85544696523933" lon="11.15652517807827"><ele>1429.5</ele><time>2026-04-24T15:47:59.893Z</time></trkpt><trkpt lat="45.855392247285145" lon="11.15634606305818"><ele>1427.0</ele><time>2026-04-24T15:48:00.893Z</time></trkpt><trkpt lat="45.85536302472789" lon="11.156163949157841"><ele>1424.5</ele><time>2026-04-24T15:48:01.893Z</time></trkpt><trkpt lat="45.855329497231665" lon="11.156000481737617"><ele>1422.0</ele><time>2026-04-24T15:48:02.893Z</time></trkpt><trkpt lat="45.85531152184245" lon="11.155848001774089"><ele>1418.5</ele><time>2026-04-24T15:48:03.893Z</time></trkpt><trkpt lat="45.85527021058422" lon="11.155630844894539"><ele>1415.0</ele><time>2026-04-24T15:48:04.893Z</time></trkpt><trkpt lat="45.85521975371965" lon="11.155449835649096"><ele>1411.5</ele><time>2026-04-24T15:48:05.893Z</time></trkpt><trkpt lat="45.85518963549514" lon="11.155286296429233"><ele>1408.0</ele><time>2026-04-24T15:48:06.893Z</time></trkpt><trkpt lat="45.85514193563702" lon="11.155101678399204"><ele>1415.0</ele><time>2026-04-24T15:48:07.893Z</time></trkpt><trkpt lat="45.85509448740965" lon="11.154901753592394"><ele>1422.0</ele><time>2026-04-24T15:48:08.893Z</time></trkpt><trkpt lat="45.85507515105732" lon="11.15469654768245"><ele>1429.0</ele><time>2026-04-24T15:48:09.893Z</time></trkpt><trkpt lat="45.85505735420424" lon="11.154523889102753"><ele>1436.0</ele><time>2026-04-24T15:48:10.893Z</time></trkpt><trkpt lat="45.854993989926726" lon="11.15439668979638"><ele>1436.0</ele><time>2026-04-24T15:48:12.893Z</time></trkpt><trkpt lat="45.85491107141991" lon="11.154298638390511"><ele>1436.0</ele><time>2026-04-24T15:48:13.893Z</time></trkpt><trkpt lat="45.854800899442004" lon="11.15416302369054"><ele>1436.0</ele><time>2026-04-24T15:48:14.893Z</time></trkpt><trkpt lat="45.85472840471085" lon="11.154041075592646"><ele>1436.0</ele><time>2026-04-24T15:48:15.893Z</time></trkpt><trkpt lat="45.854667074667624" lon="11.153900354263392"><ele>1435.8</ele><time>2026-04-24T15:48:16.893Z</time></trkpt><trkpt lat="45.85462458823231" lon="11.153722253376943"><ele>1435.6</ele><time>2026-04-24T15:48:17.893Z</time></trkpt><trkpt lat="45.85459563042989" lon="11.153545394200178"><ele>1435.4</ele><time>2026-04-24T15:48:18.893Z</time></trkpt><trkpt lat="45.854588244777624" lon="11.153449102157891"><ele>1435.2</ele><time>2026-04-24T15:48:19.893Z</time></trkpt><trkpt lat="45.854586117828916" lon="11.153341393946967"><ele>1435.0</ele><time>2026-04-24T15:48:21.893Z</time></trkpt><trkpt lat="45.85467141181373" lon="11.153241714732165"><ele>1437.0</ele><time>2026-04-24T15:48:24.892Z</time></trkpt><trkpt lat="45.85476731178861" lon="11.153101337868243"><ele>1439.0</ele><time>2026-04-24T15:48:26.892Z</time></trkpt><trkpt lat="45.85483807651748" lon="11.153015980034587"><ele>1441.0</ele><time>2026-04-24T15:48:27.892Z</time></trkpt><trkpt lat="45.85491440592547" lon="11.152950705714707"><ele>1443.0</ele><time>2026-04-24T15:48:28.892Z</time></trkpt><trkpt lat="45.854991915685446" lon="11.152858767781547"><ele>1445.0</ele><time>2026-04-24T15:48:29.892Z</time></trkpt><trkpt lat="45.85507689433006" lon="11.152764573709023"><ele>1445.5</ele><time>2026-04-24T15:48:30.892Z</time></trkpt><trkpt lat="45.855177080311314" lon="11.152721929080514"><ele>1446.0</ele><time>2026-04-24T15:48:31.892Z</time></trkpt><trkpt lat="45.85526477709025" lon="11.1526749899096"><ele>1446.5</ele><time>2026-04-24T15:48:32.892Z</time></trkpt><trkpt lat="45.855319422461825" lon="11.15261777948802"><ele>1447.0</ele><time>2026-04-24T15:48:33.892Z</time></trkpt><trkpt lat="45.85534797506565" lon="11.15251770556082"><ele>1447.5</ele><time>2026-04-24T15:48:34.892Z</time></trkpt><trkpt lat="45.85534818338619" lon="11.152409680481428"><ele>1448.0</ele><time>2026-04-24T15:48:35.892Z</time></trkpt><trkpt lat="45.85533563023302" lon="11.152234540504427"><ele>1448.0</ele><time>2026-04-24T15:48:36.892Z</time></trkpt><trkpt lat="45.855335240198386" lon="11.152102517876353"><ele>1448.0</ele><time>2026-04-24T15:48:37.892Z</time></trkpt><trkpt lat="45.85545341846384" lon="11.152055992933649"><ele>1448.0</ele><time>2026-04-24T15:48:39.892Z</time></trkpt><trkpt lat="45.85552406788471" lon="11.152083772770958"><ele>1448.0</ele><time>2026-04-24T15:48:40.892Z</time></trkpt><trkpt lat="45.85564523566785" lon="11.152166480061522"><ele>1448.0</ele><time>2026-04-24T15:48:41.894Z</time></trkpt><trkpt lat="45.855751623686466" lon="11.152260892370661"><ele>1448.0</ele><time>2026-04-24T15:48:42.894Z</time></trkpt><trkpt lat="45.85584006062978" lon="11.15233265481691"><ele>1448.0</ele><time>2026-04-24T15:48:43.894Z</time></trkpt><trkpt lat="45.85592175952263" lon="11.1523818972604"><ele>1448.0</ele><time>2026-04-24T15:48:44.894Z</time></trkpt><trkpt lat="45.85600008291903" lon="11.152356933550156"><ele>1448.0</ele><time>2026-04-24T15:48:45.893Z</time></trkpt><trkpt lat="45.856099919214095" lon="11.152302461339778"><ele>1448.0</ele><time>2026-04-24T15:48:46.893Z</time></trkpt><trkpt lat="45.85619397896708" lon="11.152185834398773"><ele>1444.75</ele><time>2026-04-24T15:48:47.893Z</time></trkpt><trkpt lat="45.856305245111" lon="11.152061815846949"><ele>1441.5</ele><time>2026-04-24T15:48:48.893Z</time></trkpt><trkpt lat="45.856416665332056" lon="11.151946786993786"><ele>1438.25</ele><time>2026-04-24T15:48:49.894Z</time></trkpt><trkpt lat="45.85654259536376" lon="11.151895222208358"><ele>1435.0</ele><time>2026-04-24T15:48:50.894Z</time></trkpt><trkpt lat="45.85669437637671" lon="11.151892446126617"><ele>1432.0</ele><time>2026-04-24T15:48:51.893Z</time></trkpt><trkpt lat="45.85684617676947" lon="11.151887649058695"><ele>1429.0</ele><time>2026-04-24T15:48:52.893Z</time></trkpt><trkpt lat="45.85698431351099" lon="11.151909024914076"><ele>1426.0</ele><time>2026-04-24T15:48:53.893Z</time></trkpt><trkpt lat="45.85713067413711" lon="11.151935636137027"><ele>1423.0</ele><time>2026-04-24T15:48:54.893Z</time></trkpt><trkpt lat="45.857253419143085" lon="11.151985349782748"><ele>1423.0</ele><time>2026-04-24T15:48:55.893Z</time></trkpt><trkpt lat="45.857359162764844" lon="11.152021862635163"><ele>1423.0</ele><time>2026-04-24T15:48:56.893Z</time></trkpt><trkpt lat="45.85745086901531" lon="11.152027225367817"><ele>1423.0</ele><time>2026-04-24T15:48:57.893Z</time></trkpt><trkpt lat="45.85753848731513" lon="11.151973985922508"><ele>1423.0</ele><time>2026-04-24T15:48:58.893Z</time></trkpt><trkpt lat="45.85761518956204" lon="11.15191410077312"><ele>1423.0</ele><time>2026-04-24T15:48:59.893Z</time></trkpt><trkpt lat="45.85772222901333" lon="11.151896739193512"><ele>1419.5714285714287</ele><time>2026-04-24T15:49:01.893Z</time></trkpt><trkpt lat="45.857788254490224" lon="11.151895204168108"><ele>1416.142857142857</ele><time>2026-04-24T15:49:02.893Z</time></trkpt><trkpt lat="45.85785355195022" lon="11.151884113715278"><ele>1412.7142857142858</ele><time>2026-04-24T15:49:03.893Z</time></trkpt><trkpt lat="45.857926104455835" lon="11.151859866941908"><ele>1409.2857142857142</ele><time>2026-04-24T15:49:04.893Z</time></trkpt><trkpt lat="45.858002999291884" lon="11.15181803711709"><ele>1405.857142857143</ele><time>2026-04-24T15:49:05.893Z</time></trkpt><trkpt lat="45.85807445351321" lon="11.151770963977182"><ele>1402.4285714285713</ele><time>2026-04-24T15:49:06.893Z</time></trkpt><trkpt lat="45.85813931409803" lon="11.151700717636455"><ele>1399.0</ele><time>2026-04-24T15:49:07.893Z</time></trkpt><trkpt lat="45.85819729805697" lon="11.151634547539954"><ele>1399.0</ele><time>2026-04-24T15:49:08.893Z</time></trkpt><trkpt lat="45.85825005804275" lon="11.151565272437294"><ele>1399.0</ele><time>2026-04-24T15:49:09.893Z</time></trkpt><trkpt lat="45.8583226258485" lon="11.151497556964731"><ele>1399.0</ele><time>2026-04-24T15:49:11.893Z</time></trkpt><trkpt lat="45.85836684680884" lon="11.151408051204358"><ele>1399.0</ele><time>2026-04-24T15:49:15.893Z</time></trkpt><trkpt lat="45.85842690490717" lon="11.15133055702681"><ele>1399.0</ele><time>2026-04-24T15:49:18.893Z</time></trkpt><trkpt lat="45.858489141636575" lon="11.151297633692542"><ele>1399.0</ele><time>2026-04-24T15:49:20.893Z</time></trkpt><trkpt lat="45.85858944774108" lon="11.151240465900367"><ele>1398.0</ele><time>2026-04-24T15:49:22.893Z</time></trkpt><trkpt lat="45.858697910129536" lon="11.151203283577795"><ele>1397.0</ele><time>2026-04-24T15:49:24.893Z</time></trkpt><trkpt lat="45.858759698501395" lon="11.151033144525197"><ele>1396.0</ele><time>2026-04-24T15:49:26.892Z</time></trkpt><trkpt lat="45.85889515747617" lon="11.150889792350613"><ele>1395.0</ele><time>2026-04-24T15:49:28.892Z</time></trkpt><trkpt lat="45.8590020824377" lon="11.150860082180124"><ele>1395.0</ele><time>2026-04-24T15:49:29.892Z</time></trkpt><trkpt lat="45.85907986228002" lon="11.150792553967634"><ele>1395.0</ele><time>2026-04-24T15:49:30.892Z</time></trkpt><trkpt lat="45.85914067398702" lon="11.150736234765892"><ele>1395.0</ele><time>2026-04-24T15:49:31.892Z</time></trkpt><trkpt lat="45.859211710915375" lon="11.150687756038188"><ele>1395.0</ele><time>2026-04-24T15:49:32.892Z</time></trkpt><trkpt lat="45.85929533808737" lon="11.150653687116195"><ele>1395.0</ele><time>2026-04-24T15:49:33.892Z</time></trkpt><trkpt lat="45.85939588364199" lon="11.150610107392632"><ele>1395.0</ele><time>2026-04-24T15:49:34.892Z</time></trkpt><trkpt lat="45.85946655842087" lon="11.150533296317182"><ele>1394.6666666666667</ele><time>2026-04-24T15:49:35.892Z</time></trkpt><trkpt lat="45.859520628677984" lon="11.150450754328238"><ele>1394.3333333333333</ele><time>2026-04-24T15:49:36.892Z</time></trkpt><trkpt lat="45.85958949139417" lon="11.15035096288749"><ele>1394.0</ele><time>2026-04-24T15:49:38.892Z</time></trkpt><trkpt lat="45.85965254910937" lon="11.150338076234917"><ele>1393.6666666666665</ele><time>2026-04-24T15:49:40.892Z</time></trkpt><trkpt lat="45.85972826436939" lon="11.150355099202434"><ele>1393.3333333333333</ele><time>2026-04-24T15:49:42.892Z</time></trkpt><trkpt lat="45.859802043375495" lon="11.15043999819938"><ele>1393.0</ele><time>2026-04-24T15:49:45.892Z</time></trkpt><trkpt lat="45.85989450651122" lon="11.15048930936187"><ele>1393.0</ele><time>2026-04-24T15:49:48.892Z</time></trkpt><trkpt lat="45.85996708872493" lon="11.150532140167163"><ele>1393.0</ele><time>2026-04-24T15:49:50.892Z</time></trkpt><trkpt lat="45.860055882550625" lon="11.150571547017206"><ele>1393.0</ele><time>2026-04-24T15:49:52.892Z</time></trkpt><trkpt lat="45.860120803290116" lon="11.150643808507853"><ele>1393.0</ele><time>2026-04-24T15:49:54.892Z</time></trkpt><trkpt lat="45.86020948701751" lon="11.150694953923528"><ele>1393.0</ele><time>2026-04-24T15:49:57.892Z</time></trkpt><trkpt lat="45.860287935216206" lon="11.150779333172935"><ele>1393.0</ele><time>2026-04-24T15:49:59.892Z</time></trkpt><trkpt lat="45.86036031115672" lon="11.150922347719108"><ele>1391.5</ele><time>2026-04-24T15:50:01.892Z</time></trkpt><trkpt lat="45.86043703767107" lon="11.151001584425446"><ele>1390.0</ele><time>2026-04-24T15:50:03.892Z</time></trkpt><trkpt lat="45.8604851362778" lon="11.151092666630616"><ele>1388.5</ele><time>2026-04-24T15:50:04.892Z</time></trkpt><trkpt lat="45.86055040881159" lon="11.151157248325507"><ele>1387.0</ele><time>2026-04-24T15:50:05.892Z</time></trkpt><trkpt lat="45.8606331402207" lon="11.151252239820488"><ele>1385.5</ele><time>2026-04-24T15:50:06.892Z</time></trkpt><trkpt lat="45.86069422227608" lon="11.151341303194704"><ele>1384.0</ele><time>2026-04-24T15:50:07.892Z</time></trkpt><trkpt lat="45.860742852241586" lon="11.151413213428395"><ele>1384.0</ele><time>2026-04-24T15:50:08.892Z</time></trkpt><trkpt lat="45.860792431707075" lon="11.151536636914882"><ele>1384.0</ele><time>2026-04-24T15:50:11.892Z</time></trkpt><trkpt lat="45.860853161143716" lon="11.151591875363879"><ele>1384.0</ele><time>2026-04-24T15:50:13.891Z</time></trkpt><trkpt lat="45.86082223443728" lon="11.151712150491537"><ele>1384.0</ele><time>2026-04-24T15:50:17.891Z</time></trkpt><trkpt lat="45.8608573535024" lon="11.151805849725456"><ele>1384.0</ele><time>2026-04-24T15:50:21.891Z</time></trkpt><trkpt lat="45.86095753925453" lon="11.151835717775937"><ele>1384.0</ele><time>2026-04-24T15:50:23.891Z</time></trkpt><trkpt lat="45.86103878632189" lon="11.15181446165801"><ele>1377.1666666666665</ele><time>2026-04-24T15:50:26.891Z</time></trkpt><trkpt lat="45.861125041508906" lon="11.151824659432537"><ele>1370.3333333333333</ele><time>2026-04-24T15:50:29.891Z</time></trkpt><trkpt lat="45.861199899515945" lon="11.151774658121646"><ele>1363.5</ele><time>2026-04-24T15:50:31.891Z</time></trkpt><trkpt lat="45.861256674169674" lon="11.151727801889598"><ele>1356.6666666666667</ele><time>2026-04-24T15:50:33.891Z</time></trkpt><trkpt lat="45.86132335002725" lon="11.151709586884511"><ele>1349.8333333333335</ele><time>2026-04-24T15:50:35.891Z</time></trkpt><trkpt lat="45.86139661807805" lon="11.151678074723751"><ele>1343.0</ele><time>2026-04-24T15:50:37.891Z</time></trkpt><trkpt lat="45.86146259429106" lon="11.151638714250383"><ele>1343.0</ele><time>2026-04-24T15:50:39.891Z</time></trkpt><trkpt lat="45.86152729407816" lon="11.15156162520569"><ele>1343.0</ele><time>2026-04-24T15:50:41.891Z</time></trkpt><trkpt lat="45.8615999839639" lon="11.151602945047776"><ele>1343.0</ele><time>2026-04-24T15:50:45.891Z</time></trkpt><trkpt lat="45.861584185172106" lon="11.151742444981618"><ele>1343.0</ele><time>2026-04-24T15:50:48.892Z</time></trkpt><trkpt lat="45.861571989010365" lon="11.151854901093218"><ele>1343.0</ele><time>2026-04-24T15:50:50.893Z</time></trkpt><trkpt lat="45.861647484828026" lon="11.151898028661625"><ele>1343.0</ele><time>2026-04-24T15:50:57.893Z</time></trkpt><trkpt lat="45.86170718190345" lon="11.151821816357135"><ele>1337.0</ele><time>2026-04-24T15:50:59.893Z</time></trkpt><trkpt lat="45.861782469317404" lon="11.15181947483659"><ele>1331.0</ele><time>2026-04-24T15:51:01.892Z</time></trkpt><trkpt lat="45.86187553469594" lon="11.151810250791852"><ele>1325.0</ele><time>2026-04-24T15:51:03.892Z</time></trkpt><trkpt lat="45.86193982880186" lon="11.151786447865774"><ele>1319.0</ele><time>2026-04-24T15:51:04.892Z</time></trkpt><trkpt lat="45.86201783793777" lon="11.151783539797139"><ele>1313.0</ele><time>2026-04-24T15:51:05.892Z</time></trkpt><trkpt lat="45.8621244258934" lon="11.151762311083273"><ele>1307.0</ele><time>2026-04-24T15:51:07.892Z</time></trkpt><trkpt lat="45.86221362435445" lon="11.151727006601016"><ele>1307.0</ele><time>2026-04-24T15:51:09.892Z</time></trkpt><trkpt lat="45.86230994915927" lon="11.151673017000904"><ele>1307.0</ele><time>2026-04-24T15:51:11.892Z</time></trkpt><trkpt lat="45.86236970015539" lon="11.151570069979341"><ele>1307.0</ele><time>2026-04-24T15:51:14.892Z</time></trkpt><trkpt lat="45.86246425742954" lon="11.151510090921311"><ele>1307.0</ele><time>2026-04-24T15:51:17.892Z</time></trkpt><trkpt lat="45.86256056677188" lon="11.151401151424505"><ele>1307.0</ele><time>2026-04-24T15:51:19.892Z</time></trkpt><trkpt lat="45.86263438511482" lon="11.151346188084437"><ele>1303.6666666666667</ele><time>2026-04-24T15:51:20.892Z</time></trkpt><trkpt lat="45.86270097252546" lon="11.151295567592959"><ele>1300.3333333333335</ele><time>2026-04-24T15:51:21.892Z</time></trkpt><trkpt lat="45.86274138138871" lon="11.151218382004101"><ele>1297.0</ele><time>2026-04-24T15:51:22.892Z</time></trkpt><trkpt lat="45.862807470029566" lon="11.15113952814901"><ele>1293.6666666666667</ele><time>2026-04-24T15:51:23.892Z</time></trkpt><trkpt lat="45.862890688422" lon="11.151064477153781"><ele>1290.3333333333333</ele><time>2026-04-24T15:51:24.892Z</time></trkpt><trkpt lat="45.862973412201015" lon="11.151006627676761"><ele>1287.0</ele><time>2026-04-24T15:51:25.892Z</time></trkpt><trkpt lat="45.86305839959191" lon="11.150933281626335"><ele>1287.0</ele><time>2026-04-24T15:51:26.892Z</time></trkpt><trkpt lat="45.86314115018433" lon="11.150856242581012"><ele>1287.0</ele><time>2026-04-24T15:51:27.892Z</time></trkpt><trkpt lat="45.863209937603834" lon="11.150756930520586"><ele>1287.0</ele><time>2026-04-24T15:51:28.892Z</time></trkpt><trkpt lat="45.86326980154748" lon="11.150657074460218"><ele>1287.0</ele><time>2026-04-24T15:51:29.892Z</time></trkpt><trkpt lat="45.86332079708982" lon="11.15052158495752"><ele>1287.0</ele><time>2026-04-24T15:51:30.892Z</time></trkpt><trkpt lat="45.86335390070766" lon="11.150373641108677"><ele>1289.8</ele><time>2026-04-24T15:51:31.892Z</time></trkpt><trkpt lat="45.86336873197839" lon="11.150226062992667"><ele>1292.6</ele><time>2026-04-24T15:51:32.892Z</time></trkpt><trkpt lat="45.86339135178203" lon="11.150095862220919"><ele>1295.3999999999999</ele><time>2026-04-24T15:51:33.892Z</time></trkpt><trkpt lat="45.86339827229706" lon="11.149977363266158"><ele>1298.1999999999998</ele><time>2026-04-24T15:51:34.891Z</time></trkpt><trkpt lat="45.86340021517821" lon="11.149866709671551"><ele>1301.0</ele><time>2026-04-24T15:51:35.891Z</time></trkpt><trkpt lat="45.86338912662282" lon="11.149712158992157"><ele>1303.25</ele><time>2026-04-24T15:51:36.891Z</time></trkpt><trkpt lat="45.863395657832214" lon="11.149559682585592"><ele>1305.5</ele><time>2026-04-24T15:51:37.891Z</time></trkpt><trkpt lat="45.86341557844207" lon="11.14940296165468"><ele>1307.75</ele><time>2026-04-24T15:51:38.891Z</time></trkpt><trkpt lat="45.86345204289665" lon="11.149226791857718"><ele>1310.0</ele><time>2026-04-24T15:51:39.891Z</time></trkpt><trkpt lat="45.86349523279982" lon="11.14906767313788"><ele>1302.8</ele><time>2026-04-24T15:51:40.891Z</time></trkpt><trkpt lat="45.86352741093563" lon="11.148911833080222"><ele>1295.6</ele><time>2026-04-24T15:51:41.891Z</time></trkpt><trkpt lat="45.863541555800566" lon="11.148795860781343"><ele>1288.4</ele><time>2026-04-24T15:51:42.891Z</time></trkpt><trkpt lat="45.86361982679206" lon="11.148709969432296"><ele>1281.2</ele><time>2026-04-24T15:51:44.891Z</time></trkpt><trkpt lat="45.86363277592557" lon="11.14880168204498"><ele>1274.0</ele><time>2026-04-24T15:51:48.891Z</time></trkpt><trkpt lat="45.8636185675688" lon="11.149011865561937"><ele>1272.4</ele><time>2026-04-24T15:51:50.891Z</time></trkpt><trkpt lat="45.8636222269926" lon="11.149154713610683"><ele>1270.8000000000002</ele><time>2026-04-24T15:51:51.891Z</time></trkpt><trkpt lat="45.86363608419542" lon="11.149297879729215"><ele>1269.1999999999998</ele><time>2026-04-24T15:51:52.891Z</time></trkpt><trkpt lat="45.86364505752132" lon="11.149440119271862"><ele>1267.6</ele><time>2026-04-24T15:51:53.891Z</time></trkpt><trkpt lat="45.86367409487229" lon="11.14956935336992"><ele>1266.0</ele><time>2026-04-24T15:51:54.891Z</time></trkpt><trkpt lat="45.86367746693124" lon="11.149726681610073"><ele>1266.0</ele><time>2026-04-24T15:51:55.891Z</time></trkpt><trkpt lat="45.86367930217187" lon="11.149868620169853"><ele>1266.0</ele><time>2026-04-24T15:51:56.891Z</time></trkpt><trkpt lat="45.86368086674601" lon="11.15001751266714"><ele>1266.0</ele><time>2026-04-24T15:51:57.891Z</time></trkpt><trkpt lat="45.86369152533923" lon="11.150163648696989"><ele>1266.0</ele><time>2026-04-24T15:51:58.891Z</time></trkpt><trkpt lat="45.863698127931386" lon="11.150304889353833"><ele>1266.0</ele><time>2026-04-24T15:51:59.891Z</time></trkpt><trkpt lat="45.863701358428656" lon="11.150421055802154"><ele>1264.8</ele><time>2026-04-24T15:52:00.891Z</time></trkpt><trkpt lat="45.86369455217745" lon="11.150610396320689"><ele>1263.6</ele><time>2026-04-24T15:52:02.891Z</time></trkpt><trkpt lat="45.8637182086985" lon="11.150796301606258"><ele>1262.4</ele><time>2026-04-24T15:52:03.891Z</time></trkpt><trkpt lat="45.86364774581818" lon="11.150870016653503"><ele>1261.2</ele><time>2026-04-24T15:52:06.891Z</time></trkpt><trkpt lat="45.863602117138186" lon="11.150979869861581"><ele>1260.0</ele><time>2026-04-24T15:52:09.891Z</time></trkpt><trkpt lat="45.86356391138874" lon="11.15109457270194"><ele>1258.75</ele><time>2026-04-24T15:52:10.891Z</time></trkpt><trkpt lat="45.86351775773021" lon="11.15121232777822"><ele>1257.5</ele><time>2026-04-24T15:52:11.891Z</time></trkpt><trkpt lat="45.863447325707405" lon="11.151323795803407"><ele>1256.25</ele><time>2026-04-24T15:52:12.891Z</time></trkpt><trkpt lat="45.863360691121535" lon="11.15148520965886"><ele>1255.0</ele><time>2026-04-24T15:52:13.891Z</time></trkpt><trkpt lat="45.86327697914233" lon="11.151600267955287"><ele>1258.75</ele><time>2026-04-24T15:52:14.891Z</time></trkpt><trkpt lat="45.863168345932344" lon="11.151716948437823"><ele>1262.5</ele><time>2026-04-24T15:52:15.891Z</time></trkpt><trkpt lat="45.86305776236528" lon="11.151862825489928"><ele>1266.25</ele><time>2026-04-24T15:52:16.891Z</time></trkpt><trkpt lat="45.86297017311703" lon="11.151991464094763"><ele>1270.0</ele><time>2026-04-24T15:52:17.891Z</time></trkpt><trkpt lat="45.86287511880693" lon="11.152113333293295"><ele>1270.0</ele><time>2026-04-24T15:52:18.891Z</time></trkpt><trkpt lat="45.86278269260513" lon="11.152224876992726"><ele>1270.0</ele><time>2026-04-24T15:52:19.891Z</time></trkpt><trkpt lat="45.862725819101634" lon="11.152274084173886"><ele>1270.0</ele><time>2026-04-24T15:52:21.891Z</time></trkpt><trkpt lat="45.862719421638815" lon="11.152372459151481"><ele>1270.0</ele><time>2026-04-24T15:52:26.89Z</time></trkpt><trkpt lat="45.86274661728766" lon="11.152511718120863"><ele>1270.0</ele><time>2026-04-24T15:52:30.89Z</time></trkpt><trkpt lat="45.862732570696885" lon="11.152621287229957"><ele>1270.0</ele><time>2026-04-24T15:52:32.89Z</time></trkpt><trkpt lat="45.86274410077341" lon="11.15272039041136"><ele>1266.5</ele><time>2026-04-24T15:52:37.89Z</time></trkpt><trkpt lat="45.86282336324925" lon="11.152724013572577"><ele>1263.0</ele><time>2026-04-24T15:52:40.89Z</time></trkpt><trkpt lat="45.86287996568625" lon="11.15267620093198"><ele>1259.5</ele><time>2026-04-24T15:52:44.89Z</time></trkpt><trkpt lat="45.8629591829521" lon="11.152656672361827"><ele>1256.0</ele><time>2026-04-24T15:52:47.89Z</time></trkpt><trkpt lat="45.8630270785038" lon="11.152683418054023"><ele>1252.5</ele><time>2026-04-24T15:52:49.89Z</time></trkpt><trkpt lat="45.863105113005645" lon="11.152705753564144"><ele>1249.0</ele><time>2026-04-24T15:52:51.89Z</time></trkpt><trkpt lat="45.863227630849515" lon="11.152735466600577"><ele>1249.0</ele><time>2026-04-24T15:52:53.891Z</time></trkpt><trkpt lat="45.86334149411017" lon="11.152791058101563"><ele>1249.0</ele><time>2026-04-24T15:52:55.892Z</time></trkpt><trkpt lat="45.86342118728702" lon="11.152816388685602"><ele>1249.0</ele><time>2026-04-24T15:52:56.892Z</time></trkpt><trkpt lat="45.86348048514824" lon="11.152862042879976"><ele>1249.0</ele><time>2026-04-24T15:52:57.892Z</time></trkpt><trkpt lat="45.86353931871508" lon="11.152902540744545"><ele>1249.0</ele><time>2026-04-24T15:52:58.892Z</time></trkpt><trkpt lat="45.8636129548418" lon="11.152954806530207"><ele>1249.0</ele><time>2026-04-24T15:53:00.891Z</time></trkpt><trkpt lat="45.86370472820847" lon="11.15298858028744"><ele>1244.8571428571427</ele><time>2026-04-24T15:53:03.891Z</time></trkpt><trkpt lat="45.86377945131226" lon="11.153027939724682"><ele>1240.7142857142858</ele><time>2026-04-24T15:53:05.891Z</time></trkpt><trkpt lat="45.86373915764725" lon="11.153102508424189"><ele>1236.5714285714284</ele><time>2026-04-24T15:53:09.891Z</time></trkpt><trkpt lat="45.86368770855127" lon="11.153168256193766"><ele>1232.4285714285713</ele><time>2026-04-24T15:53:12.891Z</time></trkpt><trkpt lat="45.86360644034179" lon="11.153159260949494"><ele>1228.2857142857142</ele><time>2026-04-24T15:53:15.891Z</time></trkpt><trkpt lat="45.86354102519392" lon="11.153225558416056"><ele>1224.142857142857</ele><time>2026-04-24T15:53:17.891Z</time></trkpt><trkpt lat="45.8634801252241" lon="11.153273937677286"><ele>1220.0</ele><time>2026-04-24T15:53:19.891Z</time></trkpt><trkpt lat="45.86342554493164" lon="11.15335642812678"><ele>1220.0</ele><time>2026-04-24T15:53:21.891Z</time></trkpt><trkpt lat="45.86338034033802" lon="11.153456287488135"><ele>1220.0</ele><time>2026-04-24T15:53:23.891Z</time></trkpt><trkpt lat="45.863438898196726" lon="11.153533462070897"><ele>1220.0</ele><time>2026-04-24T15:53:26.89Z</time></trkpt><trkpt lat="45.86349555132742" lon="11.153601101494246"><ele>1220.0</ele><time>2026-04-24T15:53:28.89Z</time></trkpt><trkpt lat="45.86355830905168" lon="11.15363585366408"><ele>1220.0</ele><time>2026-04-24T15:53:31.89Z</time></trkpt><trkpt lat="45.863637973568075" lon="11.15365764117996"><ele>1220.0</ele><time>2026-04-24T15:53:34.89Z</time></trkpt><trkpt lat="45.863704060344475" lon="11.153677120008565"><ele>1213.6666666666667</ele><time>2026-04-24T15:53:37.89Z</time></trkpt><trkpt lat="45.86368336867997" lon="11.153775398006538"><ele>1207.3333333333335</ele><time>2026-04-24T15:53:41.89Z</time></trkpt><trkpt lat="45.86360757798814" lon="11.153860449797229"><ele>1201.0</ele><time>2026-04-24T15:53:45.89Z</time></trkpt><trkpt lat="45.86352938318427" lon="11.153920773566131"><ele>1194.6666666666667</ele><time>2026-04-24T15:53:47.89Z</time></trkpt><trkpt lat="45.86351127088493" lon="11.154055280662746"><ele>1188.3333333333333</ele><time>2026-04-24T15:53:49.89Z</time></trkpt><trkpt lat="45.86346260559679" lon="11.154131948095541"><ele>1182.0</ele><time>2026-04-24T15:53:51.89Z</time></trkpt><trkpt lat="45.863401919973825" lon="11.154196702550854"><ele>1179.6666666666667</ele><time>2026-04-24T15:53:53.89Z</time></trkpt><trkpt lat="45.86334168761836" lon="11.154248213040697"><ele>1177.3333333333333</ele><time>2026-04-24T15:53:55.89Z</time></trkpt><trkpt lat="45.86328438078488" lon="11.154318845448572"><ele>1175.0</ele><time>2026-04-24T15:53:57.89Z</time></trkpt><trkpt lat="45.86329874303993" lon="11.154420856286892"><ele>1172.6666666666665</ele><time>2026-04-24T15:53:59.89Z</time></trkpt><trkpt lat="45.863381508311434" lon="11.154459763096249"><ele>1170.3333333333333</ele><time>2026-04-24T15:54:01.89Z</time></trkpt><trkpt lat="45.86346290040993" lon="11.154468844645047"><ele>1168.0</ele><time>2026-04-24T15:54:03.89Z</time></trkpt><trkpt lat="45.86351820796969" lon="11.154547517310409"><ele>1159.5</ele><time>2026-04-24T15:54:09.89Z</time></trkpt><trkpt lat="45.86358242766189" lon="11.154515539002476"><ele>1151.0</ele><time>2026-04-24T15:54:12.89Z</time></trkpt><trkpt lat="45.86357372535639" lon="11.154674257365897"><ele>1142.5</ele><time>2026-04-24T15:54:17.889Z</time></trkpt><trkpt lat="45.863548703361616" lon="11.154780223471814"><ele>1134.0</ele><time>2026-04-24T15:54:19.889Z</time></trkpt><trkpt lat="45.863504754328446" lon="11.154876259602451"><ele>1125.5</ele><time>2026-04-24T15:54:21.889Z</time></trkpt><trkpt lat="45.863423499476575" lon="11.154963633488464"><ele>1117.0</ele><time>2026-04-24T15:54:23.889Z</time></trkpt><trkpt lat="45.863354811230856" lon="11.155001092996386"><ele>1116.1666666666665</ele><time>2026-04-24T15:54:25.889Z</time></trkpt><trkpt lat="45.863272365607564" lon="11.155067390873425"><ele>1115.3333333333333</ele><time>2026-04-24T15:54:28.889Z</time></trkpt><trkpt lat="45.863329588834254" lon="11.155146905257395"><ele>1114.5</ele><time>2026-04-24T15:54:31.889Z</time></trkpt><trkpt lat="45.86339131661297" lon="11.155164747595956"><ele>1113.6666666666667</ele><time>2026-04-24T15:54:33.889Z</time></trkpt><trkpt lat="45.863453727528395" lon="11.155202012179295"><ele>1112.8333333333335</ele><time>2026-04-24T15:54:38.889Z</time></trkpt><trkpt lat="45.863533607668884" lon="11.155247233686639"><ele>1112.0</ele><time>2026-04-24T15:54:41.889Z</time></trkpt><trkpt lat="45.863620853739725" lon="11.155275357553975"><ele>1112.0</ele><time>2026-04-24T15:54:44.889Z</time></trkpt><trkpt lat="45.86357963301252" lon="11.155378524730635"><ele>1112.0</ele><time>2026-04-24T15:54:48.889Z</time></trkpt><trkpt lat="45.86351916844901" lon="11.155456358668225"><ele>1112.0</ele><time>2026-04-24T15:54:50.889Z</time></trkpt><trkpt lat="45.86344089177809" lon="11.155574711802487"><ele>1112.0</ele><time>2026-04-24T15:54:52.889Z</time></trkpt><trkpt lat="45.863363260433715" lon="11.155660786306903"><ele>1112.0</ele><time>2026-04-24T15:54:54.889Z</time></trkpt><trkpt lat="45.86329002599815" lon="11.155682255017274"><ele>1104.8333333333335</ele><time>2026-04-24T15:54:56.889Z</time></trkpt><trkpt lat="45.863229228516424" lon="11.155713991834908"><ele>1097.6666666666667</ele><time>2026-04-24T15:54:58.889Z</time></trkpt><trkpt lat="45.86328734607221" lon="11.155799689282842"><ele>1090.5</ele><time>2026-04-24T15:55:01.89Z</time></trkpt><trkpt lat="45.86337811397009" lon="11.155833129440824"><ele>1083.3333333333333</ele><time>2026-04-24T15:55:03.89Z</time></trkpt><trkpt lat="45.86344792015419" lon="11.155852944164437"><ele>1076.1666666666665</ele><time>2026-04-24T15:55:05.89Z</time></trkpt><trkpt lat="45.86347092698909" lon="11.155937576491464"><ele>1069.0</ele><time>2026-04-24T15:55:08.89Z</time></trkpt><trkpt lat="45.863406476146416" lon="11.155996578534234"><ele>1069.0</ele><time>2026-04-24T15:55:10.89Z</time></trkpt><trkpt lat="45.86332363543804" lon="11.156093923986914"><ele>1069.0</ele><time>2026-04-24T15:55:12.889Z</time></trkpt><trkpt lat="45.86325394958282" lon="11.156107719187863"><ele>1069.0</ele><time>2026-04-24T15:55:15.89Z</time></trkpt><trkpt lat="45.86319727687171" lon="11.156167104409468"><ele>1069.0</ele><time>2026-04-24T15:55:19.889Z</time></trkpt><trkpt lat="45.86324105620861" lon="11.156257540689342"><ele>1069.0</ele><time>2026-04-24T15:55:22.889Z</time></trkpt><trkpt lat="45.863302911165086" lon="11.156292645668838"><ele>1069.0</ele><time>2026-04-24T15:55:25.889Z</time></trkpt><trkpt lat="45.86325680717481" lon="11.15636896544027"><ele>1069.0</ele><time>2026-04-24T15:55:31.889Z</time></trkpt><trkpt lat="45.86331007207502" lon="11.156425239935682"><ele>1069.0</ele><time>2026-04-24T15:55:34.889Z</time></trkpt><trkpt lat="45.863383417456" lon="11.156466565751051"><ele>1069.0</ele><time>2026-04-24T15:55:37.889Z</time></trkpt><trkpt lat="45.863384459848454" lon="11.156564140772218"><ele>1069.0</ele><time>2026-04-24T15:55:46.889Z</time></trkpt><trkpt lat="45.86333544526642" lon="11.156644578829068"><ele>1069.0</ele><time>2026-04-24T15:55:53.888Z</time></trkpt><trkpt lat="45.863284936508634" lon="11.15671675570976"><ele>1069.0</ele><time>2026-04-24T15:55:56.888Z</time></trkpt><trkpt lat="45.86321309089416" lon="11.15674041386734"><ele>1069.0</ele><time>2026-04-24T15:55:59.888Z</time></trkpt><trkpt lat="45.863138494242534" lon="11.156720842149177"><ele>1062.1666666666665</ele><time>2026-04-24T15:56:02.888Z</time></trkpt><trkpt lat="45.86305054792589" lon="11.156742850410485"><ele>1055.3333333333333</ele><time>2026-04-24T15:56:05.888Z</time></trkpt><trkpt lat="45.86298176871741" lon="11.156749900058998"><ele>1048.5</ele><time>2026-04-24T15:56:07.888Z</time></trkpt><trkpt lat="45.862901335366764" lon="11.156730137355947"><ele>1041.6666666666667</ele><time>2026-04-24T15:56:09.888Z</time></trkpt><trkpt lat="45.86283973327594" lon="11.156797787120675"><ele>1034.8333333333335</ele><time>2026-04-24T15:56:11.888Z</time></trkpt><trkpt lat="45.862808415279595" lon="11.156922859526292"><ele>1028.0</ele><time>2026-04-24T15:56:14.888Z</time></trkpt><trkpt lat="45.86273136545751" lon="11.157003020177275"><ele>1028.0</ele><time>2026-04-24T15:56:16.888Z</time></trkpt><trkpt lat="45.86263748219462" lon="11.15704673232142"><ele>1028.0</ele><time>2026-04-24T15:56:18.888Z</time></trkpt><trkpt lat="45.86251936456829" lon="11.15710151544835"><ele>1028.0</ele><time>2026-04-24T15:56:20.888Z</time></trkpt><trkpt lat="45.86244620573527" lon="11.157153608435065"><ele>1028.0</ele><time>2026-04-24T15:56:21.888Z</time></trkpt><trkpt lat="45.86239595951038" lon="11.157243842991319"><ele>1028.0</ele><time>2026-04-24T15:56:22.888Z</time></trkpt><trkpt lat="45.86234287091788" lon="11.157293650244833"><ele>1028.0</ele><time>2026-04-24T15:56:23.888Z</time></trkpt><trkpt lat="45.862319793777345" lon="11.157394577015257"><ele>1022.3333333333334</ele><time>2026-04-24T15:56:25.888Z</time></trkpt><trkpt lat="45.86234975246895" lon="11.157514587573965"><ele>1016.6666666666667</ele><time>2026-04-24T15:56:26.888Z</time></trkpt><trkpt lat="45.862352427747844" lon="11.157624075058964"><ele>1011.0</ele><time>2026-04-24T15:56:27.888Z</time></trkpt><trkpt lat="45.862321428756495" lon="11.157775137100865"><ele>1005.3333333333333</ele><time>2026-04-24T15:56:29.888Z</time></trkpt><trkpt lat="45.86229383431149" lon="11.157897397630293"><ele>999.6666666666666</ele><time>2026-04-24T15:56:31.888Z</time></trkpt><trkpt lat="45.86228006699072" lon="11.158003244380092"><ele>994.0</ele><time>2026-04-24T15:56:32.888Z</time></trkpt><trkpt lat="45.86225564154061" lon="11.158100248121363"><ele>990.3333333333333</ele><time>2026-04-24T15:56:33.888Z</time></trkpt><trkpt lat="45.86224839485408" lon="11.1582450908676"><ele>986.6666666666666</ele><time>2026-04-24T15:56:35.888Z</time></trkpt><trkpt lat="45.86221984661471" lon="11.158343468164567"><ele>983.0</ele><time>2026-04-24T15:56:38.887Z</time></trkpt><trkpt lat="45.86219074282977" lon="11.158450024398448"><ele>979.3333333333333</ele><time>2026-04-24T15:56:41.887Z</time></trkpt><trkpt lat="45.86221444639061" lon="11.158550752864995"><ele>975.6666666666666</ele><time>2026-04-24T15:56:44.887Z</time></trkpt><trkpt lat="45.86219788030029" lon="11.158641220968311"><ele>972.0</ele><time>2026-04-24T15:56:48.887Z</time></trkpt><trkpt lat="45.86220534351582" lon="11.158744049669455"><ele>972.0</ele><time>2026-04-24T15:56:50.887Z</time></trkpt><trkpt lat="45.8622413048634" lon="11.158843398423771"><ele>972.0</ele><time>2026-04-24T15:56:52.887Z</time></trkpt><trkpt lat="45.86226541127494" lon="11.158956612370906"><ele>972.0</ele><time>2026-04-24T15:56:54.887Z</time></trkpt><trkpt lat="45.86230672909456" lon="11.159052925068785"><ele>972.0</ele><time>2026-04-24T15:56:56.887Z</time></trkpt><trkpt lat="45.86237992413859" lon="11.159128881551117"><ele>972.0</ele><time>2026-04-24T15:56:58.887Z</time></trkpt><trkpt lat="45.86241594130564" lon="11.159204721155357"><ele>972.0</ele><time>2026-04-24T15:57:00.887Z</time></trkpt><trkpt lat="45.86246942708742" lon="11.159261821386396"><ele>970.0</ele><time>2026-04-24T15:57:02.887Z</time></trkpt><trkpt lat="45.86250545972685" lon="11.159336172262005"><ele>968.0</ele><time>2026-04-24T15:57:05.889Z</time></trkpt><trkpt lat="45.86255917063217" lon="11.159412837708125"><ele>966.0</ele><time>2026-04-24T15:57:09.888Z</time></trkpt><trkpt lat="45.862582020430935" lon="11.159538670243533"><ele>964.0</ele><time>2026-04-24T15:57:12.888Z</time></trkpt><trkpt lat="45.86264780806821" lon="11.159641035284526"><ele>962.0</ele><time>2026-04-24T15:57:14.887Z</time></trkpt><trkpt lat="45.862691115133515" lon="11.15970833059172"><ele>960.0</ele><time>2026-04-24T15:57:15.887Z</time></trkpt><trkpt lat="45.86275670735006" lon="11.159796474269303"><ele>952.4</ele><time>2026-04-24T15:57:16.887Z</time></trkpt><trkpt lat="45.86281272563114" lon="11.159905523770464"><ele>944.8</ele><time>2026-04-24T15:57:17.887Z</time></trkpt><trkpt lat="45.862859445943386" lon="11.160049677693756"><ele>937.2</ele><time>2026-04-24T15:57:18.887Z</time></trkpt><trkpt lat="45.86292272104161" lon="11.160185663282256"><ele>929.6</ele><time>2026-04-24T15:57:19.886Z</time></trkpt><trkpt lat="45.86298629710523" lon="11.160313529652816"><ele>922.0</ele><time>2026-04-24T15:57:20.886Z</time></trkpt><trkpt lat="45.86303767430117" lon="11.160432688301988"><ele>922.0</ele><time>2026-04-24T15:57:21.886Z</time></trkpt><trkpt lat="45.86309858625401" lon="11.160554536675628"><ele>922.0</ele><time>2026-04-24T15:57:22.886Z</time></trkpt><trkpt lat="45.86320314366831" lon="11.160655867919585"><ele>922.0</ele><time>2026-04-24T15:57:23.886Z</time></trkpt><trkpt lat="45.86328031507575" lon="11.160736981630732"><ele>922.0</ele><time>2026-04-24T15:57:24.886Z</time></trkpt><trkpt lat="45.863335337518876" lon="11.160820557128995"><ele>922.0</ele><time>2026-04-24T15:57:25.886Z</time></trkpt><trkpt lat="45.86338145426483" lon="11.160939264016742"><ele>922.8</ele><time>2026-04-24T15:57:26.886Z</time></trkpt><trkpt lat="45.86341270480182" lon="11.16105029861856"><ele>923.6</ele><time>2026-04-24T15:57:27.886Z</time></trkpt><trkpt lat="45.863456640937144" lon="11.161147984633264"><ele>924.3999999999999</ele><time>2026-04-24T15:57:28.886Z</time></trkpt><trkpt lat="45.86350095604968" lon="11.16125957471896"><ele>925.1999999999999</ele><time>2026-04-24T15:57:29.886Z</time></trkpt><trkpt lat="45.86355249704809" lon="11.161411426293325"><ele>926.0</ele><time>2026-04-24T15:57:30.886Z</time></trkpt><trkpt lat="45.86359501591548" lon="11.161532341513123"><ele>921.5000000000001</ele><time>2026-04-24T15:57:31.885Z</time></trkpt><trkpt lat="45.863657503157874" lon="11.16165275398044"><ele>917.0</ele><time>2026-04-24T15:57:33.885Z</time></trkpt><trkpt lat="45.86364664622275" lon="11.161746641786635"><ele>912.5</ele><time>2026-04-24T15:57:34.885Z</time></trkpt><trkpt lat="45.863598794018976" lon="11.161843371290246"><ele>908.0</ele><time>2026-04-24T15:57:35.885Z</time></trkpt><trkpt lat="45.86355972522159" lon="11.16194232664757"><ele>903.5000000000001</ele><time>2026-04-24T15:57:36.885Z</time></trkpt><trkpt lat="45.863540949187446" lon="11.162053469561442"><ele>899.0</ele><time>2026-04-24T15:57:37.885Z</time></trkpt><trkpt lat="45.86350735223575" lon="11.162151032003196"><ele>900.5714285714284</ele><time>2026-04-24T15:57:38.885Z</time></trkpt><trkpt lat="45.86343580572297" lon="11.162183170054695"><ele>902.1428571428571</ele><time>2026-04-24T15:57:40.885Z</time></trkpt><trkpt lat="45.8633708924269" lon="11.16225289092044"><ele>903.7142857142857</ele><time>2026-04-24T15:57:46.885Z</time></trkpt><trkpt lat="45.86335969814033" lon="11.162353677044678"><ele>905.2857142857142</ele><time>2026-04-24T15:57:52.884Z</time></trkpt><trkpt lat="45.86333448560513" lon="11.162447483740003"><ele>906.8571428571429</ele><time>2026-04-24T15:57:56.884Z</time></trkpt><trkpt lat="45.86331651911914" lon="11.16254990920552"><ele>908.4285714285714</ele><time>2026-04-24T15:58:12.884Z</time></trkpt><trkpt lat="45.863285852034124" lon="11.162451122090543"><ele>910.0</ele><time>2026-04-24T15:58:47.883Z</time></trkpt><trkpt lat="45.863235332627134" lon="11.162505597671826"><ele>910.0</ele><time>2026-04-24T15:59:06.883Z</time></trkpt><trkpt lat="45.863233585181995" lon="11.162412931963086"><ele>910.0</ele><time>2026-04-24T15:59:25.883Z</time></trkpt><trkpt lat="45.86327604508486" lon="11.162489881688288"><ele>910.0</ele><time>2026-04-24T15:59:38.882Z</time></trkpt><trkpt lat="45.863208227318346" lon="11.162416722272727"><ele>910.0</ele><time>2026-04-24T15:59:58.882Z</time></trkpt><trkpt lat="45.863168683011665" lon="11.162320135454177"><ele>910.0</ele><time>2026-04-24T16:00:02.882Z</time></trkpt><trkpt lat="45.86335522559905" lon="11.162324278076616"><ele>908.4285714285714</ele><time>2026-04-24T16:00:31.881Z</time></trkpt><trkpt lat="45.86329458953491" lon="11.162299884677564"><ele>906.8571428571429</ele><time>2026-04-24T16:00:43.881Z</time></trkpt><trkpt lat="45.86323142213658" lon="11.162249806570031"><ele>905.2857142857142</ele><time>2026-04-24T16:00:50.881Z</time></trkpt><trkpt lat="45.86321672742386" lon="11.162350770115035"><ele>903.7142857142857</ele><time>2026-04-24T16:01:19.882Z</time></trkpt><trkpt lat="45.86328450828457" lon="11.16234904826359"><ele>902.1428571428571</ele><time>2026-04-24T16:01:53.881Z</time></trkpt><trkpt lat="45.863349029978394" lon="11.162308885212404"><ele>900.5714285714284</ele><time>2026-04-24T16:02:03.881Z</time></trkpt><trkpt lat="45.86340869045943" lon="11.162276638273305"><ele>898.9999999999999</ele><time>2026-04-24T16:02:21.88Z</time></trkpt><trkpt lat="45.8634654347899" lon="11.16219819471967"><ele>898.4285714285713</ele><time>2026-04-24T16:02:26.88Z</time></trkpt><trkpt lat="45.86344281211053" lon="11.162301317596608"><ele>897.8571428571429</ele><time>2026-04-24T16:02:46.88Z</time></trkpt><trkpt lat="45.86346102788863" lon="11.162392523181751"><ele>897.2857142857142</ele><time>2026-04-24T16:02:51.88Z</time></trkpt><trkpt lat="45.86343694478842" lon="11.16249502468168"><ele>896.7142857142857</ele><time>2026-04-24T16:02:58.879Z</time></trkpt><trkpt lat="45.8634418134055" lon="11.16259764104141"><ele>896.1428571428571</ele><time>2026-04-24T16:03:03.879Z</time></trkpt><trkpt lat="45.86343862445916" lon="11.162698718493141"><ele>895.5714285714286</ele><time>2026-04-24T16:03:07.879Z</time></trkpt><trkpt lat="45.86342946863675" lon="11.16279483705195"><ele>895.0</ele><time>2026-04-24T16:03:11.879Z</time></trkpt><trkpt lat="45.86341606230035" lon="11.162893631177438"><ele>895.0</ele><time>2026-04-24T16:03:16.879Z</time></trkpt><trkpt lat="45.863412082523126" lon="11.162999811666161"><ele>895.0</ele><time>2026-04-24T16:03:19.879Z</time></trkpt><trkpt lat="45.86349411294182" lon="11.163039759828562"><ele>895.0</ele><time>2026-04-24T16:03:36.881Z</time></trkpt><trkpt lat="45.86355723730162" lon="11.163099347289176"><ele>895.0</ele><time>2026-04-24T16:03:47.88Z</time></trkpt><trkpt lat="45.86359121106257" lon="11.163194065325271"><ele>895.0</ele><time>2026-04-24T16:03:50.88Z</time></trkpt><trkpt lat="45.86360752809076" lon="11.163282822081937"><ele>895.0</ele><time>2026-04-24T16:03:55.88Z</time></trkpt><trkpt lat="45.86366784174716" lon="11.163340172316786"><ele>895.0</ele><time>2026-04-24T16:03:59.88Z</time></trkpt><trkpt lat="45.86371979075713" lon="11.16341850729002"><ele>891.2</ele><time>2026-04-24T16:04:01.88Z</time></trkpt><trkpt lat="45.86378621712593" lon="11.163518391686486"><ele>887.4</ele><time>2026-04-24T16:04:03.88Z</time></trkpt><trkpt lat="45.86384967891796" lon="11.163604292568795"><ele>883.5999999999999</ele><time>2026-04-24T16:04:05.88Z</time></trkpt><trkpt lat="45.863931152724184" lon="11.163686035562478"><ele>879.8</ele><time>2026-04-24T16:04:07.88Z</time></trkpt><trkpt lat="45.86396901864898" lon="11.16376943430215"><ele>876.0</ele><time>2026-04-24T16:04:09.88Z</time></trkpt><trkpt lat="45.864034192538654" lon="11.16388623327721"><ele>876.0</ele><time>2026-04-24T16:04:11.88Z</time></trkpt><trkpt lat="45.86409337102107" lon="11.164021966447987"><ele>876.0</ele><time>2026-04-24T16:04:13.88Z</time></trkpt><trkpt lat="45.8641737626615" lon="11.164111571998758"><ele>876.0</ele><time>2026-04-24T16:04:15.88Z</time></trkpt><trkpt lat="45.864238137771686" lon="11.164189063990179"><ele>876.0</ele><time>2026-04-24T16:04:18.88Z</time></trkpt><trkpt lat="45.864284591183036" lon="11.164250398250193"><ele>876.0</ele><time>2026-04-24T16:04:19.88Z</time></trkpt><trkpt lat="45.86434707387132" lon="11.164326929290672"><ele>876.0</ele><time>2026-04-24T16:04:21.88Z</time></trkpt><trkpt lat="45.86443817074262" lon="11.16440099076216"><ele>868.1999999999999</ele><time>2026-04-24T16:04:23.88Z</time></trkpt><trkpt lat="45.86454797316673" lon="11.164499048133093"><ele>860.3999999999999</ele><time>2026-04-24T16:04:25.879Z</time></trkpt><trkpt lat="45.864604910215235" lon="11.164572495433132"><ele>852.6</ele><time>2026-04-24T16:04:26.879Z</time></trkpt><trkpt lat="45.864673849450945" lon="11.16465783159469"><ele>844.8</ele><time>2026-04-24T16:04:27.879Z</time></trkpt><trkpt lat="45.86475811639132" lon="11.164781485495514"><ele>837.0</ele><time>2026-04-24T16:04:29.879Z</time></trkpt><trkpt lat="45.86479630866764" lon="11.164887149742334"><ele>834.5</ele><time>2026-04-24T16:04:30.879Z</time></trkpt><trkpt lat="45.864833976619856" lon="11.164964144923438"><ele>832.0</ele><time>2026-04-24T16:04:31.879Z</time></trkpt><trkpt lat="45.8648848597106" lon="11.165072311670736"><ele>829.5</ele><time>2026-04-24T16:04:33.879Z</time></trkpt><trkpt lat="45.86496823774696" lon="11.165218345389336"><ele>827.0</ele><time>2026-04-24T16:04:35.879Z</time></trkpt><trkpt lat="45.86504806278909" lon="11.165271641747037"><ele>824.5</ele><time>2026-04-24T16:04:36.879Z</time></trkpt><trkpt lat="45.86509824668551" lon="11.165330239338719"><ele>822.0</ele><time>2026-04-24T16:04:37.879Z</time></trkpt><trkpt lat="45.86515890892586" lon="11.16540754175074"><ele>818.0</ele><time>2026-04-24T16:04:39.879Z</time></trkpt><trkpt lat="45.865239509300366" lon="11.16551791108781"><ele>814.0</ele><time>2026-04-24T16:04:41.879Z</time></trkpt><trkpt lat="45.865282098815044" lon="11.165590836613639"><ele>810.0</ele><time>2026-04-24T16:04:42.879Z</time></trkpt><trkpt lat="45.86531110011263" lon="11.165682343557435"><ele>806.0</ele><time>2026-04-24T16:04:43.879Z</time></trkpt><trkpt lat="45.86539051785949" lon="11.165791931005803"><ele>802.0</ele><time>2026-04-24T16:04:45.879Z</time></trkpt><trkpt lat="45.86551095268435" lon="11.16586131284093"><ele>799.6</ele><time>2026-04-24T16:04:47.879Z</time></trkpt><trkpt lat="45.86559969758021" lon="11.16591109911942"><ele>797.2</ele><time>2026-04-24T16:04:49.879Z</time></trkpt><trkpt lat="45.86568218916418" lon="11.165931660940768"><ele>794.8</ele><time>2026-04-24T16:04:51.879Z</time></trkpt><trkpt lat="45.86578018067042" lon="11.166041408001114"><ele>792.4</ele><time>2026-04-24T16:04:53.879Z</time></trkpt><trkpt lat="45.86587054881253" lon="11.166100611419024"><ele>790.0</ele><time>2026-04-24T16:04:55.879Z</time></trkpt><trkpt lat="45.865957996804774" lon="11.166104931112674"><ele>785.4999999999999</ele><time>2026-04-24T16:04:57.879Z</time></trkpt><trkpt lat="45.86601898373623" lon="11.166064469432133"><ele>781.0</ele><time>2026-04-24T16:04:59.879Z</time></trkpt><trkpt lat="45.86608105624566" lon="11.166036469969294"><ele>776.5</ele><time>2026-04-24T16:05:01.879Z</time></trkpt><trkpt lat="45.86618262951977" lon="11.166012671357645"><ele>772.0</ele><time>2026-04-24T16:05:03.879Z</time></trkpt><trkpt lat="45.86627210294412" lon="11.165980395871125"><ele>767.5</ele><time>2026-04-24T16:05:05.879Z</time></trkpt><trkpt lat="45.86636965134249" lon="11.166000725187917"><ele>763.0</ele><time>2026-04-24T16:05:07.879Z</time></trkpt><trkpt lat="45.86645171796341" lon="11.166011535331599"><ele>763.0</ele><time>2026-04-24T16:05:08.879Z</time></trkpt><trkpt lat="45.86651567808988" lon="11.166012088922098"><ele>763.0</ele><time>2026-04-24T16:05:09.879Z</time></trkpt><trkpt lat="45.8665703130304" lon="11.166059452671313"><ele>763.0</ele><time>2026-04-24T16:05:11.878Z</time></trkpt><trkpt lat="45.86653484326886" lon="11.166141033672707"><ele>763.0</ele><time>2026-04-24T16:05:23.878Z</time></trkpt><trkpt lat="45.86657260228364" lon="11.166293727622197"><ele>763.0</ele><time>2026-04-24T16:05:47.88Z</time></trkpt><trkpt lat="45.86658872264954" lon="11.166412783881235"><ele>763.0</ele><time>2026-04-24T16:05:48.88Z</time></trkpt><trkpt lat="45.86660820709431" lon="11.166540642029208"><ele>759.8</ele><time>2026-04-24T16:05:49.88Z</time></trkpt><trkpt lat="45.86661429335702" lon="11.166691952842074"><ele>756.5999999999999</ele><time>2026-04-24T16:05:50.88Z</time></trkpt><trkpt lat="45.86659698673459" lon="11.166864000486957"><ele>753.4000000000001</ele><time>2026-04-24T16:05:51.88Z</time></trkpt><trkpt lat="45.866568284981966" lon="11.167013004204932"><ele>750.2</ele><time>2026-04-24T16:05:52.88Z</time></trkpt><trkpt lat="45.86653448292826" lon="11.167160034681967"><ele>747.0</ele><time>2026-04-24T16:05:53.88Z</time></trkpt><trkpt lat="45.86651109408561" lon="11.167313649229193"><ele>744.25</ele><time>2026-04-24T16:05:54.88Z</time></trkpt><trkpt lat="45.866483206123156" lon="11.1674662290328"><ele>741.5</ele><time>2026-04-24T16:05:55.88Z</time></trkpt><trkpt lat="45.866475217908174" lon="11.167627531617882"><ele>738.75</ele><time>2026-04-24T16:05:56.88Z</time></trkpt><trkpt lat="45.866457398553244" lon="11.167781870683909"><ele>736.0</ele><time>2026-04-24T16:05:57.88Z</time></trkpt><trkpt lat="45.866516881465735" lon="11.167931047630699"><ele>736.0</ele><time>2026-04-24T16:05:58.88Z</time></trkpt><trkpt lat="45.866554085314654" lon="11.168089108178"><ele>736.0</ele><time>2026-04-24T16:05:59.88Z</time></trkpt><trkpt lat="45.866619552168665" lon="11.168216079182416"><ele>736.0</ele><time>2026-04-24T16:06:00.88Z</time></trkpt><trkpt lat="45.866695526888314" lon="11.168327199926377"><ele>736.0</ele><time>2026-04-24T16:06:01.88Z</time></trkpt><trkpt lat="45.86676444872268" lon="11.168438505984513"><ele>736.0</ele><time>2026-04-24T16:06:02.879Z</time></trkpt><trkpt lat="45.86681028917961" lon="11.168574368681604"><ele>729.75</ele><time>2026-04-24T16:06:03.879Z</time></trkpt><trkpt lat="45.86682984360884" lon="11.168747519002634"><ele>723.5</ele><time>2026-04-24T16:06:04.879Z</time></trkpt><trkpt lat="45.86685567206036" lon="11.168942140639599"><ele>717.25</ele><time>2026-04-24T16:06:05.879Z</time></trkpt><trkpt lat="45.866874776447176" lon="11.169145844684618"><ele>711.0</ele><time>2026-04-24T16:06:06.879Z</time></trkpt><trkpt lat="45.86690556741438" lon="11.169342393350433"><ele>709.25</ele><time>2026-04-24T16:06:07.879Z</time></trkpt><trkpt lat="45.86693635754611" lon="11.169534971983078"><ele>707.5</ele><time>2026-04-24T16:06:08.879Z</time></trkpt><trkpt lat="45.86696172704773" lon="11.169711517722005"><ele>705.75</ele><time>2026-04-24T16:06:09.879Z</time></trkpt><trkpt lat="45.86698801797342" lon="11.169902002201125"><ele>704.0</ele><time>2026-04-24T16:06:10.879Z</time></trkpt><trkpt lat="45.86700629897702" lon="11.170087938691418"><ele>703.2</ele><time>2026-04-24T16:06:11.879Z</time></trkpt><trkpt lat="45.86696265576224" lon="11.170251038662247"><ele>702.4000000000001</ele><time>2026-04-24T16:06:12.879Z</time></trkpt><trkpt lat="45.86690942094757" lon="11.170379185832447"><ele>701.6</ele><time>2026-04-24T16:06:13.879Z</time></trkpt><trkpt lat="45.866820059170585" lon="11.170435540459643"><ele>700.8</ele><time>2026-04-24T16:06:14.879Z</time></trkpt><trkpt lat="45.866730447016415" lon="11.17047371111937"><ele>700.0</ele><time>2026-04-24T16:06:15.879Z</time></trkpt><trkpt lat="45.866603027971735" lon="11.170543832893939"><ele>700.5</ele><time>2026-04-24T16:06:16.879Z</time></trkpt><trkpt lat="45.86648045284855" lon="11.170626424740693"><ele>701.0</ele><time>2026-04-24T16:06:17.879Z</time></trkpt><trkpt lat="45.86637851973799" lon="11.170765134089377"><ele>701.5</ele><time>2026-04-24T16:06:18.879Z</time></trkpt><trkpt lat="45.86629472544326" lon="11.17095816410623"><ele>702.0</ele><time>2026-04-24T16:06:19.879Z</time></trkpt><trkpt lat="45.86620947466954" lon="11.171156413935448"><ele>702.0</ele><time>2026-04-24T16:06:20.879Z</time></trkpt><trkpt lat="45.86613028199979" lon="11.171329774175682"><ele>702.0</ele><time>2026-04-24T16:06:21.879Z</time></trkpt><trkpt lat="45.86606446056255" lon="11.171506493147664"><ele>702.0</ele><time>2026-04-24T16:06:22.879Z</time></trkpt><trkpt lat="45.865992769399455" lon="11.17170141416045"><ele>702.0</ele><time>2026-04-24T16:06:23.879Z</time></trkpt><trkpt lat="45.86597316411948" lon="11.171928904467807"><ele>700.3333333333334</ele><time>2026-04-24T16:06:24.879Z</time></trkpt><trkpt lat="45.86594451422629" lon="11.172149778197504"><ele>698.6666666666667</ele><time>2026-04-24T16:06:25.879Z</time></trkpt><trkpt lat="45.865928020572824" lon="11.172364765149473"><ele>697.0</ele><time>2026-04-24T16:06:26.879Z</time></trkpt><trkpt lat="45.86589336277199" lon="11.172573214343364"><ele>697.0</ele><time>2026-04-24T16:06:27.879Z</time></trkpt><trkpt lat="45.865826787846714" lon="11.172771253382077"><ele>697.0</ele><time>2026-04-24T16:06:28.879Z</time></trkpt><trkpt lat="45.86575770343946" lon="11.172978681084684"><ele>697.0</ele><time>2026-04-24T16:06:29.879Z</time></trkpt><trkpt lat="45.865693943532214" lon="11.173171452507557"><ele>692.75</ele><time>2026-04-24T16:06:30.879Z</time></trkpt><trkpt lat="45.865643266210654" lon="11.173367984531318"><ele>688.5</ele><time>2026-04-24T16:06:31.879Z</time></trkpt><trkpt lat="45.86557779741558" lon="11.17354338537296"><ele>684.25</ele><time>2026-04-24T16:06:32.879Z</time></trkpt><trkpt lat="45.86550545639496" lon="11.173727753314825"><ele>680.0</ele><time>2026-04-24T16:06:33.879Z</time></trkpt><trkpt lat="45.865417620160564" lon="11.173902951896231"><ele>682.25</ele><time>2026-04-24T16:06:34.879Z</time></trkpt><trkpt lat="45.8653352717459" lon="11.174070969342376"><ele>684.5</ele><time>2026-04-24T16:06:35.879Z</time></trkpt><trkpt lat="45.86518970691495" lon="11.174127309451617"><ele>686.75</ele><time>2026-04-24T16:06:36.879Z</time></trkpt><trkpt lat="45.865082946845895" lon="11.17424553113948"><ele>689.0</ele><time>2026-04-24T16:06:37.879Z</time></trkpt><trkpt lat="45.864975804095245" lon="11.174373927953553"><ele>689.0</ele><time>2026-04-24T16:06:38.879Z</time></trkpt><trkpt lat="45.864866735196244" lon="11.174535470570799"><ele>689.0</ele><time>2026-04-24T16:06:39.879Z</time></trkpt><trkpt lat="45.86481324133869" lon="11.174729136206384"><ele>689.0</ele><time>2026-04-24T16:06:40.879Z</time></trkpt><trkpt lat="45.86474324860763" lon="11.174896107789033"><ele>689.0</ele><time>2026-04-24T16:06:41.879Z</time></trkpt><trkpt lat="45.86472106349545" lon="11.175083621061237"><ele>683.5</ele><time>2026-04-24T16:06:42.879Z</time></trkpt><trkpt lat="45.86471192570793" lon="11.175274526898267"><ele>678.0</ele><time>2026-04-24T16:06:43.879Z</time></trkpt><trkpt lat="45.86470274555348" lon="11.175457451999371"><ele>672.5</ele><time>2026-04-24T16:06:44.879Z</time></trkpt><trkpt lat="45.864704657608726" lon="11.175632168679735"><ele>667.0</ele><time>2026-04-24T16:06:45.879Z</time></trkpt><trkpt lat="45.86471337255506" lon="11.175802588920526"><ele>665.0</ele><time>2026-04-24T16:06:46.879Z</time></trkpt><trkpt lat="45.86476368645413" lon="11.175946390337073"><ele>663.0</ele><time>2026-04-24T16:06:47.879Z</time></trkpt><trkpt lat="45.86483279617459" lon="11.176068619090417"><ele>661.0</ele><time>2026-04-24T16:06:48.878Z</time></trkpt><trkpt lat="45.864932600729745" lon="11.176155416438187"><ele>659.0</ele><time>2026-04-24T16:06:49.878Z</time></trkpt><trkpt lat="45.86502299909784" lon="11.176266898237692"><ele>659.0</ele><time>2026-04-24T16:06:50.878Z</time></trkpt><trkpt lat="45.8651082034243" lon="11.176347471011853"><ele>659.0</ele><time>2026-04-24T16:06:51.878Z</time></trkpt><trkpt lat="45.86520518826815" lon="11.176421010567593"><ele>659.0</ele><time>2026-04-24T16:06:52.878Z</time></trkpt><trkpt lat="45.86532183875979" lon="11.176394968426214"><ele>659.0</ele><time>2026-04-24T16:06:53.878Z</time></trkpt><trkpt lat="45.86542543552394" lon="11.176352635710733"><ele>659.0</ele><time>2026-04-24T16:06:54.878Z</time></trkpt><trkpt lat="45.86552403961902" lon="11.176293989610905"><ele>659.25</ele><time>2026-04-24T16:06:55.878Z</time></trkpt><trkpt lat="45.86556485488074" lon="11.176160848457805"><ele>659.5</ele><time>2026-04-24T16:06:56.878Z</time></trkpt><trkpt lat="45.86560608363084" lon="11.176009196681415"><ele>659.75</ele><time>2026-04-24T16:06:57.878Z</time></trkpt><trkpt lat="45.865659446292014" lon="11.175825359389611"><ele>660.0</ele><time>2026-04-24T16:06:58.878Z</time></trkpt><trkpt lat="45.86571929657717" lon="11.175686429394425"><ele>660.0</ele><time>2026-04-24T16:06:59.878Z</time></trkpt><trkpt lat="45.86580897545386" lon="11.175573841474694"><ele>660.0</ele><time>2026-04-24T16:07:00.878Z</time></trkpt><trkpt lat="45.865912231362074" lon="11.175464526842447"><ele>660.0</ele><time>2026-04-24T16:07:01.878Z</time></trkpt><trkpt lat="45.86599884327276" lon="11.175318413204822"><ele>660.0</ele><time>2026-04-24T16:07:02.878Z</time></trkpt><trkpt lat="45.86609316518608" lon="11.175164865581488"><ele>659.0</ele><time>2026-04-24T16:07:03.878Z</time></trkpt><trkpt lat="45.86619779604963" lon="11.175007678978554"><ele>658.0</ele><time>2026-04-24T16:07:04.878Z</time></trkpt><trkpt lat="45.866317910486046" lon="11.174866823020599"><ele>657.0</ele><time>2026-04-24T16:07:05.878Z</time></trkpt><trkpt lat="45.86645512708641" lon="11.17479222591317"><ele>657.0</ele><time>2026-04-24T16:07:06.878Z</time></trkpt><trkpt lat="45.866606917326806" lon="11.174707892720432"><ele>657.0</ele><time>2026-04-24T16:07:07.878Z</time></trkpt><trkpt lat="45.86675664397102" lon="11.174625941812097"><ele>657.0</ele><time>2026-04-24T16:07:08.878Z</time></trkpt><trkpt lat="45.866895741391616" lon="11.174578512583224"><ele>665.75</ele><time>2026-04-24T16:07:09.878Z</time></trkpt><trkpt lat="45.86702801470237" lon="11.174560888623157"><ele>674.5</ele><time>2026-04-24T16:07:10.878Z</time></trkpt><trkpt lat="45.86713655044764" lon="11.174487253686358"><ele>683.25</ele><time>2026-04-24T16:07:11.878Z</time></trkpt><trkpt lat="45.86724226827802" lon="11.174413787703827"><ele>692.0</ele><time>2026-04-24T16:07:12.878Z</time></trkpt><trkpt lat="45.867362186819676" lon="11.174330453286604"><ele>692.0</ele><time>2026-04-24T16:07:13.878Z</time></trkpt><trkpt lat="45.86749470204197" lon="11.17423018636361"><ele>692.0</ele><time>2026-04-24T16:07:14.878Z</time></trkpt><trkpt lat="45.867479188948415" lon="11.173728433742284"><ele>689.5</ele><time>2026-04-24T16:07:15.878Z</time></trkpt><trkpt lat="45.86753866472705" lon="11.173526565744492"><ele>687.0</ele><time>2026-04-24T16:07:16.878Z</time></trkpt><trkpt lat="45.86762359249971" lon="11.173386084238832"><ele>684.5</ele><time>2026-04-24T16:07:17.878Z</time></trkpt><trkpt lat="45.867739129061185" lon="11.173254569090714"><ele>682.0</ele><time>2026-04-24T16:07:18.878Z</time></trkpt><trkpt lat="45.86787851200735" lon="11.173127210225218"><ele>682.0</ele><time>2026-04-24T16:07:19.878Z</time></trkpt><trkpt lat="45.86801025188427" lon="11.172970931594683"><ele>682.0</ele><time>2026-04-24T16:07:20.878Z</time></trkpt><trkpt lat="45.86813960760763" lon="11.172788231460816"><ele>682.0</ele><time>2026-04-24T16:07:21.878Z</time></trkpt><trkpt lat="45.86827449826262" lon="11.172642203434968"><ele>682.0</ele><time>2026-04-24T16:07:22.878Z</time></trkpt><trkpt lat="45.86840523373974" lon="11.172566154328576"><ele>682.0</ele><time>2026-04-24T16:07:23.878Z</time></trkpt><trkpt lat="45.86854427742116" lon="11.172528497024532"><ele>682.0</ele><time>2026-04-24T16:07:24.878Z</time></trkpt><trkpt lat="45.86868153098038" lon="11.172433837026356"><ele>682.0</ele><time>2026-04-24T16:07:25.878Z</time></trkpt><trkpt lat="45.86879855146517" lon="11.172259909647835"><ele>686.0</ele><time>2026-04-24T16:07:26.878Z</time></trkpt><trkpt lat="45.86891839030254" lon="11.172060965725715"><ele>690.0</ele><time>2026-04-24T16:07:27.878Z</time></trkpt><trkpt lat="45.86907608700002" lon="11.171976482236117"><ele>694.0</ele><time>2026-04-24T16:07:28.878Z</time></trkpt><trkpt lat="45.869184870545304" lon="11.171823264289781"><ele>694.0</ele><time>2026-04-24T16:07:29.878Z</time></trkpt><trkpt lat="45.86925026112544" lon="11.17167070859912"><ele>694.0</ele><time>2026-04-24T16:07:30.878Z</time></trkpt><trkpt lat="45.86929901805527" lon="11.171528490790099"><ele>694.0</ele><time>2026-04-24T16:07:31.878Z</time></trkpt><trkpt lat="45.86930205947133" lon="11.171392191121642"><ele>694.0</ele><time>2026-04-24T16:07:32.878Z</time></trkpt><trkpt lat="45.86931377837556" lon="11.171290149855503"><ele>694.0</ele><time>2026-04-24T16:07:33.878Z</time></trkpt><trkpt lat="45.869362820236745" lon="11.171222956457644"><ele>701.25</ele><time>2026-04-24T16:07:34.877Z</time></trkpt><trkpt lat="45.86942566398079" lon="11.171214876597997"><ele>708.5</ele><time>2026-04-24T16:07:35.879Z</time></trkpt><trkpt lat="45.86949347201418" lon="11.171265725581879"><ele>715.75</ele><time>2026-04-24T16:07:37.878Z</time></trkpt><trkpt lat="45.86944049166193" lon="11.17153940663431"><ele>723.0</ele><time>2026-04-24T16:07:39.878Z</time></trkpt><trkpt lat="45.86941321222239" lon="11.171732025222958"><ele>726.25</ele><time>2026-04-24T16:07:40.878Z</time></trkpt><trkpt lat="45.869425623124016" lon="11.171937004963295"><ele>729.5</ele><time>2026-04-24T16:07:41.878Z</time></trkpt><trkpt lat="45.869397416186956" lon="11.172116838319809"><ele>732.75</ele><time>2026-04-24T16:07:42.878Z</time></trkpt><trkpt lat="45.869343688090595" lon="11.172270009826663"><ele>736.0</ele><time>2026-04-24T16:07:43.878Z</time></trkpt><trkpt lat="45.86923877021989" lon="11.172325949399921"><ele>731.4</ele><time>2026-04-24T16:07:44.878Z</time></trkpt><trkpt lat="45.86913936896274" lon="11.17232439826306"><ele>726.8</ele><time>2026-04-24T16:07:45.878Z</time></trkpt><trkpt lat="45.86903134567113" lon="11.172357080824225"><ele>722.1999999999999</ele><time>2026-04-24T16:07:46.878Z</time></trkpt><trkpt lat="45.86895641714072" lon="11.172393034997546"><ele>717.5999999999999</ele><time>2026-04-24T16:07:47.877Z</time></trkpt><trkpt lat="45.86894534887816" lon="11.172566526365213"><ele>713.0</ele><time>2026-04-24T16:07:49.878Z</time></trkpt><trkpt lat="45.86888787515804" lon="11.172664842701161"><ele>713.0</ele><time>2026-04-24T16:07:51.878Z</time></trkpt><trkpt lat="45.86896082403514" lon="11.1727393043718"><ele>713.0</ele><time>2026-04-24T16:07:52.878Z</time></trkpt><trkpt lat="45.868917463447275" lon="11.172806758051735"><ele>713.0</ele><time>2026-04-24T16:07:53.878Z</time></trkpt><trkpt lat="45.86870719984163" lon="11.172632732899444"><ele>713.0</ele><time>2026-04-24T16:07:54.878Z</time></trkpt><trkpt lat="45.86865321900613" lon="11.172530268654167"><ele>713.0</ele><time>2026-04-24T16:07:55.878Z</time></trkpt><trkpt lat="45.86863517347643" lon="11.172840253712124"><ele>713.0</ele><time>2026-04-24T16:07:56.878Z</time></trkpt><trkpt lat="45.86856323817808" lon="11.172934770362057"><ele>713.0</ele><time>2026-04-24T16:07:57.878Z</time></trkpt><trkpt lat="45.86850620268575" lon="11.172991544054877"><ele>713.0</ele><time>2026-04-24T16:07:58.878Z</time></trkpt><trkpt lat="45.86847494039056" lon="11.173084680553687"><ele>713.0</ele><time>2026-04-24T16:08:00.878Z</time></trkpt><trkpt lat="45.86845679643203" lon="11.17317817837149"><ele>713.0</ele><time>2026-04-24T16:08:01.877Z</time></trkpt><trkpt lat="45.86841430860403" lon="11.173248280370698"><ele>713.0</ele><time>2026-04-24T16:08:02.877Z</time></trkpt><trkpt lat="45.868379819160765" lon="11.173359329191767"><ele>713.0</ele><time>2026-04-24T16:08:03.877Z</time></trkpt><trkpt lat="45.868342977335026" lon="11.1734402377361"><ele>713.0</ele><time>2026-04-24T16:08:04.877Z</time></trkpt><trkpt lat="45.86829834184527" lon="11.173555605620724"><ele>713.0</ele><time>2026-04-24T16:08:05.877Z</time></trkpt><trkpt lat="45.86823299637772" lon="11.173662184848936"><ele>713.2</ele><time>2026-04-24T16:08:06.877Z</time></trkpt><trkpt lat="45.868165247919094" lon="11.173780541662696"><ele>713.4</ele><time>2026-04-24T16:08:07.877Z</time></trkpt><trkpt lat="45.86811134135302" lon="11.173890372496972"><ele>713.6</ele><time>2026-04-24T16:08:08.877Z</time></trkpt><trkpt lat="45.8680425267054" lon="11.174030153226965"><ele>713.8000000000001</ele><time>2026-04-24T16:08:09.877Z</time></trkpt><trkpt lat="45.86801004854079" lon="11.174142453996831"><ele>714.0</ele><time>2026-04-24T16:08:10.877Z</time></trkpt><trkpt lat="45.86798562831792" lon="11.174285027707452"><ele>718.75</ele><time>2026-04-24T16:08:12.877Z</time></trkpt><trkpt lat="45.86799716711517" lon="11.1744853139678"><ele>723.5</ele><time>2026-04-24T16:08:14.877Z</time></trkpt><trkpt lat="45.86797465862914" lon="11.174573285523191"><ele>728.25</ele><time>2026-04-24T16:08:15.877Z</time></trkpt><trkpt lat="45.86790233369093" lon="11.174681790804863"><ele>733.0</ele><time>2026-04-24T16:08:17.877Z</time></trkpt><trkpt lat="45.867775360553246" lon="11.174811321540565"><ele>731.8</ele><time>2026-04-24T16:08:19.877Z</time></trkpt><trkpt lat="45.86769880231501" lon="11.174857089586357"><ele>730.5999999999999</ele><time>2026-04-24T16:08:20.877Z</time></trkpt><trkpt lat="45.867679653137245" lon="11.17501769177536"><ele>729.4000000000001</ele><time>2026-04-24T16:08:22.877Z</time></trkpt><trkpt lat="45.86763493494452" lon="11.17512644035989"><ele>728.2</ele><time>2026-04-24T16:08:24.877Z</time></trkpt><trkpt lat="45.867598214645426" lon="11.175272138236583"><ele>727.0</ele><time>2026-04-24T16:08:26.877Z</time></trkpt><trkpt lat="45.867627252820064" lon="11.175411509650106"><ele>727.0</ele><time>2026-04-24T16:08:28.877Z</time></trkpt><trkpt lat="45.86762172651635" lon="11.175520286682225"><ele>727.0</ele><time>2026-04-24T16:08:29.877Z</time></trkpt><trkpt lat="45.867538432671054" lon="11.175600964024095"><ele>727.0</ele><time>2026-04-24T16:08:31.877Z</time></trkpt><trkpt lat="45.86745927359243" lon="11.175619402288099"><ele>727.0</ele><time>2026-04-24T16:08:32.877Z</time></trkpt><trkpt lat="45.86739403173123" lon="11.175679542956603"><ele>727.0</ele><time>2026-04-24T16:08:33.877Z</time></trkpt><trkpt lat="45.867344672493545" lon="11.175844447395109"><ele>732.6</ele><time>2026-04-24T16:08:35.877Z</time></trkpt><trkpt lat="45.86731848766192" lon="11.17595837086578"><ele>738.2</ele><time>2026-04-24T16:08:36.877Z</time></trkpt><trkpt lat="45.867267835359286" lon="11.176091487731366"><ele>743.8</ele><time>2026-04-24T16:08:37.877Z</time></trkpt><trkpt lat="45.86722284860574" lon="11.176223331969055"><ele>749.4</ele><time>2026-04-24T16:08:38.877Z</time></trkpt><trkpt lat="45.86718003190509" lon="11.176324681855908"><ele>755.0</ele><time>2026-04-24T16:08:39.877Z</time></trkpt><trkpt lat="45.86713587884323" lon="11.17643615634735"><ele>761.75</ele><time>2026-04-24T16:08:40.877Z</time></trkpt><trkpt lat="45.8670968399966" lon="11.176558420427927"><ele>768.5</ele><time>2026-04-24T16:08:41.877Z</time></trkpt><trkpt lat="45.86708502912452" lon="11.176730988229494"><ele>775.25</ele><time>2026-04-24T16:08:42.877Z</time></trkpt><trkpt lat="45.867206782359716" lon="11.1766320666154"><ele>782.0</ele><time>2026-04-24T16:08:47.876Z</time></trkpt><trkpt lat="45.86730457631644" lon="11.176555417500525"><ele>783.5</ele><time>2026-04-24T16:08:48.876Z</time></trkpt><trkpt lat="45.867434118607115" lon="11.176482794682684"><ele>785.0</ele><time>2026-04-24T16:08:49.876Z</time></trkpt><trkpt lat="45.86753450379773" lon="11.176341194982468"><ele>786.5</ele><time>2026-04-24T16:08:50.876Z</time></trkpt><trkpt lat="45.86765323370221" lon="11.176237995352894"><ele>788.0</ele><time>2026-04-24T16:08:51.876Z</time></trkpt><trkpt lat="45.86773320072404" lon="11.17602845020067"><ele>788.0</ele><time>2026-04-24T16:08:52.876Z</time></trkpt><trkpt lat="45.867795188565495" lon="11.175828493311652"><ele>788.0</ele><time>2026-04-24T16:08:53.876Z</time></trkpt><trkpt lat="45.86801049870291" lon="11.175812690214588"><ele>788.0</ele><time>2026-04-24T16:08:54.876Z</time></trkpt><trkpt lat="45.86813353332181" lon="11.175726635481745"><ele>791.75</ele><time>2026-04-24T16:08:55.876Z</time></trkpt><trkpt lat="45.8682485445868" lon="11.175632044108712"><ele>795.5</ele><time>2026-04-24T16:08:56.876Z</time></trkpt><trkpt lat="45.8683653046167" lon="11.175526338147595"><ele>799.25</ele><time>2026-04-24T16:08:57.876Z</time></trkpt><trkpt lat="45.86846946536718" lon="11.175388580142776"><ele>803.0</ele><time>2026-04-24T16:08:58.876Z</time></trkpt><trkpt lat="45.86857343408584" lon="11.175251158537945"><ele>803.0</ele><time>2026-04-24T16:08:59.876Z</time></trkpt><trkpt lat="45.86866940372712" lon="11.175089211978584"><ele>803.0</ele><time>2026-04-24T16:09:00.876Z</time></trkpt><trkpt lat="45.8687795783052" lon="11.174960959206024"><ele>803.0</ele><time>2026-04-24T16:09:01.876Z</time></trkpt><trkpt lat="45.86886384514555" lon="11.174770897818684"><ele>803.0</ele><time>2026-04-24T16:09:02.876Z</time></trkpt><trkpt lat="45.86894503479607" lon="11.17456663313759"><ele>792.3333333333334</ele><time>2026-04-24T16:09:03.876Z</time></trkpt><trkpt lat="45.869029006951735" lon="11.174339508050265"><ele>781.6666666666667</ele><time>2026-04-24T16:09:04.876Z</time></trkpt><trkpt lat="45.86914923065596" lon="11.17416087320452"><ele>771.0</ele><time>2026-04-24T16:09:05.876Z</time></trkpt><trkpt lat="45.86924424049196" lon="11.17396838432474"><ele>782.6666666666667</ele><time>2026-04-24T16:09:06.876Z</time></trkpt><trkpt lat="45.869334559206386" lon="11.173780569771717"><ele>794.3333333333334</ele><time>2026-04-24T16:09:07.876Z</time></trkpt><trkpt lat="45.86942162992158" lon="11.173600630967819"><ele>806.0</ele><time>2026-04-24T16:09:08.876Z</time></trkpt><trkpt lat="45.86952891191449" lon="11.173421289287116"><ele>806.0</ele><time>2026-04-24T16:09:09.876Z</time></trkpt><trkpt lat="45.86963418466156" lon="11.173259321537984"><ele>806.0</ele><time>2026-04-24T16:09:10.876Z</time></trkpt><trkpt lat="45.86973952071365" lon="11.173094251407115"><ele>806.0</ele><time>2026-04-24T16:09:11.876Z</time></trkpt><trkpt lat="45.86984466855937" lon="11.172929836428448"><ele>817.6666666666667</ele><time>2026-04-24T16:09:12.876Z</time></trkpt><trkpt lat="45.86995463625029" lon="11.172757884875287"><ele>829.3333333333333</ele><time>2026-04-24T16:09:13.876Z</time></trkpt><trkpt lat="45.870051481637056" lon="11.172570327335064"><ele>841.0</ele><time>2026-04-24T16:09:14.876Z</time></trkpt><trkpt lat="45.87016002376271" lon="11.172388396855984"><ele>829.25</ele><time>2026-04-24T16:09:15.876Z</time></trkpt><trkpt lat="45.87026070324884" lon="11.172227420139702"><ele>817.5</ele><time>2026-04-24T16:09:16.876Z</time></trkpt><trkpt lat="45.87034427932795" lon="11.172060158706504"><ele>805.75</ele><time>2026-04-24T16:09:17.876Z</time></trkpt><trkpt lat="45.8703885675469" lon="11.171876854612053"><ele>794.0</ele><time>2026-04-24T16:09:18.876Z</time></trkpt><trkpt lat="45.8704390120626" lon="11.171673132011593"><ele>788.25</ele><time>2026-04-24T16:09:19.876Z</time></trkpt><trkpt lat="45.87050680420331" lon="11.171511171753973"><ele>782.5</ele><time>2026-04-24T16:09:20.876Z</time></trkpt><trkpt lat="45.870579265102876" lon="11.171346024960183"><ele>776.75</ele><time>2026-04-24T16:09:21.876Z</time></trkpt><trkpt lat="45.870657614588495" lon="11.171212476711489"><ele>771.0</ele><time>2026-04-24T16:09:22.876Z</time></trkpt><trkpt lat="45.87074199473764" lon="11.171079995676667"><ele>771.0</ele><time>2026-04-24T16:09:23.876Z</time></trkpt><trkpt lat="45.870817816767804" lon="11.170938617719234"><ele>771.0</ele><time>2026-04-24T16:09:24.876Z</time></trkpt><trkpt lat="45.87086658842986" lon="11.17077358779658"><ele>771.0</ele><time>2026-04-24T16:09:25.876Z</time></trkpt><trkpt lat="45.870871704652856" lon="11.170565594078697"><ele>771.0</ele><time>2026-04-24T16:09:26.876Z</time></trkpt><trkpt lat="45.87091898515035" lon="11.170384943404766"><ele>775.75</ele><time>2026-04-24T16:09:27.876Z</time></trkpt><trkpt lat="45.87097143835179" lon="11.170205390331125"><ele>780.5</ele><time>2026-04-24T16:09:28.876Z</time></trkpt><trkpt lat="45.87104189004949" lon="11.17002801338352"><ele>785.25</ele><time>2026-04-24T16:09:29.876Z</time></trkpt><trkpt lat="45.87114949924693" lon="11.169893383906219"><ele>790.0</ele><time>2026-04-24T16:09:30.876Z</time></trkpt><trkpt lat="45.87124491373553" lon="11.169722231542199"><ele>790.0</ele><time>2026-04-24T16:09:31.876Z</time></trkpt><trkpt lat="45.87133308840247" lon="11.169526451293146"><ele>790.0</ele><time>2026-04-24T16:09:32.876Z</time></trkpt><trkpt lat="45.87136473610641" lon="11.169296686743621"><ele>790.0</ele><time>2026-04-24T16:09:33.875Z</time></trkpt><trkpt lat="45.87139831307926" lon="11.169074351965063"><ele>783.6666666666666</ele><time>2026-04-24T16:09:34.875Z</time></trkpt><trkpt lat="45.87144796442401" lon="11.168854625297715"><ele>777.3333333333333</ele><time>2026-04-24T16:09:35.875Z</time></trkpt><trkpt lat="45.871517294234735" lon="11.168626896416038"><ele>771.0</ele><time>2026-04-24T16:09:36.875Z</time></trkpt><trkpt lat="45.87160132417838" lon="11.168407832386846"><ele>765.3333333333334</ele><time>2026-04-24T16:09:37.875Z</time></trkpt><trkpt lat="45.87170822315027" lon="11.168189487439655"><ele>759.6666666666667</ele><time>2026-04-24T16:09:38.875Z</time></trkpt><trkpt lat="45.871831857512284" lon="11.167982878694911"><ele>754.0</ele><time>2026-04-24T16:09:39.875Z</time></trkpt><trkpt lat="45.871926749365805" lon="11.167788660465998"><ele>759.6666666666667</ele><time>2026-04-24T16:09:40.875Z</time></trkpt><trkpt lat="45.872022938985715" lon="11.167591208919902"><ele>765.3333333333334</ele><time>2026-04-24T16:09:41.877Z</time></trkpt><trkpt lat="45.87211663722252" lon="11.16739994913641"><ele>771.0</ele><time>2026-04-24T16:09:42.877Z</time></trkpt><trkpt lat="45.872215250743075" lon="11.167226013303441"><ele>771.0</ele><time>2026-04-24T16:09:43.877Z</time></trkpt><trkpt lat="45.87233030060327" lon="11.16706935770735"><ele>771.0</ele><time>2026-04-24T16:09:44.877Z</time></trkpt><trkpt lat="45.87246402689909" lon="11.166938466513965"><ele>771.0</ele><time>2026-04-24T16:09:45.876Z</time></trkpt><trkpt lat="45.87260818664544" lon="11.166805752305384"><ele>773.6666666666667</ele><time>2026-04-24T16:09:46.876Z</time></trkpt><trkpt lat="45.87274157236396" lon="11.16668205167098"><ele>776.3333333333334</ele><time>2026-04-24T16:09:47.877Z</time></trkpt><trkpt lat="45.87287662425949" lon="11.166541774295698"><ele>779.0</ele><time>2026-04-24T16:09:48.877Z</time></trkpt><trkpt lat="45.872999462203225" lon="11.166381125250226"><ele>779.0</ele><time>2026-04-24T16:09:49.877Z</time></trkpt><trkpt lat="45.87309090467289" lon="11.166179541655703"><ele>779.0</ele><time>2026-04-24T16:09:50.877Z</time></trkpt><trkpt lat="45.873191070203916" lon="11.166014928262733"><ele>779.0</ele><time>2026-04-24T16:09:51.877Z</time></trkpt><trkpt lat="45.87328165762995" lon="11.165838487853366"><ele>775.0</ele><time>2026-04-24T16:09:52.877Z</time></trkpt><trkpt lat="45.873366743134866" lon="11.165655471017194"><ele>771.0</ele><time>2026-04-24T16:09:53.877Z</time></trkpt><trkpt lat="45.87342722455579" lon="11.16545096221938"><ele>767.0</ele><time>2026-04-24T16:09:54.877Z</time></trkpt><trkpt lat="45.87346143691811" lon="11.165225657625397"><ele>773.3333333333333</ele><time>2026-04-24T16:09:55.877Z</time></trkpt><trkpt lat="45.873492064404935" lon="11.165005238501227"><ele>779.6666666666666</ele><time>2026-04-24T16:09:56.877Z</time></trkpt><trkpt lat="45.873535368633476" lon="11.164780084056213"><ele>786.0</ele><time>2026-04-24T16:09:57.876Z</time></trkpt><trkpt lat="45.8736428831219" lon="11.164583080642037"><ele>786.0</ele><time>2026-04-24T16:09:58.876Z</time></trkpt><trkpt lat="45.87377155315739" lon="11.164416772531856"><ele>786.0</ele><time>2026-04-24T16:09:59.876Z</time></trkpt><trkpt lat="45.87391328550955" lon="11.164264321834247"><ele>786.0</ele><time>2026-04-24T16:10:00.876Z</time></trkpt><trkpt lat="45.87404044421691" lon="11.164095209176473"><ele>781.3333333333333</ele><time>2026-04-24T16:10:01.876Z</time></trkpt><trkpt lat="45.874142281465716" lon="11.163876189506727"><ele>776.6666666666666</ele><time>2026-04-24T16:10:02.876Z</time></trkpt><trkpt lat="45.87419568477386" lon="11.163644478487518"><ele>772.0</ele><time>2026-04-24T16:10:03.876Z</time></trkpt><trkpt lat="45.8742430255296" lon="11.163398570150116"><ele>768.0</ele><time>2026-04-24T16:10:04.876Z</time></trkpt><trkpt lat="45.87426688540847" lon="11.163143643748809"><ele>764.0</ele><time>2026-04-24T16:10:05.876Z</time></trkpt><trkpt lat="45.87429292889229" lon="11.162918302851581"><ele>760.0</ele><time>2026-04-24T16:10:06.876Z</time></trkpt><trkpt lat="45.874351096767" lon="11.162693962382818"><ele>767.3333333333334</ele><time>2026-04-24T16:10:07.876Z</time></trkpt><trkpt lat="45.87445308788747" lon="11.162467092483963"><ele>774.6666666666667</ele><time>2026-04-24T16:10:08.876Z</time></trkpt><trkpt lat="45.87456782382533" lon="11.162255926638037"><ele>782.0</ele><time>2026-04-24T16:10:09.876Z</time></trkpt><trkpt lat="45.874678053245965" lon="11.162070349847212"><ele>782.0</ele><time>2026-04-24T16:10:10.876Z</time></trkpt><trkpt lat="45.87479165092597" lon="11.161880009097596"><ele>782.0</ele><time>2026-04-24T16:10:11.876Z</time></trkpt><trkpt lat="45.87489133494814" lon="11.161677562223373"><ele>782.0</ele><time>2026-04-24T16:10:12.876Z</time></trkpt><trkpt lat="45.87500372219912" lon="11.161498504011723"><ele>785.0</ele><time>2026-04-24T16:10:13.876Z</time></trkpt><trkpt lat="45.87511699761649" lon="11.161327274957472"><ele>788.0</ele><time>2026-04-24T16:10:14.876Z</time></trkpt><trkpt lat="45.87523260902583" lon="11.161157916869573"><ele>791.0</ele><time>2026-04-24T16:10:15.876Z</time></trkpt><trkpt lat="45.87535254334314" lon="11.161004963470106"><ele>791.0</ele><time>2026-04-24T16:10:16.876Z</time></trkpt><trkpt lat="45.87547837501535" lon="11.160865347886872"><ele>791.0</ele><time>2026-04-24T16:10:17.876Z</time></trkpt><trkpt lat="45.8756123064353" lon="11.160750132373742"><ele>791.0</ele><time>2026-04-24T16:10:18.876Z</time></trkpt><trkpt lat="45.87575352285055" lon="11.160679820701535"><ele>793.0</ele><time>2026-04-24T16:10:19.876Z</time></trkpt><trkpt lat="45.875878832383385" lon="11.160565543499922"><ele>795.0</ele><time>2026-04-24T16:10:20.876Z</time></trkpt><trkpt lat="45.876012226279954" lon="11.160444461399477"><ele>797.0</ele><time>2026-04-24T16:10:21.876Z</time></trkpt><trkpt lat="45.87614924254324" lon="11.160324108858703"><ele>797.0</ele><time>2026-04-24T16:10:22.876Z</time></trkpt><trkpt lat="45.87629443177361" lon="11.160203849944752"><ele>797.0</ele><time>2026-04-24T16:10:23.876Z</time></trkpt><trkpt lat="45.87642367750478" lon="11.16009560665314"><ele>797.0</ele><time>2026-04-24T16:10:24.876Z</time></trkpt><trkpt lat="45.876515741424456" lon="11.159964844933825"><ele>797.0</ele><time>2026-04-24T16:10:25.876Z</time></trkpt><trkpt lat="45.87661160936155" lon="11.159827484111133"><ele>799.4000000000001</ele><time>2026-04-24T16:10:26.876Z</time></trkpt><trkpt lat="45.87668546321636" lon="11.159694949855904"><ele>801.8000000000001</ele><time>2026-04-24T16:10:27.876Z</time></trkpt><trkpt lat="45.8767615521271" lon="11.15957295569626"><ele>804.2</ele><time>2026-04-24T16:10:28.876Z</time></trkpt><trkpt lat="45.8768472963368" lon="11.15949303836437"><ele>806.6</ele><time>2026-04-24T16:10:29.876Z</time></trkpt><trkpt lat="45.87690499880848" lon="11.159363233717121"><ele>809.0</ele><time>2026-04-24T16:10:30.875Z</time></trkpt><trkpt lat="45.87691453210149" lon="11.159202952962863"><ele>809.0000000000001</ele><time>2026-04-24T16:10:31.875Z</time></trkpt><trkpt lat="45.876875144405176" lon="11.159070722290213"><ele>809.0</ele><time>2026-04-24T16:10:32.875Z</time></trkpt><trkpt lat="45.87688395300892" lon="11.15896832376649"><ele>809.0</ele><time>2026-04-24T16:10:33.875Z</time></trkpt><trkpt lat="45.87687734379257" lon="11.158868030403623"><ele>809.0</ele><time>2026-04-24T16:10:34.875Z</time></trkpt><trkpt lat="45.87695924565958" lon="11.158787084394158"><ele>809.0000000000001</ele><time>2026-04-24T16:10:35.875Z</time></trkpt><trkpt lat="45.87700501765412" lon="11.158657490224051"><ele>809.0</ele><time>2026-04-24T16:10:36.875Z</time></trkpt><trkpt lat="45.87707107842807" lon="11.158532427453881"><ele>805.4000000000001</ele><time>2026-04-24T16:10:37.875Z</time></trkpt><trkpt lat="45.877092356811666" lon="11.158403320787746"><ele>801.8</ele><time>2026-04-24T16:10:38.875Z</time></trkpt><trkpt lat="45.87712405747371" lon="11.158280576785682"><ele>798.2</ele><time>2026-04-24T16:10:39.875Z</time></trkpt><trkpt lat="45.877175890837634" lon="11.158196099794125"><ele>794.5999999999999</ele><time>2026-04-24T16:10:40.875Z</time></trkpt><trkpt lat="45.87726341434176" lon="11.158109372173843"><ele>791.0</ele><time>2026-04-24T16:10:41.875Z</time></trkpt><trkpt lat="45.87730934524571" lon="11.157968800442347"><ele>789.5000000000001</ele><time>2026-04-24T16:10:42.875Z</time></trkpt><trkpt lat="45.87734532564643" lon="11.157837096207523"><ele>788.0</ele><time>2026-04-24T16:10:43.875Z</time></trkpt><trkpt lat="45.877366549724485" lon="11.157720368082435"><ele>786.5</ele><time>2026-04-24T16:10:44.875Z</time></trkpt><trkpt lat="45.87738122032301" lon="11.157610881390701"><ele>785.0</ele><time>2026-04-24T16:10:45.875Z</time></trkpt><trkpt lat="45.877425852415385" lon="11.157511688724336"><ele>783.5000000000001</ele><time>2026-04-24T16:10:47.875Z</time></trkpt><trkpt lat="45.87744760664869" lon="11.157412132047588"><ele>782.0</ele><time>2026-04-24T16:10:49.875Z</time></trkpt><trkpt lat="45.877522365241376" lon="11.157385931791008"><ele>786.5</ele><time>2026-04-24T16:10:51.875Z</time></trkpt><trkpt lat="45.87767394477681" lon="11.15769339049465"><ele>791.0</ele><time>2026-04-24T16:10:52.875Z</time></trkpt><trkpt lat="45.877721633825736" lon="11.157767795927423"><ele>795.5</ele><time>2026-04-24T16:10:53.875Z</time></trkpt><trkpt lat="45.877771625125895" lon="11.157845825610256"><ele>800.0</ele><time>2026-04-24T16:10:54.875Z</time></trkpt><trkpt lat="45.8778266290432" lon="11.157926093769671"><ele>800.0000000000001</ele><time>2026-04-24T16:10:55.875Z</time></trkpt><trkpt lat="45.877879921424274" lon="11.158012294729907"><ele>800.0</ele><time>2026-04-24T16:10:56.875Z</time></trkpt><trkpt lat="45.877921669542395" lon="11.158101965370063"><ele>800.0</ele><time>2026-04-24T16:10:57.875Z</time></trkpt><trkpt lat="45.877970166441" lon="11.158185404602643"><ele>800.0</ele><time>2026-04-24T16:10:58.875Z</time></trkpt><trkpt lat="45.87804345526816" lon="11.158231811714694"><ele>800.0000000000001</ele><time>2026-04-24T16:10:59.875Z</time></trkpt><trkpt lat="45.87811580110788" lon="11.158277672034504"><ele>800.0</ele><time>2026-04-24T16:11:00.875Z</time></trkpt><trkpt lat="45.87819912917771" lon="11.158345440730345"><ele>802.8</ele><time>2026-04-24T16:11:01.875Z</time></trkpt><trkpt lat="45.87828630841142" lon="11.158419682265746"><ele>805.6</ele><time>2026-04-24T16:11:02.875Z</time></trkpt><trkpt lat="45.87838565931418" lon="11.158488334477326"><ele>808.4000000000001</ele><time>2026-04-24T16:11:03.875Z</time></trkpt><trkpt lat="45.878486186576886" lon="11.158565470940577"><ele>811.2</ele><time>2026-04-24T16:11:04.875Z</time></trkpt><trkpt lat="45.87856089713991" lon="11.15859143613831"><ele>814.0</ele><time>2026-04-24T16:11:05.875Z</time></trkpt><trkpt lat="45.87865939966249" lon="11.158631298978808"><ele>819.4000000000001</ele><time>2026-04-24T16:11:06.875Z</time></trkpt><trkpt lat="45.878729319968755" lon="11.158674901911677"><ele>824.8</ele><time>2026-04-24T16:11:07.875Z</time></trkpt><trkpt lat="45.87879883662799" lon="11.158757538716987"><ele>830.2</ele><time>2026-04-24T16:11:08.875Z</time></trkpt><trkpt lat="45.878886841096666" lon="11.158857200799124"><ele>835.5999999999999</ele><time>2026-04-24T16:11:09.875Z</time></trkpt><trkpt lat="45.87897462948038" lon="11.158914970478294"><ele>841.0</ele><time>2026-04-24T16:11:10.875Z</time></trkpt><trkpt lat="45.87906054123294" lon="11.158947496167157"><ele>841.0</ele><time>2026-04-24T16:11:11.875Z</time></trkpt><trkpt lat="45.879123652261946" lon="11.158987337779125"><ele>841.0</ele><time>2026-04-24T16:11:12.875Z</time></trkpt><trkpt lat="45.87917576350423" lon="11.159128935203675"><ele>841.0</ele><time>2026-04-24T16:11:14.875Z</time></trkpt><trkpt lat="45.87917470215947" lon="11.159313040976636"><ele>841.0</ele><time>2026-04-24T16:11:16.874Z</time></trkpt><trkpt lat="45.87919789226743" lon="11.159412111960046"><ele>841.0</ele><time>2026-04-24T16:11:17.874Z</time></trkpt><trkpt lat="45.87925452388236" lon="11.15949899524219"><ele>850.0</ele><time>2026-04-24T16:11:18.874Z</time></trkpt><trkpt lat="45.87933808859339" lon="11.159572041620207"><ele>859.0</ele><time>2026-04-24T16:11:19.874Z</time></trkpt><trkpt lat="45.87939788357328" lon="11.159664686602566"><ele>867.9999999999999</ele><time>2026-04-24T16:11:20.874Z</time></trkpt><trkpt lat="45.879447900882184" lon="11.159784806847348"><ele>877.0</ele><time>2026-04-24T16:11:21.874Z</time></trkpt><trkpt lat="45.879473783958" lon="11.159898609613517"><ele>886.0</ele><time>2026-04-24T16:11:22.874Z</time></trkpt><trkpt lat="45.87952197821296" lon="11.159997476516399"><ele>886.5999999999999</ele><time>2026-04-24T16:11:23.874Z</time></trkpt><trkpt lat="45.87958921074247" lon="11.160088203080525"><ele>887.1999999999999</ele><time>2026-04-24T16:11:24.874Z</time></trkpt><trkpt lat="45.87966656762862" lon="11.160142978524373"><ele>887.8000000000001</ele><time>2026-04-24T16:11:25.874Z</time></trkpt><trkpt lat="45.87973515276027" lon="11.160194377129034"><ele>888.4000000000001</ele><time>2026-04-24T16:11:26.874Z</time></trkpt><trkpt lat="45.879822065847286" lon="11.160254903915634"><ele>889.0</ele><time>2026-04-24T16:11:27.874Z</time></trkpt><trkpt lat="45.87992320573749" lon="11.160288693749813"><ele>888.9999999999999</ele><time>2026-04-24T16:11:28.874Z</time></trkpt><trkpt lat="45.87998460527491" lon="11.160346253262096"><ele>889.0</ele><time>2026-04-24T16:11:29.874Z</time></trkpt><trkpt lat="45.880059798842346" lon="11.160469933216977"><ele>889.0</ele><time>2026-04-24T16:11:30.874Z</time></trkpt><trkpt lat="45.88013075848646" lon="11.160514714710482"><ele>889.0</ele><time>2026-04-24T16:11:31.874Z</time></trkpt><trkpt lat="45.88020517799061" lon="11.16059088537199"><ele>888.9999999999999</ele><time>2026-04-24T16:11:32.874Z</time></trkpt><trkpt lat="45.880277060703804" lon="11.160671143380233"><ele>889.0</ele><time>2026-04-24T16:11:33.874Z</time></trkpt><trkpt lat="45.880410016332824" lon="11.160734551931755"><ele>895.4000000000001</ele><time>2026-04-24T16:11:35.874Z</time></trkpt><trkpt lat="45.880515982812355" lon="11.160744356806212"><ele>901.8000000000001</ele><time>2026-04-24T16:11:36.874Z</time></trkpt><trkpt lat="45.880638658833" lon="11.160721009190922"><ele>908.1999999999999</ele><time>2026-04-24T16:11:37.874Z</time></trkpt><trkpt lat="45.88075159466374" lon="11.160721184792333"><ele>914.5999999999999</ele><time>2026-04-24T16:11:38.874Z</time></trkpt><trkpt lat="45.88082205910774" lon="11.160696365545311"><ele>921.0</ele><time>2026-04-24T16:11:39.874Z</time></trkpt><trkpt lat="45.880907764664926" lon="11.160666526399002"><ele>928.4</ele><time>2026-04-24T16:11:40.874Z</time></trkpt><trkpt lat="45.88098860213893" lon="11.160658636800878"><ele>935.8</ele><time>2026-04-24T16:11:41.874Z</time></trkpt><trkpt lat="45.881074850858056" lon="11.160671231349083"><ele>943.1999999999999</ele><time>2026-04-24T16:11:42.874Z</time></trkpt><trkpt lat="45.881109177184186" lon="11.160522572464401"><ele>950.5999999999999</ele><time>2026-04-24T16:11:44.874Z</time></trkpt><trkpt lat="45.88109097073926" lon="11.16039626855717"><ele>958.0</ele><time>2026-04-24T16:11:45.874Z</time></trkpt><trkpt lat="45.88107486434242" lon="11.16022608290222"><ele>958.0</ele><time>2026-04-24T16:11:46.874Z</time></trkpt><trkpt lat="45.88107346717546" lon="11.16007506768315"><ele>958.0</ele><time>2026-04-24T16:11:47.876Z</time></trkpt><trkpt lat="45.88109295784155" lon="11.159912197601855"><ele>958.0</ele><time>2026-04-24T16:11:48.876Z</time></trkpt><trkpt lat="45.88110025570223" lon="11.159785192381353"><ele>958.0</ele><time>2026-04-24T16:11:49.875Z</time></trkpt><trkpt lat="45.88107800758059" lon="11.15962714145674"><ele>958.0</ele><time>2026-04-24T16:11:50.875Z</time></trkpt><trkpt lat="45.88103686084933" lon="11.159448618021703"><ele>957.3333333333333</ele><time>2026-04-24T16:11:51.876Z</time></trkpt><trkpt lat="45.88100599090693" lon="11.159268481004139"><ele>956.6666666666666</ele><time>2026-04-24T16:11:52.876Z</time></trkpt><trkpt lat="45.88097345085784" lon="11.159150068401273"><ele>956.0</ele><time>2026-04-24T16:11:53.875Z</time></trkpt><trkpt lat="45.88096052655711" lon="11.159048591925863"><ele>955.3333333333333</ele><time>2026-04-24T16:11:54.875Z</time></trkpt><trkpt lat="45.88095636061468" lon="11.1589462203649"><ele>954.6666666666666</ele><time>2026-04-24T16:11:55.876Z</time></trkpt><trkpt lat="45.88101759619579" lon="11.158898256658015"><ele>954.0</ele><time>2026-04-24T16:11:57.876Z</time></trkpt><trkpt lat="45.88111433133317" lon="11.158901333919722"><ele>954.0</ele><time>2026-04-24T16:12:00.875Z</time></trkpt><trkpt lat="45.88118074888304" lon="11.15895607255345"><ele>954.0</ele><time>2026-04-24T16:12:01.875Z</time></trkpt><trkpt lat="45.88124850206915" lon="11.158999971831957"><ele>954.0</ele><time>2026-04-24T16:12:02.875Z</time></trkpt><trkpt lat="45.88134933120666" lon="11.15907124376223"><ele>954.0</ele><time>2026-04-24T16:12:04.875Z</time></trkpt><trkpt lat="45.88142844498408" lon="11.159163589401539"><ele>954.0</ele><time>2026-04-24T16:12:06.875Z</time></trkpt><trkpt lat="45.88150670988932" lon="11.159192297086165"><ele>954.0</ele><time>2026-04-24T16:12:08.875Z</time></trkpt><trkpt lat="45.88160589728904" lon="11.159190468299016"><ele>954.0</ele><time>2026-04-24T16:12:10.875Z</time></trkpt><trkpt lat="45.8816836673877" lon="11.15918765156333"><ele>954.0</ele><time>2026-04-24T16:12:11.875Z</time></trkpt><trkpt lat="45.88175883838849" lon="11.159157280329538"><ele>954.0</ele><time>2026-04-24T16:12:12.875Z</time></trkpt><trkpt lat="45.88182374788519" lon="11.159072603374733"><ele>954.0</ele><time>2026-04-24T16:12:13.875Z</time></trkpt><trkpt lat="45.88185755485715" lon="11.158961890965454"><ele>954.0</ele><time>2026-04-24T16:12:14.875Z</time></trkpt><trkpt lat="45.88185845197513" lon="11.158837420133493"><ele>954.0</ele><time>2026-04-24T16:12:15.875Z</time></trkpt><trkpt lat="45.8818358653172" lon="11.158697867480976"><ele>951.4000000000001</ele><time>2026-04-24T16:12:16.875Z</time></trkpt><trkpt lat="45.88178909217241" lon="11.158564641790687"><ele>948.8000000000001</ele><time>2026-04-24T16:12:17.875Z</time></trkpt><trkpt lat="45.88173710997117" lon="11.158443662302206"><ele>946.1999999999999</ele><time>2026-04-24T16:12:18.875Z</time></trkpt><trkpt lat="45.881687310881546" lon="11.158311770316683"><ele>943.5999999999999</ele><time>2026-04-24T16:12:19.875Z</time></trkpt><trkpt lat="45.88166365259013" lon="11.158163593406591"><ele>941.0</ele><time>2026-04-24T16:12:20.875Z</time></trkpt><trkpt lat="45.88165900463834" lon="11.158004842761537"><ele>940.1999999999999</ele><time>2026-04-24T16:12:21.875Z</time></trkpt><trkpt lat="45.88167658462842" lon="11.157857166567492"><ele>939.3999999999999</ele><time>2026-04-24T16:12:22.875Z</time></trkpt><trkpt lat="45.88171367256141" lon="11.157712392704981"><ele>938.6</ele><time>2026-04-24T16:12:23.875Z</time></trkpt><trkpt lat="45.881717473613314" lon="11.157570200124317"><ele>937.8</ele><time>2026-04-24T16:12:24.875Z</time></trkpt><trkpt lat="45.881687052393076" lon="11.15743722756047"><ele>937.0</ele><time>2026-04-24T16:12:25.875Z</time></trkpt><trkpt lat="45.88164068065967" lon="11.157299700976697"><ele>934.3333333333333</ele><time>2026-04-24T16:12:26.875Z</time></trkpt><trkpt lat="45.88160298013649" lon="11.157196726057313"><ele>931.6666666666666</ele><time>2026-04-24T16:12:27.875Z</time></trkpt><trkpt lat="45.881606773539986" lon="11.157044698735326"><ele>929.0</ele><time>2026-04-24T16:12:29.875Z</time></trkpt><trkpt lat="45.88166332520078" lon="11.156995725252898"><ele>926.3333333333333</ele><time>2026-04-24T16:12:30.875Z</time></trkpt><trkpt lat="45.88173864934977" lon="11.156948586597238"><ele>923.6666666666666</ele><time>2026-04-24T16:12:31.875Z</time></trkpt><trkpt lat="45.88181217520184" lon="11.15687876012216"><ele>921.0</ele><time>2026-04-24T16:12:32.875Z</time></trkpt><trkpt lat="45.88189886760901" lon="11.15682873038423"><ele>926.1999999999999</ele><time>2026-04-24T16:12:33.875Z</time></trkpt><trkpt lat="45.88197546165335" lon="11.156742247178636"><ele>931.3999999999999</ele><time>2026-04-24T16:12:34.874Z</time></trkpt><trkpt lat="45.882032055452015" lon="11.15665417849541"><ele>936.6</ele><time>2026-04-24T16:12:35.874Z</time></trkpt><trkpt lat="45.882093439153905" lon="11.156557288322462"><ele>941.8</ele><time>2026-04-24T16:12:36.874Z</time></trkpt><trkpt lat="45.88214460188127" lon="11.156447546748971"><ele>947.0</ele><time>2026-04-24T16:12:37.874Z</time></trkpt><trkpt lat="45.88218756935347" lon="11.156336440018855"><ele>947.0000000000001</ele><time>2026-04-24T16:12:38.874Z</time></trkpt><trkpt lat="45.88222576114954" lon="11.156229144386286"><ele>947.0</ele><time>2026-04-24T16:12:39.874Z</time></trkpt><trkpt lat="45.88225684216907" lon="11.156124430323315"><ele>947.0</ele><time>2026-04-24T16:12:40.874Z</time></trkpt><trkpt lat="45.88228779975612" lon="11.156008337736461"><ele>947.0</ele><time>2026-04-24T16:12:41.874Z</time></trkpt><trkpt lat="45.88230022647232" lon="11.155876949209318"><ele>947.0000000000001</ele><time>2026-04-24T16:12:42.874Z</time></trkpt><trkpt lat="45.882270245589844" lon="11.155751259337972"><ele>947.0</ele><time>2026-04-24T16:12:43.874Z</time></trkpt><trkpt lat="45.88221319191852" lon="11.155650904868267"><ele>946.0000000000001</ele><time>2026-04-24T16:12:44.874Z</time></trkpt><trkpt lat="45.88214235813951" lon="11.155580882713476"><ele>945.0</ele><time>2026-04-24T16:12:45.874Z</time></trkpt><trkpt lat="45.88204351368641" lon="11.155527512093997"><ele>944.0</ele><time>2026-04-24T16:12:46.874Z</time></trkpt><trkpt lat="45.88194931215493" lon="11.155504443237554"><ele>943.0</ele><time>2026-04-24T16:12:47.874Z</time></trkpt><trkpt lat="45.881873319034085" lon="11.155468122731433"><ele>942.0000000000001</ele><time>2026-04-24T16:12:48.874Z</time></trkpt><trkpt lat="45.881807808430516" lon="11.1554295599106"><ele>941.0</ele><time>2026-04-24T16:12:49.874Z</time></trkpt><trkpt lat="45.8817326773131" lon="11.155327327754867"><ele>937.1666666666667</ele><time>2026-04-24T16:12:51.874Z</time></trkpt><trkpt lat="45.881734743531744" lon="11.155213055353874"><ele>933.3333333333334</ele><time>2026-04-24T16:12:52.874Z</time></trkpt><trkpt lat="45.881759691831235" lon="11.155094253258278"><ele>929.5</ele><time>2026-04-24T16:12:53.874Z</time></trkpt><trkpt lat="45.88176453363414" lon="11.154978331846815"><ele>925.6666666666667</ele><time>2026-04-24T16:12:54.874Z</time></trkpt><trkpt lat="45.88177386168542" lon="11.154860858490096"><ele>921.8333333333334</ele><time>2026-04-24T16:12:55.874Z</time></trkpt><trkpt lat="45.881814792677666" lon="11.154712469179312"><ele>918.0</ele><time>2026-04-24T16:12:57.874Z</time></trkpt><trkpt lat="45.88191240769791" lon="11.154640329949869"><ele>918.0</ele><time>2026-04-24T16:12:59.874Z</time></trkpt><trkpt lat="45.88198718150081" lon="11.154643202297034"><ele>918.0</ele><time>2026-04-24T16:13:00.874Z</time></trkpt><trkpt lat="45.88207585920431" lon="11.154605087997037"><ele>918.0</ele><time>2026-04-24T16:13:01.874Z</time></trkpt><trkpt lat="45.882158683361745" lon="11.154569714612196"><ele>918.0</ele><time>2026-04-24T16:13:02.874Z</time></trkpt><trkpt lat="45.882229752643866" lon="11.154539938048442"><ele>918.0</ele><time>2026-04-24T16:13:03.874Z</time></trkpt><trkpt lat="45.88230534331362" lon="11.154500627015738"><ele>918.0</ele><time>2026-04-24T16:13:04.874Z</time></trkpt><trkpt lat="45.882374615049365" lon="11.154429441675697"><ele>918.0</ele><time>2026-04-24T16:13:05.874Z</time></trkpt><trkpt lat="45.88243601543212" lon="11.15437064050698"><ele>918.0</ele><time>2026-04-24T16:13:06.874Z</time></trkpt><trkpt lat="45.88249127983412" lon="11.15427944787474"><ele>918.0</ele><time>2026-04-24T16:13:07.874Z</time></trkpt><trkpt lat="45.882545002971206" lon="11.154211919972632"><ele>918.0</ele><time>2026-04-24T16:13:08.874Z</time></trkpt><trkpt lat="45.88254597295945" lon="11.154103179056726"><ele>918.0</ele><time>2026-04-24T16:13:09.874Z</time></trkpt><trkpt lat="45.882523172087154" lon="11.154011208997643"><ele>918.0</ele><time>2026-04-24T16:13:11.874Z</time></trkpt><trkpt lat="45.88245231530147" lon="11.15400490709441"><ele>918.0</ele><time>2026-04-24T16:13:12.874Z</time></trkpt><trkpt lat="45.88238604329465" lon="11.154125231663333"><ele>918.0</ele><time>2026-04-24T16:13:13.874Z</time></trkpt><trkpt lat="45.88232290191771" lon="11.154223451841931"><ele>918.0</ele><time>2026-04-24T16:13:14.874Z</time></trkpt><trkpt lat="45.882248408165566" lon="11.154303495107431"><ele>918.0</ele><time>2026-04-24T16:13:15.874Z</time></trkpt><trkpt lat="45.88217174426026" lon="11.154368236067056"><ele>918.0</ele><time>2026-04-24T16:13:16.874Z</time></trkpt><trkpt lat="45.88209293988667" lon="11.154437512344161"><ele>918.0</ele><time>2026-04-24T16:13:17.874Z</time></trkpt><trkpt lat="45.88200896311296" lon="11.154466860121259"><ele>918.0</ele><time>2026-04-24T16:13:18.874Z</time></trkpt><trkpt lat="45.881925217713864" lon="11.154470565961493"><ele>918.0</ele><time>2026-04-24T16:13:19.875Z</time></trkpt><trkpt lat="45.881824145154454" lon="11.154445964402694"><ele>918.0</ele><time>2026-04-24T16:13:20.876Z</time></trkpt><trkpt lat="45.881735151513446" lon="11.154400074565828"><ele>918.0</ele><time>2026-04-24T16:13:21.878Z</time></trkpt><trkpt lat="45.881652793719766" lon="11.154391831631036"><ele>918.0</ele><time>2026-04-24T16:13:22.88Z</time></trkpt><trkpt lat="45.881578726048815" lon="11.154388008555744"><ele>918.0</ele><time>2026-04-24T16:13:23.881Z</time></trkpt><trkpt lat="45.88150889179355" lon="11.154410444141886"><ele>911.75</ele><time>2026-04-24T16:13:24.883Z</time></trkpt><trkpt lat="45.88144671613182" lon="11.154512178733029"><ele>905.5</ele><time>2026-04-24T16:13:25.884Z</time></trkpt><trkpt lat="45.88135435923507" lon="11.154601968371656"><ele>899.25</ele><time>2026-04-24T16:13:27.887Z</time></trkpt><trkpt lat="45.88123775793935" lon="11.154613897627797"><ele>893.0</ele><time>2026-04-24T16:13:29.889Z</time></trkpt><trkpt lat="45.88123198739512" lon="11.154430550045692"><ele>893.0</ele><time>2026-04-24T16:13:31.891Z</time></trkpt><trkpt lat="45.881283669492596" lon="11.154376027589365"><ele>893.0</ele><time>2026-04-24T16:13:32.891Z</time></trkpt><trkpt lat="45.88139563923504" lon="11.154386222922115"><ele>893.0</ele><time>2026-04-24T16:13:34.893Z</time></trkpt><trkpt lat="45.88148600593469" lon="11.154379327242673"><ele>893.0</ele><time>2026-04-24T16:13:35.894Z</time></trkpt><trkpt lat="45.881585684557855" lon="11.15435680139909"><ele>893.0</ele><time>2026-04-24T16:13:36.894Z</time></trkpt><trkpt lat="45.881675788253695" lon="11.154353504027958"><ele>893.0000000000001</ele><time>2026-04-24T16:13:37.895Z</time></trkpt><trkpt lat="45.8817500505395" lon="11.154328361145744"><ele>893.0</ele><time>2026-04-24T16:13:38.896Z</time></trkpt><trkpt lat="45.881822618086716" lon="11.154335918402893"><ele>893.0</ele><time>2026-04-24T16:13:39.896Z</time></trkpt><trkpt lat="45.88190319638031" lon="11.154293553288069"><ele>893.0</ele><time>2026-04-24T16:13:40.897Z</time></trkpt><trkpt lat="45.881977399285034" lon="11.154246353647574"><ele>893.0000000000001</ele><time>2026-04-24T16:13:41.897Z</time></trkpt><trkpt lat="45.88205687024003" lon="11.154177668914782"><ele>893.0</ele><time>2026-04-24T16:13:42.897Z</time></trkpt><trkpt lat="45.8821187780654" lon="11.154077464270948"><ele>897.4</ele><time>2026-04-24T16:13:43.898Z</time></trkpt><trkpt lat="45.882156214185244" lon="11.153937394847755"><ele>901.8</ele><time>2026-04-24T16:13:44.898Z</time></trkpt><trkpt lat="45.88216376442591" lon="11.153809085809758"><ele>906.2</ele><time>2026-04-24T16:13:45.899Z</time></trkpt><trkpt lat="45.88215161823715" lon="11.153671991526174"><ele>910.6</ele><time>2026-04-24T16:13:46.899Z</time></trkpt><trkpt lat="45.88208169384565" lon="11.153531572901375"><ele>915.0</ele><time>2026-04-24T16:13:47.899Z</time></trkpt><trkpt lat="45.88204082177227" lon="11.153384578502449"><ele>915.0</ele><time>2026-04-24T16:13:48.9Z</time></trkpt><trkpt lat="45.88200187506548" lon="11.1532748016143"><ele>915.0</ele><time>2026-04-24T16:13:49.9Z</time></trkpt><trkpt lat="45.88194475093679" lon="11.153173254781223"><ele>915.0</ele><time>2026-04-24T16:13:50.9Z</time></trkpt><trkpt lat="45.8819033167198" lon="11.153041586289275"><ele>915.0</ele><time>2026-04-24T16:13:51.9Z</time></trkpt><trkpt lat="45.88187113884296" lon="11.1528997182186"><ele>915.0</ele><time>2026-04-24T16:13:52.901Z</time></trkpt><trkpt lat="45.88183442020932" lon="11.152806182415057"><ele>913.8</ele><time>2026-04-24T16:13:53.902Z</time></trkpt><trkpt lat="45.881799409294224" lon="11.152697740413188"><ele>912.6</ele><time>2026-04-24T16:13:54.902Z</time></trkpt><trkpt lat="45.88179090296339" lon="11.152544755311416"><ele>911.4000000000001</ele><time>2026-04-24T16:13:56.902Z</time></trkpt><trkpt lat="45.881903682678114" lon="11.152521649372101"><ele>910.2</ele><time>2026-04-24T16:13:58.903Z</time></trkpt><trkpt lat="45.881975695776504" lon="11.152484120597768"><ele>909.0</ele><time>2026-04-24T16:13:59.903Z</time></trkpt><trkpt lat="45.8820604220762" lon="11.152431380073883"><ele>909.0</ele><time>2026-04-24T16:14:00.903Z</time></trkpt><trkpt lat="45.88213343235181" lon="11.15238710768086"><ele>909.0</ele><time>2026-04-24T16:14:01.903Z</time></trkpt><trkpt lat="45.8822079573782" lon="11.152342501387672"><ele>909.0</ele><time>2026-04-24T16:14:02.903Z</time></trkpt><trkpt lat="45.882267224046835" lon="11.152301559611736"><ele>909.0</ele><time>2026-04-24T16:14:03.904Z</time></trkpt><trkpt lat="45.88231720872406" lon="11.152243836166647"><ele>909.0</ele><time>2026-04-24T16:14:04.904Z</time></trkpt><trkpt lat="45.88231495387011" lon="11.15210604165455"><ele>909.0</ele><time>2026-04-24T16:14:05.904Z</time></trkpt><trkpt lat="45.88230027327475" lon="11.151987918889596"><ele>910.2</ele><time>2026-04-24T16:14:06.904Z</time></trkpt><trkpt lat="45.88226953196297" lon="11.15185919498027"><ele>911.4000000000001</ele><time>2026-04-24T16:14:07.904Z</time></trkpt><trkpt lat="45.88221230059823" lon="11.15177416663165"><ele>912.6</ele><time>2026-04-24T16:14:08.904Z</time></trkpt><trkpt lat="45.882116088383384" lon="11.151691846055863"><ele>913.8</ele><time>2026-04-24T16:14:09.905Z</time></trkpt><trkpt lat="45.882031262548495" lon="11.151617859385569"><ele>915.0</ele><time>2026-04-24T16:14:10.905Z</time></trkpt><trkpt lat="45.881946984915984" lon="11.151546013559381"><ele>913.2</ele><time>2026-04-24T16:14:11.904Z</time></trkpt><trkpt lat="45.88186329968434" lon="11.15148595249135"><ele>911.4</ele><time>2026-04-24T16:14:12.904Z</time></trkpt><trkpt lat="45.881767171013614" lon="11.151461024175077"><ele>909.5999999999999</ele><time>2026-04-24T16:14:13.904Z</time></trkpt><trkpt lat="45.88167909028045" lon="11.151437229539221"><ele>907.8</ele><time>2026-04-24T16:14:14.904Z</time></trkpt><trkpt lat="45.881593499688144" lon="11.151398043855073"><ele>906.0</ele><time>2026-04-24T16:14:15.904Z</time></trkpt><trkpt lat="45.88150273054908" lon="11.15134098634606"><ele>906.0</ele><time>2026-04-24T16:14:16.904Z</time></trkpt><trkpt lat="45.88142664399404" lon="11.151240917374727"><ele>905.9999999999999</ele><time>2026-04-24T16:14:17.904Z</time></trkpt><trkpt lat="45.8813543099805" lon="11.151135913700054"><ele>905.9999999999999</ele><time>2026-04-24T16:14:18.904Z</time></trkpt><trkpt lat="45.88128548975963" lon="11.151003024336909"><ele>906.0</ele><time>2026-04-24T16:14:19.904Z</time></trkpt><trkpt lat="45.881202183110794" lon="11.150864270523625"><ele>906.0</ele><time>2026-04-24T16:14:20.904Z</time></trkpt><trkpt lat="45.881130446334005" lon="11.150741579726274"><ele>907.8333333333334</ele><time>2026-04-24T16:14:21.904Z</time></trkpt><trkpt lat="45.881064120778866" lon="11.150633409246083"><ele>909.6666666666667</ele><time>2026-04-24T16:14:22.904Z</time></trkpt><trkpt lat="45.8810012075537" lon="11.150526101554153"><ele>911.5</ele><time>2026-04-24T16:14:23.904Z</time></trkpt><trkpt lat="45.88094613657301" lon="11.150421802334842"><ele>913.3333333333334</ele><time>2026-04-24T16:14:24.904Z</time></trkpt><trkpt lat="45.88089071782156" lon="11.150332023426989"><ele>915.1666666666667</ele><time>2026-04-24T16:14:25.904Z</time></trkpt><trkpt lat="45.88085108763007" lon="11.15024055125315"><ele>917.0</ele><time>2026-04-24T16:14:26.904Z</time></trkpt><trkpt lat="45.8808613143867" lon="11.150131726483906"><ele>917.0</ele><time>2026-04-24T16:14:27.904Z</time></trkpt><trkpt lat="45.88090794440337" lon="11.149969345038375"><ele>917.0</ele><time>2026-04-24T16:14:29.904Z</time></trkpt><trkpt lat="45.88101221227423" lon="11.14991513248347"><ele>917.0</ele><time>2026-04-24T16:14:31.904Z</time></trkpt><trkpt lat="45.88107525908878" lon="11.14986100920483"><ele>917.0</ele><time>2026-04-24T16:14:32.904Z</time></trkpt><trkpt lat="45.88113735622387" lon="11.149776937446333"><ele>917.0</ele><time>2026-04-24T16:14:33.904Z</time></trkpt><trkpt lat="45.881142088940784" lon="11.149644127474092"><ele>919.6</ele><time>2026-04-24T16:14:34.904Z</time></trkpt><trkpt lat="45.881124073695105" lon="11.14950780139261"><ele>922.2</ele><time>2026-04-24T16:14:35.904Z</time></trkpt><trkpt lat="45.88110774401846" lon="11.149357737655665"><ele>924.8</ele><time>2026-04-24T16:14:36.904Z</time></trkpt><trkpt lat="45.88109124077949" lon="11.149235994870114"><ele>927.4</ele><time>2026-04-24T16:14:37.904Z</time></trkpt><trkpt lat="45.881037716161245" lon="11.149128653288239"><ele>930.0</ele><time>2026-04-24T16:14:38.904Z</time></trkpt><trkpt lat="45.8809845319492" lon="11.149021043743726"><ele>931.6</ele><time>2026-04-24T16:14:39.904Z</time></trkpt><trkpt lat="45.880944126290316" lon="11.148906637098202"><ele>933.2</ele><time>2026-04-24T16:14:40.904Z</time></trkpt><trkpt lat="45.88091833722293" lon="11.148792305821022"><ele>934.8</ele><time>2026-04-24T16:14:41.904Z</time></trkpt><trkpt lat="45.88088137170457" lon="11.148676086310177"><ele>936.4</ele><time>2026-04-24T16:14:42.904Z</time></trkpt><trkpt lat="45.8808958676821" lon="11.14854517141507"><ele>938.0</ele><time>2026-04-24T16:14:43.904Z</time></trkpt><trkpt lat="45.88090475339507" lon="11.148408692667559"><ele>925.2</ele><time>2026-04-24T16:14:44.904Z</time></trkpt><trkpt lat="45.88091408314536" lon="11.148286019571293"><ele>912.4</ele><time>2026-04-24T16:14:45.904Z</time></trkpt><trkpt lat="45.88090813573903" lon="11.14819094388603"><ele>899.6000000000001</ele><time>2026-04-24T16:14:46.904Z</time></trkpt><trkpt lat="45.88090326398177" lon="11.148078090148136"><ele>886.8000000000001</ele><time>2026-04-24T16:14:48.904Z</time></trkpt><trkpt lat="45.880880617436475" lon="11.147881091392248"><ele>874.0</ele><time>2026-04-24T16:14:51.904Z</time></trkpt><trkpt lat="45.88090285294408" lon="11.147737693084936"><ele>874.0</ele><time>2026-04-24T16:14:52.904Z</time></trkpt><trkpt lat="45.88092556559326" lon="11.147580580596129"><ele>874.0</ele><time>2026-04-24T16:14:53.904Z</time></trkpt><trkpt lat="45.88094868194632" lon="11.147402772415319"><ele>874.0</ele><time>2026-04-24T16:14:54.904Z</time></trkpt><trkpt lat="45.88098245055908" lon="11.147204151345692"><ele>874.0</ele><time>2026-04-24T16:14:55.904Z</time></trkpt><trkpt lat="45.88101473389276" lon="11.147000294768286"><ele>885.3333333333333</ele><time>2026-04-24T16:14:56.904Z</time></trkpt><trkpt lat="45.88104721271108" lon="11.146784013221428"><ele>896.6666666666667</ele><time>2026-04-24T16:14:57.904Z</time></trkpt><trkpt lat="45.8810803812075" lon="11.146551287993296"><ele>908.0</ele><time>2026-04-24T16:14:58.904Z</time></trkpt><trkpt lat="45.881119665859764" lon="11.146313559240795"><ele>908.0</ele><time>2026-04-24T16:14:59.904Z</time></trkpt><trkpt lat="45.88116186729599" lon="11.146093268242792"><ele>908.0</ele><time>2026-04-24T16:15:00.904Z</time></trkpt><trkpt lat="45.88121544560517" lon="11.145873499366374"><ele>908.0</ele><time>2026-04-24T16:15:01.904Z</time></trkpt><trkpt lat="45.88132038891854" lon="11.145690743770363"><ele>907.75</ele><time>2026-04-24T16:15:02.904Z</time></trkpt><trkpt lat="45.88140574437254" lon="11.145507363004175"><ele>907.5</ele><time>2026-04-24T16:15:03.904Z</time></trkpt><trkpt lat="45.88146196136208" lon="11.145324413125973"><ele>907.25</ele><time>2026-04-24T16:15:04.904Z</time></trkpt><trkpt lat="45.88147209023332" lon="11.145128194877811"><ele>907.0</ele><time>2026-04-24T16:15:05.904Z</time></trkpt><trkpt lat="45.88143367354904" lon="11.144906219837454"><ele>915.0</ele><time>2026-04-24T16:15:06.904Z</time></trkpt><trkpt lat="45.881358403306045" lon="11.144699950969898"><ele>923.0</ele><time>2026-04-24T16:15:07.904Z</time></trkpt><trkpt lat="45.881256691428305" lon="11.144500759982046"><ele>931.0</ele><time>2026-04-24T16:15:08.904Z</time></trkpt><trkpt lat="45.88115326328071" lon="11.144280988018602"><ele>937.6666666666666</ele><time>2026-04-24T16:15:09.904Z</time></trkpt><trkpt lat="45.881069986793996" lon="11.144040337703723"><ele>944.3333333333333</ele><time>2026-04-24T16:15:10.904Z</time></trkpt><trkpt lat="45.88104223382414" lon="11.143789816224984"><ele>951.0</ele><time>2026-04-24T16:15:11.904Z</time></trkpt><trkpt lat="45.88102096415579" lon="11.143541629371093"><ele>951.0</ele><time>2026-04-24T16:15:12.904Z</time></trkpt><trkpt lat="45.881018041465964" lon="11.14329598597523"><ele>951.0</ele><time>2026-04-24T16:15:13.904Z</time></trkpt><trkpt lat="45.88096905087419" lon="11.143081586417114"><ele>951.0</ele><time>2026-04-24T16:15:14.904Z</time></trkpt><trkpt lat="45.88086576268363" lon="11.142902558984852"><ele>944.5</ele><time>2026-04-24T16:15:15.904Z</time></trkpt><trkpt lat="45.88075462438214" lon="11.142760989239331"><ele>938.0</ele><time>2026-04-24T16:15:16.904Z</time></trkpt><trkpt lat="45.88064071562214" lon="11.142618308532448"><ele>931.5</ele><time>2026-04-24T16:15:17.904Z</time></trkpt><trkpt lat="45.88057755301758" lon="11.142445969767593"><ele>925.0</ele><time>2026-04-24T16:15:18.904Z</time></trkpt><trkpt lat="45.880589627325556" lon="11.14225726017539"><ele>925.0</ele><time>2026-04-24T16:15:19.904Z</time></trkpt><trkpt lat="45.880642170894" lon="11.14211242887839"><ele>925.0</ele><time>2026-04-24T16:15:20.904Z</time></trkpt><trkpt lat="45.88072622039512" lon="11.141980806027384"><ele>925.0</ele><time>2026-04-24T16:15:21.904Z</time></trkpt><trkpt lat="45.8808151819185" lon="11.14180254695243"><ele>925.0</ele><time>2026-04-24T16:15:22.904Z</time></trkpt><trkpt lat="45.88090615388165" lon="11.141616633789422"><ele>924.3333333333333</ele><time>2026-04-24T16:15:23.904Z</time></trkpt><trkpt lat="45.88091515869695" lon="11.141334993985227"><ele>923.6666666666667</ele><time>2026-04-24T16:15:24.904Z</time></trkpt><trkpt lat="45.88094301526802" lon="11.141085277279153"><ele>923.0</ele><time>2026-04-24T16:15:25.904Z</time></trkpt><trkpt lat="45.8809614770208" lon="11.140808074768097"><ele>943.0</ele><time>2026-04-24T16:15:26.904Z</time></trkpt><trkpt lat="45.88094475530548" lon="11.140485005316096"><ele>963.0</ele><time>2026-04-24T16:15:27.904Z</time></trkpt><trkpt lat="45.880974493475804" lon="11.140203785420212"><ele>983.0</ele><time>2026-04-24T16:15:28.904Z</time></trkpt><trkpt lat="45.881020667688034" lon="11.139938652695303"><ele>984.0</ele><time>2026-04-24T16:15:29.904Z</time></trkpt><trkpt lat="45.88104983282179" lon="11.139668410997366"><ele>985.0</ele><time>2026-04-24T16:15:30.904Z</time></trkpt><trkpt lat="45.881095449011035" lon="11.139419163971423"><ele>986.0</ele><time>2026-04-24T16:15:31.904Z</time></trkpt><trkpt lat="45.8811275357975" lon="11.139168182893146"><ele>982.3333333333334</ele><time>2026-04-24T16:15:32.904Z</time></trkpt><trkpt lat="45.881085803364456" lon="11.138913976150404"><ele>978.6666666666667</ele><time>2026-04-24T16:15:33.904Z</time></trkpt><trkpt lat="45.881054165489914" lon="11.138651580879403"><ele>975.0</ele><time>2026-04-24T16:15:34.904Z</time></trkpt><trkpt lat="45.88104111690554" lon="11.138405415241435"><ele>970.3333333333333</ele><time>2026-04-24T16:15:35.904Z</time></trkpt><trkpt lat="45.881041094084125" lon="11.138146824415672"><ele>965.6666666666666</ele><time>2026-04-24T16:15:36.904Z</time></trkpt><trkpt lat="45.88107577481656" lon="11.137876449071426"><ele>961.0</ele><time>2026-04-24T16:15:37.904Z</time></trkpt><trkpt lat="45.88115707194727" lon="11.137625569694546"><ele>961.0</ele><time>2026-04-24T16:15:38.904Z</time></trkpt><trkpt lat="45.88128728978505" lon="11.137402626901096"><ele>961.0</ele><time>2026-04-24T16:15:39.904Z</time></trkpt><trkpt lat="45.88138708423376" lon="11.137188109482574"><ele>961.0</ele><time>2026-04-24T16:15:40.904Z</time></trkpt><trkpt lat="45.881442069235234" lon="11.136928777396879"><ele>960.0</ele><time>2026-04-24T16:15:41.904Z</time></trkpt><trkpt lat="45.881454600955855" lon="11.136623950979388"><ele>959.0</ele><time>2026-04-24T16:15:42.904Z</time></trkpt><trkpt lat="45.88144584901895" lon="11.13634733432361"><ele>958.0</ele><time>2026-04-24T16:15:43.904Z</time></trkpt><trkpt lat="45.88142133814315" lon="11.13609182724839"><ele>960.0</ele><time>2026-04-24T16:15:44.904Z</time></trkpt><trkpt lat="45.881397529228366" lon="11.135871193369912"><ele>962.0</ele><time>2026-04-24T16:15:45.904Z</time></trkpt><trkpt lat="45.88138006933057" lon="11.135665502456801"><ele>964.0</ele><time>2026-04-24T16:15:46.903Z</time></trkpt><trkpt lat="45.88136651948567" lon="11.1354573141495"><ele>966.0</ele><time>2026-04-24T16:15:47.903Z</time></trkpt><trkpt lat="45.88135172788229" lon="11.135232699628366"><ele>969.3333333333333</ele><time>2026-04-24T16:15:48.903Z</time></trkpt><trkpt lat="45.881336830684454" lon="11.13500218159805"><ele>972.6666666666666</ele><time>2026-04-24T16:15:49.903Z</time></trkpt><trkpt lat="45.881321686718465" lon="11.134781608338216"><ele>976.0</ele><time>2026-04-24T16:15:50.903Z</time></trkpt><trkpt lat="45.8813181706271" lon="11.134565723259081"><ele>976.5</ele><time>2026-04-24T16:15:51.903Z</time></trkpt><trkpt lat="45.88131969913392" lon="11.134352592871346"><ele>977.0</ele><time>2026-04-24T16:15:52.903Z</time></trkpt><trkpt lat="45.881310412022394" lon="11.134115010796517"><ele>977.5</ele><time>2026-04-24T16:15:53.903Z</time></trkpt><trkpt lat="45.88130228528296" lon="11.133921105448325"><ele>978.0</ele><time>2026-04-24T16:15:54.903Z</time></trkpt><trkpt lat="45.88131564672617" lon="11.133719885332756"><ele>977.2</ele><time>2026-04-24T16:15:55.903Z</time></trkpt><trkpt lat="45.881314808526525" lon="11.133536886655682"><ele>976.4</ele><time>2026-04-24T16:15:56.903Z</time></trkpt><trkpt lat="45.88131724612203" lon="11.133384298686535"><ele>975.6000000000001</ele><time>2026-04-24T16:15:57.903Z</time></trkpt><trkpt lat="45.88132378557245" lon="11.133261270518972"><ele>974.8000000000001</ele><time>2026-04-24T16:15:58.903Z</time></trkpt><trkpt lat="45.88133401260988" lon="11.133149881547288"><ele>974.0</ele><time>2026-04-24T16:15:59.905Z</time></trkpt><trkpt lat="45.881352421696576" lon="11.133010878218592"><ele>971.2</ele><time>2026-04-24T16:16:01.905Z</time></trkpt><trkpt lat="45.8814040812354" lon="11.132856162862147"><ele>968.4000000000001</ele><time>2026-04-24T16:16:03.904Z</time></trkpt><trkpt lat="45.88143666196536" lon="11.132763724952147"><ele>965.6</ele><time>2026-04-24T16:16:04.904Z</time></trkpt><trkpt lat="45.881490729102424" lon="11.132640691737892"><ele>962.8</ele><time>2026-04-24T16:16:06.905Z</time></trkpt><trkpt lat="45.88155649196196" lon="11.132513277466602"><ele>960.0</ele><time>2026-04-24T16:16:08.905Z</time></trkpt><trkpt lat="45.881624732907916" lon="11.13242474254786"><ele>954.0</ele><time>2026-04-24T16:16:10.905Z</time></trkpt><trkpt lat="45.88170803680899" lon="11.132325811393322"><ele>948.0</ele><time>2026-04-24T16:16:12.905Z</time></trkpt><trkpt lat="45.881808234651395" lon="11.132206472588376"><ele>942.0</ele><time>2026-04-24T16:16:13.905Z</time></trkpt><trkpt lat="45.88195452538793" lon="11.13195621624941"><ele>948.4000000000001</ele><time>2026-04-24T16:16:14.905Z</time></trkpt><trkpt lat="45.88200412048158" lon="11.131806035664502"><ele>954.8000000000001</ele><time>2026-04-24T16:16:15.905Z</time></trkpt><trkpt lat="45.88204619524038" lon="11.13166913477223"><ele>961.2</ele><time>2026-04-24T16:16:16.905Z</time></trkpt><trkpt lat="45.88208876749909" lon="11.131527920230496"><ele>967.6</ele><time>2026-04-24T16:16:17.905Z</time></trkpt><trkpt lat="45.88212309108627" lon="11.131418830531661"><ele>974.0</ele><time>2026-04-24T16:16:18.904Z</time></trkpt><trkpt lat="45.88213696903057" lon="11.13126382220321"><ele>974.0</ele><time>2026-04-24T16:16:19.904Z</time></trkpt><trkpt lat="45.8821390091782" lon="11.131144668930771"><ele>974.0</ele><time>2026-04-24T16:16:20.904Z</time></trkpt><trkpt lat="45.88215965441536" lon="11.130978469410262"><ele>974.0</ele><time>2026-04-24T16:16:22.904Z</time></trkpt><trkpt lat="45.88156685988997" lon="11.130209606574265"><ele>963.0000000000001</ele><time>2026-04-24T16:16:24.904Z</time></trkpt><trkpt lat="45.881582361171766" lon="11.130118281325114"><ele>952.0</ele><time>2026-04-24T16:16:25.904Z</time></trkpt><trkpt lat="45.88162714184452" lon="11.130017207995563"><ele>941.0</ele><time>2026-04-24T16:16:26.904Z</time></trkpt><trkpt lat="45.881673648046785" lon="11.129933041409686"><ele>930.0</ele><time>2026-04-24T16:16:27.904Z</time></trkpt><trkpt lat="45.881684045577636" lon="11.129821909395497"><ele>919.0000000000001</ele><time>2026-04-24T16:16:28.904Z</time></trkpt><trkpt lat="45.88168586242485" lon="11.129687232533028"><ele>908.0</ele><time>2026-04-24T16:16:29.904Z</time></trkpt><trkpt lat="45.88164843066564" lon="11.129567990333747"><ele>907.8</ele><time>2026-04-24T16:16:30.904Z</time></trkpt><trkpt lat="45.881594354375416" lon="11.12945825287767"><ele>907.5999999999999</ele><time>2026-04-24T16:16:31.904Z</time></trkpt><trkpt lat="45.88152228633775" lon="11.129301276546775"><ele>907.4000000000001</ele><time>2026-04-24T16:16:32.904Z</time></trkpt><trkpt lat="45.8814611585378" lon="11.12914038725384"><ele>907.2</ele><time>2026-04-24T16:16:33.904Z</time></trkpt><trkpt lat="45.88142827692378" lon="11.129038155511418"><ele>907.0</ele><time>2026-04-24T16:16:34.904Z</time></trkpt><trkpt lat="45.88143673957486" lon="11.128821731558892"><ele>907.0</ele><time>2026-04-24T16:16:36.904Z</time></trkpt><trkpt lat="45.88145445259229" lon="11.128712995197358"><ele>907.0</ele><time>2026-04-24T16:16:37.904Z</time></trkpt><trkpt lat="45.88147178961107" lon="11.128622557383464"><ele>907.0</ele><time>2026-04-24T16:16:38.904Z</time></trkpt><trkpt lat="45.88142176456465" lon="11.128447788469918"><ele>907.0</ele><time>2026-04-24T16:16:40.904Z</time></trkpt><trkpt lat="45.881368766432445" lon="11.128321041461435"><ele>907.0</ele><time>2026-04-24T16:16:41.904Z</time></trkpt><trkpt lat="45.88131286244712" lon="11.128223688747306"><ele>908.4000000000001</ele><time>2026-04-24T16:16:42.904Z</time></trkpt><trkpt lat="45.88126387759219" lon="11.128121423779007"><ele>909.8000000000001</ele><time>2026-04-24T16:16:43.904Z</time></trkpt><trkpt lat="45.88125661050403" lon="11.127985456348954"><ele>911.2</ele><time>2026-04-24T16:16:44.904Z</time></trkpt><trkpt lat="45.88125076127558" lon="11.127819699650036"><ele>912.6</ele><time>2026-04-24T16:16:45.904Z</time></trkpt><trkpt lat="45.881221600943334" lon="11.127678535231377"><ele>914.0</ele><time>2026-04-24T16:16:46.904Z</time></trkpt><trkpt lat="45.88116965161422" lon="11.127531091119398"><ele>914.0</ele><time>2026-04-24T16:16:48.904Z</time></trkpt><trkpt lat="45.88109298789943" lon="11.127486066604925"><ele>914.0</ele><time>2026-04-24T16:16:49.904Z</time></trkpt><trkpt lat="45.88099442447245" lon="11.127375510222485"><ele>914.0</ele><time>2026-04-24T16:16:50.904Z</time></trkpt><trkpt lat="45.880915260992786" lon="11.12723974973649"><ele>914.0</ele><time>2026-04-24T16:16:51.904Z</time></trkpt><trkpt lat="45.88082911652823" lon="11.127121701741034"><ele>905.6</ele><time>2026-04-24T16:16:52.904Z</time></trkpt><trkpt lat="45.88074219188224" lon="11.12705575657738"><ele>897.2</ele><time>2026-04-24T16:16:53.904Z</time></trkpt><trkpt lat="45.88064934561582" lon="11.127003701936063"><ele>888.8000000000001</ele><time>2026-04-24T16:16:54.904Z</time></trkpt><trkpt lat="45.880575554038735" lon="11.126957627625153"><ele>880.4000000000001</ele><time>2026-04-24T16:16:55.904Z</time></trkpt><trkpt lat="45.880544625597935" lon="11.126822981345764"><ele>872.0</ele><time>2026-04-24T16:16:58.904Z</time></trkpt><trkpt lat="45.880525279262656" lon="11.126666725984805"><ele>872.0</ele><time>2026-04-24T16:17:00.904Z</time></trkpt><trkpt lat="45.88051390472106" lon="11.126562081343293"><ele>872.0</ele><time>2026-04-24T16:17:01.904Z</time></trkpt><trkpt lat="45.880445600149066" lon="11.126433398810082"><ele>872.0</ele><time>2026-04-24T16:17:02.904Z</time></trkpt><trkpt lat="45.88037594071917" lon="11.126296654932197"><ele>872.0</ele><time>2026-04-24T16:17:03.904Z</time></trkpt><trkpt lat="45.88031670898582" lon="11.126212014399249"><ele>872.0</ele><time>2026-04-24T16:17:04.904Z</time></trkpt><trkpt lat="45.880271041926704" lon="11.12613162981461"><ele>871.2</ele><time>2026-04-24T16:17:05.904Z</time></trkpt><trkpt lat="45.8801878261973" lon="11.125985433165162"><ele>870.4000000000001</ele><time>2026-04-24T16:17:07.904Z</time></trkpt><trkpt lat="45.880144013614746" lon="11.125911942363034"><ele>869.5999999999999</ele><time>2026-04-24T16:17:08.904Z</time></trkpt><trkpt lat="45.880120635549396" lon="11.125825119523267"><ele>868.8</ele><time>2026-04-24T16:17:09.904Z</time></trkpt><trkpt lat="45.880120442515015" lon="11.125717395397755"><ele>868.0</ele><time>2026-04-24T16:17:11.904Z</time></trkpt><trkpt lat="45.88020763237088" lon="11.125602858183038"><ele>871.0</ele><time>2026-04-24T16:17:13.904Z</time></trkpt><trkpt lat="45.88024040609116" lon="11.125520519328562"><ele>874.0</ele><time>2026-04-24T16:17:14.904Z</time></trkpt><trkpt lat="45.88020042046978" lon="11.125321686687547"><ele>877.0</ele><time>2026-04-24T16:17:16.904Z</time></trkpt><trkpt lat="45.88015521475602" lon="11.125171260618146"><ele>880.0</ele><time>2026-04-24T16:17:17.904Z</time></trkpt><trkpt lat="45.88010056871587" lon="11.124992198807654"><ele>871.0</ele><time>2026-04-24T16:17:18.904Z</time></trkpt><trkpt lat="45.88004042759322" lon="11.124862883880756"><ele>862.0</ele><time>2026-04-24T16:17:19.904Z</time></trkpt><trkpt lat="45.87994577563024" lon="11.124737816820335"><ele>853.0</ele><time>2026-04-24T16:17:20.904Z</time></trkpt><trkpt lat="45.879829838657244" lon="11.12462558415988"><ele>844.0</ele><time>2026-04-24T16:17:21.903Z</time></trkpt><trkpt lat="45.87973629519942" lon="11.124547078685927"><ele>843.9999999999999</ele><time>2026-04-24T16:17:22.903Z</time></trkpt><trkpt lat="45.87966698698211" lon="11.124470722071225"><ele>844.0</ele><time>2026-04-24T16:17:23.903Z</time></trkpt><trkpt lat="45.879624376536036" lon="11.124385484876926"><ele>844.0</ele><time>2026-04-24T16:17:24.903Z</time></trkpt><trkpt lat="45.87958662312739" lon="11.124286302117174"><ele>844.0</ele><time>2026-04-24T16:17:25.903Z</time></trkpt><trkpt lat="45.87954635426872" lon="11.124158118931442"><ele>843.9999999999999</ele><time>2026-04-24T16:17:26.903Z</time></trkpt><trkpt lat="45.87952313361525" lon="11.12403653391958"><ele>844.0</ele><time>2026-04-24T16:17:27.903Z</time></trkpt><trkpt lat="45.87950234845419" lon="11.123939384932962"><ele>842.3333333333333</ele><time>2026-04-24T16:17:28.903Z</time></trkpt><trkpt lat="45.87942691977963" lon="11.12386382520426"><ele>840.6666666666666</ele><time>2026-04-24T16:17:29.903Z</time></trkpt><trkpt lat="45.87935157778142" lon="11.12382568776538"><ele>839.0</ele><time>2026-04-24T16:17:30.903Z</time></trkpt><trkpt lat="45.87928441697333" lon="11.12384096496106"><ele>837.3333333333333</ele><time>2026-04-24T16:17:31.903Z</time></trkpt><trkpt lat="45.87918444810978" lon="11.12383808384126"><ele>835.6666666666666</ele><time>2026-04-24T16:17:32.903Z</time></trkpt><trkpt lat="45.87908361916769" lon="11.123827385959705"><ele>834.0</ele><time>2026-04-24T16:17:33.903Z</time></trkpt><trkpt lat="45.87899723137463" lon="11.123798736156"><ele>834.0</ele><time>2026-04-24T16:17:34.903Z</time></trkpt><trkpt lat="45.878910433088784" lon="11.123791323457121"><ele>834.0</ele><time>2026-04-24T16:17:35.903Z</time></trkpt><trkpt lat="45.8788345238777" lon="11.1237617474882"><ele>834.0</ele><time>2026-04-24T16:17:36.903Z</time></trkpt><trkpt lat="45.8787614985307" lon="11.123752612475343"><ele>834.0</ele><time>2026-04-24T16:17:37.903Z</time></trkpt><trkpt lat="45.878683660499696" lon="11.123713698004854"><ele>834.0</ele><time>2026-04-24T16:17:38.903Z</time></trkpt><trkpt lat="45.878610299771566" lon="11.123649663144322"><ele>834.0</ele><time>2026-04-24T16:17:39.903Z</time></trkpt><trkpt lat="45.87848757958505" lon="11.123615169362568"><ele>824.6</ele><time>2026-04-24T16:17:40.903Z</time></trkpt><trkpt lat="45.87837535027529" lon="11.123594913605151"><ele>815.2</ele><time>2026-04-24T16:17:41.903Z</time></trkpt><trkpt lat="45.87826609055906" lon="11.123587334187304"><ele>805.8000000000001</ele><time>2026-04-24T16:17:42.903Z</time></trkpt><trkpt lat="45.87818718329967" lon="11.123543455161315"><ele>796.4000000000001</ele><time>2026-04-24T16:17:43.903Z</time></trkpt><trkpt lat="45.878106836251675" lon="11.12350866410213"><ele>787.0</ele><time>2026-04-24T16:17:44.903Z</time></trkpt><trkpt lat="45.87803396294679" lon="11.123449583503767"><ele>786.9999999999999</ele><time>2026-04-24T16:17:46.903Z</time></trkpt><trkpt lat="45.8780580636978" lon="11.123340665624706"><ele>787.0</ele><time>2026-04-24T16:17:48.903Z</time></trkpt><trkpt lat="45.87811868612674" lon="11.123217247139705"><ele>787.0</ele><time>2026-04-24T16:17:50.903Z</time></trkpt><trkpt lat="45.87812151748431" lon="11.123076234865035"><ele>787.0</ele><time>2026-04-24T16:17:52.903Z</time></trkpt><trkpt lat="45.87811217027308" lon="11.122985139782719"><ele>786.9999999999999</ele><time>2026-04-24T16:17:53.903Z</time></trkpt><trkpt lat="45.87810586577859" lon="11.122881812110817"><ele>787.0</ele><time>2026-04-24T16:17:54.903Z</time></trkpt><trkpt lat="45.8781141936731" lon="11.122768121860041"><ele>789.6666666666666</ele><time>2026-04-24T16:17:55.903Z</time></trkpt><trkpt lat="45.87813097828899" lon="11.122659430947149"><ele>792.3333333333333</ele><time>2026-04-24T16:17:56.903Z</time></trkpt><trkpt lat="45.87815443326185" lon="11.12256458697299"><ele>795.0</ele><time>2026-04-24T16:17:57.903Z</time></trkpt><trkpt lat="45.87815773999607" lon="11.122461071174273"><ele>797.6666666666667</ele><time>2026-04-24T16:17:58.903Z</time></trkpt><trkpt lat="45.8781452245094" lon="11.122371748550298"><ele>800.3333333333334</ele><time>2026-04-24T16:17:59.903Z</time></trkpt><trkpt lat="45.878099283916114" lon="11.12216707743913"><ele>803.0</ele><time>2026-04-24T16:18:01.903Z</time></trkpt><trkpt lat="45.87807393801493" lon="11.122069578182412"><ele>803.0000000000001</ele><time>2026-04-24T16:18:02.903Z</time></trkpt><trkpt lat="45.87803779657084" lon="11.12197196841046"><ele>803.0</ele><time>2026-04-24T16:18:03.903Z</time></trkpt><trkpt lat="45.878012086180334" lon="11.121879243276307"><ele>803.0</ele><time>2026-04-24T16:18:04.903Z</time></trkpt><trkpt lat="45.87795755536647" lon="11.121789743536704"><ele>803.0</ele><time>2026-04-24T16:18:05.904Z</time></trkpt><trkpt lat="45.87790652786935" lon="11.121704938315707"><ele>803.0000000000001</ele><time>2026-04-24T16:18:06.904Z</time></trkpt><trkpt lat="45.87785467446395" lon="11.121614454727379"><ele>803.0</ele><time>2026-04-24T16:18:07.905Z</time></trkpt><trkpt lat="45.877809415463624" lon="11.12155099789583"><ele>800.5000000000001</ele><time>2026-04-24T16:18:08.905Z</time></trkpt><trkpt lat="45.87777545779568" lon="11.1214381552966"><ele>798.0</ele><time>2026-04-24T16:18:10.904Z</time></trkpt><trkpt lat="45.877726822493656" lon="11.121301370442971"><ele>795.5</ele><time>2026-04-24T16:18:12.904Z</time></trkpt><trkpt lat="45.87769659238969" lon="11.121207670406356"><ele>793.0</ele><time>2026-04-24T16:18:13.904Z</time></trkpt><trkpt lat="45.877674724745866" lon="11.121116542202818"><ele>790.5000000000001</ele><time>2026-04-24T16:18:14.904Z</time></trkpt><trkpt lat="45.87765270308271" lon="11.121028825526627"><ele>788.0</ele><time>2026-04-24T16:18:15.904Z</time></trkpt><trkpt lat="45.87766947201267" lon="11.120899646961893"><ele>788.0</ele><time>2026-04-24T16:18:17.904Z</time></trkpt><trkpt lat="45.87771470085193" lon="11.120790906015058"><ele>788.0</ele><time>2026-04-24T16:18:19.904Z</time></trkpt><trkpt lat="45.87776939884368" lon="11.120686324526847"><ele>788.0</ele><time>2026-04-24T16:18:21.904Z</time></trkpt><trkpt lat="45.87784683044671" lon="11.120585244525813"><ele>788.0</ele><time>2026-04-24T16:18:23.904Z</time></trkpt><trkpt lat="45.877813430873864" lon="11.12035643140032"><ele>788.0</ele><time>2026-04-24T16:18:25.904Z</time></trkpt><trkpt lat="45.87779398624846" lon="11.120263990342405"><ele>786.5</ele><time>2026-04-24T16:18:26.904Z</time></trkpt><trkpt lat="45.87772888901288" lon="11.12012027128776"><ele>785.0</ele><time>2026-04-24T16:18:27.904Z</time></trkpt><trkpt lat="45.87766554706756" lon="11.119973279173895"><ele>783.5</ele><time>2026-04-24T16:18:28.904Z</time></trkpt><trkpt lat="45.87761908896703" lon="11.119860759898911"><ele>782.0</ele><time>2026-04-24T16:18:29.904Z</time></trkpt><trkpt lat="45.87753893541353" lon="11.119720127550018"><ele>775.9999999999999</ele><time>2026-04-24T16:18:31.904Z</time></trkpt><trkpt lat="45.87748789098012" lon="11.11964037596538"><ele>770.0</ele><time>2026-04-24T16:18:32.904Z</time></trkpt><trkpt lat="45.87743140457543" lon="11.119571250292568"><ele>764.0</ele><time>2026-04-24T16:18:33.904Z</time></trkpt><trkpt lat="45.877368605347115" lon="11.119489946729258"><ele>758.0</ele><time>2026-04-24T16:18:34.904Z</time></trkpt><trkpt lat="45.87732566900776" lon="11.119402644648678"><ele>752.0</ele><time>2026-04-24T16:18:35.904Z</time></trkpt><trkpt lat="45.877290274230525" lon="11.119308397084597"><ele>745.9999999999999</ele><time>2026-04-24T16:18:36.904Z</time></trkpt><trkpt lat="45.87725614003999" lon="11.119229099816161"><ele>740.0</ele><time>2026-04-24T16:18:37.904Z</time></trkpt><trkpt lat="45.877187841074864" lon="11.119124721776258"><ele>742.0</ele><time>2026-04-24T16:18:39.904Z</time></trkpt><trkpt lat="45.877167940947615" lon="11.118964247243357"><ele>744.0</ele><time>2026-04-24T16:18:41.904Z</time></trkpt><trkpt lat="45.87712756179114" lon="11.118876626000912"><ele>746.0</ele><time>2026-04-24T16:18:42.904Z</time></trkpt><trkpt lat="45.877111219423185" lon="11.118785578694268"><ele>748.0</ele><time>2026-04-24T16:18:43.904Z</time></trkpt><trkpt lat="45.877052029703755" lon="11.118667024512549"><ele>750.0</ele><time>2026-04-24T16:18:44.904Z</time></trkpt><trkpt lat="45.87700118054179" lon="11.118546188923379"><ele>750.0</ele><time>2026-04-24T16:18:45.904Z</time></trkpt><trkpt lat="45.876940134512225" lon="11.118439497528202"><ele>750.0</ele><time>2026-04-24T16:18:46.904Z</time></trkpt><trkpt lat="45.87689077284532" lon="11.118328876045254"><ele>750.0</ele><time>2026-04-24T16:18:47.904Z</time></trkpt><trkpt lat="45.87681974579653" lon="11.11822569833315"><ele>750.0</ele><time>2026-04-24T16:18:48.904Z</time></trkpt><trkpt lat="45.87674600490227" lon="11.118152927152462"><ele>750.0</ele><time>2026-04-24T16:18:49.904Z</time></trkpt><trkpt lat="45.87667845133966" lon="11.118059849699511"><ele>744.6666666666666</ele><time>2026-04-24T16:18:51.904Z</time></trkpt><trkpt lat="45.876656712323665" lon="11.117967825125168"><ele>739.3333333333334</ele><time>2026-04-24T16:18:52.904Z</time></trkpt><trkpt lat="45.87661994595946" lon="11.11786406818329"><ele>734.0</ele><time>2026-04-24T16:18:53.904Z</time></trkpt><trkpt lat="45.876570711539735" lon="11.117755288910315"><ele>728.6666666666667</ele><time>2026-04-24T16:18:55.904Z</time></trkpt><trkpt lat="45.876513627108636" lon="11.117607029975694"><ele>723.3333333333334</ele><time>2026-04-24T16:18:57.904Z</time></trkpt><trkpt lat="45.87648004583367" lon="11.117508898143713"><ele>718.0</ele><time>2026-04-24T16:18:58.904Z</time></trkpt><trkpt lat="45.87642722956189" lon="11.11741368654047"><ele>721.5</ele><time>2026-04-24T16:18:59.904Z</time></trkpt><trkpt lat="45.87636331289822" lon="11.117323030090665"><ele>725.0</ele><time>2026-04-24T16:19:00.904Z</time></trkpt><trkpt lat="45.876283580515164" lon="11.117246540839538"><ele>728.5</ele><time>2026-04-24T16:19:01.904Z</time></trkpt><trkpt lat="45.87622964956864" lon="11.117173964191029"><ele>732.0</ele><time>2026-04-24T16:19:02.904Z</time></trkpt><trkpt lat="45.87618748793903" lon="11.117061874456702"><ele>735.5</ele><time>2026-04-24T16:19:03.904Z</time></trkpt><trkpt lat="45.87613141356563" lon="11.116981538313246"><ele>739.0</ele><time>2026-04-24T16:19:04.903Z</time></trkpt><trkpt lat="45.87599476118476" lon="11.116972170739713"><ele>726.2</ele><time>2026-04-24T16:19:06.903Z</time></trkpt><trkpt lat="45.875879982399134" lon="11.116935638115674"><ele>713.4000000000001</ele><time>2026-04-24T16:19:08.903Z</time></trkpt><trkpt lat="45.87571931624611" lon="11.116882327185307"><ele>700.6</ele><time>2026-04-24T16:19:10.903Z</time></trkpt><trkpt lat="45.875687633679874" lon="11.116799884098624"><ele>687.8</ele><time>2026-04-24T16:19:11.903Z</time></trkpt><trkpt lat="45.87563810496777" lon="11.116676952730716"><ele>675.0</ele><time>2026-04-24T16:19:12.903Z</time></trkpt><trkpt lat="45.87561214737474" lon="11.1165480599635"><ele>671.0</ele><time>2026-04-24T16:19:13.903Z</time></trkpt><trkpt lat="45.87560474900722" lon="11.116377060383497"><ele>667.0</ele><time>2026-04-24T16:19:14.903Z</time></trkpt><trkpt lat="45.87563074414993" lon="11.116172833457087"><ele>663.0</ele><time>2026-04-24T16:19:15.903Z</time></trkpt><trkpt lat="45.875693847410226" lon="11.116029637922757"><ele>659.0</ele><time>2026-04-24T16:19:16.903Z</time></trkpt><trkpt lat="45.87573087687014" lon="11.115927064003621"><ele>659.0</ele><time>2026-04-24T16:19:17.903Z</time></trkpt><trkpt lat="45.87577306916532" lon="11.115809343851918"><ele>659.0</ele><time>2026-04-24T16:19:18.903Z</time></trkpt><trkpt lat="45.875824843802484" lon="11.115659386982935"><ele>659.0</ele><time>2026-04-24T16:19:20.903Z</time></trkpt><trkpt lat="45.87586666142443" lon="11.115530417292973"><ele>659.0</ele><time>2026-04-24T16:19:22.903Z</time></trkpt><trkpt lat="45.87590151898681" lon="11.115410026660212"><ele>659.0</ele><time>2026-04-24T16:19:24.903Z</time></trkpt><trkpt lat="45.875948682668785" lon="11.115236343017676"><ele>658.0</ele><time>2026-04-24T16:19:26.903Z</time></trkpt><trkpt lat="45.87598932761519" lon="11.115087855127483"><ele>657.0</ele><time>2026-04-24T16:19:28.903Z</time></trkpt><trkpt lat="45.87602141304294" lon="11.114993741673938"><ele>656.0</ele><time>2026-04-24T16:19:29.903Z</time></trkpt><trkpt lat="45.87605527706522" lon="11.114900859567044"><ele>655.0</ele><time>2026-04-24T16:19:30.903Z</time></trkpt><trkpt lat="45.87609526364937" lon="11.11480558713816"><ele>654.0</ele><time>2026-04-24T16:19:31.903Z</time></trkpt><trkpt lat="45.87615328338809" lon="11.114683164580438"><ele>653.0</ele><time>2026-04-24T16:19:33.903Z</time></trkpt><trkpt lat="45.87619686886567" lon="11.114595232350002"><ele>653.0</ele><time>2026-04-24T16:19:34.903Z</time></trkpt><trkpt lat="45.876241373659134" lon="11.114505445468712"><ele>653.0</ele><time>2026-04-24T16:19:35.903Z</time></trkpt><trkpt lat="45.876295273561034" lon="11.114395815136833"><ele>653.0</ele><time>2026-04-24T16:19:36.903Z</time></trkpt><trkpt lat="45.876350417168275" lon="11.114281024561844"><ele>653.0</ele><time>2026-04-24T16:19:37.903Z</time></trkpt><trkpt lat="45.876416438395786" lon="11.114140536595508"><ele>653.0</ele><time>2026-04-24T16:19:38.903Z</time></trkpt><trkpt lat="45.87665384440702" lon="11.114154798889793"><ele>653.75</ele><time>2026-04-24T16:19:39.903Z</time></trkpt><trkpt lat="45.87674647374431" lon="11.114018633220635"><ele>654.5</ele><time>2026-04-24T16:19:40.903Z</time></trkpt><trkpt lat="45.876810550388164" lon="11.113885877414946"><ele>655.25</ele><time>2026-04-24T16:19:41.903Z</time></trkpt><trkpt lat="45.876883266121524" lon="11.1137618285331"><ele>656.0</ele><time>2026-04-24T16:19:42.903Z</time></trkpt><trkpt lat="45.87697377802765" lon="11.113652997673897"><ele>656.0</ele><time>2026-04-24T16:19:43.903Z</time></trkpt><trkpt lat="45.87704013262582" lon="11.11355364477952"><ele>656.0</ele><time>2026-04-24T16:19:44.903Z</time></trkpt><trkpt lat="45.876976933167846" lon="11.11370254192364"><ele>656.0</ele><time>2026-04-24T16:19:50.903Z</time></trkpt><trkpt lat="45.87692837002163" lon="11.113787608514066"><ele>656.0</ele><time>2026-04-24T16:19:51.903Z</time></trkpt><trkpt lat="45.87688105486831" lon="11.113858000500553"><ele>656.0</ele><time>2026-04-24T16:19:52.903Z</time></trkpt><trkpt lat="45.87683433244984" lon="11.113952331353365"><ele>656.0</ele><time>2026-04-24T16:19:53.903Z</time></trkpt><trkpt lat="45.8765740977875" lon="11.113867961369628"><ele>650.5</ele><time>2026-04-24T16:19:55.903Z</time></trkpt><trkpt lat="45.876493219190294" lon="11.113936341856515"><ele>645.0</ele><time>2026-04-24T16:19:57.903Z</time></trkpt><trkpt lat="45.87644085894254" lon="11.113853140855186"><ele>639.5</ele><time>2026-04-24T16:20:05.903Z</time></trkpt><trkpt lat="45.876480931660346" lon="11.113772593761292"><ele>634.0</ele><time>2026-04-24T16:20:06.903Z</time></trkpt><trkpt lat="45.876545686649195" lon="11.113677760143544"><ele>628.5</ele><time>2026-04-24T16:20:07.902Z</time></trkpt><trkpt lat="45.876613870740016" lon="11.113558104544799"><ele>623.0</ele><time>2026-04-24T16:20:08.902Z</time></trkpt><trkpt lat="45.876688745927545" lon="11.113413995725734"><ele>623.0</ele><time>2026-04-24T16:20:09.902Z</time></trkpt><trkpt lat="45.87676686139673" lon="11.113287528282259"><ele>623.0</ele><time>2026-04-24T16:20:10.902Z</time></trkpt><trkpt lat="45.87686836004814" lon="11.1131914424646"><ele>623.0</ele><time>2026-04-24T16:20:11.903Z</time></trkpt><trkpt lat="45.876989380193464" lon="11.113114609809196"><ele>623.0</ele><time>2026-04-24T16:20:12.903Z</time></trkpt><trkpt lat="45.8771254471891" lon="11.113111195221892"><ele>620.75</ele><time>2026-04-24T16:20:13.904Z</time></trkpt><trkpt lat="45.87727412849522" lon="11.113119127751718"><ele>618.5</ele><time>2026-04-24T16:20:14.904Z</time></trkpt><trkpt lat="45.87742354114761" lon="11.113122379451323"><ele>616.25</ele><time>2026-04-24T16:20:15.904Z</time></trkpt><trkpt lat="45.87755708848005" lon="11.11310011953303"><ele>614.0</ele><time>2026-04-24T16:20:16.904Z</time></trkpt><trkpt lat="45.87770683558461" lon="11.11302390534599"><ele>627.6666666666666</ele><time>2026-04-24T16:20:17.904Z</time></trkpt><trkpt lat="45.87784882336779" lon="11.112910739032595"><ele>641.3333333333334</ele><time>2026-04-24T16:20:18.904Z</time></trkpt><trkpt lat="45.877969613294944" lon="11.11273607318768"><ele>655.0</ele><time>2026-04-24T16:20:19.904Z</time></trkpt><trkpt lat="45.8780802623254" lon="11.112558532500449"><ele>646.0</ele><time>2026-04-24T16:20:20.904Z</time></trkpt><trkpt lat="45.87821649887299" lon="11.11239494075075"><ele>637.0</ele><time>2026-04-24T16:20:21.904Z</time></trkpt><trkpt lat="45.878327078338515" lon="11.11224592430219"><ele>628.0</ele><time>2026-04-24T16:20:22.904Z</time></trkpt><trkpt lat="45.878426861466735" lon="11.112116221933258"><ele>636.25</ele><time>2026-04-24T16:20:23.904Z</time></trkpt><trkpt lat="45.878526230799345" lon="11.112008758609234"><ele>644.5</ele><time>2026-04-24T16:20:24.904Z</time></trkpt><trkpt lat="45.87863198928246" lon="11.111920098650561"><ele>652.75</ele><time>2026-04-24T16:20:25.904Z</time></trkpt><trkpt lat="45.87874755595604" lon="11.111821795893796"><ele>661.0</ele><time>2026-04-24T16:20:26.904Z</time></trkpt><trkpt lat="45.87884808079381" lon="11.111718473615724"><ele>662.0</ele><time>2026-04-24T16:20:27.903Z</time></trkpt><trkpt lat="45.87889799713628" lon="11.11155720046156"><ele>663.0</ele><time>2026-04-24T16:20:28.903Z</time></trkpt><trkpt lat="45.878931422916864" lon="11.111398343833812"><ele>664.0</ele><time>2026-04-24T16:20:29.903Z</time></trkpt><trkpt lat="45.878934567088116" lon="11.111255959741277"><ele>665.0</ele><time>2026-04-24T16:20:30.903Z</time></trkpt><trkpt lat="45.87891391011709" lon="11.111160398025476"><ele>666.0</ele><time>2026-04-24T16:20:31.903Z</time></trkpt><trkpt lat="45.87888954347442" lon="11.111058286720112"><ele>666.0</ele><time>2026-04-24T16:20:33.903Z</time></trkpt><trkpt lat="45.87901198113445" lon="11.111035201469718"><ele>666.0</ele><time>2026-04-24T16:20:34.903Z</time></trkpt><trkpt lat="45.87912085325219" lon="11.11107861468858"><ele>666.0</ele><time>2026-04-24T16:20:36.903Z</time></trkpt><trkpt lat="45.87919998402623" lon="11.11111963666451"><ele>666.0</ele><time>2026-04-24T16:20:37.903Z</time></trkpt><trkpt lat="45.87926478102704" lon="11.111164261541061"><ele>666.0</ele><time>2026-04-24T16:20:38.903Z</time></trkpt><trkpt lat="45.87932389250123" lon="11.11120396812062"><ele>673.0</ele><time>2026-04-24T16:20:39.903Z</time></trkpt><trkpt lat="45.879428363889716" lon="11.11126805390049"><ele>680.0</ele><time>2026-04-24T16:20:41.903Z</time></trkpt><trkpt lat="45.87951315147588" lon="11.111359248649665"><ele>687.0</ele><time>2026-04-24T16:20:43.903Z</time></trkpt><trkpt lat="45.8795466739095" lon="11.111459439998958"><ele>694.0</ele><time>2026-04-24T16:20:45.903Z</time></trkpt><trkpt lat="45.87968946541222" lon="11.111278026923385"><ele>694.0</ele><time>2026-04-24T16:20:50.903Z</time></trkpt><trkpt lat="45.8796982006854" lon="11.111115556640325"><ele>694.0</ele><time>2026-04-24T16:20:52.903Z</time></trkpt><trkpt lat="45.87966649496816" lon="11.11095800974937"><ele>694.0</ele><time>2026-04-24T16:20:54.903Z</time></trkpt><trkpt lat="45.87961996544059" lon="11.110862069380529"><ele>694.0</ele><time>2026-04-24T16:20:55.903Z</time></trkpt><trkpt lat="45.879580580014895" lon="11.110776943393669"><ele>694.0</ele><time>2026-04-24T16:20:56.903Z</time></trkpt><trkpt lat="45.87951600850159" lon="11.110711937887686"><ele>697.0</ele><time>2026-04-24T16:20:57.903Z</time></trkpt><trkpt lat="45.8794405780821" lon="11.110668352608773"><ele>700.0</ele><time>2026-04-24T16:20:58.903Z</time></trkpt><trkpt lat="45.87929475581567" lon="11.110624060757141"><ele>703.0</ele><time>2026-04-24T16:21:00.903Z</time></trkpt><trkpt lat="45.8792118475487" lon="11.11059951071017"><ele>706.0</ele><time>2026-04-24T16:21:01.902Z</time></trkpt><trkpt lat="45.87911653248337" lon="11.110593655024541"><ele>709.0</ele><time>2026-04-24T16:21:02.902Z</time></trkpt><trkpt lat="45.87903883510738" lon="11.11058378302422"><ele>709.0</ele><time>2026-04-24T16:21:03.902Z</time></trkpt><trkpt lat="45.878959817081714" lon="11.110613472443493"><ele>709.0</ele><time>2026-04-24T16:21:04.902Z</time></trkpt><trkpt lat="45.87889225157754" lon="11.110612393678736"><ele>709.0</ele><time>2026-04-24T16:21:05.902Z</time></trkpt><trkpt lat="45.87882085330173" lon="11.110463132442124"><ele>709.0</ele><time>2026-04-24T16:21:07.902Z</time></trkpt><trkpt lat="45.87875055456917" lon="11.110382142628328"><ele>709.0</ele><time>2026-04-24T16:21:08.902Z</time></trkpt><trkpt lat="45.8786961571638" lon="11.110310297518144"><ele>709.0</ele><time>2026-04-24T16:21:09.902Z</time></trkpt><trkpt lat="45.878626932632145" lon="11.110231002711034"><ele>709.0</ele><time>2026-04-24T16:21:10.902Z</time></trkpt><trkpt lat="45.878559766554886" lon="11.110172384941796"><ele>709.0</ele><time>2026-04-24T16:21:11.902Z</time></trkpt><trkpt lat="45.8784958448089" lon="11.11003668860019"><ele>709.0</ele><time>2026-04-24T16:21:13.902Z</time></trkpt><trkpt lat="45.878481428696745" lon="11.10992792507377"><ele>709.0</ele><time>2026-04-24T16:21:14.902Z</time></trkpt><trkpt lat="45.87843220885127" lon="11.109806046372418"><ele>709.0</ele><time>2026-04-24T16:21:15.902Z</time></trkpt><trkpt lat="45.878380125672074" lon="11.109703792307734"><ele>704.2</ele><time>2026-04-24T16:21:16.902Z</time></trkpt><trkpt lat="45.87831610235143" lon="11.10963336766083"><ele>699.4000000000001</ele><time>2026-04-24T16:21:17.902Z</time></trkpt><trkpt lat="45.878248386046096" lon="11.10951476804018"><ele>694.6</ele><time>2026-04-24T16:21:18.902Z</time></trkpt><trkpt lat="45.878174326648455" lon="11.109391670990947"><ele>689.8</ele><time>2026-04-24T16:21:19.902Z</time></trkpt><trkpt lat="45.8781080071656" lon="11.109291290335602"><ele>685.0</ele><time>2026-04-24T16:21:20.902Z</time></trkpt><trkpt lat="45.87808002422264" lon="11.109209849900157"><ele>685.0</ele><time>2026-04-24T16:21:21.902Z</time></trkpt><trkpt lat="45.878077282240085" lon="11.10910528408198"><ele>685.0</ele><time>2026-04-24T16:21:23.902Z</time></trkpt><trkpt lat="45.87814574171707" lon="11.108990429630344"><ele>685.0</ele><time>2026-04-24T16:21:25.902Z</time></trkpt><trkpt lat="45.878218371304435" lon="11.10893630998184"><ele>685.0</ele><time>2026-04-24T16:21:26.902Z</time></trkpt><trkpt lat="45.8782894345599" lon="11.108898915505629"><ele>685.0</ele><time>2026-04-24T16:21:27.902Z</time></trkpt><trkpt lat="45.87836992051941" lon="11.108897158186373"><ele>685.0</ele><time>2026-04-24T16:21:28.902Z</time></trkpt><trkpt lat="45.8784833353462" lon="11.108902029734379"><ele>694.2</ele><time>2026-04-24T16:21:29.902Z</time></trkpt><trkpt lat="45.878576426834805" lon="11.108864246737378"><ele>703.4</ele><time>2026-04-24T16:21:30.902Z</time></trkpt><trkpt lat="45.87863400044247" lon="11.108807192084463"><ele>712.5999999999999</ele><time>2026-04-24T16:21:31.902Z</time></trkpt><trkpt lat="45.87864310419941" lon="11.108619368819532"><ele>721.8</ele><time>2026-04-24T16:21:33.902Z</time></trkpt><trkpt lat="45.87860791160496" lon="11.108507730416942"><ele>731.0</ele><time>2026-04-24T16:21:34.902Z</time></trkpt><trkpt lat="45.878594747004406" lon="11.108397433185912"><ele>731.0</ele><time>2026-04-24T16:21:35.902Z</time></trkpt><trkpt lat="45.878619232445374" lon="11.108265925666485"><ele>731.0</ele><time>2026-04-24T16:21:36.902Z</time></trkpt><trkpt lat="45.87860504382803" lon="11.108107584629563"><ele>731.0</ele><time>2026-04-24T16:21:37.902Z</time></trkpt><trkpt lat="45.87855395567487" lon="11.107933240166444"><ele>731.0</ele><time>2026-04-24T16:21:38.902Z</time></trkpt><trkpt lat="45.87849306895412" lon="11.107774326352992"><ele>733.4</ele><time>2026-04-24T16:21:39.902Z</time></trkpt><trkpt lat="45.8784657785809" lon="11.107634327778348"><ele>735.8</ele><time>2026-04-24T16:21:40.902Z</time></trkpt><trkpt lat="45.87845607952386" lon="11.107538113702045"><ele>738.1999999999999</ele><time>2026-04-24T16:21:41.902Z</time></trkpt><trkpt lat="45.87844917297922" lon="11.107431897701094"><ele>740.5999999999999</ele><time>2026-04-24T16:21:42.902Z</time></trkpt><trkpt lat="45.87845301406168" lon="11.107241243311156"><ele>743.0</ele><time>2026-04-24T16:21:44.902Z</time></trkpt><trkpt lat="45.878456925822555" lon="11.1071349361206"><ele>743.0</ele><time>2026-04-24T16:21:45.902Z</time></trkpt><trkpt lat="45.878410320785115" lon="11.106990922288208"><ele>743.0</ele><time>2026-04-24T16:21:47.902Z</time></trkpt><trkpt lat="45.87833033241628" lon="11.106904826933704"><ele>743.0</ele><time>2026-04-24T16:21:49.902Z</time></trkpt><trkpt lat="45.87838043856557" lon="11.106749425691973"><ele>743.0</ele><time>2026-04-24T16:21:51.902Z</time></trkpt><trkpt lat="45.878438608059966" lon="11.106639918765685"><ele>743.0</ele><time>2026-04-24T16:21:52.902Z</time></trkpt><trkpt lat="45.87842706356691" lon="11.106542266575152"><ele>736.2</ele><time>2026-04-24T16:21:53.902Z</time></trkpt><trkpt lat="45.8784099382964" lon="11.106388485134264"><ele>729.4</ele><time>2026-04-24T16:21:55.902Z</time></trkpt><trkpt lat="45.87836721058908" lon="11.106304340830597"><ele>722.6</ele><time>2026-04-24T16:21:56.902Z</time></trkpt><trkpt lat="45.87830487866783" lon="11.106182720819087"><ele>715.8000000000001</ele><time>2026-04-24T16:21:58.902Z</time></trkpt><trkpt lat="45.878252467764504" lon="11.106020747799553"><ele>709.0</ele><time>2026-04-24T16:22:00.902Z</time></trkpt><trkpt lat="45.87821672084348" lon="11.1059087192839"><ele>709.0</ele><time>2026-04-24T16:22:01.902Z</time></trkpt><trkpt lat="45.87816320348936" lon="11.105782942543275"><ele>709.0</ele><time>2026-04-24T16:22:02.902Z</time></trkpt><trkpt lat="45.878087493685925" lon="11.105682510787634"><ele>709.0</ele><time>2026-04-24T16:22:03.902Z</time></trkpt><trkpt lat="45.87804645238835" lon="11.105601436685205"><ele>709.0</ele><time>2026-04-24T16:22:04.901Z</time></trkpt><trkpt lat="45.87798375700958" lon="11.105514845173005"><ele>709.0</ele><time>2026-04-24T16:22:05.901Z</time></trkpt><trkpt lat="45.87791861013635" lon="11.105433722583548"><ele>709.0</ele><time>2026-04-24T16:22:06.901Z</time></trkpt><trkpt lat="45.87783911156154" lon="11.105359996812718"><ele>706.6666666666667</ele><time>2026-04-24T16:22:07.901Z</time></trkpt><trkpt lat="45.877767085465955" lon="11.105302491182163"><ele>704.3333333333334</ele><time>2026-04-24T16:22:08.901Z</time></trkpt><trkpt lat="45.87767917627076" lon="11.105270322478423"><ele>702.0</ele><time>2026-04-24T16:22:09.901Z</time></trkpt><trkpt lat="45.877603221013466" lon="11.10525263482942"><ele>699.6666666666666</ele><time>2026-04-24T16:22:10.901Z</time></trkpt><trkpt lat="45.877523674441505" lon="11.105264977436377"><ele>697.3333333333333</ele><time>2026-04-24T16:22:11.901Z</time></trkpt><trkpt lat="45.87744848008907" lon="11.105290644172564"><ele>695.0</ele><time>2026-04-24T16:22:12.901Z</time></trkpt><trkpt lat="45.877379529464804" lon="11.10532222538719"><ele>695.0</ele><time>2026-04-24T16:22:13.901Z</time></trkpt><trkpt lat="45.8773111790455" lon="11.105319771565831"><ele>695.0</ele><time>2026-04-24T16:22:14.901Z</time></trkpt><trkpt lat="45.87725320517255" lon="11.105283392870552"><ele>695.0</ele><time>2026-04-24T16:22:15.901Z</time></trkpt><trkpt lat="45.877199462326885" lon="11.105190790094165"><ele>695.0</ele><time>2026-04-24T16:22:16.901Z</time></trkpt><trkpt lat="45.87715522324083" lon="11.105087921047877"><ele>695.0</ele><time>2026-04-24T16:22:17.903Z</time></trkpt><trkpt lat="45.877106563068054" lon="11.104982897459491"><ele>695.0</ele><time>2026-04-24T16:22:18.903Z</time></trkpt><trkpt lat="45.87708682773845" lon="11.104871400698277"><ele>693.6666666666666</ele><time>2026-04-24T16:22:19.903Z</time></trkpt><trkpt lat="45.877063384422996" lon="11.104764502714994"><ele>692.3333333333333</ele><time>2026-04-24T16:22:20.903Z</time></trkpt><trkpt lat="45.87702535571923" lon="11.10466042681772"><ele>691.0</ele><time>2026-04-24T16:22:21.903Z</time></trkpt><trkpt lat="45.87701322400085" lon="11.10455721231315"><ele>689.6666666666666</ele><time>2026-04-24T16:22:22.903Z</time></trkpt><trkpt lat="45.877067799472414" lon="11.104395018225782"><ele>688.3333333333334</ele><time>2026-04-24T16:22:24.903Z</time></trkpt><trkpt lat="45.87714661369483" lon="11.104362160029662"><ele>687.0</ele><time>2026-04-24T16:22:25.903Z</time></trkpt><trkpt lat="45.87722564179459" lon="11.104273247464246"><ele>687.0</ele><time>2026-04-24T16:22:26.903Z</time></trkpt><trkpt lat="45.877299801567" lon="11.104188465170228"><ele>687.0</ele><time>2026-04-24T16:22:27.902Z</time></trkpt><trkpt lat="45.8773615073301" lon="11.104094315813862"><ele>687.0</ele><time>2026-04-24T16:22:28.902Z</time></trkpt><trkpt lat="45.87738439992385" lon="11.103946395564483"><ele>687.0</ele><time>2026-04-24T16:22:29.903Z</time></trkpt><trkpt lat="45.877397665873396" lon="11.10382477089277"><ele>687.0</ele><time>2026-04-24T16:22:30.903Z</time></trkpt><trkpt lat="45.87739770262397" lon="11.10370177460295"><ele>688.2</ele><time>2026-04-24T16:22:31.903Z</time></trkpt><trkpt lat="45.87739234781134" lon="11.103568971314061"><ele>689.4000000000001</ele><time>2026-04-24T16:22:32.903Z</time></trkpt><trkpt lat="45.877356580775945" lon="11.103439938200596"><ele>690.5999999999999</ele><time>2026-04-24T16:22:33.903Z</time></trkpt><trkpt lat="45.877292746747756" lon="11.10330782386683"><ele>691.8</ele><time>2026-04-24T16:22:34.903Z</time></trkpt><trkpt lat="45.877222688297365" lon="11.103211249225975"><ele>693.0</ele><time>2026-04-24T16:22:35.903Z</time></trkpt><trkpt lat="45.87713348716305" lon="11.10314852478097"><ele>696.0</ele><time>2026-04-24T16:22:36.903Z</time></trkpt><trkpt lat="45.877036399903446" lon="11.103085921193781"><ele>699.0</ele><time>2026-04-24T16:22:37.903Z</time></trkpt><trkpt lat="45.87695907223363" lon="11.102986721673641"><ele>702.0</ele><time>2026-04-24T16:22:38.903Z</time></trkpt><trkpt lat="45.876879533514064" lon="11.102894635842013"><ele>705.0</ele><time>2026-04-24T16:22:39.903Z</time></trkpt><trkpt lat="45.876802417555865" lon="11.102837644151228"><ele>708.0</ele><time>2026-04-24T16:22:40.903Z</time></trkpt><trkpt lat="45.87674641092781" lon="11.102783157143516"><ele>710.5</ele><time>2026-04-24T16:22:41.903Z</time></trkpt><trkpt lat="45.87670641181408" lon="11.10269538797161"><ele>713.0</ele><time>2026-04-24T16:22:42.903Z</time></trkpt><trkpt lat="45.876711155431835" lon="11.102577232825194"><ele>715.5</ele><time>2026-04-24T16:22:43.903Z</time></trkpt><trkpt lat="45.87672761331849" lon="11.102458224344588"><ele>718.0</ele><time>2026-04-24T16:22:44.903Z</time></trkpt><trkpt lat="45.876814597958116" lon="11.102361283211922"><ele>720.5</ele><time>2026-04-24T16:22:45.903Z</time></trkpt><trkpt lat="45.87683682264846" lon="11.102264434277762"><ele>723.0</ele><time>2026-04-24T16:22:46.903Z</time></trkpt><trkpt lat="45.876854603891616" lon="11.10213142969362"><ele>723.0</ele><time>2026-04-24T16:22:47.903Z</time></trkpt><trkpt lat="45.876791896918185" lon="11.102018992319692"><ele>723.0</ele><time>2026-04-24T16:22:48.903Z</time></trkpt><trkpt lat="45.87672408697248" lon="11.101920225311629"><ele>723.0</ele><time>2026-04-24T16:22:49.903Z</time></trkpt><trkpt lat="45.876662661161255" lon="11.101798035394847"><ele>723.0</ele><time>2026-04-24T16:22:50.903Z</time></trkpt><trkpt lat="45.8765959874671" lon="11.101684160578595"><ele>723.0</ele><time>2026-04-24T16:22:51.903Z</time></trkpt><trkpt lat="45.8765266687571" lon="11.101574400054949"><ele>711.0</ele><time>2026-04-24T16:22:52.903Z</time></trkpt><trkpt lat="45.87640390288411" lon="11.101543011407998"><ele>699.0</ele><time>2026-04-24T16:22:53.903Z</time></trkpt><trkpt lat="45.87640437003503" lon="11.101275203859029"><ele>687.0</ele><time>2026-04-24T16:22:54.903Z</time></trkpt><trkpt lat="45.87635236148189" lon="11.101174282073165"><ele>675.0</ele><time>2026-04-24T16:22:55.903Z</time></trkpt><trkpt lat="45.8763296470959" lon="11.101028147110888"><ele>675.0</ele><time>2026-04-24T16:22:57.903Z</time></trkpt><trkpt lat="45.87637256880383" lon="11.100924321997073"><ele>675.0</ele><time>2026-04-24T16:22:58.903Z</time></trkpt><trkpt lat="45.876411677088974" lon="11.100773730035357"><ele>675.0</ele><time>2026-04-24T16:22:59.903Z</time></trkpt><trkpt lat="45.87644393704789" lon="11.10060007806033"><ele>675.0</ele><time>2026-04-24T16:23:00.903Z</time></trkpt><trkpt lat="45.87646207111054" lon="11.10046356444139"><ele>675.0</ele><time>2026-04-24T16:23:01.903Z</time></trkpt><trkpt lat="45.87643610799348" lon="11.100353867223674"><ele>677.8</ele><time>2026-04-24T16:23:02.902Z</time></trkpt><trkpt lat="45.876417186342444" lon="11.100247096971819"><ele>680.6</ele><time>2026-04-24T16:23:03.902Z</time></trkpt><trkpt lat="45.87638189053861" lon="11.100168383990367"><ele>683.4000000000001</ele><time>2026-04-24T16:23:04.902Z</time></trkpt><trkpt lat="45.87630557814746" lon="11.100017823002647"><ele>686.2</ele><time>2026-04-24T16:23:05.902Z</time></trkpt><trkpt lat="45.87623242417135" lon="11.099867316189275"><ele>689.0</ele><time>2026-04-24T16:23:06.902Z</time></trkpt><trkpt lat="45.876179166369575" lon="11.099777522355396"><ele>684.5</ele><time>2026-04-24T16:23:07.902Z</time></trkpt><trkpt lat="45.87611511996288" lon="11.099746710179106"><ele>680.0</ele><time>2026-04-24T16:23:08.902Z</time></trkpt><trkpt lat="45.87603162727881" lon="11.099755617551002"><ele>675.5</ele><time>2026-04-24T16:23:16.902Z</time></trkpt><trkpt lat="45.87596417514977" lon="11.099684601537817"><ele>671.0</ele><time>2026-04-24T16:23:18.902Z</time></trkpt><trkpt lat="45.87589735533212" lon="11.099633816078592"><ele>666.5</ele><time>2026-04-24T16:23:20.902Z</time></trkpt><trkpt lat="45.87584618092075" lon="11.099569280128431"><ele>662.0</ele><time>2026-04-24T16:23:22.902Z</time></trkpt><trkpt lat="45.8758195476804" lon="11.09947349581545"><ele>662.0</ele><time>2026-04-24T16:23:24.902Z</time></trkpt><trkpt lat="45.87583045127409" lon="11.099316773256726"><ele>662.0</ele><time>2026-04-24T16:23:26.902Z</time></trkpt><trkpt lat="45.87576724312965" lon="11.099162199724828"><ele>662.0</ele><time>2026-04-24T16:23:28.902Z</time></trkpt><trkpt lat="45.87571699318266" lon="11.09907897696153"><ele>662.0</ele><time>2026-04-24T16:23:29.902Z</time></trkpt><trkpt lat="45.8756511795232" lon="11.099004748833487"><ele>662.0</ele><time>2026-04-24T16:23:30.902Z</time></trkpt><trkpt lat="45.8756087550531" lon="11.098867304983237"><ele>662.0</ele><time>2026-04-24T16:23:32.902Z</time></trkpt><trkpt lat="45.87565783243625" lon="11.098705258880658"><ele>662.0</ele><time>2026-04-24T16:23:34.902Z</time></trkpt><trkpt lat="45.87568959397029" lon="11.098570675992194"><ele>662.0</ele><time>2026-04-24T16:23:35.902Z</time></trkpt><trkpt lat="45.875707748481986" lon="11.098456968479804"><ele>662.0</ele><time>2026-04-24T16:23:36.902Z</time></trkpt><trkpt lat="45.875700247754644" lon="11.098359559918881"><ele>662.0</ele><time>2026-04-24T16:23:37.902Z</time></trkpt><trkpt lat="45.87570448723686" lon="11.098228908139843"><ele>664.0</ele><time>2026-04-24T16:23:38.902Z</time></trkpt><trkpt lat="45.87572750779498" lon="11.098003666657476"><ele>666.0</ele><time>2026-04-24T16:23:40.902Z</time></trkpt><trkpt lat="45.87573902826206" lon="11.097848581294048"><ele>668.0</ele><time>2026-04-24T16:23:41.902Z</time></trkpt><trkpt lat="45.875715895109174" lon="11.097691139326766"><ele>670.0</ele><time>2026-04-24T16:23:42.902Z</time></trkpt><trkpt lat="45.87567725900706" lon="11.097543177690593"><ele>677.25</ele><time>2026-04-24T16:23:43.902Z</time></trkpt><trkpt lat="45.8756277207159" lon="11.097412797256954"><ele>684.5</ele><time>2026-04-24T16:23:44.902Z</time></trkpt><trkpt lat="45.87556690531056" lon="11.097260369279557"><ele>691.75</ele><time>2026-04-24T16:23:45.902Z</time></trkpt><trkpt lat="45.87550169584997" lon="11.097121089778591"><ele>699.0</ele><time>2026-04-24T16:23:46.902Z</time></trkpt><trkpt lat="45.87543088110345" lon="11.09699002629224"><ele>699.0</ele><time>2026-04-24T16:23:47.902Z</time></trkpt><trkpt lat="45.87537034720441" lon="11.096886224945"><ele>699.0</ele><time>2026-04-24T16:23:48.902Z</time></trkpt><trkpt lat="45.87531510142917" lon="11.096756258290604"><ele>699.0</ele><time>2026-04-24T16:23:49.902Z</time></trkpt><trkpt lat="45.87523899575234" lon="11.096623038197079"><ele>699.0</ele><time>2026-04-24T16:23:50.902Z</time></trkpt><trkpt lat="45.87518925937017" lon="11.096493741016012"><ele>699.0</ele><time>2026-04-24T16:23:51.902Z</time></trkpt><trkpt lat="45.875157081483714" lon="11.096347103388302"><ele>703.2</ele><time>2026-04-24T16:23:52.902Z</time></trkpt><trkpt lat="45.875131225155506" lon="11.09620167555388"><ele>707.4000000000001</ele><time>2026-04-24T16:23:53.902Z</time></trkpt><trkpt lat="45.8751099499218" lon="11.096042918512891"><ele>711.6</ele><time>2026-04-24T16:23:54.902Z</time></trkpt><trkpt lat="45.8751019825647" lon="11.095897759416822"><ele>715.8</ele><time>2026-04-24T16:23:55.902Z</time></trkpt><trkpt lat="45.87506623672447" lon="11.095807087603175"><ele>720.0</ele><time>2026-04-24T16:23:56.902Z</time></trkpt><trkpt lat="45.87497346325938" lon="11.09575687600644"><ele>708.75</ele><time>2026-04-24T16:23:58.902Z</time></trkpt><trkpt lat="45.874830413599305" lon="11.095789752073337"><ele>697.5</ele><time>2026-04-24T16:24:00.902Z</time></trkpt><trkpt lat="45.87470829408766" lon="11.095873552213748"><ele>686.25</ele><time>2026-04-24T16:24:01.902Z</time></trkpt><trkpt lat="45.8746176912071" lon="11.09592183064996"><ele>675.0</ele><time>2026-04-24T16:24:02.902Z</time></trkpt><trkpt lat="45.87453143739183" lon="11.095956389506076"><ele>675.0</ele><time>2026-04-24T16:24:03.902Z</time></trkpt><trkpt lat="45.87445685395614" lon="11.095986773501139"><ele>675.0</ele><time>2026-04-24T16:24:04.902Z</time></trkpt><trkpt lat="45.874357856067306" lon="11.095998280711083"><ele>675.0</ele><time>2026-04-24T16:24:05.901Z</time></trkpt><trkpt lat="45.87424089700102" lon="11.096027027225988"><ele>675.0</ele><time>2026-04-24T16:24:06.901Z</time></trkpt><trkpt lat="45.874159945380505" lon="11.096077224771713"><ele>675.0</ele><time>2026-04-24T16:24:07.901Z</time></trkpt><trkpt lat="45.874080269654414" lon="11.09613276951836"><ele>673.8</ele><time>2026-04-24T16:24:08.901Z</time></trkpt><trkpt lat="45.87398368888788" lon="11.096170354672015"><ele>672.6</ele><time>2026-04-24T16:24:09.901Z</time></trkpt><trkpt lat="45.873918145275205" lon="11.096184975346684"><ele>671.4000000000001</ele><time>2026-04-24T16:24:10.901Z</time></trkpt><trkpt lat="45.87380847214491" lon="11.096123170157762"><ele>670.2</ele><time>2026-04-24T16:24:12.901Z</time></trkpt><trkpt lat="45.87373753983625" lon="11.09607743683199"><ele>669.0</ele><time>2026-04-24T16:24:13.901Z</time></trkpt><trkpt lat="45.87364622038434" lon="11.096034228577572"><ele>669.0</ele><time>2026-04-24T16:24:14.901Z</time></trkpt><trkpt lat="45.87356654225952" lon="11.095951424134922"><ele>669.0</ele><time>2026-04-24T16:24:16.901Z</time></trkpt><trkpt lat="45.87351450292117" lon="11.095746798150534"><ele>669.0</ele><time>2026-04-24T16:24:18.901Z</time></trkpt><trkpt lat="45.8734876890397" lon="11.095641682149061"><ele>669.0</ele><time>2026-04-24T16:24:19.901Z</time></trkpt><trkpt lat="45.873495691738" lon="11.095480145885734"><ele>669.0</ele><time>2026-04-24T16:24:21.901Z</time></trkpt><trkpt lat="45.87352183450221" lon="11.095362958725165"><ele>668.8333333333334</ele><time>2026-04-24T16:24:22.901Z</time></trkpt><trkpt lat="45.87353677760318" lon="11.09524295622467"><ele>668.6666666666666</ele><time>2026-04-24T16:24:23.903Z</time></trkpt><trkpt lat="45.87354498910149" lon="11.0951419630321"><ele>668.5</ele><time>2026-04-24T16:24:24.903Z</time></trkpt><trkpt lat="45.87358344396571" lon="11.094951684119659"><ele>668.3333333333333</ele><time>2026-04-24T16:24:26.902Z</time></trkpt><trkpt lat="45.87362637544106" lon="11.094872206977072"><ele>668.1666666666666</ele><time>2026-04-24T16:24:27.902Z</time></trkpt><trkpt lat="45.8736676834628" lon="11.094789754455455"><ele>668.0</ele><time>2026-04-24T16:24:28.902Z</time></trkpt><trkpt lat="45.873704657701225" lon="11.094671716437354"><ele>668.0</ele><time>2026-04-24T16:24:30.903Z</time></trkpt><trkpt lat="45.873741223634525" lon="11.09458902091797"><ele>668.0</ele><time>2026-04-24T16:24:31.903Z</time></trkpt><trkpt lat="45.87378281772468" lon="11.094449508663676"><ele>668.0</ele><time>2026-04-24T16:24:32.903Z</time></trkpt><trkpt lat="45.87382577958238" lon="11.094330504032339"><ele>668.0</ele><time>2026-04-24T16:24:33.902Z</time></trkpt><trkpt lat="45.87387641015271" lon="11.094198254246313"><ele>668.0</ele><time>2026-04-24T16:24:34.902Z</time></trkpt><trkpt lat="45.87394593828966" lon="11.094072267388254"><ele>664.4</ele><time>2026-04-24T16:24:35.902Z</time></trkpt><trkpt lat="45.87400626281265" lon="11.093909873102485"><ele>660.8</ele><time>2026-04-24T16:24:36.902Z</time></trkpt><trkpt lat="45.87405576551574" lon="11.093770689625138"><ele>657.2</ele><time>2026-04-24T16:24:37.902Z</time></trkpt><trkpt lat="45.87409353637155" lon="11.093630477220387"><ele>653.6</ele><time>2026-04-24T16:24:38.902Z</time></trkpt><trkpt lat="45.874139427865735" lon="11.09349034485424"><ele>650.0</ele><time>2026-04-24T16:24:40.902Z</time></trkpt><trkpt lat="45.874207257951085" lon="11.093401384039712"><ele>649.0</ele><time>2026-04-24T16:24:42.903Z</time></trkpt><trkpt lat="45.87425532899442" lon="11.093223345375533"><ele>648.0</ele><time>2026-04-24T16:24:44.903Z</time></trkpt><trkpt lat="45.87426607524116" lon="11.093123438350439"><ele>647.0</ele><time>2026-04-24T16:24:45.903Z</time></trkpt><trkpt lat="45.874282547312035" lon="11.093027916871554"><ele>646.0</ele><time>2026-04-24T16:24:46.902Z</time></trkpt><trkpt lat="45.87429353961281" lon="11.092936722927627"><ele>645.0</ele><time>2026-04-24T16:24:47.902Z</time></trkpt><trkpt lat="45.87431341059022" lon="11.092756601188702"><ele>641.2</ele><time>2026-04-24T16:24:49.902Z</time></trkpt><trkpt lat="45.87430937591552" lon="11.092624949140099"><ele>637.4</ele><time>2026-04-24T16:24:51.902Z</time></trkpt><trkpt lat="45.8742724684734" lon="11.092431094330978"><ele>633.6</ele><time>2026-04-24T16:24:53.902Z</time></trkpt><trkpt lat="45.87424098916181" lon="11.09232654984003"><ele>629.8</ele><time>2026-04-24T16:24:54.902Z</time></trkpt><trkpt lat="45.87420817252514" lon="11.092206201616367"><ele>626.0</ele><time>2026-04-24T16:24:56.902Z</time></trkpt><trkpt lat="45.87425198018733" lon="11.092108266261713"><ele>632.4</ele><time>2026-04-24T16:24:59.902Z</time></trkpt><trkpt lat="45.87435460583225" lon="11.092071562534167"><ele>638.8</ele><time>2026-04-24T16:25:01.902Z</time></trkpt><trkpt lat="45.87447857781016" lon="11.092044846982466"><ele>645.1999999999999</ele><time>2026-04-24T16:25:03.902Z</time></trkpt><trkpt lat="45.8745576901009" lon="11.092031886738118"><ele>651.6</ele><time>2026-04-24T16:25:04.902Z</time></trkpt><trkpt lat="45.874653692643" lon="11.092013594689748"><ele>658.0</ele><time>2026-04-24T16:25:05.902Z</time></trkpt><trkpt lat="45.8747532708533" lon="11.091992078879949"><ele>658.0</ele><time>2026-04-24T16:25:06.902Z</time></trkpt><trkpt lat="45.87482499267113" lon="11.091998813850248"><ele>658.0</ele><time>2026-04-24T16:25:07.902Z</time></trkpt><trkpt lat="45.874925096424654" lon="11.091892929191085"><ele>658.0</ele><time>2026-04-24T16:25:09.902Z</time></trkpt><trkpt lat="45.87497780887725" lon="11.091833128563845"><ele>658.0</ele><time>2026-04-24T16:25:10.902Z</time></trkpt><trkpt lat="45.87504475844634" lon="11.091834951514938"><ele>658.0</ele><time>2026-04-24T16:25:11.902Z</time></trkpt><trkpt lat="45.875109713841674" lon="11.091809661852198"><ele>658.0</ele><time>2026-04-24T16:25:12.902Z</time></trkpt><trkpt lat="45.875201179065826" lon="11.091730041505464"><ele>660.5999999999999</ele><time>2026-04-24T16:25:13.902Z</time></trkpt><trkpt lat="45.87530356163275" lon="11.091695738934371"><ele>663.1999999999999</ele><time>2026-04-24T16:25:14.902Z</time></trkpt><trkpt lat="45.8753978193823" lon="11.091734417751628"><ele>665.8</ele><time>2026-04-24T16:25:16.902Z</time></trkpt><trkpt lat="45.87545984228255" lon="11.09178280028176"><ele>668.4</ele><time>2026-04-24T16:25:17.902Z</time></trkpt><trkpt lat="45.87556304047099" lon="11.091855896022816"><ele>671.0</ele><time>2026-04-24T16:25:18.902Z</time></trkpt><trkpt lat="45.875646168057905" lon="11.091908267177658"><ele>671.0</ele><time>2026-04-24T16:25:19.902Z</time></trkpt><trkpt lat="45.87573456142564" lon="11.09189669816513"><ele>671.0</ele><time>2026-04-24T16:25:20.902Z</time></trkpt><trkpt lat="45.87585460774465" lon="11.091871793329927"><ele>671.0</ele><time>2026-04-24T16:25:21.902Z</time></trkpt><trkpt lat="45.87594284887148" lon="11.091869316753472"><ele>671.0</ele><time>2026-04-24T16:25:22.902Z</time></trkpt><trkpt lat="45.87599672855187" lon="11.091812349766986"><ele>671.0</ele><time>2026-04-24T16:25:23.902Z</time></trkpt><trkpt lat="45.87604546013676" lon="11.09169597254686"><ele>670.8333333333333</ele><time>2026-04-24T16:25:24.902Z</time></trkpt><trkpt lat="45.8760815270554" lon="11.091573557359192"><ele>670.6666666666666</ele><time>2026-04-24T16:25:25.902Z</time></trkpt><trkpt lat="45.87611420463627" lon="11.091468413001195"><ele>670.5</ele><time>2026-04-24T16:25:26.902Z</time></trkpt><trkpt lat="45.87614845826041" lon="11.091367022443443"><ele>670.3333333333334</ele><time>2026-04-24T16:25:27.902Z</time></trkpt><trkpt lat="45.87620438684117" lon="11.091305852384952"><ele>670.1666666666667</ele><time>2026-04-24T16:25:28.902Z</time></trkpt><trkpt lat="45.876263867909195" lon="11.091252285895276"><ele>670.0</ele><time>2026-04-24T16:25:29.902Z</time></trkpt><trkpt lat="45.87635358520856" lon="11.0912001036335"><ele>670.0</ele><time>2026-04-24T16:25:30.902Z</time></trkpt><trkpt lat="45.87640308640729" lon="11.091133566075843"><ele>670.0</ele><time>2026-04-24T16:25:31.902Z</time></trkpt><trkpt lat="45.87641950000973" lon="11.091024888583318"><ele>670.0</ele><time>2026-04-24T16:25:32.902Z</time></trkpt><trkpt lat="45.87641997032879" lon="11.09087732572728"><ele>670.0</ele><time>2026-04-24T16:25:33.902Z</time></trkpt><trkpt lat="45.87644545919822" lon="11.09076527532926"><ele>670.0</ele><time>2026-04-24T16:25:34.902Z</time></trkpt><trkpt lat="45.87651185967087" lon="11.090674661375893"><ele>670.0</ele><time>2026-04-24T16:25:35.902Z</time></trkpt><trkpt lat="45.87656458365764" lon="11.09057116411282"><ele>670.3333333333334</ele><time>2026-04-24T16:25:36.902Z</time></trkpt><trkpt lat="45.87662001048035" lon="11.090452095690903"><ele>670.6666666666667</ele><time>2026-04-24T16:25:37.902Z</time></trkpt><trkpt lat="45.87670787839334" lon="11.090409106506339"><ele>671.0</ele><time>2026-04-24T16:25:38.902Z</time></trkpt><trkpt lat="45.876755090735216" lon="11.090336447238432"><ele>671.3333333333334</ele><time>2026-04-24T16:25:39.902Z</time></trkpt><trkpt lat="45.876805701802255" lon="11.090258557205479"><ele>671.6666666666666</ele><time>2026-04-24T16:25:41.902Z</time></trkpt><trkpt lat="45.8768101228873" lon="11.090132126138153"><ele>672.0</ele><time>2026-04-24T16:25:43.902Z</time></trkpt><trkpt lat="45.87683375740961" lon="11.090046397253639"><ele>672.0</ele><time>2026-04-24T16:25:45.902Z</time></trkpt><trkpt lat="45.87688822088334" lon="11.08997122365928"><ele>672.0</ele><time>2026-04-24T16:25:48.902Z</time></trkpt><trkpt lat="45.87694000430313" lon="11.089906856376414"><ele>672.0</ele><time>2026-04-24T16:26:04.901Z</time></trkpt><trkpt lat="45.877039598460684" lon="11.089772114267623"><ele>672.0</ele><time>2026-04-24T16:26:06.901Z</time></trkpt><trkpt lat="45.8770920730799" lon="11.0896986014854"><ele>672.0</ele><time>2026-04-24T16:26:07.901Z</time></trkpt><trkpt lat="45.8771430562713" lon="11.089633588583348"><ele>672.0</ele><time>2026-04-24T16:26:08.901Z</time></trkpt><trkpt lat="45.87723028977828" lon="11.089539287913711"><ele>672.8</ele><time>2026-04-24T16:26:09.901Z</time></trkpt><trkpt lat="45.877298055981875" lon="11.089434365562457"><ele>673.6</ele><time>2026-04-24T16:26:10.901Z</time></trkpt><trkpt lat="45.87738603984011" lon="11.089366277356895"><ele>674.4</ele><time>2026-04-24T16:26:11.901Z</time></trkpt><trkpt lat="45.877467013386244" lon="11.089290197604736"><ele>675.1999999999999</ele><time>2026-04-24T16:26:12.901Z</time></trkpt><trkpt lat="45.8775674641906" lon="11.089226871110009"><ele>676.0</ele><time>2026-04-24T16:26:13.901Z</time></trkpt><trkpt lat="45.877680149301874" lon="11.089196199550207"><ele>676.0</ele><time>2026-04-24T16:26:14.901Z</time></trkpt><trkpt lat="45.877786621546115" lon="11.089138262313233"><ele>676.0</ele><time>2026-04-24T16:26:15.901Z</time></trkpt><trkpt lat="45.877878598839956" lon="11.089041622403297"><ele>676.0</ele><time>2026-04-24T16:26:16.901Z</time></trkpt><trkpt lat="45.877961493887135" lon="11.088934482989492"><ele>676.0</ele><time>2026-04-24T16:26:17.901Z</time></trkpt><trkpt lat="45.87803384288402" lon="11.088799508614334"><ele>669.25</ele><time>2026-04-24T16:26:18.901Z</time></trkpt><trkpt lat="45.8781059052477" lon="11.088665037791303"><ele>662.5</ele><time>2026-04-24T16:26:19.901Z</time></trkpt><trkpt lat="45.87817032854352" lon="11.088513550338938"><ele>655.75</ele><time>2026-04-24T16:26:20.901Z</time></trkpt><trkpt lat="45.87822465199241" lon="11.088357313600392"><ele>649.0</ele><time>2026-04-24T16:26:21.901Z</time></trkpt><trkpt lat="45.87827948923447" lon="11.088207781759087"><ele>653.25</ele><time>2026-04-24T16:26:22.901Z</time></trkpt><trkpt lat="45.87833302108322" lon="11.088059395689731"><ele>657.5</ele><time>2026-04-24T16:26:23.901Z</time></trkpt><trkpt lat="45.87840323742658" lon="11.087921931802981"><ele>661.75</ele><time>2026-04-24T16:26:24.901Z</time></trkpt><trkpt lat="45.878461529714286" lon="11.087771684620717"><ele>666.0</ele><time>2026-04-24T16:26:25.901Z</time></trkpt><trkpt lat="45.878514218849624" lon="11.087634158012142"><ele>666.0</ele><time>2026-04-24T16:26:26.901Z</time></trkpt><trkpt lat="45.878573005716255" lon="11.087480715321497"><ele>666.0</ele><time>2026-04-24T16:26:27.901Z</time></trkpt><trkpt lat="45.8786238861183" lon="11.087335901064428"><ele>666.0</ele><time>2026-04-24T16:26:28.901Z</time></trkpt><trkpt lat="45.87866337618106" lon="11.087168869100166"><ele>666.0</ele><time>2026-04-24T16:26:29.902Z</time></trkpt><trkpt lat="45.87870943852815" lon="11.087009618227235"><ele>661.0</ele><time>2026-04-24T16:26:30.902Z</time></trkpt><trkpt lat="45.878716973041996" lon="11.086830188154984"><ele>656.0</ele><time>2026-04-24T16:26:31.901Z</time></trkpt><trkpt lat="45.878742710538845" lon="11.086664724108148"><ele>651.0</ele><time>2026-04-24T16:26:32.901Z</time></trkpt><trkpt lat="45.87875551500963" lon="11.086499895316384"><ele>646.0</ele><time>2026-04-24T16:26:33.902Z</time></trkpt><trkpt lat="45.87877547854828" lon="11.086313400469223"><ele>642.5</ele><time>2026-04-24T16:26:34.902Z</time></trkpt><trkpt lat="45.87882004439921" lon="11.086140006575242"><ele>639.0</ele><time>2026-04-24T16:26:35.902Z</time></trkpt><trkpt lat="45.8788696783041" lon="11.085955259226502"><ele>635.5</ele><time>2026-04-24T16:26:36.902Z</time></trkpt><trkpt lat="45.878915879415054" lon="11.085762042637459"><ele>632.0</ele><time>2026-04-24T16:26:37.902Z</time></trkpt><trkpt lat="45.878964842464114" lon="11.085579801924961"><ele>626.0</ele><time>2026-04-24T16:26:38.902Z</time></trkpt><trkpt lat="45.87900919930051" lon="11.085399966649135"><ele>620.0</ele><time>2026-04-24T16:26:39.902Z</time></trkpt><trkpt lat="45.87905998770422" lon="11.085212611538907"><ele>614.0</ele><time>2026-04-24T16:26:40.902Z</time></trkpt><trkpt lat="45.87912203565401" lon="11.08504731598902"><ele>608.0</ele><time>2026-04-24T16:26:41.902Z</time></trkpt><trkpt lat="45.879170316970765" lon="11.084860809184734"><ele>605.0</ele><time>2026-04-24T16:26:42.901Z</time></trkpt><trkpt lat="45.87921403289843" lon="11.084683022831028"><ele>602.0</ele><time>2026-04-24T16:26:43.901Z</time></trkpt><trkpt lat="45.87923386546916" lon="11.08450113693227"><ele>599.0</ele><time>2026-04-24T16:26:44.901Z</time></trkpt><trkpt lat="45.87924763535139" lon="11.084311599675818"><ele>596.0</ele><time>2026-04-24T16:26:45.901Z</time></trkpt><trkpt lat="45.87925854365766" lon="11.084119568378869"><ele>608.0</ele><time>2026-04-24T16:26:46.901Z</time></trkpt><trkpt lat="45.87926898122732" lon="11.083923283093059"><ele>620.0</ele><time>2026-04-24T16:26:47.901Z</time></trkpt><trkpt lat="45.87928213981017" lon="11.083735629012262"><ele>632.0</ele><time>2026-04-24T16:26:48.901Z</time></trkpt><trkpt lat="45.87929369520517" lon="11.083545662386078"><ele>644.0</ele><time>2026-04-24T16:26:49.901Z</time></trkpt><trkpt lat="45.879306185846524" lon="11.083362894323368"><ele>640.25</ele><time>2026-04-24T16:26:50.901Z</time></trkpt><trkpt lat="45.8793201469255" lon="11.083183183910204"><ele>636.5</ele><time>2026-04-24T16:26:51.901Z</time></trkpt><trkpt lat="45.87933602076468" lon="11.083000816413936"><ele>632.75</ele><time>2026-04-24T16:26:52.901Z</time></trkpt><trkpt lat="45.87935021460609" lon="11.082825656169355"><ele>629.0</ele><time>2026-04-24T16:26:53.901Z</time></trkpt><trkpt lat="45.879370328597716" lon="11.082650377551206"><ele>629.0</ele><time>2026-04-24T16:26:54.901Z</time></trkpt><trkpt lat="45.87940299919666" lon="11.082502175787095"><ele>629.0</ele><time>2026-04-24T16:26:55.901Z</time></trkpt><trkpt lat="45.879452962476684" lon="11.082333008947698"><ele>629.0</ele><time>2026-04-24T16:26:56.901Z</time></trkpt><trkpt lat="45.87949540240477" lon="11.082152223196536"><ele>629.0</ele><time>2026-04-24T16:26:57.901Z</time></trkpt><trkpt lat="45.87953885817299" lon="11.081993119251687"><ele>623.5</ele><time>2026-04-24T16:26:58.901Z</time></trkpt><trkpt lat="45.879584291694734" lon="11.081826563929766"><ele>618.0</ele><time>2026-04-24T16:26:59.901Z</time></trkpt><trkpt lat="45.87964641445883" lon="11.081657961553189"><ele>612.5</ele><time>2026-04-24T16:27:00.901Z</time></trkpt><trkpt lat="45.87969231019674" lon="11.081465979739415"><ele>607.0</ele><time>2026-04-24T16:27:01.901Z</time></trkpt><trkpt lat="45.87974605650216" lon="11.08127637228733"><ele>600.75</ele><time>2026-04-24T16:27:02.901Z</time></trkpt><trkpt lat="45.879789974385986" lon="11.081098467053588"><ele>594.5</ele><time>2026-04-24T16:27:03.901Z</time></trkpt><trkpt lat="45.87985228592424" lon="11.08094184722585"><ele>588.25</ele><time>2026-04-24T16:27:04.901Z</time></trkpt><trkpt lat="45.87990621696354" lon="11.080780717792242"><ele>582.0</ele><time>2026-04-24T16:27:05.901Z</time></trkpt><trkpt lat="45.87996550175809" lon="11.080612845493244"><ele>585.75</ele><time>2026-04-24T16:27:06.901Z</time></trkpt><trkpt lat="45.880028344297315" lon="11.080437667891871"><ele>589.5</ele><time>2026-04-24T16:27:07.901Z</time></trkpt><trkpt lat="45.880087067498245" lon="11.080282857017322"><ele>593.25</ele><time>2026-04-24T16:27:08.901Z</time></trkpt><trkpt lat="45.880140960450845" lon="11.08013344911928"><ele>597.0</ele><time>2026-04-24T16:27:09.901Z</time></trkpt><trkpt lat="45.88019588825296" lon="11.079987609642549"><ele>592.0</ele><time>2026-04-24T16:27:10.901Z</time></trkpt><trkpt lat="45.88025094956111" lon="11.079839056418148"><ele>587.0</ele><time>2026-04-24T16:27:11.901Z</time></trkpt><trkpt lat="45.88030622568952" lon="11.079685890427557"><ele>582.0</ele><time>2026-04-24T16:27:12.901Z</time></trkpt><trkpt lat="45.88036326451069" lon="11.079536870234174"><ele>577.0</ele><time>2026-04-24T16:27:13.901Z</time></trkpt><trkpt lat="45.880423006247" lon="11.079370343547161"><ele>577.0</ele><time>2026-04-24T16:27:14.901Z</time></trkpt><trkpt lat="45.88048018685909" lon="11.079218958976897"><ele>577.0</ele><time>2026-04-24T16:27:15.901Z</time></trkpt><trkpt lat="45.88053771799661" lon="11.079060946354259"><ele>577.0</ele><time>2026-04-24T16:27:16.901Z</time></trkpt><trkpt lat="45.880604145916024" lon="11.078903972812638"><ele>577.0</ele><time>2026-04-24T16:27:17.901Z</time></trkpt><trkpt lat="45.8806829409261" lon="11.078725388343525"><ele>571.25</ele><time>2026-04-24T16:27:18.901Z</time></trkpt><trkpt lat="45.880762135806904" lon="11.078555095926466"><ele>565.5</ele><time>2026-04-24T16:27:19.901Z</time></trkpt><trkpt lat="45.88084389534027" lon="11.078385361776245"><ele>559.75</ele><time>2026-04-24T16:27:20.901Z</time></trkpt><trkpt lat="45.880931154426975" lon="11.078231725321201"><ele>554.0</ele><time>2026-04-24T16:27:21.901Z</time></trkpt><trkpt lat="45.88100021523752" lon="11.078074931125364"><ele>553.8</ele><time>2026-04-24T16:27:22.901Z</time></trkpt><trkpt lat="45.881065665734255" lon="11.077934443203505"><ele>553.5999999999999</ele><time>2026-04-24T16:27:23.901Z</time></trkpt><trkpt lat="45.88111927842195" lon="11.077823773892876"><ele>553.4</ele><time>2026-04-24T16:27:24.901Z</time></trkpt><trkpt lat="45.88115671675697" lon="11.077734541937431"><ele>553.1999999999999</ele><time>2026-04-24T16:27:25.901Z</time></trkpt><trkpt lat="45.88121119255124" lon="11.077677962497614"><ele>553.0</ele><time>2026-04-24T16:27:26.901Z</time></trkpt><trkpt lat="45.881310544947354" lon="11.07759163036021"><ele>553.0</ele><time>2026-04-24T16:27:28.901Z</time></trkpt><trkpt lat="45.881322916642645" lon="11.077466929411452"><ele>553.0</ele><time>2026-04-24T16:27:29.901Z</time></trkpt><trkpt lat="45.8813896608648" lon="11.077405595046947"><ele>553.0</ele><time>2026-04-24T16:27:31.901Z</time></trkpt><trkpt lat="45.88140588503029" lon="11.077304960818099"><ele>553.0</ele><time>2026-04-24T16:27:43.901Z</time></trkpt><trkpt lat="45.88141255953955" lon="11.077204801282335"><ele>553.0</ele><time>2026-04-24T16:27:46.9Z</time></trkpt><trkpt lat="45.88141117632337" lon="11.077106951509343"><ele>553.0</ele><time>2026-04-24T16:27:48.9Z</time></trkpt><trkpt lat="45.88149560005881" lon="11.076993163207389"><ele>551.1666666666667</ele><time>2026-04-24T16:27:50.9Z</time></trkpt><trkpt lat="45.88159987736267" lon="11.076960373593426"><ele>549.3333333333334</ele><time>2026-04-24T16:27:52.9Z</time></trkpt><trkpt lat="45.88168864081021" lon="11.076889764235476"><ele>547.5</ele><time>2026-04-24T16:27:55.9Z</time></trkpt><trkpt lat="45.88173705161434" lon="11.076812075006815"><ele>545.6666666666666</ele><time>2026-04-24T16:27:58.9Z</time></trkpt><trkpt lat="45.88170461416836" lon="11.076717789083977"><ele>543.8333333333333</ele><time>2026-04-24T16:28:00.9Z</time></trkpt><trkpt lat="45.881765037019676" lon="11.076667465531514"><ele>542.0</ele><time>2026-04-24T16:28:05.9Z</time></trkpt><trkpt lat="45.881855968221224" lon="11.076607302385696"><ele>542.0</ele><time>2026-04-24T16:28:08.9Z</time></trkpt><trkpt lat="45.88189758727807" lon="11.076840615929749"><ele>542.0</ele><time>2026-04-24T16:28:09.9Z</time></trkpt><trkpt lat="45.88200254546404" lon="11.076833639796883"><ele>542.0</ele><time>2026-04-24T16:28:10.9Z</time></trkpt><trkpt lat="45.88208601377594" lon="11.076785967466638"><ele>542.0</ele><time>2026-04-24T16:28:11.9Z</time></trkpt><trkpt lat="45.88219063184309" lon="11.076701676954402"><ele>542.0</ele><time>2026-04-24T16:28:13.9Z</time></trkpt><trkpt lat="45.882265956266544" lon="11.076629341783978"><ele>542.0</ele><time>2026-04-24T16:28:15.9Z</time></trkpt><trkpt lat="45.88235613705175" lon="11.076542739828144"><ele>542.0</ele><time>2026-04-24T16:28:17.9Z</time></trkpt><trkpt lat="45.882442284375784" lon="11.07646001124571"><ele>542.0</ele><time>2026-04-24T16:28:19.9Z</time></trkpt><trkpt lat="45.88220180003235" lon="11.075843524500764"><ele>534.2</ele><time>2026-04-24T16:28:20.9Z</time></trkpt><trkpt lat="45.882206337732924" lon="11.075689273025812"><ele>526.4000000000001</ele><time>2026-04-24T16:28:22.9Z</time></trkpt><trkpt lat="45.88214044054067" lon="11.075548836056115"><ele>518.5999999999999</ele><time>2026-04-24T16:28:24.9Z</time></trkpt><trkpt lat="45.882111537160625" lon="11.075404230658535"><ele>510.79999999999995</ele><time>2026-04-24T16:28:26.9Z</time></trkpt><trkpt lat="45.88212134824372" lon="11.075282637567824"><ele>503.0</ele><time>2026-04-24T16:28:27.9Z</time></trkpt><trkpt lat="45.882095000360266" lon="11.075186913041103"><ele>503.0</ele><time>2026-04-24T16:28:28.9Z</time></trkpt><trkpt lat="45.882063247354154" lon="11.075090182846576"><ele>502.99999999999994</ele><time>2026-04-24T16:28:30.9Z</time></trkpt><trkpt lat="45.88206770757891" lon="11.07493963525942"><ele>502.99999999999994</ele><time>2026-04-24T16:28:34.9Z</time></trkpt><trkpt lat="45.8820850086075" lon="11.074805029324239"><ele>503.0</ele><time>2026-04-24T16:28:36.901Z</time></trkpt><trkpt lat="45.882082740795106" lon="11.074674987049036"><ele>503.0</ele><time>2026-04-24T16:28:37.902Z</time></trkpt><trkpt lat="45.88210285535899" lon="11.074530607754383"><ele>500.75</ele><time>2026-04-24T16:28:38.902Z</time></trkpt><trkpt lat="45.882135973720644" lon="11.074347515081358"><ele>498.5</ele><time>2026-04-24T16:28:39.901Z</time></trkpt><trkpt lat="45.882179064274055" lon="11.07420791149735"><ele>496.25</ele><time>2026-04-24T16:28:40.901Z</time></trkpt><trkpt lat="45.88222331724099" lon="11.074083791177268"><ele>494.0</ele><time>2026-04-24T16:28:41.9Z</time></trkpt><trkpt lat="45.88275354535123" lon="11.074178156574645"><ele>490.0</ele><time>2026-04-24T16:28:42.9Z</time></trkpt><trkpt lat="45.882855447952" lon="11.074097795246857"><ele>486.0</ele><time>2026-04-24T16:28:43.901Z</time></trkpt><trkpt lat="45.882951150818364" lon="11.074016319848857"><ele>482.0</ele><time>2026-04-24T16:28:44.901Z</time></trkpt><trkpt lat="45.883044128202904" lon="11.073936064418072"><ele>478.0</ele><time>2026-04-24T16:28:45.901Z</time></trkpt><trkpt lat="45.883139359450176" lon="11.073867934973325"><ele>474.0</ele><time>2026-04-24T16:28:46.901Z</time></trkpt><trkpt lat="45.88324323408636" lon="11.073789588610842"><ele>474.0</ele><time>2026-04-24T16:28:47.9Z</time></trkpt><trkpt lat="45.883350476795904" lon="11.07371315907637"><ele>474.0</ele><time>2026-04-24T16:28:48.9Z</time></trkpt><trkpt lat="45.88347395743503" lon="11.073687569363795"><ele>474.0</ele><time>2026-04-24T16:28:49.901Z</time></trkpt><trkpt lat="45.883602032449296" lon="11.073663844590149"><ele>474.0</ele><time>2026-04-24T16:28:50.901Z</time></trkpt><trkpt lat="45.883733273743275" lon="11.073632264501619"><ele>476.5</ele><time>2026-04-24T16:28:51.901Z</time></trkpt><trkpt lat="45.88385917061941" lon="11.073603211350223"><ele>479.0</ele><time>2026-04-24T16:28:52.901Z</time></trkpt><trkpt lat="45.883949226681" lon="11.073498834551586"><ele>481.5</ele><time>2026-04-24T16:28:53.901Z</time></trkpt><trkpt lat="45.88403629696032" lon="11.07339957849357"><ele>484.0</ele><time>2026-04-24T16:28:54.901Z</time></trkpt><trkpt lat="45.884116650588844" lon="11.073297473316265"><ele>483.4</ele><time>2026-04-24T16:28:55.901Z</time></trkpt><trkpt lat="45.88418391945055" lon="11.073202016656259"><ele>482.79999999999995</ele><time>2026-04-24T16:28:56.901Z</time></trkpt><trkpt lat="45.8842355740667" lon="11.073120895837041"><ele>482.20000000000005</ele><time>2026-04-24T16:28:57.901Z</time></trkpt><trkpt lat="45.884261502382145" lon="11.07302766271152"><ele>481.6</ele><time>2026-04-24T16:28:58.901Z</time></trkpt><trkpt lat="45.88434544509925" lon="11.073038917189004"><ele>481.0</ele><time>2026-04-24T16:29:00.901Z</time></trkpt><trkpt lat="45.884240731831014" lon="11.072858219133224"><ele>481.0</ele><time>2026-04-24T16:29:02.901Z</time></trkpt><trkpt lat="45.88433902099315" lon="11.072867107361665"><ele>481.0</ele><time>2026-04-24T16:30:54.872Z</time></trkpt><trkpt lat="45.88444374957078" lon="11.072903310368972"><ele>481.0</ele><time>2026-04-24T16:30:57.872Z</time></trkpt><trkpt lat="45.88453374389127" lon="11.07292928035049"><ele>481.0</ele><time>2026-04-24T16:30:58.872Z</time></trkpt><trkpt lat="45.88460845035658" lon="11.072935484146205"><ele>481.0</ele><time>2026-04-24T16:30:59.872Z</time></trkpt><trkpt lat="45.88469690759712" lon="11.07297566914093"><ele>481.00000000000006</ele><time>2026-04-24T16:31:00.872Z</time></trkpt><trkpt lat="45.884769517253005" lon="11.072990172417397"><ele>481.0</ele><time>2026-04-24T16:31:01.872Z</time></trkpt><trkpt lat="45.884858468838644" lon="11.072996382070206"><ele>481.0</ele><time>2026-04-24T16:31:02.872Z</time></trkpt><trkpt lat="45.88495463154569" lon="11.072990766908905"><ele>481.0</ele><time>2026-04-24T16:31:03.872Z</time></trkpt><trkpt lat="45.885037439217285" lon="11.07291378889014"><ele>481.00000000000006</ele><time>2026-04-24T16:31:04.872Z</time></trkpt><trkpt lat="45.88511454598589" lon="11.072870720709094"><ele>481.0</ele><time>2026-04-24T16:31:05.872Z</time></trkpt><trkpt lat="45.88520075369064" lon="11.072875112490678"><ele>484.4</ele><time>2026-04-24T16:31:06.872Z</time></trkpt><trkpt lat="45.885276739916975" lon="11.072915827273604"><ele>487.8</ele><time>2026-04-24T16:31:07.872Z</time></trkpt><trkpt lat="45.88536237657099" lon="11.072940162740016"><ele>491.19999999999993</ele><time>2026-04-24T16:31:08.872Z</time></trkpt><trkpt lat="45.88545689358557" lon="11.072929104771363"><ele>494.59999999999997</ele><time>2026-04-24T16:31:09.872Z</time></trkpt><trkpt lat="45.88553660182546" lon="11.072828290206713"><ele>498.0</ele><time>2026-04-24T16:31:10.872Z</time></trkpt><trkpt lat="45.885628093794686" lon="11.07276992293792"><ele>498.0</ele><time>2026-04-24T16:31:11.872Z</time></trkpt><trkpt lat="45.88572338709272" lon="11.072728176949488"><ele>497.99999999999994</ele><time>2026-04-24T16:31:12.872Z</time></trkpt><trkpt lat="45.88580568503886" lon="11.07269475752078"><ele>497.99999999999994</ele><time>2026-04-24T16:31:14.872Z</time></trkpt><trkpt lat="45.88591999622833" lon="11.072628402276113"><ele>498.0</ele><time>2026-04-24T16:31:20.871Z</time></trkpt><trkpt lat="45.885991649594004" lon="11.07259862997084"><ele>498.0</ele><time>2026-04-24T16:31:21.871Z</time></trkpt><trkpt lat="45.88606437138755" lon="11.072566563811792"><ele>500.1666666666667</ele><time>2026-04-24T16:31:22.871Z</time></trkpt><trkpt lat="45.88613723083576" lon="11.072556089450982"><ele>502.33333333333337</ele><time>2026-04-24T16:31:23.871Z</time></trkpt><trkpt lat="45.886205015698444" lon="11.072500183406307"><ele>504.5</ele><time>2026-04-24T16:31:24.871Z</time></trkpt><trkpt lat="45.88628952817541" lon="11.072468144069676"><ele>506.6666666666667</ele><time>2026-04-24T16:31:25.871Z</time></trkpt><trkpt lat="45.88636831792903" lon="11.072408855348169"><ele>508.83333333333337</ele><time>2026-04-24T16:31:26.871Z</time></trkpt><trkpt lat="45.88642686384941" lon="11.072329401612539"><ele>511.0</ele><time>2026-04-24T16:31:27.871Z</time></trkpt><trkpt lat="45.88648862012723" lon="11.072226490404473"><ele>511.00000000000006</ele><time>2026-04-24T16:31:28.871Z</time></trkpt><trkpt lat="45.88656230399769" lon="11.072132373653115"><ele>511.0</ele><time>2026-04-24T16:31:29.871Z</time></trkpt><trkpt lat="45.886632183294566" lon="11.072106175384647"><ele>511.0</ele><time>2026-04-24T16:31:30.871Z</time></trkpt><trkpt lat="45.886719955967095" lon="11.072087516439614"><ele>511.0</ele><time>2026-04-24T16:31:31.871Z</time></trkpt><trkpt lat="45.88681647353748" lon="11.072075508048266"><ele>511.00000000000006</ele><time>2026-04-24T16:31:32.871Z</time></trkpt><trkpt lat="45.8869062046859" lon="11.072065904012469"><ele>511.0</ele><time>2026-04-24T16:31:33.871Z</time></trkpt><trkpt lat="45.88699302843176" lon="11.072065982952601"><ele>517.0</ele><time>2026-04-24T16:31:34.871Z</time></trkpt><trkpt lat="45.88707416677962" lon="11.072071012790301"><ele>523.0</ele><time>2026-04-24T16:31:35.871Z</time></trkpt><trkpt lat="45.88712631433191" lon="11.072128512642081"><ele>529.0</ele><time>2026-04-24T16:31:36.871Z</time></trkpt><trkpt lat="45.887127803019084" lon="11.072227109580801"><ele>535.0</ele><time>2026-04-24T16:31:38.871Z</time></trkpt><trkpt lat="45.88708337825206" lon="11.072294181173238"><ele>541.0</ele><time>2026-04-24T16:31:39.871Z</time></trkpt><trkpt lat="45.887086158476315" lon="11.072403302265844"><ele>547.0</ele><time>2026-04-24T16:31:41.871Z</time></trkpt><trkpt lat="45.88718716862437" lon="11.072356235298468"><ele>547.0</ele><time>2026-04-24T16:31:43.871Z</time></trkpt><trkpt lat="45.887249915832314" lon="11.07241586957685"><ele>547.0</ele><time>2026-04-24T16:31:46.871Z</time></trkpt><trkpt lat="45.88728518792592" lon="11.072496340433371"><ele>547.0</ele><time>2026-04-24T16:31:47.871Z</time></trkpt><trkpt lat="45.88731764940774" lon="11.072589218217011"><ele>547.0</ele><time>2026-04-24T16:31:48.871Z</time></trkpt><trkpt lat="45.88735236958267" lon="11.072690988982131"><ele>547.0</ele><time>2026-04-24T16:31:49.871Z</time></trkpt><trkpt lat="45.887403360364075" lon="11.072797656132682"><ele>547.0</ele><time>2026-04-24T16:31:50.871Z</time></trkpt><trkpt lat="45.887427093771315" lon="11.072919848016342"><ele>547.2</ele><time>2026-04-24T16:31:51.871Z</time></trkpt><trkpt lat="45.88745899181394" lon="11.073039239272497"><ele>547.4000000000001</ele><time>2026-04-24T16:31:52.871Z</time></trkpt><trkpt lat="45.887479291272456" lon="11.073174510223106"><ele>547.5999999999999</ele><time>2026-04-24T16:31:53.871Z</time></trkpt><trkpt lat="45.887483278667005" lon="11.073317738667905"><ele>547.8</ele><time>2026-04-24T16:31:54.871Z</time></trkpt><trkpt lat="45.88747929668374" lon="11.073459012198391"><ele>548.0</ele><time>2026-04-24T16:31:55.871Z</time></trkpt><trkpt lat="45.88746939164454" lon="11.07357712723374"><ele>549.6666666666666</ele><time>2026-04-24T16:31:56.871Z</time></trkpt><trkpt lat="45.88744859185224" lon="11.073694008202702"><ele>551.3333333333333</ele><time>2026-04-24T16:31:57.871Z</time></trkpt><trkpt lat="45.887399332495896" lon="11.073753689761537"><ele>553.0</ele><time>2026-04-24T16:31:58.871Z</time></trkpt><trkpt lat="45.88733074478525" lon="11.073786186505814"><ele>554.6666666666666</ele><time>2026-04-24T16:31:59.871Z</time></trkpt><trkpt lat="45.88727013455809" lon="11.073855846455643"><ele>556.3333333333334</ele><time>2026-04-24T16:32:00.871Z</time></trkpt><trkpt lat="45.887232211094194" lon="11.073943764647666"><ele>558.0</ele><time>2026-04-24T16:32:01.871Z</time></trkpt><trkpt lat="45.88723910614583" lon="11.074060119335954"><ele>560.5</ele><time>2026-04-24T16:32:02.87Z</time></trkpt><trkpt lat="45.88724178139073" lon="11.07417868623072"><ele>563.0</ele><time>2026-04-24T16:32:03.87Z</time></trkpt><trkpt lat="45.88725484927133" lon="11.074313772078101"><ele>565.5</ele><time>2026-04-24T16:32:04.87Z</time></trkpt><trkpt lat="45.887244880638484" lon="11.074440986281681"><ele>568.0</ele><time>2026-04-24T16:32:05.87Z</time></trkpt><trkpt lat="45.88724967616589" lon="11.074544326930331"><ele>570.5</ele><time>2026-04-24T16:32:06.87Z</time></trkpt><trkpt lat="45.88725568436581" lon="11.074673799836964"><ele>573.0</ele><time>2026-04-24T16:32:08.87Z</time></trkpt><trkpt lat="45.88729444953807" lon="11.074846772290249"><ele>573.0</ele><time>2026-04-24T16:32:10.87Z</time></trkpt><trkpt lat="45.88732434652198" lon="11.07493616266482"><ele>573.0</ele><time>2026-04-24T16:32:11.87Z</time></trkpt><trkpt lat="45.88737370529563" lon="11.075063006290305"><ele>573.0</ele><time>2026-04-24T16:32:13.87Z</time></trkpt><trkpt lat="45.88742450076759" lon="11.075213365323348"><ele>573.0</ele><time>2026-04-24T16:32:15.87Z</time></trkpt><trkpt lat="45.88745299561061" lon="11.075296056835924"><ele>573.0</ele><time>2026-04-24T16:32:16.87Z</time></trkpt><trkpt lat="45.88748884063846" lon="11.075385071820664"><ele>573.0</ele><time>2026-04-24T16:32:17.87Z</time></trkpt><trkpt lat="45.88755792719869" lon="11.075448594747316"><ele>581.1999999999999</ele><time>2026-04-24T16:32:19.87Z</time></trkpt><trkpt lat="45.88762371588403" lon="11.075503344688876"><ele>589.4</ele><time>2026-04-24T16:32:21.87Z</time></trkpt><trkpt lat="45.887714056801975" lon="11.075548440509234"><ele>597.5999999999999</ele><time>2026-04-24T16:32:23.87Z</time></trkpt><trkpt lat="45.8878073720868" lon="11.075549158363842"><ele>605.8</ele><time>2026-04-24T16:32:25.87Z</time></trkpt><trkpt lat="45.8878918470756" lon="11.075603436488253"><ele>614.0</ele><time>2026-04-24T16:32:27.87Z</time></trkpt><trkpt lat="45.88799080528401" lon="11.075652603745285"><ele>614.0</ele><time>2026-04-24T16:32:29.87Z</time></trkpt><trkpt lat="45.8880738241726" lon="11.07566924245216"><ele>614.0</ele><time>2026-04-24T16:32:31.87Z</time></trkpt><trkpt lat="45.88810369520701" lon="11.075784797407087"><ele>614.0</ele><time>2026-04-24T16:32:33.87Z</time></trkpt><trkpt lat="45.888076741676855" lon="11.075879120518296"><ele>614.0</ele><time>2026-04-24T16:32:35.87Z</time></trkpt><trkpt lat="45.888081576312736" lon="11.076005921362396"><ele>614.0</ele><time>2026-04-24T16:32:37.87Z</time></trkpt><trkpt lat="45.8880590514077" lon="11.076117167360325"><ele>614.0</ele><time>2026-04-24T16:32:38.87Z</time></trkpt><trkpt lat="45.88800501672481" lon="11.076241608883487"><ele>616.3333333333333</ele><time>2026-04-24T16:32:40.87Z</time></trkpt><trkpt lat="45.887969006473746" lon="11.076318332568219"><ele>618.6666666666666</ele><time>2026-04-24T16:32:41.87Z</time></trkpt><trkpt lat="45.88792074167064" lon="11.076417820115678"><ele>621.0</ele><time>2026-04-24T16:32:42.87Z</time></trkpt><trkpt lat="45.88786535342339" lon="11.076520811308985"><ele>623.3333333333334</ele><time>2026-04-24T16:32:43.87Z</time></trkpt><trkpt lat="45.88781073931975" lon="11.07658843961545"><ele>625.6666666666667</ele><time>2026-04-24T16:32:44.87Z</time></trkpt><trkpt lat="45.88769667318979" lon="11.076686842793956"><ele>628.0</ele><time>2026-04-24T16:32:46.87Z</time></trkpt><trkpt lat="45.88760497722993" lon="11.076706320013352"><ele>632.6666666666667</ele><time>2026-04-24T16:32:48.871Z</time></trkpt><trkpt lat="45.88760381471945" lon="11.076797139423265"><ele>637.3333333333334</ele><time>2026-04-24T16:32:50.871Z</time></trkpt><trkpt lat="45.88764900391644" lon="11.07688936417122"><ele>642.0</ele><time>2026-04-24T16:32:52.871Z</time></trkpt><trkpt lat="45.88771588544094" lon="11.076926415719184"><ele>646.6666666666666</ele><time>2026-04-24T16:32:54.871Z</time></trkpt><trkpt lat="45.8878091601121" lon="11.076988038490333"><ele>651.3333333333333</ele><time>2026-04-24T16:32:56.871Z</time></trkpt><trkpt lat="45.88787613152549" lon="11.077031512843135"><ele>656.0</ele><time>2026-04-24T16:32:57.871Z</time></trkpt><trkpt lat="45.88794301033189" lon="11.077074560983254"><ele>655.9999999999999</ele><time>2026-04-24T16:32:58.871Z</time></trkpt><trkpt lat="45.88799657075654" lon="11.07712929082447"><ele>656.0</ele><time>2026-04-24T16:32:59.87Z</time></trkpt><trkpt lat="45.888073685778046" lon="11.07721676372487"><ele>656.0</ele><time>2026-04-24T16:33:00.87Z</time></trkpt><trkpt lat="45.88812139172845" lon="11.07728372292492"><ele>656.0</ele><time>2026-04-24T16:33:01.871Z</time></trkpt><trkpt lat="45.888106363764656" lon="11.077378944879815"><ele>656.0</ele><time>2026-04-24T16:33:05.871Z</time></trkpt><trkpt lat="45.88803443636409" lon="11.077359065959815"><ele>655.9999999999999</ele><time>2026-04-24T16:33:07.871Z</time></trkpt><trkpt lat="45.88801443245387" lon="11.077461008073472"><ele>656.0</ele><time>2026-04-24T16:33:09.871Z</time></trkpt><trkpt lat="45.88795296144858" lon="11.07758177721866"><ele>658.5999999999999</ele><time>2026-04-24T16:33:11.871Z</time></trkpt><trkpt lat="45.88792426212697" lon="11.077669246402019"><ele>661.2</ele><time>2026-04-24T16:33:12.871Z</time></trkpt><trkpt lat="45.887818589596584" lon="11.07772739845459"><ele>663.8</ele><time>2026-04-24T16:33:14.871Z</time></trkpt><trkpt lat="45.887726132381424" lon="11.077826422765112"><ele>666.4000000000001</ele><time>2026-04-24T16:33:15.871Z</time></trkpt><trkpt lat="45.887619553562146" lon="11.077867819362577"><ele>669.0</ele><time>2026-04-24T16:33:16.871Z</time></trkpt><trkpt lat="45.88755263909244" lon="11.077909767196806"><ele>669.0</ele><time>2026-04-24T16:33:18.871Z</time></trkpt><trkpt lat="45.88747533386487" lon="11.07796015839995"><ele>669.0</ele><time>2026-04-24T16:33:19.871Z</time></trkpt><trkpt lat="45.88738074195567" lon="11.078025762539909"><ele>669.0</ele><time>2026-04-24T16:33:20.871Z</time></trkpt><trkpt lat="45.88729693472949" lon="11.078081032204347"><ele>669.0</ele><time>2026-04-24T16:33:21.871Z</time></trkpt><trkpt lat="45.887223917382435" lon="11.078127653874827"><ele>669.0</ele><time>2026-04-24T16:33:22.871Z</time></trkpt><trkpt lat="45.887121183119255" lon="11.078183081516485"><ele>669.0</ele><time>2026-04-24T16:33:24.871Z</time></trkpt><trkpt lat="45.88704607597679" lon="11.07821505673661"><ele>669.0</ele><time>2026-04-24T16:33:25.871Z</time></trkpt><trkpt lat="45.88696728833213" lon="11.078234437849767"><ele>669.0</ele><time>2026-04-24T16:33:26.871Z</time></trkpt><trkpt lat="45.88686545740822" lon="11.078258243225363"><ele>669.0</ele><time>2026-04-24T16:33:28.871Z</time></trkpt><trkpt lat="45.88676799351695" lon="11.078302179967348"><ele>669.0</ele><time>2026-04-24T16:33:30.871Z</time></trkpt><trkpt lat="45.886671371988136" lon="11.07834725885257"><ele>672.0</ele><time>2026-04-24T16:33:31.871Z</time></trkpt><trkpt lat="45.88656294733194" lon="11.078413244611857"><ele>675.0</ele><time>2026-04-24T16:33:32.871Z</time></trkpt><trkpt lat="45.886495396620575" lon="11.078459415491123"><ele>678.0</ele><time>2026-04-24T16:33:33.871Z</time></trkpt><trkpt lat="45.88643597348309" lon="11.078500031180983"><ele>681.0</ele><time>2026-04-24T16:33:34.871Z</time></trkpt><trkpt lat="45.88636026483211" lon="11.078552899797067"><ele>684.0</ele><time>2026-04-24T16:33:36.87Z</time></trkpt><trkpt lat="45.88660891095034" lon="11.079043988048912"><ele>684.0</ele><time>2026-04-24T16:33:39.87Z</time></trkpt><trkpt lat="45.88668927751396" lon="11.079085138322412"><ele>684.0</ele><time>2026-04-24T16:33:41.87Z</time></trkpt><trkpt lat="45.88676931510933" lon="11.079131119671127"><ele>684.0</ele><time>2026-04-24T16:33:42.87Z</time></trkpt><trkpt lat="45.886847949319595" lon="11.079137942666776"><ele>684.0</ele><time>2026-04-24T16:33:43.87Z</time></trkpt><trkpt lat="45.88695120569942" lon="11.079193437998894"><ele>684.0</ele><time>2026-04-24T16:33:45.87Z</time></trkpt><trkpt lat="45.887034360390786" lon="11.079339797829125"><ele>691.4000000000001</ele><time>2026-04-24T16:33:47.87Z</time></trkpt><trkpt lat="45.88710226381471" lon="11.079438084886133"><ele>698.8</ele><time>2026-04-24T16:33:48.87Z</time></trkpt><trkpt lat="45.88718057328933" lon="11.079510061978281"><ele>706.2</ele><time>2026-04-24T16:33:49.87Z</time></trkpt><trkpt lat="45.8873048127282" lon="11.079582059912815"><ele>713.5999999999999</ele><time>2026-04-24T16:33:51.87Z</time></trkpt><trkpt lat="45.88739464636613" lon="11.079635569499134"><ele>721.0</ele><time>2026-04-24T16:33:52.87Z</time></trkpt><trkpt lat="45.88746334658088" lon="11.079656708795055"><ele>721.0</ele><time>2026-04-24T16:33:53.87Z</time></trkpt><trkpt lat="45.88753081651919" lon="11.079667571739662"><ele>721.0</ele><time>2026-04-24T16:33:54.87Z</time></trkpt><trkpt lat="45.88763619969777" lon="11.079689220345402"><ele>721.0</ele><time>2026-04-24T16:33:55.87Z</time></trkpt><trkpt lat="45.88774049373467" lon="11.079681994553859"><ele>721.0</ele><time>2026-04-24T16:33:56.87Z</time></trkpt><trkpt lat="45.88783153347536" lon="11.079667753601237"><ele>721.0</ele><time>2026-04-24T16:33:57.87Z</time></trkpt><trkpt lat="45.88790447525246" lon="11.079611092051357"><ele>722.8</ele><time>2026-04-24T16:33:58.87Z</time></trkpt><trkpt lat="45.88797892705176" lon="11.079564301260579"><ele>724.5999999999999</ele><time>2026-04-24T16:33:59.87Z</time></trkpt><trkpt lat="45.88809016778983" lon="11.079518756240832"><ele>726.4</ele><time>2026-04-24T16:34:01.87Z</time></trkpt><trkpt lat="45.888208355577014" lon="11.07952674380636"><ele>728.2</ele><time>2026-04-24T16:34:03.87Z</time></trkpt><trkpt lat="45.8882885420478" lon="11.079539644821994"><ele>730.0</ele><time>2026-04-24T16:34:04.87Z</time></trkpt><trkpt lat="45.888375348371426" lon="11.079538907179058"><ele>733.1666666666667</ele><time>2026-04-24T16:34:05.87Z</time></trkpt><trkpt lat="45.888462604359844" lon="11.079540189910785"><ele>736.3333333333334</ele><time>2026-04-24T16:34:06.87Z</time></trkpt><trkpt lat="45.88855281402324" lon="11.079575215632342"><ele>739.5</ele><time>2026-04-24T16:34:07.87Z</time></trkpt><trkpt lat="45.888641362322815" lon="11.079628627111623"><ele>742.6666666666666</ele><time>2026-04-24T16:34:08.87Z</time></trkpt><trkpt lat="45.88870061361741" lon="11.079672037052118"><ele>745.8333333333333</ele><time>2026-04-24T16:34:09.87Z</time></trkpt><trkpt lat="45.88875911525752" lon="11.079715756963644"><ele>749.0</ele><time>2026-04-24T16:34:10.87Z</time></trkpt><trkpt lat="45.88883214455415" lon="11.07975750948761"><ele>749.0</ele><time>2026-04-24T16:34:11.87Z</time></trkpt><trkpt lat="45.8889260594641" lon="11.079783367457683"><ele>749.0</ele><time>2026-04-24T16:34:12.87Z</time></trkpt><trkpt lat="45.88901959583343" lon="11.079807664359528"><ele>749.0</ele><time>2026-04-24T16:34:13.87Z</time></trkpt><trkpt lat="45.889111735966466" lon="11.079823958438961"><ele>749.0</ele><time>2026-04-24T16:34:14.87Z</time></trkpt><trkpt lat="45.88917836987344" lon="11.079846882050855"><ele>749.0</ele><time>2026-04-24T16:34:15.87Z</time></trkpt><trkpt lat="45.88929197449417" lon="11.079849672733568"><ele>753.5</ele><time>2026-04-24T16:34:17.87Z</time></trkpt><trkpt lat="45.88943509305415" lon="11.079805328171203"><ele>758.0</ele><time>2026-04-24T16:34:19.87Z</time></trkpt><trkpt lat="45.889503092206624" lon="11.079782943437104"><ele>762.5</ele><time>2026-04-24T16:34:20.87Z</time></trkpt><trkpt lat="45.889576860154655" lon="11.079754560733258"><ele>767.0</ele><time>2026-04-24T16:34:21.87Z</time></trkpt><trkpt lat="45.88963986553003" lon="11.07974373707426"><ele>771.5000000000001</ele><time>2026-04-24T16:34:22.869Z</time></trkpt><trkpt lat="45.88972289492688" lon="11.079766554302486"><ele>776.0</ele><time>2026-04-24T16:34:23.869Z</time></trkpt><trkpt lat="45.88979563936959" lon="11.07981109966971"><ele>776.0000000000001</ele><time>2026-04-24T16:34:24.869Z</time></trkpt><trkpt lat="45.8898673919524" lon="11.07982437919082"><ele>776.0</ele><time>2026-04-24T16:34:25.869Z</time></trkpt><trkpt lat="45.88995048255362" lon="11.079849808185983"><ele>776.0</ele><time>2026-04-24T16:34:27.869Z</time></trkpt><trkpt lat="45.89000187081316" lon="11.079934643255656"><ele>776.0</ele><time>2026-04-24T16:34:29.869Z</time></trkpt><trkpt lat="45.89007886698953" lon="11.079993613607751"><ele>776.0000000000001</ele><time>2026-04-24T16:34:31.869Z</time></trkpt><trkpt lat="45.890191168048595" lon="11.080042633283435"><ele>776.0</ele><time>2026-04-24T16:34:33.869Z</time></trkpt><trkpt lat="45.89029061843167" lon="11.080058608128088"><ele>783.25</ele><time>2026-04-24T16:34:35.869Z</time></trkpt><trkpt lat="45.89042688578671" lon="11.080097704529987"><ele>790.5</ele><time>2026-04-24T16:34:37.869Z</time></trkpt><trkpt lat="45.89051454416624" lon="11.080156443415921"><ele>797.75</ele><time>2026-04-24T16:34:38.869Z</time></trkpt><trkpt lat="45.89062121482142" lon="11.080190844735018"><ele>805.0</ele><time>2026-04-24T16:34:39.869Z</time></trkpt><trkpt lat="45.89078034676522" lon="11.080203819379099"><ele>807.0</ele><time>2026-04-24T16:34:40.869Z</time></trkpt><trkpt lat="45.890932931050195" lon="11.080187677701486"><ele>809.0</ele><time>2026-04-24T16:34:41.869Z</time></trkpt><trkpt lat="45.89102986312783" lon="11.080164732083635"><ele>811.0</ele><time>2026-04-24T16:34:42.869Z</time></trkpt><trkpt lat="45.89110183685799" lon="11.080151866144966"><ele>813.0</ele><time>2026-04-24T16:34:43.869Z</time></trkpt><trkpt lat="45.89121250134813" lon="11.080226273586673"><ele>815.0</ele><time>2026-04-24T16:34:45.869Z</time></trkpt><trkpt lat="45.89130682097839" lon="11.080274834919702"><ele>815.0000000000001</ele><time>2026-04-24T16:34:46.869Z</time></trkpt><trkpt lat="45.89139315677386" lon="11.080314000451336"><ele>815.0</ele><time>2026-04-24T16:34:47.869Z</time></trkpt><trkpt lat="45.89148137988856" lon="11.080399293859225"><ele>815.0</ele><time>2026-04-24T16:34:48.869Z</time></trkpt><trkpt lat="45.891557492290985" lon="11.080466284358709"><ele>815.0</ele><time>2026-04-24T16:34:49.869Z</time></trkpt><trkpt lat="45.89160891051692" lon="11.080536319848216"><ele>815.0000000000001</ele><time>2026-04-24T16:34:50.869Z</time></trkpt><trkpt lat="45.89163567897397" lon="11.080624594574203"><ele>815.0</ele><time>2026-04-24T16:34:51.869Z</time></trkpt><trkpt lat="45.89165351823267" lon="11.080788334559035"><ele>816.6</ele><time>2026-04-24T16:34:53.87Z</time></trkpt><trkpt lat="45.89165570798078" lon="11.080898233132482"><ele>818.2</ele><time>2026-04-24T16:34:54.87Z</time></trkpt><trkpt lat="45.891667154680036" lon="11.081027878676366"><ele>819.8</ele><time>2026-04-24T16:34:55.869Z</time></trkpt><trkpt lat="45.89167835193474" lon="11.081132023587632"><ele>821.4</ele><time>2026-04-24T16:34:56.869Z</time></trkpt><trkpt lat="45.89167866089427" lon="11.081297535574972"><ele>823.0</ele><time>2026-04-24T16:34:58.87Z</time></trkpt><trkpt lat="45.89174078735891" lon="11.081416860910338"><ele>822.9999999999999</ele><time>2026-04-24T16:35:00.87Z</time></trkpt><trkpt lat="45.89175229528426" lon="11.08151711653105"><ele>823.0</ele><time>2026-04-24T16:35:01.87Z</time></trkpt><trkpt lat="45.891720150128414" lon="11.081621087030472"><ele>823.0</ele><time>2026-04-24T16:35:02.87Z</time></trkpt><trkpt lat="45.89165370908823" lon="11.081700298565362"><ele>823.0</ele><time>2026-04-24T16:35:03.869Z</time></trkpt><trkpt lat="45.89157980086959" lon="11.081737698537438"><ele>822.9999999999999</ele><time>2026-04-24T16:35:04.869Z</time></trkpt><trkpt lat="45.89150456787175" lon="11.081751274982974"><ele>823.0</ele><time>2026-04-24T16:35:05.869Z</time></trkpt><trkpt lat="45.89142394289462" lon="11.081725350547705"><ele>823.0</ele><time>2026-04-24T16:35:06.869Z</time></trkpt><trkpt lat="45.89133150799997" lon="11.081651898171893"><ele>823.0</ele><time>2026-04-24T16:35:07.87Z</time></trkpt><trkpt lat="45.89119874884505" lon="11.081582659077485"><ele>823.0</ele><time>2026-04-24T16:35:08.87Z</time></trkpt><trkpt lat="45.89105534340843" lon="11.081564920736158"><ele>823.0</ele><time>2026-04-24T16:35:09.87Z</time></trkpt><trkpt lat="45.89093610906983" lon="11.081603575724975"><ele>826.1666666666666</ele><time>2026-04-24T16:35:10.87Z</time></trkpt><trkpt lat="45.890866116115895" lon="11.081635462837223"><ele>829.3333333333333</ele><time>2026-04-24T16:35:11.87Z</time></trkpt><trkpt lat="45.89083077107828" lon="11.08171270368598"><ele>832.5</ele><time>2026-04-24T16:35:13.87Z</time></trkpt><trkpt lat="45.890803272540325" lon="11.081894497906353"><ele>835.6666666666667</ele><time>2026-04-24T16:35:15.87Z</time></trkpt><trkpt lat="45.89078520817495" lon="11.082024795627769"><ele>838.8333333333334</ele><time>2026-04-24T16:35:16.87Z</time></trkpt><trkpt lat="45.89081281431885" lon="11.082131179040497"><ele>842.0</ele><time>2026-04-24T16:35:17.87Z</time></trkpt><trkpt lat="45.89088645229467" lon="11.08225778537965"><ele>842.0</ele><time>2026-04-24T16:35:19.87Z</time></trkpt><trkpt lat="45.89089314891022" lon="11.082418864056528"><ele>842.0</ele><time>2026-04-24T16:35:20.87Z</time></trkpt><trkpt lat="45.890895078604046" lon="11.082597065340067"><ele>842.0</ele><time>2026-04-24T16:35:21.87Z</time></trkpt><trkpt lat="45.8908978466721" lon="11.082714840215552"><ele>842.0</ele><time>2026-04-24T16:35:22.87Z</time></trkpt><trkpt lat="45.89091064219049" lon="11.082812012057536"><ele>842.0</ele><time>2026-04-24T16:35:23.87Z</time></trkpt><trkpt lat="45.890966459041586" lon="11.082854532537064"><ele>843.4000000000001</ele><time>2026-04-24T16:35:25.87Z</time></trkpt><trkpt lat="45.89101981145242" lon="11.082905450442295"><ele>844.8000000000001</ele><time>2026-04-24T16:35:34.869Z</time></trkpt><trkpt lat="45.89109476846138" lon="11.082968526949509"><ele>846.2</ele><time>2026-04-24T16:35:36.869Z</time></trkpt><trkpt lat="45.89123809914744" lon="11.083057454750485"><ele>847.6</ele><time>2026-04-24T16:35:38.869Z</time></trkpt><trkpt lat="45.891333910618464" lon="11.083100492367699"><ele>849.0</ele><time>2026-04-24T16:35:39.869Z</time></trkpt><trkpt lat="45.891412798829556" lon="11.083145199890277"><ele>849.0</ele><time>2026-04-24T16:35:40.869Z</time></trkpt><trkpt lat="45.89148756123851" lon="11.083202623810312"><ele>849.0</ele><time>2026-04-24T16:35:41.869Z</time></trkpt><trkpt lat="45.89154790873969" lon="11.083261782462039"><ele>849.0</ele><time>2026-04-24T16:35:42.869Z</time></trkpt><trkpt lat="45.891608282493515" lon="11.08333411849553"><ele>849.0</ele><time>2026-04-24T16:35:43.869Z</time></trkpt><trkpt lat="45.89165773052847" lon="11.08340153713568"><ele>849.0</ele><time>2026-04-24T16:35:44.869Z</time></trkpt><trkpt lat="45.891729381527675" lon="11.083453634278436"><ele>849.0</ele><time>2026-04-24T16:35:45.869Z</time></trkpt><trkpt lat="45.89180073536038" lon="11.083518266879494"><ele>854.0</ele><time>2026-04-24T16:35:46.869Z</time></trkpt><trkpt lat="45.89188872433156" lon="11.083587778340322"><ele>859.0</ele><time>2026-04-24T16:35:47.869Z</time></trkpt><trkpt lat="45.892013056809866" lon="11.08365845277281"><ele>864.0</ele><time>2026-04-24T16:35:48.869Z</time></trkpt><trkpt lat="45.89213314358489" lon="11.083696074903376"><ele>869.0</ele><time>2026-04-24T16:35:49.869Z</time></trkpt><trkpt lat="45.89224542546723" lon="11.083710116368204"><ele>869.0</ele><time>2026-04-24T16:35:50.869Z</time></trkpt><trkpt lat="45.89236314421143" lon="11.083739433358426"><ele>869.0000000000001</ele><time>2026-04-24T16:35:51.869Z</time></trkpt><trkpt lat="45.89247253909079" lon="11.083764485977131"><ele>869.0000000000001</ele><time>2026-04-24T16:35:52.869Z</time></trkpt><trkpt lat="45.89257644495267" lon="11.083803438452037"><ele>869.0</ele><time>2026-04-24T16:35:53.869Z</time></trkpt><trkpt lat="45.89267371113218" lon="11.083863862517036"><ele>869.0</ele><time>2026-04-24T16:35:54.869Z</time></trkpt><trkpt lat="45.89277787880899" lon="11.083941746463449"><ele>869.3333333333334</ele><time>2026-04-24T16:35:55.869Z</time></trkpt><trkpt lat="45.892850115472584" lon="11.0839911783939"><ele>869.6666666666667</ele><time>2026-04-24T16:35:56.869Z</time></trkpt><trkpt lat="45.89292286333833" lon="11.083933777890453"><ele>870.0</ele><time>2026-04-24T16:36:04.869Z</time></trkpt><trkpt lat="45.89300537078469" lon="11.083863539862456"><ele>870.3333333333333</ele><time>2026-04-24T16:36:06.869Z</time></trkpt><trkpt lat="45.893079350586135" lon="11.083833593512006"><ele>870.6666666666666</ele><time>2026-04-24T16:36:07.869Z</time></trkpt><trkpt lat="45.893157967988635" lon="11.083801844081501"><ele>871.0</ele><time>2026-04-24T16:36:08.869Z</time></trkpt><trkpt lat="45.8932425243434" lon="11.08378099747683"><ele>871.0</ele><time>2026-04-24T16:36:09.869Z</time></trkpt><trkpt lat="45.89333439677464" lon="11.083710566387422"><ele>870.9999999999999</ele><time>2026-04-24T16:36:10.869Z</time></trkpt><trkpt lat="45.8934203134581" lon="11.083591786438115"><ele>870.9999999999999</ele><time>2026-04-24T16:36:11.869Z</time></trkpt><trkpt lat="45.89350476841823" lon="11.083454456054424"><ele>871.0</ele><time>2026-04-24T16:36:12.869Z</time></trkpt><trkpt lat="45.89356393544618" lon="11.083368272327162"><ele>871.0</ele><time>2026-04-24T16:36:13.869Z</time></trkpt><trkpt lat="45.893637795795264" lon="11.083294789680583"><ele>867.5999999999999</ele><time>2026-04-24T16:36:14.869Z</time></trkpt><trkpt lat="45.893736460715985" lon="11.083220292200158"><ele>864.1999999999999</ele><time>2026-04-24T16:36:15.869Z</time></trkpt><trkpt lat="45.893850854743754" lon="11.083160713257925"><ele>860.8000000000001</ele><time>2026-04-24T16:36:16.869Z</time></trkpt><trkpt lat="45.893943399921596" lon="11.083149260323395"><ele>857.4000000000001</ele><time>2026-04-24T16:36:17.869Z</time></trkpt><trkpt lat="45.89399301800502" lon="11.083049558612682"><ele>854.0</ele><time>2026-04-24T16:36:19.869Z</time></trkpt><trkpt lat="45.894007887132624" lon="11.082924003807817"><ele>854.0000000000001</ele><time>2026-04-24T16:36:20.869Z</time></trkpt><trkpt lat="45.89403784090763" lon="11.082752447647605"><ele>854.0</ele><time>2026-04-24T16:36:21.868Z</time></trkpt><trkpt lat="45.89406889072307" lon="11.082656259285915"><ele>854.0</ele><time>2026-04-24T16:36:22.868Z</time></trkpt><trkpt lat="45.894057812094395" lon="11.082531272898779"><ele>854.0</ele><time>2026-04-24T16:36:25.868Z</time></trkpt><trkpt lat="45.89408279102354" lon="11.082426681396528"><ele>854.0000000000001</ele><time>2026-04-24T16:36:27.868Z</time></trkpt><trkpt lat="45.89412359897149" lon="11.082343773291841"><ele>854.0</ele><time>2026-04-24T16:36:28.868Z</time></trkpt><trkpt lat="45.89415250197253" lon="11.08224098690036"><ele>853.1666666666667</ele><time>2026-04-24T16:36:29.868Z</time></trkpt><trkpt lat="45.894152485514724" lon="11.08211440698581"><ele>852.3333333333334</ele><time>2026-04-24T16:36:30.868Z</time></trkpt><trkpt lat="45.89416414469876" lon="11.08197808689878"><ele>851.5</ele><time>2026-04-24T16:36:31.868Z</time></trkpt><trkpt lat="45.89419685901779" lon="11.081830822981948"><ele>850.6666666666667</ele><time>2026-04-24T16:36:32.868Z</time></trkpt><trkpt lat="45.89425654023683" lon="11.081742398921275"><ele>849.8333333333334</ele><time>2026-04-24T16:36:33.868Z</time></trkpt><trkpt lat="45.89428805054473" lon="11.081649548113145"><ele>849.0</ele><time>2026-04-24T16:36:34.868Z</time></trkpt><trkpt lat="45.8942750555653" lon="11.081469102337905"><ele>848.6666666666667</ele><time>2026-04-24T16:36:35.868Z</time></trkpt><trkpt lat="45.89425514038384" lon="11.08119378138833"><ele>848.3333333333334</ele><time>2026-04-24T16:36:36.868Z</time></trkpt><trkpt lat="45.89425168135586" lon="11.080994136453024"><ele>848.0</ele><time>2026-04-24T16:36:37.868Z</time></trkpt><trkpt lat="45.894274522243485" lon="11.080790240833975"><ele>847.5999999999999</ele><time>2026-04-24T16:36:38.868Z</time></trkpt><trkpt lat="45.894321252770816" lon="11.08059635781636"><ele>847.1999999999999</ele><time>2026-04-24T16:36:39.868Z</time></trkpt><trkpt lat="45.89437598487781" lon="11.080495692642815"><ele>846.8</ele><time>2026-04-24T16:36:40.868Z</time></trkpt><trkpt lat="45.89444731095208" lon="11.080406130039655"><ele>846.4</ele><time>2026-04-24T16:36:42.868Z</time></trkpt><trkpt lat="45.89445692966985" lon="11.080248895741766"><ele>846.0</ele><time>2026-04-24T16:36:43.868Z</time></trkpt><trkpt lat="45.89443891413244" lon="11.080143647750122"><ele>846.0</ele><time>2026-04-24T16:36:44.868Z</time></trkpt><trkpt lat="45.89441765064025" lon="11.079983804980962"><ele>846.0</ele><time>2026-04-24T16:36:45.868Z</time></trkpt><trkpt lat="45.894399987213106" lon="11.079822219186637"><ele>846.0</ele><time>2026-04-24T16:36:46.868Z</time></trkpt><trkpt lat="45.894420318356524" lon="11.079677683766096"><ele>846.0</ele><time>2026-04-24T16:36:47.868Z</time></trkpt><trkpt lat="45.89443417008616" lon="11.079561553964691"><ele>846.0</ele><time>2026-04-24T16:36:48.868Z</time></trkpt><trkpt lat="45.894390573300974" lon="11.07941621526371"><ele>843.5999999999999</ele><time>2026-04-24T16:36:49.868Z</time></trkpt><trkpt lat="45.89432264222501" lon="11.079347324854982"><ele>841.2</ele><time>2026-04-24T16:36:51.868Z</time></trkpt><trkpt lat="45.89420729901853" lon="11.079299790097835"><ele>838.8</ele><time>2026-04-24T16:36:53.868Z</time></trkpt><trkpt lat="45.89412282004435" lon="11.079283340394758"><ele>836.4000000000001</ele><time>2026-04-24T16:36:54.868Z</time></trkpt><trkpt lat="45.89405124310344" lon="11.079261791988445"><ele>834.0</ele><time>2026-04-24T16:36:55.868Z</time></trkpt><trkpt lat="45.89396415688181" lon="11.079195935484476"><ele>834.0</ele><time>2026-04-24T16:36:56.868Z</time></trkpt><trkpt lat="45.893909617225695" lon="11.079138181600856"><ele>834.0</ele><time>2026-04-24T16:36:57.868Z</time></trkpt><trkpt lat="45.893822657647" lon="11.079093015526242"><ele>834.0</ele><time>2026-04-24T16:36:58.868Z</time></trkpt><trkpt lat="45.893731931179985" lon="11.079087229526955"><ele>834.0</ele><time>2026-04-24T16:36:59.868Z</time></trkpt><trkpt lat="45.89363574953274" lon="11.079052651615207"><ele>834.0</ele><time>2026-04-24T16:37:00.868Z</time></trkpt><trkpt lat="45.89356486950718" lon="11.07900961328458"><ele>834.0</ele><time>2026-04-24T16:37:01.869Z</time></trkpt><trkpt lat="45.893522663186786" lon="11.078907697394916"><ele>829.8000000000001</ele><time>2026-04-24T16:37:03.868Z</time></trkpt><trkpt lat="45.89345507400785" lon="11.078842787557956"><ele>825.6</ele><time>2026-04-24T16:37:05.868Z</time></trkpt><trkpt lat="45.89337941128805" lon="11.078756797141995"><ele>821.4</ele><time>2026-04-24T16:37:07.868Z</time></trkpt><trkpt lat="45.8933730910647" lon="11.078619574471977"><ele>817.2</ele><time>2026-04-24T16:37:09.868Z</time></trkpt><trkpt lat="45.89337038144976" lon="11.07848902001642"><ele>813.0</ele><time>2026-04-24T16:37:11.868Z</time></trkpt><trkpt lat="45.893309584488485" lon="11.078366619972584"><ele>813.0</ele><time>2026-04-24T16:37:13.868Z</time></trkpt><trkpt lat="45.8932608875932" lon="11.078307510441617"><ele>813.0</ele><time>2026-04-24T16:37:14.868Z</time></trkpt><trkpt lat="45.893227885248514" lon="11.078192745037676"><ele>813.0</ele><time>2026-04-24T16:37:16.868Z</time></trkpt><trkpt lat="45.893162868557255" lon="11.078071009170023"><ele>813.0</ele><time>2026-04-24T16:37:18.868Z</time></trkpt><trkpt lat="45.893087987534535" lon="11.078010724795007"><ele>813.0</ele><time>2026-04-24T16:37:20.868Z</time></trkpt><trkpt lat="45.89300973416809" lon="11.077934659291024"><ele>813.0</ele><time>2026-04-24T16:37:22.868Z</time></trkpt><trkpt lat="45.892948739414564" lon="11.077800169598573"><ele>808.0</ele><time>2026-04-24T16:37:24.868Z</time></trkpt><trkpt lat="45.89286211960049" lon="11.077691281383553"><ele>803.0</ele><time>2026-04-24T16:37:25.868Z</time></trkpt><trkpt lat="45.89276275399818" lon="11.077578937430568"><ele>798.0</ele><time>2026-04-24T16:37:26.868Z</time></trkpt><trkpt lat="45.892720329997495" lon="11.077481735839497"><ele>793.0</ele><time>2026-04-24T16:37:27.868Z</time></trkpt><trkpt lat="45.89267693064589" lon="11.077355772266309"><ele>788.0</ele><time>2026-04-24T16:37:29.868Z</time></trkpt><trkpt lat="45.892614320328626" lon="11.07730781486475"><ele>784.5999999999999</ele><time>2026-04-24T16:37:31.868Z</time></trkpt><trkpt lat="45.89252631225726" lon="11.077223299636966"><ele>781.1999999999999</ele><time>2026-04-24T16:37:33.868Z</time></trkpt><trkpt lat="45.89243277880181" lon="11.07715849139246"><ele>777.8</ele><time>2026-04-24T16:37:35.868Z</time></trkpt><trkpt lat="45.892462359888874" lon="11.077054670785287"><ele>774.4</ele><time>2026-04-24T16:37:37.868Z</time></trkpt><trkpt lat="45.89251433994462" lon="11.076891468602126"><ele>771.0</ele><time>2026-04-24T16:37:39.868Z</time></trkpt><trkpt lat="45.89256057588001" lon="11.076808284200343"><ele>769.3333333333334</ele><time>2026-04-24T16:37:40.868Z</time></trkpt><trkpt lat="45.89263557837604" lon="11.076795219527916"><ele>767.6666666666666</ele><time>2026-04-24T16:37:42.868Z</time></trkpt><trkpt lat="45.89272033960537" lon="11.076733984155402"><ele>766.0</ele><time>2026-04-24T16:37:45.868Z</time></trkpt><trkpt lat="45.892800398729406" lon="11.076689513924626"><ele>764.3333333333333</ele><time>2026-04-24T16:37:47.868Z</time></trkpt><trkpt lat="45.89286219026426" lon="11.07664598657039"><ele>762.6666666666666</ele><time>2026-04-24T16:37:48.868Z</time></trkpt><trkpt lat="45.89293664047921" lon="11.076606082406212"><ele>761.0</ele><time>2026-04-24T16:37:49.868Z</time></trkpt><trkpt lat="45.89301195591618" lon="11.076618239319664"><ele>761.0</ele><time>2026-04-24T16:37:50.868Z</time></trkpt><trkpt lat="45.893105124023286" lon="11.076605262714994"><ele>761.0</ele><time>2026-04-24T16:37:52.868Z</time></trkpt><trkpt lat="45.89318450932423" lon="11.07656199381322"><ele>761.0</ele><time>2026-04-24T16:37:55.868Z</time></trkpt><trkpt lat="45.893347828464215" lon="11.076528698510282"><ele>761.0</ele><time>2026-04-24T16:37:57.868Z</time></trkpt><trkpt lat="45.89342767046598" lon="11.076496213293805"><ele>761.0</ele><time>2026-04-24T16:37:58.867Z</time></trkpt><trkpt lat="45.893513828144606" lon="11.076460830941217"><ele>753.25</ele><time>2026-04-24T16:38:00.867Z</time></trkpt><trkpt lat="45.89364795873414" lon="11.076424478476623"><ele>745.5</ele><time>2026-04-24T16:38:02.867Z</time></trkpt><trkpt lat="45.893738363423736" lon="11.076413385112705"><ele>737.75</ele><time>2026-04-24T16:38:03.867Z</time></trkpt><trkpt lat="45.89385604006805" lon="11.07643908345698"><ele>730.0</ele><time>2026-04-24T16:38:04.867Z</time></trkpt><trkpt lat="45.89396471796733" lon="11.07642716517263"><ele>730.0</ele><time>2026-04-24T16:38:05.867Z</time></trkpt><trkpt lat="45.894057399935484" lon="11.076384252909952"><ele>730.0</ele><time>2026-04-24T16:38:06.867Z</time></trkpt><trkpt lat="45.89413701937921" lon="11.076304454557338"><ele>730.0</ele><time>2026-04-24T16:38:07.867Z</time></trkpt><trkpt lat="45.894247900812985" lon="11.076286402380738"><ele>730.0</ele><time>2026-04-24T16:38:09.867Z</time></trkpt><trkpt lat="45.8943313083898" lon="11.076280130325516"><ele>730.0</ele><time>2026-04-24T16:38:11.867Z</time></trkpt><trkpt lat="45.89442373208037" lon="11.07630331175076"><ele>728.0</ele><time>2026-04-24T16:38:13.867Z</time></trkpt><trkpt lat="45.894527681208274" lon="11.076203865487752"><ele>726.0</ele><time>2026-04-24T16:38:15.867Z</time></trkpt><trkpt lat="45.89458178425613" lon="11.07613382774605"><ele>724.0</ele><time>2026-04-24T16:38:16.867Z</time></trkpt><trkpt lat="45.89466185784321" lon="11.076051648817478"><ele>722.0</ele><time>2026-04-24T16:38:18.867Z</time></trkpt><trkpt lat="45.89473865301059" lon="11.076049150685277"><ele>720.0</ele><time>2026-04-24T16:38:20.867Z</time></trkpt><trkpt lat="45.89484719047331" lon="11.076037567038123"><ele>720.0</ele><time>2026-04-24T16:38:22.867Z</time></trkpt><trkpt lat="45.894907232255434" lon="11.076008467909071"><ele>720.0</ele><time>2026-04-24T16:38:23.867Z</time></trkpt><trkpt lat="45.894972083774114" lon="11.075980863853793"><ele>720.0</ele><time>2026-04-24T16:38:24.867Z</time></trkpt><trkpt lat="45.89502995404393" lon="11.075939022875271"><ele>720.0</ele><time>2026-04-24T16:38:25.867Z</time></trkpt><trkpt lat="45.89512748804867" lon="11.075916280825881"><ele>720.0</ele><time>2026-04-24T16:38:26.867Z</time></trkpt><trkpt lat="45.89522254667484" lon="11.075869945210044"><ele>720.0</ele><time>2026-04-24T16:38:27.867Z</time></trkpt><trkpt lat="45.8953089164545" lon="11.075850163777815"><ele>718.0</ele><time>2026-04-24T16:38:28.867Z</time></trkpt><trkpt lat="45.89538069231129" lon="11.075854447016214"><ele>716.0</ele><time>2026-04-24T16:38:29.867Z</time></trkpt><trkpt lat="45.89545438156292" lon="11.075853780538326"><ele>714.0</ele><time>2026-04-24T16:38:30.867Z</time></trkpt><trkpt lat="45.89556262953441" lon="11.075798647892023"><ele>712.0</ele><time>2026-04-24T16:38:32.867Z</time></trkpt><trkpt lat="45.895682681307264" lon="11.075709220868871"><ele>710.0</ele><time>2026-04-24T16:38:34.867Z</time></trkpt><trkpt lat="45.895752886546674" lon="11.075718534815696"><ele>706.0</ele><time>2026-04-24T16:38:35.867Z</time></trkpt><trkpt lat="45.89582419821209" lon="11.07573499107863"><ele>702.0</ele><time>2026-04-24T16:38:36.867Z</time></trkpt><trkpt lat="45.89589556651088" lon="11.075733801581844"><ele>698.0</ele><time>2026-04-24T16:38:37.867Z</time></trkpt><trkpt lat="45.89597156671541" lon="11.075738875870053"><ele>694.0</ele><time>2026-04-24T16:38:38.867Z</time></trkpt><trkpt lat="45.896058197821155" lon="11.075716067613012"><ele>690.0</ele><time>2026-04-24T16:38:40.867Z</time></trkpt><trkpt lat="45.896191294791905" lon="11.0757390390997"><ele>686.0</ele><time>2026-04-24T16:38:42.867Z</time></trkpt><trkpt lat="45.89630531088548" lon="11.075727619269271"><ele>685.3333333333333</ele><time>2026-04-24T16:38:44.867Z</time></trkpt><trkpt lat="45.896376135648104" lon="11.075724717968995"><ele>684.6666666666666</ele><time>2026-04-24T16:38:45.867Z</time></trkpt><trkpt lat="45.89646038426205" lon="11.075704296392786"><ele>684.0</ele><time>2026-04-24T16:38:46.866Z</time></trkpt><trkpt lat="45.89654271579921" lon="11.075674539419554"><ele>683.3333333333334</ele><time>2026-04-24T16:38:47.866Z</time></trkpt><trkpt lat="45.89661887024574" lon="11.075649632866964"><ele>682.6666666666667</ele><time>2026-04-24T16:38:48.866Z</time></trkpt><trkpt lat="45.896689759802385" lon="11.075645284890076"><ele>682.0</ele><time>2026-04-24T16:38:49.866Z</time></trkpt><trkpt lat="45.896762564210576" lon="11.075643032051497"><ele>680.0</ele><time>2026-04-24T16:38:50.866Z</time></trkpt><trkpt lat="45.89682835705817" lon="11.075635269322104"><ele>678.0</ele><time>2026-04-24T16:38:51.866Z</time></trkpt><trkpt lat="45.89691425082428" lon="11.075609437227957"><ele>676.0</ele><time>2026-04-24T16:38:52.866Z</time></trkpt><trkpt lat="45.897017226335144" lon="11.075603078772081"><ele>674.0</ele><time>2026-04-24T16:38:53.866Z</time></trkpt><trkpt lat="45.897108837753144" lon="11.075626869004287"><ele>672.0</ele><time>2026-04-24T16:38:54.866Z</time></trkpt><trkpt lat="45.89724045044295" lon="11.075595568400324"><ele>672.0</ele><time>2026-04-24T16:38:56.866Z</time></trkpt><trkpt lat="45.897312814255905" lon="11.075582613396918"><ele>672.0</ele><time>2026-04-24T16:38:57.866Z</time></trkpt><trkpt lat="45.89738748171988" lon="11.075567145247424"><ele>672.0</ele><time>2026-04-24T16:38:58.866Z</time></trkpt><trkpt lat="45.89747491090144" lon="11.07554547354025"><ele>672.0</ele><time>2026-04-24T16:38:59.866Z</time></trkpt><trkpt lat="45.89757564322029" lon="11.075547729417226"><ele>672.0</ele><time>2026-04-24T16:39:00.866Z</time></trkpt><trkpt lat="45.89764889673258" lon="11.075552823988108"><ele>672.0</ele><time>2026-04-24T16:39:01.866Z</time></trkpt><trkpt lat="45.89776012068837" lon="11.075568124648866"><ele>669.8</ele><time>2026-04-24T16:39:03.866Z</time></trkpt><trkpt lat="45.89784967725273" lon="11.075600723526916"><ele>667.6</ele><time>2026-04-24T16:39:04.866Z</time></trkpt><trkpt lat="45.89795824688502" lon="11.075611451221802"><ele>665.4</ele><time>2026-04-24T16:39:05.867Z</time></trkpt><trkpt lat="45.898028030275164" lon="11.075626436707479"><ele>663.1999999999999</ele><time>2026-04-24T16:39:06.867Z</time></trkpt><trkpt lat="45.89813017306502" lon="11.07565803207134"><ele>661.0</ele><time>2026-04-24T16:39:07.867Z</time></trkpt><trkpt lat="45.89820363623477" lon="11.075662039009599"><ele>661.0</ele><time>2026-04-24T16:39:08.867Z</time></trkpt><trkpt lat="45.898276457199806" lon="11.075651922720459"><ele>661.0</ele><time>2026-04-24T16:39:09.867Z</time></trkpt><trkpt lat="45.89834167529102" lon="11.075616806226412"><ele>661.0</ele><time>2026-04-24T16:39:10.867Z</time></trkpt><trkpt lat="45.89841420478111" lon="11.075613337198346"><ele>661.0</ele><time>2026-04-24T16:39:11.867Z</time></trkpt><trkpt lat="45.898530637027434" lon="11.075584974802513"><ele>661.0</ele><time>2026-04-24T16:39:13.867Z</time></trkpt><trkpt lat="45.89862353029029" lon="11.075583175357055"><ele>661.0</ele><time>2026-04-24T16:39:15.867Z</time></trkpt><trkpt lat="45.89875418444513" lon="11.075548128409942"><ele>658.5999999999999</ele><time>2026-04-24T16:39:17.867Z</time></trkpt><trkpt lat="45.89884871835037" lon="11.07552123989216"><ele>656.2</ele><time>2026-04-24T16:39:19.867Z</time></trkpt><trkpt lat="45.89891739214201" lon="11.075509826268988"><ele>653.8</ele><time>2026-04-24T16:39:20.867Z</time></trkpt><trkpt lat="45.89902354557169" lon="11.075502185945348"><ele>651.4000000000001</ele><time>2026-04-24T16:39:22.867Z</time></trkpt><trkpt lat="45.89911010907259" lon="11.075469555101417"><ele>649.0</ele><time>2026-04-24T16:39:24.867Z</time></trkpt><trkpt lat="45.89924083612398" lon="11.075453404217397"><ele>647.5</ele><time>2026-04-24T16:39:26.867Z</time></trkpt><trkpt lat="45.89936412542581" lon="11.075437583852795"><ele>646.0</ele><time>2026-04-24T16:39:28.867Z</time></trkpt><trkpt lat="45.89942951614988" lon="11.07544410042152"><ele>644.5</ele><time>2026-04-24T16:39:29.867Z</time></trkpt><trkpt lat="45.89949236499551" lon="11.07542731306666"><ele>643.0</ele><time>2026-04-24T16:39:30.867Z</time></trkpt><trkpt lat="45.89956980460212" lon="11.075403116993797"><ele>641.5</ele><time>2026-04-24T16:39:31.867Z</time></trkpt><trkpt lat="45.89963833557805" lon="11.075392742932678"><ele>640.0</ele><time>2026-04-24T16:39:32.867Z</time></trkpt><trkpt lat="45.89974430614898" lon="11.07536053977112"><ele>640.0</ele><time>2026-04-24T16:39:34.867Z</time></trkpt><trkpt lat="45.89985037627165" lon="11.075347748853913"><ele>640.0</ele><time>2026-04-24T16:39:36.866Z</time></trkpt><trkpt lat="45.89991386742854" lon="11.075345961788866"><ele>640.0</ele><time>2026-04-24T16:39:37.866Z</time></trkpt><trkpt lat="45.8999901051017" lon="11.075318818899255"><ele>640.0</ele><time>2026-04-24T16:39:38.866Z</time></trkpt><trkpt lat="45.90008233303042" lon="11.075291633231666"><ele>640.0</ele><time>2026-04-24T16:39:39.866Z</time></trkpt><trkpt lat="45.90016563180815" lon="11.075258276027377"><ele>640.0</ele><time>2026-04-24T16:39:40.866Z</time></trkpt><trkpt lat="45.900243609520984" lon="11.075196385708129"><ele>638.5</ele><time>2026-04-24T16:39:41.866Z</time></trkpt><trkpt lat="45.90028768426658" lon="11.07513082906053"><ele>637.0</ele><time>2026-04-24T16:39:42.866Z</time></trkpt><trkpt lat="45.900345437695734" lon="11.075084035382359"><ele>635.5</ele><time>2026-04-24T16:39:44.866Z</time></trkpt><trkpt lat="45.90041575999828" lon="11.075019916397169"><ele>634.0</ele><time>2026-04-24T16:39:47.866Z</time></trkpt><trkpt lat="45.90047898108216" lon="11.07500459002776"><ele>632.5</ele><time>2026-04-24T16:39:49.866Z</time></trkpt><trkpt lat="45.9005672761858" lon="11.074948590473882"><ele>631.0</ele><time>2026-04-24T16:39:52.866Z</time></trkpt><trkpt lat="45.900653919226635" lon="11.074927479211304"><ele>626.6666666666667</ele><time>2026-04-24T16:39:55.866Z</time></trkpt><trkpt lat="45.900718264233326" lon="11.074926011365019"><ele>622.3333333333334</ele><time>2026-04-24T16:39:57.866Z</time></trkpt><trkpt lat="45.900793004012286" lon="11.074919398534577"><ele>618.0</ele><time>2026-04-24T16:39:59.866Z</time></trkpt><trkpt lat="45.900881647170934" lon="11.07489258039226"><ele>613.6666666666666</ele><time>2026-04-24T16:40:01.866Z</time></trkpt><trkpt lat="45.90095501795686" lon="11.074867070049576"><ele>609.3333333333333</ele><time>2026-04-24T16:40:03.866Z</time></trkpt><trkpt lat="45.901033807249476" lon="11.074878287114254"><ele>605.0</ele><time>2026-04-24T16:40:06.866Z</time></trkpt><trkpt lat="45.9011071252448" lon="11.074840704674129"><ele>603.1666666666666</ele><time>2026-04-24T16:40:08.866Z</time></trkpt><trkpt lat="45.90119994093315" lon="11.074869549346007"><ele>601.3333333333333</ele><time>2026-04-24T16:40:11.866Z</time></trkpt><trkpt lat="45.901292523534885" lon="11.074815697207317"><ele>599.5</ele><time>2026-04-24T16:40:13.866Z</time></trkpt><trkpt lat="45.901388787837064" lon="11.074809369234481"><ele>597.6666666666666</ele><time>2026-04-24T16:40:15.866Z</time></trkpt><trkpt lat="45.90146990414789" lon="11.074743429449718"><ele>595.8333333333334</ele><time>2026-04-24T16:40:17.866Z</time></trkpt><trkpt lat="45.90151613834827" lon="11.07468106015625"><ele>594.0</ele><time>2026-04-24T16:40:18.866Z</time></trkpt><trkpt lat="45.90158237156334" lon="11.07463095925"><ele>594.0</ele><time>2026-04-24T16:40:19.866Z</time></trkpt><trkpt lat="45.90164851409599" lon="11.07457242272673"><ele>594.0</ele><time>2026-04-24T16:40:20.866Z</time></trkpt><trkpt lat="45.90172820548146" lon="11.074563265109234"><ele>594.0</ele><time>2026-04-24T16:40:21.866Z</time></trkpt><trkpt lat="45.901821545665214" lon="11.074611743506734"><ele>594.0</ele><time>2026-04-24T16:40:23.865Z</time></trkpt><trkpt lat="45.901905355432916" lon="11.07460081125828"><ele>594.0</ele><time>2026-04-24T16:40:25.865Z</time></trkpt><trkpt lat="45.901978971138305" lon="11.074638478493515"><ele>594.0</ele><time>2026-04-24T16:40:27.865Z</time></trkpt><trkpt lat="45.90207864780135" lon="11.074702209806508"><ele>591.2</ele><time>2026-04-24T16:40:29.865Z</time></trkpt><trkpt lat="45.90221006771398" lon="11.07480308771275"><ele>588.4</ele><time>2026-04-24T16:40:31.865Z</time></trkpt><trkpt lat="45.902306966247856" lon="11.07479240240662"><ele>585.6</ele><time>2026-04-24T16:40:33.865Z</time></trkpt><trkpt lat="45.90240737027685" lon="11.07474783716061"><ele>582.8</ele><time>2026-04-24T16:40:35.865Z</time></trkpt><trkpt lat="45.90244664633083" lon="11.074670821690702"><ele>580.0</ele><time>2026-04-24T16:40:36.865Z</time></trkpt><trkpt lat="45.90251767272617" lon="11.074611844302364"><ele>580.0</ele><time>2026-04-24T16:40:38.865Z</time></trkpt><trkpt lat="45.90253618396827" lon="11.074504436792482"><ele>580.0</ele><time>2026-04-24T16:41:06.865Z</time></trkpt><trkpt lat="45.9024744144248" lon="11.074454494404838"><ele>580.0</ele><time>2026-04-24T16:43:45.864Z</time></trkpt><trkpt lat="45.902430265366306" lon="11.074352291889712"><ele>580.0</ele><time>2026-04-24T16:43:48.864Z</time></trkpt><trkpt lat="45.9023837599973" lon="11.07426028806229"><ele>580.0</ele><time>2026-04-24T16:43:50.864Z</time></trkpt><trkpt lat="45.902270525753664" lon="11.074112403656933"><ele>576.1666666666667</ele><time>2026-04-24T16:43:52.864Z</time></trkpt><trkpt lat="45.902203137138216" lon="11.073999082994895"><ele>572.3333333333334</ele><time>2026-04-24T16:43:53.864Z</time></trkpt><trkpt lat="45.90214364228855" lon="11.073933195042267"><ele>568.5</ele><time>2026-04-24T16:43:54.864Z</time></trkpt><trkpt lat="45.90208992034028" lon="11.073875591105223"><ele>564.6666666666666</ele><time>2026-04-24T16:43:55.864Z</time></trkpt><trkpt lat="45.90204003292044" lon="11.073777926442501"><ele>560.8333333333333</ele><time>2026-04-24T16:43:56.864Z</time></trkpt><trkpt lat="45.90198415197306" lon="11.073710087922787"><ele>557.0</ele><time>2026-04-24T16:43:57.864Z</time></trkpt><trkpt lat="45.90192330352034" lon="11.073642010256204"><ele>557.0</ele><time>2026-04-24T16:43:59.863Z</time></trkpt><trkpt lat="45.901859163304636" lon="11.07359724037842"><ele>557.0</ele><time>2026-04-24T16:44:01.863Z</time></trkpt><trkpt lat="45.90178781976437" lon="11.073573127525965"><ele>557.0</ele><time>2026-04-24T16:44:02.863Z</time></trkpt><trkpt lat="45.90169645475562" lon="11.073517190373055"><ele>557.0</ele><time>2026-04-24T16:44:03.863Z</time></trkpt><trkpt lat="45.90161816941234" lon="11.073441264346153"><ele>557.0</ele><time>2026-04-24T16:44:04.863Z</time></trkpt><trkpt lat="45.90153189270311" lon="11.07337415072174"><ele>557.0</ele><time>2026-04-24T16:44:06.863Z</time></trkpt><trkpt lat="45.901449703711364" lon="11.07329319043718"><ele>554.6666666666666</ele><time>2026-04-24T16:44:08.863Z</time></trkpt><trkpt lat="45.90139116984721" lon="11.073197969930103"><ele>552.3333333333333</ele><time>2026-04-24T16:44:09.863Z</time></trkpt><trkpt lat="45.901347691136024" lon="11.073126078651491"><ele>550.0</ele><time>2026-04-24T16:44:10.863Z</time></trkpt><trkpt lat="45.90125762975284" lon="11.073005444299094"><ele>547.6666666666666</ele><time>2026-04-24T16:44:12.863Z</time></trkpt><trkpt lat="45.901197983600774" lon="11.072934060928151"><ele>545.3333333333334</ele><time>2026-04-24T16:44:13.863Z</time></trkpt><trkpt lat="45.901137764404545" lon="11.072862097325144"><ele>543.0</ele><time>2026-04-24T16:44:14.863Z</time></trkpt><trkpt lat="45.901067841330786" lon="11.072759718420029"><ele>543.0</ele><time>2026-04-24T16:44:16.863Z</time></trkpt><trkpt lat="45.90099854597353" lon="11.072645676010206"><ele>543.0</ele><time>2026-04-24T16:44:18.863Z</time></trkpt><trkpt lat="45.90088317083478" lon="11.072574417335558"><ele>543.0</ele><time>2026-04-24T16:44:20.863Z</time></trkpt><trkpt lat="45.90081209056734" lon="11.0725249965859"><ele>543.0</ele><time>2026-04-24T16:44:21.863Z</time></trkpt><trkpt lat="45.90074043932479" lon="11.072454888304296"><ele>543.0</ele><time>2026-04-24T16:44:22.863Z</time></trkpt><trkpt lat="45.900667764962726" lon="11.072351394568027"><ele>541.0</ele><time>2026-04-24T16:44:24.863Z</time></trkpt><trkpt lat="45.90060649464962" lon="11.07225794413335"><ele>539.0</ele><time>2026-04-24T16:44:26.863Z</time></trkpt><trkpt lat="45.900536666808" lon="11.072161918612277"><ele>537.0</ele><time>2026-04-24T16:44:28.863Z</time></trkpt><trkpt lat="45.90045611241367" lon="11.072067165405352"><ele>535.0</ele><time>2026-04-24T16:44:30.863Z</time></trkpt><trkpt lat="45.90040591508853" lon="11.071980465404097"><ele>533.0</ele><time>2026-04-24T16:44:32.863Z</time></trkpt><trkpt lat="45.90035017944814" lon="11.07191436403677"><ele>531.0</ele><time>2026-04-24T16:44:34.863Z</time></trkpt><trkpt lat="45.90026603634924" lon="11.071843567441908"><ele>531.0</ele><time>2026-04-24T16:44:36.863Z</time></trkpt><trkpt lat="45.90019154990382" lon="11.071742288410688"><ele>531.0</ele><time>2026-04-24T16:44:39.863Z</time></trkpt><trkpt lat="45.90011733367131" lon="11.071634989298628"><ele>531.0</ele><time>2026-04-24T16:44:41.863Z</time></trkpt><trkpt lat="45.900063099337046" lon="11.071587130678639"><ele>531.0</ele><time>2026-04-24T16:44:42.863Z</time></trkpt><trkpt lat="45.90000191476642" lon="11.071527989903645"><ele>531.0</ele><time>2026-04-24T16:44:43.863Z</time></trkpt><trkpt lat="45.899942489304884" lon="11.071450100342934"><ele>531.0</ele><time>2026-04-24T16:44:44.863Z</time></trkpt><trkpt lat="45.899878862648926" lon="11.071379162830791"><ele>528.1666666666666</ele><time>2026-04-24T16:44:45.863Z</time></trkpt><trkpt lat="45.89980877220625" lon="11.071306638195383"><ele>525.3333333333334</ele><time>2026-04-24T16:44:46.862Z</time></trkpt><trkpt lat="45.899744334522175" lon="11.071235688351766"><ele>522.5</ele><time>2026-04-24T16:44:47.862Z</time></trkpt><trkpt lat="45.89967202967939" lon="11.07116066917799"><ele>519.6666666666667</ele><time>2026-04-24T16:44:48.862Z</time></trkpt><trkpt lat="45.89961107801314" lon="11.071107704762772"><ele>516.8333333333334</ele><time>2026-04-24T16:44:49.862Z</time></trkpt><trkpt lat="45.89953096557244" lon="11.07100456862916"><ele>514.0</ele><time>2026-04-24T16:44:51.862Z</time></trkpt><trkpt lat="45.899458485244615" lon="11.070917688315172"><ele>514.0</ele><time>2026-04-24T16:44:53.862Z</time></trkpt><trkpt lat="45.8993665632037" lon="11.07081550444414"><ele>514.0</ele><time>2026-04-24T16:44:55.862Z</time></trkpt><trkpt lat="45.899277534268975" lon="11.070718931568866"><ele>514.0</ele><time>2026-04-24T16:44:57.862Z</time></trkpt><trkpt lat="45.89918290794042" lon="11.07058752809652"><ele>514.0</ele><time>2026-04-24T16:44:59.862Z</time></trkpt><trkpt lat="45.89912410349244" lon="11.070527399299671"><ele>514.0</ele><time>2026-04-24T16:45:00.862Z</time></trkpt><trkpt lat="45.89904545519747" lon="11.0704212359999"><ele>511.1666666666667</ele><time>2026-04-24T16:45:02.862Z</time></trkpt><trkpt lat="45.89899965643018" lon="11.070351215586847"><ele>508.33333333333337</ele><time>2026-04-24T16:45:03.862Z</time></trkpt><trkpt lat="45.898938681322505" lon="11.070271887947184"><ele>505.5</ele><time>2026-04-24T16:45:04.862Z</time></trkpt><trkpt lat="45.89887652611274" lon="11.070187917393351"><ele>502.66666666666663</ele><time>2026-04-24T16:45:05.862Z</time></trkpt><trkpt lat="45.89879210150703" lon="11.070085180003513"><ele>499.8333333333333</ele><time>2026-04-24T16:45:07.862Z</time></trkpt><trkpt lat="45.898741037211195" lon="11.070020821347512"><ele>497.0</ele><time>2026-04-24T16:45:08.862Z</time></trkpt><trkpt lat="45.898675406731975" lon="11.06991182523006"><ele>492.20000000000005</ele><time>2026-04-24T16:45:10.862Z</time></trkpt><trkpt lat="45.89858519821018" lon="11.069779424515056"><ele>487.40000000000003</ele><time>2026-04-24T16:45:12.862Z</time></trkpt><trkpt lat="45.89854040669985" lon="11.069713619748208"><ele>482.59999999999997</ele><time>2026-04-24T16:45:13.862Z</time></trkpt><trkpt lat="45.89848969238349" lon="11.069658586940589"><ele>477.79999999999995</ele><time>2026-04-24T16:45:14.862Z</time></trkpt><trkpt lat="45.89841349856615" lon="11.06954254531621"><ele>473.0</ele><time>2026-04-24T16:45:16.862Z</time></trkpt><trkpt lat="45.898321459166276" lon="11.069417934917887"><ele>473.0</ele><time>2026-04-24T16:45:18.862Z</time></trkpt><trkpt lat="45.8982276942987" lon="11.069353959638596"><ele>472.99999999999994</ele><time>2026-04-24T16:45:20.862Z</time></trkpt><trkpt lat="45.89810711821408" lon="11.069291873230501"><ele>472.99999999999994</ele><time>2026-04-24T16:45:22.862Z</time></trkpt><trkpt lat="45.898022144539596" lon="11.069243115087248"><ele>473.0</ele><time>2026-04-24T16:45:23.863Z</time></trkpt><trkpt lat="45.89791947434981" lon="11.069186726971992"><ele>473.0</ele><time>2026-04-24T16:45:24.863Z</time></trkpt><trkpt lat="45.89779354100423" lon="11.069106110368066"><ele>468.4</ele><time>2026-04-24T16:45:25.863Z</time></trkpt><trkpt lat="45.89768624402165" lon="11.06902277577008"><ele>463.79999999999995</ele><time>2026-04-24T16:45:26.863Z</time></trkpt><trkpt lat="45.89760117938537" lon="11.068985567492195"><ele>459.2</ele><time>2026-04-24T16:45:27.863Z</time></trkpt><trkpt lat="45.89750558232818" lon="11.068988381652687"><ele>454.6</ele><time>2026-04-24T16:45:28.863Z</time></trkpt><trkpt lat="45.897404821598776" lon="11.068980826801289"><ele>450.0</ele><time>2026-04-24T16:45:29.863Z</time></trkpt><trkpt lat="45.89731177483895" lon="11.06889953531564"><ele>450.0</ele><time>2026-04-24T16:45:31.863Z</time></trkpt><trkpt lat="45.897285276408255" lon="11.068773609233379"><ele>450.0</ele><time>2026-04-24T16:45:33.862Z</time></trkpt><trkpt lat="45.89721097335956" lon="11.068661232940638"><ele>450.0</ele><time>2026-04-24T16:45:35.863Z</time></trkpt><trkpt lat="45.897149810965054" lon="11.068605646215557"><ele>450.0</ele><time>2026-04-24T16:45:36.863Z</time></trkpt><trkpt lat="45.897093842080984" lon="11.068542157693459"><ele>450.0</ele><time>2026-04-24T16:45:37.863Z</time></trkpt><trkpt lat="45.897039593576864" lon="11.068472813583895"><ele>450.0</ele><time>2026-04-24T16:45:38.863Z</time></trkpt><trkpt lat="45.89698176542017" lon="11.068400680882254"><ele>450.0</ele><time>2026-04-24T16:45:39.863Z</time></trkpt><trkpt lat="45.896921925313336" lon="11.068318362096303"><ele>450.0</ele><time>2026-04-24T16:45:40.863Z</time></trkpt><trkpt lat="45.89686670435907" lon="11.068233856240914"><ele>450.0</ele><time>2026-04-24T16:45:41.862Z</time></trkpt><trkpt lat="45.89675772156104" lon="11.068141614943986"><ele>450.0</ele><time>2026-04-24T16:45:42.862Z</time></trkpt><trkpt lat="45.896666134025175" lon="11.06806698123878"><ele>450.0</ele><time>2026-04-24T16:45:43.862Z</time></trkpt><trkpt lat="45.89658511834115" lon="11.068023150948317"><ele>449.2</ele><time>2026-04-24T16:45:44.862Z</time></trkpt><trkpt lat="45.89651726834676" lon="11.067964217355708"><ele>448.4</ele><time>2026-04-24T16:45:45.862Z</time></trkpt><trkpt lat="45.89644343629186" lon="11.067852681008276"><ele>447.6</ele><time>2026-04-24T16:45:47.862Z</time></trkpt><trkpt lat="45.896478912655276" lon="11.067710248546836"><ele>446.8</ele><time>2026-04-24T16:45:49.862Z</time></trkpt><trkpt lat="45.896494438437436" lon="11.067571483174056"><ele>446.0</ele><time>2026-04-24T16:45:51.862Z</time></trkpt><trkpt lat="45.89645844707942" lon="11.067479426485964"><ele>446.0</ele><time>2026-04-24T16:45:53.862Z</time></trkpt><trkpt lat="45.89638741179799" lon="11.067476769268001"><ele>446.0</ele><time>2026-04-24T16:45:54.862Z</time></trkpt><trkpt lat="45.896302033994345" lon="11.06738280211914"><ele>446.0</ele><time>2026-04-24T16:45:55.862Z</time></trkpt><trkpt lat="45.896207223685934" lon="11.067388215241893"><ele>446.0</ele><time>2026-04-24T16:45:56.862Z</time></trkpt><trkpt lat="45.89611367121465" lon="11.067390659965373"><ele>446.0</ele><time>2026-04-24T16:45:57.862Z</time></trkpt><trkpt lat="45.89600193860812" lon="11.06739015153488"><ele>445.3333333333333</ele><time>2026-04-24T16:45:58.862Z</time></trkpt><trkpt lat="45.895896074681154" lon="11.067410574880574"><ele>444.66666666666663</ele><time>2026-04-24T16:45:59.862Z</time></trkpt><trkpt lat="45.895800177847825" lon="11.06740073076302"><ele>444.0</ele><time>2026-04-24T16:46:00.862Z</time></trkpt><trkpt lat="45.89572032152773" lon="11.06739214895094"><ele>443.33333333333337</ele><time>2026-04-24T16:46:01.862Z</time></trkpt><trkpt lat="45.89563589123181" lon="11.067380596838708"><ele>442.6666666666667</ele><time>2026-04-24T16:46:02.862Z</time></trkpt><trkpt lat="45.89557762446878" lon="11.067345043673416"><ele>442.0</ele><time>2026-04-24T16:46:03.862Z</time></trkpt><trkpt lat="45.89573319964643" lon="11.06725239658238"><ele>442.0</ele><time>2026-04-24T16:46:08.862Z</time></trkpt><trkpt lat="45.895829676842155" lon="11.067217740687148"><ele>442.00000000000006</ele><time>2026-04-24T16:46:09.862Z</time></trkpt><trkpt lat="45.89593686394182" lon="11.0671774955289"><ele>442.00000000000006</ele><time>2026-04-24T16:46:10.862Z</time></trkpt><trkpt lat="45.89604562215951" lon="11.067134950835223"><ele>442.0</ele><time>2026-04-24T16:46:11.862Z</time></trkpt><trkpt lat="45.89614460318018" lon="11.06709684205083"><ele>442.0</ele><time>2026-04-24T16:46:12.862Z</time></trkpt><trkpt lat="45.89625073980614" lon="11.067059517425264"><ele>440.5</ele><time>2026-04-24T16:46:13.862Z</time></trkpt><trkpt lat="45.896370123626646" lon="11.067052398505432"><ele>439.0</ele><time>2026-04-24T16:46:14.862Z</time></trkpt><trkpt lat="45.896490478796174" lon="11.067053213832438"><ele>437.5</ele><time>2026-04-24T16:46:15.862Z</time></trkpt><trkpt lat="45.89660122769641" lon="11.067053583540776"><ele>436.0</ele><time>2026-04-24T16:46:16.862Z</time></trkpt><trkpt lat="45.89672122310663" lon="11.067039877288268"><ele>432.5</ele><time>2026-04-24T16:46:17.862Z</time></trkpt><trkpt lat="45.896822446901965" lon="11.067005013524536"><ele>429.0</ele><time>2026-04-24T16:46:18.862Z</time></trkpt><trkpt lat="45.89694145987677" lon="11.067010933374009"><ele>425.5</ele><time>2026-04-24T16:46:19.862Z</time></trkpt><trkpt lat="45.89706421640371" lon="11.066988311376466"><ele>422.0</ele><time>2026-04-24T16:46:20.862Z</time></trkpt><trkpt lat="45.89718069415927" lon="11.066950096190928"><ele>422.0</ele><time>2026-04-24T16:46:21.862Z</time></trkpt><trkpt lat="45.89729073564441" lon="11.066917571711624"><ele>422.0</ele><time>2026-04-24T16:46:22.862Z</time></trkpt><trkpt lat="45.89739960045157" lon="11.066888776625252"><ele>422.0</ele><time>2026-04-24T16:46:23.862Z</time></trkpt><trkpt lat="45.89752309960236" lon="11.066868713042792"><ele>422.0</ele><time>2026-04-24T16:46:24.86Z</time></trkpt><trkpt lat="45.89764715183171" lon="11.066853652929598"><ele>418.0</ele><time>2026-04-24T16:46:25.858Z</time></trkpt><trkpt lat="45.89777111463467" lon="11.06683806758118"><ele>414.0</ele><time>2026-04-24T16:46:26.855Z</time></trkpt><trkpt lat="45.89788701700784" lon="11.066822565315682"><ele>410.0</ele><time>2026-04-24T16:46:27.853Z</time></trkpt><trkpt lat="45.89799609377028" lon="11.066826796759809"><ele>406.0</ele><time>2026-04-24T16:46:28.851Z</time></trkpt><trkpt lat="45.8981011134613" lon="11.066874335428329"><ele>406.0</ele><time>2026-04-24T16:46:29.849Z</time></trkpt><trkpt lat="45.89821053163132" lon="11.066850859816931"><ele>406.0</ele><time>2026-04-24T16:46:30.847Z</time></trkpt><trkpt lat="45.89833408272526" lon="11.066775201396721"><ele>406.0</ele><time>2026-04-24T16:46:31.845Z</time></trkpt><trkpt lat="45.8984603741642" lon="11.066713944281704"><ele>406.0</ele><time>2026-04-24T16:46:32.843Z</time></trkpt><trkpt lat="45.8985832429039" lon="11.066735723550607"><ele>403.75</ele><time>2026-04-24T16:46:33.842Z</time></trkpt><trkpt lat="45.89871897457262" lon="11.066761911567916"><ele>401.5</ele><time>2026-04-24T16:46:34.84Z</time></trkpt><trkpt lat="45.89885012818142" lon="11.066795596263024"><ele>399.25</ele><time>2026-04-24T16:46:35.839Z</time></trkpt><trkpt lat="45.89897569318237" lon="11.066828518042762"><ele>397.0</ele><time>2026-04-24T16:46:36.837Z</time></trkpt><trkpt lat="45.89910467546519" lon="11.066840789919599"><ele>397.0</ele><time>2026-04-24T16:46:37.836Z</time></trkpt><trkpt lat="45.89922907400175" lon="11.066882934973975"><ele>397.0</ele><time>2026-04-24T16:46:38.835Z</time></trkpt><trkpt lat="45.89933140063175" lon="11.066912371422422"><ele>397.0</ele><time>2026-04-24T16:46:39.834Z</time></trkpt><trkpt lat="45.89941484155823" lon="11.066934553120742"><ele>397.0</ele><time>2026-04-24T16:46:40.833Z</time></trkpt><trkpt lat="45.89947983855319" lon="11.066939271368291"><ele>397.0</ele><time>2026-04-24T16:46:41.832Z</time></trkpt><trkpt lat="45.89948956344011" lon="11.06679921792598"><ele>394.5</ele><time>2026-04-24T16:46:43.83Z</time></trkpt><trkpt lat="45.89938663302675" lon="11.066677386282855"><ele>392.0</ele><time>2026-04-24T16:46:44.829Z</time></trkpt><trkpt lat="45.899298940481025" lon="11.066564430450883"><ele>389.5</ele><time>2026-04-24T16:46:45.829Z</time></trkpt><trkpt lat="45.89922082513759" lon="11.066448747082447"><ele>387.0</ele><time>2026-04-24T16:46:46.828Z</time></trkpt><trkpt lat="45.89914076268012" lon="11.06634150373852"><ele>387.0</ele><time>2026-04-24T16:46:47.827Z</time></trkpt><trkpt lat="45.89907400010236" lon="11.066231146778799"><ele>387.0</ele><time>2026-04-24T16:46:48.827Z</time></trkpt><trkpt lat="45.899019083058754" lon="11.066122784277864"><ele>387.0</ele><time>2026-04-24T16:46:49.826Z</time></trkpt><trkpt lat="45.8989831217973" lon="11.066014646899415"><ele>387.0</ele><time>2026-04-24T16:46:50.826Z</time></trkpt><trkpt lat="45.8989895334134" lon="11.065911912823587"><ele>387.0</ele><time>2026-04-24T16:46:51.825Z</time></trkpt><trkpt lat="45.899076278729034" lon="11.065846547040444"><ele>387.0</ele><time>2026-04-24T16:46:53.824Z</time></trkpt><trkpt lat="45.899162829299904" lon="11.06575400639499"><ele>387.5</ele><time>2026-04-24T16:46:55.823Z</time></trkpt><trkpt lat="45.89923458991913" lon="11.065691296839688"><ele>388.0</ele><time>2026-04-24T16:46:56.823Z</time></trkpt><trkpt lat="45.899306981178455" lon="11.065646717976792"><ele>388.5</ele><time>2026-04-24T16:46:58.822Z</time></trkpt><trkpt lat="45.899366062262274" lon="11.065612950206265"><ele>389.0</ele><time>2026-04-24T16:46:59.822Z</time></trkpt><trkpt lat="45.899446258292315" lon="11.065577232087351"><ele>389.5</ele><time>2026-04-24T16:47:00.822Z</time></trkpt><trkpt lat="45.899534246211516" lon="11.065544728250941"><ele>390.0</ele><time>2026-04-24T16:47:01.821Z</time></trkpt><trkpt lat="45.89960827573164" lon="11.065519665483192"><ele>388.4</ele><time>2026-04-24T16:47:02.821Z</time></trkpt><trkpt lat="45.8997148324451" lon="11.065484257243414"><ele>386.8</ele><time>2026-04-24T16:47:04.821Z</time></trkpt><trkpt lat="45.8997865030406" lon="11.06546044253012"><ele>385.20000000000005</ele><time>2026-04-24T16:47:05.82Z</time></trkpt><trkpt lat="45.899881064706044" lon="11.065420467582584"><ele>383.6</ele><time>2026-04-24T16:47:06.82Z</time></trkpt><trkpt lat="45.89997519070552" lon="11.065393044106782"><ele>382.0</ele><time>2026-04-24T16:47:07.82Z</time></trkpt><trkpt lat="45.90010392630675" lon="11.065366140983933"><ele>380.5</ele><time>2026-04-24T16:47:08.82Z</time></trkpt><trkpt lat="45.900212795895186" lon="11.065363403809048"><ele>379.0</ele><time>2026-04-24T16:47:09.82Z</time></trkpt><trkpt lat="45.90030122655755" lon="11.065364593638467"><ele>377.5</ele><time>2026-04-24T16:47:10.819Z</time></trkpt><trkpt lat="45.90038969899118" lon="11.065365784033363"><ele>376.0</ele><time>2026-04-24T16:47:11.819Z</time></trkpt><trkpt lat="45.90046951336843" lon="11.065366857931972"><ele>374.5</ele><time>2026-04-24T16:47:12.819Z</time></trkpt><trkpt lat="45.90054155069095" lon="11.06536782719729"><ele>373.0</ele><time>2026-04-24T16:47:13.819Z</time></trkpt><trkpt lat="45.900643077150576" lon="11.065369193220862"><ele>373.0</ele><time>2026-04-24T16:47:14.819Z</time></trkpt><trkpt lat="45.90076125919793" lon="11.06537047943168"><ele>373.0</ele><time>2026-04-24T16:47:15.819Z</time></trkpt><trkpt lat="45.9008460226022" lon="11.065371381690639"><ele>373.0</ele><time>2026-04-24T16:47:16.819Z</time></trkpt><trkpt lat="45.90092816570993" lon="11.065372256064435"><ele>373.0</ele><time>2026-04-24T16:47:17.818Z</time></trkpt><trkpt lat="45.90103797913157" lon="11.065373424988355"><ele>373.0</ele><time>2026-04-24T16:47:19.818Z</time></trkpt><trkpt lat="45.9011372732911" lon="11.065374489288903"><ele>369.4</ele><time>2026-04-24T16:47:20.818Z</time></trkpt><trkpt lat="45.901242719569034" lon="11.065373163047726"><ele>365.79999999999995</ele><time>2026-04-24T16:47:21.818Z</time></trkpt><trkpt lat="45.90129941686032" lon="11.065412636284709"><ele>362.2</ele><time>2026-04-24T16:47:22.818Z</time></trkpt><trkpt lat="45.901362465237334" lon="11.06545428676863"><ele>358.6</ele><time>2026-04-24T16:47:23.818Z</time></trkpt><trkpt lat="45.901376584588604" lon="11.06556005520276"><ele>355.0</ele><time>2026-04-24T16:47:26.818Z</time></trkpt><trkpt lat="45.90150540472935" lon="11.06640817704136"><ele>353.8333333333333</ele><time>2026-04-24T16:47:27.817Z</time></trkpt><trkpt lat="45.901581518111065" lon="11.066455842271951"><ele>352.66666666666663</ele><time>2026-04-24T16:47:28.817Z</time></trkpt><trkpt lat="45.90163750467603" lon="11.066502412369505"><ele>351.5</ele><time>2026-04-24T16:47:29.818Z</time></trkpt><trkpt lat="45.901694009479364" lon="11.06654306134492"><ele>350.3333333333333</ele><time>2026-04-24T16:47:30.818Z</time></trkpt><trkpt lat="45.90176635908018" lon="11.066591500846389"><ele>349.1666666666667</ele><time>2026-04-24T16:47:31.818Z</time></trkpt><trkpt lat="45.90183576208912" lon="11.066605971631526"><ele>348.0</ele><time>2026-04-24T16:47:32.818Z</time></trkpt><trkpt lat="45.90193570184584" lon="11.066633338745307"><ele>345.79999999999995</ele><time>2026-04-24T16:47:33.819Z</time></trkpt><trkpt lat="45.90203172645451" lon="11.06666275895302"><ele>343.6</ele><time>2026-04-24T16:47:34.819Z</time></trkpt><trkpt lat="45.90209659987189" lon="11.06669985040542"><ele>341.4</ele><time>2026-04-24T16:47:36.818Z</time></trkpt><trkpt lat="45.9022666508052" lon="11.066706049345303"><ele>339.20000000000005</ele><time>2026-04-24T16:47:38.818Z</time></trkpt><trkpt lat="45.90236750388511" lon="11.066728040412901"><ele>337.0</ele><time>2026-04-24T16:47:39.818Z</time></trkpt><trkpt lat="45.90246014796749" lon="11.066746488087984"><ele>337.0</ele><time>2026-04-24T16:47:40.818Z</time></trkpt><trkpt lat="45.90256240004563" lon="11.066756486292851"><ele>337.0</ele><time>2026-04-24T16:47:41.818Z</time></trkpt><trkpt lat="45.902654204451466" lon="11.066768825008054"><ele>337.0</ele><time>2026-04-24T16:47:42.818Z</time></trkpt><trkpt lat="45.90274270768079" lon="11.066770802222162"><ele>337.0</ele><time>2026-04-24T16:47:43.818Z</time></trkpt><trkpt lat="45.90283812239125" lon="11.066797238846375"><ele>337.0</ele><time>2026-04-24T16:47:44.818Z</time></trkpt><trkpt lat="45.9029188608036" lon="11.066793392181692"><ele>334.20000000000005</ele><time>2026-04-24T16:47:45.817Z</time></trkpt><trkpt lat="45.90299811283411" lon="11.066788367143182"><ele>331.4</ele><time>2026-04-24T16:47:46.817Z</time></trkpt><trkpt lat="45.90308574561686" lon="11.066816812813098"><ele>328.6</ele><time>2026-04-24T16:47:47.817Z</time></trkpt><trkpt lat="45.90317961643718" lon="11.066776384982363"><ele>325.79999999999995</ele><time>2026-04-24T16:47:48.817Z</time></trkpt><trkpt lat="45.90327675010369" lon="11.066754680514581"><ele>323.0</ele><time>2026-04-24T16:47:49.817Z</time></trkpt><trkpt lat="45.903363517155405" lon="11.06674489038149"><ele>321.2</ele><time>2026-04-24T16:47:50.817Z</time></trkpt><trkpt lat="45.90347314664557" lon="11.06676008661418"><ele>319.4</ele><time>2026-04-24T16:47:51.817Z</time></trkpt><trkpt lat="45.90357849623521" lon="11.06676913897062"><ele>317.59999999999997</ele><time>2026-04-24T16:47:52.817Z</time></trkpt><trkpt lat="45.90367599790809" lon="11.066725805907108"><ele>315.79999999999995</ele><time>2026-04-24T16:47:53.817Z</time></trkpt><trkpt lat="45.90377981611224" lon="11.066700142516272"><ele>314.0</ele><time>2026-04-24T16:47:54.817Z</time></trkpt><trkpt lat="45.90390400998113" lon="11.066686897055785"><ele>314.0</ele><time>2026-04-24T16:47:55.817Z</time></trkpt><trkpt lat="45.904027887437096" lon="11.06666851422211"><ele>314.0</ele><time>2026-04-24T16:47:56.817Z</time></trkpt><trkpt lat="45.904166868231655" lon="11.06662371518732"><ele>314.0</ele><time>2026-04-24T16:47:57.817Z</time></trkpt><trkpt lat="45.9042947491358" lon="11.066572930448608"><ele>314.0</ele><time>2026-04-24T16:47:58.817Z</time></trkpt><trkpt lat="45.904430344610105" lon="11.066512814923742"><ele>309.25</ele><time>2026-04-24T16:47:59.817Z</time></trkpt><trkpt lat="45.90456794878855" lon="11.066467652593287"><ele>304.5</ele><time>2026-04-24T16:48:00.817Z</time></trkpt><trkpt lat="45.90468658169929" lon="11.066414233464752"><ele>299.75</ele><time>2026-04-24T16:48:01.817Z</time></trkpt><trkpt lat="45.90480200931333" lon="11.066357035296932"><ele>295.0</ele><time>2026-04-24T16:48:02.817Z</time></trkpt><trkpt lat="45.90490959417606" lon="11.066275887810065"><ele>295.0</ele><time>2026-04-24T16:48:03.817Z</time></trkpt><trkpt lat="45.90503165623063" lon="11.066211674304443"><ele>295.0</ele><time>2026-04-24T16:48:04.817Z</time></trkpt><trkpt lat="45.90514777888121" lon="11.066154491640619"><ele>295.0</ele><time>2026-04-24T16:48:05.817Z</time></trkpt><trkpt lat="45.905255355658426" lon="11.066096455302842"><ele>295.0</ele><time>2026-04-24T16:48:06.817Z</time></trkpt><trkpt lat="45.90534898681289" lon="11.066041992489652"><ele>294.8333333333333</ele><time>2026-04-24T16:48:07.817Z</time></trkpt><trkpt lat="45.90541335378853" lon="11.066014396501496"><ele>294.66666666666663</ele><time>2026-04-24T16:48:08.817Z</time></trkpt><trkpt lat="45.90547764770486" lon="11.065982787531947"><ele>294.5</ele><time>2026-04-24T16:48:11.816Z</time></trkpt><trkpt lat="45.90555968197465" lon="11.066090782807677"><ele>294.3333333333333</ele><time>2026-04-24T16:48:14.816Z</time></trkpt><trkpt lat="45.90561679727709" lon="11.066161050304103"><ele>294.1666666666667</ele><time>2026-04-24T16:48:15.816Z</time></trkpt><trkpt lat="45.90567640072009" lon="11.066211258016578"><ele>294.0</ele><time>2026-04-24T16:48:16.816Z</time></trkpt><trkpt lat="45.905766657761085" lon="11.066229245816373"><ele>294.0</ele><time>2026-04-24T16:48:17.816Z</time></trkpt><trkpt lat="45.90585031777327" lon="11.06626956642508"><ele>294.0</ele><time>2026-04-24T16:48:18.816Z</time></trkpt><trkpt lat="45.90594665819896" lon="11.066298754994412"><ele>294.0</ele><time>2026-04-24T16:48:19.816Z</time></trkpt><trkpt lat="45.90605490218979" lon="11.066333000359299"><ele>294.0</ele><time>2026-04-24T16:48:20.816Z</time></trkpt><trkpt lat="45.90616386254805" lon="11.066368445964633"><ele>294.0</ele><time>2026-04-24T16:48:21.816Z</time></trkpt><trkpt lat="45.90626649541274" lon="11.066401833197196"><ele>293.4</ele><time>2026-04-24T16:48:22.816Z</time></trkpt><trkpt lat="45.90636408406921" lon="11.066432300851767"><ele>292.79999999999995</ele><time>2026-04-24T16:48:23.816Z</time></trkpt><trkpt lat="45.90646430785979" lon="11.066460634490346"><ele>292.20000000000005</ele><time>2026-04-24T16:48:24.816Z</time></trkpt><trkpt lat="45.906569187523765" lon="11.066462383771231"><ele>291.6</ele><time>2026-04-24T16:48:25.816Z</time></trkpt><trkpt lat="45.90666997627017" lon="11.06650234694145"><ele>291.0</ele><time>2026-04-24T16:48:26.816Z</time></trkpt><trkpt lat="45.90677837730034" lon="11.066532585659859"><ele>290.2</ele><time>2026-04-24T16:48:27.816Z</time></trkpt><trkpt lat="45.90688308218121" lon="11.066559540739613"><ele>289.40000000000003</ele><time>2026-04-24T16:48:28.816Z</time></trkpt><trkpt lat="45.9069744054703" lon="11.066619579667755"><ele>288.6</ele><time>2026-04-24T16:48:29.816Z</time></trkpt><trkpt lat="45.90707471683965" lon="11.066647560868951"><ele>287.8</ele><time>2026-04-24T16:48:30.816Z</time></trkpt><trkpt lat="45.907176345040924" lon="11.066630096919303"><ele>287.0</ele><time>2026-04-24T16:48:31.816Z</time></trkpt><trkpt lat="45.90728109214315" lon="11.066602913727733"><ele>287.0</ele><time>2026-04-24T16:48:32.816Z</time></trkpt><trkpt lat="45.90737834552692" lon="11.06655763779594"><ele>287.0</ele><time>2026-04-24T16:48:33.816Z</time></trkpt><trkpt lat="45.907461310668424" lon="11.066491441616842"><ele>287.0</ele><time>2026-04-24T16:48:34.816Z</time></trkpt><trkpt lat="45.907523986651874" lon="11.066391910725505"><ele>287.0</ele><time>2026-04-24T16:48:35.816Z</time></trkpt><trkpt lat="45.90758983988206" lon="11.06627173723946"><ele>287.0</ele><time>2026-04-24T16:48:36.816Z</time></trkpt><trkpt lat="45.90766109871486" lon="11.066160569752682"><ele>285.5</ele><time>2026-04-24T16:48:37.816Z</time></trkpt><trkpt lat="45.907761014998876" lon="11.066098174653419"><ele>284.0</ele><time>2026-04-24T16:48:38.816Z</time></trkpt><trkpt lat="45.90787062207124" lon="11.066068829596599"><ele>282.5</ele><time>2026-04-24T16:48:39.816Z</time></trkpt><trkpt lat="45.90798354084663" lon="11.066031354404796"><ele>281.0</ele><time>2026-04-24T16:48:40.816Z</time></trkpt><trkpt lat="45.90810122482712" lon="11.065990585324712"><ele>281.0</ele><time>2026-04-24T16:48:41.816Z</time></trkpt><trkpt lat="45.90819917743192" lon="11.065942677030664"><ele>281.0</ele><time>2026-04-24T16:48:42.816Z</time></trkpt><trkpt lat="45.90828520397828" lon="11.065904549076"><ele>281.0</ele><time>2026-04-24T16:48:43.815Z</time></trkpt><trkpt lat="45.90836465576844" lon="11.065933005176076"><ele>281.0</ele><time>2026-04-24T16:48:44.815Z</time></trkpt><trkpt lat="45.90846346079969" lon="11.066050763825109"><ele>281.0</ele><time>2026-04-24T16:48:46.815Z</time></trkpt><trkpt lat="45.90855637008573" lon="11.066113739917197"><ele>277.5</ele><time>2026-04-24T16:48:47.815Z</time></trkpt><trkpt lat="45.90867791055561" lon="11.066182995087892"><ele>274.0</ele><time>2026-04-24T16:48:48.815Z</time></trkpt><trkpt lat="45.908788041395766" lon="11.066223406925479"><ele>270.5</ele><time>2026-04-24T16:48:49.815Z</time></trkpt><trkpt lat="45.908897956566044" lon="11.066309067030955"><ele>267.0</ele><time>2026-04-24T16:48:50.815Z</time></trkpt><trkpt lat="45.909023592267246" lon="11.06638332109991"><ele>267.0</ele><time>2026-04-24T16:48:51.815Z</time></trkpt><trkpt lat="45.909151330779565" lon="11.066462210194668"><ele>267.0</ele><time>2026-04-24T16:48:52.815Z</time></trkpt><trkpt lat="45.90926748561071" lon="11.066537152743567"><ele>267.0</ele><time>2026-04-24T16:48:53.815Z</time></trkpt><trkpt lat="45.90938787532309" lon="11.06662041057294"><ele>267.0</ele><time>2026-04-24T16:48:54.815Z</time></trkpt><trkpt lat="45.90951169843032" lon="11.066705660787893"><ele>266.5</ele><time>2026-04-24T16:48:55.815Z</time></trkpt><trkpt lat="45.909628836931965" lon="11.066788292670832"><ele>266.0</ele><time>2026-04-24T16:48:56.815Z</time></trkpt><trkpt lat="45.909733971114235" lon="11.066863944382106"><ele>265.5</ele><time>2026-04-24T16:48:57.815Z</time></trkpt><trkpt lat="45.90984663469569" lon="11.066964144324125"><ele>265.0</ele><time>2026-04-24T16:48:58.815Z</time></trkpt><trkpt lat="45.90996176999523" lon="11.067070495126586"><ele>265.0</ele><time>2026-04-24T16:48:59.815Z</time></trkpt><trkpt lat="45.91007146129953" lon="11.06717776650199"><ele>265.0</ele><time>2026-04-24T16:49:00.815Z</time></trkpt><trkpt lat="45.91017865835371" lon="11.067310860971107"><ele>265.0</ele><time>2026-04-24T16:49:01.815Z</time></trkpt><trkpt lat="45.9102893074287" lon="11.067434881474354"><ele>265.0</ele><time>2026-04-24T16:49:02.815Z</time></trkpt><trkpt lat="45.91037986562596" lon="11.067583877561082"><ele>264.25</ele><time>2026-04-24T16:49:03.815Z</time></trkpt><trkpt lat="45.91046791714783" lon="11.067709364529405"><ele>263.5</ele><time>2026-04-24T16:49:04.815Z</time></trkpt><trkpt lat="45.91054962481071" lon="11.067833029993468"><ele>262.75</ele><time>2026-04-24T16:49:05.815Z</time></trkpt><trkpt lat="45.9106411711163" lon="11.067974521770417"><ele>262.0</ele><time>2026-04-24T16:49:06.815Z</time></trkpt><trkpt lat="45.91073049359487" lon="11.068104738200605"><ele>262.0</ele><time>2026-04-24T16:49:07.815Z</time></trkpt><trkpt lat="45.91081616557458" lon="11.068241546024051"><ele>262.0</ele><time>2026-04-24T16:49:08.815Z</time></trkpt><trkpt lat="45.91090979192157" lon="11.068361375308944"><ele>262.0</ele><time>2026-04-24T16:49:09.815Z</time></trkpt><trkpt lat="45.91099757043295" lon="11.068493617190748"><ele>262.0</ele><time>2026-04-24T16:49:10.815Z</time></trkpt><trkpt lat="45.91109560113359" lon="11.068599970710792"><ele>260.75</ele><time>2026-04-24T16:49:11.815Z</time></trkpt><trkpt lat="45.91118631148321" lon="11.068715967419408"><ele>259.5</ele><time>2026-04-24T16:49:12.815Z</time></trkpt><trkpt lat="45.911297208520416" lon="11.068813651865522"><ele>258.25</ele><time>2026-04-24T16:49:13.815Z</time></trkpt><trkpt lat="45.91139928871883" lon="11.068907628427839"><ele>257.0</ele><time>2026-04-24T16:49:14.815Z</time></trkpt><trkpt lat="45.911447408840324" lon="11.069077341595666"><ele>257.6</ele><time>2026-04-24T16:49:15.815Z</time></trkpt><trkpt lat="45.911511376355" lon="11.069203436846896"><ele>258.2</ele><time>2026-04-24T16:49:16.815Z</time></trkpt><trkpt lat="45.91157257852673" lon="11.069298485446252"><ele>258.8</ele><time>2026-04-24T16:49:17.814Z</time></trkpt><trkpt lat="45.91169449966663" lon="11.069279674494988"><ele>259.4</ele><time>2026-04-24T16:49:18.814Z</time></trkpt><trkpt lat="45.911782262429256" lon="11.069324252829102"><ele>260.0</ele><time>2026-04-24T16:49:19.814Z</time></trkpt><trkpt lat="45.91183578516064" lon="11.069417902450503"><ele>258.5</ele><time>2026-04-24T16:49:20.814Z</time></trkpt><trkpt lat="45.91190795791203" lon="11.06950837976593"><ele>257.0</ele><time>2026-04-24T16:49:21.814Z</time></trkpt><trkpt lat="45.91199736103727" lon="11.069620457714475"><ele>255.5</ele><time>2026-04-24T16:49:22.814Z</time></trkpt><trkpt lat="45.912090549183844" lon="11.069747798817763"><ele>254.0</ele><time>2026-04-24T16:49:23.814Z</time></trkpt><trkpt lat="45.91216292672305" lon="11.069867746977861"><ele>253.79999999999998</ele><time>2026-04-24T16:49:24.814Z</time></trkpt><trkpt lat="45.91220888741872" lon="11.06999204662303"><ele>253.59999999999997</ele><time>2026-04-24T16:49:25.814Z</time></trkpt><trkpt lat="45.9122206909244" lon="11.07011267950316"><ele>253.4</ele><time>2026-04-24T16:49:26.814Z</time></trkpt><trkpt lat="45.91224786130375" lon="11.07024615345112"><ele>253.2</ele><time>2026-04-24T16:49:27.814Z</time></trkpt><trkpt lat="45.912277885854586" lon="11.070373125464226"><ele>253.0</ele><time>2026-04-24T16:49:28.814Z</time></trkpt><trkpt lat="45.912322660615715" lon="11.070469181047075"><ele>253.0</ele><time>2026-04-24T16:49:29.814Z</time></trkpt><trkpt lat="45.91229601835722" lon="11.07060020139819"><ele>253.0</ele><time>2026-04-24T16:49:31.814Z</time></trkpt><trkpt lat="45.91227648352832" lon="11.07073633264905"><ele>253.0</ele><time>2026-04-24T16:49:32.814Z</time></trkpt><trkpt lat="45.91225407669013" lon="11.070903180147258"><ele>253.0</ele><time>2026-04-24T16:49:33.814Z</time></trkpt><trkpt lat="45.912229624369196" lon="11.071096180987194"><ele>253.0</ele><time>2026-04-24T16:49:34.814Z</time></trkpt><trkpt lat="45.91221160701053" lon="11.071321402838228"><ele>252.0</ele><time>2026-04-24T16:49:35.816Z</time></trkpt><trkpt lat="45.91221537510149" lon="11.071499442349339"><ele>251.0</ele><time>2026-04-24T16:49:36.816Z</time></trkpt><trkpt lat="45.91220620124857" lon="11.071674457241203"><ele>250.0</ele><time>2026-04-24T16:49:37.816Z</time></trkpt><trkpt lat="45.912175332878014" lon="11.071840985287066"><ele>249.0</ele><time>2026-04-24T16:49:38.816Z</time></trkpt><trkpt lat="45.91211277817591" lon="11.071970092932686"><ele>249.0</ele><time>2026-04-24T16:49:39.815Z</time></trkpt><trkpt lat="45.91206667138186" lon="11.072092431350821"><ele>248.99999999999997</ele><time>2026-04-24T16:49:40.815Z</time></trkpt><trkpt lat="45.91203175382464" lon="11.072229192084258"><ele>248.99999999999997</ele><time>2026-04-24T16:49:41.815Z</time></trkpt><trkpt lat="45.91198188492744" lon="11.072376767668256"><ele>249.0</ele><time>2026-04-24T16:49:42.815Z</time></trkpt><trkpt lat="45.911973215521414" lon="11.072500050119766"><ele>249.0</ele><time>2026-04-24T16:49:43.815Z</time></trkpt><trkpt lat="45.91198133236394" lon="11.072635186687355"><ele>249.25</ele><time>2026-04-24T16:49:44.815Z</time></trkpt><trkpt lat="45.911991161834884" lon="11.0728105517005"><ele>249.5</ele><time>2026-04-24T16:49:45.815Z</time></trkpt><trkpt lat="45.912053938886494" lon="11.072987165236029"><ele>249.75</ele><time>2026-04-24T16:49:46.815Z</time></trkpt><trkpt lat="45.912107798933036" lon="11.073113473854345"><ele>250.0</ele><time>2026-04-24T16:49:47.815Z</time></trkpt><trkpt lat="45.91221167779864" lon="11.073197339987786"><ele>250.0</ele><time>2026-04-24T16:49:48.815Z</time></trkpt><trkpt lat="45.912301090898296" lon="11.073250031890552"><ele>250.0</ele><time>2026-04-24T16:49:49.815Z</time></trkpt><trkpt lat="45.91240145405291" lon="11.073298165420207"><ele>250.0</ele><time>2026-04-24T16:49:50.815Z</time></trkpt><trkpt lat="45.91248212702349" lon="11.073321360500046"><ele>250.0</ele><time>2026-04-24T16:49:51.815Z</time></trkpt><trkpt lat="45.912575180035795" lon="11.073335289001596"><ele>250.0</ele><time>2026-04-24T16:49:53.815Z</time></trkpt><trkpt lat="45.912649534865594" lon="11.073316054401587"><ele>248.66666666666666</ele><time>2026-04-24T16:49:55.815Z</time></trkpt><trkpt lat="45.91272611830777" lon="11.073317731746155"><ele>247.33333333333331</ele><time>2026-04-24T16:49:57.815Z</time></trkpt><trkpt lat="45.91282540404008" lon="11.073278725431694"><ele>246.0</ele><time>2026-04-24T16:49:59.815Z</time></trkpt><trkpt lat="45.912884046865635" lon="11.073215895295338"><ele>244.66666666666669</ele><time>2026-04-24T16:50:00.815Z</time></trkpt><trkpt lat="45.91292535588044" lon="11.07312184804835"><ele>243.33333333333334</ele><time>2026-04-24T16:50:01.815Z</time></trkpt><trkpt lat="45.912976298637346" lon="11.073049346187839"><ele>242.0</ele><time>2026-04-24T16:50:02.815Z</time></trkpt><trkpt lat="45.91303920624531" lon="11.072978994720838"><ele>241.0</ele><time>2026-04-24T16:50:03.815Z</time></trkpt><trkpt lat="45.913104963689925" lon="11.072909397186983"><ele>240.0</ele><time>2026-04-24T16:50:04.815Z</time></trkpt><trkpt lat="45.9132084423283" lon="11.072893363538972"><ele>239.0</ele><time>2026-04-24T16:50:05.815Z</time></trkpt><trkpt lat="45.91329932495983" lon="11.072825978752116"><ele>238.0</ele><time>2026-04-24T16:50:06.815Z</time></trkpt><trkpt lat="45.91338600990159" lon="11.072735847500656"><ele>237.0</ele><time>2026-04-24T16:50:07.815Z</time></trkpt><trkpt lat="45.9134757460484" lon="11.072721346999048"><ele>233.39999999999998</ele><time>2026-04-24T16:50:08.815Z</time></trkpt><trkpt lat="45.91356853652125" lon="11.072690970512449"><ele>229.79999999999998</ele><time>2026-04-24T16:50:10.815Z</time></trkpt><trkpt lat="45.913582543338066" lon="11.07286780905495"><ele>226.2</ele><time>2026-04-24T16:50:15.815Z</time></trkpt><trkpt lat="45.91363005130274" lon="11.07300959166916"><ele>222.6</ele><time>2026-04-24T16:50:18.814Z</time></trkpt><trkpt lat="45.91366637603158" lon="11.073103198055765"><ele>219.0</ele><time>2026-04-24T16:50:19.814Z</time></trkpt><trkpt lat="45.913728741898026" lon="11.073180588683067"><ele>219.0</ele><time>2026-04-24T16:50:20.814Z</time></trkpt><trkpt lat="45.91378766388184" lon="11.073276942128873"><ele>219.0</ele><time>2026-04-24T16:50:21.814Z</time></trkpt><trkpt lat="45.91385227617077" lon="11.073386557647783"><ele>219.0</ele><time>2026-04-24T16:50:22.814Z</time></trkpt><trkpt lat="45.91389952694855" lon="11.073466719319887"><ele>219.0</ele><time>2026-04-24T16:50:23.814Z</time></trkpt><trkpt lat="45.91394096462114" lon="11.073537018411013"><ele>219.0</ele><time>2026-04-24T16:50:24.814Z</time></trkpt><trkpt lat="45.91398624353223" lon="11.073627557845985"><ele>219.0</ele><time>2026-04-24T16:50:25.814Z</time></trkpt><trkpt lat="45.914036424326994" lon="11.073748192901007"><ele>219.0</ele><time>2026-04-24T16:50:26.814Z</time></trkpt><trkpt lat="45.91408489114909" lon="11.073860151772113"><ele>218.99999999999997</ele><time>2026-04-24T16:50:27.814Z</time></trkpt><trkpt lat="45.914144912500966" lon="11.073995470178648"><ele>218.99999999999997</ele><time>2026-04-24T16:50:28.814Z</time></trkpt><trkpt lat="45.91419025487987" lon="11.074123866795924"><ele>219.0</ele><time>2026-04-24T16:50:29.814Z</time></trkpt><trkpt lat="45.91424044706673" lon="11.07425782206183"><ele>219.0</ele><time>2026-04-24T16:50:30.814Z</time></trkpt><trkpt lat="45.91427869114818" lon="11.0743967582102"><ele>215.33333333333334</ele><time>2026-04-24T16:50:31.814Z</time></trkpt><trkpt lat="45.91430929468795" lon="11.074536867290375"><ele>211.66666666666669</ele><time>2026-04-24T16:50:32.814Z</time></trkpt><trkpt lat="45.91434551976863" lon="11.074657017261208"><ele>208.0</ele><time>2026-04-24T16:50:33.814Z</time></trkpt><trkpt lat="45.91434977189775" lon="11.07479106554221"><ele>204.33333333333334</ele><time>2026-04-24T16:50:34.814Z</time></trkpt><trkpt lat="45.914372560585505" lon="11.074879397980606"><ele>200.66666666666669</ele><time>2026-04-24T16:50:35.814Z</time></trkpt><trkpt lat="45.91440567541199" lon="11.074986014701878"><ele>197.0</ele><time>2026-04-24T16:50:37.814Z</time></trkpt><trkpt lat="45.91447458513421" lon="11.0749609311377"><ele>196.8</ele><time>2026-04-24T16:50:39.814Z</time></trkpt><trkpt lat="45.914576977405574" lon="11.074844243507757"><ele>196.6</ele><time>2026-04-24T16:50:41.814Z</time></trkpt><trkpt lat="45.914625318524976" lon="11.074766022000558"><ele>196.4</ele><time>2026-04-24T16:50:42.814Z</time></trkpt><trkpt lat="45.914666027128185" lon="11.074695175887962"><ele>196.20000000000002</ele><time>2026-04-24T16:50:43.814Z</time></trkpt><trkpt lat="45.914689346704286" lon="11.07457537083929"><ele>196.0</ele><time>2026-04-24T16:50:45.814Z</time></trkpt><trkpt lat="45.91469776820228" lon="11.074411891522686"><ele>196.0</ele><time>2026-04-24T16:50:47.814Z</time></trkpt><trkpt lat="45.91472195914714" lon="11.074290414684585"><ele>196.0</ele><time>2026-04-24T16:50:48.814Z</time></trkpt><trkpt lat="45.914756668198315" lon="11.074153742541444"><ele>196.0</ele><time>2026-04-24T16:50:49.814Z</time></trkpt><trkpt lat="45.914790336875264" lon="11.074006174888058"><ele>196.0</ele><time>2026-04-24T16:50:50.814Z</time></trkpt><trkpt lat="45.91482852519353" lon="11.073848663066785"><ele>196.0</ele><time>2026-04-24T16:50:51.814Z</time></trkpt><trkpt lat="45.91486606172266" lon="11.073700574597158"><ele>195.8</ele><time>2026-04-24T16:50:52.813Z</time></trkpt><trkpt lat="45.91489968148696" lon="11.073562951244616"><ele>195.60000000000002</ele><time>2026-04-24T16:50:53.813Z</time></trkpt><trkpt lat="45.9149407895789" lon="11.073440714658068"><ele>195.4</ele><time>2026-04-24T16:50:54.813Z</time></trkpt><trkpt lat="45.91499248005234" lon="11.0733118718265"><ele>195.2</ele><time>2026-04-24T16:50:55.813Z</time></trkpt><trkpt lat="45.91505575813394" lon="11.073196483360128"><ele>195.0</ele><time>2026-04-24T16:50:56.813Z</time></trkpt><trkpt lat="45.91512136703934" lon="11.073077766597889"><ele>193.5</ele><time>2026-04-24T16:50:57.813Z</time></trkpt><trkpt lat="45.91518207120601" lon="11.072973261961788"><ele>192.0</ele><time>2026-04-24T16:50:58.813Z</time></trkpt><trkpt lat="45.915218259615145" lon="11.07285372660857"><ele>190.5</ele><time>2026-04-24T16:50:59.813Z</time></trkpt><trkpt lat="45.91522596591272" lon="11.072730370753307"><ele>189.0</ele><time>2026-04-24T16:51:00.813Z</time></trkpt><trkpt lat="45.91522263794633" lon="11.072606011167318"><ele>187.5</ele><time>2026-04-24T16:51:01.813Z</time></trkpt><trkpt lat="45.91523057022378" lon="11.072504547047247"><ele>186.0</ele><time>2026-04-24T16:51:02.813Z</time></trkpt><trkpt lat="45.9152774771993" lon="11.072385005708586"><ele>186.0</ele><time>2026-04-24T16:51:04.813Z</time></trkpt><trkpt lat="45.915336544673" lon="11.072430289156355"><ele>186.0</ele><time>2026-04-24T16:51:05.813Z</time></trkpt><trkpt lat="45.91544720962295" lon="11.072432807489623"><ele>186.0</ele><time>2026-04-24T16:51:07.813Z</time></trkpt><trkpt lat="45.915563155765014" lon="11.072405415713659"><ele>186.0</ele><time>2026-04-24T16:51:09.813Z</time></trkpt><trkpt lat="45.91566191537423" lon="11.072415799971298"><ele>186.0</ele><time>2026-04-24T16:51:11.813Z</time></trkpt><trkpt lat="45.9157176922396" lon="11.07227867770277"><ele>186.0</ele><time>2026-04-24T16:51:12.813Z</time></trkpt><trkpt lat="45.915749102752955" lon="11.072157090490856"><ele>186.0</ele><time>2026-04-24T16:51:13.813Z</time></trkpt><trkpt lat="45.915804119357304" lon="11.07203022510067"><ele>186.0</ele><time>2026-04-24T16:51:14.813Z</time></trkpt><trkpt lat="45.91584596861864" lon="11.07190143006627"><ele>186.0</ele><time>2026-04-24T16:51:15.813Z</time></trkpt><trkpt lat="45.91589687076087" lon="11.071758242353678"><ele>186.0</ele><time>2026-04-24T16:51:16.813Z</time></trkpt><trkpt lat="45.91593906289818" lon="11.071610500654419"><ele>184.5</ele><time>2026-04-24T16:51:17.813Z</time></trkpt><trkpt lat="45.91599089107144" lon="11.071453682460255"><ele>183.0</ele><time>2026-04-24T16:51:18.813Z</time></trkpt><trkpt lat="45.916044077920155" lon="11.07130940700466"><ele>181.5</ele><time>2026-04-24T16:51:19.813Z</time></trkpt><trkpt lat="45.916090935849354" lon="11.071164873307138"><ele>180.0</ele><time>2026-04-24T16:51:20.813Z</time></trkpt><trkpt lat="45.9161386046954" lon="11.071014577056566"><ele>180.0</ele><time>2026-04-24T16:51:21.813Z</time></trkpt><trkpt lat="45.91618220063823" lon="11.070868303442294"><ele>180.0</ele><time>2026-04-24T16:51:22.813Z</time></trkpt><trkpt lat="45.91622176323545" lon="11.070711903792796"><ele>180.0</ele><time>2026-04-24T16:51:23.813Z</time></trkpt><trkpt lat="45.916247359075676" lon="11.070551622148804"><ele>180.0</ele><time>2026-04-24T16:51:24.813Z</time></trkpt><trkpt lat="45.916264933628824" lon="11.070371136964559"><ele>180.25</ele><time>2026-04-24T16:51:25.813Z</time></trkpt><trkpt lat="45.916282023549485" lon="11.070194335425576"><ele>180.5</ele><time>2026-04-24T16:51:26.812Z</time></trkpt><trkpt lat="45.916296932768155" lon="11.07001606020407"><ele>180.75</ele><time>2026-04-24T16:51:27.812Z</time></trkpt><trkpt lat="45.91630554801567" lon="11.069850087763943"><ele>181.0</ele><time>2026-04-24T16:51:28.812Z</time></trkpt><trkpt lat="45.916318212315105" lon="11.069696809917254"><ele>181.0</ele><time>2026-04-24T16:51:29.812Z</time></trkpt><trkpt lat="45.91637624586555" lon="11.069576511690354"><ele>181.0</ele><time>2026-04-24T16:51:30.812Z</time></trkpt><trkpt lat="45.91644450958834" lon="11.069445177361908"><ele>181.0</ele><time>2026-04-24T16:51:31.812Z</time></trkpt><trkpt lat="45.91652231832571" lon="11.069302907435475"><ele>181.0</ele><time>2026-04-24T16:51:32.812Z</time></trkpt><trkpt lat="45.91659438009179" lon="11.069171077752141"><ele>181.4</ele><time>2026-04-24T16:51:33.812Z</time></trkpt><trkpt lat="45.91664805366033" lon="11.06902584385468"><ele>181.8</ele><time>2026-04-24T16:51:34.812Z</time></trkpt><trkpt lat="45.916712712360386" lon="11.068909712401219"><ele>182.20000000000002</ele><time>2026-04-24T16:51:35.812Z</time></trkpt><trkpt lat="45.91678125934497" lon="11.068810623578003"><ele>182.60000000000002</ele><time>2026-04-24T16:51:36.812Z</time></trkpt><trkpt lat="45.916840397476655" lon="11.068720096097959"><ele>183.0</ele><time>2026-04-24T16:51:37.812Z</time></trkpt><trkpt lat="45.91689030268471" lon="11.068627341169005"><ele>181.8</ele><time>2026-04-24T16:51:38.812Z</time></trkpt><trkpt lat="45.91693756618446" lon="11.068557047241198"><ele>180.60000000000002</ele><time>2026-04-24T16:51:39.812Z</time></trkpt><trkpt lat="45.91703707457337" lon="11.068547871701895"><ele>179.39999999999998</ele><time>2026-04-24T16:51:41.813Z</time></trkpt><trkpt lat="45.917078346876266" lon="11.068757153945644"><ele>178.2</ele><time>2026-04-24T16:51:43.813Z</time></trkpt><trkpt lat="45.9171360031851" lon="11.068884826536053"><ele>177.0</ele><time>2026-04-24T16:51:44.813Z</time></trkpt><trkpt lat="45.917196436726144" lon="11.068987861641075"><ele>176.83333333333334</ele><time>2026-04-24T16:51:45.813Z</time></trkpt><trkpt lat="45.91720579442639" lon="11.069127679702655"><ele>176.66666666666666</ele><time>2026-04-24T16:51:46.813Z</time></trkpt><trkpt lat="45.91720274333294" lon="11.06926248683511"><ele>176.5</ele><time>2026-04-24T16:51:47.812Z</time></trkpt><trkpt lat="45.91720932512474" lon="11.06940024164222"><ele>176.33333333333331</ele><time>2026-04-24T16:51:48.812Z</time></trkpt><trkpt lat="45.91721943565613" lon="11.069521853328427"><ele>176.16666666666666</ele><time>2026-04-24T16:51:49.813Z</time></trkpt><trkpt lat="45.91719290880085" lon="11.069605951652738"><ele>176.0</ele><time>2026-04-24T16:51:51.813Z</time></trkpt><trkpt lat="45.917118111991876" lon="11.069559327479867"><ele>176.0</ele><time>2026-04-24T16:51:52.813Z</time></trkpt><trkpt lat="45.91710681726338" lon="11.069402569604778"><ele>176.0</ele><time>2026-04-24T16:51:54.813Z</time></trkpt><trkpt lat="45.91711409009542" lon="11.069298133273977"><ele>176.0</ele><time>2026-04-24T16:51:55.812Z</time></trkpt><trkpt lat="45.917070172107394" lon="11.069153515401197"><ele>176.0</ele><time>2026-04-24T16:51:57.813Z</time></trkpt><trkpt lat="45.91699953976645" lon="11.069177396624033"><ele>176.0</ele><time>2026-04-24T16:51:59.812Z</time></trkpt><trkpt lat="45.91691760196813" lon="11.069149069499858"><ele>176.0</ele><time>2026-04-24T16:52:01.812Z</time></trkpt><trkpt lat="45.9168812984747" lon="11.069236505259902"><ele>176.0</ele><time>2026-04-24T16:53:30.81Z</time></trkpt><trkpt lat="45.916926213687205" lon="11.069315029658364"><ele>176.0</ele><time>2026-04-24T16:53:40.809Z</time></trkpt><trkpt lat="45.91690312550858" lon="11.069403663041351"><ele>176.0</ele><time>2026-04-24T16:53:55.811Z</time></trkpt><trkpt lat="45.916963046742254" lon="11.069230647672716"><ele>176.0</ele><time>2026-04-24T16:54:14.81Z</time></trkpt><trkpt lat="45.91693117072853" lon="11.069344288145091"><ele>176.0</ele><time>2026-04-24T16:54:33.809Z</time></trkpt><trkpt lat="45.916871633753225" lon="11.06937487120785"><ele>176.0</ele><time>2026-04-24T16:55:06.808Z</time></trkpt></trkseg><trkseg><trkpt lat="45.916989483395014" lon="11.069236081181012"><ele>176.0</ele><time>2026-04-24T17:48:00.859Z</time></trkpt><trkpt lat="45.91707498586949" lon="11.069274646171413"><ele>176.0</ele><time>2026-04-24T17:48:09.858Z</time></trkpt><trkpt lat="45.91709824548625" lon="11.069444034041334"><ele>176.0</ele><time>2026-04-24T17:48:11.858Z</time></trkpt><trkpt lat="45.91709496472222" lon="11.069552342486224"><ele>176.0</ele><time>2026-04-24T17:48:12.858Z</time></trkpt><trkpt lat="45.91714287303128" lon="11.069674538261767"><ele>176.0</ele><time>2026-04-24T17:48:14.858Z</time></trkpt><trkpt lat="45.91725498546221" lon="11.069628815070212"><ele>176.0</ele><time>2026-04-24T17:48:16.858Z</time></trkpt><trkpt lat="45.917312794198665" lon="11.069577058047598"><ele>176.0</ele><time>2026-04-24T17:48:17.858Z</time></trkpt><trkpt lat="45.91735417742736" lon="11.069489170747225"><ele>176.0</ele><time>2026-04-24T17:48:18.858Z</time></trkpt><trkpt lat="45.9174549995979" lon="11.069423185280739"><ele>176.0</ele><time>2026-04-24T17:48:20.858Z</time></trkpt><trkpt lat="45.91755715567303" lon="11.069384764255068"><ele>176.0</ele><time>2026-04-24T17:48:22.858Z</time></trkpt><trkpt lat="45.9174441106904" lon="11.069502497005375"><ele>176.0</ele><time>2026-04-24T17:48:23.86Z</time></trkpt><trkpt lat="45.91762871371241" lon="11.069080910223612"><ele>176.0</ele><time>2026-04-24T17:48:24.86Z</time></trkpt><trkpt lat="45.91767013728186" lon="11.068914058179965"><ele>176.0</ele><time>2026-04-24T17:48:25.86Z</time></trkpt><trkpt lat="45.91770999374516" lon="11.068731096526628"><ele>176.0</ele><time>2026-04-24T17:48:26.86Z</time></trkpt><trkpt lat="45.91774440110229" lon="11.06854854900168"><ele>176.0</ele><time>2026-04-24T17:48:27.86Z</time></trkpt><trkpt lat="45.91778199666792" lon="11.068349803100274"><ele>176.0</ele><time>2026-04-24T17:48:28.86Z</time></trkpt><trkpt lat="45.91782065871394" lon="11.068143546931408"><ele>176.66666666666666</ele><time>2026-04-24T17:48:29.86Z</time></trkpt><trkpt lat="45.91785903819305" lon="11.067940361427523"><ele>177.33333333333334</ele><time>2026-04-24T17:48:30.86Z</time></trkpt><trkpt lat="45.91789192009901" lon="11.067711832235926"><ele>178.0</ele><time>2026-04-24T17:48:31.859Z</time></trkpt><trkpt lat="45.9179378903386" lon="11.067491169845914"><ele>178.33333333333334</ele><time>2026-04-24T17:48:32.859Z</time></trkpt><trkpt lat="45.91798330436488" lon="11.067268572455998"><ele>178.66666666666666</ele><time>2026-04-24T17:48:33.86Z</time></trkpt><trkpt lat="45.918025754515035" lon="11.06705049336168"><ele>179.0</ele><time>2026-04-24T17:48:34.86Z</time></trkpt><trkpt lat="45.91805466032126" lon="11.066813121588085"><ele>180.33333333333331</ele><time>2026-04-24T17:48:35.86Z</time></trkpt><trkpt lat="45.91807933699352" lon="11.06658765094667"><ele>181.66666666666666</ele><time>2026-04-24T17:48:36.86Z</time></trkpt><trkpt lat="45.91808913740959" lon="11.0663398910242"><ele>183.0</ele><time>2026-04-24T17:48:37.86Z</time></trkpt><trkpt lat="45.91808143316005" lon="11.066085142920892"><ele>183.0</ele><time>2026-04-24T17:48:38.86Z</time></trkpt><trkpt lat="45.918058261279704" lon="11.065816711384187"><ele>183.0</ele><time>2026-04-24T17:48:39.859Z</time></trkpt><trkpt lat="45.9180295050807" lon="11.065541218067562"><ele>183.0</ele><time>2026-04-24T17:48:40.859Z</time></trkpt><trkpt lat="45.91800563306454" lon="11.065272119642662"><ele>183.0</ele><time>2026-04-24T17:48:41.86Z</time></trkpt><trkpt lat="45.91798844503295" lon="11.06499264356733"><ele>183.0</ele><time>2026-04-24T17:48:42.86Z</time></trkpt><trkpt lat="45.917968594535616" lon="11.06472867618475"><ele>183.0</ele><time>2026-04-24T17:48:43.86Z</time></trkpt><trkpt lat="45.91794569037642" lon="11.064481883358688"><ele>183.0</ele><time>2026-04-24T17:48:44.859Z</time></trkpt><trkpt lat="45.917931920096905" lon="11.06426447361357"><ele>183.0</ele><time>2026-04-24T17:48:45.859Z</time></trkpt><trkpt lat="45.91791746296079" lon="11.064057691630095"><ele>183.0</ele><time>2026-04-24T17:48:46.859Z</time></trkpt><trkpt lat="45.91790437950762" lon="11.063833177888684"><ele>183.33333333333334</ele><time>2026-04-24T17:48:47.859Z</time></trkpt><trkpt lat="45.91787516620916" lon="11.063594340470017"><ele>183.66666666666669</ele><time>2026-04-24T17:48:48.859Z</time></trkpt><trkpt lat="45.91783535578052" lon="11.063369341008126"><ele>184.0</ele><time>2026-04-24T17:48:49.859Z</time></trkpt><trkpt lat="45.91780058759724" lon="11.063162444794449"><ele>184.0</ele><time>2026-04-24T17:48:50.859Z</time></trkpt><trkpt lat="45.9177732509473" lon="11.062988896117016"><ele>184.0</ele><time>2026-04-24T17:48:51.859Z</time></trkpt><trkpt lat="45.917738715724106" lon="11.062833209659543"><ele>184.0</ele><time>2026-04-24T17:48:52.859Z</time></trkpt><trkpt lat="45.917706484026624" lon="11.062690330572796"><ele>184.0</ele><time>2026-04-24T17:48:53.859Z</time></trkpt><trkpt lat="45.91767013917959" lon="11.062537175672364"><ele>184.5</ele><time>2026-04-24T17:48:54.859Z</time></trkpt><trkpt lat="45.91761415206441" lon="11.062367952309778"><ele>185.0</ele><time>2026-04-24T17:48:55.859Z</time></trkpt><trkpt lat="45.917564602755235" lon="11.062180519321002"><ele>185.5</ele><time>2026-04-24T17:48:56.859Z</time></trkpt><trkpt lat="45.91751893842953" lon="11.061989330908174"><ele>186.0</ele><time>2026-04-24T17:48:57.859Z</time></trkpt><trkpt lat="45.91747531986928" lon="11.061795260453678"><ele>185.75</ele><time>2026-04-24T17:48:58.859Z</time></trkpt><trkpt lat="45.9174440167192" lon="11.061602816996265"><ele>185.5</ele><time>2026-04-24T17:48:59.859Z</time></trkpt><trkpt lat="45.917410019672566" lon="11.06140474828334"><ele>185.25</ele><time>2026-04-24T17:49:00.859Z</time></trkpt><trkpt lat="45.9173769936813" lon="11.061207492542767"><ele>185.0</ele><time>2026-04-24T17:49:01.859Z</time></trkpt><trkpt lat="45.91734638079299" lon="11.060995969707541"><ele>185.0</ele><time>2026-04-24T17:49:02.859Z</time></trkpt><trkpt lat="45.91733969163549" lon="11.060793175155336"><ele>185.0</ele><time>2026-04-24T17:49:03.859Z</time></trkpt><trkpt lat="45.9173350816914" lon="11.060586073527356"><ele>185.0</ele><time>2026-04-24T17:49:04.859Z</time></trkpt><trkpt lat="45.91732486312345" lon="11.060379574147689"><ele>185.0</ele><time>2026-04-24T17:49:05.859Z</time></trkpt><trkpt lat="45.917325384415236" lon="11.060178717355738"><ele>185.25</ele><time>2026-04-24T17:49:06.859Z</time></trkpt><trkpt lat="45.91733036552403" lon="11.05998877809846"><ele>185.5</ele><time>2026-04-24T17:49:07.859Z</time></trkpt><trkpt lat="45.91732818413688" lon="11.059822532082054"><ele>185.75</ele><time>2026-04-24T17:49:08.859Z</time></trkpt><trkpt lat="45.9173242995339" lon="11.059648880349997"><ele>186.0</ele><time>2026-04-24T17:49:09.859Z</time></trkpt><trkpt lat="45.91732875555561" lon="11.059463200394733"><ele>186.25</ele><time>2026-04-24T17:49:10.859Z</time></trkpt><trkpt lat="45.91732115766973" lon="11.059270580897174"><ele>186.5</ele><time>2026-04-24T17:49:11.859Z</time></trkpt><trkpt lat="45.91731963652234" lon="11.05905523514172"><ele>186.75</ele><time>2026-04-24T17:49:12.859Z</time></trkpt><trkpt lat="45.91731054984901" lon="11.05882818214381"><ele>187.0</ele><time>2026-04-24T17:49:13.859Z</time></trkpt><trkpt lat="45.917304387075625" lon="11.058593883078764"><ele>187.0</ele><time>2026-04-24T17:49:14.859Z</time></trkpt><trkpt lat="45.91730123637641" lon="11.058372810957229"><ele>187.0</ele><time>2026-04-24T17:49:15.859Z</time></trkpt><trkpt lat="45.917301021993296" lon="11.058135833950606"><ele>187.0</ele><time>2026-04-24T17:49:16.859Z</time></trkpt><trkpt lat="45.917302416876446" lon="11.057887927175754"><ele>186.33333333333334</ele><time>2026-04-24T17:49:17.859Z</time></trkpt><trkpt lat="45.91730113989208" lon="11.057628233933332"><ele>185.66666666666666</ele><time>2026-04-24T17:49:18.859Z</time></trkpt><trkpt lat="45.917297245895924" lon="11.057377557837714"><ele>185.0</ele><time>2026-04-24T17:49:19.859Z</time></trkpt><trkpt lat="45.91729293938283" lon="11.057144667079385"><ele>185.0</ele><time>2026-04-24T17:49:20.859Z</time></trkpt><trkpt lat="45.91729969756932" lon="11.056922053568751"><ele>185.0</ele><time>2026-04-24T17:49:21.859Z</time></trkpt><trkpt lat="45.91728553836601" lon="11.056692486496635"><ele>185.0</ele><time>2026-04-24T17:49:22.859Z</time></trkpt><trkpt lat="45.9172733383583" lon="11.056478943802443"><ele>185.0</ele><time>2026-04-24T17:49:23.859Z</time></trkpt><trkpt lat="45.917266345693626" lon="11.056269786382892"><ele>185.0</ele><time>2026-04-24T17:49:24.859Z</time></trkpt><trkpt lat="45.91725522013676" lon="11.056069856853005"><ele>185.0</ele><time>2026-04-24T17:49:25.859Z</time></trkpt><trkpt lat="45.91724703155624" lon="11.055872865412681"><ele>185.0</ele><time>2026-04-24T17:49:26.859Z</time></trkpt><trkpt lat="45.91723274382614" lon="11.055679510675102"><ele>185.0</ele><time>2026-04-24T17:49:27.859Z</time></trkpt><trkpt lat="45.91722279688519" lon="11.055480433469864"><ele>185.0</ele><time>2026-04-24T17:49:28.859Z</time></trkpt><trkpt lat="45.91721015535111" lon="11.055284505289057"><ele>185.0</ele><time>2026-04-24T17:49:29.859Z</time></trkpt><trkpt lat="45.91719554428219" lon="11.055099069409508"><ele>185.0</ele><time>2026-04-24T17:49:30.859Z</time></trkpt><trkpt lat="45.91718276191072" lon="11.054913621898361"><ele>185.0</ele><time>2026-04-24T17:49:31.859Z</time></trkpt><trkpt lat="45.91717755635362" lon="11.054726429704951"><ele>185.0</ele><time>2026-04-24T17:49:32.859Z</time></trkpt><trkpt lat="45.91716487389147" lon="11.05454197447851"><ele>185.0</ele><time>2026-04-24T17:49:33.859Z</time></trkpt><trkpt lat="45.917149761565405" lon="11.054357724403214"><ele>185.0</ele><time>2026-04-24T17:49:34.859Z</time></trkpt><trkpt lat="45.917130981204735" lon="11.054174972653538"><ele>185.25</ele><time>2026-04-24T17:49:35.859Z</time></trkpt><trkpt lat="45.917124516266284" lon="11.053995069190439"><ele>185.5</ele><time>2026-04-24T17:49:36.859Z</time></trkpt><trkpt lat="45.91710817767314" lon="11.05380485884683"><ele>185.75</ele><time>2026-04-24T17:49:37.859Z</time></trkpt><trkpt lat="45.91709416253698" lon="11.053604859869084"><ele>186.0</ele><time>2026-04-24T17:49:38.859Z</time></trkpt><trkpt lat="45.91708034679086" lon="11.053388316843385"><ele>185.33333333333334</ele><time>2026-04-24T17:49:39.859Z</time></trkpt><trkpt lat="45.91706155093522" lon="11.053159133837838"><ele>184.66666666666669</ele><time>2026-04-24T17:49:40.859Z</time></trkpt><trkpt lat="45.91704137205491" lon="11.052933579865975"><ele>184.0</ele><time>2026-04-24T17:49:41.859Z</time></trkpt><trkpt lat="45.91701192568218" lon="11.052695744083497"><ele>182.66666666666669</ele><time>2026-04-24T17:49:42.859Z</time></trkpt><trkpt lat="45.91695523471881" lon="11.05243293806079"><ele>181.33333333333334</ele><time>2026-04-24T17:49:43.859Z</time></trkpt><trkpt lat="45.91689062495217" lon="11.052152760849106"><ele>180.0</ele><time>2026-04-24T17:49:44.859Z</time></trkpt><trkpt lat="45.91682054218408" lon="11.051856526885395"><ele>178.0</ele><time>2026-04-24T17:49:45.859Z</time></trkpt><trkpt lat="45.91674741370574" lon="11.051560847303678"><ele>176.0</ele><time>2026-04-24T17:49:46.859Z</time></trkpt><trkpt lat="45.91668998675552" lon="11.051242979690457"><ele>174.0</ele><time>2026-04-24T17:49:47.859Z</time></trkpt><trkpt lat="45.91661875827937" lon="11.050931027065888"><ele>181.5</ele><time>2026-04-24T17:49:48.859Z</time></trkpt><trkpt lat="45.91656800753774" lon="11.0506169095338"><ele>189.0</ele><time>2026-04-24T17:49:49.859Z</time></trkpt><trkpt lat="45.916531918719286" lon="11.050287933875348"><ele>189.0</ele><time>2026-04-24T17:49:50.859Z</time></trkpt><trkpt lat="45.916493901493375" lon="11.049960492545752"><ele>189.0</ele><time>2026-04-24T17:49:51.859Z</time></trkpt><trkpt lat="45.91643458143473" lon="11.049668212142807"><ele>189.0</ele><time>2026-04-24T17:49:52.859Z</time></trkpt><trkpt lat="45.91633895474679" lon="11.049394271859557"><ele>186.0</ele><time>2026-04-24T17:49:53.859Z</time></trkpt><trkpt lat="45.91621737008349" lon="11.04912549307352"><ele>183.0</ele><time>2026-04-24T17:49:54.859Z</time></trkpt><trkpt lat="45.916081383395074" lon="11.048863907315194"><ele>183.0</ele><time>2026-04-24T17:49:55.859Z</time></trkpt><trkpt lat="45.91593386213156" lon="11.048635840436605"><ele>183.0</ele><time>2026-04-24T17:49:56.859Z</time></trkpt><trkpt lat="45.91576767654249" lon="11.048429870933736"><ele>183.0</ele><time>2026-04-24T17:49:57.859Z</time></trkpt><trkpt lat="45.91557665634007" lon="11.048222416740481"><ele>184.33333333333334</ele><time>2026-04-24T17:49:58.859Z</time></trkpt><trkpt lat="45.91539659070832" lon="11.04803806567149"><ele>185.66666666666669</ele><time>2026-04-24T17:49:59.859Z</time></trkpt><trkpt lat="45.91524487088178" lon="11.047867834653577"><ele>187.0</ele><time>2026-04-24T17:50:00.859Z</time></trkpt><trkpt lat="45.91512255201058" lon="11.047705976559582"><ele>188.75</ele><time>2026-04-24T17:50:01.859Z</time></trkpt><trkpt lat="45.91502425385513" lon="11.047551412454602"><ele>190.5</ele><time>2026-04-24T17:50:02.859Z</time></trkpt><trkpt lat="45.914940839730406" lon="11.047390079672683"><ele>192.25</ele><time>2026-04-24T17:50:03.859Z</time></trkpt><trkpt lat="45.9148506449188" lon="11.04721976521007"><ele>194.0</ele><time>2026-04-24T17:50:04.858Z</time></trkpt><trkpt lat="45.9147792811629" lon="11.04704779241866"><ele>194.0</ele><time>2026-04-24T17:50:05.858Z</time></trkpt><trkpt lat="45.91472540129509" lon="11.046884691267524"><ele>194.0</ele><time>2026-04-24T17:50:06.858Z</time></trkpt><trkpt lat="45.91467171177369" lon="11.04671274726358"><ele>194.0</ele><time>2026-04-24T17:50:07.858Z</time></trkpt><trkpt lat="45.91461529474087" lon="11.04654913263344"><ele>194.0</ele><time>2026-04-24T17:50:08.858Z</time></trkpt><trkpt lat="45.91455846380806" lon="11.046385211409836"><ele>194.0</ele><time>2026-04-24T17:50:09.858Z</time></trkpt><trkpt lat="45.9145026579121" lon="11.046231208031328"><ele>194.0</ele><time>2026-04-24T17:50:10.858Z</time></trkpt><trkpt lat="45.914422188219675" lon="11.046089107743736"><ele>194.0</ele><time>2026-04-24T17:50:11.858Z</time></trkpt><trkpt lat="45.91431784821399" lon="11.045951517477256"><ele>194.0</ele><time>2026-04-24T17:50:12.858Z</time></trkpt><trkpt lat="45.9142074326704" lon="11.045819946673955"><ele>195.5</ele><time>2026-04-24T17:50:13.858Z</time></trkpt><trkpt lat="45.91410988826489" lon="11.045701326994495"><ele>197.0</ele><time>2026-04-24T17:50:14.858Z</time></trkpt><trkpt lat="45.9140079154271" lon="11.045596758157034"><ele>198.5</ele><time>2026-04-24T17:50:15.858Z</time></trkpt><trkpt lat="45.913904804318804" lon="11.045494143866764"><ele>200.0</ele><time>2026-04-24T17:50:16.858Z</time></trkpt><trkpt lat="45.91380099455069" lon="11.045375083786539"><ele>200.0</ele><time>2026-04-24T17:50:17.858Z</time></trkpt><trkpt lat="45.91368884899754" lon="11.04525638944247"><ele>200.0</ele><time>2026-04-24T17:50:18.858Z</time></trkpt><trkpt lat="45.913578647011036" lon="11.045131813610874"><ele>200.0</ele><time>2026-04-24T17:50:19.858Z</time></trkpt><trkpt lat="45.91347177542746" lon="11.045007766307087"><ele>200.0</ele><time>2026-04-24T17:50:20.858Z</time></trkpt><trkpt lat="45.91337334608906" lon="11.04488428770141"><ele>200.25</ele><time>2026-04-24T17:50:21.858Z</time></trkpt><trkpt lat="45.91327617967974" lon="11.04475834421648"><ele>200.5</ele><time>2026-04-24T17:50:22.858Z</time></trkpt><trkpt lat="45.91317350607496" lon="11.044628147614254"><ele>200.75</ele><time>2026-04-24T17:50:23.858Z</time></trkpt><trkpt lat="45.913079980614036" lon="11.04449892204837"><ele>201.0</ele><time>2026-04-24T17:50:24.858Z</time></trkpt><trkpt lat="45.912997670276354" lon="11.044373665107537"><ele>201.0</ele><time>2026-04-24T17:50:25.858Z</time></trkpt><trkpt lat="45.91291864500234" lon="11.04425511436058"><ele>201.0</ele><time>2026-04-24T17:50:26.858Z</time></trkpt><trkpt lat="45.91283605756756" lon="11.044133413598784"><ele>201.0</ele><time>2026-04-24T17:50:27.858Z</time></trkpt><trkpt lat="45.91274944468109" lon="11.044016641238311"><ele>201.0</ele><time>2026-04-24T17:50:28.858Z</time></trkpt><trkpt lat="45.91265388147406" lon="11.043899730587446"><ele>201.0</ele><time>2026-04-24T17:50:29.859Z</time></trkpt><trkpt lat="45.91253379808861" lon="11.043820358258026"><ele>201.0</ele><time>2026-04-24T17:50:30.859Z</time></trkpt><trkpt lat="45.912425016013806" lon="11.043727820277747"><ele>201.0</ele><time>2026-04-24T17:50:31.859Z</time></trkpt><trkpt lat="45.91232511273243" lon="11.043641060200759"><ele>201.0</ele><time>2026-04-24T17:50:32.859Z</time></trkpt><trkpt lat="45.91222977402757" lon="11.043544588322904"><ele>201.0</ele><time>2026-04-24T17:50:33.859Z</time></trkpt><trkpt lat="45.91213395673013" lon="11.043433505116734"><ele>201.0</ele><time>2026-04-24T17:50:34.859Z</time></trkpt><trkpt lat="45.91204582744156" lon="11.043304107560827"><ele>201.0</ele><time>2026-04-24T17:50:35.859Z</time></trkpt><trkpt lat="45.91196767133519" lon="11.043186746552413"><ele>201.0</ele><time>2026-04-24T17:50:36.859Z</time></trkpt><trkpt lat="45.91188897659464" lon="11.043064089306183"><ele>200.0</ele><time>2026-04-24T17:50:37.859Z</time></trkpt><trkpt lat="45.91180828949291" lon="11.042938002368485"><ele>199.0</ele><time>2026-04-24T17:50:38.859Z</time></trkpt><trkpt lat="45.91172397398257" lon="11.04280698180279"><ele>198.0</ele><time>2026-04-24T17:50:39.859Z</time></trkpt><trkpt lat="45.911639877630236" lon="11.04268029957451"><ele>197.0</ele><time>2026-04-24T17:50:40.859Z</time></trkpt><trkpt lat="45.9115554396053" lon="11.042574324456844"><ele>198.0</ele><time>2026-04-24T17:50:41.859Z</time></trkpt><trkpt lat="45.91147845613126" lon="11.042477296740607"><ele>199.0</ele><time>2026-04-24T17:50:42.859Z</time></trkpt><trkpt lat="45.9113916613259" lon="11.042392238470967"><ele>200.0</ele><time>2026-04-24T17:50:43.859Z</time></trkpt><trkpt lat="45.91130109714415" lon="11.042302903655385"><ele>201.0</ele><time>2026-04-24T17:50:44.859Z</time></trkpt><trkpt lat="45.91120390178383" lon="11.042222539304928"><ele>202.0</ele><time>2026-04-24T17:50:45.859Z</time></trkpt><trkpt lat="45.91111783334268" lon="11.042142789265098"><ele>202.0</ele><time>2026-04-24T17:50:46.859Z</time></trkpt><trkpt lat="45.911038334221615" lon="11.04207249560067"><ele>202.0</ele><time>2026-04-24T17:50:47.859Z</time></trkpt><trkpt lat="45.910953944094" lon="11.0420070065096"><ele>202.0</ele><time>2026-04-24T17:50:48.859Z</time></trkpt><trkpt lat="45.9108681069512" lon="11.041942951564398"><ele>202.0</ele><time>2026-04-24T17:50:49.859Z</time></trkpt><trkpt lat="45.910776759750114" lon="11.041878679644979"><ele>202.0</ele><time>2026-04-24T17:50:50.859Z</time></trkpt><trkpt lat="45.91068133740508" lon="11.041821844361596"><ele>202.0</ele><time>2026-04-24T17:50:51.859Z</time></trkpt><trkpt lat="45.91058211544939" lon="11.04176988091083"><ele>202.0</ele><time>2026-04-24T17:50:52.859Z</time></trkpt><trkpt lat="45.9104887555903" lon="11.041730342135939"><ele>202.0</ele><time>2026-04-24T17:50:53.859Z</time></trkpt><trkpt lat="45.9103993217397" lon="11.041693231538302"><ele>202.0</ele><time>2026-04-24T17:50:54.859Z</time></trkpt><trkpt lat="45.91031429965918" lon="11.04165908837745"><ele>202.0</ele><time>2026-04-24T17:50:55.859Z</time></trkpt><trkpt lat="45.91022397185712" lon="11.041625452794264"><ele>202.0</ele><time>2026-04-24T17:50:56.859Z</time></trkpt><trkpt lat="45.910118680973284" lon="11.041587996069701"><ele>202.0</ele><time>2026-04-24T17:50:57.859Z</time></trkpt><trkpt lat="45.910000401827965" lon="11.041534298931884"><ele>202.0</ele><time>2026-04-24T17:50:58.859Z</time></trkpt><trkpt lat="45.90986651269274" lon="11.04145720377972"><ele>202.0</ele><time>2026-04-24T17:50:59.859Z</time></trkpt><trkpt lat="45.90971579923934" lon="11.041370957525407"><ele>202.5</ele><time>2026-04-24T17:51:00.859Z</time></trkpt><trkpt lat="45.909586656004805" lon="11.041287973292391"><ele>203.0</ele><time>2026-04-24T17:51:01.859Z</time></trkpt><trkpt lat="45.90946639431754" lon="11.041218545271525"><ele>203.5</ele><time>2026-04-24T17:51:02.859Z</time></trkpt><trkpt lat="45.90935128145944" lon="11.041157474382018"><ele>204.0</ele><time>2026-04-24T17:51:03.859Z</time></trkpt><trkpt lat="45.909249802690816" lon="11.041104288503835"><ele>204.0</ele><time>2026-04-24T17:51:04.859Z</time></trkpt><trkpt lat="45.90915998610659" lon="11.041058120313291"><ele>204.0</ele><time>2026-04-24T17:51:05.859Z</time></trkpt><trkpt lat="45.909081887502985" lon="11.04102394656119"><ele>204.0</ele><time>2026-04-24T17:51:06.859Z</time></trkpt><trkpt lat="45.908978521439636" lon="11.040964644566824"><ele>204.0</ele><time>2026-04-24T17:51:08.859Z</time></trkpt><trkpt lat="45.908901345972716" lon="11.040918028403937"><ele>204.0</ele><time>2026-04-24T17:51:10.859Z</time></trkpt><trkpt lat="45.90884723516885" lon="11.040860297371783"><ele>204.0</ele><time>2026-04-24T17:51:12.859Z</time></trkpt><trkpt lat="45.90880306242525" lon="11.040740500405004"><ele>202.83333333333334</ele><time>2026-04-24T17:51:14.858Z</time></trkpt><trkpt lat="45.908703168936746" lon="11.040708701065359"><ele>201.66666666666669</ele><time>2026-04-24T17:51:16.858Z</time></trkpt><trkpt lat="45.90863459745314" lon="11.04070878347121"><ele>200.5</ele><time>2026-04-24T17:51:17.858Z</time></trkpt><trkpt lat="45.90856281885665" lon="11.040696380141531"><ele>199.33333333333334</ele><time>2026-04-24T17:51:18.858Z</time></trkpt><trkpt lat="45.9084501886588" lon="11.040662929747914"><ele>198.16666666666669</ele><time>2026-04-24T17:51:20.858Z</time></trkpt><trkpt lat="45.90836448304594" lon="11.040628540305098"><ele>197.0</ele><time>2026-04-24T17:51:22.858Z</time></trkpt><trkpt lat="45.90829533043781" lon="11.040579490575512"><ele>197.0</ele><time>2026-04-24T17:51:25.858Z</time></trkpt><trkpt lat="45.90821282445915" lon="11.04054806970922"><ele>197.0</ele><time>2026-04-24T17:51:28.858Z</time></trkpt><trkpt lat="45.908144261387385" lon="11.040512403764595"><ele>197.0</ele><time>2026-04-24T17:51:29.858Z</time></trkpt><trkpt lat="45.908055561777324" lon="11.040467399479493"><ele>197.0</ele><time>2026-04-24T17:51:30.858Z</time></trkpt><trkpt lat="45.90795751339107" lon="11.040419888667731"><ele>197.0</ele><time>2026-04-24T17:51:31.858Z</time></trkpt><trkpt lat="45.90784904271332" lon="11.040355519389356"><ele>197.0</ele><time>2026-04-24T17:51:32.858Z</time></trkpt><trkpt lat="45.90773952793062" lon="11.040302051897209"><ele>197.0</ele><time>2026-04-24T17:51:33.858Z</time></trkpt><trkpt lat="45.90762144306413" lon="11.040236600975922"><ele>197.0</ele><time>2026-04-24T17:51:34.858Z</time></trkpt><trkpt lat="45.90748867642032" lon="11.040177736462049"><ele>197.0</ele><time>2026-04-24T17:51:35.858Z</time></trkpt><trkpt lat="45.90738043750055" lon="11.04012374663873"><ele>197.39999999999998</ele><time>2026-04-24T17:51:36.858Z</time></trkpt><trkpt lat="45.90729043505001" lon="11.040072334106199"><ele>197.79999999999998</ele><time>2026-04-24T17:51:37.858Z</time></trkpt><trkpt lat="45.907235072823184" lon="11.040021610840872"><ele>198.2</ele><time>2026-04-24T17:51:38.858Z</time></trkpt><trkpt lat="45.90716167524951" lon="11.039975866366355"><ele>198.6</ele><time>2026-04-24T17:51:40.858Z</time></trkpt><trkpt lat="45.90702722748661" lon="11.040041839485788"><ele>199.0</ele><time>2026-04-24T17:51:42.858Z</time></trkpt><trkpt lat="45.906927551788904" lon="11.040064398279172"><ele>199.0</ele><time>2026-04-24T17:51:43.858Z</time></trkpt><trkpt lat="45.906817728635616" lon="11.040077399926219"><ele>199.0</ele><time>2026-04-24T17:51:44.858Z</time></trkpt><trkpt lat="45.9067002141552" lon="11.040040899084598"><ele>199.0</ele><time>2026-04-24T17:51:45.858Z</time></trkpt><trkpt lat="45.90655818692478" lon="11.040030967128152"><ele>199.0</ele><time>2026-04-24T17:51:46.858Z</time></trkpt><trkpt lat="45.90642908952592" lon="11.040035347421966"><ele>200.25</ele><time>2026-04-24T17:51:47.858Z</time></trkpt><trkpt lat="45.906303296418216" lon="11.040039427477184"><ele>201.5</ele><time>2026-04-24T17:51:48.858Z</time></trkpt><trkpt lat="45.90616245460724" lon="11.040050895281052"><ele>202.75</ele><time>2026-04-24T17:51:49.858Z</time></trkpt><trkpt lat="45.906009900910014" lon="11.040068328737345"><ele>204.0</ele><time>2026-04-24T17:51:50.858Z</time></trkpt><trkpt lat="45.9058475439403" lon="11.04009707359313"><ele>204.66666666666669</ele><time>2026-04-24T17:51:51.858Z</time></trkpt><trkpt lat="45.90567283843322" lon="11.040140447611014"><ele>205.33333333333334</ele><time>2026-04-24T17:51:52.858Z</time></trkpt><trkpt lat="45.90552150354512" lon="11.040183708669167"><ele>206.0</ele><time>2026-04-24T17:51:53.858Z</time></trkpt><trkpt lat="45.90538057648139" lon="11.040207354420943"><ele>206.0</ele><time>2026-04-24T17:51:54.858Z</time></trkpt><trkpt lat="45.90523951404589" lon="11.040250566634697"><ele>206.0</ele><time>2026-04-24T17:51:55.858Z</time></trkpt><trkpt lat="45.90509802878666" lon="11.040299758270931"><ele>206.0</ele><time>2026-04-24T17:51:56.858Z</time></trkpt><trkpt lat="45.90494300820179" lon="11.040376920897447"><ele>205.75</ele><time>2026-04-24T17:51:57.858Z</time></trkpt><trkpt lat="45.904793806195386" lon="11.040447415733558"><ele>205.5</ele><time>2026-04-24T17:51:58.858Z</time></trkpt><trkpt lat="45.90465217011622" lon="11.040517462315885"><ele>205.25</ele><time>2026-04-24T17:51:59.858Z</time></trkpt><trkpt lat="45.90452939303784" lon="11.040571049980638"><ele>205.0</ele><time>2026-04-24T17:52:00.858Z</time></trkpt><trkpt lat="45.90440941334467" lon="11.040637831271372"><ele>205.0</ele><time>2026-04-24T17:52:01.858Z</time></trkpt><trkpt lat="45.90428915134108" lon="11.040691025669483"><ele>205.0</ele><time>2026-04-24T17:52:02.858Z</time></trkpt><trkpt lat="45.9041652170147" lon="11.04074868470051"><ele>205.0</ele><time>2026-04-24T17:52:03.858Z</time></trkpt><trkpt lat="45.90402401714339" lon="11.04084854552867"><ele>205.0</ele><time>2026-04-24T17:52:04.858Z</time></trkpt><trkpt lat="45.90387559936829" lon="11.040859587315817"><ele>205.33333333333331</ele><time>2026-04-24T17:52:05.858Z</time></trkpt><trkpt lat="45.90371829096307" lon="11.040920615546918"><ele>205.66666666666669</ele><time>2026-04-24T17:52:06.858Z</time></trkpt><trkpt lat="45.9035524042431" lon="11.040976393759294"><ele>206.0</ele><time>2026-04-24T17:52:07.858Z</time></trkpt><trkpt lat="45.9033836118573" lon="11.04101774572419"><ele>206.0</ele><time>2026-04-24T17:52:08.858Z</time></trkpt><trkpt lat="45.903219070174536" lon="11.041068508512774"><ele>206.0</ele><time>2026-04-24T17:52:09.858Z</time></trkpt><trkpt lat="45.903056700047976" lon="11.041120653684585"><ele>206.0</ele><time>2026-04-24T17:52:10.858Z</time></trkpt><trkpt lat="45.902881545653685" lon="11.04116714625293"><ele>206.0</ele><time>2026-04-24T17:52:11.857Z</time></trkpt><trkpt lat="45.90270821973094" lon="11.041211397652376"><ele>206.0</ele><time>2026-04-24T17:52:12.857Z</time></trkpt><trkpt lat="45.90252927650708" lon="11.041264395732021"><ele>206.0</ele><time>2026-04-24T17:52:13.857Z</time></trkpt><trkpt lat="45.90235395274377" lon="11.041315633747617"><ele>206.0</ele><time>2026-04-24T17:52:14.857Z</time></trkpt><trkpt lat="45.90218486057382" lon="11.041366913116317"><ele>206.0</ele><time>2026-04-24T17:52:15.857Z</time></trkpt><trkpt lat="45.90203256607469" lon="11.041414308282256"><ele>206.0</ele><time>2026-04-24T17:52:16.857Z</time></trkpt><trkpt lat="45.90189159182914" lon="11.041461890751819"><ele>206.0</ele><time>2026-04-24T17:52:17.857Z</time></trkpt><trkpt lat="45.901761591505526" lon="11.041499463892931"><ele>206.0</ele><time>2026-04-24T17:52:18.857Z</time></trkpt><trkpt lat="45.901645767614674" lon="11.04152930211603"><ele>206.0</ele><time>2026-04-24T17:52:19.857Z</time></trkpt><trkpt lat="45.901542525974016" lon="11.041558646473133"><ele>206.0</ele><time>2026-04-24T17:52:20.857Z</time></trkpt><trkpt lat="45.90143993158687" lon="11.041580956155913"><ele>205.0</ele><time>2026-04-24T17:52:21.857Z</time></trkpt><trkpt lat="45.9013387873947" lon="11.041597528800095"><ele>204.0</ele><time>2026-04-24T17:52:22.857Z</time></trkpt><trkpt lat="45.90123139421917" lon="11.041630264079433"><ele>203.0</ele><time>2026-04-24T17:52:23.857Z</time></trkpt><trkpt lat="45.90110511002159" lon="11.041674388480573"><ele>202.0</ele><time>2026-04-24T17:52:24.857Z</time></trkpt><trkpt lat="45.900984598588146" lon="11.041717849199022"><ele>201.75</ele><time>2026-04-24T17:52:25.857Z</time></trkpt><trkpt lat="45.90085411637474" lon="11.04176791208339"><ele>201.5</ele><time>2026-04-24T17:52:26.857Z</time></trkpt><trkpt lat="45.90071552996615" lon="11.04180883001903"><ele>201.25</ele><time>2026-04-24T17:52:27.857Z</time></trkpt><trkpt lat="45.90056793793404" lon="11.041866756273633"><ele>201.0</ele><time>2026-04-24T17:52:28.857Z</time></trkpt><trkpt lat="45.9004257590936" lon="11.04191739720701"><ele>201.0</ele><time>2026-04-24T17:52:29.857Z</time></trkpt><trkpt lat="45.900256192820116" lon="11.041943648159462"><ele>201.0</ele><time>2026-04-24T17:52:30.857Z</time></trkpt><trkpt lat="45.90010124432108" lon="11.041988133761738"><ele>201.0</ele><time>2026-04-24T17:52:31.857Z</time></trkpt><trkpt lat="45.899952237263754" lon="11.042031468526481"><ele>201.0</ele><time>2026-04-24T17:52:32.857Z</time></trkpt><trkpt lat="45.899823553289075" lon="11.042067929636808"><ele>201.0</ele><time>2026-04-24T17:52:33.857Z</time></trkpt><trkpt lat="45.89970627811281" lon="11.042100873146312"><ele>201.0</ele><time>2026-04-24T17:52:34.857Z</time></trkpt><trkpt lat="45.899587877130315" lon="11.042134132880708"><ele>201.0</ele><time>2026-04-24T17:52:35.859Z</time></trkpt><trkpt lat="45.89947897497237" lon="11.042164724321294"><ele>201.0</ele><time>2026-04-24T17:52:36.858Z</time></trkpt><trkpt lat="45.89938435387975" lon="11.042191304099365"><ele>201.0</ele><time>2026-04-24T17:52:37.858Z</time></trkpt><trkpt lat="45.89929963299968" lon="11.042215102843201"><ele>201.0</ele><time>2026-04-24T17:52:38.858Z</time></trkpt><trkpt lat="45.899236828313384" lon="11.0422329927498"><ele>201.0</ele><time>2026-04-24T17:52:39.858Z</time></trkpt><trkpt lat="45.899173992543815" lon="11.042250974465396"><ele>201.0</ele><time>2026-04-24T17:52:40.858Z</time></trkpt><trkpt lat="45.8991090960701" lon="11.042269545914616"><ele>201.0</ele><time>2026-04-24T17:52:41.859Z</time></trkpt><trkpt lat="45.89899946725802" lon="11.042304329826313"><ele>201.16666666666666</ele><time>2026-04-24T17:52:43.859Z</time></trkpt><trkpt lat="45.89893791596785" lon="11.042336414107178"><ele>201.33333333333331</ele><time>2026-04-24T17:52:45.858Z</time></trkpt><trkpt lat="45.89886188103206" lon="11.042329081821524"><ele>201.5</ele><time>2026-04-24T17:52:47.858Z</time></trkpt><trkpt lat="45.89876574158024" lon="11.042235210693201"><ele>201.66666666666666</ele><time>2026-04-24T17:52:49.858Z</time></trkpt><trkpt lat="45.89870609143176" lon="11.042196346293654"><ele>201.83333333333331</ele><time>2026-04-24T17:52:50.858Z</time></trkpt><trkpt lat="45.89861421612653" lon="11.04217327609938"><ele>202.0</ele><time>2026-04-24T17:52:51.858Z</time></trkpt><trkpt lat="45.89850468709099" lon="11.0421668184352"><ele>202.0</ele><time>2026-04-24T17:52:52.858Z</time></trkpt><trkpt lat="45.898400993173816" lon="11.042125081141156"><ele>202.0</ele><time>2026-04-24T17:52:53.858Z</time></trkpt><trkpt lat="45.898292330037606" lon="11.04202758154825"><ele>202.0</ele><time>2026-04-24T17:52:54.858Z</time></trkpt><trkpt lat="45.89817648464624" lon="11.041924941973825"><ele>202.0</ele><time>2026-04-24T17:52:55.858Z</time></trkpt><trkpt lat="45.8980698930208" lon="11.041845624700272"><ele>202.0</ele><time>2026-04-24T17:52:56.858Z</time></trkpt><trkpt lat="45.897968386410724" lon="11.041766419158543"><ele>202.0</ele><time>2026-04-24T17:52:57.858Z</time></trkpt><trkpt lat="45.89786399942257" lon="11.041684475491667"><ele>202.0</ele><time>2026-04-24T17:52:58.858Z</time></trkpt><trkpt lat="45.897743750335025" lon="11.04160191324683"><ele>202.0</ele><time>2026-04-24T17:52:59.858Z</time></trkpt><trkpt lat="45.89763147984047" lon="11.041511583183748"><ele>199.75</ele><time>2026-04-24T17:53:00.858Z</time></trkpt><trkpt lat="45.897520077409105" lon="11.041429574579377"><ele>197.5</ele><time>2026-04-24T17:53:01.858Z</time></trkpt><trkpt lat="45.89741243066935" lon="11.041340403964645"><ele>195.25</ele><time>2026-04-24T17:53:02.858Z</time></trkpt><trkpt lat="45.89731789119867" lon="11.041258340486728"><ele>193.0</ele><time>2026-04-24T17:53:03.858Z</time></trkpt><trkpt lat="45.89722232637843" lon="11.041187004871427"><ele>192.99999999999997</ele><time>2026-04-24T17:53:04.858Z</time></trkpt><trkpt lat="45.89711994686267" lon="11.041108492908618"><ele>193.0</ele><time>2026-04-24T17:53:05.858Z</time></trkpt><trkpt lat="45.89702929463022" lon="11.04103939206202"><ele>193.0</ele><time>2026-04-24T17:53:06.858Z</time></trkpt><trkpt lat="45.896949546124915" lon="11.040982818783013"><ele>193.0</ele><time>2026-04-24T17:53:07.858Z</time></trkpt><trkpt lat="45.89689015565164" lon="11.040948378860199"><ele>192.99999999999997</ele><time>2026-04-24T17:53:08.858Z</time></trkpt><trkpt lat="45.89682921816667" lon="11.04098927165942"><ele>193.0</ele><time>2026-04-24T17:53:10.857Z</time></trkpt><trkpt lat="45.896799593260596" lon="11.04111498004041"><ele>192.8</ele><time>2026-04-24T17:53:11.857Z</time></trkpt><trkpt lat="45.8967500831599" lon="11.041215541332859"><ele>192.60000000000002</ele><time>2026-04-24T17:53:12.857Z</time></trkpt><trkpt lat="45.896705278774974" lon="11.041378050055002"><ele>192.39999999999998</ele><time>2026-04-24T17:53:13.857Z</time></trkpt><trkpt lat="45.89664913785451" lon="11.041532869570597"><ele>192.2</ele><time>2026-04-24T17:53:14.857Z</time></trkpt><trkpt lat="45.89661154376074" lon="11.041648609891649"><ele>192.0</ele><time>2026-04-24T17:53:15.857Z</time></trkpt><trkpt lat="45.896558501202435" lon="11.041721292130484"><ele>193.0</ele><time>2026-04-24T17:53:16.857Z</time></trkpt><trkpt lat="45.896409443215774" lon="11.041713962288089"><ele>194.0</ele><time>2026-04-24T17:53:18.857Z</time></trkpt><trkpt lat="45.89628925336569" lon="11.041748068551113"><ele>195.0</ele><time>2026-04-24T17:53:19.857Z</time></trkpt><trkpt lat="45.896153681826945" lon="11.041754760302004"><ele>196.0</ele><time>2026-04-24T17:53:20.857Z</time></trkpt><trkpt lat="45.89602450634855" lon="11.041761318856128"><ele>196.16666666666666</ele><time>2026-04-24T17:53:21.857Z</time></trkpt><trkpt lat="45.89591948879741" lon="11.041763357889934"><ele>196.33333333333331</ele><time>2026-04-24T17:53:22.857Z</time></trkpt><trkpt lat="45.895836440681535" lon="11.041764849492504"><ele>196.5</ele><time>2026-04-24T17:53:23.857Z</time></trkpt><trkpt lat="45.895749031530826" lon="11.041767528198289"><ele>196.66666666666669</ele><time>2026-04-24T17:53:24.857Z</time></trkpt><trkpt lat="45.89568112455154" lon="11.04177035637504"><ele>196.83333333333334</ele><time>2026-04-24T17:53:25.857Z</time></trkpt><trkpt lat="45.89560548880732" lon="11.041773506438492"><ele>197.0</ele><time>2026-04-24T17:53:26.857Z</time></trkpt><trkpt lat="45.89553583775077" lon="11.041771934709079"><ele>197.0</ele><time>2026-04-24T17:53:27.857Z</time></trkpt><trkpt lat="45.89545681915891" lon="11.041753392980972"><ele>197.0</ele><time>2026-04-24T17:53:29.857Z</time></trkpt><trkpt lat="45.895454650322385" lon="11.0415888851025"><ele>197.0</ele><time>2026-04-24T17:53:30.857Z</time></trkpt><trkpt lat="45.895466278813366" lon="11.041433470050476"><ele>197.0</ele><time>2026-04-24T17:53:31.857Z</time></trkpt><trkpt lat="45.89547394241133" lon="11.041333045613898"><ele>197.0</ele><time>2026-04-24T17:53:32.857Z</time></trkpt><trkpt lat="45.895482787830495" lon="11.041217133326947"><ele>195.0</ele><time>2026-04-24T17:53:34.857Z</time></trkpt><trkpt lat="45.895371893069715" lon="11.041162790165432"><ele>195.0</ele><time>2026-04-24T17:53:56.857Z</time></trkpt><trkpt lat="45.895300782690676" lon="11.041158042002136"><ele>195.0</ele><time>2026-04-24T17:53:57.857Z</time></trkpt><trkpt lat="45.89522462307186" lon="11.041139993219266"><ele>195.0</ele><time>2026-04-24T17:53:59.857Z</time></trkpt><trkpt lat="45.8951653773082" lon="11.041081602796776"><ele>195.0</ele><time>2026-04-24T17:54:07.857Z</time></trkpt></trkseg></trk></gpx>